<?xml version='1.0' encoding='UTF-8'?><gpx version="1.1" creator="JPX - https://github.com/jenetics/jpx" xmlns="http://www.topografix.com/GPX/1/1"><trk><trkseg><trkpt lat="43.44166797495262" lon="13.65836870252587"><ele>0.9999999999999999</ele><time>2026-04-12T07:12:24Z</time></trkpt><trkpt lat="43.441533205534384" lon="13.658305206588473"><ele>1.0</ele><time>2026-04-12T07:12:27Z</time></trkpt><trkpt lat="43.44149672853497" lon="13.65819263996164"><ele>1.0</ele><time>2026-04-12T07:12:28Z</time></trkpt><trkpt lat="43.441506657696024" lon="13.658092783804591"><ele>1.0</ele><time>2026-04-12T07:12:29Z</time></trkpt><trkpt lat="43.44153676203948" lon="13.65801418050063"><ele>0.9999999999999999</ele><time>2026-04-12T07:12:30Z</time></trkpt><trkpt lat="43.44159770445447" lon="13.65794603912447"><ele>1.0</ele><time>2026-04-12T07:12:32Z</time></trkpt><trkpt lat="43.44155764395596" lon="13.65786409703297"><ele>1.1666666666666665</ele><time>2026-04-12T07:12:35Z</time></trkpt><trkpt lat="43.441489012169846" lon="13.657782970402861"><ele>1.3333333333333333</ele><time>2026-04-12T07:12:36Z</time></trkpt><trkpt lat="43.44148333497114" lon="13.657685359900004"><ele>1.5</ele><time>2026-04-12T07:12:37Z</time></trkpt><trkpt lat="43.44151907964486" lon="13.657612870606938"><ele>1.6666666666666665</ele><time>2026-04-12T07:12:38Z</time></trkpt><trkpt lat="43.441510721211245" lon="13.657520938413883"><ele>1.8333333333333333</ele><time>2026-04-12T07:12:39Z</time></trkpt><trkpt lat="43.44148184678087" lon="13.6574330228889"><ele>2.0</ele><time>2026-04-12T07:12:40Z</time></trkpt><trkpt lat="43.441462470103815" lon="13.65724776189469"><ele>2.0</ele><time>2026-04-12T07:12:42Z</time></trkpt><trkpt lat="43.441461774355034" lon="13.657138675431824"><ele>2.0</ele><time>2026-04-12T07:12:44Z</time></trkpt><trkpt lat="43.44147390955171" lon="13.657017719660217"><ele>2.0</ele><time>2026-04-12T07:12:46Z</time></trkpt><trkpt lat="43.441465781330955" lon="13.65686292173689"><ele>2.0</ele><time>2026-04-12T07:12:48Z</time></trkpt><trkpt lat="43.441355492722515" lon="13.656801468305927"><ele>2.0</ele><time>2026-04-12T07:12:50Z</time></trkpt><trkpt lat="43.44128287810367" lon="13.65686913852342"><ele>1.6666666666666665</ele><time>2026-04-12T07:12:51Z</time></trkpt><trkpt lat="43.4412228928593" lon="13.656927499686274"><ele>1.3333333333333333</ele><time>2026-04-12T07:12:52Z</time></trkpt><trkpt lat="43.441163155405576" lon="13.657002292158952"><ele>1.0</ele><time>2026-04-12T07:12:53Z</time></trkpt><trkpt lat="43.441082763686985" lon="13.65706089192728"><ele>0.6666666666666666</ele><time>2026-04-12T07:12:54Z</time></trkpt><trkpt lat="43.44098947673302" lon="13.657097909118322"><ele>0.3333333333333333</ele><time>2026-04-12T07:12:55Z</time></trkpt><trkpt lat="43.44090199842111" lon="13.657133288742967"><ele>0.0</ele><time>2026-04-12T07:12:56Z</time></trkpt><trkpt lat="43.44080508910431" lon="13.657169373043416"><ele>0.0</ele><time>2026-04-12T07:12:57Z</time></trkpt><trkpt lat="43.440698694183546" lon="13.657200670820577"><ele>0.0</ele><time>2026-04-12T07:12:58Z</time></trkpt><trkpt lat="43.44058925542879" lon="13.657232083310236"><ele>0.0</ele><time>2026-04-12T07:12:59Z</time></trkpt><trkpt lat="43.44047659392154" lon="13.65726174910432"><ele>0.0</ele><time>2026-04-12T07:13:00Z</time></trkpt><trkpt lat="43.440362561418716" lon="13.65728958995662"><ele>0.25</ele><time>2026-04-12T07:13:01Z</time></trkpt><trkpt lat="43.44024166083022" lon="13.657311406590004"><ele>0.5</ele><time>2026-04-12T07:13:02Z</time></trkpt><trkpt lat="43.44011912039704" lon="13.65733653088903"><ele>0.75</ele><time>2026-04-12T07:13:03Z</time></trkpt><trkpt lat="43.44000565847232" lon="13.65736143437872"><ele>1.0</ele><time>2026-04-12T07:13:04Z</time></trkpt><trkpt lat="43.43988602564511" lon="13.65738981386469"><ele>1.0</ele><time>2026-04-12T07:13:05Z</time></trkpt><trkpt lat="43.439766629279845" lon="13.657413540248902"><ele>1.0</ele><time>2026-04-12T07:13:06Z</time></trkpt><trkpt lat="43.43964331344247" lon="13.657444109035644"><ele>1.0</ele><time>2026-04-12T07:13:07Z</time></trkpt><trkpt lat="43.439536301011664" lon="13.657476603128453"><ele>1.0</ele><time>2026-04-12T07:13:08Z</time></trkpt><trkpt lat="43.43940455154176" lon="13.657498831316623"><ele>0.75</ele><time>2026-04-12T07:13:09Z</time></trkpt><trkpt lat="43.43927289145403" lon="13.657532220442322"><ele>0.5</ele><time>2026-04-12T07:13:10Z</time></trkpt><trkpt lat="43.43914569330986" lon="13.657556489469346"><ele>0.25</ele><time>2026-04-12T07:13:11Z</time></trkpt><trkpt lat="43.439019030023374" lon="13.657582483365234"><ele>0.0</ele><time>2026-04-12T07:13:12Z</time></trkpt><trkpt lat="43.43889987636102" lon="13.657606744102917"><ele>0.2</ele><time>2026-04-12T07:13:13Z</time></trkpt><trkpt lat="43.438795758160545" lon="13.657623299119807"><ele>0.4</ele><time>2026-04-12T07:13:14Z</time></trkpt><trkpt lat="43.438697610385006" lon="13.657644088564645"><ele>0.6000000000000001</ele><time>2026-04-12T07:13:15Z</time></trkpt><trkpt lat="43.43859389312451" lon="13.657658524136426"><ele>0.8</ele><time>2026-04-12T07:13:16Z</time></trkpt><trkpt lat="43.43850200871019" lon="13.657681225401737"><ele>1.0</ele><time>2026-04-12T07:13:17Z</time></trkpt><trkpt lat="43.43840795045904" lon="13.65770046785773"><ele>1.0</ele><time>2026-04-12T07:13:18Z</time></trkpt><trkpt lat="43.43831114310961" lon="13.65772418010245"><ele>1.0</ele><time>2026-04-12T07:13:19Z</time></trkpt><trkpt lat="43.4382159771966" lon="13.6577432526858"><ele>1.0</ele><time>2026-04-12T07:13:20Z</time></trkpt><trkpt lat="43.438119818149765" lon="13.657761213163255"><ele>1.0</ele><time>2026-04-12T07:13:21Z</time></trkpt><trkpt lat="43.43803132575748" lon="13.657776992237691"><ele>1.0</ele><time>2026-04-12T07:13:22Z</time></trkpt><trkpt lat="43.43793989471972" lon="13.657792032887501"><ele>0.8333333333333333</ele><time>2026-04-12T07:13:23Z</time></trkpt><trkpt lat="43.437860152220196" lon="13.657807698873928"><ele>0.6666666666666666</ele><time>2026-04-12T07:13:24Z</time></trkpt><trkpt lat="43.43778890559297" lon="13.657816688140707"><ele>0.5</ele><time>2026-04-12T07:13:25Z</time></trkpt><trkpt lat="43.437657977081656" lon="13.657797607028343"><ele>0.3333333333333333</ele><time>2026-04-12T07:13:27Z</time></trkpt><trkpt lat="43.43759416005266" lon="13.6577873570201"><ele>0.16666666666666666</ele><time>2026-04-12T07:13:28Z</time></trkpt><trkpt lat="43.43751899665926" lon="13.657795211700547"><ele>0.0</ele><time>2026-04-12T07:13:29Z</time></trkpt><trkpt lat="43.43743360821546" lon="13.657824922884348"><ele>0.0</ele><time>2026-04-12T07:13:30Z</time></trkpt><trkpt lat="43.43734409801847" lon="13.65788093704795"><ele>0.0</ele><time>2026-04-12T07:13:31Z</time></trkpt><trkpt lat="43.437232092248365" lon="13.657930948155752"><ele>0.0</ele><time>2026-04-12T07:13:32Z</time></trkpt><trkpt lat="43.437115179873445" lon="13.657965556040589"><ele>0.0</ele><time>2026-04-12T07:13:33Z</time></trkpt><trkpt lat="43.43698593402262" lon="13.657985245275201"><ele>0.5</ele><time>2026-04-12T07:13:34Z</time></trkpt><trkpt lat="43.436874999370175" lon="13.658004516079645"><ele>1.0</ele><time>2026-04-12T07:13:35Z</time></trkpt><trkpt lat="43.43675897974834" lon="13.658035706668086"><ele>1.5</ele><time>2026-04-12T07:13:36Z</time></trkpt><trkpt lat="43.436642635399046" lon="13.65806679659591"><ele>2.0</ele><time>2026-04-12T07:13:37Z</time></trkpt><trkpt lat="43.43652349929057" lon="13.658092058917081"><ele>2.0</ele><time>2026-04-12T07:13:38Z</time></trkpt><trkpt lat="43.436402640506344" lon="13.658117928752215"><ele>2.0</ele><time>2026-04-12T07:13:39Z</time></trkpt><trkpt lat="43.43628528805082" lon="13.658137530863367"><ele>2.0</ele><time>2026-04-12T07:13:40Z</time></trkpt><trkpt lat="43.43618273862723" lon="13.65815818931531"><ele>2.0</ele><time>2026-04-12T07:13:41Z</time></trkpt><trkpt lat="43.4360925930955" lon="13.658184620815828"><ele>2.0</ele><time>2026-04-12T07:13:42Z</time></trkpt><trkpt lat="43.43599840104129" lon="13.65819666538686"><ele>2.1666666666666665</ele><time>2026-04-12T07:13:43Z</time></trkpt><trkpt lat="43.4359126523385" lon="13.65821859706167"><ele>2.333333333333333</ele><time>2026-04-12T07:13:44Z</time></trkpt><trkpt lat="43.43583435361587" lon="13.658233739259078"><ele>2.5</ele><time>2026-04-12T07:13:45Z</time></trkpt><trkpt lat="43.435750671822895" lon="13.658210243395823"><ele>2.6666666666666665</ele><time>2026-04-12T07:13:46Z</time></trkpt><trkpt lat="43.435687135747465" lon="13.658163222873696"><ele>2.8333333333333335</ele><time>2026-04-12T07:13:47Z</time></trkpt><trkpt lat="43.43562519310484" lon="13.65807839544611"><ele>3.0</ele><time>2026-04-12T07:13:48Z</time></trkpt><trkpt lat="43.435578534480904" lon="13.657970065293103"><ele>3.0</ele><time>2026-04-12T07:13:49Z</time></trkpt><trkpt lat="43.43555328846818" lon="13.657848809957972"><ele>3.0</ele><time>2026-04-12T07:13:50Z</time></trkpt><trkpt lat="43.43554901288777" lon="13.657755783001017"><ele>3.0</ele><time>2026-04-12T07:13:51Z</time></trkpt><trkpt lat="43.43554444986033" lon="13.657666174552446"><ele>3.0</ele><time>2026-04-12T07:13:52Z</time></trkpt><trkpt lat="43.435527034519595" lon="13.657528669332308"><ele>3.0</ele><time>2026-04-12T07:13:54Z</time></trkpt><trkpt lat="43.435526030338224" lon="13.657373481789026"><ele>3.0</ele><time>2026-04-12T07:13:56Z</time></trkpt><trkpt lat="43.43549145882552" lon="13.657285378689963"><ele>2.8</ele><time>2026-04-12T07:13:57Z</time></trkpt><trkpt lat="43.43543250998614" lon="13.657223133844287"><ele>2.5999999999999996</ele><time>2026-04-12T07:13:58Z</time></trkpt><trkpt lat="43.435300001736344" lon="13.657257160917432"><ele>2.4000000000000004</ele><time>2026-04-12T07:14:00Z</time></trkpt><trkpt lat="43.43525527182105" lon="13.65733533941474"><ele>2.2</ele><time>2026-04-12T07:14:01Z</time></trkpt><trkpt lat="43.435225942878645" lon="13.657436208338778"><ele>2.0</ele><time>2026-04-12T07:14:02Z</time></trkpt><trkpt lat="43.435232533642" lon="13.657560150229134"><ele>2.0</ele><time>2026-04-12T07:14:03Z</time></trkpt><trkpt lat="43.435251350827215" lon="13.657693136909383"><ele>2.0</ele><time>2026-04-12T07:14:04Z</time></trkpt><trkpt lat="43.43525054242395" lon="13.65784441911882"><ele>2.0</ele><time>2026-04-12T07:14:05Z</time></trkpt><trkpt lat="43.435216601601574" lon="13.657988052267608"><ele>2.0</ele><time>2026-04-12T07:14:06Z</time></trkpt><trkpt lat="43.4351549864748" lon="13.658124514162079"><ele>2.0</ele><time>2026-04-12T07:14:07Z</time></trkpt><trkpt lat="43.43508042210838" lon="13.658263181356032"><ele>2.5</ele><time>2026-04-12T07:14:08Z</time></trkpt><trkpt lat="43.434986319477474" lon="13.658400067629346"><ele>3.0</ele><time>2026-04-12T07:14:09Z</time></trkpt><trkpt lat="43.43488958535062" lon="13.658524498122496"><ele>3.5</ele><time>2026-04-12T07:14:09.999Z</time></trkpt><trkpt lat="43.43478524759353" lon="13.658643829903943"><ele>4.0</ele><time>2026-04-12T07:14:10.999Z</time></trkpt><trkpt lat="43.434673756227994" lon="13.658750680510213"><ele>4.0</ele><time>2026-04-12T07:14:11.999Z</time></trkpt><trkpt lat="43.434552770604874" lon="13.6588370480071"><ele>4.0</ele><time>2026-04-12T07:14:12.999Z</time></trkpt><trkpt lat="43.434430165516225" lon="13.658900210678459"><ele>4.0</ele><time>2026-04-12T07:14:13.999Z</time></trkpt><trkpt lat="43.43430198272729" lon="13.658973630398556"><ele>4.0</ele><time>2026-04-12T07:14:14.999Z</time></trkpt><trkpt lat="43.43417185416501" lon="13.659047126363662"><ele>4.0</ele><time>2026-04-12T07:14:15.999Z</time></trkpt><trkpt lat="43.43404783869422" lon="13.659114478447357"><ele>4.0</ele><time>2026-04-12T07:14:16.999Z</time></trkpt><trkpt lat="43.43392064145578" lon="13.65918000433404"><ele>4.0</ele><time>2026-04-12T07:14:17.999Z</time></trkpt><trkpt lat="43.433654890270006" lon="13.659312471593555"><ele>3.75</ele><time>2026-04-12T07:14:19.999Z</time></trkpt><trkpt lat="43.433520657247435" lon="13.659374570538615"><ele>3.5</ele><time>2026-04-12T07:14:20.999Z</time></trkpt><trkpt lat="43.43338706475227" lon="13.659448117836602"><ele>3.25</ele><time>2026-04-12T07:14:21.999Z</time></trkpt><trkpt lat="43.43325100254895" lon="13.659522517452205"><ele>3.0</ele><time>2026-04-12T07:14:22.999Z</time></trkpt><trkpt lat="43.43311627721007" lon="13.659589501676612"><ele>3.0</ele><time>2026-04-12T07:14:23.999Z</time></trkpt><trkpt lat="43.43297618451506" lon="13.659661031618333"><ele>3.0</ele><time>2026-04-12T07:14:24.999Z</time></trkpt><trkpt lat="43.43283303834184" lon="13.659732409649836"><ele>3.0</ele><time>2026-04-12T07:14:25.999Z</time></trkpt><trkpt lat="43.43269316330314" lon="13.659806645597502"><ele>2.75</ele><time>2026-04-12T07:14:26.999Z</time></trkpt><trkpt lat="43.43256172284841" lon="13.659878479312237"><ele>2.5</ele><time>2026-04-12T07:14:28Z</time></trkpt><trkpt lat="43.432418903688635" lon="13.659947332698732"><ele>2.25</ele><time>2026-04-12T07:14:29Z</time></trkpt><trkpt lat="43.43228202839078" lon="13.66001666138485"><ele>2.0</ele><time>2026-04-12T07:14:30Z</time></trkpt><trkpt lat="43.43213358741514" lon="13.66009107699107"><ele>2.6666666666666665</ele><time>2026-04-12T07:14:31Z</time></trkpt><trkpt lat="43.431985624904286" lon="13.66016361583555"><ele>3.333333333333333</ele><time>2026-04-12T07:14:32Z</time></trkpt><trkpt lat="43.43183718466542" lon="13.660241421903114"><ele>4.0</ele><time>2026-04-12T07:14:33Z</time></trkpt><trkpt lat="43.43169121705069" lon="13.660313836730658"><ele>4.0</ele><time>2026-04-12T07:14:34Z</time></trkpt><trkpt lat="43.431540378271876" lon="13.660391334961705"><ele>4.0</ele><time>2026-04-12T07:14:35Z</time></trkpt><trkpt lat="43.43139665385909" lon="13.660461627708452"><ele>4.0</ele><time>2026-04-12T07:14:36Z</time></trkpt><trkpt lat="43.431246324634344" lon="13.660546306734604"><ele>4.25</ele><time>2026-04-12T07:14:37Z</time></trkpt><trkpt lat="43.43110236900715" lon="13.660623161246201"><ele>4.5</ele><time>2026-04-12T07:14:38Z</time></trkpt><trkpt lat="43.43097012888367" lon="13.660689200498547"><ele>4.75</ele><time>2026-04-12T07:14:39Z</time></trkpt><trkpt lat="43.43084913466694" lon="13.660757475532934"><ele>5.0</ele><time>2026-04-12T07:14:40Z</time></trkpt><trkpt lat="43.43072739733727" lon="13.660819471808264"><ele>5.0</ele><time>2026-04-12T07:14:41Z</time></trkpt><trkpt lat="43.43059423694362" lon="13.66088297173362"><ele>5.0</ele><time>2026-04-12T07:14:42Z</time></trkpt><trkpt lat="43.43046407114803" lon="13.66096163371087"><ele>5.0</ele><time>2026-04-12T07:14:43Z</time></trkpt><trkpt lat="43.43032346686722" lon="13.661022720271"><ele>5.0</ele><time>2026-04-12T07:14:44Z</time></trkpt><trkpt lat="43.43017406544464" lon="13.661092970804111"><ele>5.666666666666667</ele><time>2026-04-12T07:14:45Z</time></trkpt><trkpt lat="43.430031316900035" lon="13.66116669723296"><ele>6.333333333333334</ele><time>2026-04-12T07:14:46Z</time></trkpt><trkpt lat="43.429885872485094" lon="13.661249465892507"><ele>7.0</ele><time>2026-04-12T07:14:47Z</time></trkpt><trkpt lat="43.429745179441944" lon="13.661323701592282"><ele>6.666666666666667</ele><time>2026-04-12T07:14:48Z</time></trkpt><trkpt lat="43.42959926003791" lon="13.661401740234721"><ele>6.333333333333334</ele><time>2026-04-12T07:14:49Z</time></trkpt><trkpt lat="43.42943939990212" lon="13.661478136587741"><ele>6.0</ele><time>2026-04-12T07:14:50Z</time></trkpt><trkpt lat="43.42929608697985" lon="13.661557357233374"><ele>6.0</ele><time>2026-04-12T07:14:51Z</time></trkpt><trkpt lat="43.42917170371037" lon="13.661615848836574"><ele>6.0</ele><time>2026-04-12T07:14:52Z</time></trkpt><trkpt lat="43.42906235469161" lon="13.661678711427848"><ele>6.0</ele><time>2026-04-12T07:14:53Z</time></trkpt><trkpt lat="43.42895283501642" lon="13.661732809581054"><ele>6.0</ele><time>2026-04-12T07:14:54Z</time></trkpt><trkpt lat="43.42885224896066" lon="13.661778845651511"><ele>6.0</ele><time>2026-04-12T07:14:55Z</time></trkpt><trkpt lat="43.42874745656637" lon="13.661836342066191"><ele>6.0</ele><time>2026-04-12T07:14:56Z</time></trkpt><trkpt lat="43.428642695158686" lon="13.661894635268728"><ele>6.0</ele><time>2026-04-12T07:14:57Z</time></trkpt><trkpt lat="43.42852993292823" lon="13.66195257208201"><ele>6.0</ele><time>2026-04-12T07:14:58Z</time></trkpt><trkpt lat="43.42842510480263" lon="13.662008375512569"><ele>6.0</ele><time>2026-04-12T07:14:59Z</time></trkpt><trkpt lat="43.4283269645418" lon="13.662059010948512"><ele>6.0</ele><time>2026-04-12T07:15:00Z</time></trkpt><trkpt lat="43.42823978459092" lon="13.662104868005448"><ele>6.0</ele><time>2026-04-12T07:15:01Z</time></trkpt><trkpt lat="43.42816245010548" lon="13.662143189258636"><ele>6.0</ele><time>2026-04-12T07:15:02Z</time></trkpt><trkpt lat="43.428094160443315" lon="13.662185257514853"><ele>6.0</ele><time>2026-04-12T07:15:03Z</time></trkpt><trkpt lat="43.42802486010722" lon="13.662221316295891"><ele>6.0</ele><time>2026-04-12T07:15:04Z</time></trkpt><trkpt lat="43.42795809983674" lon="13.662258965451763"><ele>6.0</ele><time>2026-04-12T07:15:05Z</time></trkpt><trkpt lat="43.42789544994518" lon="13.662292748544234"><ele>6.0</ele><time>2026-04-12T07:15:06Z</time></trkpt><trkpt lat="43.427827058302704" lon="13.662326976556281"><ele>6.0</ele><time>2026-04-12T07:15:07Z</time></trkpt><trkpt lat="43.427710151174544" lon="13.662385237932279"><ele>6.0</ele><time>2026-04-12T07:15:09Z</time></trkpt><trkpt lat="43.427599450948705" lon="13.66243900037522"><ele>6.0</ele><time>2026-04-12T07:15:11Z</time></trkpt><trkpt lat="43.42750140950707" lon="13.662460893269916"><ele>6.0</ele><time>2026-04-12T07:15:13Z</time></trkpt><trkpt lat="43.42741708987825" lon="13.662488836142606"><ele>6.0</ele><time>2026-04-12T07:15:15Z</time></trkpt><trkpt lat="43.42735190167998" lon="13.662524296533881"><ele>6.0</ele><time>2026-04-12T07:15:17Z</time></trkpt><trkpt lat="43.42729358237431" lon="13.66259789467646"><ele>6.0</ele><time>2026-04-12T07:16:05Z</time></trkpt><trkpt lat="43.42718125830567" lon="13.662675955696415"><ele>6.0</ele><time>2026-04-12T07:16:07Z</time></trkpt><trkpt lat="43.42710406096336" lon="13.66270290945047"><ele>6.0</ele><time>2026-04-12T07:16:08Z</time></trkpt><trkpt lat="43.42701475446728" lon="13.662749087661963"><ele>6.25</ele><time>2026-04-12T07:16:09Z</time></trkpt><trkpt lat="43.426910977557675" lon="13.662796124598637"><ele>6.5</ele><time>2026-04-12T07:16:10Z</time></trkpt><trkpt lat="43.426807061845835" lon="13.662847053871042"><ele>6.75</ele><time>2026-04-12T07:16:11Z</time></trkpt><trkpt lat="43.42669481773455" lon="13.662908680489593"><ele>7.0</ele><time>2026-04-12T07:16:12Z</time></trkpt><trkpt lat="43.42657277429888" lon="13.66297403764471"><ele>7.0</ele><time>2026-04-12T07:16:13Z</time></trkpt><trkpt lat="43.426450406787175" lon="13.663039378357729"><ele>7.0</ele><time>2026-04-12T07:16:14Z</time></trkpt><trkpt lat="43.42632158268626" lon="13.663105469311624"><ele>7.0</ele><time>2026-04-12T07:16:15Z</time></trkpt><trkpt lat="43.42618624218491" lon="13.663170104561999"><ele>7.0</ele><time>2026-04-12T07:16:15.999Z</time></trkpt><trkpt lat="43.42605169087617" lon="13.663235130738606"><ele>7.0</ele><time>2026-04-12T07:16:16.999Z</time></trkpt><trkpt lat="43.42591510829098" lon="13.663295426634742"><ele>7.0</ele><time>2026-04-12T07:16:17.999Z</time></trkpt><trkpt lat="43.42578003528318" lon="13.663355412852395"><ele>7.0</ele><time>2026-04-12T07:16:18.999Z</time></trkpt><trkpt lat="43.42565433115735" lon="13.66341553397973"><ele>7.0</ele><time>2026-04-12T07:16:19.999Z</time></trkpt><trkpt lat="43.42553147802908" lon="13.663474562817694"><ele>6.75</ele><time>2026-04-12T07:16:20.999Z</time></trkpt><trkpt lat="43.4254052013044" lon="13.6635384770697"><ele>6.5</ele><time>2026-04-12T07:16:21.999Z</time></trkpt><trkpt lat="43.42527623046034" lon="13.663602499189198"><ele>6.25</ele><time>2026-04-12T07:16:22.999Z</time></trkpt><trkpt lat="43.42514476584743" lon="13.663660860380363"><ele>6.0</ele><time>2026-04-12T07:16:23.999Z</time></trkpt><trkpt lat="43.42501261328827" lon="13.66371786378485"><ele>6.0</ele><time>2026-04-12T07:16:24.999Z</time></trkpt><trkpt lat="43.42487963046276" lon="13.663773670606917"><ele>6.0</ele><time>2026-04-12T07:16:25.999Z</time></trkpt><trkpt lat="43.424739864667664" lon="13.663827391588677"><ele>6.0</ele><time>2026-04-12T07:16:26.999Z</time></trkpt><trkpt lat="43.42460996527363" lon="13.663877079027108"><ele>6.0</ele><time>2026-04-12T07:16:27.999Z</time></trkpt><trkpt lat="43.42447049637602" lon="13.663923231742265"><ele>6.0</ele><time>2026-04-12T07:16:28.999Z</time></trkpt><trkpt lat="43.42432202758323" lon="13.663980004664182"><ele>6.0</ele><time>2026-04-12T07:16:29.999Z</time></trkpt><trkpt lat="43.42417042394878" lon="13.664033598079962"><ele>6.0</ele><time>2026-04-12T07:16:30.999Z</time></trkpt><trkpt lat="43.42400877700554" lon="13.664090740406838"><ele>6.0</ele><time>2026-04-12T07:16:31.999Z</time></trkpt><trkpt lat="43.42384369133219" lon="13.664147418055618"><ele>6.0</ele><time>2026-04-12T07:16:32.999Z</time></trkpt><trkpt lat="43.42368302315178" lon="13.664194519736169"><ele>6.0</ele><time>2026-04-12T07:16:33.999Z</time></trkpt><trkpt lat="43.4235283748726" lon="13.664256867778008"><ele>5.666666666666667</ele><time>2026-04-12T07:16:35Z</time></trkpt><trkpt lat="43.42336353612333" lon="13.664308420390753"><ele>5.333333333333334</ele><time>2026-04-12T07:16:36Z</time></trkpt><trkpt lat="43.42319806577523" lon="13.664368173465439"><ele>5.0</ele><time>2026-04-12T07:16:37Z</time></trkpt><trkpt lat="43.42302524299757" lon="13.664430279556147"><ele>5.0</ele><time>2026-04-12T07:16:38Z</time></trkpt><trkpt lat="43.42285096982307" lon="13.66449122316109"><ele>5.0</ele><time>2026-04-12T07:16:39Z</time></trkpt><trkpt lat="43.422670973423116" lon="13.66455158111191"><ele>5.0</ele><time>2026-04-12T07:16:40Z</time></trkpt><trkpt lat="43.42249555689704" lon="13.664614746251711"><ele>5.0</ele><time>2026-04-12T07:16:41Z</time></trkpt><trkpt lat="43.42232673127703" lon="13.664668911874815"><ele>5.0</ele><time>2026-04-12T07:16:42Z</time></trkpt><trkpt lat="43.42215706355376" lon="13.664725870361787"><ele>5.0</ele><time>2026-04-12T07:16:43Z</time></trkpt><trkpt lat="43.42199704166983" lon="13.664775368466628"><ele>4.333333333333334</ele><time>2026-04-12T07:16:44Z</time></trkpt><trkpt lat="43.421829942134075" lon="13.664836907981439"><ele>3.666666666666667</ele><time>2026-04-12T07:16:45Z</time></trkpt><trkpt lat="43.42166417199908" lon="13.664896430244745"><ele>3.0</ele><time>2026-04-12T07:16:46Z</time></trkpt><trkpt lat="43.421519432653746" lon="13.664945834684797"><ele>3.0</ele><time>2026-04-12T07:16:47Z</time></trkpt><trkpt lat="43.42137500137098" lon="13.664989499542463"><ele>3.0</ele><time>2026-04-12T07:16:48Z</time></trkpt><trkpt lat="43.421242339608376" lon="13.665016933280153"><ele>3.0</ele><time>2026-04-12T07:16:49Z</time></trkpt><trkpt lat="43.42111769895805" lon="13.665042006203553"><ele>3.0</ele><time>2026-04-12T07:16:50Z</time></trkpt><trkpt lat="43.42101654392496" lon="13.665064192730974"><ele>3.2</ele><time>2026-04-12T07:16:51Z</time></trkpt><trkpt lat="43.42091315323336" lon="13.665064486057897"><ele>3.4</ele><time>2026-04-12T07:16:52Z</time></trkpt><trkpt lat="43.420834912978115" lon="13.66507823817461"><ele>3.6000000000000005</ele><time>2026-04-12T07:16:53Z</time></trkpt><trkpt lat="43.42074830400422" lon="13.664950947735997"><ele>3.8000000000000003</ele><time>2026-04-12T07:16:54Z</time></trkpt><trkpt lat="43.42068240041106" lon="13.664860196983586"><ele>4.0</ele><time>2026-04-12T07:16:55Z</time></trkpt><trkpt lat="43.42061282375687" lon="13.66477333936539"><ele>4.0</ele><time>2026-04-12T07:16:56Z</time></trkpt><trkpt lat="43.42052927681801" lon="13.664722932403008"><ele>4.0</ele><time>2026-04-12T07:16:57Z</time></trkpt><trkpt lat="43.42041822924709" lon="13.66469454803049"><ele>4.0</ele><time>2026-04-12T07:16:58Z</time></trkpt><trkpt lat="43.42030108860933" lon="13.664689434851391"><ele>4.0</ele><time>2026-04-12T07:16:59Z</time></trkpt><trkpt lat="43.42018203175659" lon="13.664701167673325"><ele>4.0</ele><time>2026-04-12T07:17:00Z</time></trkpt><trkpt lat="43.42007731724604" lon="13.664706630005774"><ele>4.0</ele><time>2026-04-12T07:17:01Z</time></trkpt><trkpt lat="43.41998508868615" lon="13.664689326501184"><ele>4.0</ele><time>2026-04-12T07:17:02Z</time></trkpt><trkpt lat="43.419894279204705" lon="13.664666822647007"><ele>4.0</ele><time>2026-04-12T07:17:03Z</time></trkpt><trkpt lat="43.41980822223637" lon="13.66462722928236"><ele>4.0</ele><time>2026-04-12T07:17:04Z</time></trkpt><trkpt lat="43.419748128193135" lon="13.664479169387644"><ele>4.0</ele><time>2026-04-12T07:17:05Z</time></trkpt><trkpt lat="43.41968753782012" lon="13.664367305894594"><ele>4.0</ele><time>2026-04-12T07:17:06Z</time></trkpt><trkpt lat="43.4196491870876" lon="13.66424372480835"><ele>4.0</ele><time>2026-04-12T07:17:07Z</time></trkpt><trkpt lat="43.41967997560536" lon="13.664114493617337"><ele>4.0</ele><time>2026-04-12T07:17:08Z</time></trkpt><trkpt lat="43.419682913326334" lon="13.664005479981657"><ele>4.0</ele><time>2026-04-12T07:17:09Z</time></trkpt><trkpt lat="43.41944910556292" lon="13.663835609276394"><ele>3.25</ele><time>2026-04-12T07:17:11Z</time></trkpt><trkpt lat="43.41932967764975" lon="13.663777480311696"><ele>2.5</ele><time>2026-04-12T07:17:12Z</time></trkpt><trkpt lat="43.41918920315941" lon="13.663717010100585"><ele>1.75</ele><time>2026-04-12T07:17:13Z</time></trkpt><trkpt lat="43.41903367107124" lon="13.663645270522615"><ele>1.0</ele><time>2026-04-12T07:17:14Z</time></trkpt><trkpt lat="43.418888830196074" lon="13.663579872446597"><ele>1.3333333333333333</ele><time>2026-04-12T07:17:15Z</time></trkpt><trkpt lat="43.418735653242216" lon="13.663505979557213"><ele>1.6666666666666665</ele><time>2026-04-12T07:17:16Z</time></trkpt><trkpt lat="43.41857227264871" lon="13.663424598661978"><ele>2.0</ele><time>2026-04-12T07:17:17Z</time></trkpt><trkpt lat="43.418401899933784" lon="13.663343563481492"><ele>2.0</ele><time>2026-04-12T07:17:18Z</time></trkpt><trkpt lat="43.41823480633392" lon="13.663272009453955"><ele>2.0</ele><time>2026-04-12T07:17:19Z</time></trkpt><trkpt lat="43.418099358991725" lon="13.663211085654957"><ele>2.0</ele><time>2026-04-12T07:17:20Z</time></trkpt><trkpt lat="43.417966735345075" lon="13.663154464282815"><ele>2.2</ele><time>2026-04-12T07:17:21Z</time></trkpt><trkpt lat="43.4178515349223" lon="13.663107285078228"><ele>2.4000000000000004</ele><time>2026-04-12T07:17:22Z</time></trkpt><trkpt lat="43.41774969740058" lon="13.663054212505997"><ele>2.5999999999999996</ele><time>2026-04-12T07:17:23Z</time></trkpt><trkpt lat="43.41767332623008" lon="13.6629793095376"><ele>2.8</ele><time>2026-04-12T07:17:24Z</time></trkpt><trkpt lat="43.41763866271536" lon="13.662845374943926"><ele>3.0</ele><time>2026-04-12T07:17:25Z</time></trkpt><trkpt lat="43.41760938970688" lon="13.662705600816574"><ele>3.0</ele><time>2026-04-12T07:17:26Z</time></trkpt><trkpt lat="43.41756731457134" lon="13.66254151680121"><ele>3.0</ele><time>2026-04-12T07:17:27Z</time></trkpt><trkpt lat="43.41750634408526" lon="13.66236352279039"><ele>3.0</ele><time>2026-04-12T07:17:28Z</time></trkpt><trkpt lat="43.4174594028265" lon="13.662167567233652"><ele>3.0</ele><time>2026-04-12T07:17:29Z</time></trkpt><trkpt lat="43.417401863769186" lon="13.66194253798427"><ele>3.0</ele><time>2026-04-12T07:17:30Z</time></trkpt><trkpt lat="43.41734333416543" lon="13.661714283042658"><ele>3.0</ele><time>2026-04-12T07:17:31Z</time></trkpt><trkpt lat="43.417281331598495" lon="13.661477690358762"><ele>3.0</ele><time>2026-04-12T07:17:32Z</time></trkpt><trkpt lat="43.4172163179142" lon="13.661239474918464"><ele>3.0</ele><time>2026-04-12T07:17:33Z</time></trkpt><trkpt lat="43.41716113971994" lon="13.661014754252351"><ele>3.0</ele><time>2026-04-12T07:17:34Z</time></trkpt><trkpt lat="43.41710069794618" lon="13.660784042647464"><ele>3.0</ele><time>2026-04-12T07:17:35Z</time></trkpt><trkpt lat="43.41704174648763" lon="13.660569925014638"><ele>3.0</ele><time>2026-04-12T07:17:36Z</time></trkpt><trkpt lat="43.41697891089179" lon="13.660359725930256"><ele>3.0</ele><time>2026-04-12T07:17:37Z</time></trkpt><trkpt lat="43.41691401281617" lon="13.660174847513595"><ele>3.0</ele><time>2026-04-12T07:17:38Z</time></trkpt><trkpt lat="43.41685005922865" lon="13.660009573067692"><ele>3.25</ele><time>2026-04-12T07:17:39Z</time></trkpt><trkpt lat="43.41678878935215" lon="13.659861736208494"><ele>3.5</ele><time>2026-04-12T07:17:40Z</time></trkpt><trkpt lat="43.41673807045379" lon="13.659689763813093"><ele>3.75</ele><time>2026-04-12T07:17:41Z</time></trkpt><trkpt lat="43.41667088060244" lon="13.659548317938679"><ele>4.0</ele><time>2026-04-12T07:17:42Z</time></trkpt><trkpt lat="43.416610214784626" lon="13.659395110097892"><ele>4.0</ele><time>2026-04-12T07:17:43Z</time></trkpt><trkpt lat="43.416555596301365" lon="13.659249038725733"><ele>4.0</ele><time>2026-04-12T07:17:44Z</time></trkpt><trkpt lat="43.41649022476784" lon="13.65909325061503"><ele>4.0</ele><time>2026-04-12T07:17:45Z</time></trkpt><trkpt lat="43.416435043106915" lon="13.658935620315418"><ele>4.0</ele><time>2026-04-12T07:17:46Z</time></trkpt><trkpt lat="43.41637357804442" lon="13.65878513650958"><ele>4.0</ele><time>2026-04-12T07:17:47Z</time></trkpt><trkpt lat="43.416319181724695" lon="13.6586300092214"><ele>4.0</ele><time>2026-04-12T07:17:48Z</time></trkpt><trkpt lat="43.416260769141815" lon="13.658474725281826"><ele>4.0</ele><time>2026-04-12T07:17:49Z</time></trkpt><trkpt lat="43.4161933521971" lon="13.658317409058233"><ele>4.0</ele><time>2026-04-12T07:17:50Z</time></trkpt><trkpt lat="43.416156093093385" lon="13.658147830502267"><ele>4.0</ele><time>2026-04-12T07:17:51Z</time></trkpt><trkpt lat="43.41606589805718" lon="13.657966412846845"><ele>4.0</ele><time>2026-04-12T07:17:52Z</time></trkpt><trkpt lat="43.41601636065635" lon="13.657838524661786"><ele>4.0</ele><time>2026-04-12T07:17:53Z</time></trkpt><trkpt lat="43.41595943978195" lon="13.657684696708573"><ele>4.0</ele><time>2026-04-12T07:17:54Z</time></trkpt><trkpt lat="43.41590349098655" lon="13.657540911340318"><ele>4.0</ele><time>2026-04-12T07:17:55Z</time></trkpt><trkpt lat="43.41583665282193" lon="13.657376146824626"><ele>4.0</ele><time>2026-04-12T07:17:56Z</time></trkpt><trkpt lat="43.415775424320756" lon="13.65721274325607"><ele>4.0</ele><time>2026-04-12T07:17:57Z</time></trkpt><trkpt lat="43.415710086784614" lon="13.6570571442462"><ele>4.0</ele><time>2026-04-12T07:17:58Z</time></trkpt><trkpt lat="43.415645686997365" lon="13.656899012844775"><ele>4.0</ele><time>2026-04-12T07:17:59Z</time></trkpt><trkpt lat="43.415583762836334" lon="13.656748266564726"><ele>4.0</ele><time>2026-04-12T07:18:00Z</time></trkpt><trkpt lat="43.415529145556256" lon="13.656605129199649"><ele>4.0</ele><time>2026-04-12T07:18:01Z</time></trkpt><trkpt lat="43.41547237352119" lon="13.656466198541532"><ele>4.0</ele><time>2026-04-12T07:18:02Z</time></trkpt><trkpt lat="43.41542631539727" lon="13.656326491289242"><ele>4.0</ele><time>2026-04-12T07:18:03Z</time></trkpt><trkpt lat="43.415374553856694" lon="13.656199414844336"><ele>4.0</ele><time>2026-04-12T07:18:04Z</time></trkpt><trkpt lat="43.415331884984376" lon="13.656082716295574"><ele>4.0</ele><time>2026-04-12T07:18:05Z</time></trkpt><trkpt lat="43.415286237416936" lon="13.655966485086015"><ele>4.0</ele><time>2026-04-12T07:18:06Z</time></trkpt><trkpt lat="43.4152427539813" lon="13.65584963709761"><ele>4.0</ele><time>2026-04-12T07:18:07Z</time></trkpt><trkpt lat="43.41520448197662" lon="13.655729380715448"><ele>4.0</ele><time>2026-04-12T07:18:08Z</time></trkpt><trkpt lat="43.415157400874165" lon="13.655616648306335"><ele>4.0</ele><time>2026-04-12T07:18:09Z</time></trkpt><trkpt lat="43.41511338928517" lon="13.655504652070045"><ele>4.0</ele><time>2026-04-12T07:18:10Z</time></trkpt><trkpt lat="43.41507141624148" lon="13.655388333021659"><ele>4.0</ele><time>2026-04-12T07:18:11Z</time></trkpt><trkpt lat="43.41502980376946" lon="13.655274644809282"><ele>4.0</ele><time>2026-04-12T07:18:12Z</time></trkpt><trkpt lat="43.41498814776889" lon="13.655162494903132"><ele>4.166666666666666</ele><time>2026-04-12T07:18:13Z</time></trkpt><trkpt lat="43.41494484645251" lon="13.655050531176501"><ele>4.333333333333333</ele><time>2026-04-12T07:18:14Z</time></trkpt><trkpt lat="43.4149042088318" lon="13.654943383270318"><ele>4.5</ele><time>2026-04-12T07:18:15Z</time></trkpt><trkpt lat="43.41486142182058" lon="13.654845607748786"><ele>4.666666666666667</ele><time>2026-04-12T07:18:16Z</time></trkpt><trkpt lat="43.41481833280164" lon="13.654743578940044"><ele>4.833333333333334</ele><time>2026-04-12T07:18:17Z</time></trkpt><trkpt lat="43.41477816859696" lon="13.654632120236858"><ele>5.0</ele><time>2026-04-12T07:18:18Z</time></trkpt><trkpt lat="43.41473690306417" lon="13.65452102522631"><ele>5.166666666666667</ele><time>2026-04-12T07:18:19Z</time></trkpt><trkpt lat="43.414694325140516" lon="13.654412784070098"><ele>5.333333333333334</ele><time>2026-04-12T07:18:20Z</time></trkpt><trkpt lat="43.41464904900223" lon="13.6543034292682"><ele>5.5</ele><time>2026-04-12T07:18:21Z</time></trkpt><trkpt lat="43.414606264004966" lon="13.65420218830217"><ele>5.666666666666667</ele><time>2026-04-12T07:18:21.999Z</time></trkpt><trkpt lat="43.41456929212584" lon="13.654094199150366"><ele>5.833333333333333</ele><time>2026-04-12T07:18:22.999Z</time></trkpt><trkpt lat="43.41454114594177" lon="13.654008469509513"><ele>6.0</ele><time>2026-04-12T07:18:23.999Z</time></trkpt><trkpt lat="43.414516681946026" lon="13.653922249491103"><ele>6.0</ele><time>2026-04-12T07:18:24.999Z</time></trkpt><trkpt lat="43.41446893670374" lon="13.653830790110375"><ele>6.0</ele><time>2026-04-12T07:18:26.999Z</time></trkpt><trkpt lat="43.41436747601901" lon="13.653804377347038"><ele>6.0</ele><time>2026-04-12T07:18:28.999Z</time></trkpt><trkpt lat="43.414286423854456" lon="13.653826178297457"><ele>6.0</ele><time>2026-04-12T07:18:30Z</time></trkpt><trkpt lat="43.41419926283737" lon="13.653891238929665"><ele>6.0</ele><time>2026-04-12T07:18:31Z</time></trkpt><trkpt lat="43.41409763022065" lon="13.653972903270787"><ele>6.0</ele><time>2026-04-12T07:18:32Z</time></trkpt><trkpt lat="43.413982863006176" lon="13.654054332990867"><ele>6.0</ele><time>2026-04-12T07:18:33Z</time></trkpt><trkpt lat="43.41385268634899" lon="13.654144339964756"><ele>6.0</ele><time>2026-04-12T07:18:34Z</time></trkpt><trkpt lat="43.413717236036476" lon="13.654235299459087"><ele>6.0</ele><time>2026-04-12T07:18:35Z</time></trkpt><trkpt lat="43.41358721882155" lon="13.6543203874665"><ele>5.666666666666667</ele><time>2026-04-12T07:18:36Z</time></trkpt><trkpt lat="43.413441944266026" lon="13.65441313044521"><ele>5.333333333333334</ele><time>2026-04-12T07:18:37Z</time></trkpt><trkpt lat="43.41329775260291" lon="13.654507400253088"><ele>5.0</ele><time>2026-04-12T07:18:38Z</time></trkpt><trkpt lat="43.413149173408094" lon="13.65460241903781"><ele>4.666666666666667</ele><time>2026-04-12T07:18:39Z</time></trkpt><trkpt lat="43.41301223436512" lon="13.654696856920415"><ele>4.333333333333333</ele><time>2026-04-12T07:18:40Z</time></trkpt><trkpt lat="43.41287857362159" lon="13.65478485927794"><ele>4.0</ele><time>2026-04-12T07:18:41Z</time></trkpt><trkpt lat="43.41273629980725" lon="13.654876439113345"><ele>4.5</ele><time>2026-04-12T07:18:42Z</time></trkpt><trkpt lat="43.41259999055286" lon="13.65496353777654"><ele>5.0</ele><time>2026-04-12T07:18:43Z</time></trkpt><trkpt lat="43.41247654385773" lon="13.65505727044891"><ele>5.5</ele><time>2026-04-12T07:18:44Z</time></trkpt><trkpt lat="43.41234415839098" lon="13.655145388228641"><ele>6.0</ele><time>2026-04-12T07:18:45Z</time></trkpt><trkpt lat="43.41222226194656" lon="13.655225466092423"><ele>6.199999999999999</ele><time>2026-04-12T07:18:46Z</time></trkpt><trkpt lat="43.41211069665362" lon="13.65529756335017"><ele>6.3999999999999995</ele><time>2026-04-12T07:18:47Z</time></trkpt><trkpt lat="43.412009784696544" lon="13.655371374181781"><ele>6.6</ele><time>2026-04-12T07:18:48Z</time></trkpt><trkpt lat="43.41191989408568" lon="13.655431741929341"><ele>6.8</ele><time>2026-04-12T07:18:49Z</time></trkpt><trkpt lat="43.41185789319624" lon="13.655501461341677"><ele>7.0</ele><time>2026-04-12T07:18:50Z</time></trkpt><trkpt lat="43.411752665643185" lon="13.655551534438272"><ele>7.0</ele><time>2026-04-12T07:18:52Z</time></trkpt><trkpt lat="43.411809329512415" lon="13.655813110389419"><ele>7.0</ele><time>2026-04-12T07:18:53Z</time></trkpt><trkpt lat="43.41183176007589" lon="13.655934979239548"><ele>7.0</ele><time>2026-04-12T07:18:54Z</time></trkpt><trkpt lat="43.41186708758589" lon="13.65605941336699"><ele>7.0</ele><time>2026-04-12T07:18:55Z</time></trkpt><trkpt lat="43.41190520280338" lon="13.656198232408952"><ele>6.5</ele><time>2026-04-12T07:18:56Z</time></trkpt><trkpt lat="43.41194398030071" lon="13.65634499242914"><ele>6.0</ele><time>2026-04-12T07:18:57Z</time></trkpt><trkpt lat="43.411978579928245" lon="13.656496126198931"><ele>5.5</ele><time>2026-04-12T07:18:58Z</time></trkpt><trkpt lat="43.412013537842505" lon="13.656655520439367"><ele>5.0</ele><time>2026-04-12T07:18:59Z</time></trkpt><trkpt lat="43.41204440678894" lon="13.656806966959117"><ele>5.0</ele><time>2026-04-12T07:19:00Z</time></trkpt><trkpt lat="43.41207222233012" lon="13.656933244558006"><ele>5.0</ele><time>2026-04-12T07:19:01Z</time></trkpt><trkpt lat="43.412099251662895" lon="13.657048911595473"><ele>5.0</ele><time>2026-04-12T07:19:02Z</time></trkpt><trkpt lat="43.41214119449773" lon="13.657149372047193"><ele>5.0</ele><time>2026-04-12T07:19:03Z</time></trkpt><trkpt lat="43.412157180551915" lon="13.657250946773301"><ele>5.0</ele><time>2026-04-12T07:19:04Z</time></trkpt><trkpt lat="43.412177994913904" lon="13.657341073044984"><ele>5.0</ele><time>2026-04-12T07:19:05Z</time></trkpt><trkpt lat="43.412189222642525" lon="13.657434063243011"><ele>5.0</ele><time>2026-04-12T07:19:08Z</time></trkpt><trkpt lat="43.412152471445616" lon="13.657257770906808"><ele>5.0</ele><time>2026-04-12T07:19:11Z</time></trkpt><trkpt lat="43.41219781058242" lon="13.657096107950863"><ele>5.0</ele><time>2026-04-12T07:19:12Z</time></trkpt><trkpt lat="43.41214432451536" lon="13.656952212825352"><ele>5.0</ele><time>2026-04-12T07:19:13Z</time></trkpt><trkpt lat="43.41208817682217" lon="13.656799832509124"><ele>5.0</ele><time>2026-04-12T07:19:14Z</time></trkpt><trkpt lat="43.41204756675113" lon="13.656633708019978"><ele>5.0</ele><time>2026-04-12T07:19:15Z</time></trkpt><trkpt lat="43.412013655908865" lon="13.656462940293558"><ele>5.0</ele><time>2026-04-12T07:19:16Z</time></trkpt><trkpt lat="43.41197690039328" lon="13.656307964847333"><ele>5.0</ele><time>2026-04-12T07:19:17Z</time></trkpt><trkpt lat="43.411942259125965" lon="13.65615866144392"><ele>5.333333333333334</ele><time>2026-04-12T07:19:18Z</time></trkpt><trkpt lat="43.41191233029123" lon="13.656022571389896"><ele>5.666666666666667</ele><time>2026-04-12T07:19:19Z</time></trkpt><trkpt lat="43.41188230326356" lon="13.65590066245384"><ele>6.0</ele><time>2026-04-12T07:19:20Z</time></trkpt><trkpt lat="43.41185029694842" lon="13.655801002524187"><ele>6.333333333333334</ele><time>2026-04-12T07:19:21Z</time></trkpt><trkpt lat="43.411807617399596" lon="13.655701385306667"><ele>6.666666666666667</ele><time>2026-04-12T07:19:23Z</time></trkpt><trkpt lat="43.411795916467" lon="13.655615819661667"><ele>7.0</ele><time>2026-04-12T07:19:26Z</time></trkpt><trkpt lat="43.4115920829727" lon="13.655676395668413"><ele>7.0</ele><time>2026-04-12T07:19:28Z</time></trkpt><trkpt lat="43.41150867497578" lon="13.655731698665797"><ele>6.999999999999999</ele><time>2026-04-12T07:19:29Z</time></trkpt><trkpt lat="43.41142392695757" lon="13.65580627650423"><ele>6.999999999999999</ele><time>2026-04-12T07:19:30Z</time></trkpt><trkpt lat="43.41132776776403" lon="13.655908392627234"><ele>7.0</ele><time>2026-04-12T07:19:31Z</time></trkpt><trkpt lat="43.411231178840154" lon="13.656023231856803"><ele>7.0</ele><time>2026-04-12T07:19:32Z</time></trkpt><trkpt lat="43.41113195602471" lon="13.656140930550533"><ele>6.75</ele><time>2026-04-12T07:19:33Z</time></trkpt><trkpt lat="43.41102551930087" lon="13.65626352319809"><ele>6.5</ele><time>2026-04-12T07:19:34Z</time></trkpt><trkpt lat="43.410909386292715" lon="13.65639845315932"><ele>6.25</ele><time>2026-04-12T07:19:35Z</time></trkpt><trkpt lat="43.410788288929176" lon="13.656537116669927"><ele>6.0</ele><time>2026-04-12T07:19:36Z</time></trkpt><trkpt lat="43.41066603376401" lon="13.656680621367915"><ele>6.0</ele><time>2026-04-12T07:19:37Z</time></trkpt><trkpt lat="43.41054351640148" lon="13.65681757364578"><ele>6.0</ele><time>2026-04-12T07:19:38Z</time></trkpt><trkpt lat="43.41041145433542" lon="13.656973449608229"><ele>6.0</ele><time>2026-04-12T07:19:39Z</time></trkpt><trkpt lat="43.41029226562055" lon="13.657118147256684"><ele>5.666666666666667</ele><time>2026-04-12T07:19:40Z</time></trkpt><trkpt lat="43.41015236785893" lon="13.657254717269069"><ele>5.333333333333334</ele><time>2026-04-12T07:19:41Z</time></trkpt><trkpt lat="43.41002902879925" lon="13.657397112690518"><ele>5.0</ele><time>2026-04-12T07:19:42Z</time></trkpt><trkpt lat="43.409900941611376" lon="13.657547922486563"><ele>5.0</ele><time>2026-04-12T07:19:43Z</time></trkpt><trkpt lat="43.40977459855583" lon="13.657696645622314"><ele>5.0</ele><time>2026-04-12T07:19:44Z</time></trkpt><trkpt lat="43.409654845923235" lon="13.657861381130171"><ele>5.0</ele><time>2026-04-12T07:19:45Z</time></trkpt><trkpt lat="43.40952386435879" lon="13.657993930560355"><ele>5.0</ele><time>2026-04-12T07:19:46Z</time></trkpt><trkpt lat="43.40939833907148" lon="13.658128344825796"><ele>5.0</ele><time>2026-04-12T07:19:47Z</time></trkpt><trkpt lat="43.40925892236692" lon="13.658280314934022"><ele>5.0</ele><time>2026-04-12T07:19:48Z</time></trkpt><trkpt lat="43.409127078488304" lon="13.658416539801811"><ele>5.0</ele><time>2026-04-12T07:19:49Z</time></trkpt><trkpt lat="43.40897681352556" lon="13.65855653307922"><ele>5.0</ele><time>2026-04-12T07:19:50Z</time></trkpt><trkpt lat="43.408826728345936" lon="13.658682909684515"><ele>5.0</ele><time>2026-04-12T07:19:51Z</time></trkpt><trkpt lat="43.40867964778616" lon="13.658810539893258"><ele>5.333333333333334</ele><time>2026-04-12T07:19:52Z</time></trkpt><trkpt lat="43.40852497498439" lon="13.658939334106257"><ele>5.666666666666667</ele><time>2026-04-12T07:19:53Z</time></trkpt><trkpt lat="43.40837419799156" lon="13.659067154167023"><ele>6.0</ele><time>2026-04-12T07:19:54Z</time></trkpt><trkpt lat="43.40822039023456" lon="13.659198642137302"><ele>6.0</ele><time>2026-04-12T07:19:55Z</time></trkpt><trkpt lat="43.40806724219385" lon="13.659328348795029"><ele>6.0</ele><time>2026-04-12T07:19:56Z</time></trkpt><trkpt lat="43.40790252173506" lon="13.659461997717427"><ele>6.0</ele><time>2026-04-12T07:19:57Z</time></trkpt><trkpt lat="43.40774771349803" lon="13.659587880535618"><ele>6.0</ele><time>2026-04-12T07:19:58Z</time></trkpt><trkpt lat="43.40758848101067" lon="13.65971981186645"><ele>6.0</ele><time>2026-04-12T07:19:59Z</time></trkpt><trkpt lat="43.407426686222784" lon="13.659859677150058"><ele>6.0</ele><time>2026-04-12T07:20:00Z</time></trkpt><trkpt lat="43.407268519138164" lon="13.660002707645498"><ele>5.333333333333333</ele><time>2026-04-12T07:20:01Z</time></trkpt><trkpt lat="43.40710437291075" lon="13.660155416635174"><ele>4.666666666666666</ele><time>2026-04-12T07:20:02Z</time></trkpt><trkpt lat="43.4069455309194" lon="13.660320985427251"><ele>4.0</ele><time>2026-04-12T07:20:03Z</time></trkpt><trkpt lat="43.406790287855976" lon="13.6604962812205"><ele>3.6666666666666665</ele><time>2026-04-12T07:20:04Z</time></trkpt><trkpt lat="43.40663706904822" lon="13.66067731344659"><ele>3.333333333333333</ele><time>2026-04-12T07:20:05Z</time></trkpt><trkpt lat="43.40648149353195" lon="13.660858507990186"><ele>3.0</ele><time>2026-04-12T07:20:06Z</time></trkpt><trkpt lat="43.40632484933838" lon="13.661043375390014"><ele>3.666666666666667</ele><time>2026-04-12T07:20:07Z</time></trkpt><trkpt lat="43.40617921956199" lon="13.66121341393999"><ele>4.333333333333334</ele><time>2026-04-12T07:20:08Z</time></trkpt><trkpt lat="43.40603045077529" lon="13.661390408545236"><ele>5.0</ele><time>2026-04-12T07:20:09Z</time></trkpt><trkpt lat="43.40588822773399" lon="13.66155972832815"><ele>5.0</ele><time>2026-04-12T07:20:10Z</time></trkpt><trkpt lat="43.405758458956974" lon="13.661710234890164"><ele>5.0</ele><time>2026-04-12T07:20:11Z</time></trkpt><trkpt lat="43.4056313340154" lon="13.661847544397277"><ele>5.0</ele><time>2026-04-12T07:20:12Z</time></trkpt><trkpt lat="43.40550155124377" lon="13.661998173141013"><ele>5.0</ele><time>2026-04-12T07:20:13Z</time></trkpt><trkpt lat="43.40538444442968" lon="13.66213944601736"><ele>5.0</ele><time>2026-04-12T07:20:14Z</time></trkpt><trkpt lat="43.40527587153165" lon="13.662258018804629"><ele>5.0</ele><time>2026-04-12T07:20:15Z</time></trkpt><trkpt lat="43.40517208636614" lon="13.662345116619415"><ele>5.0</ele><time>2026-04-12T07:20:16Z</time></trkpt><trkpt lat="43.40506383787135" lon="13.662386808695468"><ele>5.0</ele><time>2026-04-12T07:20:17Z</time></trkpt><trkpt lat="43.404945139109586" lon="13.662374484331814"><ele>5.0</ele><time>2026-04-12T07:20:18Z</time></trkpt><trkpt lat="43.40482214454681" lon="13.662325780834527"><ele>5.0</ele><time>2026-04-12T07:20:19Z</time></trkpt><trkpt lat="43.404680911268635" lon="13.662241199724615"><ele>5.0</ele><time>2026-04-12T07:20:20.001Z</time></trkpt><trkpt lat="43.40453419030718" lon="13.662160476448344"><ele>5.333333333333334</ele><time>2026-04-12T07:20:21.001Z</time></trkpt><trkpt lat="43.40436978906062" lon="13.662077461783523"><ele>5.666666666666667</ele><time>2026-04-12T07:20:22.001Z</time></trkpt><trkpt lat="43.4041922162119" lon="13.661996394692126"><ele>6.0</ele><time>2026-04-12T07:20:23.001Z</time></trkpt><trkpt lat="43.40400785811202" lon="13.661901214035161"><ele>5.666666666666667</ele><time>2026-04-12T07:20:24.001Z</time></trkpt><trkpt lat="43.40381697208001" lon="13.661799550338829"><ele>5.333333333333334</ele><time>2026-04-12T07:20:25.001Z</time></trkpt><trkpt lat="43.40363136908715" lon="13.661704983280115"><ele>5.0</ele><time>2026-04-12T07:20:26.001Z</time></trkpt><trkpt lat="43.40343633415122" lon="13.661598343554546"><ele>5.0</ele><time>2026-04-12T07:20:27Z</time></trkpt><trkpt lat="43.403251383848186" lon="13.661500150889134"><ele>5.0</ele><time>2026-04-12T07:20:28Z</time></trkpt><trkpt lat="43.403089019701056" lon="13.661417513404187"><ele>5.0</ele><time>2026-04-12T07:20:29Z</time></trkpt><trkpt lat="43.40293629254235" lon="13.661343318118345"><ele>4.75</ele><time>2026-04-12T07:20:30Z</time></trkpt><trkpt lat="43.40279262392373" lon="13.661272396194414"><ele>4.5</ele><time>2026-04-12T07:20:31Z</time></trkpt><trkpt lat="43.402664168705684" lon="13.661208066332488"><ele>4.25</ele><time>2026-04-12T07:20:32Z</time></trkpt><trkpt lat="43.402541684413166" lon="13.661148911505062"><ele>4.0</ele><time>2026-04-12T07:20:33Z</time></trkpt><trkpt lat="43.40242734978465" lon="13.661093631604862"><ele>4.0</ele><time>2026-04-12T07:20:34Z</time></trkpt><trkpt lat="43.40231920178439" lon="13.66104450347792"><ele>4.0</ele><time>2026-04-12T07:20:35Z</time></trkpt><trkpt lat="43.402216461948896" lon="13.660991421938924"><ele>4.0</ele><time>2026-04-12T07:20:36Z</time></trkpt><trkpt lat="43.4021247852293" lon="13.660946994022032"><ele>4.0</ele><time>2026-04-12T07:20:37Z</time></trkpt><trkpt lat="43.40203782435507" lon="13.660908599617265"><ele>4.0</ele><time>2026-04-12T07:20:38Z</time></trkpt><trkpt lat="43.40195649574218" lon="13.660869140091284"><ele>3.833333333333333</ele><time>2026-04-12T07:20:39Z</time></trkpt><trkpt lat="43.40187807717728" lon="13.660833762002774"><ele>3.6666666666666665</ele><time>2026-04-12T07:20:40Z</time></trkpt><trkpt lat="43.40178387233982" lon="13.660795078105572"><ele>3.5</ele><time>2026-04-12T07:20:42Z</time></trkpt><trkpt lat="43.40170197973416" lon="13.660765392073627"><ele>3.333333333333333</ele><time>2026-04-12T07:20:44Z</time></trkpt><trkpt lat="43.40162470117099" lon="13.66074161968087"><ele>3.1666666666666665</ele><time>2026-04-12T07:20:45Z</time></trkpt><trkpt lat="43.40152900394377" lon="13.660708628296556"><ele>3.0</ele><time>2026-04-12T07:20:46Z</time></trkpt><trkpt lat="43.401419148709" lon="13.660638146659611"><ele>3.25</ele><time>2026-04-12T07:20:47Z</time></trkpt><trkpt lat="43.40129473405965" lon="13.660595318869165"><ele>3.5</ele><time>2026-04-12T07:20:48Z</time></trkpt><trkpt lat="43.40116677605396" lon="13.660519850656467"><ele>3.75</ele><time>2026-04-12T07:20:49Z</time></trkpt><trkpt lat="43.40102115475579" lon="13.660455084117302"><ele>4.0</ele><time>2026-04-12T07:20:50Z</time></trkpt><trkpt lat="43.4008784416094" lon="13.660382798672131"><ele>4.0</ele><time>2026-04-12T07:20:51Z</time></trkpt><trkpt lat="43.40073279109902" lon="13.660311882839299"><ele>4.0</ele><time>2026-04-12T07:20:52Z</time></trkpt><trkpt lat="43.400575192826246" lon="13.660235892691187"><ele>4.0</ele><time>2026-04-12T07:20:53Z</time></trkpt><trkpt lat="43.40042128545277" lon="13.660161571078776"><ele>4.0</ele><time>2026-04-12T07:20:54Z</time></trkpt><trkpt lat="43.40026222800649" lon="13.660088012164497"><ele>4.0</ele><time>2026-04-12T07:20:55Z</time></trkpt><trkpt lat="43.400100256904" lon="13.659986372560336"><ele>4.0</ele><time>2026-04-12T07:20:56Z</time></trkpt><trkpt lat="43.39994149553249" lon="13.659910191725592"><ele>4.0</ele><time>2026-04-12T07:20:57Z</time></trkpt><trkpt lat="43.39977766997353" lon="13.659830528130323"><ele>4.0</ele><time>2026-04-12T07:20:58Z</time></trkpt><trkpt lat="43.39961438070202" lon="13.659750400344743"><ele>4.0</ele><time>2026-04-12T07:20:59Z</time></trkpt><trkpt lat="43.39944687253868" lon="13.659692895570709"><ele>3.6666666666666665</ele><time>2026-04-12T07:21:00Z</time></trkpt><trkpt lat="43.39927410096525" lon="13.659607778088667"><ele>3.333333333333333</ele><time>2026-04-12T07:21:01Z</time></trkpt><trkpt lat="43.39911008281767" lon="13.659529007200309"><ele>3.0</ele><time>2026-04-12T07:21:02Z</time></trkpt><trkpt lat="43.398942555520755" lon="13.659448998051841"><ele>3.333333333333333</ele><time>2026-04-12T07:21:03Z</time></trkpt><trkpt lat="43.3987764255397" lon="13.659368357363878"><ele>3.6666666666666665</ele><time>2026-04-12T07:21:04Z</time></trkpt><trkpt lat="43.39861303735561" lon="13.659265852332625"><ele>4.0</ele><time>2026-04-12T07:21:05Z</time></trkpt><trkpt lat="43.39846141116515" lon="13.65919201015405"><ele>4.0</ele><time>2026-04-12T07:21:06Z</time></trkpt><trkpt lat="43.398298995181705" lon="13.6591134298237"><ele>4.0</ele><time>2026-04-12T07:21:07Z</time></trkpt><trkpt lat="43.398139980397" lon="13.659035582634354"><ele>4.0</ele><time>2026-04-12T07:21:08Z</time></trkpt><trkpt lat="43.3979812183679" lon="13.658966132105384"><ele>3.6666666666666665</ele><time>2026-04-12T07:21:09Z</time></trkpt><trkpt lat="43.39782255152789" lon="13.65889160498356"><ele>3.333333333333333</ele><time>2026-04-12T07:21:10Z</time></trkpt><trkpt lat="43.39767000132651" lon="13.658823045361649"><ele>3.0</ele><time>2026-04-12T07:21:11Z</time></trkpt><trkpt lat="43.39751905034569" lon="13.658768822038946"><ele>3.0</ele><time>2026-04-12T07:21:12Z</time></trkpt><trkpt lat="43.39735567691793" lon="13.658684228726651"><ele>3.0</ele><time>2026-04-12T07:21:13Z</time></trkpt><trkpt lat="43.397211770678055" lon="13.658586713999476"><ele>3.0</ele><time>2026-04-12T07:21:14Z</time></trkpt><trkpt lat="43.39705771150958" lon="13.658507054232873"><ele>3.0</ele><time>2026-04-12T07:21:15Z</time></trkpt><trkpt lat="43.396901314749186" lon="13.658432803431607"><ele>3.0</ele><time>2026-04-12T07:21:16Z</time></trkpt><trkpt lat="43.39674449285851" lon="13.658356851197237"><ele>3.0</ele><time>2026-04-12T07:21:17Z</time></trkpt><trkpt lat="43.39659063927936" lon="13.658281036140352"><ele>3.0</ele><time>2026-04-12T07:21:18Z</time></trkpt><trkpt lat="43.39643696371724" lon="13.65820530863572"><ele>3.0</ele><time>2026-04-12T07:21:19Z</time></trkpt><trkpt lat="43.39629192938573" lon="13.658132995580184"><ele>3.0</ele><time>2026-04-12T07:21:20Z</time></trkpt><trkpt lat="43.39614620020799" lon="13.658059336825588"><ele>3.2</ele><time>2026-04-12T07:21:21Z</time></trkpt><trkpt lat="43.396022014713886" lon="13.657996567336243"><ele>3.4</ele><time>2026-04-12T07:21:22Z</time></trkpt><trkpt lat="43.39590706135117" lon="13.657938464095377"><ele>3.6000000000000005</ele><time>2026-04-12T07:21:23Z</time></trkpt><trkpt lat="43.395807199743814" lon="13.657911260513194"><ele>3.8000000000000003</ele><time>2026-04-12T07:21:24Z</time></trkpt><trkpt lat="43.39572845954368" lon="13.657870067119651"><ele>4.0</ele><time>2026-04-12T07:21:25Z</time></trkpt><trkpt lat="43.395666328134105" lon="13.657841468576889"><ele>4.0</ele><time>2026-04-12T07:21:26Z</time></trkpt><trkpt lat="43.39558894229024" lon="13.657815172371567"><ele>4.0</ele><time>2026-04-12T07:21:28Z</time></trkpt><trkpt lat="43.395522783245" lon="13.657775593871369"><ele>4.0</ele><time>2026-04-12T07:21:59.001Z</time></trkpt><trkpt lat="43.39543375573257" lon="13.657721272056298"><ele>4.0</ele><time>2026-04-12T07:22:02.001Z</time></trkpt><trkpt lat="43.3954115844205" lon="13.657457021499118"><ele>4.0</ele><time>2026-04-12T07:22:03.001Z</time></trkpt><trkpt lat="43.39536281468303" lon="13.657348048449725"><ele>4.166666666666666</ele><time>2026-04-12T07:22:04.001Z</time></trkpt><trkpt lat="43.39531295460697" lon="13.65723892237168"><ele>4.333333333333333</ele><time>2026-04-12T07:22:05.001Z</time></trkpt><trkpt lat="43.3952635226115" lon="13.657129644173326"><ele>4.5</ele><time>2026-04-12T07:22:06.001Z</time></trkpt><trkpt lat="43.395222480359365" lon="13.65704108965781"><ele>4.666666666666667</ele><time>2026-04-12T07:22:07.001Z</time></trkpt><trkpt lat="43.39518269250568" lon="13.656958872689447"><ele>4.833333333333334</ele><time>2026-04-12T07:22:08.001Z</time></trkpt><trkpt lat="43.39514371944376" lon="13.656879742649995"><ele>5.0</ele><time>2026-04-12T07:22:09.001Z</time></trkpt><trkpt lat="43.395103856881406" lon="13.65680155312262"><ele>5.0</ele><time>2026-04-12T07:22:11.001Z</time></trkpt><trkpt lat="43.39506091099004" lon="13.656714327983787"><ele>5.0</ele><time>2026-04-12T07:22:13.001Z</time></trkpt><trkpt lat="43.39499350126563" lon="13.656574404312453"><ele>5.0</ele><time>2026-04-12T07:22:15.001Z</time></trkpt><trkpt lat="43.394954844676455" lon="13.656497013879857"><ele>5.0</ele><time>2026-04-12T07:22:17.001Z</time></trkpt><trkpt lat="43.39500360232173" lon="13.65661767837258"><ele>5.0</ele><time>2026-04-12T07:22:29.001Z</time></trkpt><trkpt lat="43.39506048937957" lon="13.656712195512467"><ele>5.0</ele><time>2026-04-12T07:22:31.001Z</time></trkpt><trkpt lat="43.3951095109268" lon="13.656793611761895"><ele>5.0</ele><time>2026-04-12T07:22:33Z</time></trkpt><trkpt lat="43.39516526859487" lon="13.656913878941367"><ele>5.0</ele><time>2026-04-12T07:22:35Z</time></trkpt><trkpt lat="43.395211973457386" lon="13.657003713715346"><ele>5.0</ele><time>2026-04-12T07:22:36Z</time></trkpt><trkpt lat="43.395264055394414" lon="13.65711204987068"><ele>5.0</ele><time>2026-04-12T07:22:37Z</time></trkpt><trkpt lat="43.39532354669744" lon="13.65724867132772"><ele>5.0</ele><time>2026-04-12T07:22:38Z</time></trkpt><trkpt lat="43.39538457760541" lon="13.657374989795292"><ele>5.0</ele><time>2026-04-12T07:22:39Z</time></trkpt><trkpt lat="43.39542933157112" lon="13.657473722402578"><ele>5.0</ele><time>2026-04-12T07:22:40Z</time></trkpt><trkpt lat="43.39546884151687" lon="13.657575164168277"><ele>5.0</ele><time>2026-04-12T07:22:41Z</time></trkpt><trkpt lat="43.395519811307445" lon="13.657708241545496"><ele>5.0</ele><time>2026-04-12T07:22:43Z</time></trkpt><trkpt lat="43.39549130808069" lon="13.657813731898443"><ele>5.4</ele><time>2026-04-12T07:22:46Z</time></trkpt><trkpt lat="43.39539534351348" lon="13.657894941587298"><ele>5.8</ele><time>2026-04-12T07:22:48Z</time></trkpt><trkpt lat="43.39532141521897" lon="13.65793215735821"><ele>6.199999999999999</ele><time>2026-04-12T07:22:49Z</time></trkpt><trkpt lat="43.395251268035665" lon="13.657984998482874"><ele>6.6</ele><time>2026-04-12T07:22:50Z</time></trkpt><trkpt lat="43.395165917765134" lon="13.658048832158693"><ele>7.0</ele><time>2026-04-12T07:22:51Z</time></trkpt><trkpt lat="43.395072556512524" lon="13.658114290812113"><ele>7.0</ele><time>2026-04-12T07:22:52Z</time></trkpt><trkpt lat="43.39497143192589" lon="13.658171037324193"><ele>7.0</ele><time>2026-04-12T07:22:53Z</time></trkpt><trkpt lat="43.39486345614916" lon="13.658237026956183"><ele>7.0</ele><time>2026-04-12T07:22:54Z</time></trkpt><trkpt lat="43.39474207569058" lon="13.6583051308758"><ele>7.0</ele><time>2026-04-12T07:22:55Z</time></trkpt><trkpt lat="43.394611336260276" lon="13.658377593001596"><ele>6.333333333333334</ele><time>2026-04-12T07:22:56Z</time></trkpt><trkpt lat="43.394471531333565" lon="13.6584556607144"><ele>5.666666666666667</ele><time>2026-04-12T07:22:57Z</time></trkpt><trkpt lat="43.394328528807556" lon="13.658537117516541"><ele>5.0</ele><time>2026-04-12T07:22:58Z</time></trkpt><trkpt lat="43.39418619823407" lon="13.658615311617037"><ele>5.25</ele><time>2026-04-12T07:22:59Z</time></trkpt><trkpt lat="43.39404359780317" lon="13.658697922092516"><ele>5.5</ele><time>2026-04-12T07:23:00Z</time></trkpt><trkpt lat="43.39390222979478" lon="13.658774071092143"><ele>5.75</ele><time>2026-04-12T07:23:01Z</time></trkpt><trkpt lat="43.39377588444252" lon="13.658838511471046"><ele>6.0</ele><time>2026-04-12T07:23:02Z</time></trkpt><trkpt lat="43.39365631650597" lon="13.658901521979788"><ele>5.5</ele><time>2026-04-12T07:23:03Z</time></trkpt><trkpt lat="43.393538211621134" lon="13.658967596893275"><ele>5.0</ele><time>2026-04-12T07:23:04Z</time></trkpt><trkpt lat="43.39343048047125" lon="13.659025439647674"><ele>4.5</ele><time>2026-04-12T07:23:05Z</time></trkpt><trkpt lat="43.39331474458826" lon="13.659082251988327"><ele>4.0</ele><time>2026-04-12T07:23:06Z</time></trkpt><trkpt lat="43.39320721471127" lon="13.659148419046865"><ele>4.0</ele><time>2026-04-12T07:23:07Z</time></trkpt><trkpt lat="43.393073446378686" lon="13.65921522118622"><ele>4.0</ele><time>2026-04-12T07:23:08Z</time></trkpt><trkpt lat="43.39294652011304" lon="13.659273341171088"><ele>4.0</ele><time>2026-04-12T07:23:09Z</time></trkpt><trkpt lat="43.39281419375071" lon="13.659341067294237"><ele>4.0</ele><time>2026-04-12T07:23:10Z</time></trkpt><trkpt lat="43.39267882373251" lon="13.659417959888279"><ele>4.0</ele><time>2026-04-12T07:23:11Z</time></trkpt><trkpt lat="43.39253123530924" lon="13.659485721813807"><ele>4.0</ele><time>2026-04-12T07:23:12Z</time></trkpt><trkpt lat="43.392385486526024" lon="13.659563341542666"><ele>4.0</ele><time>2026-04-12T07:23:13Z</time></trkpt><trkpt lat="43.392234518060306" lon="13.659637276398655"><ele>3.6666666666666665</ele><time>2026-04-12T07:23:14Z</time></trkpt><trkpt lat="43.392080948084434" lon="13.659714865657822"><ele>3.333333333333333</ele><time>2026-04-12T07:23:15Z</time></trkpt><trkpt lat="43.39192659955896" lon="13.659793885597976"><ele>3.0</ele><time>2026-04-12T07:23:16Z</time></trkpt><trkpt lat="43.39177439403033" lon="13.65987040150942"><ele>3.0</ele><time>2026-04-12T07:23:17Z</time></trkpt><trkpt lat="43.39161905177332" lon="13.659951710676246"><ele>3.0</ele><time>2026-04-12T07:23:18Z</time></trkpt><trkpt lat="43.39145867596654" lon="13.66003217390412"><ele>3.0</ele><time>2026-04-12T07:23:19Z</time></trkpt><trkpt lat="43.39129633271391" lon="13.660108526597439"><ele>3.0</ele><time>2026-04-12T07:23:20Z</time></trkpt><trkpt lat="43.391151009145325" lon="13.660180353969755"><ele>3.0</ele><time>2026-04-12T07:23:21Z</time></trkpt><trkpt lat="43.39099417759176" lon="13.660267952546324"><ele>3.0</ele><time>2026-04-12T07:23:22Z</time></trkpt><trkpt lat="43.39084596034821" lon="13.660348483054094"><ele>2.5</ele><time>2026-04-12T07:23:23Z</time></trkpt><trkpt lat="43.39071586244137" lon="13.660417551661954"><ele>2.0</ele><time>2026-04-12T07:23:24Z</time></trkpt><trkpt lat="43.39060439785231" lon="13.660478607152506"><ele>1.5</ele><time>2026-04-12T07:23:25Z</time></trkpt><trkpt lat="43.390501453078656" lon="13.660530736275597"><ele>1.0</ele><time>2026-04-12T07:23:26Z</time></trkpt><trkpt lat="43.39039648814865" lon="13.660581117849802"><ele>1.0</ele><time>2026-04-12T07:23:27Z</time></trkpt><trkpt lat="43.39029653728473" lon="13.66063875008457"><ele>1.0</ele><time>2026-04-12T07:23:28Z</time></trkpt><trkpt lat="43.39020249584435" lon="13.660691489463328"><ele>1.0</ele><time>2026-04-12T07:23:29Z</time></trkpt><trkpt lat="43.390128891995936" lon="13.660756213220647"><ele>1.0</ele><time>2026-04-12T07:23:30Z</time></trkpt><trkpt lat="43.3900837786231" lon="13.660839900824872"><ele>1.0</ele><time>2026-04-12T07:23:31Z</time></trkpt><trkpt lat="43.390041447343584" lon="13.66094062087931"><ele>0.9999999999999999</ele><time>2026-04-12T07:23:32Z</time></trkpt><trkpt lat="43.39005968186796" lon="13.661086231333567"><ele>1.0</ele><time>2026-04-12T07:23:33Z</time></trkpt><trkpt lat="43.39007232853173" lon="13.66122387448936"><ele>1.0</ele><time>2026-04-12T07:23:34Z</time></trkpt><trkpt lat="43.39007350195438" lon="13.6613327455375"><ele>1.0</ele><time>2026-04-12T07:23:35Z</time></trkpt><trkpt lat="43.39004005313085" lon="13.66141940665652"><ele>0.9999999999999999</ele><time>2026-04-12T07:23:36Z</time></trkpt><trkpt lat="43.38997816060543" lon="13.661472449838863"><ele>1.0</ele><time>2026-04-12T07:23:37Z</time></trkpt><trkpt lat="43.38988905099731" lon="13.661488938577785"><ele>1.0</ele><time>2026-04-12T07:23:38Z</time></trkpt><trkpt lat="43.38977069942058" lon="13.661546215225437"><ele>1.0</ele><time>2026-04-12T07:23:39Z</time></trkpt><trkpt lat="43.38965751652733" lon="13.661586428878064"><ele>1.0</ele><time>2026-04-12T07:23:40Z</time></trkpt><trkpt lat="43.38953712641737" lon="13.661627354368909"><ele>1.0</ele><time>2026-04-12T07:23:41Z</time></trkpt><trkpt lat="43.38940569823459" lon="13.661672357627232"><ele>1.0</ele><time>2026-04-12T07:23:42Z</time></trkpt><trkpt lat="43.38927942021338" lon="13.661693243508527"><ele>1.0</ele><time>2026-04-12T07:23:43Z</time></trkpt><trkpt lat="43.389147944718935" lon="13.661654476452982"><ele>1.0</ele><time>2026-04-12T07:23:44Z</time></trkpt><trkpt lat="43.388999656415294" lon="13.661621000959485"><ele>1.0</ele><time>2026-04-12T07:23:45Z</time></trkpt><trkpt lat="43.3888529645068" lon="13.661584399772147"><ele>1.6666666666666665</ele><time>2026-04-12T07:23:46.001Z</time></trkpt><trkpt lat="43.38869443238455" lon="13.66156429687611"><ele>2.3333333333333335</ele><time>2026-04-12T07:23:47.001Z</time></trkpt><trkpt lat="43.388554438117765" lon="13.661525954974804"><ele>3.0</ele><time>2026-04-12T07:23:48.001Z</time></trkpt><trkpt lat="43.388406311838125" lon="13.661475033392064"><ele>3.0</ele><time>2026-04-12T07:23:49.001Z</time></trkpt><trkpt lat="43.38827541952942" lon="13.661433863535686"><ele>3.0</ele><time>2026-04-12T07:23:50.001Z</time></trkpt><trkpt lat="43.388152871575954" lon="13.661388882454467"><ele>3.0</ele><time>2026-04-12T07:23:51.001Z</time></trkpt><trkpt lat="43.388033065942416" lon="13.661344285260958"><ele>3.0</ele><time>2026-04-12T07:23:52.001Z</time></trkpt><trkpt lat="43.387925601332036" lon="13.661306444187622"><ele>3.2</ele><time>2026-04-12T07:23:53.001Z</time></trkpt><trkpt lat="43.38782042093172" lon="13.661268855713992"><ele>3.4</ele><time>2026-04-12T07:23:54.001Z</time></trkpt><trkpt lat="43.38772421403313" lon="13.66126200474315"><ele>3.6000000000000005</ele><time>2026-04-12T07:23:55.001Z</time></trkpt><trkpt lat="43.3876382576621" lon="13.66127700465761"><ele>3.8000000000000003</ele><time>2026-04-12T07:23:56.001Z</time></trkpt><trkpt lat="43.38753420359907" lon="13.661326450853013"><ele>4.0</ele><time>2026-04-12T07:23:57.001Z</time></trkpt><trkpt lat="43.38742220128393" lon="13.661385714204242"><ele>4.0</ele><time>2026-04-12T07:23:58.001Z</time></trkpt><trkpt lat="43.38729396194562" lon="13.661448016388357"><ele>4.0</ele><time>2026-04-12T07:23:59.001Z</time></trkpt><trkpt lat="43.387151406630075" lon="13.661512132676862"><ele>4.0</ele><time>2026-04-12T07:24:00.001Z</time></trkpt><trkpt lat="43.38700204851557" lon="13.661522622630033"><ele>4.0</ele><time>2026-04-12T07:24:01.001Z</time></trkpt><trkpt lat="43.38685156701846" lon="13.661531842189772"><ele>4.0</ele><time>2026-04-12T07:24:02.001Z</time></trkpt><trkpt lat="43.386689148786076" lon="13.661541196472596"><ele>4.0</ele><time>2026-04-12T07:24:03.001Z</time></trkpt><trkpt lat="43.38652084426979" lon="13.661570901153999"><ele>4.0</ele><time>2026-04-12T07:24:04.001Z</time></trkpt><trkpt lat="43.386362980421815" lon="13.661559981745024"><ele>4.75</ele><time>2026-04-12T07:24:05.001Z</time></trkpt><trkpt lat="43.3862258709357" lon="13.661589200977065"><ele>5.5</ele><time>2026-04-12T07:24:06.001Z</time></trkpt><trkpt lat="43.38609343921255" lon="13.661594504266505"><ele>6.25</ele><time>2026-04-12T07:24:07.001Z</time></trkpt><trkpt lat="43.385957878416356" lon="13.661601912247336"><ele>7.0</ele><time>2026-04-12T07:24:08.001Z</time></trkpt><trkpt lat="43.385833074686715" lon="13.661607213409548"><ele>7.0</ele><time>2026-04-12T07:24:09.001Z</time></trkpt><trkpt lat="43.38572038202926" lon="13.66161568138264"><ele>7.0</ele><time>2026-04-12T07:24:10.001Z</time></trkpt><trkpt lat="43.38561634259411" lon="13.66161927572344"><ele>7.0</ele><time>2026-04-12T07:24:11.001Z</time></trkpt><trkpt lat="43.38552901315182" lon="13.66162334790279"><ele>7.0</ele><time>2026-04-12T07:24:12.001Z</time></trkpt><trkpt lat="43.38538204627564" lon="13.661643603302679"><ele>8.0</ele><time>2026-04-12T07:24:14.001Z</time></trkpt><trkpt lat="43.385295443017334" lon="13.66163542233039"><ele>9.0</ele><time>2026-04-12T07:24:16.001Z</time></trkpt><trkpt lat="43.38523777862032" lon="13.661597964242226"><ele>10.0</ele><time>2026-04-12T07:24:19.001Z</time></trkpt><trkpt lat="43.38524572719917" lon="13.661487342615287"><ele>11.0</ele><time>2026-04-12T07:24:20.001Z</time></trkpt><trkpt lat="43.38523072375321" lon="13.661360968464301"><ele>11.999999999999998</ele><time>2026-04-12T07:24:21.001Z</time></trkpt><trkpt lat="43.38520013612537" lon="13.661242103060992"><ele>13.0</ele><time>2026-04-12T07:24:22.001Z</time></trkpt><trkpt lat="43.385184775642315" lon="13.66109635025905"><ele>13.0</ele><time>2026-04-12T07:24:23.001Z</time></trkpt><trkpt lat="43.38515530315105" lon="13.660932709811366"><ele>13.0</ele><time>2026-04-12T07:24:24.001Z</time></trkpt><trkpt lat="43.385119201860164" lon="13.660771666884898"><ele>13.0</ele><time>2026-04-12T07:24:25.001Z</time></trkpt><trkpt lat="43.38506380873105" lon="13.66059052292446"><ele>13.0</ele><time>2026-04-12T07:24:26.001Z</time></trkpt><trkpt lat="43.38499658106845" lon="13.66039951875836"><ele>12.75</ele><time>2026-04-12T07:24:27.001Z</time></trkpt><trkpt lat="43.38492861904066" lon="13.660220666778784"><ele>12.5</ele><time>2026-04-12T07:24:28.001Z</time></trkpt><trkpt lat="43.384859182536026" lon="13.660049781614045"><ele>12.25</ele><time>2026-04-12T07:24:29.001Z</time></trkpt><trkpt lat="43.384792215912256" lon="13.65990698720433"><ele>12.0</ele><time>2026-04-12T07:24:30.001Z</time></trkpt><trkpt lat="43.38473403830893" lon="13.659764506376494"><ele>12.0</ele><time>2026-04-12T07:24:31.001Z</time></trkpt><trkpt lat="43.384711396391154" lon="13.659640507647934"><ele>12.0</ele><time>2026-04-12T07:24:32.001Z</time></trkpt><trkpt lat="43.38471699559738" lon="13.659530573510937"><ele>12.0</ele><time>2026-04-12T07:24:33.001Z</time></trkpt><trkpt lat="43.3847538779934" lon="13.659406238667536"><ele>12.0</ele><time>2026-04-12T07:24:34.001Z</time></trkpt><trkpt lat="43.38482950671646" lon="13.659276080233631"><ele>12.0</ele><time>2026-04-12T07:24:35.001Z</time></trkpt><trkpt lat="43.38488295808112" lon="13.659105600278426"><ele>11.75</ele><time>2026-04-12T07:24:36.001Z</time></trkpt><trkpt lat="43.38494883525475" lon="13.658925438545744"><ele>11.5</ele><time>2026-04-12T07:24:37.001Z</time></trkpt><trkpt lat="43.384989698338266" lon="13.6587585442946"><ele>11.25</ele><time>2026-04-12T07:24:38.001Z</time></trkpt><trkpt lat="43.385003700796275" lon="13.658597687982429"><ele>11.0</ele><time>2026-04-12T07:24:39Z</time></trkpt><trkpt lat="43.384985571098916" lon="13.6584332717053"><ele>10.25</ele><time>2026-04-12T07:24:40Z</time></trkpt><trkpt lat="43.384943934513345" lon="13.65825821463743"><ele>9.5</ele><time>2026-04-12T07:24:41Z</time></trkpt><trkpt lat="43.38489796390022" lon="13.658079280069941"><ele>8.75</ele><time>2026-04-12T07:24:42Z</time></trkpt><trkpt lat="43.38485395160872" lon="13.657894668244293"><ele>8.0</ele><time>2026-04-12T07:24:43Z</time></trkpt><trkpt lat="43.38481097641331" lon="13.657705709007914"><ele>7.75</ele><time>2026-04-12T07:24:44Z</time></trkpt><trkpt lat="43.38477203429343" lon="13.657506347908697"><ele>7.5</ele><time>2026-04-12T07:24:45Z</time></trkpt><trkpt lat="43.384740952955426" lon="13.657302270085824"><ele>7.25</ele><time>2026-04-12T07:24:46Z</time></trkpt><trkpt lat="43.38470990747457" lon="13.657108068069224"><ele>7.0</ele><time>2026-04-12T07:24:47Z</time></trkpt><trkpt lat="43.384678350271734" lon="13.656903827967184"><ele>9.333333333333334</ele><time>2026-04-12T07:24:48Z</time></trkpt><trkpt lat="43.38465274177506" lon="13.656698907075407"><ele>11.666666666666668</ele><time>2026-04-12T07:24:49Z</time></trkpt><trkpt lat="43.38463020973596" lon="13.65649227832102"><ele>14.0</ele><time>2026-04-12T07:24:50Z</time></trkpt><trkpt lat="43.38463228673702" lon="13.65627776489959"><ele>14.0</ele><time>2026-04-12T07:24:51Z</time></trkpt><trkpt lat="43.38463110215255" lon="13.656056488856137"><ele>14.0</ele><time>2026-04-12T07:24:52Z</time></trkpt><trkpt lat="43.38463384334818" lon="13.655831817042328"><ele>14.0</ele><time>2026-04-12T07:24:53Z</time></trkpt><trkpt lat="43.38463732751608" lon="13.655588088103814"><ele>14.0</ele><time>2026-04-12T07:24:54Z</time></trkpt><trkpt lat="43.38464041049548" lon="13.65537242356437"><ele>14.0</ele><time>2026-04-12T07:24:55Z</time></trkpt><trkpt lat="43.38462728681953" lon="13.655160552390877"><ele>14.0</ele><time>2026-04-12T07:24:56Z</time></trkpt><trkpt lat="43.3846335251301" lon="13.65496129947449"><ele>14.333333333333334</ele><time>2026-04-12T07:24:57Z</time></trkpt><trkpt lat="43.38464052766973" lon="13.654757973650433"><ele>14.666666666666668</ele><time>2026-04-12T07:24:58Z</time></trkpt><trkpt lat="43.38464458313296" lon="13.654553179978983"><ele>15.0</ele><time>2026-04-12T07:24:59Z</time></trkpt><trkpt lat="43.38465548862929" lon="13.654343260097233"><ele>15.0</ele><time>2026-04-12T07:25:00Z</time></trkpt><trkpt lat="43.3846707755006" lon="13.654122478549853"><ele>15.0</ele><time>2026-04-12T07:25:01Z</time></trkpt><trkpt lat="43.38470024987525" lon="13.65390383525982"><ele>15.0</ele><time>2026-04-12T07:25:02Z</time></trkpt><trkpt lat="43.384715329998045" lon="13.65368882798181"><ele>13.0</ele><time>2026-04-12T07:25:03Z</time></trkpt><trkpt lat="43.38471675540121" lon="13.653466833621877"><ele>11.0</ele><time>2026-04-12T07:25:04Z</time></trkpt><trkpt lat="43.38473233393397" lon="13.653250392561759"><ele>9.0</ele><time>2026-04-12T07:25:05Z</time></trkpt><trkpt lat="43.38475000053801" lon="13.653026136817406"><ele>9.0</ele><time>2026-04-12T07:25:06Z</time></trkpt><trkpt lat="43.384781252722796" lon="13.652811647847122"><ele>9.0</ele><time>2026-04-12T07:25:07Z</time></trkpt><trkpt lat="43.38480018530417" lon="13.65259267998944"><ele>9.0</ele><time>2026-04-12T07:25:08Z</time></trkpt><trkpt lat="43.384818006463426" lon="13.652406177963979"><ele>9.25</ele><time>2026-04-12T07:25:09Z</time></trkpt><trkpt lat="43.384818858907316" lon="13.652232009233789"><ele>9.5</ele><time>2026-04-12T07:25:10Z</time></trkpt><trkpt lat="43.38484075238745" lon="13.65207568016932"><ele>9.75</ele><time>2026-04-12T07:25:11Z</time></trkpt><trkpt lat="43.3848397826018" lon="13.65192275634761"><ele>10.0</ele><time>2026-04-12T07:25:12Z</time></trkpt><trkpt lat="43.38483825910746" lon="13.651776074864046"><ele>10.333333333333334</ele><time>2026-04-12T07:25:13Z</time></trkpt><trkpt lat="43.38483609666002" lon="13.651634502897345"><ele>10.666666666666668</ele><time>2026-04-12T07:25:14Z</time></trkpt><trkpt lat="43.3848324785385" lon="13.651495581243115"><ele>11.0</ele><time>2026-04-12T07:25:15Z</time></trkpt><trkpt lat="43.38482542612762" lon="13.6513800878846"><ele>11.333333333333334</ele><time>2026-04-12T07:25:16Z</time></trkpt><trkpt lat="43.38482757729378" lon="13.651290505576378"><ele>11.666666666666666</ele><time>2026-04-12T07:25:17Z</time></trkpt><trkpt lat="43.38482058173306" lon="13.651194843341248"><ele>12.0</ele><time>2026-04-12T07:25:18Z</time></trkpt><trkpt lat="43.384813669944094" lon="13.651047095263"><ele>12.25</ele><time>2026-04-12T07:25:20Z</time></trkpt><trkpt lat="43.384815390479396" lon="13.650952875527878"><ele>12.5</ele><time>2026-04-12T07:25:23Z</time></trkpt><trkpt lat="43.384685209078036" lon="13.650815448287796"><ele>12.75</ele><time>2026-04-12T07:25:30Z</time></trkpt><trkpt lat="43.38460347875227" lon="13.650720904758245"><ele>13.0</ele><time>2026-04-12T07:25:32Z</time></trkpt><trkpt lat="43.3845218985967" lon="13.65061557736433"><ele>15.0</ele><time>2026-04-12T07:25:34Z</time></trkpt><trkpt lat="43.38446161353967" lon="13.650548785327059"><ele>17.0</ele><time>2026-04-12T07:25:36Z</time></trkpt><trkpt lat="43.38439211920792" lon="13.65049514976158"><ele>19.0</ele><time>2026-04-12T07:25:40Z</time></trkpt><trkpt lat="43.38444599575109" lon="13.650542195889853"><ele>21.0</ele><time>2026-04-12T07:25:52Z</time></trkpt><trkpt lat="43.384531585490485" lon="13.65061504696907"><ele>23.000000000000004</ele><time>2026-04-12T07:25:54Z</time></trkpt><trkpt lat="43.38457960792568" lon="13.650674552988132"><ele>25.0</ele><time>2026-04-12T07:25:55.001Z</time></trkpt><trkpt lat="43.38462389735637" lon="13.65075151924582"><ele>25.0</ele><time>2026-04-12T07:25:56.001Z</time></trkpt><trkpt lat="43.38467453575206" lon="13.65080847445773"><ele>25.0</ele><time>2026-04-12T07:25:57.001Z</time></trkpt><trkpt lat="43.384734425593415" lon="13.650874149516325"><ele>25.0</ele><time>2026-04-12T07:25:59.001Z</time></trkpt><trkpt lat="43.38480595641609" lon="13.650873379243665"><ele>25.0</ele><time>2026-04-12T07:26:04.001Z</time></trkpt><trkpt lat="43.38481688634077" lon="13.650628885247885"><ele>25.0</ele><time>2026-04-12T07:26:07.001Z</time></trkpt><trkpt lat="43.38479610633593" lon="13.650501918408066"><ele>22.6</ele><time>2026-04-12T07:26:08.001Z</time></trkpt><trkpt lat="43.384791786932745" lon="13.65036002526932"><ele>20.2</ele><time>2026-04-12T07:26:09.001Z</time></trkpt><trkpt lat="43.38479209207148" lon="13.650200687133557"><ele>17.8</ele><time>2026-04-12T07:26:10.001Z</time></trkpt><trkpt lat="43.3847906710084" lon="13.650038076978118"><ele>15.4</ele><time>2026-04-12T07:26:11.001Z</time></trkpt><trkpt lat="43.38478581501569" lon="13.649888527401913"><ele>13.0</ele><time>2026-04-12T07:26:12.001Z</time></trkpt><trkpt lat="43.38477997538523" lon="13.649753191944423"><ele>13.0</ele><time>2026-04-12T07:26:13.001Z</time></trkpt><trkpt lat="43.384783980786466" lon="13.649615568587002"><ele>13.0</ele><time>2026-04-12T07:26:14.001Z</time></trkpt><trkpt lat="43.38477151060195" lon="13.649485565822129"><ele>13.0</ele><time>2026-04-12T07:26:15.001Z</time></trkpt><trkpt lat="43.38477571990961" lon="13.649343363134491"><ele>13.0</ele><time>2026-04-12T07:26:16.001Z</time></trkpt><trkpt lat="43.38477440469348" lon="13.64921167413657"><ele>13.0</ele><time>2026-04-12T07:26:17.001Z</time></trkpt><trkpt lat="43.38477465327021" lon="13.649086753618912"><ele>13.0</ele><time>2026-04-12T07:26:18.001Z</time></trkpt><trkpt lat="43.38476915893118" lon="13.648945996793975"><ele>13.0</ele><time>2026-04-12T07:26:19.001Z</time></trkpt><trkpt lat="43.384759550705105" lon="13.64879291106148"><ele>13.0</ele><time>2026-04-12T07:26:20.001Z</time></trkpt><trkpt lat="43.3847559737197" lon="13.648623402454858"><ele>13.0</ele><time>2026-04-12T07:26:21.001Z</time></trkpt><trkpt lat="43.38475139492702" lon="13.64843534425748"><ele>13.0</ele><time>2026-04-12T07:26:22.001Z</time></trkpt><trkpt lat="43.384748428171235" lon="13.648239868894395"><ele>13.0</ele><time>2026-04-12T07:26:23.001Z</time></trkpt><trkpt lat="43.384746167858424" lon="13.648033434236286"><ele>13.0</ele><time>2026-04-12T07:26:24.001Z</time></trkpt><trkpt lat="43.38474468326209" lon="13.647826850194116"><ele>13.0</ele><time>2026-04-12T07:26:25.001Z</time></trkpt><trkpt lat="43.38473929021786" lon="13.647603390904019"><ele>12.333333333333332</ele><time>2026-04-12T07:26:26.001Z</time></trkpt><trkpt lat="43.384728730083054" lon="13.647384284725538"><ele>11.666666666666666</ele><time>2026-04-12T07:26:27.001Z</time></trkpt><trkpt lat="43.38473800970702" lon="13.64716767730483"><ele>11.0</ele><time>2026-04-12T07:26:28.001Z</time></trkpt><trkpt lat="43.38471984265083" lon="13.646942783249646"><ele>11.0</ele><time>2026-04-12T07:26:29.001Z</time></trkpt><trkpt lat="43.38471704592244" lon="13.646718477730314"><ele>11.0</ele><time>2026-04-12T07:26:30.001Z</time></trkpt><trkpt lat="43.38471237552981" lon="13.646502586092895"><ele>11.0</ele><time>2026-04-12T07:26:31.001Z</time></trkpt><trkpt lat="43.38472291437603" lon="13.64630505451735"><ele>11.25</ele><time>2026-04-12T07:26:32.001Z</time></trkpt><trkpt lat="43.38471713028486" lon="13.646125498911871"><ele>11.5</ele><time>2026-04-12T07:26:33.001Z</time></trkpt><trkpt lat="43.384711696546184" lon="13.645956819184994"><ele>11.75</ele><time>2026-04-12T07:26:34.001Z</time></trkpt><trkpt lat="43.3847063655183" lon="13.645791327637676"><ele>12.0</ele><time>2026-04-12T07:26:35.001Z</time></trkpt><trkpt lat="43.38470143936333" lon="13.645638404794429"><ele>12.0</ele><time>2026-04-12T07:26:36.001Z</time></trkpt><trkpt lat="43.38469672071289" lon="13.645491923617573"><ele>12.0</ele><time>2026-04-12T07:26:37.001Z</time></trkpt><trkpt lat="43.38468197681977" lon="13.645362086033321"><ele>12.0</ele><time>2026-04-12T07:26:38.001Z</time></trkpt><trkpt lat="43.38467847782489" lon="13.645242104750686"><ele>12.0</ele><time>2026-04-12T07:26:39.001Z</time></trkpt><trkpt lat="43.38468014076473" lon="13.645139916720728"><ele>12.0</ele><time>2026-04-12T07:26:41.001Z</time></trkpt><trkpt lat="43.38463091500882" lon="13.645002031335872"><ele>13.0</ele><time>2026-04-12T07:26:49Z</time></trkpt><trkpt lat="43.38460313958248" lon="13.644922241034203"><ele>14.0</ele><time>2026-04-12T07:26:50Z</time></trkpt><trkpt lat="43.384506312832556" lon="13.64478227348975"><ele>15.0</ele><time>2026-04-12T07:26:52Z</time></trkpt><trkpt lat="43.384466235379705" lon="13.644667434541022"><ele>16.0</ele><time>2026-04-12T07:26:53Z</time></trkpt><trkpt lat="43.38441162244898" lon="13.644560872840778"><ele>17.0</ele><time>2026-04-12T07:26:54Z</time></trkpt><trkpt lat="43.384351772905575" lon="13.6444414375633"><ele>17.0</ele><time>2026-04-12T07:26:55Z</time></trkpt><trkpt lat="43.38428604990078" lon="13.644311225051378"><ele>17.0</ele><time>2026-04-12T07:26:56Z</time></trkpt><trkpt lat="43.38421303899854" lon="13.644176622320817"><ele>17.0</ele><time>2026-04-12T07:26:57Z</time></trkpt><trkpt lat="43.38414212354046" lon="13.644054944339723"><ele>17.0</ele><time>2026-04-12T07:26:58Z</time></trkpt><trkpt lat="43.38407641821691" lon="13.643934300100307"><ele>17.0</ele><time>2026-04-12T07:26:59Z</time></trkpt><trkpt lat="43.38401540499383" lon="13.643803552340138"><ele>17.0</ele><time>2026-04-12T07:27:00Z</time></trkpt><trkpt lat="43.383965235289395" lon="13.643667398956808"><ele>17.0</ele><time>2026-04-12T07:27:01Z</time></trkpt><trkpt lat="43.383921156815184" lon="13.64352882840643"><ele>17.0</ele><time>2026-04-12T07:27:02Z</time></trkpt><trkpt lat="43.383869706895155" lon="13.643391940121342"><ele>17.0</ele><time>2026-04-12T07:27:03Z</time></trkpt><trkpt lat="43.38383838036073" lon="13.64324733385617"><ele>18.6</ele><time>2026-04-12T07:27:04Z</time></trkpt><trkpt lat="43.38380507171064" lon="13.643102431313936"><ele>20.2</ele><time>2026-04-12T07:27:05Z</time></trkpt><trkpt lat="43.383771223993996" lon="13.642957982320999"><ele>21.8</ele><time>2026-04-12T07:27:06Z</time></trkpt><trkpt lat="43.383710382525074" lon="13.642823580985452"><ele>23.4</ele><time>2026-04-12T07:27:07Z</time></trkpt><trkpt lat="43.383653569316806" lon="13.642691494136663"><ele>25.0</ele><time>2026-04-12T07:27:08Z</time></trkpt><trkpt lat="43.38358908763226" lon="13.642558938684655"><ele>25.0</ele><time>2026-04-12T07:27:09Z</time></trkpt><trkpt lat="43.383510098238155" lon="13.642435436100943"><ele>25.0</ele><time>2026-04-12T07:27:10Z</time></trkpt><trkpt lat="43.383412208271366" lon="13.64227760787871"><ele>25.0</ele><time>2026-04-12T07:27:11Z</time></trkpt><trkpt lat="43.38328467450526" lon="13.64208955816017"><ele>23.666666666666668</ele><time>2026-04-12T07:27:12Z</time></trkpt><trkpt lat="43.38316238717815" lon="13.641849821262646"><ele>22.333333333333336</ele><time>2026-04-12T07:27:13Z</time></trkpt><trkpt lat="43.38302686594112" lon="13.641623957326589"><ele>21.0</ele><time>2026-04-12T07:27:14Z</time></trkpt><trkpt lat="43.38291652260495" lon="13.641378630344779"><ele>23.333333333333336</ele><time>2026-04-12T07:27:15Z</time></trkpt><trkpt lat="43.382786837938035" lon="13.641145484521823"><ele>25.666666666666668</ele><time>2026-04-12T07:27:16Z</time></trkpt><trkpt lat="43.38265293227163" lon="13.640939499580043"><ele>28.0</ele><time>2026-04-12T07:27:17Z</time></trkpt><trkpt lat="43.38252826583071" lon="13.640713872817837"><ele>28.0</ele><time>2026-04-12T07:27:18Z</time></trkpt><trkpt lat="43.382410476284825" lon="13.640506611768778"><ele>28.0</ele><time>2026-04-12T07:27:19Z</time></trkpt><trkpt lat="43.38231480367186" lon="13.640303650037268"><ele>28.0</ele><time>2026-04-12T07:27:20Z</time></trkpt><trkpt lat="43.382215057421455" lon="13.64013031666159"><ele>29.75</ele><time>2026-04-12T07:27:21Z</time></trkpt><trkpt lat="43.38212256739936" lon="13.63997469416772"><ele>31.5</ele><time>2026-04-12T07:27:22Z</time></trkpt><trkpt lat="43.3820516959487" lon="13.639855190606442"><ele>33.25</ele><time>2026-04-12T07:27:23Z</time></trkpt><trkpt lat="43.38196856411139" lon="13.63972374414363"><ele>35.0</ele><time>2026-04-12T07:27:24Z</time></trkpt><trkpt lat="43.3818840342728" lon="13.63959795712032"><ele>33.6</ele><time>2026-04-12T07:27:25Z</time></trkpt><trkpt lat="43.38181006954483" lon="13.639463403127262"><ele>32.2</ele><time>2026-04-12T07:27:26Z</time></trkpt><trkpt lat="43.38172498314552" lon="13.639348907239754"><ele>30.799999999999997</ele><time>2026-04-12T07:27:27Z</time></trkpt><trkpt lat="43.38162560346954" lon="13.639273694528745"><ele>29.4</ele><time>2026-04-12T07:27:28Z</time></trkpt><trkpt lat="43.38156426826668" lon="13.639191028490197"><ele>28.0</ele><time>2026-04-12T07:27:29Z</time></trkpt><trkpt lat="43.38152700073788" lon="13.639104530972842"><ele>28.0</ele><time>2026-04-12T07:27:30Z</time></trkpt><trkpt lat="43.38153246588495" lon="13.639009345250763"><ele>27.999999999999996</ele><time>2026-04-12T07:27:31Z</time></trkpt><trkpt lat="43.38154999987188" lon="13.63887405072822"><ele>27.999999999999996</ele><time>2026-04-12T07:27:32Z</time></trkpt><trkpt lat="43.38156562229867" lon="13.638681551584371"><ele>28.0</ele><time>2026-04-12T07:27:33Z</time></trkpt><trkpt lat="43.381567808072866" lon="13.638498303522566"><ele>28.0</ele><time>2026-04-12T07:27:34Z</time></trkpt><trkpt lat="43.38155197946061" lon="13.638353821465605"><ele>27.799999999999997</ele><time>2026-04-12T07:27:35Z</time></trkpt><trkpt lat="43.381537196899025" lon="13.638222218296487"><ele>27.599999999999998</ele><time>2026-04-12T07:27:36Z</time></trkpt><trkpt lat="43.38153047773447" lon="13.638121805861449"><ele>27.400000000000002</ele><time>2026-04-12T07:27:37Z</time></trkpt><trkpt lat="43.38154794824489" lon="13.638029911145521"><ele>27.200000000000003</ele><time>2026-04-12T07:27:38Z</time></trkpt><trkpt lat="43.381607656994916" lon="13.63788559756679"><ele>27.0</ele><time>2026-04-12T07:27:39Z</time></trkpt><trkpt lat="43.3816849135452" lon="13.637694062849675"><ele>26.5</ele><time>2026-04-12T07:27:40Z</time></trkpt><trkpt lat="43.3817599045527" lon="13.637524316513948"><ele>26.0</ele><time>2026-04-12T07:27:41Z</time></trkpt><trkpt lat="43.38185041611727" lon="13.637354043776616"><ele>25.5</ele><time>2026-04-12T07:27:42Z</time></trkpt><trkpt lat="43.38192626537007" lon="13.637196154017557"><ele>25.0</ele><time>2026-04-12T07:27:43Z</time></trkpt><trkpt lat="43.38199877805654" lon="13.637034056984769"><ele>24.0</ele><time>2026-04-12T07:27:44Z</time></trkpt><trkpt lat="43.38208804717829" lon="13.636882308394664"><ele>23.0</ele><time>2026-04-12T07:27:45Z</time></trkpt><trkpt lat="43.382156619932985" lon="13.636755645777567"><ele>22.0</ele><time>2026-04-12T07:27:46Z</time></trkpt><trkpt lat="43.38221087170486" lon="13.63664677851626"><ele>21.0</ele><time>2026-04-12T07:27:47Z</time></trkpt><trkpt lat="43.382263590172684" lon="13.636538901643046"><ele>20.0</ele><time>2026-04-12T07:27:48Z</time></trkpt><trkpt lat="43.38228399509399" lon="13.63641684167209"><ele>19.0</ele><time>2026-04-12T07:27:49Z</time></trkpt><trkpt lat="43.382283658127776" lon="13.636264118617062"><ele>18.0</ele><time>2026-04-12T07:27:50Z</time></trkpt><trkpt lat="43.38226855503491" lon="13.636086250947503"><ele>17.0</ele><time>2026-04-12T07:27:51Z</time></trkpt><trkpt lat="43.38223256603328" lon="13.635884516375842"><ele>16.0</ele><time>2026-04-12T07:27:52Z</time></trkpt><trkpt lat="43.38219517286797" lon="13.63569233858781"><ele>17.25</ele><time>2026-04-12T07:27:53Z</time></trkpt><trkpt lat="43.38216627279201" lon="13.635513649232585"><ele>18.5</ele><time>2026-04-12T07:27:54Z</time></trkpt><trkpt lat="43.38214696646892" lon="13.635328198029297"><ele>19.75</ele><time>2026-04-12T07:27:55Z</time></trkpt><trkpt lat="43.38213635319607" lon="13.635164728692326"><ele>21.0</ele><time>2026-04-12T07:27:56Z</time></trkpt><trkpt lat="43.382156184178584" lon="13.635022014891616"><ele>19.5</ele><time>2026-04-12T07:27:57Z</time></trkpt><trkpt lat="43.3822263358018" lon="13.6349036438427"><ele>18.0</ele><time>2026-04-12T07:27:58Z</time></trkpt><trkpt lat="43.38229017784653" lon="13.634750500418415"><ele>16.5</ele><time>2026-04-12T07:27:59Z</time></trkpt><trkpt lat="43.382330189230686" lon="13.634578647783727"><ele>15.0</ele><time>2026-04-12T07:28:00Z</time></trkpt><trkpt lat="43.382366456057795" lon="13.634412855305836"><ele>15.0</ele><time>2026-04-12T07:28:01Z</time></trkpt><trkpt lat="43.38239432491145" lon="13.634226963377142"><ele>15.0</ele><time>2026-04-12T07:28:02.001Z</time></trkpt><trkpt lat="43.38243431463765" lon="13.634035428845932"><ele>15.0</ele><time>2026-04-12T07:28:03.001Z</time></trkpt><trkpt lat="43.382475086112166" lon="13.633833065267195"><ele>15.0</ele><time>2026-04-12T07:28:04.001Z</time></trkpt><trkpt lat="43.382511108048405" lon="13.633626691719636"><ele>15.25</ele><time>2026-04-12T07:28:05.001Z</time></trkpt><trkpt lat="43.382547917159584" lon="13.633425234812377"><ele>15.5</ele><time>2026-04-12T07:28:06.001Z</time></trkpt><trkpt lat="43.38258163827815" lon="13.63325953060924"><ele>15.75</ele><time>2026-04-12T07:28:07.001Z</time></trkpt><trkpt lat="43.382618040881916" lon="13.633112689647868"><ele>16.0</ele><time>2026-04-12T07:28:08.001Z</time></trkpt><trkpt lat="43.38265816291738" lon="13.632990771545975"><ele>15.999999999999998</ele><time>2026-04-12T07:28:09.001Z</time></trkpt><trkpt lat="43.382705345664995" lon="13.632912196333665"><ele>16.0</ele><time>2026-04-12T07:28:10.001Z</time></trkpt><trkpt lat="43.38276754345366" lon="13.63283945672974"><ele>16.0</ele><time>2026-04-12T07:28:11.001Z</time></trkpt><trkpt lat="43.38284589339936" lon="13.632759706240735"><ele>16.0</ele><time>2026-04-12T07:28:12.001Z</time></trkpt><trkpt lat="43.38292556541061" lon="13.632656009160424"><ele>15.999999999999998</ele><time>2026-04-12T07:28:13.001Z</time></trkpt><trkpt lat="43.382982753633144" lon="13.632573328368492"><ele>16.0</ele><time>2026-04-12T07:28:14.001Z</time></trkpt><trkpt lat="43.383026192240244" lon="13.632465511275273"><ele>15.75</ele><time>2026-04-12T07:28:15.001Z</time></trkpt><trkpt lat="43.38305942805576" lon="13.632319955289743"><ele>15.5</ele><time>2026-04-12T07:28:16.001Z</time></trkpt><trkpt lat="43.38307914544745" lon="13.632140200204223"><ele>15.25</ele><time>2026-04-12T07:28:17.001Z</time></trkpt><trkpt lat="43.38309166966244" lon="13.631948987140147"><ele>15.0</ele><time>2026-04-12T07:28:18.001Z</time></trkpt><trkpt lat="43.38310934034978" lon="13.631736055606277"><ele>15.0</ele><time>2026-04-12T07:28:19.001Z</time></trkpt><trkpt lat="43.38313026321372" lon="13.631488690789691"><ele>15.0</ele><time>2026-04-12T07:28:20.001Z</time></trkpt><trkpt lat="43.38314948397173" lon="13.6312389930124"><ele>15.0</ele><time>2026-04-12T07:28:21.001Z</time></trkpt><trkpt lat="43.383166744094225" lon="13.630985328820389"><ele>15.0</ele><time>2026-04-12T07:28:22.001Z</time></trkpt><trkpt lat="43.383189425694155" lon="13.630717280754618"><ele>15.0</ele><time>2026-04-12T07:28:23.001Z</time></trkpt><trkpt lat="43.38319833432516" lon="13.630452357829524"><ele>15.0</ele><time>2026-04-12T07:28:24.001Z</time></trkpt><trkpt lat="43.383217191441396" lon="13.630210474354925"><ele>14.666666666666668</ele><time>2026-04-12T07:28:25.001Z</time></trkpt><trkpt lat="43.38326224785406" lon="13.629974322486158"><ele>14.333333333333334</ele><time>2026-04-12T07:28:26.001Z</time></trkpt><trkpt lat="43.38329228577095" lon="13.629739793933132"><ele>14.0</ele><time>2026-04-12T07:28:27.001Z</time></trkpt><trkpt lat="43.38330462758705" lon="13.629528440103389"><ele>14.0</ele><time>2026-04-12T07:28:28.001Z</time></trkpt><trkpt lat="43.38333280755778" lon="13.629329908260802"><ele>14.0</ele><time>2026-04-12T07:28:29.001Z</time></trkpt><trkpt lat="43.383361644013426" lon="13.629136946955096"><ele>14.0</ele><time>2026-04-12T07:28:30.001Z</time></trkpt><trkpt lat="43.38338811282786" lon="13.628963552109765"><ele>14.0</ele><time>2026-04-12T07:28:31.001Z</time></trkpt><trkpt lat="43.38342205844423" lon="13.628793420195038"><ele>14.2</ele><time>2026-04-12T07:28:32.001Z</time></trkpt><trkpt lat="43.38345522169059" lon="13.62863741952143"><ele>14.399999999999999</ele><time>2026-04-12T07:28:33.001Z</time></trkpt><trkpt lat="43.38348742311192" lon="13.628496007564534"><ele>14.6</ele><time>2026-04-12T07:28:34.001Z</time></trkpt><trkpt lat="43.38353107215284" lon="13.628392594090236"><ele>14.8</ele><time>2026-04-12T07:28:35.001Z</time></trkpt><trkpt lat="43.383559562901894" lon="13.628287615131615"><ele>15.0</ele><time>2026-04-12T07:28:36.001Z</time></trkpt><trkpt lat="43.383567607768725" lon="13.628179555703316"><ele>15.0</ele><time>2026-04-12T07:28:37.001Z</time></trkpt><trkpt lat="43.38360000635647" lon="13.628028044473304"><ele>15.0</ele><time>2026-04-12T07:28:38.001Z</time></trkpt><trkpt lat="43.383642826385035" lon="13.627840509435966"><ele>15.0</ele><time>2026-04-12T07:28:39.001Z</time></trkpt><trkpt lat="43.38369719561169" lon="13.627612967235343"><ele>15.0</ele><time>2026-04-12T07:28:40.001Z</time></trkpt><trkpt lat="43.383757344025284" lon="13.627383087867873"><ele>14.666666666666668</ele><time>2026-04-12T07:28:41.001Z</time></trkpt><trkpt lat="43.38381301845207" lon="13.627142303721135"><ele>14.333333333333334</ele><time>2026-04-12T07:28:42.001Z</time></trkpt><trkpt lat="43.38386433719484" lon="13.626903527603751"><ele>14.0</ele><time>2026-04-12T07:28:43.001Z</time></trkpt><trkpt lat="43.38391273848658" lon="13.626676862463576"><ele>14.0</ele><time>2026-04-12T07:28:44.001Z</time></trkpt><trkpt lat="43.3839441349814" lon="13.626477728827632"><ele>14.0</ele><time>2026-04-12T07:28:45.001Z</time></trkpt><trkpt lat="43.38398189365245" lon="13.626282300726615"><ele>14.0</ele><time>2026-04-12T07:28:46.001Z</time></trkpt><trkpt lat="43.38400999463636" lon="13.626111460420203"><ele>14.0</ele><time>2026-04-12T07:28:47.001Z</time></trkpt><trkpt lat="43.38403601442319" lon="13.625951725829546"><ele>14.0</ele><time>2026-04-12T07:28:48.001Z</time></trkpt><trkpt lat="43.38404304505598" lon="13.625818138823321"><ele>13.999999999999998</ele><time>2026-04-12T07:28:49.001Z</time></trkpt><trkpt lat="43.384036477527495" lon="13.62569227378295"><ele>13.999999999999998</ele><time>2026-04-12T07:28:50.001Z</time></trkpt><trkpt lat="43.38400652188702" lon="13.625539601688843"><ele>14.0</ele><time>2026-04-12T07:28:51Z</time></trkpt><trkpt lat="43.38396219954213" lon="13.625365006719788"><ele>14.0</ele><time>2026-04-12T07:28:52Z</time></trkpt><trkpt lat="43.38391647696568" lon="13.62518210464869"><ele>14.0</ele><time>2026-04-12T07:28:53Z</time></trkpt><trkpt lat="43.38388273926724" lon="13.625022323890333"><ele>14.0</ele><time>2026-04-12T07:28:54Z</time></trkpt><trkpt lat="43.38384812938962" lon="13.624870426209133"><ele>14.0</ele><time>2026-04-12T07:28:55Z</time></trkpt><trkpt lat="43.38379712955208" lon="13.62471208884545"><ele>14.0</ele><time>2026-04-12T07:28:56Z</time></trkpt><trkpt lat="43.38373133574865" lon="13.62455207966113"><ele>14.75</ele><time>2026-04-12T07:28:57Z</time></trkpt><trkpt lat="43.38366159388497" lon="13.624389597251229"><ele>15.5</ele><time>2026-04-12T07:28:58Z</time></trkpt><trkpt lat="43.383603914310356" lon="13.62422546011785"><ele>16.25</ele><time>2026-04-12T07:28:59Z</time></trkpt><trkpt lat="43.38355036755331" lon="13.624063524263919"><ele>17.0</ele><time>2026-04-12T07:29:00Z</time></trkpt><trkpt lat="43.38350144081797" lon="13.623925897098164"><ele>17.0</ele><time>2026-04-12T07:29:01Z</time></trkpt><trkpt lat="43.38345096170917" lon="13.623804762644697"><ele>17.0</ele><time>2026-04-12T07:29:02Z</time></trkpt><trkpt lat="43.38341313065485" lon="13.62369120082671"><ele>17.0</ele><time>2026-04-12T07:29:03Z</time></trkpt><trkpt lat="43.38337586119169" lon="13.623587867336315"><ele>17.0</ele><time>2026-04-12T07:29:04Z</time></trkpt><trkpt lat="43.383336585746" lon="13.62348140734756"><ele>17.0</ele><time>2026-04-12T07:29:05Z</time></trkpt><trkpt lat="43.38329637774446" lon="13.623379873903163"><ele>17.0</ele><time>2026-04-12T07:29:06Z</time></trkpt><trkpt lat="43.38325426440898" lon="13.623277238794957"><ele>17.0</ele><time>2026-04-12T07:29:07Z</time></trkpt><trkpt lat="43.38321335210845" lon="13.623167199102022"><ele>17.0</ele><time>2026-04-12T07:29:08Z</time></trkpt><trkpt lat="43.383172439290355" lon="13.623057901252189"><ele>17.0</ele><time>2026-04-12T07:29:09Z</time></trkpt><trkpt lat="43.383134153636306" lon="13.622954512972619"><ele>17.0</ele><time>2026-04-12T07:29:10Z</time></trkpt><trkpt lat="43.38309709492531" lon="13.622861731822425"><ele>17.0</ele><time>2026-04-12T07:29:11Z</time></trkpt><trkpt lat="43.38306605134905" lon="13.62277195603612"><ele>17.0</ele><time>2026-04-12T07:29:12Z</time></trkpt><trkpt lat="43.383007444598775" lon="13.62261035660444"><ele>17.166666666666668</ele><time>2026-04-12T07:29:14Z</time></trkpt><trkpt lat="43.38295634385491" lon="13.622460778970451"><ele>17.333333333333336</ele><time>2026-04-12T07:29:16Z</time></trkpt><trkpt lat="43.38291806287869" lon="13.622349267115002"><ele>17.5</ele><time>2026-04-12T07:29:18Z</time></trkpt><trkpt lat="43.382898196903945" lon="13.622263422308524"><ele>17.666666666666668</ele><time>2026-04-12T07:29:20Z</time></trkpt><trkpt lat="43.38282984821094" lon="13.622179176678516"><ele>17.833333333333332</ele><time>2026-04-12T07:29:34Z</time></trkpt><trkpt lat="43.382812636718356" lon="13.622085155724998"><ele>18.0</ele><time>2026-04-12T07:29:35Z</time></trkpt><trkpt lat="43.38276349656801" lon="13.622007299138453"><ele>18.25</ele><time>2026-04-12T07:29:36Z</time></trkpt><trkpt lat="43.38269478471081" lon="13.62191657985262"><ele>18.5</ele><time>2026-04-12T07:29:37Z</time></trkpt><trkpt lat="43.38261328210065" lon="13.621877879993662"><ele>18.75</ele><time>2026-04-12T07:29:38Z</time></trkpt><trkpt lat="43.38242019475667" lon="13.621683950639783"><ele>19.0</ele><time>2026-04-12T07:29:39Z</time></trkpt><trkpt lat="43.38238369213104" lon="13.621461069285905"><ele>19.0</ele><time>2026-04-12T07:29:41Z</time></trkpt><trkpt lat="43.38235396755199" lon="13.62131201439804"><ele>19.0</ele><time>2026-04-12T07:29:42Z</time></trkpt><trkpt lat="43.38232520658774" lon="13.621167791923638"><ele>19.0</ele><time>2026-04-12T07:29:43Z</time></trkpt><trkpt lat="43.382293338069985" lon="13.62100798656422"><ele>19.0</ele><time>2026-04-12T07:29:44Z</time></trkpt><trkpt lat="43.382266370349335" lon="13.620838197539731"><ele>19.0</ele><time>2026-04-12T07:29:45Z</time></trkpt><trkpt lat="43.38218188545972" lon="13.620673240723653"><ele>19.0</ele><time>2026-04-12T07:29:46Z</time></trkpt><trkpt lat="43.3821150679805" lon="13.620509420337369"><ele>19.0</ele><time>2026-04-12T07:29:47Z</time></trkpt><trkpt lat="43.38204482537385" lon="13.620358492609"><ele>19.0</ele><time>2026-04-12T07:29:48Z</time></trkpt><trkpt lat="43.38196917278398" lon="13.620192159834792"><ele>19.0</ele><time>2026-04-12T07:29:49Z</time></trkpt><trkpt lat="43.38188953003771" lon="13.6200092153319"><ele>19.0</ele><time>2026-04-12T07:29:50Z</time></trkpt><trkpt lat="43.3818138596028" lon="13.619829972949233"><ele>19.0</ele><time>2026-04-12T07:29:51Z</time></trkpt><trkpt lat="43.381736637727975" lon="13.61963295892926"><ele>19.0</ele><time>2026-04-12T07:29:52Z</time></trkpt><trkpt lat="43.3816478154112" lon="13.61944054900419"><ele>19.0</ele><time>2026-04-12T07:29:53Z</time></trkpt><trkpt lat="43.381565029680615" lon="13.619236758797078"><ele>19.0</ele><time>2026-04-12T07:29:54Z</time></trkpt><trkpt lat="43.38148781364352" lon="13.61905223824349"><ele>19.0</ele><time>2026-04-12T07:29:55Z</time></trkpt><trkpt lat="43.38140812663173" lon="13.618873418531214"><ele>19.0</ele><time>2026-04-12T07:29:56Z</time></trkpt><trkpt lat="43.38133733919998" lon="13.618703635895065"><ele>19.0</ele><time>2026-04-12T07:29:57Z</time></trkpt><trkpt lat="43.38127128004846" lon="13.618551547671219"><ele>19.0</ele><time>2026-04-12T07:29:58Z</time></trkpt><trkpt lat="43.38121604427492" lon="13.618416634729252"><ele>19.0</ele><time>2026-04-12T07:29:59Z</time></trkpt><trkpt lat="43.38116610642445" lon="13.618299440377415"><ele>19.0</ele><time>2026-04-12T07:30:00Z</time></trkpt><trkpt lat="43.38111752600344" lon="13.618188169604545"><ele>19.0</ele><time>2026-04-12T07:30:01Z</time></trkpt><trkpt lat="43.38108535516529" lon="13.61809948257127"><ele>19.0</ele><time>2026-04-12T07:30:02Z</time></trkpt><trkpt lat="43.38109463006276" lon="13.617992341112481"><ele>19.0</ele><time>2026-04-12T07:30:04Z</time></trkpt><trkpt lat="43.38113736177922" lon="13.617901993526774"><ele>19.0</ele><time>2026-04-12T07:30:06.001Z</time></trkpt><trkpt lat="43.38121372252651" lon="13.617804230596608"><ele>19.2</ele><time>2026-04-12T07:30:16.001Z</time></trkpt><trkpt lat="43.38129122797258" lon="13.617771202509442"><ele>19.4</ele><time>2026-04-12T07:30:17.001Z</time></trkpt><trkpt lat="43.38137565680434" lon="13.61774065194245"><ele>19.6</ele><time>2026-04-12T07:30:18.001Z</time></trkpt><trkpt lat="43.38146689258155" lon="13.617708481461616"><ele>19.8</ele><time>2026-04-12T07:30:19.001Z</time></trkpt><trkpt lat="43.38157823345117" lon="13.617666105917817"><ele>20.0</ele><time>2026-04-12T07:30:20.001Z</time></trkpt><trkpt lat="43.38170304545209" lon="13.617623201736976"><ele>19.5</ele><time>2026-04-12T07:30:21.001Z</time></trkpt><trkpt lat="43.38182655260882" lon="13.617576818417056"><ele>19.0</ele><time>2026-04-12T07:30:22.001Z</time></trkpt><trkpt lat="43.38195877192786" lon="13.617525857019581"><ele>18.5</ele><time>2026-04-12T07:30:23.001Z</time></trkpt><trkpt lat="43.38210085286704" lon="13.617473507619081"><ele>18.0</ele><time>2026-04-12T07:30:24.001Z</time></trkpt><trkpt lat="43.38223820304512" lon="13.617426412415437"><ele>18.0</ele><time>2026-04-12T07:30:25.001Z</time></trkpt><trkpt lat="43.38238156113271" lon="13.617373349028709"><ele>18.0</ele><time>2026-04-12T07:30:26.001Z</time></trkpt><trkpt lat="43.38252417155395" lon="13.617322513293137"><ele>18.0</ele><time>2026-04-12T07:30:27.001Z</time></trkpt><trkpt lat="43.38265527227858" lon="13.61727612025342"><ele>18.0</ele><time>2026-04-12T07:30:28.001Z</time></trkpt><trkpt lat="43.38278839174971" lon="13.617230327377616"><ele>18.0</ele><time>2026-04-12T07:30:29.001Z</time></trkpt><trkpt lat="43.38291456983586" lon="13.617184819035801"><ele>18.0</ele><time>2026-04-12T07:30:30.001Z</time></trkpt><trkpt lat="43.38303811921364" lon="13.617141564499653"><ele>18.0</ele><time>2026-04-12T07:30:31.001Z</time></trkpt><trkpt lat="43.38315711837836" lon="13.617100277556865"><ele>18.0</ele><time>2026-04-12T07:30:32.001Z</time></trkpt><trkpt lat="43.383260285939905" lon="13.617064366827533"><ele>18.0</ele><time>2026-04-12T07:30:33.001Z</time></trkpt><trkpt lat="43.38335468589714" lon="13.617032941915033"><ele>18.0</ele><time>2026-04-12T07:30:34.001Z</time></trkpt><trkpt lat="43.38344410791916" lon="13.617007458131694"><ele>18.0</ele><time>2026-04-12T07:30:35.001Z</time></trkpt><trkpt lat="43.383512742367884" lon="13.61698690058709"><ele>18.0</ele><time>2026-04-12T07:30:36.001Z</time></trkpt><trkpt lat="43.383587699882966" lon="13.61695982538911"><ele>18.0</ele><time>2026-04-12T07:30:38.001Z</time></trkpt><trkpt lat="43.38354294560717" lon="13.616679280489343"><ele>18.0</ele><time>2026-04-12T07:30:47.001Z</time></trkpt><trkpt lat="43.38348938833744" lon="13.61655685096289"><ele>18.0</ele><time>2026-04-12T07:30:48.001Z</time></trkpt><trkpt lat="43.38343032178466" lon="13.616413215189548"><ele>18.0</ele><time>2026-04-12T07:30:49.001Z</time></trkpt><trkpt lat="43.38336506117937" lon="13.61625246877675"><ele>18.0</ele><time>2026-04-12T07:30:50.001Z</time></trkpt><trkpt lat="43.383294730719925" lon="13.616087105223134"><ele>18.333333333333332</ele><time>2026-04-12T07:30:51.001Z</time></trkpt><trkpt lat="43.383219790657925" lon="13.615909670598157"><ele>18.666666666666664</ele><time>2026-04-12T07:30:52.001Z</time></trkpt><trkpt lat="43.383140062166056" lon="13.61572467526915"><ele>19.0</ele><time>2026-04-12T07:30:53.001Z</time></trkpt><trkpt lat="43.38305904042621" lon="13.615523063579175"><ele>19.0</ele><time>2026-04-12T07:30:54.001Z</time></trkpt><trkpt lat="43.38297721901433" lon="13.615336313486608"><ele>19.0</ele><time>2026-04-12T07:30:55.001Z</time></trkpt><trkpt lat="43.38289514145582" lon="13.615136932435563"><ele>19.0</ele><time>2026-04-12T07:30:56.001Z</time></trkpt><trkpt lat="43.382809492853724" lon="13.614937946905854"><ele>19.0</ele><time>2026-04-12T07:30:57Z</time></trkpt><trkpt lat="43.38272516987717" lon="13.614730605224466"><ele>19.0</ele><time>2026-04-12T07:30:58Z</time></trkpt><trkpt lat="43.382639322718035" lon="13.614522646826007"><ele>19.0</ele><time>2026-04-12T07:30:59Z</time></trkpt><trkpt lat="43.38255341411384" lon="13.614313530768712"><ele>19.666666666666664</ele><time>2026-04-12T07:31:00Z</time></trkpt><trkpt lat="43.38246883710029" lon="13.614106613041399"><ele>20.333333333333332</ele><time>2026-04-12T07:31:01Z</time></trkpt><trkpt lat="43.382383659841075" lon="13.613899747433345"><ele>21.0</ele><time>2026-04-12T07:31:02Z</time></trkpt><trkpt lat="43.3822981497373" lon="13.613690457602354"><ele>21.0</ele><time>2026-04-12T07:31:03Z</time></trkpt><trkpt lat="43.38220643778342" lon="13.613467250269801"><ele>21.0</ele><time>2026-04-12T07:31:04Z</time></trkpt><trkpt lat="43.382111631016954" lon="13.613241237086992"><ele>21.0</ele><time>2026-04-12T07:31:05Z</time></trkpt><trkpt lat="43.38201928460564" lon="13.613012695000226"><ele>21.0</ele><time>2026-04-12T07:31:06Z</time></trkpt><trkpt lat="43.381926204877345" lon="13.6127792283421"><ele>21.0</ele><time>2026-04-12T07:31:07Z</time></trkpt><trkpt lat="43.381831433413886" lon="13.612552559270526"><ele>21.0</ele><time>2026-04-12T07:31:08Z</time></trkpt><trkpt lat="43.38174355961891" lon="13.612345029578035"><ele>21.0</ele><time>2026-04-12T07:31:09Z</time></trkpt><trkpt lat="43.38165512826397" lon="13.612132879818613"><ele>21.0</ele><time>2026-04-12T07:31:10Z</time></trkpt><trkpt lat="43.38157048014551" lon="13.61192660071151"><ele>21.0</ele><time>2026-04-12T07:31:11Z</time></trkpt><trkpt lat="43.38149122619109" lon="13.61173479883942"><ele>21.0</ele><time>2026-04-12T07:31:12Z</time></trkpt><trkpt lat="43.38141331283668" lon="13.611548857532064"><ele>21.0</ele><time>2026-04-12T07:31:13Z</time></trkpt><trkpt lat="43.3813346614058" lon="13.611367917414235"><ele>21.0</ele><time>2026-04-12T07:31:14Z</time></trkpt><trkpt lat="43.38126143687329" lon="13.61119011718702"><ele>21.0</ele><time>2026-04-12T07:31:15Z</time></trkpt><trkpt lat="43.381197651925795" lon="13.611022259069438"><ele>21.0</ele><time>2026-04-12T07:31:16Z</time></trkpt><trkpt lat="43.381127443793304" lon="13.610853699451035"><ele>21.0</ele><time>2026-04-12T07:31:17Z</time></trkpt><trkpt lat="43.38105620338003" lon="13.610681639646558"><ele>21.0</ele><time>2026-04-12T07:31:18Z</time></trkpt><trkpt lat="43.38098858331429" lon="13.610514727052625"><ele>21.0</ele><time>2026-04-12T07:31:19Z</time></trkpt><trkpt lat="43.38091900350113" lon="13.610343987812845"><ele>21.0</ele><time>2026-04-12T07:31:20Z</time></trkpt><trkpt lat="43.38084177102336" lon="13.610170055132102"><ele>21.0</ele><time>2026-04-12T07:31:21Z</time></trkpt><trkpt lat="43.380767097223455" lon="13.609981394779767"><ele>21.0</ele><time>2026-04-12T07:31:22Z</time></trkpt><trkpt lat="43.380682071223816" lon="13.609781754729845"><ele>21.333333333333332</ele><time>2026-04-12T07:31:23Z</time></trkpt><trkpt lat="43.380595416926326" lon="13.609563646046501"><ele>21.666666666666664</ele><time>2026-04-12T07:31:24Z</time></trkpt><trkpt lat="43.38050690432894" lon="13.609333399472712"><ele>22.0</ele><time>2026-04-12T07:31:25Z</time></trkpt><trkpt lat="43.38040871008738" lon="13.609108062159077"><ele>22.0</ele><time>2026-04-12T07:31:26Z</time></trkpt><trkpt lat="43.38031337617585" lon="13.608879346524608"><ele>22.0</ele><time>2026-04-12T07:31:27Z</time></trkpt><trkpt lat="43.3802060181077" lon="13.608621386215932"><ele>22.0</ele><time>2026-04-12T07:31:28Z</time></trkpt><trkpt lat="43.38026869746517" lon="13.60876845441189"><ele>22.200000000000003</ele><time>2026-04-12T07:31:29Z</time></trkpt><trkpt lat="43.38021931031818" lon="13.608646448267743"><ele>22.4</ele><time>2026-04-12T07:31:30Z</time></trkpt><trkpt lat="43.38018116073156" lon="13.608536094901307"><ele>22.6</ele><time>2026-04-12T07:31:31Z</time></trkpt><trkpt lat="43.38013248826298" lon="13.608421228001225"><ele>22.799999999999997</ele><time>2026-04-12T07:31:32Z</time></trkpt><trkpt lat="43.38007381080589" lon="13.608282065235738"><ele>23.0</ele><time>2026-04-12T07:31:33Z</time></trkpt><trkpt lat="43.38000645793927" lon="13.608133027907806"><ele>23.0</ele><time>2026-04-12T07:31:34Z</time></trkpt><trkpt lat="43.379934608514866" lon="13.607971680693007"><ele>23.0</ele><time>2026-04-12T07:31:35Z</time></trkpt><trkpt lat="43.379859374297816" lon="13.607795382438972"><ele>23.0</ele><time>2026-04-12T07:31:36Z</time></trkpt><trkpt lat="43.37978415359767" lon="13.60760997097485"><ele>23.0</ele><time>2026-04-12T07:31:37Z</time></trkpt><trkpt lat="43.37970235747652" lon="13.607413929730576"><ele>22.666666666666668</ele><time>2026-04-12T07:31:38Z</time></trkpt><trkpt lat="43.37961548069097" lon="13.607198656608427"><ele>22.333333333333332</ele><time>2026-04-12T07:31:39Z</time></trkpt><trkpt lat="43.37953328399663" lon="13.607000925225826"><ele>22.0</ele><time>2026-04-12T07:31:40Z</time></trkpt><trkpt lat="43.37944872970143" lon="13.606803673725315"><ele>22.0</ele><time>2026-04-12T07:31:41Z</time></trkpt><trkpt lat="43.379364475767886" lon="13.60660227568262"><ele>22.0</ele><time>2026-04-12T07:31:42Z</time></trkpt><trkpt lat="43.37927558494853" lon="13.606391233621734"><ele>22.0</ele><time>2026-04-12T07:31:43Z</time></trkpt><trkpt lat="43.37918619500824" lon="13.606186663718816"><ele>23.0</ele><time>2026-04-12T07:31:44Z</time></trkpt><trkpt lat="43.37909910187303" lon="13.605971506473319"><ele>24.0</ele><time>2026-04-12T07:31:45Z</time></trkpt><trkpt lat="43.37900805377113" lon="13.605755378062707"><ele>25.0</ele><time>2026-04-12T07:31:46Z</time></trkpt><trkpt lat="43.378922857270524" lon="13.60553591919798"><ele>24.333333333333336</ele><time>2026-04-12T07:31:47Z</time></trkpt><trkpt lat="43.37883642143949" lon="13.605313812451419"><ele>23.666666666666668</ele><time>2026-04-12T07:31:48Z</time></trkpt><trkpt lat="43.37874398274383" lon="13.605097127063523"><ele>23.0</ele><time>2026-04-12T07:31:49Z</time></trkpt><trkpt lat="43.37865475228896" lon="13.6048772247479"><ele>23.0</ele><time>2026-04-12T07:31:50Z</time></trkpt><trkpt lat="43.37855515912433" lon="13.604650986665709"><ele>23.0</ele><time>2026-04-12T07:31:51Z</time></trkpt><trkpt lat="43.37846790016789" lon="13.604423385431145"><ele>23.0</ele><time>2026-04-12T07:31:52Z</time></trkpt><trkpt lat="43.37837354897193" lon="13.604205690031556"><ele>23.0</ele><time>2026-04-12T07:31:53Z</time></trkpt><trkpt lat="43.37829195612202" lon="13.603993794720164"><ele>23.0</ele><time>2026-04-12T07:31:54Z</time></trkpt><trkpt lat="43.37820266195107" lon="13.603775980179877"><ele>23.0</ele><time>2026-04-12T07:31:55Z</time></trkpt><trkpt lat="43.378113708501175" lon="13.60356357040347"><ele>22.666666666666668</ele><time>2026-04-12T07:31:56Z</time></trkpt><trkpt lat="43.37802531105959" lon="13.603345567116888"><ele>22.333333333333332</ele><time>2026-04-12T07:31:57Z</time></trkpt><trkpt lat="43.37793194345043" lon="13.603131591611099"><ele>22.0</ele><time>2026-04-12T07:31:58Z</time></trkpt><trkpt lat="43.37784181488813" lon="13.602913971300133"><ele>22.0</ele><time>2026-04-12T07:31:59Z</time></trkpt><trkpt lat="43.37774854762424" lon="13.602695119597705"><ele>22.0</ele><time>2026-04-12T07:32:00.001Z</time></trkpt><trkpt lat="43.37765637763677" lon="13.602472205866507"><ele>22.0</ele><time>2026-04-12T07:32:01.001Z</time></trkpt><trkpt lat="43.37756278397378" lon="13.602246976968582"><ele>22.0</ele><time>2026-04-12T07:32:02.001Z</time></trkpt><trkpt lat="43.37747123511741" lon="13.602021188663853"><ele>22.0</ele><time>2026-04-12T07:32:03.001Z</time></trkpt><trkpt lat="43.377377596080585" lon="13.60179793612917"><ele>22.0</ele><time>2026-04-12T07:32:04.001Z</time></trkpt><trkpt lat="43.377283038550665" lon="13.601570414159875"><ele>22.0</ele><time>2026-04-12T07:32:05.001Z</time></trkpt><trkpt lat="43.37719074955646" lon="13.601343486259344"><ele>22.0</ele><time>2026-04-12T07:32:06.001Z</time></trkpt><trkpt lat="43.377096457406935" lon="13.601114637829054"><ele>22.0</ele><time>2026-04-12T07:32:07.001Z</time></trkpt><trkpt lat="43.37700209874278" lon="13.600886007828075"><ele>22.0</ele><time>2026-04-12T07:32:08.001Z</time></trkpt><trkpt lat="43.37691015827082" lon="13.600678519503049"><ele>22.0</ele><time>2026-04-12T07:32:09.001Z</time></trkpt><trkpt lat="43.37683346740445" lon="13.600472869725408"><ele>22.0</ele><time>2026-04-12T07:32:10.001Z</time></trkpt><trkpt lat="43.376751450748685" lon="13.600270076163541"><ele>23.666666666666664</ele><time>2026-04-12T07:32:11.001Z</time></trkpt><trkpt lat="43.3766735115783" lon="13.600082169565944"><ele>25.333333333333332</ele><time>2026-04-12T07:32:12.001Z</time></trkpt><trkpt lat="43.37659234147066" lon="13.599891364421717"><ele>27.0</ele><time>2026-04-12T07:32:13.001Z</time></trkpt><trkpt lat="43.37651475862003" lon="13.59970811509396"><ele>27.0</ele><time>2026-04-12T07:32:14.001Z</time></trkpt><trkpt lat="43.37643473801849" lon="13.599516787082477"><ele>27.0</ele><time>2026-04-12T07:32:15.001Z</time></trkpt><trkpt lat="43.37635697730773" lon="13.599329437123254"><ele>27.0</ele><time>2026-04-12T07:32:16.001Z</time></trkpt><trkpt lat="43.37627890681483" lon="13.599140812263661"><ele>27.0</ele><time>2026-04-12T07:32:17.001Z</time></trkpt><trkpt lat="43.37620677086961" lon="13.59893560640594"><ele>27.0</ele><time>2026-04-12T07:32:18.001Z</time></trkpt><trkpt lat="43.376119130808526" lon="13.598759377260818"><ele>27.0</ele><time>2026-04-12T07:32:19.001Z</time></trkpt><trkpt lat="43.37604138250626" lon="13.59856414203454"><ele>27.0</ele><time>2026-04-12T07:32:20.001Z</time></trkpt><trkpt lat="43.375960678930184" lon="13.598366027014356"><ele>27.0</ele><time>2026-04-12T07:32:21.001Z</time></trkpt><trkpt lat="43.37588049789616" lon="13.598168854686534"><ele>27.0</ele><time>2026-04-12T07:32:22.001Z</time></trkpt><trkpt lat="43.37580332055759" lon="13.597978761229266"><ele>27.0</ele><time>2026-04-12T07:32:23.001Z</time></trkpt><trkpt lat="43.37572530018969" lon="13.597780791633328"><ele>27.0</ele><time>2026-04-12T07:32:24.001Z</time></trkpt><trkpt lat="43.37564493080273" lon="13.597585957377804"><ele>27.0</ele><time>2026-04-12T07:32:25.001Z</time></trkpt><trkpt lat="43.37556197477207" lon="13.597386584154878"><ele>27.0</ele><time>2026-04-12T07:32:26.001Z</time></trkpt><trkpt lat="43.37548296633876" lon="13.597193615023766"><ele>27.0</ele><time>2026-04-12T07:32:27.001Z</time></trkpt><trkpt lat="43.375402074670085" lon="13.596993979561152"><ele>27.0</ele><time>2026-04-12T07:32:28.001Z</time></trkpt><trkpt lat="43.3753182362915" lon="13.596795683743007"><ele>27.0</ele><time>2026-04-12T07:32:29.001Z</time></trkpt><trkpt lat="43.375234986405125" lon="13.59659926752806"><ele>27.0</ele><time>2026-04-12T07:32:30.001Z</time></trkpt><trkpt lat="43.3751533812771" lon="13.596404210533303"><ele>27.0</ele><time>2026-04-12T07:32:31.001Z</time></trkpt><trkpt lat="43.375069677372224" lon="13.596208317894268"><ele>27.25</ele><time>2026-04-12T07:32:32.001Z</time></trkpt><trkpt lat="43.3749924917287" lon="13.596023787680176"><ele>27.5</ele><time>2026-04-12T07:32:33.001Z</time></trkpt><trkpt lat="43.374919364685624" lon="13.595851954478764"><ele>27.75</ele><time>2026-04-12T07:32:34.001Z</time></trkpt><trkpt lat="43.37485589624537" lon="13.595694439261946"><ele>28.0</ele><time>2026-04-12T07:32:35.001Z</time></trkpt><trkpt lat="43.374794223332074" lon="13.59555476693366"><ele>28.0</ele><time>2026-04-12T07:32:36.001Z</time></trkpt><trkpt lat="43.37474335311246" lon="13.595435741660472"><ele>27.999999999999996</ele><time>2026-04-12T07:32:37.001Z</time></trkpt><trkpt lat="43.374710814139725" lon="13.595354720074228"><ele>27.999999999999996</ele><time>2026-04-12T07:32:38.001Z</time></trkpt><trkpt lat="43.37457179583252" lon="13.595448505320036"><ele>28.0</ele><time>2026-04-12T07:32:42.001Z</time></trkpt><trkpt lat="43.37451338676504" lon="13.595541674329477"><ele>28.0</ele><time>2026-04-12T07:32:43.001Z</time></trkpt><trkpt lat="43.37444090095301" lon="13.59564195287587"><ele>28.0</ele><time>2026-04-12T07:32:44.001Z</time></trkpt><trkpt lat="43.3743444566189" lon="13.595731231797094"><ele>28.0</ele><time>2026-04-12T07:32:45.001Z</time></trkpt><trkpt lat="43.374227466490964" lon="13.595771609311361"><ele>28.0</ele><time>2026-04-12T07:32:46.001Z</time></trkpt><trkpt lat="43.374106356666225" lon="13.595845761522913"><ele>28.0</ele><time>2026-04-12T07:32:47.001Z</time></trkpt><trkpt lat="43.37396783003364" lon="13.595869125839009"><ele>27.75</ele><time>2026-04-12T07:32:48.001Z</time></trkpt><trkpt lat="43.373830503472945" lon="13.59591281230664"><ele>27.5</ele><time>2026-04-12T07:32:49.001Z</time></trkpt><trkpt lat="43.373687759859656" lon="13.595982551967971"><ele>27.25</ele><time>2026-04-12T07:32:50.001Z</time></trkpt><trkpt lat="43.373538935981415" lon="13.5960172653618"><ele>27.0</ele><time>2026-04-12T07:32:51.001Z</time></trkpt><trkpt lat="43.37337798951283" lon="13.596067343688011"><ele>27.0</ele><time>2026-04-12T07:32:52.001Z</time></trkpt><trkpt lat="43.37321253945848" lon="13.59612099734618"><ele>27.0</ele><time>2026-04-12T07:32:53.001Z</time></trkpt><trkpt lat="43.37304079376015" lon="13.596178398730197"><ele>27.0</ele><time>2026-04-12T07:32:54.001Z</time></trkpt><trkpt lat="43.37285750315447" lon="13.596239279147053"><ele>27.0</ele><time>2026-04-12T07:32:55.001Z</time></trkpt><trkpt lat="43.37266894475671" lon="13.596300442937062"><ele>27.0</ele><time>2026-04-12T07:32:56.001Z</time></trkpt><trkpt lat="43.37248948742831" lon="13.596359110221616"><ele>27.0</ele><time>2026-04-12T07:32:57.001Z</time></trkpt><trkpt lat="43.37230481492468" lon="13.596421877245206"><ele>27.0</ele><time>2026-04-12T07:32:58.001Z</time></trkpt><trkpt lat="43.372118342202135" lon="13.596489179138441"><ele>27.0</ele><time>2026-04-12T07:32:59.001Z</time></trkpt><trkpt lat="43.37192780963511" lon="13.596558698422566"><ele>27.0</ele><time>2026-04-12T07:33:00.001Z</time></trkpt><trkpt lat="43.37173960802167" lon="13.596624946717817"><ele>27.0</ele><time>2026-04-12T07:33:01.001Z</time></trkpt><trkpt lat="43.3715401953455" lon="13.596669496262932"><ele>27.0</ele><time>2026-04-12T07:33:02.001Z</time></trkpt><trkpt lat="43.37135816689294" lon="13.596731214595025"><ele>27.0</ele><time>2026-04-12T07:33:03Z</time></trkpt><trkpt lat="43.37117405556191" lon="13.596793639152027"><ele>26.666666666666664</ele><time>2026-04-12T07:33:04Z</time></trkpt><trkpt lat="43.37098869537783" lon="13.596878727635378"><ele>26.333333333333332</ele><time>2026-04-12T07:33:05Z</time></trkpt><trkpt lat="43.37080220372911" lon="13.59694253450341"><ele>26.0</ele><time>2026-04-12T07:33:06Z</time></trkpt><trkpt lat="43.37062026019151" lon="13.597002555519627"><ele>27.333333333333332</ele><time>2026-04-12T07:33:07Z</time></trkpt><trkpt lat="43.37043603148445" lon="13.597063405337916"><ele>28.666666666666664</ele><time>2026-04-12T07:33:08Z</time></trkpt><trkpt lat="43.37026052996106" lon="13.597121039469304"><ele>30.0</ele><time>2026-04-12T07:33:09Z</time></trkpt><trkpt lat="43.3700828952586" lon="13.597179641349546"><ele>30.0</ele><time>2026-04-12T07:33:10Z</time></trkpt><trkpt lat="43.36990529314013" lon="13.597236768415248"><ele>30.0</ele><time>2026-04-12T07:33:11Z</time></trkpt><trkpt lat="43.369727681495235" lon="13.59729549602912"><ele>30.0</ele><time>2026-04-12T07:33:12Z</time></trkpt><trkpt lat="43.369553184531334" lon="13.597351588417663"><ele>31.0</ele><time>2026-04-12T07:33:13Z</time></trkpt><trkpt lat="43.369381279000685" lon="13.597408286593282"><ele>32.0</ele><time>2026-04-12T07:33:14Z</time></trkpt><trkpt lat="43.36920859460637" lon="13.597464680721327"><ele>33.0</ele><time>2026-04-12T07:33:15Z</time></trkpt><trkpt lat="43.36903710581724" lon="13.597523278654702"><ele>33.0</ele><time>2026-04-12T07:33:16Z</time></trkpt><trkpt lat="43.368866276950705" lon="13.597556989131931"><ele>33.0</ele><time>2026-04-12T07:33:17Z</time></trkpt><trkpt lat="43.36870154178641" lon="13.597607626722718"><ele>33.0</ele><time>2026-04-12T07:33:18Z</time></trkpt><trkpt lat="43.36853447319045" lon="13.597657739078164"><ele>34.333333333333336</ele><time>2026-04-12T07:33:19Z</time></trkpt><trkpt lat="43.36836093039947" lon="13.597713383369067"><ele>35.66666666666667</ele><time>2026-04-12T07:33:20Z</time></trkpt><trkpt lat="43.368192605714775" lon="13.597771551845119"><ele>37.0</ele><time>2026-04-12T07:33:21Z</time></trkpt><trkpt lat="43.368032135826574" lon="13.59785090687731"><ele>38.0</ele><time>2026-04-12T07:33:22Z</time></trkpt><trkpt lat="43.36786430401519" lon="13.597907407578171"><ele>39.0</ele><time>2026-04-12T07:33:23Z</time></trkpt><trkpt lat="43.36770140112112" lon="13.597962781410002"><ele>40.0</ele><time>2026-04-12T07:33:24Z</time></trkpt><trkpt lat="43.36754124206265" lon="13.598015091757222"><ele>40.0</ele><time>2026-04-12T07:33:25Z</time></trkpt><trkpt lat="43.36738766577936" lon="13.598060455612242"><ele>40.0</ele><time>2026-04-12T07:33:26Z</time></trkpt><trkpt lat="43.367242829564844" lon="13.598108889348005"><ele>40.0</ele><time>2026-04-12T07:33:27Z</time></trkpt><trkpt lat="43.36708908727903" lon="13.598160077379385"><ele>40.66666666666667</ele><time>2026-04-12T07:33:28Z</time></trkpt><trkpt lat="43.36691504087295" lon="13.59821725104849"><ele>41.333333333333336</ele><time>2026-04-12T07:33:29Z</time></trkpt><trkpt lat="43.36672739789397" lon="13.598277252957903"><ele>42.0</ele><time>2026-04-12T07:33:30Z</time></trkpt><trkpt lat="43.3665370917826" lon="13.598332429951334"><ele>44.0</ele><time>2026-04-12T07:33:31Z</time></trkpt><trkpt lat="43.36633406420763" lon="13.598370934861038"><ele>46.0</ele><time>2026-04-12T07:33:32Z</time></trkpt><trkpt lat="43.36614666268764" lon="13.59842864724363"><ele>48.0</ele><time>2026-04-12T07:33:33Z</time></trkpt><trkpt lat="43.365991102057066" lon="13.598476553751546"><ele>48.0</ele><time>2026-04-12T07:33:34Z</time></trkpt><trkpt lat="43.365838518162434" lon="13.598524790445067"><ele>48.0</ele><time>2026-04-12T07:33:35Z</time></trkpt><trkpt lat="43.36566746740442" lon="13.598579580619887"><ele>48.0</ele><time>2026-04-12T07:33:36Z</time></trkpt><trkpt lat="43.36549851103361" lon="13.598636608286329"><ele>50.66666666666667</ele><time>2026-04-12T07:33:37Z</time></trkpt><trkpt lat="43.365351781704106" lon="13.598687356222792"><ele>53.333333333333336</ele><time>2026-04-12T07:33:38Z</time></trkpt><trkpt lat="43.36518503058207" lon="13.59874568871184"><ele>56.0</ele><time>2026-04-12T07:33:39Z</time></trkpt><trkpt lat="43.365008981532995" lon="13.598802330443382"><ele>56.0</ele><time>2026-04-12T07:33:40Z</time></trkpt><trkpt lat="43.3648197162241" lon="13.598866293641061"><ele>56.0</ele><time>2026-04-12T07:33:41Z</time></trkpt><trkpt lat="43.36464436951601" lon="13.598955716903237"><ele>56.0</ele><time>2026-04-12T07:33:42Z</time></trkpt><trkpt lat="43.364498600091274" lon="13.599003968485551"><ele>58.75</ele><time>2026-04-12T07:33:43Z</time></trkpt><trkpt lat="43.36435873721943" lon="13.599061118082558"><ele>61.5</ele><time>2026-04-12T07:33:44Z</time></trkpt><trkpt lat="43.364245644086814" lon="13.599118910506053"><ele>64.25</ele><time>2026-04-12T07:33:45Z</time></trkpt><trkpt lat="43.364139813276985" lon="13.599178416756919"><ele>67.0</ele><time>2026-04-12T07:33:46Z</time></trkpt><trkpt lat="43.36404294666664" lon="13.59925198757546"><ele>67.0</ele><time>2026-04-12T07:33:47Z</time></trkpt><trkpt lat="43.36396197640718" lon="13.59931116354778"><ele>67.0</ele><time>2026-04-12T07:33:48Z</time></trkpt><trkpt lat="43.363886642594096" lon="13.599362578144872"><ele>67.0</ele><time>2026-04-12T07:33:49Z</time></trkpt><trkpt lat="43.363814149203435" lon="13.599391686724253"><ele>67.0</ele><time>2026-04-12T07:33:51Z</time></trkpt><trkpt lat="43.36377609746085" lon="13.599215567960227"><ele>67.0</ele><time>2026-04-12T07:33:59Z</time></trkpt><trkpt lat="43.36375037933699" lon="13.599107565765868"><ele>68.33333333333333</ele><time>2026-04-12T07:34:00Z</time></trkpt><trkpt lat="43.36371189169659" lon="13.59900802322805"><ele>69.66666666666666</ele><time>2026-04-12T07:34:01Z</time></trkpt><trkpt lat="43.36369222048966" lon="13.598885838786378"><ele>71.0</ele><time>2026-04-12T07:34:02Z</time></trkpt><trkpt lat="43.36367554728451" lon="13.59876571349841"><ele>72.33333333333333</ele><time>2026-04-12T07:34:03Z</time></trkpt><trkpt lat="43.36368093418296" lon="13.598664605085691"><ele>73.66666666666667</ele><time>2026-04-12T07:34:04Z</time></trkpt><trkpt lat="43.36371149959958" lon="13.598570604093386"><ele>75.0</ele><time>2026-04-12T07:34:05Z</time></trkpt><trkpt lat="43.363709443339744" lon="13.598463973161401"><ele>75.0</ele><time>2026-04-12T07:34:06Z</time></trkpt><trkpt lat="43.363713886728014" lon="13.5983417534658"><ele>75.0</ele><time>2026-04-12T07:34:07Z</time></trkpt><trkpt lat="43.363706400467656" lon="13.598232114292758"><ele>75.0</ele><time>2026-04-12T07:34:08Z</time></trkpt><trkpt lat="43.36369296185268" lon="13.59813909852522"><ele>75.0</ele><time>2026-04-12T07:34:09.001Z</time></trkpt><trkpt lat="43.36365400919525" lon="13.59800624516683"><ele>75.0</ele><time>2026-04-12T07:34:11.001Z</time></trkpt><trkpt lat="43.36357639544484" lon="13.597899540953591"><ele>75.0</ele><time>2026-04-12T07:34:13.001Z</time></trkpt><trkpt lat="43.36351775961223" lon="13.597859851057715"><ele>75.0</ele><time>2026-04-12T07:34:14.001Z</time></trkpt><trkpt lat="43.363445188588095" lon="13.597833683718186"><ele>75.0</ele><time>2026-04-12T07:34:15.001Z</time></trkpt><trkpt lat="43.363385190207346" lon="13.59779953911808"><ele>75.0</ele><time>2026-04-12T07:34:16.001Z</time></trkpt><trkpt lat="43.36336841279727" lon="13.597683193287489"><ele>75.0</ele><time>2026-04-12T07:34:18.001Z</time></trkpt><trkpt lat="43.36343346716961" lon="13.597474839901338"><ele>73.5</ele><time>2026-04-12T07:34:20.001Z</time></trkpt><trkpt lat="43.363479634305094" lon="13.597313887519535"><ele>72.0</ele><time>2026-04-12T07:34:21.001Z</time></trkpt><trkpt lat="43.363532759289406" lon="13.597137097804593"><ele>70.5</ele><time>2026-04-12T07:34:22.001Z</time></trkpt><trkpt lat="43.36358162889639" lon="13.596966873111821"><ele>69.0</ele><time>2026-04-12T07:34:23.001Z</time></trkpt><trkpt lat="43.36362981156863" lon="13.596803730612372"><ele>67.5</ele><time>2026-04-12T07:34:24.001Z</time></trkpt><trkpt lat="43.363671702307556" lon="13.596644306524226"><ele>66.0</ele><time>2026-04-12T07:34:25.001Z</time></trkpt><trkpt lat="43.36371381582515" lon="13.596494335178647"><ele>64.5</ele><time>2026-04-12T07:34:26.001Z</time></trkpt><trkpt lat="43.36375594772796" lon="13.596348980724178"><ele>63.0</ele><time>2026-04-12T07:34:27.001Z</time></trkpt><trkpt lat="43.36379571904108" lon="13.596212270310868"><ele>61.599999999999994</ele><time>2026-04-12T07:34:28.001Z</time></trkpt><trkpt lat="43.363840651785324" lon="13.59607948692918"><ele>60.199999999999996</ele><time>2026-04-12T07:34:29.001Z</time></trkpt><trkpt lat="43.36388914012215" lon="13.595954603909712"><ele>58.8</ele><time>2026-04-12T07:34:30.001Z</time></trkpt><trkpt lat="43.3639461087252" lon="13.595827738699459"><ele>57.4</ele><time>2026-04-12T07:34:31.001Z</time></trkpt><trkpt lat="43.36400463469389" lon="13.595708957840408"><ele>56.0</ele><time>2026-04-12T07:34:32.001Z</time></trkpt><trkpt lat="43.364064983670985" lon="13.595588853985324"><ele>55.4</ele><time>2026-04-12T07:34:33.001Z</time></trkpt><trkpt lat="43.36412094180343" lon="13.595480206362488"><ele>54.8</ele><time>2026-04-12T07:34:34.001Z</time></trkpt><trkpt lat="43.36417534422531" lon="13.59537183214184"><ele>54.199999999999996</ele><time>2026-04-12T07:34:35.001Z</time></trkpt><trkpt lat="43.36423144047791" lon="13.595265014297"><ele>53.599999999999994</ele><time>2026-04-12T07:34:36.001Z</time></trkpt><trkpt lat="43.36428653988606" lon="13.595158235837818"><ele>53.0</ele><time>2026-04-12T07:34:37.001Z</time></trkpt><trkpt lat="43.364337731080774" lon="13.595046764236217"><ele>51.4</ele><time>2026-04-12T07:34:38.001Z</time></trkpt><trkpt lat="43.36439366995655" lon="13.594937262644182"><ele>49.8</ele><time>2026-04-12T07:34:39.001Z</time></trkpt><trkpt lat="43.364446732843525" lon="13.594821686566394"><ele>48.2</ele><time>2026-04-12T07:34:40.001Z</time></trkpt><trkpt lat="43.36450212793996" lon="13.594704633385646"><ele>46.6</ele><time>2026-04-12T07:34:41.001Z</time></trkpt><trkpt lat="43.36455840480872" lon="13.59458311843331"><ele>45.0</ele><time>2026-04-12T07:34:42.001Z</time></trkpt><trkpt lat="43.36461960842809" lon="13.594455610665293"><ele>43.4</ele><time>2026-04-12T07:34:43.001Z</time></trkpt><trkpt lat="43.364726188809584" lon="13.594222108838258"><ele>41.8</ele><time>2026-04-12T07:34:45.001Z</time></trkpt><trkpt lat="43.36476806001464" lon="13.594122927576267"><ele>40.2</ele><time>2026-04-12T07:34:46.001Z</time></trkpt><trkpt lat="43.36480512715322" lon="13.59404325436745"><ele>38.6</ele><time>2026-04-12T07:34:47.001Z</time></trkpt><trkpt lat="43.364830714239694" lon="13.593959733995579"><ele>37.0</ele><time>2026-04-12T07:34:48.001Z</time></trkpt><trkpt lat="43.36486017750772" lon="13.593815651020568"><ele>37.25</ele><time>2026-04-12T07:34:50.001Z</time></trkpt><trkpt lat="43.36485415805309" lon="13.593662406108894"><ele>37.5</ele><time>2026-04-12T07:34:52.001Z</time></trkpt><trkpt lat="43.36482050077605" lon="13.593506629868424"><ele>37.75</ele><time>2026-04-12T07:34:54.001Z</time></trkpt><trkpt lat="43.36479318599849" lon="13.59335281522777"><ele>38.0</ele><time>2026-04-12T07:34:56.001Z</time></trkpt><trkpt lat="43.36476296896625" lon="13.593190959975614"><ele>38.0</ele><time>2026-04-12T07:34:58.001Z</time></trkpt><trkpt lat="43.36473386942748" lon="13.593036484437752"><ele>38.0</ele><time>2026-04-12T07:35:00.001Z</time></trkpt><trkpt lat="43.364741651575635" lon="13.592930671730047"><ele>38.0</ele><time>2026-04-12T07:35:21Z</time></trkpt><trkpt lat="43.36476633626497" lon="13.59281005410064"><ele>38.0</ele><time>2026-04-12T07:35:23Z</time></trkpt><trkpt lat="43.36479548945146" lon="13.59272746372039"><ele>38.0</ele><time>2026-04-12T07:35:24Z</time></trkpt><trkpt lat="43.364828393576076" lon="13.592624179431622"><ele>38.0</ele><time>2026-04-12T07:35:25Z</time></trkpt><trkpt lat="43.364850973188844" lon="13.592539783836871"><ele>38.166666666666664</ele><time>2026-04-12T07:35:26Z</time></trkpt><trkpt lat="43.36485607435301" lon="13.592437709675854"><ele>38.33333333333333</ele><time>2026-04-12T07:35:27Z</time></trkpt><trkpt lat="43.36487593912622" lon="13.592350510029553"><ele>38.5</ele><time>2026-04-12T07:35:28Z</time></trkpt><trkpt lat="43.36488634302372" lon="13.592262947953204"><ele>38.666666666666664</ele><time>2026-04-12T07:35:29Z</time></trkpt><trkpt lat="43.36492732477116" lon="13.592092482810855"><ele>38.833333333333336</ele><time>2026-04-12T07:35:31Z</time></trkpt><trkpt lat="43.36499087692478" lon="13.591974565600017"><ele>39.0</ele><time>2026-04-12T07:35:33Z</time></trkpt><trkpt lat="43.36509249126335" lon="13.591911123662952"><ele>38.5</ele><time>2026-04-12T07:35:35Z</time></trkpt><trkpt lat="43.36519003343902" lon="13.591880248226458"><ele>38.0</ele><time>2026-04-12T07:35:36Z</time></trkpt><trkpt lat="43.36527878542387" lon="13.591869949262673"><ele>37.5</ele><time>2026-04-12T07:35:37Z</time></trkpt><trkpt lat="43.36535769768685" lon="13.591850627090773"><ele>37.0</ele><time>2026-04-12T07:35:38Z</time></trkpt><trkpt lat="43.36542438525738" lon="13.591824871397767"><ele>36.5</ele><time>2026-04-12T07:35:39Z</time></trkpt><trkpt lat="43.36550519739008" lon="13.591751703765894"><ele>36.0</ele><time>2026-04-12T07:35:41Z</time></trkpt><trkpt lat="43.36556164869945" lon="13.591631177583979"><ele>36.0</ele><time>2026-04-12T07:35:43Z</time></trkpt><trkpt lat="43.36556248592485" lon="13.59153358646894"><ele>36.0</ele><time>2026-04-12T07:35:44Z</time></trkpt><trkpt lat="43.36553736706834" lon="13.591442475704696"><ele>36.0</ele><time>2026-04-12T07:35:45Z</time></trkpt><trkpt lat="43.36550029110764" lon="13.59129509867987"><ele>36.0</ele><time>2026-04-12T07:35:47Z</time></trkpt><trkpt lat="43.365459961826495" lon="13.591147997846054"><ele>36.0</ele><time>2026-04-12T07:35:49Z</time></trkpt><trkpt lat="43.365439551523174" lon="13.59106240786844"><ele>36.0</ele><time>2026-04-12T07:35:50Z</time></trkpt><trkpt lat="43.3654167076227" lon="13.590981354213056"><ele>35.666666666666664</ele><time>2026-04-12T07:35:51Z</time></trkpt><trkpt lat="43.3653896717185" lon="13.590892393519093"><ele>35.333333333333336</ele><time>2026-04-12T07:35:52Z</time></trkpt><trkpt lat="43.365361519894726" lon="13.590800006990893"><ele>35.0</ele><time>2026-04-12T07:35:53Z</time></trkpt><trkpt lat="43.36533573418152" lon="13.590705033454439"><ele>34.66666666666667</ele><time>2026-04-12T07:35:54Z</time></trkpt><trkpt lat="43.36531445591923" lon="13.590603567633934"><ele>34.333333333333336</ele><time>2026-04-12T07:35:55Z</time></trkpt><trkpt lat="43.36528460761326" lon="13.59049170147972"><ele>34.0</ele><time>2026-04-12T07:35:56Z</time></trkpt><trkpt lat="43.36525410588945" lon="13.590392025461481"><ele>34.2</ele><time>2026-04-12T07:35:57Z</time></trkpt><trkpt lat="43.36523380065575" lon="13.590305253400196"><ele>34.4</ele><time>2026-04-12T07:35:58Z</time></trkpt><trkpt lat="43.36523067697568" lon="13.590195800424185"><ele>34.6</ele><time>2026-04-12T07:36:00Z</time></trkpt><trkpt lat="43.36529652714662" lon="13.590131686330688"><ele>34.8</ele><time>2026-04-12T07:36:02Z</time></trkpt><trkpt lat="43.36543627760693" lon="13.590067169288053"><ele>35.0</ele><time>2026-04-12T07:36:04Z</time></trkpt><trkpt lat="43.36555158524897" lon="13.590022380976405"><ele>34.25</ele><time>2026-04-12T07:36:05Z</time></trkpt><trkpt lat="43.36568176215098" lon="13.589970015311657"><ele>33.5</ele><time>2026-04-12T07:36:06Z</time></trkpt><trkpt lat="43.365825797771365" lon="13.58991357695054"><ele>32.75</ele><time>2026-04-12T07:36:07Z</time></trkpt><trkpt lat="43.36597990002" lon="13.589856717121522"><ele>32.0</ele><time>2026-04-12T07:36:08Z</time></trkpt><trkpt lat="43.36615063007307" lon="13.589787799164945"><ele>32.0</ele><time>2026-04-12T07:36:09Z</time></trkpt><trkpt lat="43.36631981059335" lon="13.589725418615426"><ele>32.0</ele><time>2026-04-12T07:36:10Z</time></trkpt><trkpt lat="43.36648849941409" lon="13.589661770559573"><ele>32.0</ele><time>2026-04-12T07:36:11Z</time></trkpt><trkpt lat="43.366643783496464" lon="13.58959496150989"><ele>31.333333333333332</ele><time>2026-04-12T07:36:12.001Z</time></trkpt><trkpt lat="43.36679829999647" lon="13.589535013336995"><ele>30.666666666666664</ele><time>2026-04-12T07:36:13.001Z</time></trkpt><trkpt lat="43.366940012370165" lon="13.589484859553078"><ele>30.0</ele><time>2026-04-12T07:36:14.001Z</time></trkpt><trkpt lat="43.36708318517234" lon="13.58942661607105"><ele>30.0</ele><time>2026-04-12T07:36:15.001Z</time></trkpt><trkpt lat="43.36721191056527" lon="13.589379226402178"><ele>30.0</ele><time>2026-04-12T07:36:16.001Z</time></trkpt><trkpt lat="43.3673167646625" lon="13.589334436194873"><ele>30.0</ele><time>2026-04-12T07:36:17.001Z</time></trkpt><trkpt lat="43.3674393374167" lon="13.589291785977052"><ele>30.0</ele><time>2026-04-12T07:36:18.001Z</time></trkpt><trkpt lat="43.36755027051869" lon="13.589256553319705"><ele>30.0</ele><time>2026-04-12T07:36:19.001Z</time></trkpt><trkpt lat="43.36764415927567" lon="13.589225123817663"><ele>30.0</ele><time>2026-04-12T07:36:20.001Z</time></trkpt><trkpt lat="43.36772823319884" lon="13.589200724848675"><ele>30.0</ele><time>2026-04-12T07:36:21.001Z</time></trkpt><trkpt lat="43.36781309048097" lon="13.589146774317285"><ele>30.0</ele><time>2026-04-12T07:36:23.001Z</time></trkpt><trkpt lat="43.367821516418495" lon="13.589046780085358"><ele>30.0</ele><time>2026-04-12T07:36:25.001Z</time></trkpt><trkpt lat="43.36773423040457" lon="13.58891139219617"><ele>30.0</ele><time>2026-04-12T07:36:27.001Z</time></trkpt><trkpt lat="43.36764954825421" lon="13.588833032093667"><ele>30.0</ele><time>2026-04-12T07:36:28.001Z</time></trkpt><trkpt lat="43.36754941343639" lon="13.588745118194092"><ele>30.0</ele><time>2026-04-12T07:36:29.001Z</time></trkpt><trkpt lat="43.36744499100745" lon="13.588660323203943"><ele>30.0</ele><time>2026-04-12T07:36:30.001Z</time></trkpt><trkpt lat="43.367338847430204" lon="13.588543454147674"><ele>29.833333333333332</ele><time>2026-04-12T07:36:31.001Z</time></trkpt><trkpt lat="43.36723498278564" lon="13.588466232691994"><ele>29.666666666666664</ele><time>2026-04-12T07:36:32.001Z</time></trkpt><trkpt lat="43.3671488484924" lon="13.588423344268397"><ele>29.5</ele><time>2026-04-12T07:36:33.001Z</time></trkpt><trkpt lat="43.36708182293164" lon="13.588370820548683"><ele>29.333333333333332</ele><time>2026-04-12T07:36:34.001Z</time></trkpt><trkpt lat="43.36704318950803" lon="13.588287457810441"><ele>29.166666666666664</ele><time>2026-04-12T07:36:35.001Z</time></trkpt><trkpt lat="43.366989982756735" lon="13.58821426748482"><ele>29.0</ele><time>2026-04-12T07:36:36.001Z</time></trkpt><trkpt lat="43.36691417791682" lon="13.588145931203618"><ele>28.799999999999997</ele><time>2026-04-12T07:36:37.001Z</time></trkpt><trkpt lat="43.366818368500965" lon="13.588073707257536"><ele>28.599999999999998</ele><time>2026-04-12T07:36:38.001Z</time></trkpt><trkpt lat="43.36670130379781" lon="13.588014357787086"><ele>28.4</ele><time>2026-04-12T07:36:39.001Z</time></trkpt><trkpt lat="43.36660519792037" lon="13.58797459008502"><ele>28.2</ele><time>2026-04-12T07:36:40.001Z</time></trkpt><trkpt lat="43.36651996331704" lon="13.587947272309126"><ele>28.0</ele><time>2026-04-12T07:36:41.001Z</time></trkpt><trkpt lat="43.366426029121364" lon="13.587924287176989"><ele>28.333333333333336</ele><time>2026-04-12T07:36:42.001Z</time></trkpt><trkpt lat="43.366328263581195" lon="13.587910935035621"><ele>28.666666666666668</ele><time>2026-04-12T07:36:43.001Z</time></trkpt><trkpt lat="43.36624730401698" lon="13.58787602326123"><ele>29.0</ele><time>2026-04-12T07:36:44.001Z</time></trkpt><trkpt lat="43.3661730162752" lon="13.587864008456656"><ele>29.333333333333336</ele><time>2026-04-12T07:36:45.001Z</time></trkpt><trkpt lat="43.366103338030484" lon="13.587837991263655"><ele>29.666666666666668</ele><time>2026-04-12T07:36:46.001Z</time></trkpt><trkpt lat="43.36604194635306" lon="13.587808313248656"><ele>30.0</ele><time>2026-04-12T07:36:47.001Z</time></trkpt><trkpt lat="43.36596409245211" lon="13.587689820036761"><ele>30.0</ele><time>2026-04-12T07:36:49.001Z</time></trkpt><trkpt lat="43.36586138266259" lon="13.58758121358064"><ele>30.0</ele><time>2026-04-12T07:36:51.001Z</time></trkpt><trkpt lat="43.36581268288344" lon="13.58751864486138"><ele>30.0</ele><time>2026-04-12T07:36:52.001Z</time></trkpt><trkpt lat="43.36571173947596" lon="13.587610556109325"><ele>30.0</ele><time>2026-04-12T07:36:53.001Z</time></trkpt><trkpt lat="43.3656210909976" lon="13.587664002676753"><ele>30.0</ele><time>2026-04-12T07:36:54.001Z</time></trkpt><trkpt lat="43.3655222333991" lon="13.587732453556656"><ele>30.0</ele><time>2026-04-12T07:36:55.001Z</time></trkpt><trkpt lat="43.36541251085677" lon="13.58779823121327"><ele>30.0</ele><time>2026-04-12T07:36:56.001Z</time></trkpt><trkpt lat="43.365293273494416" lon="13.587865018996078"><ele>30.0</ele><time>2026-04-12T07:36:57.001Z</time></trkpt><trkpt lat="43.36517987037111" lon="13.587938059383145"><ele>30.0</ele><time>2026-04-12T07:36:58.001Z</time></trkpt><trkpt lat="43.3650821402475" lon="13.58799949374427"><ele>30.166666666666668</ele><time>2026-04-12T07:36:59.001Z</time></trkpt><trkpt lat="43.36499097960748" lon="13.588048584376129"><ele>30.333333333333336</ele><time>2026-04-12T07:37:00.001Z</time></trkpt><trkpt lat="43.36491222672777" lon="13.588096369499427"><ele>30.5</ele><time>2026-04-12T07:37:01.001Z</time></trkpt><trkpt lat="43.36483573667715" lon="13.588134955330494"><ele>30.666666666666668</ele><time>2026-04-12T07:37:02.001Z</time></trkpt><trkpt lat="43.36475305708204" lon="13.588155506395628"><ele>30.833333333333336</ele><time>2026-04-12T07:37:03.001Z</time></trkpt><trkpt lat="43.364671028349406" lon="13.588158292505174"><ele>31.0</ele><time>2026-04-12T07:37:04.001Z</time></trkpt><trkpt lat="43.364591519039074" lon="13.588138597311792"><ele>31.200000000000003</ele><time>2026-04-12T07:37:05.001Z</time></trkpt><trkpt lat="43.36451192655948" lon="13.588094367888617"><ele>31.400000000000002</ele><time>2026-04-12T07:37:06.001Z</time></trkpt><trkpt lat="43.364439345785556" lon="13.588027083250232"><ele>31.6</ele><time>2026-04-12T07:37:07.001Z</time></trkpt><trkpt lat="43.364372299003456" lon="13.587931656570774"><ele>31.8</ele><time>2026-04-12T07:37:08.001Z</time></trkpt><trkpt lat="43.36431590153614" lon="13.587818999986677"><ele>32.0</ele><time>2026-04-12T07:37:09.001Z</time></trkpt><trkpt lat="43.36426183557903" lon="13.587689497162645"><ele>32.0</ele><time>2026-04-12T07:37:10.001Z</time></trkpt><trkpt lat="43.364211016195725" lon="13.587545896390546"><ele>32.0</ele><time>2026-04-12T07:37:11.001Z</time></trkpt><trkpt lat="43.36414964788163" lon="13.587394204866424"><ele>32.0</ele><time>2026-04-12T07:37:12.001Z</time></trkpt><trkpt lat="43.364083711051194" lon="13.587233481736888"><ele>32.0</ele><time>2026-04-12T07:37:13.001Z</time></trkpt><trkpt lat="43.36401463409377" lon="13.587064189692887"><ele>32.25</ele><time>2026-04-12T07:37:14.001Z</time></trkpt><trkpt lat="43.363937111200634" lon="13.58688083298561"><ele>32.5</ele><time>2026-04-12T07:37:15Z</time></trkpt><trkpt lat="43.363865360967125" lon="13.58670668908661"><ele>32.75</ele><time>2026-04-12T07:37:16Z</time></trkpt><trkpt lat="43.36379106271712" lon="13.586530989711843"><ele>33.0</ele><time>2026-04-12T07:37:17Z</time></trkpt><trkpt lat="43.36372137481944" lon="13.586351390026243"><ele>33.75</ele><time>2026-04-12T07:37:18Z</time></trkpt><trkpt lat="43.36364304390359" lon="13.586179998648984"><ele>34.5</ele><time>2026-04-12T07:37:19Z</time></trkpt><trkpt lat="43.36357379028501" lon="13.586016741755557"><ele>35.25</ele><time>2026-04-12T07:37:20Z</time></trkpt><trkpt lat="43.36350460591696" lon="13.585850888968302"><ele>36.0</ele><time>2026-04-12T07:37:21Z</time></trkpt><trkpt lat="43.36343526434037" lon="13.58568176015523"><ele>36.0</ele><time>2026-04-12T07:37:22Z</time></trkpt><trkpt lat="43.36336333011234" lon="13.585508730241513"><ele>36.0</ele><time>2026-04-12T07:37:23Z</time></trkpt><trkpt lat="43.363287296192155" lon="13.585334467714974"><ele>36.0</ele><time>2026-04-12T07:37:24Z</time></trkpt><trkpt lat="43.363208370779894" lon="13.585146061615212"><ele>35.666666666666664</ele><time>2026-04-12T07:37:25Z</time></trkpt><trkpt lat="43.363131206371584" lon="13.58496001745733"><ele>35.33333333333333</ele><time>2026-04-12T07:37:26Z</time></trkpt><trkpt lat="43.363053500497834" lon="13.584769902495268"><ele>35.0</ele><time>2026-04-12T07:37:27Z</time></trkpt><trkpt lat="43.36297100077859" lon="13.584574528823854"><ele>36.0</ele><time>2026-04-12T07:37:28Z</time></trkpt><trkpt lat="43.3628887761065" lon="13.58437554687748"><ele>37.0</ele><time>2026-04-12T07:37:29Z</time></trkpt><trkpt lat="43.36280386920118" lon="13.58417527907317"><ele>38.0</ele><time>2026-04-12T07:37:30Z</time></trkpt><trkpt lat="43.36272662788099" lon="13.58399260095966"><ele>38.0</ele><time>2026-04-12T07:37:31Z</time></trkpt><trkpt lat="43.362649764183836" lon="13.583812889224216"><ele>38.0</ele><time>2026-04-12T07:37:32Z</time></trkpt><trkpt lat="43.3625718441998" lon="13.583639435440478"><ele>38.0</ele><time>2026-04-12T07:37:33Z</time></trkpt><trkpt lat="43.3625048690929" lon="13.583479907784191"><ele>38.0</ele><time>2026-04-12T07:37:34Z</time></trkpt><trkpt lat="43.36245298409505" lon="13.583331807584283"><ele>37.75</ele><time>2026-04-12T07:37:35Z</time></trkpt><trkpt lat="43.36241153598801" lon="13.583159566577066"><ele>37.5</ele><time>2026-04-12T07:37:36Z</time></trkpt><trkpt lat="43.362388765598936" lon="13.582965090130145"><ele>37.25</ele><time>2026-04-12T07:37:37Z</time></trkpt><trkpt lat="43.36238106763692" lon="13.582760182666918"><ele>37.0</ele><time>2026-04-12T07:37:38Z</time></trkpt><trkpt lat="43.36238291082286" lon="13.582547029731927"><ele>37.0</ele><time>2026-04-12T07:37:39Z</time></trkpt><trkpt lat="43.36239268250562" lon="13.58232122358681"><ele>37.0</ele><time>2026-04-12T07:37:40Z</time></trkpt><trkpt lat="43.36240276798342" lon="13.582082636620928"><ele>37.0</ele><time>2026-04-12T07:37:41Z</time></trkpt><trkpt lat="43.36241106189447" lon="13.581849932587536"><ele>37.66666666666667</ele><time>2026-04-12T07:37:42Z</time></trkpt><trkpt lat="43.3624154202939" lon="13.581612584869657"><ele>38.333333333333336</ele><time>2026-04-12T07:37:43Z</time></trkpt><trkpt lat="43.36242183405745" lon="13.58139869544875"><ele>39.0</ele><time>2026-04-12T07:37:44Z</time></trkpt><trkpt lat="43.362429348756855" lon="13.581202315780958"><ele>39.2</ele><time>2026-04-12T07:37:45Z</time></trkpt><trkpt lat="43.362436624082534" lon="13.581040178714728"><ele>39.4</ele><time>2026-04-12T07:37:46Z</time></trkpt><trkpt lat="43.36244195964622" lon="13.580912475788512"><ele>39.6</ele><time>2026-04-12T07:37:47Z</time></trkpt><trkpt lat="43.36244720460309" lon="13.580804510966917"><ele>39.8</ele><time>2026-04-12T07:37:48Z</time></trkpt><trkpt lat="43.362460442570395" lon="13.580690272359213"><ele>40.0</ele><time>2026-04-12T07:37:50Z</time></trkpt><trkpt lat="43.36240626457642" lon="13.580420138632208"><ele>40.0</ele><time>2026-04-12T07:37:57Z</time></trkpt><trkpt lat="43.362400458208164" lon="13.58102100230827"><ele>40.0</ele><time>2026-04-12T07:37:59Z</time></trkpt><trkpt lat="43.362400287972086" lon="13.581148195816015"><ele>39.8</ele><time>2026-04-12T07:38:00Z</time></trkpt><trkpt lat="43.362396667131506" lon="13.58128869805852"><ele>39.6</ele><time>2026-04-12T07:38:01Z</time></trkpt><trkpt lat="43.36239234813546" lon="13.581425202889568"><ele>39.4</ele><time>2026-04-12T07:38:02Z</time></trkpt><trkpt lat="43.36238874686592" lon="13.581537106252911"><ele>39.2</ele><time>2026-04-12T07:38:03Z</time></trkpt><trkpt lat="43.362385878016724" lon="13.58163787853665"><ele>39.0</ele><time>2026-04-12T07:38:04Z</time></trkpt><trkpt lat="43.36234765140943" lon="13.581775859032987"><ele>39.0</ele><time>2026-04-12T07:38:06Z</time></trkpt><trkpt lat="43.36225061992711" lon="13.581868838324976"><ele>39.0</ele><time>2026-04-12T07:38:08Z</time></trkpt><trkpt lat="43.362178694159894" lon="13.581900881614741"><ele>39.0</ele><time>2026-04-12T07:38:09Z</time></trkpt><trkpt lat="43.36209769253252" lon="13.581942688168947"><ele>39.0</ele><time>2026-04-12T07:38:10Z</time></trkpt><trkpt lat="43.362004165119664" lon="13.58200013121501"><ele>39.0</ele><time>2026-04-12T07:38:11Z</time></trkpt><trkpt lat="43.3618967546642" lon="13.582062637101792"><ele>39.0</ele><time>2026-04-12T07:38:12Z</time></trkpt><trkpt lat="43.36179364385002" lon="13.58212100758334"><ele>39.0</ele><time>2026-04-12T07:38:13Z</time></trkpt><trkpt lat="43.36167472228584" lon="13.582194469884472"><ele>39.0</ele><time>2026-04-12T07:38:14Z</time></trkpt><trkpt lat="43.36155158691995" lon="13.582277386544588"><ele>39.0</ele><time>2026-04-12T07:38:15Z</time></trkpt><trkpt lat="43.36141457911204" lon="13.582367902711365"><ele>40.5</ele><time>2026-04-12T07:38:16Z</time></trkpt><trkpt lat="43.361279705231375" lon="13.58245529815753"><ele>42.0</ele><time>2026-04-12T07:38:17Z</time></trkpt><trkpt lat="43.3611573173165" lon="13.582540461061374"><ele>43.5</ele><time>2026-04-12T07:38:18Z</time></trkpt><trkpt lat="43.361043415673" lon="13.582610317889388"><ele>45.0</ele><time>2026-04-12T07:38:19Z</time></trkpt><trkpt lat="43.36095010225265" lon="13.582663960458866"><ele>45.0</ele><time>2026-04-12T07:38:20Z</time></trkpt><trkpt lat="43.36088453857345" lon="13.582701586730662"><ele>45.0</ele><time>2026-04-12T07:38:21Z</time></trkpt><trkpt lat="43.3607858556662" lon="13.5827548933641"><ele>45.0</ele><time>2026-04-12T07:38:23Z</time></trkpt><trkpt lat="43.36071724314551" lon="13.582798911988627"><ele>45.0</ele><time>2026-04-12T07:38:24Z</time></trkpt><trkpt lat="43.360645566902896" lon="13.582848734667476"><ele>45.0</ele><time>2026-04-12T07:38:25Z</time></trkpt><trkpt lat="43.36059089503904" lon="13.582901900220827"><ele>45.0</ele><time>2026-04-12T07:38:26Z</time></trkpt><trkpt lat="43.360537748680244" lon="13.583029621308212"><ele>45.833333333333336</ele><time>2026-04-12T07:38:28Z</time></trkpt><trkpt lat="43.360553553646746" lon="13.58317803513725"><ele>46.66666666666667</ele><time>2026-04-12T07:38:30.001Z</time></trkpt><trkpt lat="43.360566755221974" lon="13.58327203064147"><ele>47.5</ele><time>2026-04-12T07:38:31.001Z</time></trkpt><trkpt lat="43.36059094104412" lon="13.583361478016517"><ele>48.333333333333336</ele><time>2026-04-12T07:38:32.001Z</time></trkpt><trkpt lat="43.36060151241922" lon="13.583484074286142"><ele>49.16666666666667</ele><time>2026-04-12T07:38:33.001Z</time></trkpt><trkpt lat="43.36060551647832" lon="13.58361940820455"><ele>50.0</ele><time>2026-04-12T07:38:34.001Z</time></trkpt><trkpt lat="43.360621047041285" lon="13.583779116254812"><ele>52.0</ele><time>2026-04-12T07:38:35.001Z</time></trkpt><trkpt lat="43.36063744127204" lon="13.583936974917622"><ele>54.0</ele><time>2026-04-12T07:38:36.001Z</time></trkpt><trkpt lat="43.360646902870556" lon="13.584095174660664"><ele>56.0</ele><time>2026-04-12T07:38:37.001Z</time></trkpt><trkpt lat="43.36066377778487" lon="13.584234241761237"><ele>58.0</ele><time>2026-04-12T07:38:38.001Z</time></trkpt><trkpt lat="43.360676583402984" lon="13.584387487508518"><ele>60.0</ele><time>2026-04-12T07:38:39.001Z</time></trkpt><trkpt lat="43.360686779778085" lon="13.584536368723622"><ele>62.6</ele><time>2026-04-12T07:38:40.001Z</time></trkpt><trkpt lat="43.36069624079436" lon="13.584677692409812"><ele>65.2</ele><time>2026-04-12T07:38:41.001Z</time></trkpt><trkpt lat="43.36070671178657" lon="13.584834102316886"><ele>67.8</ele><time>2026-04-12T07:38:42.001Z</time></trkpt><trkpt lat="43.36073181895282" lon="13.584979961784994"><ele>70.4</ele><time>2026-04-12T07:38:43.001Z</time></trkpt><trkpt lat="43.360728026072735" lon="13.585126866067712"><ele>73.0</ele><time>2026-04-12T07:38:44.001Z</time></trkpt><trkpt lat="43.36073600823041" lon="13.585254921909504"><ele>74.16666666666666</ele><time>2026-04-12T07:38:45.001Z</time></trkpt><trkpt lat="43.36075549567349" lon="13.585353581316342"><ele>75.33333333333333</ele><time>2026-04-12T07:38:46.001Z</time></trkpt><trkpt lat="43.36073720898224" lon="13.585444626759891"><ele>76.5</ele><time>2026-04-12T07:38:47.001Z</time></trkpt><trkpt lat="43.360720038446466" lon="13.585589250754788"><ele>77.66666666666667</ele><time>2026-04-12T07:38:49.001Z</time></trkpt><trkpt lat="43.36062255457566" lon="13.58566973913477"><ele>78.83333333333334</ele><time>2026-04-12T07:38:51.001Z</time></trkpt><trkpt lat="43.36055771131956" lon="13.585677199242143"><ele>80.0</ele><time>2026-04-12T07:38:52.001Z</time></trkpt><trkpt lat="43.36049009039088" lon="13.585680992699848"><ele>80.0</ele><time>2026-04-12T07:38:53.001Z</time></trkpt><trkpt lat="43.36039370907037" lon="13.58568966253492"><ele>80.0</ele><time>2026-04-12T07:38:55.001Z</time></trkpt><trkpt lat="43.36031700606842" lon="13.585730232467169"><ele>80.0</ele><time>2026-04-12T07:38:58.001Z</time></trkpt><trkpt lat="43.36024677797918" lon="13.585799699978683"><ele>80.0</ele><time>2026-04-12T07:39:01.001Z</time></trkpt><trkpt lat="43.36021623462022" lon="13.585895497782609"><ele>80.0</ele><time>2026-04-12T07:39:03.001Z</time></trkpt><trkpt lat="43.360192274002834" lon="13.586025734500579"><ele>80.0</ele><time>2026-04-12T07:39:05.001Z</time></trkpt><trkpt lat="43.36018334622686" lon="13.586146360858786"><ele>81.8</ele><time>2026-04-12T07:39:07.001Z</time></trkpt><trkpt lat="43.36018722254365" lon="13.58626406360657"><ele>83.6</ele><time>2026-04-12T07:39:09.001Z</time></trkpt><trkpt lat="43.3601552788777" lon="13.586431170772157"><ele>85.4</ele><time>2026-04-12T07:39:11.001Z</time></trkpt><trkpt lat="43.36011802771364" lon="13.586536002652245"><ele>87.2</ele><time>2026-04-12T07:39:12.001Z</time></trkpt><trkpt lat="43.360077995046105" lon="13.586622687407052"><ele>89.0</ele><time>2026-04-12T07:39:13.001Z</time></trkpt><trkpt lat="43.36001950999706" lon="13.586717294476056"><ele>89.0</ele><time>2026-04-12T07:39:14.001Z</time></trkpt><trkpt lat="43.35996452740054" lon="13.586793324530316"><ele>89.0</ele><time>2026-04-12T07:39:15.001Z</time></trkpt><trkpt lat="43.35991212838964" lon="13.586859906564936"><ele>89.0</ele><time>2026-04-12T07:39:16.001Z</time></trkpt><trkpt lat="43.35986125892715" lon="13.586913112170755"><ele>89.0</ele><time>2026-04-12T07:39:18.001Z</time></trkpt><trkpt lat="43.35979485975265" lon="13.586953175380987"><ele>89.0</ele><time>2026-04-12T07:39:29Z</time></trkpt><trkpt lat="43.35972047650569" lon="13.586988310191321"><ele>89.0</ele><time>2026-04-12T07:39:30Z</time></trkpt><trkpt lat="43.35963497767332" lon="13.58700176826131"><ele>89.5</ele><time>2026-04-12T07:39:31Z</time></trkpt><trkpt lat="43.359547047971134" lon="13.586995762080385"><ele>90.0</ele><time>2026-04-12T07:39:32Z</time></trkpt><trkpt lat="43.3594738727259" lon="13.586980375464778"><ele>90.5</ele><time>2026-04-12T07:39:33Z</time></trkpt><trkpt lat="43.35939762357583" lon="13.586959348285276"><ele>91.0</ele><time>2026-04-12T07:39:34Z</time></trkpt><trkpt lat="43.35930315591557" lon="13.586944536418933"><ele>91.5</ele><time>2026-04-12T07:39:35Z</time></trkpt><trkpt lat="43.35920021387846" lon="13.586905606833827"><ele>92.0</ele><time>2026-04-12T07:39:36Z</time></trkpt><trkpt lat="43.35909248481946" lon="13.586860742372226"><ele>92.0</ele><time>2026-04-12T07:39:37Z</time></trkpt><trkpt lat="43.35897924354745" lon="13.586812038087714"><ele>92.0</ele><time>2026-04-12T07:39:38Z</time></trkpt><trkpt lat="43.358869554003476" lon="13.586745828659522"><ele>92.0</ele><time>2026-04-12T07:39:39Z</time></trkpt><trkpt lat="43.35878101060863" lon="13.586676420057067"><ele>92.0</ele><time>2026-04-12T07:39:40Z</time></trkpt><trkpt lat="43.358677152198766" lon="13.586595328516006"><ele>93.0</ele><time>2026-04-12T07:39:41Z</time></trkpt><trkpt lat="43.35857979813422" lon="13.586497007320679"><ele>94.0</ele><time>2026-04-12T07:39:42Z</time></trkpt><trkpt lat="43.35846105957818" lon="13.586400852057949"><ele>95.0</ele><time>2026-04-12T07:39:43Z</time></trkpt><trkpt lat="43.35836798899571" lon="13.586272634094206"><ele>96.0</ele><time>2026-04-12T07:39:44Z</time></trkpt><trkpt lat="43.3582587143007" lon="13.58617002459696"><ele>96.0</ele><time>2026-04-12T07:39:45Z</time></trkpt><trkpt lat="43.35815833886172" lon="13.586062072893379"><ele>96.0</ele><time>2026-04-12T07:39:46Z</time></trkpt><trkpt lat="43.35807322363259" lon="13.585983159703746"><ele>96.0</ele><time>2026-04-12T07:39:47Z</time></trkpt><trkpt lat="43.35798913786424" lon="13.585910907792636"><ele>96.0</ele><time>2026-04-12T07:39:48Z</time></trkpt><trkpt lat="43.35791199063809" lon="13.585840080079642"><ele>96.0</ele><time>2026-04-12T07:39:49Z</time></trkpt><trkpt lat="43.357842776641206" lon="13.585779683482631"><ele>99.0</ele><time>2026-04-12T07:39:50Z</time></trkpt><trkpt lat="43.35779133199154" lon="13.585706933279445"><ele>102.0</ele><time>2026-04-12T07:39:51Z</time></trkpt><trkpt lat="43.357710203840526" lon="13.58563075518837"><ele>105.0</ele><time>2026-04-12T07:39:52Z</time></trkpt><trkpt lat="43.35763599928012" lon="13.585558873085635"><ele>108.0</ele><time>2026-04-12T07:39:53Z</time></trkpt><trkpt lat="43.357561856925656" lon="13.585481797120684"><ele>111.0</ele><time>2026-04-12T07:39:54Z</time></trkpt><trkpt lat="43.357461667078944" lon="13.585396589610454"><ele>110.6</ele><time>2026-04-12T07:39:55Z</time></trkpt><trkpt lat="43.35737591444183" lon="13.585292914859176"><ele>110.19999999999999</ele><time>2026-04-12T07:39:56Z</time></trkpt><trkpt lat="43.357300151957666" lon="13.585201272788725"><ele>109.80000000000001</ele><time>2026-04-12T07:39:57Z</time></trkpt><trkpt lat="43.35723851222306" lon="13.58513021382227"><ele>109.4</ele><time>2026-04-12T07:39:58Z</time></trkpt><trkpt lat="43.35715528084536" lon="13.585058533801057"><ele>109.0</ele><time>2026-04-12T07:40:00Z</time></trkpt><trkpt lat="43.3571636905711" lon="13.585199942617315"><ele>109.33333333333334</ele><time>2026-04-12T07:40:13Z</time></trkpt><trkpt lat="43.35720312072481" lon="13.585300844230527"><ele>109.66666666666667</ele><time>2026-04-12T07:40:14Z</time></trkpt><trkpt lat="43.3572436275217" lon="13.585419727405187"><ele>110.0</ele><time>2026-04-12T07:40:15Z</time></trkpt><trkpt lat="43.357257347835706" lon="13.58551708732302"><ele>110.33333333333334</ele><time>2026-04-12T07:40:16Z</time></trkpt><trkpt lat="43.357264682833474" lon="13.585606462007485"><ele>110.66666666666667</ele><time>2026-04-12T07:40:17Z</time></trkpt><trkpt lat="43.35725594256823" lon="13.585698289950273"><ele>111.0</ele><time>2026-04-12T07:40:18Z</time></trkpt><trkpt lat="43.357238568630294" lon="13.585818560650695"><ele>111.0</ele><time>2026-04-12T07:40:19Z</time></trkpt><trkpt lat="43.357215178397766" lon="13.58597684344443"><ele>111.0</ele><time>2026-04-12T07:40:20Z</time></trkpt><trkpt lat="43.35717788889622" lon="13.586124163766852"><ele>111.0</ele><time>2026-04-12T07:40:21Z</time></trkpt><trkpt lat="43.357141928415814" lon="13.586307151217385"><ele>111.0</ele><time>2026-04-12T07:40:22Z</time></trkpt><trkpt lat="43.357119614703" lon="13.586513291063028"><ele>111.66666666666666</ele><time>2026-04-12T07:40:23Z</time></trkpt><trkpt lat="43.357069531752444" lon="13.586711025008714"><ele>112.33333333333333</ele><time>2026-04-12T07:40:24Z</time></trkpt><trkpt lat="43.35703563719879" lon="13.586901856506229"><ele>113.0</ele><time>2026-04-12T07:40:25Z</time></trkpt><trkpt lat="43.35699828607085" lon="13.587109271570192"><ele>114.5</ele><time>2026-04-12T07:40:26Z</time></trkpt><trkpt lat="43.356974303261694" lon="13.587308366737416"><ele>116.0</ele><time>2026-04-12T07:40:27Z</time></trkpt><trkpt lat="43.356923108472614" lon="13.587473241446775"><ele>117.5</ele><time>2026-04-12T07:40:28Z</time></trkpt><trkpt lat="43.35690111231208" lon="13.587648761871904"><ele>119.0</ele><time>2026-04-12T07:40:29Z</time></trkpt><trkpt lat="43.356864653567584" lon="13.5878150550742"><ele>120.2</ele><time>2026-04-12T07:40:30Z</time></trkpt><trkpt lat="43.35683732533315" lon="13.587959603491571"><ele>121.4</ele><time>2026-04-12T07:40:31Z</time></trkpt><trkpt lat="43.3568253536351" lon="13.58808318419962"><ele>122.6</ele><time>2026-04-12T07:40:32Z</time></trkpt><trkpt lat="43.35682024054577" lon="13.58820242681569"><ele>123.8</ele><time>2026-04-12T07:40:33Z</time></trkpt><trkpt lat="43.35682119963908" lon="13.588321456383198"><ele>125.0</ele><time>2026-04-12T07:40:34Z</time></trkpt><trkpt lat="43.356833604949045" lon="13.58846996560753"><ele>125.0</ele><time>2026-04-12T07:40:35Z</time></trkpt><trkpt lat="43.35685336537025" lon="13.588620683718013"><ele>125.0</ele><time>2026-04-12T07:40:36Z</time></trkpt><trkpt lat="43.356887851194145" lon="13.588759269397697"><ele>125.0</ele><time>2026-04-12T07:40:37Z</time></trkpt><trkpt lat="43.35691600130672" lon="13.588863318728432"><ele>125.0</ele><time>2026-04-12T07:40:38Z</time></trkpt><trkpt lat="43.3569497556876" lon="13.588963295208492"><ele>125.0</ele><time>2026-04-12T07:40:39.001Z</time></trkpt><trkpt lat="43.357008477045866" lon="13.589073454036916"><ele>125.0</ele><time>2026-04-12T07:40:40.001Z</time></trkpt><trkpt lat="43.3570625767671" lon="13.589246764863926"><ele>125.0</ele><time>2026-04-12T07:40:41.001Z</time></trkpt><trkpt lat="43.357116725600356" lon="13.589421468338276"><ele>125.0</ele><time>2026-04-12T07:40:42.001Z</time></trkpt><trkpt lat="43.35715249576528" lon="13.58958781872029"><ele>125.0</ele><time>2026-04-12T07:40:43.001Z</time></trkpt><trkpt lat="43.35717636004664" lon="13.589760003704301"><ele>124.83333333333333</ele><time>2026-04-12T07:40:44.001Z</time></trkpt><trkpt lat="43.35718617817451" lon="13.589879248353931"><ele>124.66666666666666</ele><time>2026-04-12T07:40:45.001Z</time></trkpt><trkpt lat="43.35719028058214" lon="13.58997263889431"><ele>124.5</ele><time>2026-04-12T07:40:46.001Z</time></trkpt><trkpt lat="43.357191333770416" lon="13.59015270741594"><ele>124.33333333333334</ele><time>2026-04-12T07:40:48.001Z</time></trkpt><trkpt lat="43.3571902962009" lon="13.590252559426226"><ele>124.16666666666667</ele><time>2026-04-12T07:40:49.001Z</time></trkpt><trkpt lat="43.35718761441229" lon="13.590368547950693"><ele>124.0</ele><time>2026-04-12T07:40:50.001Z</time></trkpt><trkpt lat="43.357193490135046" lon="13.590485467854503"><ele>124.00000000000001</ele><time>2026-04-12T07:40:51.001Z</time></trkpt><trkpt lat="43.35718788763856" lon="13.590591309072487"><ele>124.0</ele><time>2026-04-12T07:40:52.001Z</time></trkpt><trkpt lat="43.35717351695299" lon="13.590690486457072"><ele>124.0</ele><time>2026-04-12T07:40:53.001Z</time></trkpt><trkpt lat="43.357162356709836" lon="13.590793898691079"><ele>124.0</ele><time>2026-04-12T07:40:54.001Z</time></trkpt><trkpt lat="43.357146875313376" lon="13.590889129079052"><ele>124.00000000000001</ele><time>2026-04-12T07:40:55.001Z</time></trkpt><trkpt lat="43.357132520379004" lon="13.590978018781977"><ele>124.0</ele><time>2026-04-12T07:40:56.001Z</time></trkpt><trkpt lat="43.35711389265455" lon="13.591104467967613"><ele>124.6</ele><time>2026-04-12T07:40:58.001Z</time></trkpt><trkpt lat="43.35722539556793" lon="13.59114825377818"><ele>125.2</ele><time>2026-04-12T07:41:01.001Z</time></trkpt><trkpt lat="43.35729332912706" lon="13.591155515944086"><ele>125.79999999999998</ele><time>2026-04-12T07:41:02.001Z</time></trkpt><trkpt lat="43.35738540184189" lon="13.59116912825909"><ele>126.39999999999999</ele><time>2026-04-12T07:41:03.001Z</time></trkpt><trkpt lat="43.357488466904215" lon="13.591192290661029"><ele>127.0</ele><time>2026-04-12T07:41:04.001Z</time></trkpt><trkpt lat="43.35759151150495" lon="13.591215632487142"><ele>127.0</ele><time>2026-04-12T07:41:05.001Z</time></trkpt><trkpt lat="43.35769899383518" lon="13.591236675317392"><ele>127.0</ele><time>2026-04-12T07:41:06.001Z</time></trkpt><trkpt lat="43.35780918979369" lon="13.591253748667947"><ele>127.0</ele><time>2026-04-12T07:41:07.001Z</time></trkpt><trkpt lat="43.35792469580317" lon="13.591281792499768"><ele>127.0</ele><time>2026-04-12T07:41:08.001Z</time></trkpt><trkpt lat="43.35804837234375" lon="13.591313863743355"><ele>123.5</ele><time>2026-04-12T07:41:09.001Z</time></trkpt><trkpt lat="43.35816970800001" lon="13.591356651583997"><ele>120.0</ele><time>2026-04-12T07:41:10.001Z</time></trkpt><trkpt lat="43.35829383037722" lon="13.591397601272273"><ele>116.5</ele><time>2026-04-12T07:41:11.001Z</time></trkpt><trkpt lat="43.35842315659735" lon="13.59143997604414"><ele>113.0</ele><time>2026-04-12T07:41:12.001Z</time></trkpt><trkpt lat="43.358553796544" lon="13.591480124698132"><ele>113.0</ele><time>2026-04-12T07:41:13.001Z</time></trkpt><trkpt lat="43.35867980445271" lon="13.591512829997706"><ele>113.0</ele><time>2026-04-12T07:41:14.001Z</time></trkpt><trkpt lat="43.35880640832283" lon="13.591547287001914"><ele>113.0</ele><time>2026-04-12T07:41:15.001Z</time></trkpt><trkpt lat="43.35892933131974" lon="13.591583623899979"><ele>113.0</ele><time>2026-04-12T07:41:16.001Z</time></trkpt><trkpt lat="43.35905318199804" lon="13.591620007258205"><ele>111.2</ele><time>2026-04-12T07:41:17.001Z</time></trkpt><trkpt lat="43.359165920327605" lon="13.59165817870258"><ele>109.4</ele><time>2026-04-12T07:41:18.001Z</time></trkpt><trkpt lat="43.35927704336455" lon="13.591704270326403"><ele>107.60000000000001</ele><time>2026-04-12T07:41:19.001Z</time></trkpt><trkpt lat="43.35937706104074" lon="13.59175561804359"><ele>105.80000000000001</ele><time>2026-04-12T07:41:20.001Z</time></trkpt><trkpt lat="43.359468110935836" lon="13.591811141575512"><ele>104.0</ele><time>2026-04-12T07:41:21.001Z</time></trkpt><trkpt lat="43.359561529141125" lon="13.591876371577525"><ele>104.0</ele><time>2026-04-12T07:41:22.001Z</time></trkpt><trkpt lat="43.359640300847204" lon="13.591947668588201"><ele>104.0</ele><time>2026-04-12T07:41:23.001Z</time></trkpt><trkpt lat="43.35971719816369" lon="13.592029905985292"><ele>104.0</ele><time>2026-04-12T07:41:24.001Z</time></trkpt><trkpt lat="43.35979094089965" lon="13.592103851145255"><ele>104.0</ele><time>2026-04-12T07:41:25.001Z</time></trkpt><trkpt lat="43.35986101416692" lon="13.59216356239631"><ele>104.0</ele><time>2026-04-12T07:41:26.001Z</time></trkpt><trkpt lat="43.35995945579855" lon="13.592223279547094"><ele>102.2</ele><time>2026-04-12T07:41:28Z</time></trkpt><trkpt lat="43.3600692506891" lon="13.592251145345408"><ele>100.4</ele><time>2026-04-12T07:41:30Z</time></trkpt><trkpt lat="43.36013648962974" lon="13.59224171964152"><ele>98.6</ele><time>2026-04-12T07:41:31Z</time></trkpt><trkpt lat="43.36026108268091" lon="13.592172518185134"><ele>96.8</ele><time>2026-04-12T07:41:33Z</time></trkpt><trkpt lat="43.36033357145155" lon="13.592120775777973"><ele>95.0</ele><time>2026-04-12T07:41:34Z</time></trkpt><trkpt lat="43.36043196980574" lon="13.592101120915919"><ele>92.75</ele><time>2026-04-12T07:41:35Z</time></trkpt><trkpt lat="43.360550275193916" lon="13.592063772966013"><ele>90.5</ele><time>2026-04-12T07:41:36Z</time></trkpt><trkpt lat="43.36067284226631" lon="13.592000176401088"><ele>88.25</ele><time>2026-04-12T07:41:37Z</time></trkpt><trkpt lat="43.36080437310773" lon="13.591957121462642"><ele>86.0</ele><time>2026-04-12T07:41:38Z</time></trkpt><trkpt lat="43.36093810388846" lon="13.591918988552788"><ele>86.0</ele><time>2026-04-12T07:41:39Z</time></trkpt><trkpt lat="43.36106414168958" lon="13.591871519383725"><ele>86.0</ele><time>2026-04-12T07:41:40Z</time></trkpt><trkpt lat="43.361187954684716" lon="13.59182493618918"><ele>86.0</ele><time>2026-04-12T07:41:41Z</time></trkpt><trkpt lat="43.361316546942255" lon="13.591773381357651"><ele>86.0</ele><time>2026-04-12T07:41:42Z</time></trkpt><trkpt lat="43.36144364039413" lon="13.591724694611703"><ele>83.0</ele><time>2026-04-12T07:41:43Z</time></trkpt><trkpt lat="43.36156884612426" lon="13.591674251142736"><ele>80.0</ele><time>2026-04-12T07:41:44Z</time></trkpt><trkpt lat="43.361698663318585" lon="13.591624241706883"><ele>77.0</ele><time>2026-04-12T07:41:45Z</time></trkpt><trkpt lat="43.3618261334504" lon="13.59156781801852"><ele>74.0</ele><time>2026-04-12T07:41:46Z</time></trkpt><trkpt lat="43.36195075161409" lon="13.591514057859962"><ele>74.0</ele><time>2026-04-12T07:41:47Z</time></trkpt><trkpt lat="43.36205246027936" lon="13.591469093157379"><ele>74.0</ele><time>2026-04-12T07:41:48Z</time></trkpt><trkpt lat="43.36215695422828" lon="13.591426858385011"><ele>74.0</ele><time>2026-04-12T07:41:49Z</time></trkpt><trkpt lat="43.362267279083845" lon="13.591382160898727"><ele>74.0</ele><time>2026-04-12T07:41:50Z</time></trkpt><trkpt lat="43.36236868160836" lon="13.591333911321922"><ele>74.0</ele><time>2026-04-12T07:41:51Z</time></trkpt><trkpt lat="43.36248012304985" lon="13.591286083695643"><ele>71.25</ele><time>2026-04-12T07:41:52Z</time></trkpt><trkpt lat="43.36260698965712" lon="13.591237729912745"><ele>68.5</ele><time>2026-04-12T07:41:53Z</time></trkpt><trkpt lat="43.36273995808597" lon="13.591186722520062"><ele>65.75</ele><time>2026-04-12T07:41:54Z</time></trkpt><trkpt lat="43.36286518719523" lon="13.591136773831776"><ele>63.0</ele><time>2026-04-12T07:41:55Z</time></trkpt><trkpt lat="43.36298308547459" lon="13.591089689108975"><ele>60.5</ele><time>2026-04-12T07:41:56Z</time></trkpt><trkpt lat="43.36309941232225" lon="13.591045393601362"><ele>58.0</ele><time>2026-04-12T07:41:57Z</time></trkpt><trkpt lat="43.363215695709556" lon="13.590999516614893"><ele>55.5</ele><time>2026-04-12T07:41:58Z</time></trkpt><trkpt lat="43.36333168001002" lon="13.590955283926732"><ele>53.0</ele><time>2026-04-12T07:41:59Z</time></trkpt><trkpt lat="43.363450265754814" lon="13.590904300960231"><ele>53.0</ele><time>2026-04-12T07:42:00Z</time></trkpt><trkpt lat="43.363564649207646" lon="13.590863018169538"><ele>53.0</ele><time>2026-04-12T07:42:01Z</time></trkpt><trkpt lat="43.363681126537685" lon="13.590816050656304"><ele>53.0</ele><time>2026-04-12T07:42:02Z</time></trkpt><trkpt lat="43.36379661462303" lon="13.590768968352442"><ele>53.0</ele><time>2026-04-12T07:42:03Z</time></trkpt><trkpt lat="43.36390621598626" lon="13.590715348611548"><ele>50.5</ele><time>2026-04-12T07:42:04Z</time></trkpt><trkpt lat="43.36402448522337" lon="13.590654863211885"><ele>48.0</ele><time>2026-04-12T07:42:05Z</time></trkpt><trkpt lat="43.36414241540491" lon="13.590598575499055"><ele>45.5</ele><time>2026-04-12T07:42:06Z</time></trkpt><trkpt lat="43.36426391242338" lon="13.590547266103922"><ele>43.0</ele><time>2026-04-12T07:42:07Z</time></trkpt><trkpt lat="43.3643955225973" lon="13.59048959442501"><ele>43.0</ele><time>2026-04-12T07:42:08Z</time></trkpt><trkpt lat="43.364546390392654" lon="13.590428420931397"><ele>43.0</ele><time>2026-04-12T07:42:09Z</time></trkpt><trkpt lat="43.3647163453013" lon="13.590354209408321"><ele>43.0</ele><time>2026-04-12T07:42:10Z</time></trkpt><trkpt lat="43.36487898228983" lon="13.590289800125166"><ele>40.333333333333336</ele><time>2026-04-12T07:42:11Z</time></trkpt><trkpt lat="43.36502584313973" lon="13.590232892835163"><ele>37.666666666666664</ele><time>2026-04-12T07:42:12Z</time></trkpt><trkpt lat="43.36517498311269" lon="13.590172678893447"><ele>35.0</ele><time>2026-04-12T07:42:13Z</time></trkpt><trkpt lat="43.36532881410835" lon="13.590114759807753"><ele>35.0</ele><time>2026-04-12T07:42:14Z</time></trkpt><trkpt lat="43.36548361789801" lon="13.590052591297956"><ele>35.0</ele><time>2026-04-12T07:42:15Z</time></trkpt><trkpt lat="43.36567089616843" lon="13.589978798546175"><ele>35.0</ele><time>2026-04-12T07:42:16Z</time></trkpt><trkpt lat="43.365857806583506" lon="13.589904509357662"><ele>34.0</ele><time>2026-04-12T07:42:17Z</time></trkpt><trkpt lat="43.36602695288353" lon="13.589837853738885"><ele>33.0</ele><time>2026-04-12T07:42:18Z</time></trkpt><trkpt lat="43.36619275672616" lon="13.58977454100318"><ele>32.0</ele><time>2026-04-12T07:42:19Z</time></trkpt><trkpt lat="43.36635316121581" lon="13.589713895006886"><ele>31.333333333333332</ele><time>2026-04-12T07:42:20Z</time></trkpt><trkpt lat="43.366502716926476" lon="13.58965513542288"><ele>30.666666666666664</ele><time>2026-04-12T07:42:21Z</time></trkpt><trkpt lat="43.36664624724519" lon="13.589596477117242"><ele>30.0</ele><time>2026-04-12T07:42:22Z</time></trkpt><trkpt lat="43.36679041407577" lon="13.589539990870735"><ele>30.0</ele><time>2026-04-12T07:42:23Z</time></trkpt><trkpt lat="43.366931798094626" lon="13.589490196691154"><ele>30.0</ele><time>2026-04-12T07:42:24Z</time></trkpt><trkpt lat="43.36705640181213" lon="13.589441077260384"><ele>30.0</ele><time>2026-04-12T07:42:25Z</time></trkpt><trkpt lat="43.36716116785758" lon="13.5893990205646"><ele>30.0</ele><time>2026-04-12T07:42:26Z</time></trkpt><trkpt lat="43.367269134648055" lon="13.589348730846833"><ele>30.0</ele><time>2026-04-12T07:42:27Z</time></trkpt><trkpt lat="43.367372155885796" lon="13.589309797924885"><ele>30.0</ele><time>2026-04-12T07:42:28Z</time></trkpt><trkpt lat="43.36746830788287" lon="13.58928053697525"><ele>30.0</ele><time>2026-04-12T07:42:29Z</time></trkpt><trkpt lat="43.367554797773586" lon="13.589250235117722"><ele>30.0</ele><time>2026-04-12T07:42:30Z</time></trkpt><trkpt lat="43.36763315667691" lon="13.589225737143211"><ele>30.0</ele><time>2026-04-12T07:42:31Z</time></trkpt><trkpt lat="43.367757765261466" lon="13.589179038551622"><ele>30.0</ele><time>2026-04-12T07:42:33Z</time></trkpt><trkpt lat="43.367818196472555" lon="13.58914921693282"><ele>30.0</ele><time>2026-04-12T07:42:35Z</time></trkpt><trkpt lat="43.367829887398884" lon="13.589029810453479"><ele>30.0</ele><time>2026-04-12T07:42:37Z</time></trkpt><trkpt lat="43.367793019646484" lon="13.588940653330626"><ele>30.0</ele><time>2026-04-12T07:42:38Z</time></trkpt><trkpt lat="43.367711227182056" lon="13.588875526192771"><ele>30.0</ele><time>2026-04-12T07:42:39Z</time></trkpt><trkpt lat="43.36764252610697" lon="13.588810059639167"><ele>30.0</ele><time>2026-04-12T07:42:40Z</time></trkpt><trkpt lat="43.36756120309424" lon="13.588734802904865"><ele>29.8</ele><time>2026-04-12T07:42:41Z</time></trkpt><trkpt lat="43.36747835741905" lon="13.58866234268155"><ele>29.6</ele><time>2026-04-12T07:42:42Z</time></trkpt><trkpt lat="43.36739137445895" lon="13.588588009048705"><ele>29.4</ele><time>2026-04-12T07:42:43Z</time></trkpt><trkpt lat="43.367300377721094" lon="13.588513190900732"><ele>29.2</ele><time>2026-04-12T07:42:44Z</time></trkpt><trkpt lat="43.367197295806264" lon="13.588463391713509"><ele>29.0</ele><time>2026-04-12T07:42:45Z</time></trkpt><trkpt lat="43.36711491899331" lon="13.588389026984183"><ele>28.799999999999997</ele><time>2026-04-12T07:42:46Z</time></trkpt><trkpt lat="43.36704406578771" lon="13.588333996778786"><ele>28.599999999999998</ele><time>2026-04-12T07:42:47Z</time></trkpt><trkpt lat="43.367007470904376" lon="13.588235008860964"><ele>28.4</ele><time>2026-04-12T07:42:48Z</time></trkpt><trkpt lat="43.36693457087271" lon="13.588160900869143"><ele>28.2</ele><time>2026-04-12T07:42:49Z</time></trkpt><trkpt lat="43.36683048672653" lon="13.588099946390482"><ele>28.0</ele><time>2026-04-12T07:42:50Z</time></trkpt><trkpt lat="43.36673797736512" lon="13.588023883068567"><ele>28.0</ele><time>2026-04-12T07:42:51Z</time></trkpt><trkpt lat="43.366640219691575" lon="13.58798328412451"><ele>27.999999999999996</ele><time>2026-04-12T07:42:52Z</time></trkpt><trkpt lat="43.366548991717764" lon="13.587956096865362"><ele>27.999999999999996</ele><time>2026-04-12T07:42:53Z</time></trkpt><trkpt lat="43.3664528385573" lon="13.587936827800407"><ele>28.0</ele><time>2026-04-12T07:42:54Z</time></trkpt><trkpt lat="43.36635615303423" lon="13.587912846823697"><ele>28.0</ele><time>2026-04-12T07:42:55Z</time></trkpt><trkpt lat="43.36626453972127" lon="13.587881477524029"><ele>28.333333333333336</ele><time>2026-04-12T07:42:56Z</time></trkpt><trkpt lat="43.36617674946109" lon="13.587863524582506"><ele>28.666666666666668</ele><time>2026-04-12T07:42:57Z</time></trkpt><trkpt lat="43.36609766823823" lon="13.587836467128398"><ele>29.0</ele><time>2026-04-12T07:42:58.001Z</time></trkpt><trkpt lat="43.36602829763079" lon="13.587796620533272"><ele>29.333333333333336</ele><time>2026-04-12T07:42:59.001Z</time></trkpt><trkpt lat="43.36597655673648" lon="13.587745126461183"><ele>29.666666666666668</ele><time>2026-04-12T07:43:00.001Z</time></trkpt><trkpt lat="43.36593063822135" lon="13.587622799277238"><ele>30.0</ele><time>2026-04-12T07:43:02.001Z</time></trkpt><trkpt lat="43.36586811483372" lon="13.587545323675622"><ele>30.0</ele><time>2026-04-12T07:43:04.001Z</time></trkpt><trkpt lat="43.365763209257686" lon="13.587569477299173"><ele>30.0</ele><time>2026-04-12T07:43:06.001Z</time></trkpt><trkpt lat="43.36570758218906" lon="13.587652694142559"><ele>30.0</ele><time>2026-04-12T07:43:07.001Z</time></trkpt><trkpt lat="43.36563200679536" lon="13.587657060955586"><ele>30.0</ele><time>2026-04-12T07:43:08.001Z</time></trkpt><trkpt lat="43.365546161342216" lon="13.587707773836252"><ele>30.0</ele><time>2026-04-12T07:43:09.001Z</time></trkpt><trkpt lat="43.36545184667215" lon="13.587765267406363"><ele>30.0</ele><time>2026-04-12T07:43:10.001Z</time></trkpt><trkpt lat="43.36534534426782" lon="13.587834819657898"><ele>30.0</ele><time>2026-04-12T07:43:11.001Z</time></trkpt><trkpt lat="43.365235141418495" lon="13.58790980306675"><ele>30.0</ele><time>2026-04-12T07:43:12.001Z</time></trkpt><trkpt lat="43.36511997762179" lon="13.587983738893142"><ele>30.0</ele><time>2026-04-12T07:43:13.001Z</time></trkpt><trkpt lat="43.36500368609942" lon="13.588047388526796"><ele>30.2</ele><time>2026-04-12T07:43:14.001Z</time></trkpt><trkpt lat="43.36488966320192" lon="13.588105835871547"><ele>30.4</ele><time>2026-04-12T07:43:15.001Z</time></trkpt><trkpt lat="43.36478778929129" lon="13.588144461632861"><ele>30.6</ele><time>2026-04-12T07:43:16.001Z</time></trkpt><trkpt lat="43.364692144336175" lon="13.588158116226465"><ele>30.8</ele><time>2026-04-12T07:43:17.001Z</time></trkpt><trkpt lat="43.36460436952783" lon="13.588135952466729"><ele>31.0</ele><time>2026-04-12T07:43:18.001Z</time></trkpt><trkpt lat="43.364514904344894" lon="13.588089097930977"><ele>31.25</ele><time>2026-04-12T07:43:19.001Z</time></trkpt><trkpt lat="43.36442344863685" lon="13.588005146748735"><ele>31.5</ele><time>2026-04-12T07:43:20.001Z</time></trkpt><trkpt lat="43.364343271338655" lon="13.587890455877604"><ele>31.75</ele><time>2026-04-12T07:43:21.001Z</time></trkpt><trkpt lat="43.364298178573435" lon="13.587733753622016"><ele>32.0</ele><time>2026-04-12T07:43:22.001Z</time></trkpt><trkpt lat="43.36421864136712" lon="13.587592727846538"><ele>32.0</ele><time>2026-04-12T07:43:23.001Z</time></trkpt><trkpt lat="43.36415983665287" lon="13.58743389873134"><ele>32.0</ele><time>2026-04-12T07:43:24.001Z</time></trkpt><trkpt lat="43.364096065676826" lon="13.587269763482457"><ele>32.0</ele><time>2026-04-12T07:43:25.001Z</time></trkpt><trkpt lat="43.364035769037415" lon="13.587114870505586"><ele>32.0</ele><time>2026-04-12T07:43:26.001Z</time></trkpt><trkpt lat="43.3639774497091" lon="13.586969590074354"><ele>32.25</ele><time>2026-04-12T07:43:27.001Z</time></trkpt><trkpt lat="43.36390983361581" lon="13.586800274578472"><ele>32.5</ele><time>2026-04-12T07:43:28.001Z</time></trkpt><trkpt lat="43.36384301889099" lon="13.58663166778116"><ele>32.75</ele><time>2026-04-12T07:43:29.001Z</time></trkpt><trkpt lat="43.36376477942597" lon="13.58646051432404"><ele>33.0</ele><time>2026-04-12T07:43:30.001Z</time></trkpt><trkpt lat="43.36368321117642" lon="13.586279932084631"><ele>33.75</ele><time>2026-04-12T07:43:31.001Z</time></trkpt><trkpt lat="43.36361730467941" lon="13.586117249381957"><ele>34.5</ele><time>2026-04-12T07:43:32.001Z</time></trkpt><trkpt lat="43.36354864702287" lon="13.58594800226259"><ele>35.25</ele><time>2026-04-12T07:43:33Z</time></trkpt><trkpt lat="43.36347664479363" lon="13.585777519822551"><ele>36.0</ele><time>2026-04-12T07:43:34Z</time></trkpt><trkpt lat="43.363403046259016" lon="13.585608201142913"><ele>36.0</ele><time>2026-04-12T07:43:35Z</time></trkpt><trkpt lat="43.36332710321143" lon="13.58544107448656"><ele>36.0</ele><time>2026-04-12T07:43:36Z</time></trkpt><trkpt lat="43.36325505851931" lon="13.585264032285885"><ele>36.0</ele><time>2026-04-12T07:43:37Z</time></trkpt><trkpt lat="43.363184936138964" lon="13.585084168332239"><ele>36.0</ele><time>2026-04-12T07:43:38Z</time></trkpt><trkpt lat="43.36310884021851" lon="13.584891044596567"><ele>36.666666666666664</ele><time>2026-04-12T07:43:39Z</time></trkpt><trkpt lat="43.36302573855768" lon="13.58469680377989"><ele>37.33333333333333</ele><time>2026-04-12T07:43:40Z</time></trkpt><trkpt lat="43.36294045627625" lon="13.584500029296372"><ele>38.0</ele><time>2026-04-12T07:43:41Z</time></trkpt><trkpt lat="43.36285111107712" lon="13.584299225981615"><ele>38.0</ele><time>2026-04-12T07:43:42Z</time></trkpt><trkpt lat="43.362771394047954" lon="13.584108515815853"><ele>38.0</ele><time>2026-04-12T07:43:43Z</time></trkpt><trkpt lat="43.36269210752651" lon="13.583916150836256"><ele>38.0</ele><time>2026-04-12T07:43:44Z</time></trkpt><trkpt lat="43.362614799068304" lon="13.583737148607751"><ele>37.75</ele><time>2026-04-12T07:43:45Z</time></trkpt><trkpt lat="43.362545494989085" lon="13.583573835022131"><ele>37.5</ele><time>2026-04-12T07:43:46Z</time></trkpt><trkpt lat="43.36247657815978" lon="13.58340655482241"><ele>37.25</ele><time>2026-04-12T07:43:47Z</time></trkpt><trkpt lat="43.36243288152972" lon="13.583222803016609"><ele>37.0</ele><time>2026-04-12T07:43:48Z</time></trkpt><trkpt lat="43.36239592986898" lon="13.583020569095135"><ele>37.0</ele><time>2026-04-12T07:43:49Z</time></trkpt><trkpt lat="43.362376744701656" lon="13.582795163855552"><ele>37.0</ele><time>2026-04-12T07:43:50Z</time></trkpt><trkpt lat="43.36238280515023" lon="13.58255856315721"><ele>37.0</ele><time>2026-04-12T07:43:51Z</time></trkpt><trkpt lat="43.36239334281118" lon="13.582320462775215"><ele>37.0</ele><time>2026-04-12T07:43:52Z</time></trkpt><trkpt lat="43.36240197521017" lon="13.582109697558542"><ele>37.0</ele><time>2026-04-12T07:43:53Z</time></trkpt><trkpt lat="43.36241111396641" lon="13.581927296940725"><ele>37.0</ele><time>2026-04-12T07:43:54Z</time></trkpt><trkpt lat="43.36241731126977" lon="13.581743986974363"><ele>37.0</ele><time>2026-04-12T07:43:55Z</time></trkpt><trkpt lat="43.362421023789466" lon="13.581569609266461"><ele>37.5</ele><time>2026-04-12T07:43:56Z</time></trkpt><trkpt lat="43.36242478790558" lon="13.581391798210033"><ele>38.0</ele><time>2026-04-12T07:43:57Z</time></trkpt><trkpt lat="43.36243416829673" lon="13.581207746710392"><ele>38.5</ele><time>2026-04-12T07:43:58Z</time></trkpt><trkpt lat="43.36244126181308" lon="13.581021851060912"><ele>39.0</ele><time>2026-04-12T07:43:59Z</time></trkpt><trkpt lat="43.36244213685138" lon="13.580829079130233"><ele>39.0</ele><time>2026-04-12T07:44:00Z</time></trkpt><trkpt lat="43.362444959766826" lon="13.580628808264013"><ele>39.0</ele><time>2026-04-12T07:44:01Z</time></trkpt><trkpt lat="43.362451343281705" lon="13.580426285339644"><ele>39.0</ele><time>2026-04-12T07:44:02Z</time></trkpt><trkpt lat="43.362457991920856" lon="13.580224014908302"><ele>39.0</ele><time>2026-04-12T07:44:03Z</time></trkpt><trkpt lat="43.362464163492916" lon="13.580027763366335"><ele>39.0</ele><time>2026-04-12T07:44:04Z</time></trkpt><trkpt lat="43.362470251085014" lon="13.579854865172052"><ele>39.0</ele><time>2026-04-12T07:44:05Z</time></trkpt><trkpt lat="43.36247393998435" lon="13.57969077484211"><ele>39.0</ele><time>2026-04-12T07:44:06Z</time></trkpt><trkpt lat="43.36248052446131" lon="13.579540579454472"><ele>39.0</ele><time>2026-04-12T07:44:07Z</time></trkpt><trkpt lat="43.36248546721759" lon="13.579394670060454"><ele>38.8</ele><time>2026-04-12T07:44:08Z</time></trkpt><trkpt lat="43.362488529854055" lon="13.579260431017397"><ele>38.599999999999994</ele><time>2026-04-12T07:44:09Z</time></trkpt><trkpt lat="43.36249131594681" lon="13.57914011375797"><ele>38.4</ele><time>2026-04-12T07:44:10Z</time></trkpt><trkpt lat="43.362498392898516" lon="13.578940523387214"><ele>38.199999999999996</ele><time>2026-04-12T07:44:12Z</time></trkpt><trkpt lat="43.36259116134369" lon="13.578872940763727"><ele>38.0</ele><time>2026-04-12T07:44:13Z</time></trkpt><trkpt lat="43.36264502299529" lon="13.578819317039933"><ele>38.0</ele><time>2026-04-12T07:44:14Z</time></trkpt><trkpt lat="43.362738927925875" lon="13.57875763167376"><ele>38.0</ele><time>2026-04-12T07:44:16Z</time></trkpt><trkpt lat="43.362813157179204" lon="13.578817441633628"><ele>38.0</ele><time>2026-04-12T07:44:17Z</time></trkpt><trkpt lat="43.362934266963556" lon="13.578821150870608"><ele>38.0</ele><time>2026-04-12T07:44:19Z</time></trkpt><trkpt lat="43.36301166160055" lon="13.57881404519047"><ele>38.0</ele><time>2026-04-12T07:44:20Z</time></trkpt><trkpt lat="43.363100579871976" lon="13.57879817544547"><ele>37.5</ele><time>2026-04-12T07:44:21Z</time></trkpt><trkpt lat="43.36320484349206" lon="13.578782849516347"><ele>37.0</ele><time>2026-04-12T07:44:22Z</time></trkpt><trkpt lat="43.36332456898593" lon="13.578781687089554"><ele>36.5</ele><time>2026-04-12T07:44:23Z</time></trkpt><trkpt lat="43.36344809530405" lon="13.578781523288619"><ele>36.0</ele><time>2026-04-12T07:44:24Z</time></trkpt><trkpt lat="43.3635862123966" lon="13.578786012731875"><ele>36.0</ele><time>2026-04-12T07:44:25Z</time></trkpt><trkpt lat="43.363734180622444" lon="13.578795131128027"><ele>36.0</ele><time>2026-04-12T07:44:26Z</time></trkpt><trkpt lat="43.36387767613406" lon="13.578802004321666"><ele>36.0</ele><time>2026-04-12T07:44:27Z</time></trkpt><trkpt lat="43.3640160246303" lon="13.578809230622243"><ele>36.0</ele><time>2026-04-12T07:44:28Z</time></trkpt><trkpt lat="43.364141352014684" lon="13.578815540205088"><ele>36.0</ele><time>2026-04-12T07:44:29Z</time></trkpt><trkpt lat="43.36426395006608" lon="13.57881950977737"><ele>36.0</ele><time>2026-04-12T07:44:30Z</time></trkpt><trkpt lat="43.36437696429519" lon="13.578822879599688"><ele>36.0</ele><time>2026-04-12T07:44:31Z</time></trkpt><trkpt lat="43.36449216392512" lon="13.57882593662515"><ele>36.0</ele><time>2026-04-12T07:44:32Z</time></trkpt><trkpt lat="43.36460403489149" lon="13.578831702287943"><ele>36.0</ele><time>2026-04-12T07:44:33Z</time></trkpt><trkpt lat="43.364703728998045" lon="13.578833995950136"><ele>36.0</ele><time>2026-04-12T07:44:34Z</time></trkpt><trkpt lat="43.364792015564305" lon="13.578838205557103"><ele>36.0</ele><time>2026-04-12T07:44:35Z</time></trkpt><trkpt lat="43.36486013725489" lon="13.578832784620076"><ele>36.0</ele><time>2026-04-12T07:44:36Z</time></trkpt><trkpt lat="43.364901815713154" lon="13.578671566269318"><ele>36.0</ele><time>2026-04-12T07:44:39Z</time></trkpt><trkpt lat="43.36487472440992" lon="13.578515661174109"><ele>35.833333333333336</ele><time>2026-04-12T07:44:41Z</time></trkpt><trkpt lat="43.36484838019961" lon="13.57842831563344"><ele>35.666666666666664</ele><time>2026-04-12T07:44:42Z</time></trkpt><trkpt lat="43.36481779156975" lon="13.578334685378822"><ele>35.5</ele><time>2026-04-12T07:44:43Z</time></trkpt><trkpt lat="43.36478025112624" lon="13.578232247222548"><ele>35.33333333333333</ele><time>2026-04-12T07:44:44Z</time></trkpt><trkpt lat="43.36472489928011" lon="13.578124979342379"><ele>35.166666666666664</ele><time>2026-04-12T07:44:45Z</time></trkpt><trkpt lat="43.36466020557343" lon="13.578019818800632"><ele>35.0</ele><time>2026-04-12T07:44:46Z</time></trkpt><trkpt lat="43.36459094894099" lon="13.577922480451367"><ele>35.2</ele><time>2026-04-12T07:44:47Z</time></trkpt><trkpt lat="43.364517606281936" lon="13.57782426407952"><ele>35.4</ele><time>2026-04-12T07:44:48Z</time></trkpt><trkpt lat="43.36444728635186" lon="13.57772335491554"><ele>35.6</ele><time>2026-04-12T07:44:49Z</time></trkpt><trkpt lat="43.364388667116835" lon="13.577629479878807"><ele>35.8</ele><time>2026-04-12T07:44:50Z</time></trkpt><trkpt lat="43.36435257000704" lon="13.577512880915945"><ele>36.0</ele><time>2026-04-12T07:44:51Z</time></trkpt><trkpt lat="43.36431369075937" lon="13.577398802650881"><ele>36.0</ele><time>2026-04-12T07:44:52Z</time></trkpt><trkpt lat="43.36427659525421" lon="13.577284369825989"><ele>36.0</ele><time>2026-04-12T07:44:53Z</time></trkpt><trkpt lat="43.364234791267805" lon="13.577174779516506"><ele>36.0</ele><time>2026-04-12T07:44:54Z</time></trkpt><trkpt lat="43.36420612639604" lon="13.577054360583874"><ele>36.0</ele><time>2026-04-12T07:44:55Z</time></trkpt><trkpt lat="43.36418311319069" lon="13.576930633945164"><ele>36.0</ele><time>2026-04-12T07:44:56.001Z</time></trkpt><trkpt lat="43.36416654105226" lon="13.576817061065679"><ele>36.0</ele><time>2026-04-12T07:44:57.001Z</time></trkpt><trkpt lat="43.36414748378592" lon="13.576697219411429"><ele>36.0</ele><time>2026-04-12T07:44:58.001Z</time></trkpt><trkpt lat="43.36411236488928" lon="13.576478017170464"><ele>36.0</ele><time>2026-04-12T07:45:00.001Z</time></trkpt><trkpt lat="43.36409421155292" lon="13.576381938587412"><ele>36.0</ele><time>2026-04-12T07:45:01.001Z</time></trkpt><trkpt lat="43.36408846770672" lon="13.576278336071438"><ele>36.0</ele><time>2026-04-12T07:45:03.001Z</time></trkpt><trkpt lat="43.3640582521664" lon="13.576185381590529"><ele>36.0</ele><time>2026-04-12T07:45:18.001Z</time></trkpt><trkpt lat="43.36395423140997" lon="13.57622214171318"><ele>36.0</ele><time>2026-04-12T07:45:19.001Z</time></trkpt><trkpt lat="43.36384767448971" lon="13.576206925750443"><ele>36.0</ele><time>2026-04-12T07:45:21.001Z</time></trkpt><trkpt lat="43.36377076463024" lon="13.576202161242046"><ele>36.0</ele><time>2026-04-12T07:45:22.001Z</time></trkpt><trkpt lat="43.363684299933205" lon="13.576218595290056"><ele>36.0</ele><time>2026-04-12T07:45:23.001Z</time></trkpt><trkpt lat="43.36361959321243" lon="13.576193293642923"><ele>36.0</ele><time>2026-04-12T07:45:24.001Z</time></trkpt><trkpt lat="43.3635556865466" lon="13.57619040837355"><ele>36.0</ele><time>2026-04-12T07:45:25.001Z</time></trkpt><trkpt lat="43.36348419036612" lon="13.576187486849797"><ele>36.0</ele><time>2026-04-12T07:45:26.001Z</time></trkpt><trkpt lat="43.36341764175191" lon="13.576184767498553"><ele>36.0</ele><time>2026-04-12T07:45:27.001Z</time></trkpt><trkpt lat="43.363343945665065" lon="13.576181756079086"><ele>36.0</ele><time>2026-04-12T07:45:28.001Z</time></trkpt><trkpt lat="43.36323806837857" lon="13.576168067906902"><ele>36.0</ele><time>2026-04-12T07:45:30.001Z</time></trkpt><trkpt lat="43.36313284514327" lon="13.576140818518228"><ele>36.0</ele><time>2026-04-12T07:45:32.001Z</time></trkpt><trkpt lat="43.363069949552894" lon="13.576104314284086"><ele>36.166666666666664</ele><time>2026-04-12T07:45:33.001Z</time></trkpt><trkpt lat="43.36300629634552" lon="13.576056120354929"><ele>36.333333333333336</ele><time>2026-04-12T07:45:34.001Z</time></trkpt><trkpt lat="43.362933250850936" lon="13.576004356763168"><ele>36.5</ele><time>2026-04-12T07:45:35.001Z</time></trkpt><trkpt lat="43.36285775444062" lon="13.57595169466111"><ele>36.66666666666667</ele><time>2026-04-12T07:45:36.001Z</time></trkpt><trkpt lat="43.36278031412834" lon="13.575896713883024"><ele>36.833333333333336</ele><time>2026-04-12T07:45:37.001Z</time></trkpt><trkpt lat="43.36270104208877" lon="13.575838366676443"><ele>37.0</ele><time>2026-04-12T07:45:38.001Z</time></trkpt><trkpt lat="43.36262155326673" lon="13.575775890823323"><ele>37.0</ele><time>2026-04-12T07:45:39Z</time></trkpt><trkpt lat="43.36255048065688" lon="13.575687459673828"><ele>37.0</ele><time>2026-04-12T07:45:40Z</time></trkpt><trkpt lat="43.3624429014172" lon="13.575610347849068"><ele>37.0</ele><time>2026-04-12T07:45:41Z</time></trkpt><trkpt lat="43.36233423647017" lon="13.575505996057984"><ele>37.0</ele><time>2026-04-12T07:45:42Z</time></trkpt><trkpt lat="43.362240699605366" lon="13.575407008507828"><ele>37.0</ele><time>2026-04-12T07:45:43Z</time></trkpt><trkpt lat="43.362149763661584" lon="13.57532635686711"><ele>37.0</ele><time>2026-04-12T07:45:44Z</time></trkpt><trkpt lat="43.36207915376408" lon="13.575232220730513"><ele>37.0</ele><time>2026-04-12T07:45:45Z</time></trkpt><trkpt lat="43.3620004471969" lon="13.575139904436647"><ele>37.0</ele><time>2026-04-12T07:45:46Z</time></trkpt><trkpt lat="43.36190541991521" lon="13.575042396558405"><ele>37.0</ele><time>2026-04-12T07:45:47Z</time></trkpt><trkpt lat="43.361829117777035" lon="13.57493352812952"><ele>37.0</ele><time>2026-04-12T07:45:48Z</time></trkpt><trkpt lat="43.36176528185697" lon="13.57479349848298"><ele>37.0</ele><time>2026-04-12T07:45:49Z</time></trkpt><trkpt lat="43.361664899121074" lon="13.574647759005599"><ele>37.0</ele><time>2026-04-12T07:45:50Z</time></trkpt><trkpt lat="43.361590860428464" lon="13.574483044096363"><ele>37.0</ele><time>2026-04-12T07:45:51Z</time></trkpt><trkpt lat="43.36150560679767" lon="13.574346937165782"><ele>36.5</ele><time>2026-04-12T07:45:52Z</time></trkpt><trkpt lat="43.36142753572688" lon="13.574204338102607"><ele>36.0</ele><time>2026-04-12T07:45:53Z</time></trkpt><trkpt lat="43.36135289013863" lon="13.574044487423551"><ele>35.5</ele><time>2026-04-12T07:45:54Z</time></trkpt><trkpt lat="43.36125756499568" lon="13.573866563771263"><ele>35.0</ele><time>2026-04-12T07:45:55Z</time></trkpt><trkpt lat="43.36117376239275" lon="13.573710146733774"><ele>35.75</ele><time>2026-04-12T07:45:56Z</time></trkpt><trkpt lat="43.36108567796381" lon="13.573568814862954"><ele>36.5</ele><time>2026-04-12T07:45:57Z</time></trkpt><trkpt lat="43.36099939459668" lon="13.573414987133392"><ele>37.25</ele><time>2026-04-12T07:45:58Z</time></trkpt><trkpt lat="43.36094001275957" lon="13.573253559473534"><ele>38.0</ele><time>2026-04-12T07:45:59Z</time></trkpt><trkpt lat="43.36088078421517" lon="13.573119240970017"><ele>38.0</ele><time>2026-04-12T07:46:00Z</time></trkpt><trkpt lat="43.360831328413376" lon="13.572983463228818"><ele>38.0</ele><time>2026-04-12T07:46:01Z</time></trkpt><trkpt lat="43.360774360801734" lon="13.572840325041044"><ele>38.0</ele><time>2026-04-12T07:46:02Z</time></trkpt><trkpt lat="43.360725470525026" lon="13.572658264155564"><ele>38.0</ele><time>2026-04-12T07:46:03Z</time></trkpt><trkpt lat="43.36064426683951" lon="13.572433041956815"><ele>37.5</ele><time>2026-04-12T07:46:04Z</time></trkpt><trkpt lat="43.36056782919577" lon="13.572245569319994"><ele>37.0</ele><time>2026-04-12T07:46:05Z</time></trkpt><trkpt lat="43.36050164024051" lon="13.572085387949445"><ele>36.5</ele><time>2026-04-12T07:46:06Z</time></trkpt><trkpt lat="43.36043666317042" lon="13.571943556652327"><ele>36.0</ele><time>2026-04-12T07:46:07Z</time></trkpt><trkpt lat="43.36037171961702" lon="13.571788144490025"><ele>37.0</ele><time>2026-04-12T07:46:08Z</time></trkpt><trkpt lat="43.360343607434984" lon="13.571640874300224"><ele>38.0</ele><time>2026-04-12T07:46:09Z</time></trkpt><trkpt lat="43.36031712807181" lon="13.571510446063401"><ele>39.0</ele><time>2026-04-12T07:46:10Z</time></trkpt><trkpt lat="43.36027539097355" lon="13.57140343574693"><ele>40.0</ele><time>2026-04-12T07:46:11Z</time></trkpt><trkpt lat="43.36024003038691" lon="13.571286403852094"><ele>41.0</ele><time>2026-04-12T07:46:12Z</time></trkpt><trkpt lat="43.36020542929741" lon="13.571209439249744"><ele>41.0</ele><time>2026-04-12T07:46:13Z</time></trkpt><trkpt lat="43.36012081259998" lon="13.571108679993625"><ele>41.0</ele><time>2026-04-12T07:46:15Z</time></trkpt><trkpt lat="43.36005635818956" lon="13.57103023501457"><ele>41.0</ele><time>2026-04-12T07:46:17Z</time></trkpt><trkpt lat="43.360041344751096" lon="13.570937672012686"><ele>41.0</ele><time>2026-04-12T07:46:25Z</time></trkpt><trkpt lat="43.36013339798492" lon="13.570890194265465"><ele>41.0</ele><time>2026-04-12T07:46:27Z</time></trkpt><trkpt lat="43.36021960989447" lon="13.570793365739013"><ele>41.0</ele><time>2026-04-12T07:46:29Z</time></trkpt><trkpt lat="43.360332376425205" lon="13.570716811856792"><ele>41.0</ele><time>2026-04-12T07:46:31Z</time></trkpt><trkpt lat="43.360393825731265" lon="13.570661392909116"><ele>41.0</ele><time>2026-04-12T07:46:32Z</time></trkpt><trkpt lat="43.36046265512377" lon="13.570600592876744"><ele>41.0</ele><time>2026-04-12T07:46:33Z</time></trkpt><trkpt lat="43.36052395638948" lon="13.570526453656553"><ele>41.0</ele><time>2026-04-12T07:46:34Z</time></trkpt><trkpt lat="43.360601242593965" lon="13.570466644087507"><ele>40.166666666666664</ele><time>2026-04-12T07:46:35Z</time></trkpt><trkpt lat="43.36068244322264" lon="13.570417413012036"><ele>39.33333333333333</ele><time>2026-04-12T07:46:36Z</time></trkpt><trkpt lat="43.360767362922886" lon="13.570378803784639"><ele>38.5</ele><time>2026-04-12T07:46:37Z</time></trkpt><trkpt lat="43.36084632115405" lon="13.570359373394203"><ele>37.666666666666664</ele><time>2026-04-12T07:46:38Z</time></trkpt><trkpt lat="43.3609309545918" lon="13.570359647889571"><ele>36.833333333333336</ele><time>2026-04-12T07:46:39Z</time></trkpt><trkpt lat="43.36100478684505" lon="13.570391362957407"><ele>36.0</ele><time>2026-04-12T07:46:40Z</time></trkpt><trkpt lat="43.36107488549992" lon="13.570381211962445"><ele>36.00000000000001</ele><time>2026-04-12T07:46:41Z</time></trkpt><trkpt lat="43.36113992686765" lon="13.570384495056729"><ele>36.0</ele><time>2026-04-12T07:46:42Z</time></trkpt><trkpt lat="43.36120292693097" lon="13.570389883079853"><ele>36.0</ele><time>2026-04-12T07:46:43Z</time></trkpt><trkpt lat="43.36126475883847" lon="13.57036330954269"><ele>36.0</ele><time>2026-04-12T07:46:44Z</time></trkpt><trkpt lat="43.36132281170972" lon="13.57032615618462"><ele>36.0</ele><time>2026-04-12T07:46:45Z</time></trkpt><trkpt lat="43.36138083778431" lon="13.570286075460027"><ele>36.00000000000001</ele><time>2026-04-12T07:46:46Z</time></trkpt><trkpt lat="43.361469170041644" lon="13.570209580757313"><ele>36.0</ele><time>2026-04-12T07:46:48Z</time></trkpt><trkpt lat="43.361540281719165" lon="13.57017312477002"><ele>35.666666666666664</ele><time>2026-04-12T07:46:49Z</time></trkpt><trkpt lat="43.36161199866958" lon="13.570129449708762"><ele>35.333333333333336</ele><time>2026-04-12T07:46:50Z</time></trkpt><trkpt lat="43.36168385483404" lon="13.570080458816365"><ele>35.0</ele><time>2026-04-12T07:46:51Z</time></trkpt><trkpt lat="43.361762220736324" lon="13.570037578359608"><ele>34.66666666666667</ele><time>2026-04-12T07:46:52Z</time></trkpt><trkpt lat="43.361831321955" lon="13.56999475020982"><ele>34.333333333333336</ele><time>2026-04-12T07:46:53Z</time></trkpt><trkpt lat="43.36190453340721" lon="13.569953645583874"><ele>34.0</ele><time>2026-04-12T07:46:54Z</time></trkpt><trkpt lat="43.361977516732445" lon="13.569906635269362"><ele>34.0</ele><time>2026-04-12T07:46:55Z</time></trkpt><trkpt lat="43.36205292644627" lon="13.569846099254189"><ele>34.0</ele><time>2026-04-12T07:46:56Z</time></trkpt><trkpt lat="43.36214688828752" lon="13.569801447871605"><ele>34.0</ele><time>2026-04-12T07:46:57.001Z</time></trkpt><trkpt lat="43.362238858946114" lon="13.569725539420675"><ele>34.0</ele><time>2026-04-12T07:46:58.001Z</time></trkpt><trkpt lat="43.36233003330751" lon="13.569650288212882"><ele>34.0</ele><time>2026-04-12T07:46:59.001Z</time></trkpt><trkpt lat="43.362430980905934" lon="13.56957141618381"><ele>34.5</ele><time>2026-04-12T07:47:00.001Z</time></trkpt><trkpt lat="43.36252593308365" lon="13.569490069037945"><ele>35.0</ele><time>2026-04-12T07:47:01.001Z</time></trkpt><trkpt lat="43.362643859304974" lon="13.569455393251246"><ele>35.5</ele><time>2026-04-12T07:47:02.001Z</time></trkpt><trkpt lat="43.362768290896184" lon="13.569447481679594"><ele>36.0</ele><time>2026-04-12T07:47:03.001Z</time></trkpt><trkpt lat="43.362896184318515" lon="13.569449458561827"><ele>36.0</ele><time>2026-04-12T07:47:04.001Z</time></trkpt><trkpt lat="43.363019067173674" lon="13.569450732970212"><ele>36.0</ele><time>2026-04-12T07:47:05.001Z</time></trkpt><trkpt lat="43.36313480510723" lon="13.569440902687258"><ele>36.0</ele><time>2026-04-12T07:47:06.001Z</time></trkpt><trkpt lat="43.363252498841796" lon="13.569436496570619"><ele>36.0</ele><time>2026-04-12T07:47:07.001Z</time></trkpt><trkpt lat="43.3633707871418" lon="13.56939970977103"><ele>35.5</ele><time>2026-04-12T07:47:08.001Z</time></trkpt><trkpt lat="43.36348750552188" lon="13.569334147703373"><ele>35.0</ele><time>2026-04-12T07:47:09.001Z</time></trkpt><trkpt lat="43.36360405082234" lon="13.569289177787955"><ele>34.5</ele><time>2026-04-12T07:47:10.001Z</time></trkpt><trkpt lat="43.36371135935876" lon="13.56925225318458"><ele>34.0</ele><time>2026-04-12T07:47:11.001Z</time></trkpt><trkpt lat="43.36381305902535" lon="13.569211338480326"><ele>33.8</ele><time>2026-04-12T07:47:12.001Z</time></trkpt><trkpt lat="43.36390860109716" lon="13.569152738644902"><ele>33.599999999999994</ele><time>2026-04-12T07:47:13.001Z</time></trkpt><trkpt lat="43.36401332371978" lon="13.569109205330841"><ele>33.4</ele><time>2026-04-12T07:47:14.001Z</time></trkpt><trkpt lat="43.36410859102103" lon="13.569029621424958"><ele>33.199999999999996</ele><time>2026-04-12T07:47:15.001Z</time></trkpt><trkpt lat="43.36420354022275" lon="13.568927597404963"><ele>33.0</ele><time>2026-04-12T07:47:16.001Z</time></trkpt><trkpt lat="43.36428789759169" lon="13.568827183873752"><ele>33.0</ele><time>2026-04-12T07:47:17.001Z</time></trkpt><trkpt lat="43.36437093552116" lon="13.568730615912452"><ele>33.0</ele><time>2026-04-12T07:47:18.001Z</time></trkpt><trkpt lat="43.36443630466257" lon="13.568638929664505"><ele>33.0</ele><time>2026-04-12T07:47:19.001Z</time></trkpt><trkpt lat="43.36449847029724" lon="13.568567431584171"><ele>33.0</ele><time>2026-04-12T07:47:20.001Z</time></trkpt><trkpt lat="43.36456514549366" lon="13.568530985713439"><ele>33.0</ele><time>2026-04-12T07:47:21.001Z</time></trkpt><trkpt lat="43.3646473114181" lon="13.568437815458543"><ele>33.666666666666664</ele><time>2026-04-12T07:47:23.001Z</time></trkpt><trkpt lat="43.364748678692514" lon="13.56831838734603"><ele>34.333333333333336</ele><time>2026-04-12T07:47:25.001Z</time></trkpt><trkpt lat="43.36480576192312" lon="13.568253699471658"><ele>35.0</ele><time>2026-04-12T07:47:26.001Z</time></trkpt><trkpt lat="43.36486508506796" lon="13.56818625323736"><ele>35.66666666666667</ele><time>2026-04-12T07:47:27.001Z</time></trkpt><trkpt lat="43.36492654029166" lon="13.568116389387189"><ele>36.333333333333336</ele><time>2026-04-12T07:47:28.001Z</time></trkpt><trkpt lat="43.36498689340548" lon="13.568047798960144"><ele>37.0</ele><time>2026-04-12T07:47:29.001Z</time></trkpt><trkpt lat="43.365050965555746" lon="13.567974981906817"><ele>37.0</ele><time>2026-04-12T07:47:30.001Z</time></trkpt><trkpt lat="43.36509576100961" lon="13.567909989254778"><ele>37.0</ele><time>2026-04-12T07:47:31.001Z</time></trkpt><trkpt lat="43.36515138488958" lon="13.567860708410942"><ele>37.0</ele><time>2026-04-12T07:47:32.001Z</time></trkpt><trkpt lat="43.365222859723" lon="13.56774995243424"><ele>37.0</ele><time>2026-04-12T07:47:34.001Z</time></trkpt><trkpt lat="43.365280464469954" lon="13.567710711006242"><ele>37.0</ele><time>2026-04-12T07:47:36.001Z</time></trkpt><trkpt lat="43.36532328437145" lon="13.567611551024534"><ele>37.0</ele><time>2026-04-12T07:47:48Z</time></trkpt><trkpt lat="43.365265913411456" lon="13.567499583616826"><ele>36.800000000000004</ele><time>2026-04-12T07:47:49Z</time></trkpt><trkpt lat="43.36523168263987" lon="13.567420206890324"><ele>36.6</ele><time>2026-04-12T07:47:50Z</time></trkpt><trkpt lat="43.36516324526145" lon="13.567261509577339"><ele>36.400000000000006</ele><time>2026-04-12T07:47:52Z</time></trkpt><trkpt lat="43.365110358695716" lon="13.567138902867411"><ele>36.2</ele><time>2026-04-12T07:47:53Z</time></trkpt><trkpt lat="43.36505553713114" lon="13.567011834888556"><ele>36.0</ele><time>2026-04-12T07:47:54Z</time></trkpt><trkpt lat="43.364987403066785" lon="13.566883056690411"><ele>35.4</ele><time>2026-04-12T07:47:55Z</time></trkpt><trkpt lat="43.36493455891643" lon="13.56676275631191"><ele>34.8</ele><time>2026-04-12T07:47:56Z</time></trkpt><trkpt lat="43.36488195205593" lon="13.566636728189543"><ele>34.199999999999996</ele><time>2026-04-12T07:47:57Z</time></trkpt><trkpt lat="43.364827456146635" lon="13.566512528675146"><ele>33.6</ele><time>2026-04-12T07:47:58Z</time></trkpt><trkpt lat="43.36478792044245" lon="13.566409302406694"><ele>33.0</ele><time>2026-04-12T07:47:59Z</time></trkpt><trkpt lat="43.36474427825535" lon="13.566316464915015"><ele>33.0</ele><time>2026-04-12T07:48:01Z</time></trkpt><trkpt lat="43.36471749526222" lon="13.56623692640537"><ele>33.0</ele><time>2026-04-12T07:48:03Z</time></trkpt><trkpt lat="43.36474733787915" lon="13.566143059589127"><ele>33.0</ele><time>2026-04-12T07:48:05Z</time></trkpt><trkpt lat="43.364817401587445" lon="13.56610655530313"><ele>33.0</ele><time>2026-04-12T07:48:07Z</time></trkpt><trkpt lat="43.36493247839457" lon="13.566138700519874"><ele>33.0</ele><time>2026-04-12T07:48:09Z</time></trkpt><trkpt lat="43.36500732451731" lon="13.566138467941029"><ele>33.0</ele><time>2026-04-12T07:48:10Z</time></trkpt><trkpt lat="43.36510355736664" lon="13.566149620971823"><ele>33.0</ele><time>2026-04-12T07:48:11Z</time></trkpt><trkpt lat="43.3652014389144" lon="13.566160965070708"><ele>33.0</ele><time>2026-04-12T07:48:12Z</time></trkpt><trkpt lat="43.365293092712164" lon="13.566171587397319"><ele>33.0</ele><time>2026-04-12T07:48:13Z</time></trkpt><trkpt lat="43.36538060970979" lon="13.566221401618929"><ele>33.0</ele><time>2026-04-12T07:48:14Z</time></trkpt><trkpt lat="43.365471145719326" lon="13.566220829789335"><ele>33.0</ele><time>2026-04-12T07:48:15Z</time></trkpt><trkpt lat="43.36557493639236" lon="13.566218949122833"><ele>33.0</ele><time>2026-04-12T07:48:16Z</time></trkpt><trkpt lat="43.365674189282224" lon="13.566213307406645"><ele>33.0</ele><time>2026-04-12T07:48:17Z</time></trkpt><trkpt lat="43.365771881730055" lon="13.566205984837705"><ele>33.0</ele><time>2026-04-12T07:48:18Z</time></trkpt><trkpt lat="43.3658757125622" lon="13.566194138899402"><ele>33.0</ele><time>2026-04-12T07:48:19Z</time></trkpt><trkpt lat="43.365983228494365" lon="13.566188455247696"><ele>33.0</ele><time>2026-04-12T07:48:20Z</time></trkpt><trkpt lat="43.366091842109824" lon="13.56618079225533"><ele>33.0</ele><time>2026-04-12T07:48:21Z</time></trkpt><trkpt lat="43.36619126887992" lon="13.566175474007617"><ele>33.0</ele><time>2026-04-12T07:48:22Z</time></trkpt><trkpt lat="43.36627530820045" lon="13.566169683679492"><ele>33.0</ele><time>2026-04-12T07:48:23Z</time></trkpt><trkpt lat="43.366354597345946" lon="13.566169521029204"><ele>33.0</ele><time>2026-04-12T07:48:24Z</time></trkpt><trkpt lat="43.36642329371016" lon="13.566160447019714"><ele>33.0</ele><time>2026-04-12T07:48:25Z</time></trkpt><trkpt lat="43.36649247810512" lon="13.566154908666801"><ele>33.0</ele><time>2026-04-12T07:48:26Z</time></trkpt><trkpt lat="43.366587337578686" lon="13.566147945345518"><ele>33.0</ele><time>2026-04-12T07:48:28Z</time></trkpt><trkpt lat="43.36663135683567" lon="13.566081696328007"><ele>33.0</ele><time>2026-04-12T07:48:33Z</time></trkpt><trkpt lat="43.36657758858187" lon="13.566035591961903"><ele>33.0</ele><time>2026-04-12T07:48:37Z</time></trkpt><trkpt lat="43.36644141709662" lon="13.566093938353937"><ele>33.0</ele><time>2026-04-12T07:48:39Z</time></trkpt><trkpt lat="43.366315042231435" lon="13.566150239900002"><ele>33.0</ele><time>2026-04-12T07:48:41Z</time></trkpt><trkpt lat="43.366225297194084" lon="13.56616099529449"><ele>33.0</ele><time>2026-04-12T07:48:42Z</time></trkpt><trkpt lat="43.366119905110146" lon="13.566167113093382"><ele>33.0</ele><time>2026-04-12T07:48:43Z</time></trkpt><trkpt lat="43.366010216868254" lon="13.566167304653698"><ele>33.0</ele><time>2026-04-12T07:48:44Z</time></trkpt><trkpt lat="43.36590261839414" lon="13.566179103807073"><ele>33.0</ele><time>2026-04-12T07:48:45Z</time></trkpt><trkpt lat="43.36578572452801" lon="13.566192446644928"><ele>33.0</ele><time>2026-04-12T07:48:46Z</time></trkpt><trkpt lat="43.36567685436798" lon="13.566201653899917"><ele>33.0</ele><time>2026-04-12T07:48:47Z</time></trkpt><trkpt lat="43.365566486860935" lon="13.566206200325142"><ele>33.0</ele><time>2026-04-12T07:48:48Z</time></trkpt><trkpt lat="43.36545209071042" lon="13.566212807353892"><ele>33.0</ele><time>2026-04-12T07:48:49Z</time></trkpt><trkpt lat="43.36534714182739" lon="13.566215476189267"><ele>33.0</ele><time>2026-04-12T07:48:50Z</time></trkpt><trkpt lat="43.3652490102673" lon="13.566219506730864"><ele>33.0</ele><time>2026-04-12T07:48:51Z</time></trkpt><trkpt lat="43.36515934433332" lon="13.566210274064655"><ele>33.199999999999996</ele><time>2026-04-12T07:48:52Z</time></trkpt><trkpt lat="43.365078390453746" lon="13.56610089646606"><ele>33.4</ele><time>2026-04-12T07:48:53Z</time></trkpt><trkpt lat="43.36499547516765" lon="13.566091286277029"><ele>33.599999999999994</ele><time>2026-04-12T07:48:54Z</time></trkpt><trkpt lat="43.3649319205872" lon="13.566083920566976"><ele>33.8</ele><time>2026-04-12T07:48:55Z</time></trkpt><trkpt lat="43.36480877425382" lon="13.566082982939307"><ele>34.0</ele><time>2026-04-12T07:48:57Z</time></trkpt><trkpt lat="43.36471957199293" lon="13.566126720759575"><ele>34.0</ele><time>2026-04-12T07:48:59Z</time></trkpt><trkpt lat="43.364689276506304" lon="13.566221528321991"><ele>34.0</ele><time>2026-04-12T07:49:01Z</time></trkpt><trkpt lat="43.36472513861256" lon="13.566321500159875"><ele>34.0</ele><time>2026-04-12T07:49:03.001Z</time></trkpt><trkpt lat="43.364779214805786" lon="13.566433042617689"><ele>34.0</ele><time>2026-04-12T07:49:05.001Z</time></trkpt><trkpt lat="43.36481026395267" lon="13.566510322430231"><ele>34.0</ele><time>2026-04-12T07:49:06.001Z</time></trkpt><trkpt lat="43.3648553059995" lon="13.566609059797102"><ele>34.0</ele><time>2026-04-12T07:49:07.001Z</time></trkpt><trkpt lat="43.36490942702186" lon="13.566740227912277"><ele>33.8</ele><time>2026-04-12T07:49:08.001Z</time></trkpt><trkpt lat="43.36496504118404" lon="13.566865943845064"><ele>33.599999999999994</ele><time>2026-04-12T07:49:09.001Z</time></trkpt><trkpt lat="43.365013032538535" lon="13.56697756684309"><ele>33.4</ele><time>2026-04-12T07:49:10.001Z</time></trkpt><trkpt lat="43.36506417682158" lon="13.567096698451317"><ele>33.199999999999996</ele><time>2026-04-12T07:49:11.001Z</time></trkpt><trkpt lat="43.36511213672593" lon="13.567205769764984"><ele>33.0</ele><time>2026-04-12T07:49:12.001Z</time></trkpt><trkpt lat="43.365158777351844" lon="13.567310805664762"><ele>33.6</ele><time>2026-04-12T07:49:13.001Z</time></trkpt><trkpt lat="43.365198701333114" lon="13.5674016408203"><ele>34.199999999999996</ele><time>2026-04-12T07:49:14.001Z</time></trkpt><trkpt lat="43.36524099449076" lon="13.567498268684927"><ele>34.8</ele><time>2026-04-12T07:49:15.001Z</time></trkpt><trkpt lat="43.365282200476" lon="13.567597259906801"><ele>35.4</ele><time>2026-04-12T07:49:17.001Z</time></trkpt><trkpt lat="43.365243064726066" lon="13.567699931716508"><ele>36.0</ele><time>2026-04-12T07:49:28.001Z</time></trkpt><trkpt lat="43.3651357272845" lon="13.56782008528082"><ele>36.2</ele><time>2026-04-12T07:49:30.001Z</time></trkpt><trkpt lat="43.36506483436607" lon="13.567925795063825"><ele>36.400000000000006</ele><time>2026-04-12T07:49:31.001Z</time></trkpt><trkpt lat="43.36498047178123" lon="13.56801722126515"><ele>36.6</ele><time>2026-04-12T07:49:32.001Z</time></trkpt><trkpt lat="43.36489476391377" lon="13.56811398026968"><ele>36.800000000000004</ele><time>2026-04-12T07:49:33.001Z</time></trkpt><trkpt lat="43.36481408136918" lon="13.568204980731652"><ele>37.0</ele><time>2026-04-12T07:49:34.001Z</time></trkpt><trkpt lat="43.364748382248216" lon="13.568282162305476"><ele>36.66666666666667</ele><time>2026-04-12T07:49:35.001Z</time></trkpt><trkpt lat="43.36469302793928" lon="13.56834966055531"><ele>36.333333333333336</ele><time>2026-04-12T07:49:36.001Z</time></trkpt><trkpt lat="43.36464501800719" lon="13.568410217953456"><ele>36.0</ele><time>2026-04-12T07:49:37.001Z</time></trkpt><trkpt lat="43.36457099826414" lon="13.568467534046489"><ele>35.666666666666664</ele><time>2026-04-12T07:49:39.001Z</time></trkpt><trkpt lat="43.364478902629806" lon="13.568550244873782"><ele>35.33333333333333</ele><time>2026-04-12T07:49:42.001Z</time></trkpt><trkpt lat="43.36440032818787" lon="13.568636628713124"><ele>35.0</ele><time>2026-04-12T07:49:44.001Z</time></trkpt><trkpt lat="43.36429531001451" lon="13.568758640902221"><ele>34.8</ele><time>2026-04-12T07:49:46.001Z</time></trkpt><trkpt lat="43.36421903679593" lon="13.568848694825144"><ele>34.6</ele><time>2026-04-12T07:49:47.001Z</time></trkpt><trkpt lat="43.364134961187546" lon="13.568945032797"><ele>34.4</ele><time>2026-04-12T07:49:48.001Z</time></trkpt><trkpt lat="43.36404760283153" lon="13.56902934595215"><ele>34.2</ele><time>2026-04-12T07:49:49.001Z</time></trkpt><trkpt lat="43.363942292343914" lon="13.569106714581668"><ele>34.0</ele><time>2026-04-12T07:49:50.001Z</time></trkpt><trkpt lat="43.363823101003106" lon="13.569173161051614"><ele>34.0</ele><time>2026-04-12T07:49:51Z</time></trkpt><trkpt lat="43.363692214163684" lon="13.569229782595709"><ele>34.0</ele><time>2026-04-12T07:49:52Z</time></trkpt><trkpt lat="43.36356212762559" lon="13.56928059824384"><ele>34.0</ele><time>2026-04-12T07:49:53Z</time></trkpt><trkpt lat="43.36344233346872" lon="13.569327393386635"><ele>34.0</ele><time>2026-04-12T07:49:54Z</time></trkpt><trkpt lat="43.363335836637184" lon="13.569364456871913"><ele>34.0</ele><time>2026-04-12T07:49:55Z</time></trkpt><trkpt lat="43.363227306396944" lon="13.569396914573812"><ele>34.0</ele><time>2026-04-12T07:49:56Z</time></trkpt><trkpt lat="43.363113304424324" lon="13.569416047105774"><ele>34.0</ele><time>2026-04-12T07:49:57Z</time></trkpt><trkpt lat="43.36299405653232" lon="13.569421536340014"><ele>34.0</ele><time>2026-04-12T07:49:58Z</time></trkpt><trkpt lat="43.362868106072014" lon="13.569420740651003"><ele>34.25</ele><time>2026-04-12T07:49:59Z</time></trkpt><trkpt lat="43.36273610484566" lon="13.569422758964864"><ele>34.5</ele><time>2026-04-12T07:50:00Z</time></trkpt><trkpt lat="43.362616253480425" lon="13.569431612149216"><ele>34.75</ele><time>2026-04-12T07:50:01Z</time></trkpt><trkpt lat="43.36248872641097" lon="13.569473689678741"><ele>35.0</ele><time>2026-04-12T07:50:02Z</time></trkpt><trkpt lat="43.362365002979146" lon="13.569570531602917"><ele>35.0</ele><time>2026-04-12T07:50:03Z</time></trkpt><trkpt lat="43.36224182595944" lon="13.56966980789664"><ele>35.0</ele><time>2026-04-12T07:50:04Z</time></trkpt><trkpt lat="43.362125464147994" lon="13.569791879816723"><ele>35.0</ele><time>2026-04-12T07:50:05Z</time></trkpt><trkpt lat="43.36200596847009" lon="13.569877665580494"><ele>35.0</ele><time>2026-04-12T07:50:06Z</time></trkpt><trkpt lat="43.36188171824627" lon="13.569931142525805"><ele>34.8</ele><time>2026-04-12T07:50:07Z</time></trkpt><trkpt lat="43.36176596986577" lon="13.570001643279591"><ele>34.6</ele><time>2026-04-12T07:50:08Z</time></trkpt><trkpt lat="43.36166227879087" lon="13.57006479994574"><ele>34.4</ele><time>2026-04-12T07:50:09Z</time></trkpt><trkpt lat="43.3615736124405" lon="13.570143137218547"><ele>34.2</ele><time>2026-04-12T07:50:10Z</time></trkpt><trkpt lat="43.36148496153266" lon="13.570194275894023"><ele>34.0</ele><time>2026-04-12T07:50:11Z</time></trkpt><trkpt lat="43.36140157178943" lon="13.570244737286648"><ele>34.333333333333336</ele><time>2026-04-12T07:50:12Z</time></trkpt><trkpt lat="43.361318524788174" lon="13.570300551101127"><ele>34.66666666666667</ele><time>2026-04-12T07:50:13Z</time></trkpt><trkpt lat="43.36123688287675" lon="13.570342691833467"><ele>35.0</ele><time>2026-04-12T07:50:14Z</time></trkpt><trkpt lat="43.36115557871364" lon="13.570366283558833"><ele>35.333333333333336</ele><time>2026-04-12T07:50:15Z</time></trkpt><trkpt lat="43.36106944886158" lon="13.570372013322574"><ele>35.666666666666664</ele><time>2026-04-12T07:50:16Z</time></trkpt><trkpt lat="43.36098522540418" lon="13.570359795230726"><ele>36.0</ele><time>2026-04-12T07:50:17Z</time></trkpt><trkpt lat="43.36090109996399" lon="13.570350378778523"><ele>36.0</ele><time>2026-04-12T07:50:18Z</time></trkpt><trkpt lat="43.36081460769631" lon="13.570356525413132"><ele>36.0</ele><time>2026-04-12T07:50:19Z</time></trkpt><trkpt lat="43.36072971030201" lon="13.570380487945283"><ele>36.0</ele><time>2026-04-12T07:50:20Z</time></trkpt><trkpt lat="43.36064449812996" lon="13.570419759293802"><ele>36.0</ele><time>2026-04-12T07:50:21Z</time></trkpt><trkpt lat="43.36056302605532" lon="13.570470898180808"><ele>36.0</ele><time>2026-04-12T07:50:22Z</time></trkpt><trkpt lat="43.360488210162295" lon="13.570528019257088"><ele>36.0</ele><time>2026-04-12T07:50:23Z</time></trkpt><trkpt lat="43.36041370400599" lon="13.570589165416454"><ele>36.833333333333336</ele><time>2026-04-12T07:50:24Z</time></trkpt><trkpt lat="43.3603422384851" lon="13.570651520081169"><ele>37.666666666666664</ele><time>2026-04-12T07:50:25Z</time></trkpt><trkpt lat="43.36026715109721" lon="13.570721163648557"><ele>38.5</ele><time>2026-04-12T07:50:26Z</time></trkpt><trkpt lat="43.36019567508874" lon="13.570780054220076"><ele>39.33333333333333</ele><time>2026-04-12T07:50:27Z</time></trkpt><trkpt lat="43.36013322227537" lon="13.570832587934978"><ele>40.166666666666664</ele><time>2026-04-12T07:50:28Z</time></trkpt><trkpt lat="43.3600773444877" lon="13.570887074928136"><ele>41.0</ele><time>2026-04-12T07:50:29Z</time></trkpt><trkpt lat="43.35996761467465" lon="13.570975270608194"><ele>40.99999999999999</ele><time>2026-04-12T07:50:31Z</time></trkpt><trkpt lat="43.35991213281536" lon="13.57102529917673"><ele>41.0</ele><time>2026-04-12T07:50:32Z</time></trkpt><trkpt lat="43.359847173397426" lon="13.57107256256059"><ele>41.0</ele><time>2026-04-12T07:50:33Z</time></trkpt><trkpt lat="43.35978854944953" lon="13.571126019271913"><ele>41.0</ele><time>2026-04-12T07:50:34Z</time></trkpt><trkpt lat="43.35972945107672" lon="13.5711702715508"><ele>41.0</ele><time>2026-04-12T07:50:35Z</time></trkpt><trkpt lat="43.35966784571431" lon="13.571221999922995"><ele>40.99999999999999</ele><time>2026-04-12T07:50:36Z</time></trkpt><trkpt lat="43.35960564453407" lon="13.571279300370028"><ele>41.0</ele><time>2026-04-12T07:50:37Z</time></trkpt><trkpt lat="43.35954167951614" lon="13.57133969840786"><ele>41.5</ele><time>2026-04-12T07:50:38Z</time></trkpt><trkpt lat="43.35947119323433" lon="13.571400082052813"><ele>42.0</ele><time>2026-04-12T07:50:39Z</time></trkpt><trkpt lat="43.35939946115554" lon="13.571453928172431"><ele>42.5</ele><time>2026-04-12T07:50:40Z</time></trkpt><trkpt lat="43.35932785507699" lon="13.5715137946945"><ele>43.0</ele><time>2026-04-12T07:50:41Z</time></trkpt><trkpt lat="43.35925198656905" lon="13.571577626743043"><ele>43.5</ele><time>2026-04-12T07:50:42Z</time></trkpt><trkpt lat="43.35917508298816" lon="13.571641999817158"><ele>44.0</ele><time>2026-04-12T07:50:43Z</time></trkpt><trkpt lat="43.359090316644945" lon="13.571708517957763"><ele>44.0</ele><time>2026-04-12T07:50:44Z</time></trkpt><trkpt lat="43.35900539055844" lon="13.571777645025342"><ele>44.0</ele><time>2026-04-12T07:50:45Z</time></trkpt><trkpt lat="43.358915944296356" lon="13.571845959636429"><ele>44.0</ele><time>2026-04-12T07:50:46Z</time></trkpt><trkpt lat="43.3588249753794" lon="13.571925137903976"><ele>44.0</ele><time>2026-04-12T07:50:47Z</time></trkpt><trkpt lat="43.358726423842924" lon="13.57200404103473"><ele>44.0</ele><time>2026-04-12T07:50:48Z</time></trkpt><trkpt lat="43.35862429653888" lon="13.572083829490076"><ele>44.2</ele><time>2026-04-12T07:50:49Z</time></trkpt><trkpt lat="43.35853153857703" lon="13.572151682803902"><ele>44.400000000000006</ele><time>2026-04-12T07:50:50Z</time></trkpt><trkpt lat="43.35846032457886" lon="13.572217036913951"><ele>44.6</ele><time>2026-04-12T07:50:51Z</time></trkpt><trkpt lat="43.35837834291414" lon="13.57226239176641"><ele>44.8</ele><time>2026-04-12T07:50:53Z</time></trkpt><trkpt lat="43.358402749672955" lon="13.572055692548338"><ele>45.0</ele><time>2026-04-12T07:50:57Z</time></trkpt><trkpt lat="43.35839672547578" lon="13.571947531856852"><ele>45.0</ele><time>2026-04-12T07:50:58Z</time></trkpt><trkpt lat="43.358389038506786" lon="13.571821591923088"><ele>45.0</ele><time>2026-04-12T07:50:59Z</time></trkpt><trkpt lat="43.35837970509409" lon="13.57166867740678"><ele>45.0</ele><time>2026-04-12T07:51:00Z</time></trkpt><trkpt lat="43.358369869972165" lon="13.571507543070597"><ele>45.0</ele><time>2026-04-12T07:51:01Z</time></trkpt><trkpt lat="43.358359283850355" lon="13.571334104703213"><ele>45.0</ele><time>2026-04-12T07:51:02Z</time></trkpt><trkpt lat="43.3583489017016" lon="13.571148526488047"><ele>45.0</ele><time>2026-04-12T07:51:03Z</time></trkpt><trkpt lat="43.3583383184398" lon="13.570955624259266"><ele>45.0</ele><time>2026-04-12T07:51:04Z</time></trkpt><trkpt lat="43.358327138806594" lon="13.570747708541187"><ele>45.0</ele><time>2026-04-12T07:51:05Z</time></trkpt><trkpt lat="43.35831683706942" lon="13.570545061905943"><ele>45.0</ele><time>2026-04-12T07:51:06Z</time></trkpt><trkpt lat="43.35830552185663" lon="13.570332136863303"><ele>44.25</ele><time>2026-04-12T07:51:07Z</time></trkpt><trkpt lat="43.35829047274036" lon="13.570123715601053"><ele>43.5</ele><time>2026-04-12T07:51:08Z</time></trkpt><trkpt lat="43.35827307851457" lon="13.569926662175627"><ele>42.75</ele><time>2026-04-12T07:51:09Z</time></trkpt><trkpt lat="43.35823754010017" lon="13.569728150044984"><ele>42.0</ele><time>2026-04-12T07:51:10Z</time></trkpt><trkpt lat="43.35820987254286" lon="13.569524565981435"><ele>42.0</ele><time>2026-04-12T07:51:11Z</time></trkpt><trkpt lat="43.358167223825724" lon="13.569306125270138"><ele>42.0</ele><time>2026-04-12T07:51:12Z</time></trkpt><trkpt lat="43.35811920224296" lon="13.569081322424594"><ele>42.0</ele><time>2026-04-12T07:51:13.001Z</time></trkpt><trkpt lat="43.35807657575957" lon="13.568872139036449"><ele>43.666666666666664</ele><time>2026-04-12T07:51:14.001Z</time></trkpt><trkpt lat="43.35803309022837" lon="13.56867146743386"><ele>45.33333333333333</ele><time>2026-04-12T07:51:15.001Z</time></trkpt><trkpt lat="43.3579884462198" lon="13.568466022679768"><ele>47.0</ele><time>2026-04-12T07:51:16.001Z</time></trkpt><trkpt lat="43.35794504596141" lon="13.56828047642406"><ele>47.0</ele><time>2026-04-12T07:51:17.001Z</time></trkpt><trkpt lat="43.357919986888604" lon="13.568105616841176"><ele>47.0</ele><time>2026-04-12T07:51:18.001Z</time></trkpt><trkpt lat="43.35788598895042" lon="13.567940973083273"><ele>47.0</ele><time>2026-04-12T07:51:19.001Z</time></trkpt><trkpt lat="43.35786508488324" lon="13.567779157421977"><ele>47.0</ele><time>2026-04-12T07:51:20.001Z</time></trkpt><trkpt lat="43.35785458601679" lon="13.567598369079244"><ele>46.25</ele><time>2026-04-12T07:51:21.001Z</time></trkpt><trkpt lat="43.35784391958948" lon="13.567412481277035"><ele>45.5</ele><time>2026-04-12T07:51:22.001Z</time></trkpt><trkpt lat="43.35782439817843" lon="13.567219807972998"><ele>44.75</ele><time>2026-04-12T07:51:23.001Z</time></trkpt><trkpt lat="43.357824167209074" lon="13.56702037047266"><ele>44.0</ele><time>2026-04-12T07:51:24.001Z</time></trkpt><trkpt lat="43.35780843981112" lon="13.566839040961096"><ele>43.75</ele><time>2026-04-12T07:51:25.001Z</time></trkpt><trkpt lat="43.35779537946698" lon="13.566676278969458"><ele>43.5</ele><time>2026-04-12T07:51:26.001Z</time></trkpt><trkpt lat="43.35776413096944" lon="13.566528375553206"><ele>43.25</ele><time>2026-04-12T07:51:27.001Z</time></trkpt><trkpt lat="43.357702081584016" lon="13.566393727763563"><ele>43.0</ele><time>2026-04-12T07:51:28.001Z</time></trkpt><trkpt lat="43.35760762888663" lon="13.566260020084936"><ele>42.333333333333336</ele><time>2026-04-12T07:51:29.001Z</time></trkpt><trkpt lat="43.357491050609354" lon="13.566141459153442"><ele>41.666666666666664</ele><time>2026-04-12T07:51:30.001Z</time></trkpt><trkpt lat="43.357366824881915" lon="13.56601229090834"><ele>41.0</ele><time>2026-04-12T07:51:31.001Z</time></trkpt><trkpt lat="43.357244239082945" lon="13.565882930633398"><ele>43.0</ele><time>2026-04-12T07:51:32.001Z</time></trkpt><trkpt lat="43.35714530110877" lon="13.565761785173466"><ele>45.0</ele><time>2026-04-12T07:51:33.001Z</time></trkpt><trkpt lat="43.357066128403396" lon="13.565653169177926"><ele>47.0</ele><time>2026-04-12T07:51:34.001Z</time></trkpt><trkpt lat="43.35699286205525" lon="13.565529634821669"><ele>49.0</ele><time>2026-04-12T07:51:35.001Z</time></trkpt><trkpt lat="43.35693944974414" lon="13.565374945960611"><ele>47.5</ele><time>2026-04-12T07:51:36.001Z</time></trkpt><trkpt lat="43.35687858289048" lon="13.56520822022994"><ele>46.0</ele><time>2026-04-12T07:51:37.001Z</time></trkpt><trkpt lat="43.35680422377732" lon="13.565043540884812"><ele>44.5</ele><time>2026-04-12T07:51:38.001Z</time></trkpt><trkpt lat="43.35674604056485" lon="13.564862776811484"><ele>43.0</ele><time>2026-04-12T07:51:39.001Z</time></trkpt><trkpt lat="43.356683565046154" lon="13.564680661365498"><ele>43.25</ele><time>2026-04-12T07:51:40.001Z</time></trkpt><trkpt lat="43.356616285549045" lon="13.56452766575937"><ele>43.5</ele><time>2026-04-12T07:51:41.001Z</time></trkpt><trkpt lat="43.35654589497199" lon="13.564395245125548"><ele>43.75</ele><time>2026-04-12T07:51:42.001Z</time></trkpt><trkpt lat="43.35644000587885" lon="13.564284030520374"><ele>44.0</ele><time>2026-04-12T07:51:43.001Z</time></trkpt><trkpt lat="43.356361834957944" lon="13.564190318877229"><ele>44.0</ele><time>2026-04-12T07:51:44.001Z</time></trkpt><trkpt lat="43.35628384735462" lon="13.56412436628938"><ele>44.0</ele><time>2026-04-12T07:51:45.001Z</time></trkpt><trkpt lat="43.3562158010345" lon="13.564023169934748"><ele>44.0</ele><time>2026-04-12T07:51:47.001Z</time></trkpt><trkpt lat="43.356325766524655" lon="13.563878914583531"><ele>44.0</ele><time>2026-04-12T07:51:51.001Z</time></trkpt><trkpt lat="43.356398524252604" lon="13.563840098747423"><ele>44.0</ele><time>2026-04-12T07:51:52.001Z</time></trkpt><trkpt lat="43.35647858235265" lon="13.563787716205"><ele>44.0</ele><time>2026-04-12T07:51:53.001Z</time></trkpt><trkpt lat="43.35656051292935" lon="13.563724497765403"><ele>44.0</ele><time>2026-04-12T07:51:54.001Z</time></trkpt><trkpt lat="43.356649456177" lon="13.563664930055928"><ele>44.0</ele><time>2026-04-12T07:51:55.001Z</time></trkpt><trkpt lat="43.35674090739629" lon="13.563599496997497"><ele>44.0</ele><time>2026-04-12T07:51:56.001Z</time></trkpt><trkpt lat="43.35684178300473" lon="13.563532425322963"><ele>44.0</ele><time>2026-04-12T07:51:57Z</time></trkpt><trkpt lat="43.3569480780903" lon="13.563463952304275"><ele>43.75</ele><time>2026-04-12T07:51:58Z</time></trkpt><trkpt lat="43.357051037776735" lon="13.563394013415996"><ele>43.5</ele><time>2026-04-12T07:51:59Z</time></trkpt><trkpt lat="43.357157596783665" lon="13.563320909794939"><ele>43.25</ele><time>2026-04-12T07:52:00Z</time></trkpt><trkpt lat="43.357265087948385" lon="13.563247057045816"><ele>43.0</ele><time>2026-04-12T07:52:01Z</time></trkpt><trkpt lat="43.35736837060779" lon="13.56317334977481"><ele>42.5</ele><time>2026-04-12T07:52:02Z</time></trkpt><trkpt lat="43.35747398665063" lon="13.563097189386411"><ele>42.0</ele><time>2026-04-12T07:52:03Z</time></trkpt><trkpt lat="43.357587195704696" lon="13.563023691866148"><ele>41.5</ele><time>2026-04-12T07:52:04Z</time></trkpt><trkpt lat="43.357712564782894" lon="13.562947607452037"><ele>41.0</ele><time>2026-04-12T07:52:05Z</time></trkpt><trkpt lat="43.357828561184405" lon="13.562873418050907"><ele>40.75</ele><time>2026-04-12T07:52:06Z</time></trkpt><trkpt lat="43.35795149748203" lon="13.562787577580805"><ele>40.5</ele><time>2026-04-12T07:52:07Z</time></trkpt><trkpt lat="43.3580745657013" lon="13.562711857086267"><ele>40.25</ele><time>2026-04-12T07:52:08Z</time></trkpt><trkpt lat="43.358201430825176" lon="13.562637685658522"><ele>40.0</ele><time>2026-04-12T07:52:09Z</time></trkpt><trkpt lat="43.35831579045575" lon="13.562583740231979"><ele>39.5</ele><time>2026-04-12T07:52:10Z</time></trkpt><trkpt lat="43.35842790361214" lon="13.562538746543488"><ele>39.0</ele><time>2026-04-12T07:52:11Z</time></trkpt><trkpt lat="43.358542943342165" lon="13.56249885072545"><ele>38.5</ele><time>2026-04-12T07:52:12Z</time></trkpt><trkpt lat="43.35865932506657" lon="13.562464303861685"><ele>38.0</ele><time>2026-04-12T07:52:13Z</time></trkpt><trkpt lat="43.358772041692816" lon="13.562432479753417"><ele>37.75</ele><time>2026-04-12T07:52:14Z</time></trkpt><trkpt lat="43.35888391956156" lon="13.562403281729065"><ele>37.5</ele><time>2026-04-12T07:52:15Z</time></trkpt><trkpt lat="43.35899745803107" lon="13.562378020572138"><ele>37.25</ele><time>2026-04-12T07:52:16Z</time></trkpt><trkpt lat="43.359112903806995" lon="13.562353632035455"><ele>37.0</ele><time>2026-04-12T07:52:17Z</time></trkpt><trkpt lat="43.359229129584236" lon="13.562325374684129"><ele>37.0</ele><time>2026-04-12T07:52:18Z</time></trkpt><trkpt lat="43.35934935395396" lon="13.562298450293305"><ele>37.0</ele><time>2026-04-12T07:52:19Z</time></trkpt><trkpt lat="43.359465414406955" lon="13.562272650634004"><ele>37.0</ele><time>2026-04-12T07:52:20Z</time></trkpt><trkpt lat="43.359586296899906" lon="13.562248088033753"><ele>37.0</ele><time>2026-04-12T07:52:21Z</time></trkpt><trkpt lat="43.35970475201672" lon="13.56221996702356"><ele>37.5</ele><time>2026-04-12T07:52:22Z</time></trkpt><trkpt lat="43.359824891846934" lon="13.562191607358962"><ele>38.0</ele><time>2026-04-12T07:52:23Z</time></trkpt><trkpt lat="43.35995006933672" lon="13.562163539657089"><ele>38.5</ele><time>2026-04-12T07:52:24Z</time></trkpt><trkpt lat="43.36007269057201" lon="13.562136117065853"><ele>39.0</ele><time>2026-04-12T07:52:25Z</time></trkpt><trkpt lat="43.36019437644439" lon="13.562109034332913"><ele>39.0</ele><time>2026-04-12T07:52:26Z</time></trkpt><trkpt lat="43.36031593111168" lon="13.562083439830719"><ele>39.0</ele><time>2026-04-12T07:52:27Z</time></trkpt><trkpt lat="43.36043758386365" lon="13.562057920700619"><ele>39.0</ele><time>2026-04-12T07:52:28Z</time></trkpt><trkpt lat="43.360544257742276" lon="13.562034341577437"><ele>39.0</ele><time>2026-04-12T07:52:29Z</time></trkpt><trkpt lat="43.36064854510763" lon="13.56200889944296"><ele>38.6</ele><time>2026-04-12T07:52:30Z</time></trkpt><trkpt lat="43.36075306268126" lon="13.56198171625112"><ele>38.2</ele><time>2026-04-12T07:52:31Z</time></trkpt><trkpt lat="43.36085786334285" lon="13.561955368882098"><ele>37.800000000000004</ele><time>2026-04-12T07:52:32Z</time></trkpt><trkpt lat="43.360952047430466" lon="13.561925119440744"><ele>37.4</ele><time>2026-04-12T07:52:33Z</time></trkpt><trkpt lat="43.361032550623655" lon="13.561883785378972"><ele>37.0</ele><time>2026-04-12T07:52:34Z</time></trkpt><trkpt lat="43.36110382682569" lon="13.561834465994336"><ele>37.0</ele><time>2026-04-12T07:52:35Z</time></trkpt><trkpt lat="43.36117284728078" lon="13.561786393101778"><ele>37.0</ele><time>2026-04-12T07:52:36Z</time></trkpt><trkpt lat="43.361229413719855" lon="13.561739923037553"><ele>37.0</ele><time>2026-04-12T07:52:37Z</time></trkpt><trkpt lat="43.3612880783305" lon="13.561589319858903"><ele>37.0</ele><time>2026-04-12T07:52:39Z</time></trkpt><trkpt lat="43.361297632521165" lon="13.561480155856136"><ele>37.0</ele><time>2026-04-12T07:52:40Z</time></trkpt><trkpt lat="43.36129848022525" lon="13.561352431213807"><ele>37.0</ele><time>2026-04-12T07:52:41Z</time></trkpt><trkpt lat="43.36130227256648" lon="13.5612101082749"><ele>37.25</ele><time>2026-04-12T07:52:42Z</time></trkpt><trkpt lat="43.361308605121" lon="13.561045148832543"><ele>37.5</ele><time>2026-04-12T07:52:43Z</time></trkpt><trkpt lat="43.36131781403809" lon="13.560876442807304"><ele>37.75</ele><time>2026-04-12T07:52:44Z</time></trkpt><trkpt lat="43.36132573218042" lon="13.56071416254512"><ele>38.0</ele><time>2026-04-12T07:52:45Z</time></trkpt><trkpt lat="43.36133549482402" lon="13.560558637582856"><ele>38.0</ele><time>2026-04-12T07:52:46Z</time></trkpt><trkpt lat="43.361346038459274" lon="13.560393552592231"><ele>38.0</ele><time>2026-04-12T07:52:47Z</time></trkpt><trkpt lat="43.361368055557755" lon="13.560069600540078"><ele>38.0</ele><time>2026-04-12T07:52:49Z</time></trkpt><trkpt lat="43.36136723571381" lon="13.55990709302377"><ele>38.0</ele><time>2026-04-12T07:52:50Z</time></trkpt><trkpt lat="43.36137735095862" lon="13.559756361365292"><ele>38.0</ele><time>2026-04-12T07:52:51Z</time></trkpt><trkpt lat="43.3614153635891" lon="13.5596249868815"><ele>38.0</ele><time>2026-04-12T07:52:52Z</time></trkpt><trkpt lat="43.3614620344997" lon="13.55950434914164"><ele>38.0</ele><time>2026-04-12T07:52:53Z</time></trkpt><trkpt lat="43.36151030329228" lon="13.559370014721583"><ele>38.0</ele><time>2026-04-12T07:52:54Z</time></trkpt><trkpt lat="43.36157377614498" lon="13.559231865781086"><ele>37.8</ele><time>2026-04-12T07:52:55Z</time></trkpt><trkpt lat="43.36163586988909" lon="13.559084111148376"><ele>37.599999999999994</ele><time>2026-04-12T07:52:56Z</time></trkpt><trkpt lat="43.36169416737896" lon="13.558950721361995"><ele>37.400000000000006</ele><time>2026-04-12T07:52:57Z</time></trkpt><trkpt lat="43.361751910672886" lon="13.558830460154356"><ele>37.2</ele><time>2026-04-12T07:52:58Z</time></trkpt><trkpt lat="43.361793632188395" lon="13.558715124347506"><ele>37.0</ele><time>2026-04-12T07:52:59Z</time></trkpt><trkpt lat="43.36183037117698" lon="13.558635751288273"><ele>37.0</ele><time>2026-04-12T07:53:00Z</time></trkpt><trkpt lat="43.36187570729218" lon="13.558566822252608"><ele>37.0</ele><time>2026-04-12T07:53:01Z</time></trkpt><trkpt lat="43.36198753286455" lon="13.558529326344306"><ele>37.0</ele><time>2026-04-12T07:53:03Z</time></trkpt><trkpt lat="43.362069605227525" lon="13.55853587338209"><ele>37.0</ele><time>2026-04-12T07:53:04Z</time></trkpt><trkpt lat="43.36216147365919" lon="13.558557328169908"><ele>37.0</ele><time>2026-04-12T07:53:05Z</time></trkpt><trkpt lat="43.36226536769284" lon="13.55857863870991"><ele>37.0</ele><time>2026-04-12T07:53:06Z</time></trkpt><trkpt lat="43.36236164698828" lon="13.558596525394085"><ele>37.0</ele><time>2026-04-12T07:53:07Z</time></trkpt><trkpt lat="43.36245213376474" lon="13.558609485583014"><ele>37.0</ele><time>2026-04-12T07:53:08Z</time></trkpt><trkpt lat="43.36253047450091" lon="13.558619758589293"><ele>37.0</ele><time>2026-04-12T07:53:09Z</time></trkpt><trkpt lat="43.362603735887525" lon="13.558630724646944"><ele>37.0</ele><time>2026-04-12T07:53:10.001Z</time></trkpt><trkpt lat="43.36267517942863" lon="13.55864899599317"><ele>37.0</ele><time>2026-04-12T07:53:11.001Z</time></trkpt><trkpt lat="43.36275255112776" lon="13.558582729577275"><ele>37.0</ele><time>2026-04-12T07:53:13.001Z</time></trkpt><trkpt lat="43.36276752161076" lon="13.558447088951135"><ele>37.0</ele><time>2026-04-12T07:53:15.001Z</time></trkpt><trkpt lat="43.362760578013656" lon="13.558341786721"><ele>37.0</ele><time>2026-04-12T07:53:16.001Z</time></trkpt><trkpt lat="43.36274375661157" lon="13.558212014753996"><ele>37.0</ele><time>2026-04-12T07:53:17.001Z</time></trkpt><trkpt lat="43.362728850960984" lon="13.55805577277684"><ele>37.0</ele><time>2026-04-12T07:53:18.001Z</time></trkpt><trkpt lat="43.36271327678141" lon="13.557885233885774"><ele>36.5</ele><time>2026-04-12T07:53:19.001Z</time></trkpt><trkpt lat="43.362700558176314" lon="13.557727374269735"><ele>36.0</ele><time>2026-04-12T07:53:20.001Z</time></trkpt><trkpt lat="43.36268477097184" lon="13.557538586668331"><ele>35.5</ele><time>2026-04-12T07:53:21.001Z</time></trkpt><trkpt lat="43.362673214618766" lon="13.557352567021892"><ele>35.0</ele><time>2026-04-12T07:53:22.001Z</time></trkpt><trkpt lat="43.36266131339037" lon="13.557152211193664"><ele>35.75</ele><time>2026-04-12T07:53:23.001Z</time></trkpt><trkpt lat="43.36264848589503" lon="13.55697261817287"><ele>36.5</ele><time>2026-04-12T07:53:24.001Z</time></trkpt><trkpt lat="43.362641513908756" lon="13.556795278554574"><ele>37.25</ele><time>2026-04-12T07:53:25.001Z</time></trkpt><trkpt lat="43.36263477655981" lon="13.556623487403039"><ele>38.0</ele><time>2026-04-12T07:53:26.001Z</time></trkpt><trkpt lat="43.362629830534416" lon="13.556469064789543"><ele>38.0</ele><time>2026-04-12T07:53:27.001Z</time></trkpt><trkpt lat="43.36262438379792" lon="13.556317423751198"><ele>38.0</ele><time>2026-04-12T07:53:28.001Z</time></trkpt><trkpt lat="43.362620914083415" lon="13.5561908548058"><ele>38.0</ele><time>2026-04-12T07:53:29.001Z</time></trkpt><trkpt lat="43.36263647719732" lon="13.556087697441107"><ele>38.0</ele><time>2026-04-12T07:53:30.001Z</time></trkpt><trkpt lat="43.36267137350437" lon="13.55600581004697"><ele>38.0</ele><time>2026-04-12T07:53:31.001Z</time></trkpt><trkpt lat="43.36271751254384" lon="13.555901621295199"><ele>38.0</ele><time>2026-04-12T07:53:32.001Z</time></trkpt><trkpt lat="43.362816609774924" lon="13.555830479502156"><ele>38.166666666666664</ele><time>2026-04-12T07:53:33.001Z</time></trkpt><trkpt lat="43.36290041342007" lon="13.555752966357973"><ele>38.33333333333333</ele><time>2026-04-12T07:53:34.001Z</time></trkpt><trkpt lat="43.36295692696017" lon="13.555657577627992"><ele>38.5</ele><time>2026-04-12T07:53:35.001Z</time></trkpt><trkpt lat="43.363020963225836" lon="13.55560058555095"><ele>38.666666666666664</ele><time>2026-04-12T07:53:36.001Z</time></trkpt><trkpt lat="43.36302377162187" lon="13.555485684063175"><ele>38.833333333333336</ele><time>2026-04-12T07:53:37.001Z</time></trkpt><trkpt lat="43.36302168473592" lon="13.555369373399397"><ele>39.0</ele><time>2026-04-12T07:53:38.001Z</time></trkpt><trkpt lat="43.363003861227135" lon="13.555228653780928"><ele>39.0</ele><time>2026-04-12T07:53:39.001Z</time></trkpt><trkpt lat="43.3629824270497" lon="13.555083931570062"><ele>39.0</ele><time>2026-04-12T07:53:40.001Z</time></trkpt><trkpt lat="43.362964533953544" lon="13.55492293294753"><ele>39.0</ele><time>2026-04-12T07:53:41.001Z</time></trkpt><trkpt lat="43.36295212726145" lon="13.554766480411143"><ele>39.0</ele><time>2026-04-12T07:53:42.001Z</time></trkpt><trkpt lat="43.362938357841855" lon="13.554607922650451"><ele>39.0</ele><time>2026-04-12T07:53:43.001Z</time></trkpt><trkpt lat="43.36292562666247" lon="13.554447776654888"><ele>39.0</ele><time>2026-04-12T07:53:44.001Z</time></trkpt><trkpt lat="43.36290743640796" lon="13.554278634243767"><ele>39.0</ele><time>2026-04-12T07:53:45.001Z</time></trkpt><trkpt lat="43.362897899916604" lon="13.554094468761148"><ele>39.0</ele><time>2026-04-12T07:53:46.001Z</time></trkpt><trkpt lat="43.36287222509245" lon="13.553907295526232"><ele>39.0</ele><time>2026-04-12T07:53:47.001Z</time></trkpt><trkpt lat="43.36285588843528" lon="13.553731221224169"><ele>39.0</ele><time>2026-04-12T07:53:48.001Z</time></trkpt><trkpt lat="43.36284241862967" lon="13.553577248648724"><ele>39.0</ele><time>2026-04-12T07:53:49.001Z</time></trkpt><trkpt lat="43.3628287321828" lon="13.553403976301253"><ele>39.0</ele><time>2026-04-12T07:53:50.001Z</time></trkpt><trkpt lat="43.362825960903756" lon="13.553235747119224"><ele>38.75</ele><time>2026-04-12T07:53:51.001Z</time></trkpt><trkpt lat="43.36283911857992" lon="13.553074929080841"><ele>38.5</ele><time>2026-04-12T07:53:52.001Z</time></trkpt><trkpt lat="43.362854072637255" lon="13.552912257351782"><ele>38.25</ele><time>2026-04-12T07:53:53.001Z</time></trkpt><trkpt lat="43.36286701190053" lon="13.552742962411763"><ele>38.0</ele><time>2026-04-12T07:53:54.001Z</time></trkpt><trkpt lat="43.362866491040016" lon="13.55257604934266"><ele>38.0</ele><time>2026-04-12T07:53:55.001Z</time></trkpt><trkpt lat="43.36285536508311" lon="13.552400746903322"><ele>38.0</ele><time>2026-04-12T07:53:56.001Z</time></trkpt><trkpt lat="43.362841263669424" lon="13.552220781860916"><ele>38.0</ele><time>2026-04-12T07:53:57.001Z</time></trkpt><trkpt lat="43.36282719874033" lon="13.552057574325175"><ele>38.0</ele><time>2026-04-12T07:53:58.001Z</time></trkpt><trkpt lat="43.36281484764877" lon="13.551902308771743"><ele>38.4</ele><time>2026-04-12T07:53:59.001Z</time></trkpt><trkpt lat="43.36280108230521" lon="13.55174559245602"><ele>38.8</ele><time>2026-04-12T07:54:00.001Z</time></trkpt><trkpt lat="43.36278859478895" lon="13.551599003183872"><ele>39.2</ele><time>2026-04-12T07:54:01.001Z</time></trkpt><trkpt lat="43.36277858969233" lon="13.551464828055204"><ele>39.6</ele><time>2026-04-12T07:54:02.001Z</time></trkpt><trkpt lat="43.3627704094528" lon="13.551344910176931"><ele>40.0</ele><time>2026-04-12T07:54:03Z</time></trkpt><trkpt lat="43.36276244050593" lon="13.551239222141223"><ele>40.2</ele><time>2026-04-12T07:54:04Z</time></trkpt><trkpt lat="43.362769251562916" lon="13.551113055079616"><ele>40.4</ele><time>2026-04-12T07:54:06Z</time></trkpt><trkpt lat="43.36291965195323" lon="13.551062334046373"><ele>40.599999999999994</ele><time>2026-04-12T07:54:09Z</time></trkpt><trkpt lat="43.36299055640279" lon="13.551021559561887"><ele>40.8</ele><time>2026-04-12T07:54:10Z</time></trkpt><trkpt lat="43.363088009252785" lon="13.550996236001525"><ele>41.0</ele><time>2026-04-12T07:54:11Z</time></trkpt><trkpt lat="43.36319711981464" lon="13.550957494982192"><ele>40.5</ele><time>2026-04-12T07:54:12Z</time></trkpt><trkpt lat="43.36332425174068" lon="13.5509143892305"><ele>40.0</ele><time>2026-04-12T07:54:13Z</time></trkpt><trkpt lat="43.36344705347638" lon="13.550866832324335"><ele>39.5</ele><time>2026-04-12T07:54:14Z</time></trkpt><trkpt lat="43.363573600691716" lon="13.55082823198547"><ele>39.0</ele><time>2026-04-12T07:54:15Z</time></trkpt><trkpt lat="43.363699754474155" lon="13.550786487449797"><ele>39.0</ele><time>2026-04-12T07:54:16Z</time></trkpt><trkpt lat="43.36381420809559" lon="13.550748137158209"><ele>39.0</ele><time>2026-04-12T07:54:17Z</time></trkpt><trkpt lat="43.36392038590122" lon="13.550710725153396"><ele>39.0</ele><time>2026-04-12T07:54:18Z</time></trkpt><trkpt lat="43.36401503545897" lon="13.550682293313976"><ele>39.0</ele><time>2026-04-12T07:54:19Z</time></trkpt><trkpt lat="43.36409650619226" lon="13.550657661193696"><ele>39.0</ele><time>2026-04-12T07:54:20Z</time></trkpt><trkpt lat="43.36417502197733" lon="13.55064263986616"><ele>38.8</ele><time>2026-04-12T07:54:21Z</time></trkpt><trkpt lat="43.36427115447387" lon="13.55063006068341"><ele>38.599999999999994</ele><time>2026-04-12T07:54:23Z</time></trkpt><trkpt lat="43.364256767002175" lon="13.550441825395687"><ele>38.4</ele><time>2026-04-12T07:54:26Z</time></trkpt><trkpt lat="43.3642034906967" lon="13.550325521135905"><ele>38.199999999999996</ele><time>2026-04-12T07:54:28Z</time></trkpt><trkpt lat="43.364176813812456" lon="13.550189902309986"><ele>38.0</ele><time>2026-04-12T07:54:30Z</time></trkpt><trkpt lat="43.36415186002531" lon="13.550092345393928"><ele>38.0</ele><time>2026-04-12T07:54:38Z</time></trkpt><trkpt lat="43.36416808502748" lon="13.550303461241773"><ele>38.0</ele><time>2026-04-12T07:54:45Z</time></trkpt><trkpt lat="43.3641945522264" lon="13.550397409794014"><ele>38.0</ele><time>2026-04-12T07:54:46Z</time></trkpt><trkpt lat="43.364241943259714" lon="13.550512734566738"><ele>38.0</ele><time>2026-04-12T07:54:48Z</time></trkpt><trkpt lat="43.36433889383368" lon="13.550591611353498"><ele>38.0</ele><time>2026-04-12T07:54:50Z</time></trkpt><trkpt lat="43.36441893120776" lon="13.55061430970373"><ele>38.0</ele><time>2026-04-12T07:54:51Z</time></trkpt><trkpt lat="43.3645149658031" lon="13.550619103300033"><ele>38.0</ele><time>2026-04-12T07:54:52Z</time></trkpt><trkpt lat="43.364618653218095" lon="13.55062035806672"><ele>38.0</ele><time>2026-04-12T07:54:53Z</time></trkpt><trkpt lat="43.36470600825956" lon="13.550620459405465"><ele>38.0</ele><time>2026-04-12T07:54:54Z</time></trkpt><trkpt lat="43.364794043945786" lon="13.55062163264822"><ele>38.0</ele><time>2026-04-12T07:54:55Z</time></trkpt><trkpt lat="43.36488952869674" lon="13.550625752344956"><ele>37.666666666666664</ele><time>2026-04-12T07:54:56Z</time></trkpt><trkpt lat="43.364978141472086" lon="13.550629112969334"><ele>37.33333333333333</ele><time>2026-04-12T07:54:57Z</time></trkpt><trkpt lat="43.365063187821846" lon="13.550633078811465"><ele>37.0</ele><time>2026-04-12T07:54:58Z</time></trkpt><trkpt lat="43.365135621372836" lon="13.55065868323993"><ele>36.666666666666664</ele><time>2026-04-12T07:54:59Z</time></trkpt><trkpt lat="43.36519520278176" lon="13.550698011848983"><ele>36.333333333333336</ele><time>2026-04-12T07:55:00Z</time></trkpt><trkpt lat="43.36524298912265" lon="13.550772205698662"><ele>36.0</ele><time>2026-04-12T07:55:01Z</time></trkpt><trkpt lat="43.365277083116105" lon="13.550865360761128"><ele>36.0</ele><time>2026-04-12T07:55:02Z</time></trkpt><trkpt lat="43.3652978104035" lon="13.550974069933782"><ele>36.0</ele><time>2026-04-12T07:55:03Z</time></trkpt><trkpt lat="43.36529696281735" lon="13.551087312450928"><ele>36.0</ele><time>2026-04-12T07:55:04Z</time></trkpt><trkpt lat="43.36528504422902" lon="13.551199402380023"><ele>36.0</ele><time>2026-04-12T07:55:05Z</time></trkpt><trkpt lat="43.365273454705026" lon="13.55130145122497"><ele>36.0</ele><time>2026-04-12T07:55:06Z</time></trkpt><trkpt lat="43.36526685965036" lon="13.551413348362246"><ele>36.0</ele><time>2026-04-12T07:55:07Z</time></trkpt><trkpt lat="43.365260784123386" lon="13.551512540567405"><ele>36.2</ele><time>2026-04-12T07:55:08Z</time></trkpt><trkpt lat="43.36525122140657" lon="13.551613609023127"><ele>36.400000000000006</ele><time>2026-04-12T07:55:09Z</time></trkpt><trkpt lat="43.36524318713942" lon="13.551726810076989"><ele>36.6</ele><time>2026-04-12T07:55:10Z</time></trkpt><trkpt lat="43.365237129152305" lon="13.551856770814698"><ele>36.800000000000004</ele><time>2026-04-12T07:55:11Z</time></trkpt><trkpt lat="43.36524271182174" lon="13.551998043055104"><ele>37.0</ele><time>2026-04-12T07:55:12Z</time></trkpt><trkpt lat="43.36524888515947" lon="13.552152745993592"><ele>37.5</ele><time>2026-04-12T07:55:13Z</time></trkpt><trkpt lat="43.36525514846087" lon="13.552322047646935"><ele>38.0</ele><time>2026-04-12T07:55:14Z</time></trkpt><trkpt lat="43.36526347359899" lon="13.552497382488648"><ele>38.5</ele><time>2026-04-12T07:55:15Z</time></trkpt><trkpt lat="43.3652741566906" lon="13.552672659355999"><ele>39.0</ele><time>2026-04-12T07:55:16Z</time></trkpt><trkpt lat="43.36528484284578" lon="13.55282996218777"><ele>38.75</ele><time>2026-04-12T07:55:17Z</time></trkpt><trkpt lat="43.36529367094927" lon="13.55299831922668"><ele>38.5</ele><time>2026-04-12T07:55:18Z</time></trkpt><trkpt lat="43.36530508077257" lon="13.55318524435107"><ele>38.25</ele><time>2026-04-12T07:55:19Z</time></trkpt><trkpt lat="43.365312972028896" lon="13.55336028122283"><ele>38.0</ele><time>2026-04-12T07:55:20.001Z</time></trkpt><trkpt lat="43.36532088482246" lon="13.553524630037662"><ele>38.0</ele><time>2026-04-12T07:55:21.001Z</time></trkpt><trkpt lat="43.36533055942933" lon="13.55367492527413"><ele>38.0</ele><time>2026-04-12T07:55:22.001Z</time></trkpt><trkpt lat="43.36534033695929" lon="13.553812190242194"><ele>38.0</ele><time>2026-04-12T07:55:23.001Z</time></trkpt><trkpt lat="43.36535439749314" lon="13.553932074143797"><ele>38.0</ele><time>2026-04-12T07:55:24.001Z</time></trkpt><trkpt lat="43.36538153473633" lon="13.554020886152783"><ele>38.0</ele><time>2026-04-12T07:55:25.001Z</time></trkpt><trkpt lat="43.36543395894928" lon="13.554070756959845"><ele>38.0</ele><time>2026-04-12T07:55:26.001Z</time></trkpt><trkpt lat="43.36555331241144" lon="13.554059118720962"><ele>38.4</ele><time>2026-04-12T07:55:28.001Z</time></trkpt><trkpt lat="43.36562858284603" lon="13.55401516963328"><ele>38.8</ele><time>2026-04-12T07:55:29.001Z</time></trkpt><trkpt lat="43.365718929643705" lon="13.553969388904045"><ele>39.2</ele><time>2026-04-12T07:55:30.001Z</time></trkpt><trkpt lat="43.365828782049896" lon="13.553944202481432"><ele>39.6</ele><time>2026-04-12T07:55:31.001Z</time></trkpt><trkpt lat="43.36595130210348" lon="13.553884498716082"><ele>40.0</ele><time>2026-04-12T07:55:32.001Z</time></trkpt><trkpt lat="43.36609427108167" lon="13.553824198344177"><ele>40.0</ele><time>2026-04-12T07:55:33.001Z</time></trkpt><trkpt lat="43.3662408324143" lon="13.553767197332911"><ele>40.0</ele><time>2026-04-12T07:55:34.001Z</time></trkpt><trkpt lat="43.36639312926107" lon="13.55370483715672"><ele>40.0</ele><time>2026-04-12T07:55:35.001Z</time></trkpt><trkpt lat="43.366545558204336" lon="13.553646281159665"><ele>40.0</ele><time>2026-04-12T07:55:36.001Z</time></trkpt><trkpt lat="43.36668309363477" lon="13.553601054952267"><ele>40.0</ele><time>2026-04-12T07:55:37.001Z</time></trkpt><trkpt lat="43.36682770833751" lon="13.553567535554558"><ele>40.0</ele><time>2026-04-12T07:55:38.001Z</time></trkpt><trkpt lat="43.366979130938056" lon="13.553550801700306"><ele>40.0</ele><time>2026-04-12T07:55:39.001Z</time></trkpt><trkpt lat="43.36713016775778" lon="13.553542555491902"><ele>40.75</ele><time>2026-04-12T07:55:40.001Z</time></trkpt><trkpt lat="43.367273437732266" lon="13.55355110392743"><ele>41.5</ele><time>2026-04-12T07:55:41.001Z</time></trkpt><trkpt lat="43.36741683789196" lon="13.553564291800939"><ele>42.25</ele><time>2026-04-12T07:55:42.001Z</time></trkpt><trkpt lat="43.36756345250752" lon="13.55357974645594"><ele>43.0</ele><time>2026-04-12T07:55:43.001Z</time></trkpt><trkpt lat="43.36770613510271" lon="13.553585106002405"><ele>43.0</ele><time>2026-04-12T07:55:44.001Z</time></trkpt><trkpt lat="43.36785284953355" lon="13.553573680092784"><ele>43.0</ele><time>2026-04-12T07:55:45.001Z</time></trkpt><trkpt lat="43.368002145811815" lon="13.553559063630395"><ele>43.0</ele><time>2026-04-12T07:55:46.001Z</time></trkpt><trkpt lat="43.36814084695909" lon="13.553553358292406"><ele>43.0</ele><time>2026-04-12T07:55:47.001Z</time></trkpt><trkpt lat="43.368277167432126" lon="13.553562301314994"><ele>43.333333333333336</ele><time>2026-04-12T07:55:48.001Z</time></trkpt><trkpt lat="43.36842392964919" lon="13.553584410078805"><ele>43.666666666666664</ele><time>2026-04-12T07:55:49.001Z</time></trkpt><trkpt lat="43.36857686511346" lon="13.55362175958757"><ele>44.0</ele><time>2026-04-12T07:55:50.001Z</time></trkpt><trkpt lat="43.36871561624869" lon="13.553692623319483"><ele>43.75</ele><time>2026-04-12T07:55:51.001Z</time></trkpt><trkpt lat="43.368857893954825" lon="13.553747185854762"><ele>43.5</ele><time>2026-04-12T07:55:52.001Z</time></trkpt><trkpt lat="43.369007074724436" lon="13.553775869626667"><ele>43.25</ele><time>2026-04-12T07:55:53.001Z</time></trkpt><trkpt lat="43.36914345368491" lon="13.553825875568604"><ele>43.0</ele><time>2026-04-12T07:55:54.001Z</time></trkpt><trkpt lat="43.36927743544885" lon="13.553870639773598"><ele>43.75</ele><time>2026-04-12T07:55:55.001Z</time></trkpt><trkpt lat="43.36942052257329" lon="13.553911981786218"><ele>44.5</ele><time>2026-04-12T07:55:56.001Z</time></trkpt><trkpt lat="43.36955321160433" lon="13.553963263773742"><ele>45.25</ele><time>2026-04-12T07:55:57.001Z</time></trkpt><trkpt lat="43.36967742157267" lon="13.554001865663674"><ele>46.0</ele><time>2026-04-12T07:55:58.001Z</time></trkpt><trkpt lat="43.36979015981362" lon="13.554041485705822"><ele>46.4</ele><time>2026-04-12T07:55:59.001Z</time></trkpt><trkpt lat="43.36989150270578" lon="13.554076419778903"><ele>46.8</ele><time>2026-04-12T07:56:00.001Z</time></trkpt><trkpt lat="43.369994338427304" lon="13.554117617810379"><ele>47.199999999999996</ele><time>2026-04-12T07:56:01.001Z</time></trkpt><trkpt lat="43.370088448408" lon="13.554147449367932"><ele>47.599999999999994</ele><time>2026-04-12T07:56:02.001Z</time></trkpt><trkpt lat="43.37018873427057" lon="13.554172530019482"><ele>48.0</ele><time>2026-04-12T07:56:03.001Z</time></trkpt><trkpt lat="43.370278953478916" lon="13.554198123915262"><ele>48.0</ele><time>2026-04-12T07:56:04.001Z</time></trkpt><trkpt lat="43.37036387252477" lon="13.554221085667328"><ele>48.0</ele><time>2026-04-12T07:56:05.001Z</time></trkpt><trkpt lat="43.37043849387151" lon="13.554240225118"><ele>48.0</ele><time>2026-04-12T07:56:06.001Z</time></trkpt><trkpt lat="43.37050247938109" lon="13.554252097833897"><ele>48.0</ele><time>2026-04-12T07:56:07.001Z</time></trkpt><trkpt lat="43.37059206356557" lon="13.5542653598465"><ele>48.0</ele><time>2026-04-12T07:56:09Z</time></trkpt><trkpt lat="43.37066011110222" lon="13.554307425681467"><ele>48.0</ele><time>2026-04-12T07:57:15Z</time></trkpt><trkpt lat="43.370766586317984" lon="13.554327281617113"><ele>48.0</ele><time>2026-04-12T07:57:17.001Z</time></trkpt><trkpt lat="43.37086609510116" lon="13.554303575777558"><ele>48.0</ele><time>2026-04-12T07:57:19.001Z</time></trkpt><trkpt lat="43.37090024366293" lon="13.554114841245346"><ele>48.0</ele><time>2026-04-12T07:57:21.001Z</time></trkpt><trkpt lat="43.37089271941541" lon="13.554016475964804"><ele>48.0</ele><time>2026-04-12T07:57:22.001Z</time></trkpt><trkpt lat="43.370874524990015" lon="13.553901391358284"><ele>48.0</ele><time>2026-04-12T07:57:23.001Z</time></trkpt><trkpt lat="43.37086334646004" lon="13.55376643454865"><ele>48.2</ele><time>2026-04-12T07:57:24.001Z</time></trkpt><trkpt lat="43.37085082489856" lon="13.553629986960006"><ele>48.4</ele><time>2026-04-12T07:57:25.001Z</time></trkpt><trkpt lat="43.37083553996218" lon="13.553504209479664"><ele>48.6</ele><time>2026-04-12T07:57:26.001Z</time></trkpt><trkpt lat="43.370817091870634" lon="13.553371169884183"><ele>48.800000000000004</ele><time>2026-04-12T07:57:27.001Z</time></trkpt><trkpt lat="43.37080829488361" lon="13.553243319960023"><ele>49.0</ele><time>2026-04-12T07:57:28.001Z</time></trkpt><trkpt lat="43.37079173408707" lon="13.553116666233436"><ele>48.99999999999999</ele><time>2026-04-12T07:57:29.001Z</time></trkpt><trkpt lat="43.37077872572052" lon="13.552992300889688"><ele>49.0</ele><time>2026-04-12T07:57:30.001Z</time></trkpt><trkpt lat="43.37076599679989" lon="13.552876416503201"><ele>49.0</ele><time>2026-04-12T07:57:31.001Z</time></trkpt><trkpt lat="43.37075314671252" lon="13.552767912311005"><ele>49.0</ele><time>2026-04-12T07:57:32.001Z</time></trkpt><trkpt lat="43.37074181666696" lon="13.552665843548704"><ele>48.99999999999999</ele><time>2026-04-12T07:57:33.001Z</time></trkpt><trkpt lat="43.370730802652844" lon="13.552568607657902"><ele>49.0</ele><time>2026-04-12T07:57:34.001Z</time></trkpt><trkpt lat="43.37071904081309" lon="13.552468201223904"><ele>48.800000000000004</ele><time>2026-04-12T07:57:35.001Z</time></trkpt><trkpt lat="43.370708933901284" lon="13.552366490719166"><ele>48.6</ele><time>2026-04-12T07:57:36.001Z</time></trkpt><trkpt lat="43.37069619289448" lon="13.552244722457917"><ele>48.4</ele><time>2026-04-12T07:57:37.001Z</time></trkpt><trkpt lat="43.370680833348224" lon="13.552118299324272"><ele>48.2</ele><time>2026-04-12T07:57:38.001Z</time></trkpt><trkpt lat="43.370663177591396" lon="13.551981938813322"><ele>48.0</ele><time>2026-04-12T07:57:39.001Z</time></trkpt><trkpt lat="43.370644991915" lon="13.551830635215078"><ele>48.0</ele><time>2026-04-12T07:57:40.001Z</time></trkpt><trkpt lat="43.3706276320972" lon="13.551664719921646"><ele>48.0</ele><time>2026-04-12T07:57:41.001Z</time></trkpt><trkpt lat="43.37060971292612" lon="13.551512452823786"><ele>48.0</ele><time>2026-04-12T07:57:42.001Z</time></trkpt><trkpt lat="43.37059601036545" lon="13.551371232042994"><ele>48.0</ele><time>2026-04-12T07:57:43.001Z</time></trkpt><trkpt lat="43.370580777318025" lon="13.551233051441608"><ele>48.0</ele><time>2026-04-12T07:57:44.001Z</time></trkpt><trkpt lat="43.37056431333446" lon="13.551088245564632"><ele>48.25</ele><time>2026-04-12T07:57:45.001Z</time></trkpt><trkpt lat="43.370548328328326" lon="13.550938964295666"><ele>48.5</ele><time>2026-04-12T07:57:46.001Z</time></trkpt><trkpt lat="43.370529555909236" lon="13.550777869846533"><ele>48.75</ele><time>2026-04-12T07:57:47.001Z</time></trkpt><trkpt lat="43.37050839805214" lon="13.550613108654609"><ele>49.0</ele><time>2026-04-12T07:57:48.001Z</time></trkpt><trkpt lat="43.37048382165529" lon="13.550431535521398"><ele>48.5</ele><time>2026-04-12T07:57:49.001Z</time></trkpt><trkpt lat="43.370457540812936" lon="13.55024782943736"><ele>48.0</ele><time>2026-04-12T07:57:50.001Z</time></trkpt><trkpt lat="43.370440232238366" lon="13.550056891087166"><ele>47.5</ele><time>2026-04-12T07:57:51.001Z</time></trkpt><trkpt lat="43.370414483366844" lon="13.5498614117258"><ele>47.0</ele><time>2026-04-12T07:57:52.001Z</time></trkpt><trkpt lat="43.3703922863379" lon="13.54965505012295"><ele>46.666666666666664</ele><time>2026-04-12T07:57:53.001Z</time></trkpt><trkpt lat="43.37036855168489" lon="13.54944231629865"><ele>46.333333333333336</ele><time>2026-04-12T07:57:54.001Z</time></trkpt><trkpt lat="43.37034561732559" lon="13.549223778212182"><ele>46.0</ele><time>2026-04-12T07:57:55.001Z</time></trkpt><trkpt lat="43.37032307061317" lon="13.549007639917104"><ele>46.0</ele><time>2026-04-12T07:57:56.001Z</time></trkpt><trkpt lat="43.37029492394422" lon="13.548786890800576"><ele>46.0</ele><time>2026-04-12T07:57:57.001Z</time></trkpt><trkpt lat="43.37026895933407" lon="13.54857246423905"><ele>46.0</ele><time>2026-04-12T07:57:58.001Z</time></trkpt><trkpt lat="43.37024293014584" lon="13.54834163863587"><ele>46.333333333333336</ele><time>2026-04-12T07:57:59.001Z</time></trkpt><trkpt lat="43.37021644353609" lon="13.548114051847522"><ele>46.666666666666664</ele><time>2026-04-12T07:58:00.001Z</time></trkpt><trkpt lat="43.37019218871212" lon="13.547874735159283"><ele>47.0</ele><time>2026-04-12T07:58:01.001Z</time></trkpt><trkpt lat="43.37016767724298" lon="13.547641411511599"><ele>47.33333333333333</ele><time>2026-04-12T07:58:02.001Z</time></trkpt><trkpt lat="43.370135009805054" lon="13.547400849939775"><ele>47.666666666666664</ele><time>2026-04-12T07:58:03.001Z</time></trkpt><trkpt lat="43.37010372112914" lon="13.547152161670631"><ele>48.0</ele><time>2026-04-12T07:58:04.001Z</time></trkpt><trkpt lat="43.37007392663895" lon="13.546898484876166"><ele>48.0</ele><time>2026-04-12T07:58:05.001Z</time></trkpt><trkpt lat="43.370043584842236" lon="13.54664183930829"><ele>48.0</ele><time>2026-04-12T07:58:06.001Z</time></trkpt><trkpt lat="43.370017601588565" lon="13.546388552571512"><ele>48.0</ele><time>2026-04-12T07:58:07.001Z</time></trkpt><trkpt lat="43.36998791633677" lon="13.54614999122181"><ele>47.666666666666664</ele><time>2026-04-12T07:58:08.001Z</time></trkpt><trkpt lat="43.369961364085526" lon="13.545917325197923"><ele>47.33333333333333</ele><time>2026-04-12T07:58:09.001Z</time></trkpt><trkpt lat="43.36993526260485" lon="13.545701224376941"><ele>47.0</ele><time>2026-04-12T07:58:10.001Z</time></trkpt><trkpt lat="43.36990876476668" lon="13.545500032091839"><ele>47.0</ele><time>2026-04-12T07:58:11.001Z</time></trkpt><trkpt lat="43.36989114623729" lon="13.545289901276526"><ele>47.0</ele><time>2026-04-12T07:58:12.001Z</time></trkpt><trkpt lat="43.369866858773506" lon="13.545068137553452"><ele>47.0</ele><time>2026-04-12T07:58:13.001Z</time></trkpt><trkpt lat="43.369838759264915" lon="13.544836419280653"><ele>47.0</ele><time>2026-04-12T07:58:14.001Z</time></trkpt><trkpt lat="43.369806544572164" lon="13.544605341803914"><ele>47.0</ele><time>2026-04-12T07:58:15Z</time></trkpt><trkpt lat="43.3697745943745" lon="13.54435378528279"><ele>47.0</ele><time>2026-04-12T07:58:16Z</time></trkpt><trkpt lat="43.36974738578476" lon="13.544112085891532"><ele>46.666666666666664</ele><time>2026-04-12T07:58:17Z</time></trkpt><trkpt lat="43.369720265101776" lon="13.543864528415815"><ele>46.333333333333336</ele><time>2026-04-12T07:58:18Z</time></trkpt><trkpt lat="43.369689016807655" lon="13.54360271829735"><ele>46.0</ele><time>2026-04-12T07:58:19Z</time></trkpt><trkpt lat="43.36965984990465" lon="13.543342460437307"><ele>45.333333333333336</ele><time>2026-04-12T07:58:20Z</time></trkpt><trkpt lat="43.36963087035413" lon="13.543083389187448"><ele>44.666666666666664</ele><time>2026-04-12T07:58:21Z</time></trkpt><trkpt lat="43.3696014813927" lon="13.54282547710542"><ele>44.0</ele><time>2026-04-12T07:58:22Z</time></trkpt><trkpt lat="43.36957088947352" lon="13.542561928295806"><ele>45.33333333333333</ele><time>2026-04-12T07:58:23Z</time></trkpt><trkpt lat="43.36953983145335" lon="13.54230335869224"><ele>46.666666666666664</ele><time>2026-04-12T07:58:24Z</time></trkpt><trkpt lat="43.36951172637601" lon="13.542039211148177"><ele>48.0</ele><time>2026-04-12T07:58:25Z</time></trkpt><trkpt lat="43.36948658988626" lon="13.541777966482522"><ele>48.0</ele><time>2026-04-12T07:58:26Z</time></trkpt><trkpt lat="43.369450090036445" lon="13.541518657325414"><ele>48.0</ele><time>2026-04-12T07:58:27Z</time></trkpt><trkpt lat="43.369416659826385" lon="13.54125367375203"><ele>48.0</ele><time>2026-04-12T07:58:28Z</time></trkpt><trkpt lat="43.36938291822182" lon="13.540987097384686"><ele>48.0</ele><time>2026-04-12T07:58:29Z</time></trkpt><trkpt lat="43.369350951333125" lon="13.540721981558102"><ele>48.0</ele><time>2026-04-12T07:58:30Z</time></trkpt><trkpt lat="43.36931832489562" lon="13.540458564270757"><ele>48.0</ele><time>2026-04-12T07:58:31Z</time></trkpt><trkpt lat="43.369280216205645" lon="13.540195874117584"><ele>48.0</ele><time>2026-04-12T07:58:32Z</time></trkpt><trkpt lat="43.369249372533396" lon="13.539933252383646"><ele>48.0</ele><time>2026-04-12T07:58:33Z</time></trkpt><trkpt lat="43.369212171108735" lon="13.539664579662837"><ele>48.0</ele><time>2026-04-12T07:58:34Z</time></trkpt><trkpt lat="43.3691866136683" lon="13.539399094337183"><ele>48.33333333333333</ele><time>2026-04-12T07:58:35Z</time></trkpt><trkpt lat="43.36916125555765" lon="13.53913916236855"><ele>48.666666666666664</ele><time>2026-04-12T07:58:36Z</time></trkpt><trkpt lat="43.36912876193655" lon="13.538870801940819"><ele>49.0</ele><time>2026-04-12T07:58:37Z</time></trkpt><trkpt lat="43.36909715234553" lon="13.538604848418368"><ele>49.0</ele><time>2026-04-12T07:58:38Z</time></trkpt><trkpt lat="43.36906171250257" lon="13.538341507219423"><ele>49.0</ele><time>2026-04-12T07:58:39Z</time></trkpt><trkpt lat="43.369029489538825" lon="13.538073680927244"><ele>49.0</ele><time>2026-04-12T07:58:40Z</time></trkpt><trkpt lat="43.36899671993106" lon="13.537798229843439"><ele>49.666666666666664</ele><time>2026-04-12T07:58:41Z</time></trkpt><trkpt lat="43.36897135667135" lon="13.53753354598155"><ele>50.33333333333333</ele><time>2026-04-12T07:58:42Z</time></trkpt><trkpt lat="43.36893879454609" lon="13.537262289038875"><ele>51.0</ele><time>2026-04-12T07:58:43Z</time></trkpt><trkpt lat="43.36890468277198" lon="13.536996019465393"><ele>51.33333333333333</ele><time>2026-04-12T07:58:44Z</time></trkpt><trkpt lat="43.36887216474948" lon="13.536719815495294"><ele>51.666666666666664</ele><time>2026-04-12T07:58:45Z</time></trkpt><trkpt lat="43.36885485174926" lon="13.536452354706585"><ele>52.0</ele><time>2026-04-12T07:58:46Z</time></trkpt><trkpt lat="43.368831523368" lon="13.536173862211738"><ele>50.666666666666664</ele><time>2026-04-12T07:58:47Z</time></trkpt><trkpt lat="43.36881122729748" lon="13.535903367808002"><ele>49.33333333333333</ele><time>2026-04-12T07:58:48Z</time></trkpt><trkpt lat="43.368791583085084" lon="13.535626594420995"><ele>48.0</ele><time>2026-04-12T07:58:49Z</time></trkpt><trkpt lat="43.36877438314663" lon="13.535356536912966"><ele>48.0</ele><time>2026-04-12T07:58:50Z</time></trkpt><trkpt lat="43.368750290699744" lon="13.535082393231866"><ele>48.0</ele><time>2026-04-12T07:58:51Z</time></trkpt><trkpt lat="43.368728442440855" lon="13.53480131500902"><ele>48.0</ele><time>2026-04-12T07:58:52Z</time></trkpt><trkpt lat="43.36870724335279" lon="13.534522566402222"><ele>48.33333333333333</ele><time>2026-04-12T07:58:53Z</time></trkpt><trkpt lat="43.36868416452418" lon="13.534249394243504"><ele>48.666666666666664</ele><time>2026-04-12T07:58:54Z</time></trkpt><trkpt lat="43.36866580265561" lon="13.533974002898255"><ele>49.0</ele><time>2026-04-12T07:58:55Z</time></trkpt><trkpt lat="43.36864744967873" lon="13.533696737306014"><ele>49.0</ele><time>2026-04-12T07:58:56Z</time></trkpt><trkpt lat="43.36862465094558" lon="13.533423067125192"><ele>49.0</ele><time>2026-04-12T07:58:57Z</time></trkpt><trkpt lat="43.36860282734077" lon="13.53315428402346"><ele>49.0</ele><time>2026-04-12T07:58:58Z</time></trkpt><trkpt lat="43.368583888969646" lon="13.532885983172614"><ele>49.0</ele><time>2026-04-12T07:58:59Z</time></trkpt><trkpt lat="43.36856457388241" lon="13.532611469902767"><ele>49.0</ele><time>2026-04-12T07:59:00Z</time></trkpt><trkpt lat="43.36854693077417" lon="13.532340733911978"><ele>49.0</ele><time>2026-04-12T07:59:01Z</time></trkpt><trkpt lat="43.36853249216159" lon="13.532072740796897"><ele>49.0</ele><time>2026-04-12T07:59:02Z</time></trkpt><trkpt lat="43.36851033579676" lon="13.531802667121225"><ele>49.0</ele><time>2026-04-12T07:59:03Z</time></trkpt><trkpt lat="43.36848723614434" lon="13.531541288442355"><ele>49.0</ele><time>2026-04-12T07:59:04Z</time></trkpt><trkpt lat="43.36846483641081" lon="13.531268984718096"><ele>48.666666666666664</ele><time>2026-04-12T07:59:05Z</time></trkpt><trkpt lat="43.36844517153792" lon="13.530998111741033"><ele>48.33333333333333</ele><time>2026-04-12T07:59:06Z</time></trkpt><trkpt lat="43.36842481109523" lon="13.530725101841721"><ele>48.0</ele><time>2026-04-12T07:59:07Z</time></trkpt><trkpt lat="43.36840425349562" lon="13.530451854667122"><ele>48.66666666666667</ele><time>2026-04-12T07:59:08Z</time></trkpt><trkpt lat="43.368387485100676" lon="13.530177792846064"><ele>49.333333333333336</ele><time>2026-04-12T07:59:09Z</time></trkpt><trkpt lat="43.36836507338558" lon="13.529906102245226"><ele>50.0</ele><time>2026-04-12T07:59:10Z</time></trkpt><trkpt lat="43.36834009499038" lon="13.529634944805851"><ele>49.66666666666667</ele><time>2026-04-12T07:59:11Z</time></trkpt><trkpt lat="43.36830542967203" lon="13.529362972266116"><ele>49.33333333333333</ele><time>2026-04-12T07:59:12Z</time></trkpt><trkpt lat="43.36826764975131" lon="13.529089169540807"><ele>49.0</ele><time>2026-04-12T07:59:13Z</time></trkpt><trkpt lat="43.3682281793734" lon="13.52881568602669"><ele>49.33333333333333</ele><time>2026-04-12T07:59:14Z</time></trkpt><trkpt lat="43.368183034618305" lon="13.528548235760779"><ele>49.66666666666667</ele><time>2026-04-12T07:59:15Z</time></trkpt><trkpt lat="43.36813167316868" lon="13.528271331690082"><ele>50.0</ele><time>2026-04-12T07:59:16Z</time></trkpt><trkpt lat="43.36808943062699" lon="13.527998832416916"><ele>50.333333333333336</ele><time>2026-04-12T07:59:17Z</time></trkpt><trkpt lat="43.3680421553154" lon="13.52772781520185"><ele>50.66666666666667</ele><time>2026-04-12T07:59:18.001Z</time></trkpt><trkpt lat="43.367990785594" lon="13.527457394148641"><ele>51.0</ele><time>2026-04-12T07:59:19.001Z</time></trkpt><trkpt lat="43.367944810379534" lon="13.52717911990555"><ele>51.0</ele><time>2026-04-12T07:59:20.001Z</time></trkpt><trkpt lat="43.367900851916644" lon="13.52690356597752"><ele>51.0</ele><time>2026-04-12T07:59:21.001Z</time></trkpt><trkpt lat="43.36785484867023" lon="13.52662811750318"><ele>51.0</ele><time>2026-04-12T07:59:22.001Z</time></trkpt><trkpt lat="43.36780777272329" lon="13.526362517903149"><ele>51.33333333333333</ele><time>2026-04-12T07:59:23.001Z</time></trkpt><trkpt lat="43.3677622730384" lon="13.526100370990171"><ele>51.666666666666664</ele><time>2026-04-12T07:59:24.001Z</time></trkpt><trkpt lat="43.367716425961476" lon="13.525835255537723"><ele>52.0</ele><time>2026-04-12T07:59:25.001Z</time></trkpt><trkpt lat="43.36767657397784" lon="13.525587451582297"><ele>52.666666666666664</ele><time>2026-04-12T07:59:26.001Z</time></trkpt><trkpt lat="43.3676327664017" lon="13.525332997184558"><ele>53.33333333333333</ele><time>2026-04-12T07:59:27.001Z</time></trkpt><trkpt lat="43.36758828322083" lon="13.525080482034515"><ele>54.0</ele><time>2026-04-12T07:59:28.001Z</time></trkpt><trkpt lat="43.36754699399375" lon="13.524823027072896"><ele>54.0</ele><time>2026-04-12T07:59:29.001Z</time></trkpt><trkpt lat="43.36750298076846" lon="13.524564233999174"><ele>54.0</ele><time>2026-04-12T07:59:30.001Z</time></trkpt><trkpt lat="43.36746117768356" lon="13.524305674521667"><ele>54.0</ele><time>2026-04-12T07:59:31.001Z</time></trkpt><trkpt lat="43.36741935745641" lon="13.524043366559845"><ele>54.66666666666667</ele><time>2026-04-12T07:59:32.001Z</time></trkpt><trkpt lat="43.367371911331446" lon="13.523776424973684"><ele>55.333333333333336</ele><time>2026-04-12T07:59:33.001Z</time></trkpt><trkpt lat="43.36732690147475" lon="13.523505191792927"><ele>56.0</ele><time>2026-04-12T07:59:34.001Z</time></trkpt><trkpt lat="43.367282749720694" lon="13.523242571908161"><ele>56.0</ele><time>2026-04-12T07:59:35.001Z</time></trkpt><trkpt lat="43.36723679983209" lon="13.52297461314792"><ele>56.0</ele><time>2026-04-12T07:59:36.001Z</time></trkpt><trkpt lat="43.36719028417156" lon="13.522709578793167"><ele>56.0</ele><time>2026-04-12T07:59:37.001Z</time></trkpt><trkpt lat="43.367143215573684" lon="13.522441504576545"><ele>56.0</ele><time>2026-04-12T07:59:38.001Z</time></trkpt><trkpt lat="43.367098820281264" lon="13.522178636616976"><ele>56.0</ele><time>2026-04-12T07:59:39.001Z</time></trkpt><trkpt lat="43.367053986552605" lon="13.521912954583598"><ele>56.0</ele><time>2026-04-12T07:59:40.001Z</time></trkpt><trkpt lat="43.367009563974165" lon="13.521646181351201"><ele>56.0</ele><time>2026-04-12T07:59:41.001Z</time></trkpt><trkpt lat="43.3669657894634" lon="13.521376414404331"><ele>56.0</ele><time>2026-04-12T07:59:42.001Z</time></trkpt><trkpt lat="43.366919166376604" lon="13.521107404294291"><ele>56.0</ele><time>2026-04-12T07:59:43.001Z</time></trkpt><trkpt lat="43.36687630265546" lon="13.520839542726067"><ele>56.333333333333336</ele><time>2026-04-12T07:59:44.001Z</time></trkpt><trkpt lat="43.36683577022657" lon="13.520570266185544"><ele>56.66666666666667</ele><time>2026-04-12T07:59:45.001Z</time></trkpt><trkpt lat="43.36679055017739" lon="13.520297497953209"><ele>57.0</ele><time>2026-04-12T07:59:46.001Z</time></trkpt><trkpt lat="43.366740782664785" lon="13.520018850271894"><ele>57.33333333333333</ele><time>2026-04-12T07:59:47.001Z</time></trkpt><trkpt lat="43.36669164449471" lon="13.519748371243413"><ele>57.666666666666664</ele><time>2026-04-12T07:59:48.001Z</time></trkpt><trkpt lat="43.366646245323665" lon="13.519472001720366"><ele>58.0</ele><time>2026-04-12T07:59:49.001Z</time></trkpt><trkpt lat="43.366599483182874" lon="13.519206643915611"><ele>58.0</ele><time>2026-04-12T07:59:50.001Z</time></trkpt><trkpt lat="43.36655445267124" lon="13.518939375487662"><ele>58.0</ele><time>2026-04-12T07:59:51.001Z</time></trkpt><trkpt lat="43.36650861006156" lon="13.518673340400891"><ele>58.0</ele><time>2026-04-12T07:59:52.001Z</time></trkpt><trkpt lat="43.36646427309967" lon="13.518399809601418"><ele>57.666666666666664</ele><time>2026-04-12T07:59:53.001Z</time></trkpt><trkpt lat="43.36642151882268" lon="13.518133717774054"><ele>57.33333333333333</ele><time>2026-04-12T07:59:54.001Z</time></trkpt><trkpt lat="43.36637929545348" lon="13.517858906886357"><ele>57.0</ele><time>2026-04-12T07:59:55.001Z</time></trkpt><trkpt lat="43.36633223970878" lon="13.517598652932602"><ele>56.66666666666667</ele><time>2026-04-12T07:59:56.001Z</time></trkpt><trkpt lat="43.36628872167154" lon="13.517333007224785"><ele>56.333333333333336</ele><time>2026-04-12T07:59:57.001Z</time></trkpt><trkpt lat="43.366242314145836" lon="13.517070592911391"><ele>56.0</ele><time>2026-04-12T07:59:58.001Z</time></trkpt><trkpt lat="43.366196459616084" lon="13.516804391312924"><ele>56.0</ele><time>2026-04-12T07:59:59.001Z</time></trkpt><trkpt lat="43.36615145486614" lon="13.516541835149486"><ele>56.0</ele><time>2026-04-12T08:00:00.001Z</time></trkpt><trkpt lat="43.36610972604423" lon="13.516282272279012"><ele>56.0</ele><time>2026-04-12T08:00:01.001Z</time></trkpt><trkpt lat="43.36605956856255" lon="13.516017177632802"><ele>55.66666666666667</ele><time>2026-04-12T08:00:02.001Z</time></trkpt><trkpt lat="43.36601327914912" lon="13.515757658200412"><ele>55.33333333333333</ele><time>2026-04-12T08:00:03.001Z</time></trkpt><trkpt lat="43.36596663459139" lon="13.515499793416803"><ele>55.0</ele><time>2026-04-12T08:00:04.001Z</time></trkpt><trkpt lat="43.36592788463273" lon="13.515259141976951"><ele>55.0</ele><time>2026-04-12T08:00:05.001Z</time></trkpt><trkpt lat="43.36589331911826" lon="13.51503283670618"><ele>55.0</ele><time>2026-04-12T08:00:06.001Z</time></trkpt><trkpt lat="43.36586567415688" lon="13.514811173697774"><ele>55.0</ele><time>2026-04-12T08:00:07.001Z</time></trkpt><trkpt lat="43.36584416400837" lon="13.514594555616476"><ele>55.0</ele><time>2026-04-12T08:00:08.001Z</time></trkpt><trkpt lat="43.36583014614845" lon="13.514392501539998"><ele>55.0</ele><time>2026-04-12T08:00:09.001Z</time></trkpt><trkpt lat="43.36582237336551" lon="13.51420371619171"><ele>55.0</ele><time>2026-04-12T08:00:10.001Z</time></trkpt><trkpt lat="43.36583151226841" lon="13.514016774001673"><ele>55.0</ele><time>2026-04-12T08:00:11.001Z</time></trkpt><trkpt lat="43.36586007793127" lon="13.51384861874409"><ele>55.2</ele><time>2026-04-12T08:00:12.001Z</time></trkpt><trkpt lat="43.36590219556765" lon="13.513699010427626"><ele>55.4</ele><time>2026-04-12T08:00:13.001Z</time></trkpt><trkpt lat="43.36596124568576" lon="13.5135723336376"><ele>55.599999999999994</ele><time>2026-04-12T08:00:14.001Z</time></trkpt><trkpt lat="43.36603070676992" lon="13.513472109444395"><ele>55.8</ele><time>2026-04-12T08:00:15.001Z</time></trkpt><trkpt lat="43.36611133329699" lon="13.513410734068344"><ele>56.0</ele><time>2026-04-12T08:00:16.001Z</time></trkpt><trkpt lat="43.366186523818826" lon="13.513362462402197"><ele>56.00000000000001</ele><time>2026-04-12T08:00:17.001Z</time></trkpt><trkpt lat="43.36624506302317" lon="13.513286440734786"><ele>56.0</ele><time>2026-04-12T08:00:18.001Z</time></trkpt><trkpt lat="43.36627016210848" lon="13.513176351372982"><ele>56.0</ele><time>2026-04-12T08:00:19.001Z</time></trkpt><trkpt lat="43.36626568185762" lon="13.513070835195732"><ele>56.0</ele><time>2026-04-12T08:00:20.001Z</time></trkpt><trkpt lat="43.36624355286672" lon="13.512961832874735"><ele>56.00000000000001</ele><time>2026-04-12T08:00:21Z</time></trkpt><trkpt lat="43.366226658609975" lon="13.51285726345626"><ele>56.0</ele><time>2026-04-12T08:00:22Z</time></trkpt><trkpt lat="43.3662312025625" lon="13.512751701090307"><ele>56.199999999999996</ele><time>2026-04-12T08:00:23Z</time></trkpt><trkpt lat="43.3662672286457" lon="13.512647110763899"><ele>56.39999999999999</ele><time>2026-04-12T08:00:24Z</time></trkpt><trkpt lat="43.36632022495661" lon="13.512537906754838"><ele>56.6</ele><time>2026-04-12T08:00:25Z</time></trkpt><trkpt lat="43.366366562261206" lon="13.512423392195187"><ele>56.8</ele><time>2026-04-12T08:00:26Z</time></trkpt><trkpt lat="43.366428963867115" lon="13.512302747853115"><ele>57.0</ele><time>2026-04-12T08:00:27Z</time></trkpt><trkpt lat="43.366487056519304" lon="13.51218455319711"><ele>57.400000000000006</ele><time>2026-04-12T08:00:28Z</time></trkpt><trkpt lat="43.366554720150155" lon="13.512068801729272"><ele>57.800000000000004</ele><time>2026-04-12T08:00:29Z</time></trkpt><trkpt lat="43.36663557336063" lon="13.511969429276617"><ele>58.2</ele><time>2026-04-12T08:00:30Z</time></trkpt><trkpt lat="43.36672872109163" lon="13.511909021139342"><ele>58.6</ele><time>2026-04-12T08:00:31Z</time></trkpt><trkpt lat="43.36680464585286" lon="13.511814429607192"><ele>59.0</ele><time>2026-04-12T08:00:32Z</time></trkpt><trkpt lat="43.366888987728636" lon="13.511741162912196"><ele>59.0</ele><time>2026-04-12T08:00:33Z</time></trkpt><trkpt lat="43.36696753740772" lon="13.511671463779658"><ele>59.00000000000001</ele><time>2026-04-12T08:00:34Z</time></trkpt><trkpt lat="43.36704310363227" lon="13.511597850573898"><ele>59.00000000000001</ele><time>2026-04-12T08:00:35Z</time></trkpt><trkpt lat="43.367126897515895" lon="13.511524206832599"><ele>59.0</ele><time>2026-04-12T08:00:36Z</time></trkpt><trkpt lat="43.367216757366364" lon="13.511435436471325"><ele>59.0</ele><time>2026-04-12T08:00:37Z</time></trkpt><trkpt lat="43.367309877246704" lon="13.511338762564979"><ele>59.25</ele><time>2026-04-12T08:00:38Z</time></trkpt><trkpt lat="43.36740868156186" lon="13.51124185102964"><ele>59.5</ele><time>2026-04-12T08:00:39Z</time></trkpt><trkpt lat="43.367508148653314" lon="13.511141021724454"><ele>59.75</ele><time>2026-04-12T08:00:40Z</time></trkpt><trkpt lat="43.36761523210538" lon="13.51105816658606"><ele>60.0</ele><time>2026-04-12T08:00:41Z</time></trkpt><trkpt lat="43.36769303807389" lon="13.510948757965313"><ele>60.0</ele><time>2026-04-12T08:00:42Z</time></trkpt><trkpt lat="43.367779926915865" lon="13.51089809432073"><ele>60.0</ele><time>2026-04-12T08:00:43Z</time></trkpt><trkpt lat="43.367859927703" lon="13.510840538040506"><ele>60.0</ele><time>2026-04-12T08:00:44Z</time></trkpt><trkpt lat="43.367927001357465" lon="13.510809956179008"><ele>60.0</ele><time>2026-04-12T08:00:45Z</time></trkpt><trkpt lat="43.3679888126706" lon="13.51085138222814"><ele>60.0</ele><time>2026-04-12T08:00:46Z</time></trkpt><trkpt lat="43.36804057343014" lon="13.510931965847977"><ele>60.0</ele><time>2026-04-12T08:00:47Z</time></trkpt><trkpt lat="43.36807562508931" lon="13.511046236866411"><ele>60.75</ele><time>2026-04-12T08:00:48Z</time></trkpt><trkpt lat="43.36810578825602" lon="13.511172510915971"><ele>61.5</ele><time>2026-04-12T08:00:49Z</time></trkpt><trkpt lat="43.36814655629069" lon="13.511320674669253"><ele>62.25</ele><time>2026-04-12T08:00:50Z</time></trkpt><trkpt lat="43.368197722370866" lon="13.511472974254106"><ele>63.0</ele><time>2026-04-12T08:00:51Z</time></trkpt><trkpt lat="43.36825642245558" lon="13.51163059320431"><ele>63.25</ele><time>2026-04-12T08:00:52Z</time></trkpt><trkpt lat="43.36832170993164" lon="13.51177706166938"><ele>63.5</ele><time>2026-04-12T08:00:53Z</time></trkpt><trkpt lat="43.36840294612543" lon="13.511922379067949"><ele>63.75</ele><time>2026-04-12T08:00:54Z</time></trkpt><trkpt lat="43.368489248708144" lon="13.512055489691196"><ele>64.0</ele><time>2026-04-12T08:00:55Z</time></trkpt><trkpt lat="43.368576683319255" lon="13.51218095323245"><ele>64.4</ele><time>2026-04-12T08:00:56Z</time></trkpt><trkpt lat="43.36865166848568" lon="13.512284811424683"><ele>64.80000000000001</ele><time>2026-04-12T08:00:57Z</time></trkpt><trkpt lat="43.36871354317871" lon="13.512360989726089"><ele>65.19999999999999</ele><time>2026-04-12T08:00:58Z</time></trkpt><trkpt lat="43.368771889998484" lon="13.512408972553837"><ele>65.6</ele><time>2026-04-12T08:00:59Z</time></trkpt><trkpt lat="43.36887888468085" lon="13.512466297942117"><ele>66.0</ele><time>2026-04-12T08:01:01Z</time></trkpt><trkpt lat="43.36895958659627" lon="13.512459343170091"><ele>66.5</ele><time>2026-04-12T08:01:02Z</time></trkpt><trkpt lat="43.36904929694793" lon="13.512409524852403"><ele>67.0</ele><time>2026-04-12T08:01:03Z</time></trkpt><trkpt lat="43.36916748945462" lon="13.512391514344072"><ele>67.5</ele><time>2026-04-12T08:01:04Z</time></trkpt><trkpt lat="43.36929836241224" lon="13.512343369314602"><ele>68.0</ele><time>2026-04-12T08:01:05Z</time></trkpt><trkpt lat="43.36943294194171" lon="13.512291855551327"><ele>68.0</ele><time>2026-04-12T08:01:06Z</time></trkpt><trkpt lat="43.36958037424608" lon="13.512235068633458"><ele>68.0</ele><time>2026-04-12T08:01:07Z</time></trkpt><trkpt lat="43.369730840598166" lon="13.51216983806718"><ele>68.0</ele><time>2026-04-12T08:01:08Z</time></trkpt><trkpt lat="43.369879587082764" lon="13.512107982977513"><ele>68.0</ele><time>2026-04-12T08:01:09Z</time></trkpt><trkpt lat="43.37003433911743" lon="13.512053033992933"><ele>68.0</ele><time>2026-04-12T08:01:10Z</time></trkpt><trkpt lat="43.37019846512579" lon="13.51199446863216"><ele>68.0</ele><time>2026-04-12T08:01:11Z</time></trkpt><trkpt lat="43.37036762414913" lon="13.511934626576936"><ele>68.66666666666667</ele><time>2026-04-12T08:01:12Z</time></trkpt><trkpt lat="43.37054323263032" lon="13.511869380735899"><ele>69.33333333333333</ele><time>2026-04-12T08:01:13Z</time></trkpt><trkpt lat="43.370713302633476" lon="13.511803533195291"><ele>70.0</ele><time>2026-04-12T08:01:14Z</time></trkpt><trkpt lat="43.370888012849214" lon="13.511735808301221"><ele>70.0</ele><time>2026-04-12T08:01:15Z</time></trkpt><trkpt lat="43.371059443619636" lon="13.511671387765361"><ele>70.0</ele><time>2026-04-12T08:01:16Z</time></trkpt><trkpt lat="43.3712426852956" lon="13.51160424831154"><ele>70.0</ele><time>2026-04-12T08:01:17Z</time></trkpt><trkpt lat="43.37142434025468" lon="13.511535225832088"><ele>70.66666666666666</ele><time>2026-04-12T08:01:18Z</time></trkpt><trkpt lat="43.3716114722395" lon="13.51146400274514"><ele>71.33333333333333</ele><time>2026-04-12T08:01:19Z</time></trkpt><trkpt lat="43.37179566096223" lon="13.511398360357584"><ele>72.0</ele><time>2026-04-12T08:01:20Z</time></trkpt><trkpt lat="43.37197963865833" lon="13.511330937162978"><ele>72.0</ele><time>2026-04-12T08:01:21Z</time></trkpt><trkpt lat="43.37215342707966" lon="13.511266859204726"><ele>72.0</ele><time>2026-04-12T08:01:22Z</time></trkpt><trkpt lat="43.37230600931567" lon="13.511207536227138"><ele>72.0</ele><time>2026-04-12T08:01:23Z</time></trkpt><trkpt lat="43.372446319764656" lon="13.511180268540961"><ele>73.0</ele><time>2026-04-12T08:01:24Z</time></trkpt><trkpt lat="43.372567227591105" lon="13.51113632787832"><ele>74.0</ele><time>2026-04-12T08:01:25Z</time></trkpt><trkpt lat="43.37266887611759" lon="13.511068183956382"><ele>75.0</ele><time>2026-04-12T08:01:26Z</time></trkpt><trkpt lat="43.372771484078" lon="13.511022984300073"><ele>76.0</ele><time>2026-04-12T08:01:27Z</time></trkpt><trkpt lat="43.37286322372181" lon="13.51092237989613"><ele>76.0</ele><time>2026-04-12T08:01:28Z</time></trkpt><trkpt lat="43.37293364187268" lon="13.510772013793694"><ele>76.0</ele><time>2026-04-12T08:01:29.001Z</time></trkpt><trkpt lat="43.3730133397517" lon="13.510619683992456"><ele>76.0</ele><time>2026-04-12T08:01:30.001Z</time></trkpt><trkpt lat="43.37308039068993" lon="13.510466946810766"><ele>76.0</ele><time>2026-04-12T08:01:31.001Z</time></trkpt><trkpt lat="43.37318004846912" lon="13.510360660393724"><ele>77.5</ele><time>2026-04-12T08:01:32.001Z</time></trkpt><trkpt lat="43.373284077975526" lon="13.510231867414102"><ele>79.0</ele><time>2026-04-12T08:01:33.001Z</time></trkpt><trkpt lat="43.37342706173635" lon="13.510170879786871"><ele>80.5</ele><time>2026-04-12T08:01:34.001Z</time></trkpt><trkpt lat="43.3735547895834" lon="13.510144787615477"><ele>82.0</ele><time>2026-04-12T08:01:35.001Z</time></trkpt><trkpt lat="43.37366899413728" lon="13.510115147673163"><ele>82.0</ele><time>2026-04-12T08:01:36.001Z</time></trkpt><trkpt lat="43.37378249459359" lon="13.510061339574493"><ele>82.0</ele><time>2026-04-12T08:01:37.001Z</time></trkpt><trkpt lat="43.3738921483622" lon="13.50997829714456"><ele>82.0</ele><time>2026-04-12T08:01:38.001Z</time></trkpt><trkpt lat="43.37399606829821" lon="13.509862110345573"><ele>82.0</ele><time>2026-04-12T08:01:39.001Z</time></trkpt><trkpt lat="43.374093742002195" lon="13.50971426327111"><ele>82.33333333333333</ele><time>2026-04-12T08:01:40.001Z</time></trkpt><trkpt lat="43.374195221495235" lon="13.509571078617883"><ele>82.66666666666667</ele><time>2026-04-12T08:01:41.001Z</time></trkpt><trkpt lat="43.37429595811809" lon="13.509398951603488"><ele>83.0</ele><time>2026-04-12T08:01:42.001Z</time></trkpt><trkpt lat="43.374390076172666" lon="13.509237395817713"><ele>83.0</ele><time>2026-04-12T08:01:43.001Z</time></trkpt><trkpt lat="43.374475685508195" lon="13.509088866149893"><ele>83.0</ele><time>2026-04-12T08:01:44.001Z</time></trkpt><trkpt lat="43.37455554879221" lon="13.508950260264383"><ele>83.0</ele><time>2026-04-12T08:01:45.001Z</time></trkpt><trkpt lat="43.37463158574248" lon="13.508818295143524"><ele>83.0</ele><time>2026-04-12T08:01:46.001Z</time></trkpt><trkpt lat="43.37470152480253" lon="13.508696913111038"><ele>83.0</ele><time>2026-04-12T08:01:47.001Z</time></trkpt><trkpt lat="43.374766383260614" lon="13.508584348135976"><ele>83.0</ele><time>2026-04-12T08:01:48.001Z</time></trkpt><trkpt lat="43.37482685110534" lon="13.508484637500594"><ele>83.0</ele><time>2026-04-12T08:01:49.001Z</time></trkpt><trkpt lat="43.37488537413714" lon="13.508387244669018"><ele>83.0</ele><time>2026-04-12T08:01:50.001Z</time></trkpt><trkpt lat="43.37495142915536" lon="13.508281458878145"><ele>83.0</ele><time>2026-04-12T08:01:51.001Z</time></trkpt><trkpt lat="43.37502268776554" lon="13.508174176247469"><ele>83.0</ele><time>2026-04-12T08:01:52.001Z</time></trkpt><trkpt lat="43.37510213131046" lon="13.508060077147503"><ele>83.0</ele><time>2026-04-12T08:01:53.001Z</time></trkpt><trkpt lat="43.375181102187035" lon="13.507930646040519"><ele>83.0</ele><time>2026-04-12T08:01:54.001Z</time></trkpt><trkpt lat="43.375275355284586" lon="13.507815360797652"><ele>83.0</ele><time>2026-04-12T08:01:55.001Z</time></trkpt><trkpt lat="43.375376901767396" lon="13.507697769278217"><ele>83.25</ele><time>2026-04-12T08:01:56.001Z</time></trkpt><trkpt lat="43.37548179874125" lon="13.50757343048156"><ele>83.5</ele><time>2026-04-12T08:01:57.001Z</time></trkpt><trkpt lat="43.375588270478865" lon="13.507448561420203"><ele>83.75</ele><time>2026-04-12T08:01:58.001Z</time></trkpt><trkpt lat="43.37569738831914" lon="13.50731426866096"><ele>84.0</ele><time>2026-04-12T08:01:59.001Z</time></trkpt><trkpt lat="43.37581658698259" lon="13.507177162794997"><ele>84.75</ele><time>2026-04-12T08:02:00.001Z</time></trkpt><trkpt lat="43.37592793531415" lon="13.507038943585636"><ele>85.5</ele><time>2026-04-12T08:02:01.001Z</time></trkpt><trkpt lat="43.3760478313335" lon="13.50690388526811"><ele>86.25</ele><time>2026-04-12T08:02:02.001Z</time></trkpt><trkpt lat="43.37615529299893" lon="13.506781451896767"><ele>87.0</ele><time>2026-04-12T08:02:03.001Z</time></trkpt><trkpt lat="43.37626060102276" lon="13.506661191797548"><ele>86.8</ele><time>2026-04-12T08:02:04.001Z</time></trkpt><trkpt lat="43.37635706988357" lon="13.506541024171598"><ele>86.6</ele><time>2026-04-12T08:02:05.001Z</time></trkpt><trkpt lat="43.37643651394204" lon="13.50643398995695"><ele>86.39999999999999</ele><time>2026-04-12T08:02:06.001Z</time></trkpt><trkpt lat="43.37651088994672" lon="13.506330811742501"><ele>86.19999999999999</ele><time>2026-04-12T08:02:07.001Z</time></trkpt><trkpt lat="43.37657598180562" lon="13.506238462171611"><ele>86.0</ele><time>2026-04-12T08:02:08.001Z</time></trkpt><trkpt lat="43.37661549445159" lon="13.506134977283837"><ele>86.6</ele><time>2026-04-12T08:02:09.001Z</time></trkpt><trkpt lat="43.37662493474204" lon="13.506017968100931"><ele>87.19999999999999</ele><time>2026-04-12T08:02:10.001Z</time></trkpt><trkpt lat="43.37657502856753" lon="13.505879851052711"><ele>87.80000000000001</ele><time>2026-04-12T08:02:11.001Z</time></trkpt><trkpt lat="43.37649866758353" lon="13.50576201398579"><ele>88.4</ele><time>2026-04-12T08:02:12.001Z</time></trkpt><trkpt lat="43.37642225846113" lon="13.505632937017964"><ele>89.0</ele><time>2026-04-12T08:02:13.001Z</time></trkpt><trkpt lat="43.37633958023828" lon="13.505498753464607"><ele>89.0</ele><time>2026-04-12T08:02:14.001Z</time></trkpt><trkpt lat="43.37625388298694" lon="13.505353373098874"><ele>89.0</ele><time>2026-04-12T08:02:15.001Z</time></trkpt><trkpt lat="43.37617570325193" lon="13.505182331748319"><ele>89.0</ele><time>2026-04-12T08:02:16.001Z</time></trkpt><trkpt lat="43.37607828472511" lon="13.505020037400689"><ele>89.0</ele><time>2026-04-12T08:02:17.001Z</time></trkpt><trkpt lat="43.375975494322354" lon="13.504863549116267"><ele>89.0</ele><time>2026-04-12T08:02:18.001Z</time></trkpt><trkpt lat="43.3758690312306" lon="13.50471542305441"><ele>89.0</ele><time>2026-04-12T08:02:19.001Z</time></trkpt><trkpt lat="43.37576525385534" lon="13.504580524233255"><ele>89.0</ele><time>2026-04-12T08:02:20.001Z</time></trkpt><trkpt lat="43.37566449744076" lon="13.504439790005021"><ele>89.0</ele><time>2026-04-12T08:02:21.001Z</time></trkpt><trkpt lat="43.37557177988398" lon="13.50427276841835"><ele>88.33333333333334</ele><time>2026-04-12T08:02:22.001Z</time></trkpt><trkpt lat="43.3754978938589" lon="13.504079099815423"><ele>87.66666666666667</ele><time>2026-04-12T08:02:23.001Z</time></trkpt><trkpt lat="43.375429284089066" lon="13.50385976011764"><ele>87.0</ele><time>2026-04-12T08:02:24.001Z</time></trkpt><trkpt lat="43.37536206063811" lon="13.503622848601335"><ele>86.33333333333333</ele><time>2026-04-12T08:02:25.001Z</time></trkpt><trkpt lat="43.37530012083404" lon="13.50340647644149"><ele>85.66666666666666</ele><time>2026-04-12T08:02:26.001Z</time></trkpt><trkpt lat="43.375235981034926" lon="13.503186862179085"><ele>85.0</ele><time>2026-04-12T08:02:27Z</time></trkpt><trkpt lat="43.375156784779335" lon="13.502974408496051"><ele>85.66666666666666</ele><time>2026-04-12T08:02:28Z</time></trkpt><trkpt lat="43.37510707320057" lon="13.502757427875112"><ele>86.33333333333333</ele><time>2026-04-12T08:02:29Z</time></trkpt><trkpt lat="43.375027622918665" lon="13.502575373865898"><ele>87.0</ele><time>2026-04-12T08:02:30Z</time></trkpt><trkpt lat="43.37495492108022" lon="13.502391287569672"><ele>87.0</ele><time>2026-04-12T08:02:31Z</time></trkpt><trkpt lat="43.37486855053017" lon="13.502212104771703"><ele>87.0</ele><time>2026-04-12T08:02:32Z</time></trkpt><trkpt lat="43.374765746397195" lon="13.502028028194216"><ele>87.0</ele><time>2026-04-12T08:02:33Z</time></trkpt><trkpt lat="43.37465366652739" lon="13.501840672562043"><ele>86.66666666666667</ele><time>2026-04-12T08:02:34Z</time></trkpt><trkpt lat="43.37454280326597" lon="13.501645464666794"><ele>86.33333333333334</ele><time>2026-04-12T08:02:35Z</time></trkpt><trkpt lat="43.37442416954142" lon="13.501438091680283"><ele>86.0</ele><time>2026-04-12T08:02:36Z</time></trkpt><trkpt lat="43.37431341242035" lon="13.501233676269825"><ele>86.66666666666667</ele><time>2026-04-12T08:02:37Z</time></trkpt><trkpt lat="43.37420518489857" lon="13.50103677836618"><ele>87.33333333333333</ele><time>2026-04-12T08:02:38Z</time></trkpt><trkpt lat="43.37410425017071" lon="13.500849751634812"><ele>88.0</ele><time>2026-04-12T08:02:39Z</time></trkpt><trkpt lat="43.3740070341712" lon="13.500666173463944"><ele>88.0</ele><time>2026-04-12T08:02:40Z</time></trkpt><trkpt lat="43.37389873467916" lon="13.50047105618328"><ele>88.0</ele><time>2026-04-12T08:02:41Z</time></trkpt><trkpt lat="43.37379808197807" lon="13.500284983986155"><ele>88.0</ele><time>2026-04-12T08:02:42Z</time></trkpt><trkpt lat="43.373696944624335" lon="13.500096845258943"><ele>88.33333333333333</ele><time>2026-04-12T08:02:43Z</time></trkpt><trkpt lat="43.37359635967289" lon="13.49990773868247"><ele>88.66666666666667</ele><time>2026-04-12T08:02:44Z</time></trkpt><trkpt lat="43.37349795505456" lon="13.499725001518884"><ele>89.0</ele><time>2026-04-12T08:02:45Z</time></trkpt><trkpt lat="43.373411043575224" lon="13.499563459658017"><ele>89.5</ele><time>2026-04-12T08:02:46Z</time></trkpt><trkpt lat="43.3733144544338" lon="13.499404082972822"><ele>90.0</ele><time>2026-04-12T08:02:47Z</time></trkpt><trkpt lat="43.373201657181774" lon="13.49926196183504"><ele>90.5</ele><time>2026-04-12T08:02:48Z</time></trkpt><trkpt lat="43.37309429044073" lon="13.499155670720889"><ele>91.0</ele><time>2026-04-12T08:02:49Z</time></trkpt><trkpt lat="43.37297936302232" lon="13.49906300818505"><ele>91.0</ele><time>2026-04-12T08:02:50Z</time></trkpt><trkpt lat="43.37286226117108" lon="13.498984292492278"><ele>91.0</ele><time>2026-04-12T08:02:51Z</time></trkpt><trkpt lat="43.37275563340617" lon="13.498874634502352"><ele>91.0</ele><time>2026-04-12T08:02:52Z</time></trkpt><trkpt lat="43.37265895407169" lon="13.49877088993209"><ele>91.0</ele><time>2026-04-12T08:02:53Z</time></trkpt><trkpt lat="43.372579300866555" lon="13.498648918822065"><ele>90.75</ele><time>2026-04-12T08:02:54Z</time></trkpt><trkpt lat="43.37251316737878" lon="13.49850476884241"><ele>90.5</ele><time>2026-04-12T08:02:55Z</time></trkpt><trkpt lat="43.37245996601636" lon="13.498339333713519"><ele>90.25</ele><time>2026-04-12T08:02:56Z</time></trkpt><trkpt lat="43.372424032588995" lon="13.498150923569973"><ele>90.0</ele><time>2026-04-12T08:02:57Z</time></trkpt><trkpt lat="43.37240207911747" lon="13.497960827057154"><ele>89.5</ele><time>2026-04-12T08:02:58Z</time></trkpt><trkpt lat="43.37238416638559" lon="13.4977584771264"><ele>89.0</ele><time>2026-04-12T08:02:59Z</time></trkpt><trkpt lat="43.37235697739926" lon="13.497549933968784"><ele>88.5</ele><time>2026-04-12T08:03:00Z</time></trkpt><trkpt lat="43.372336780949055" lon="13.497352275942129"><ele>88.0</ele><time>2026-04-12T08:03:01Z</time></trkpt><trkpt lat="43.37232946771465" lon="13.497158965175553"><ele>86.75</ele><time>2026-04-12T08:03:02Z</time></trkpt><trkpt lat="43.37229853941445" lon="13.496984302923057"><ele>85.5</ele><time>2026-04-12T08:03:03Z</time></trkpt><trkpt lat="43.37223372774541" lon="13.496836604305077"><ele>84.25</ele><time>2026-04-12T08:03:04Z</time></trkpt><trkpt lat="43.37217778014266" lon="13.496684222754743"><ele>83.0</ele><time>2026-04-12T08:03:05Z</time></trkpt><trkpt lat="43.37206881302172" lon="13.496575308656698"><ele>82.33333333333334</ele><time>2026-04-12T08:03:06Z</time></trkpt><trkpt lat="43.37194130997066" lon="13.49647306042511"><ele>81.66666666666667</ele><time>2026-04-12T08:03:07Z</time></trkpt><trkpt lat="43.37179737071422" lon="13.496379687200792"><ele>81.0</ele><time>2026-04-12T08:03:08Z</time></trkpt><trkpt lat="43.37164439427197" lon="13.496276178330321"><ele>81.66666666666667</ele><time>2026-04-12T08:03:09Z</time></trkpt><trkpt lat="43.37149033474153" lon="13.496161027018246"><ele>82.33333333333334</ele><time>2026-04-12T08:03:10Z</time></trkpt><trkpt lat="43.371338333662536" lon="13.496052325651885"><ele>83.0</ele><time>2026-04-12T08:03:11Z</time></trkpt><trkpt lat="43.37119728474661" lon="13.495951103839909"><ele>83.75</ele><time>2026-04-12T08:03:12Z</time></trkpt><trkpt lat="43.371075774789034" lon="13.495856200023297"><ele>84.5</ele><time>2026-04-12T08:03:13Z</time></trkpt><trkpt lat="43.37096619855788" lon="13.495761960121008"><ele>85.25</ele><time>2026-04-12T08:03:14Z</time></trkpt><trkpt lat="43.37084584180664" lon="13.495644967765092"><ele>86.0</ele><time>2026-04-12T08:03:15Z</time></trkpt><trkpt lat="43.370770697997834" lon="13.495496915039194"><ele>85.66666666666667</ele><time>2026-04-12T08:03:16Z</time></trkpt><trkpt lat="43.37067030633982" lon="13.495356451683552"><ele>85.33333333333333</ele><time>2026-04-12T08:03:17Z</time></trkpt><trkpt lat="43.37059124416469" lon="13.495181122044986"><ele>85.0</ele><time>2026-04-12T08:03:18Z</time></trkpt><trkpt lat="43.37049184208926" lon="13.494999231852148"><ele>84.33333333333333</ele><time>2026-04-12T08:03:19Z</time></trkpt><trkpt lat="43.370390794895805" lon="13.494810087428398"><ele>83.66666666666667</ele><time>2026-04-12T08:03:20Z</time></trkpt><trkpt lat="43.3702901043747" lon="13.494613112749244"><ele>83.0</ele><time>2026-04-12T08:03:21Z</time></trkpt><trkpt lat="43.37018867524306" lon="13.494405408829545"><ele>83.0</ele><time>2026-04-12T08:03:22Z</time></trkpt><trkpt lat="43.37007995152173" lon="13.494196944592591"><ele>83.0</ele><time>2026-04-12T08:03:23Z</time></trkpt><trkpt lat="43.36999237388924" lon="13.493968463302886"><ele>83.0</ele><time>2026-04-12T08:03:24Z</time></trkpt><trkpt lat="43.36990344205267" lon="13.49374505957234"><ele>83.0</ele><time>2026-04-12T08:03:25Z</time></trkpt><trkpt lat="43.36980092674005" lon="13.493523250112068"><ele>83.0</ele><time>2026-04-12T08:03:26Z</time></trkpt><trkpt lat="43.3697268784284" lon="13.493309498764246"><ele>83.0</ele><time>2026-04-12T08:03:27Z</time></trkpt><trkpt lat="43.36964216587574" lon="13.493088430245123"><ele>83.66666666666667</ele><time>2026-04-12T08:03:28Z</time></trkpt><trkpt lat="43.36955607240689" lon="13.492870365225553"><ele>84.33333333333333</ele><time>2026-04-12T08:03:29Z</time></trkpt><trkpt lat="43.369479627469424" lon="13.492646905871403"><ele>85.0</ele><time>2026-04-12T08:03:30Z</time></trkpt><trkpt lat="43.369427706032134" lon="13.492413453526343"><ele>85.0</ele><time>2026-04-12T08:03:31Z</time></trkpt><trkpt lat="43.369355508532365" lon="13.492199872740557"><ele>85.0</ele><time>2026-04-12T08:03:32Z</time></trkpt><trkpt lat="43.369299198074025" lon="13.49196886436131"><ele>85.0</ele><time>2026-04-12T08:03:33Z</time></trkpt><trkpt lat="43.369246209459654" lon="13.491735360032397"><ele>85.0</ele><time>2026-04-12T08:03:34Z</time></trkpt><trkpt lat="43.36919167871249" lon="13.491504882190904"><ele>85.0</ele><time>2026-04-12T08:03:35Z</time></trkpt><trkpt lat="43.369139514969916" lon="13.491286882632647"><ele>85.0</ele><time>2026-04-12T08:03:36Z</time></trkpt><trkpt lat="43.369090701281834" lon="13.491074541536737"><ele>85.33333333333333</ele><time>2026-04-12T08:03:37Z</time></trkpt><trkpt lat="43.369044332965444" lon="13.490871249710182"><ele>85.66666666666667</ele><time>2026-04-12T08:03:38Z</time></trkpt><trkpt lat="43.368997748101" lon="13.490669182526974"><ele>86.0</ele><time>2026-04-12T08:03:39Z</time></trkpt><trkpt lat="43.36895012834712" lon="13.490469958935103"><ele>86.25</ele><time>2026-04-12T08:03:40Z</time></trkpt><trkpt lat="43.36891807077086" lon="13.490269762455481"><ele>86.5</ele><time>2026-04-12T08:03:41Z</time></trkpt><trkpt lat="43.368865952217575" lon="13.490089425134078"><ele>86.75</ele><time>2026-04-12T08:03:42Z</time></trkpt><trkpt lat="43.36881951015929" lon="13.489904414979375"><ele>87.0</ele><time>2026-04-12T08:03:43Z</time></trkpt><trkpt lat="43.368780746106445" lon="13.489714050232779"><ele>86.25</ele><time>2026-04-12T08:03:44Z</time></trkpt><trkpt lat="43.3687406397004" lon="13.489516828255965"><ele>85.5</ele><time>2026-04-12T08:03:45.001Z</time></trkpt><trkpt lat="43.36869542982684" lon="13.48933171867648"><ele>84.75</ele><time>2026-04-12T08:03:46.001Z</time></trkpt><trkpt lat="43.368647514368256" lon="13.489136895569548"><ele>84.0</ele><time>2026-04-12T08:03:47.001Z</time></trkpt><trkpt lat="43.368600688957265" lon="13.488939983187732"><ele>84.0</ele><time>2026-04-12T08:03:48.001Z</time></trkpt><trkpt lat="43.36855091646562" lon="13.48872992333735"><ele>84.0</ele><time>2026-04-12T08:03:49.001Z</time></trkpt><trkpt lat="43.36850145489315" lon="13.488518842503082"><ele>84.0</ele><time>2026-04-12T08:03:50.001Z</time></trkpt><trkpt lat="43.368451266416685" lon="13.488309665743666"><ele>84.0</ele><time>2026-04-12T08:03:51.001Z</time></trkpt><trkpt lat="43.368406231758634" lon="13.48810824182292"><ele>84.0</ele><time>2026-04-12T08:03:52.001Z</time></trkpt><trkpt lat="43.36835730367122" lon="13.487894585602405"><ele>84.0</ele><time>2026-04-12T08:03:53.001Z</time></trkpt><trkpt lat="43.36831376025833" lon="13.48768396957446"><ele>84.0</ele><time>2026-04-12T08:03:54.001Z</time></trkpt><trkpt lat="43.368280259249765" lon="13.487475312818898"><ele>84.0</ele><time>2026-04-12T08:03:55.001Z</time></trkpt><trkpt lat="43.36824456553493" lon="13.487260737534356"><ele>84.0</ele><time>2026-04-12T08:03:56.001Z</time></trkpt><trkpt lat="43.36820258220055" lon="13.487040739524415"><ele>83.75</ele><time>2026-04-12T08:03:57.001Z</time></trkpt><trkpt lat="43.368161698963895" lon="13.486813195529326"><ele>83.5</ele><time>2026-04-12T08:03:58.001Z</time></trkpt><trkpt lat="43.36812415309561" lon="13.48660036470138"><ele>83.25</ele><time>2026-04-12T08:03:59.001Z</time></trkpt><trkpt lat="43.36809941147258" lon="13.486457892985891"><ele>83.0</ele><time>2026-04-12T08:04:00.001Z</time></trkpt><trkpt lat="43.36808044223774" lon="13.486356659672841"><ele>83.0</ele><time>2026-04-12T08:04:01.001Z</time></trkpt><trkpt lat="43.36806536704491" lon="13.486270686682419"><ele>83.0</ele><time>2026-04-12T08:04:02.001Z</time></trkpt><trkpt lat="43.36804793351019" lon="13.486180896037405"><ele>83.0</ele><time>2026-04-12T08:04:03.001Z</time></trkpt><trkpt lat="43.36803068446897" lon="13.486073590069743"><ele>83.0</ele><time>2026-04-12T08:04:04.001Z</time></trkpt><trkpt lat="43.36801106321458" lon="13.48593948668458"><ele>83.0</ele><time>2026-04-12T08:04:05.001Z</time></trkpt><trkpt lat="43.36798835858238" lon="13.485801244133427"><ele>83.0</ele><time>2026-04-12T08:04:06.001Z</time></trkpt><trkpt lat="43.36796361802025" lon="13.48566062706329"><ele>82.80000000000001</ele><time>2026-04-12T08:04:07.001Z</time></trkpt><trkpt lat="43.367952720269756" lon="13.485534349366187"><ele>82.6</ele><time>2026-04-12T08:04:08.001Z</time></trkpt><trkpt lat="43.367964167905036" lon="13.485408814254798"><ele>82.4</ele><time>2026-04-12T08:04:09.001Z</time></trkpt><trkpt lat="43.36801502635873" lon="13.485287968727157"><ele>82.19999999999999</ele><time>2026-04-12T08:04:10.001Z</time></trkpt><trkpt lat="43.3680672206791" lon="13.485162245791527"><ele>82.0</ele><time>2026-04-12T08:04:11.001Z</time></trkpt><trkpt lat="43.36812808594299" lon="13.485019112225368"><ele>81.66666666666666</ele><time>2026-04-12T08:04:12.001Z</time></trkpt><trkpt lat="43.36820016118673" lon="13.484853631923595"><ele>81.33333333333333</ele><time>2026-04-12T08:04:13.001Z</time></trkpt><trkpt lat="43.36827750374835" lon="13.484672231365192"><ele>81.0</ele><time>2026-04-12T08:04:14.001Z</time></trkpt><trkpt lat="43.36836189006436" lon="13.484472835284016"><ele>80.66666666666667</ele><time>2026-04-12T08:04:15.001Z</time></trkpt><trkpt lat="43.368453776601555" lon="13.484255716929454"><ele>80.33333333333334</ele><time>2026-04-12T08:04:16.001Z</time></trkpt><trkpt lat="43.3685465575282" lon="13.484036485260754"><ele>80.0</ele><time>2026-04-12T08:04:17.001Z</time></trkpt><trkpt lat="43.36863848571713" lon="13.483819268521392"><ele>79.33333333333334</ele><time>2026-04-12T08:04:18.001Z</time></trkpt><trkpt lat="43.368739762831076" lon="13.48357996122085"><ele>78.66666666666667</ele><time>2026-04-12T08:04:19.001Z</time></trkpt><trkpt lat="43.36884192950053" lon="13.483338552043628"><ele>78.0</ele><time>2026-04-12T08:04:20.001Z</time></trkpt><trkpt lat="43.368944918704194" lon="13.48309316183862"><ele>77.0</ele><time>2026-04-12T08:04:21.001Z</time></trkpt><trkpt lat="43.36903122753928" lon="13.482842732349106"><ele>76.0</ele><time>2026-04-12T08:04:22.001Z</time></trkpt><trkpt lat="43.369142840668765" lon="13.482619194427242"><ele>75.0</ele><time>2026-04-12T08:04:23.001Z</time></trkpt><trkpt lat="43.369245286600844" lon="13.482374287363584"><ele>75.0</ele><time>2026-04-12T08:04:24.001Z</time></trkpt><trkpt lat="43.36934478438234" lon="13.482137116794465"><ele>75.0</ele><time>2026-04-12T08:04:25.001Z</time></trkpt><trkpt lat="43.36943176437226" lon="13.481892209395246"><ele>75.0</ele><time>2026-04-12T08:04:26.001Z</time></trkpt><trkpt lat="43.36952923702982" lon="13.481668066229073"><ele>74.66666666666667</ele><time>2026-04-12T08:04:27.001Z</time></trkpt><trkpt lat="43.3696261684353" lon="13.481439460004266"><ele>74.33333333333334</ele><time>2026-04-12T08:04:28.001Z</time></trkpt><trkpt lat="43.36973587579021" lon="13.481219250165301"><ele>74.0</ele><time>2026-04-12T08:04:29.001Z</time></trkpt><trkpt lat="43.36983759816178" lon="13.48098051423335"><ele>74.66666666666667</ele><time>2026-04-12T08:04:30.001Z</time></trkpt><trkpt lat="43.36993615184582" lon="13.480749215026439"><ele>75.33333333333333</ele><time>2026-04-12T08:04:31.001Z</time></trkpt><trkpt lat="43.37003226751712" lon="13.480523637668261"><ele>76.0</ele><time>2026-04-12T08:04:32.001Z</time></trkpt><trkpt lat="43.37012536987605" lon="13.480305132356756"><ele>76.0</ele><time>2026-04-12T08:04:33Z</time></trkpt><trkpt lat="43.37021180614873" lon="13.48010148588988"><ele>76.0</ele><time>2026-04-12T08:04:34Z</time></trkpt><trkpt lat="43.370293596844306" lon="13.47990840073694"><ele>76.0</ele><time>2026-04-12T08:04:35Z</time></trkpt><trkpt lat="43.370373572469155" lon="13.479713907520216"><ele>76.33333333333333</ele><time>2026-04-12T08:04:36Z</time></trkpt><trkpt lat="43.37045440826389" lon="13.479513302544332"><ele>76.66666666666667</ele><time>2026-04-12T08:04:37Z</time></trkpt><trkpt lat="43.3705245519878" lon="13.47933559188167"><ele>77.0</ele><time>2026-04-12T08:04:38Z</time></trkpt><trkpt lat="43.37059552066641" lon="13.479154657391083"><ele>77.0</ele><time>2026-04-12T08:04:39Z</time></trkpt><trkpt lat="43.37065756724563" lon="13.478992045347646"><ele>77.0</ele><time>2026-04-12T08:04:40Z</time></trkpt><trkpt lat="43.370716284961475" lon="13.478836374126521"><ele>77.0</ele><time>2026-04-12T08:04:41Z</time></trkpt><trkpt lat="43.37077323634726" lon="13.478679657087442"><ele>77.0</ele><time>2026-04-12T08:04:42Z</time></trkpt><trkpt lat="43.37082603331569" lon="13.47853437201983"><ele>77.25</ele><time>2026-04-12T08:04:43Z</time></trkpt><trkpt lat="43.37088554166853" lon="13.478370533556065"><ele>77.5</ele><time>2026-04-12T08:04:44Z</time></trkpt><trkpt lat="43.37095108413152" lon="13.478188715451846"><ele>77.75</ele><time>2026-04-12T08:04:45Z</time></trkpt><trkpt lat="43.37101820657939" lon="13.478002514395891"><ele>78.0</ele><time>2026-04-12T08:04:46Z</time></trkpt><trkpt lat="43.37108705267905" lon="13.477811531837277"><ele>77.33333333333333</ele><time>2026-04-12T08:04:47Z</time></trkpt><trkpt lat="43.37116023777553" lon="13.47760851269241"><ele>76.66666666666666</ele><time>2026-04-12T08:04:48Z</time></trkpt><trkpt lat="43.37123421637076" lon="13.477403292340712"><ele>76.0</ele><time>2026-04-12T08:04:49Z</time></trkpt><trkpt lat="43.37129330079013" lon="13.477188930721224"><ele>76.33333333333333</ele><time>2026-04-12T08:04:50Z</time></trkpt><trkpt lat="43.37136705001115" lon="13.476984283852264"><ele>76.66666666666667</ele><time>2026-04-12T08:04:51Z</time></trkpt><trkpt lat="43.37144166256635" lon="13.476780252698036"><ele>77.0</ele><time>2026-04-12T08:04:52Z</time></trkpt><trkpt lat="43.37152935820744" lon="13.476586593030198"><ele>77.0</ele><time>2026-04-12T08:04:53Z</time></trkpt><trkpt lat="43.37160223667743" lon="13.476386425064723"><ele>77.0</ele><time>2026-04-12T08:04:54Z</time></trkpt><trkpt lat="43.371680022261486" lon="13.476176114864163"><ele>77.0</ele><time>2026-04-12T08:04:55Z</time></trkpt><trkpt lat="43.371757185711964" lon="13.475967486731559"><ele>77.0</ele><time>2026-04-12T08:04:56Z</time></trkpt><trkpt lat="43.37183159864151" lon="13.475766295237095"><ele>77.0</ele><time>2026-04-12T08:04:57Z</time></trkpt><trkpt lat="43.37188972685309" lon="13.475564090433306"><ele>77.0</ele><time>2026-04-12T08:04:58Z</time></trkpt><trkpt lat="43.3719788723276" lon="13.475378980053277"><ele>77.33333333333334</ele><time>2026-04-12T08:04:59Z</time></trkpt><trkpt lat="43.37203942634779" lon="13.475180781907156"><ele>77.66666666666667</ele><time>2026-04-12T08:05:00Z</time></trkpt><trkpt lat="43.372110597095606" lon="13.474995750646894"><ele>78.0</ele><time>2026-04-12T08:05:01Z</time></trkpt><trkpt lat="43.37218285357096" lon="13.474807604152385"><ele>78.0</ele><time>2026-04-12T08:05:02Z</time></trkpt><trkpt lat="43.37225061609755" lon="13.474620519621984"><ele>78.0</ele><time>2026-04-12T08:05:03Z</time></trkpt><trkpt lat="43.37232236947219" lon="13.474426071820256"><ele>78.0</ele><time>2026-04-12T08:05:04Z</time></trkpt><trkpt lat="43.3723920764447" lon="13.474240045512538"><ele>78.33333333333333</ele><time>2026-04-12T08:05:05Z</time></trkpt><trkpt lat="43.372463275497935" lon="13.474048605960197"><ele>78.66666666666666</ele><time>2026-04-12T08:05:06Z</time></trkpt><trkpt lat="43.37253866509904" lon="13.473868306262943"><ele>79.0</ele><time>2026-04-12T08:05:07Z</time></trkpt><trkpt lat="43.37261750203277" lon="13.473697943189949"><ele>79.0</ele><time>2026-04-12T08:05:08Z</time></trkpt><trkpt lat="43.37270503928639" lon="13.473518036313045"><ele>79.0</ele><time>2026-04-12T08:05:09Z</time></trkpt><trkpt lat="43.37280088613095" lon="13.473362010425394"><ele>79.0</ele><time>2026-04-12T08:05:10Z</time></trkpt><trkpt lat="43.37288851998537" lon="13.473188347730044"><ele>79.0</ele><time>2026-04-12T08:05:11Z</time></trkpt><trkpt lat="43.372974240936195" lon="13.473019571853705"><ele>79.0</ele><time>2026-04-12T08:05:12Z</time></trkpt><trkpt lat="43.37306630823059" lon="13.472839213914854"><ele>79.0</ele><time>2026-04-12T08:05:13Z</time></trkpt><trkpt lat="43.3731524871799" lon="13.472670689905925"><ele>79.0</ele><time>2026-04-12T08:05:14Z</time></trkpt><trkpt lat="43.373234937475026" lon="13.47251009563926"><ele>79.0</ele><time>2026-04-12T08:05:15Z</time></trkpt><trkpt lat="43.37332056711321" lon="13.472344078821305"><ele>79.0</ele><time>2026-04-12T08:05:16Z</time></trkpt><trkpt lat="43.373406174335145" lon="13.47217908082663"><ele>79.0</ele><time>2026-04-12T08:05:17Z</time></trkpt><trkpt lat="43.37349339383933" lon="13.472010975318389"><ele>79.0</ele><time>2026-04-12T08:05:18Z</time></trkpt><trkpt lat="43.37356720332915" lon="13.471829477479915"><ele>79.0</ele><time>2026-04-12T08:05:19Z</time></trkpt><trkpt lat="43.37365703092867" lon="13.471658552777658"><ele>79.0</ele><time>2026-04-12T08:05:20Z</time></trkpt><trkpt lat="43.37375147948617" lon="13.47147828358835"><ele>79.0</ele><time>2026-04-12T08:05:21Z</time></trkpt><trkpt lat="43.373838014808655" lon="13.471308010563238"><ele>79.0</ele><time>2026-04-12T08:05:22Z</time></trkpt><trkpt lat="43.37392591845102" lon="13.471133590860408"><ele>79.0</ele><time>2026-04-12T08:05:23Z</time></trkpt><trkpt lat="43.37401345531998" lon="13.470961079804152"><ele>79.75</ele><time>2026-04-12T08:05:24Z</time></trkpt><trkpt lat="43.374101176830095" lon="13.470796633077281"><ele>80.5</ele><time>2026-04-12T08:05:25Z</time></trkpt><trkpt lat="43.374175810504234" lon="13.470639236075508"><ele>81.25</ele><time>2026-04-12T08:05:26Z</time></trkpt><trkpt lat="43.374261993059285" lon="13.470514547991309"><ele>82.0</ele><time>2026-04-12T08:05:27Z</time></trkpt><trkpt lat="43.37431821428121" lon="13.470379365252342"><ele>81.99999999999999</ele><time>2026-04-12T08:05:28Z</time></trkpt><trkpt lat="43.37438396891834" lon="13.47028580008839"><ele>82.0</ele><time>2026-04-12T08:05:29Z</time></trkpt><trkpt lat="43.374442110710525" lon="13.470207510467876"><ele>82.0</ele><time>2026-04-12T08:05:30Z</time></trkpt><trkpt lat="43.374493967605126" lon="13.4701481966487"><ele>82.0</ele><time>2026-04-12T08:05:31Z</time></trkpt><trkpt lat="43.374557446512924" lon="13.470107908608233"><ele>82.0</ele><time>2026-04-12T08:05:33Z</time></trkpt><trkpt lat="43.374611467477706" lon="13.470061179251514"><ele>81.99999999999999</ele><time>2026-04-12T08:05:37Z</time></trkpt><trkpt lat="43.37455159977814" lon="13.4701042709813"><ele>82.0</ele><time>2026-04-12T08:05:41Z</time></trkpt><trkpt lat="43.3744625280835" lon="13.470118112745244"><ele>82.0</ele><time>2026-04-12T08:05:42Z</time></trkpt><trkpt lat="43.374405164055624" lon="13.470219973652984"><ele>82.0</ele><time>2026-04-12T08:05:43Z</time></trkpt><trkpt lat="43.37434788119265" lon="13.470297995754722"><ele>82.0</ele><time>2026-04-12T08:05:44Z</time></trkpt><trkpt lat="43.374264078266705" lon="13.470414501022223"><ele>82.0</ele><time>2026-04-12T08:05:46Z</time></trkpt><trkpt lat="43.37420479522009" lon="13.47053181945606"><ele>82.0</ele><time>2026-04-12T08:05:48Z</time></trkpt><trkpt lat="43.374136763211425" lon="13.470656086111653"><ele>82.0</ele><time>2026-04-12T08:05:50Z</time></trkpt><trkpt lat="43.37407581588543" lon="13.470771771604447"><ele>82.0</ele><time>2026-04-12T08:05:52Z</time></trkpt><trkpt lat="43.374059640640155" lon="13.47086143115584"><ele>82.0</ele><time>2026-04-12T08:05:55.001Z</time></trkpt><trkpt lat="43.37416387180918" lon="13.470930553158487"><ele>82.0</ele><time>2026-04-12T08:06:03.001Z</time></trkpt><trkpt lat="43.37421659455792" lon="13.470979136327076"><ele>82.0</ele><time>2026-04-12T08:06:04.001Z</time></trkpt><trkpt lat="43.374274946293" lon="13.471034854678143"><ele>82.0</ele><time>2026-04-12T08:06:05.001Z</time></trkpt><trkpt lat="43.37433127990543" lon="13.47109099613688"><ele>82.0</ele><time>2026-04-12T08:06:06.001Z</time></trkpt><trkpt lat="43.37440421801097" lon="13.471163669367922"><ele>82.0</ele><time>2026-04-12T08:06:07.001Z</time></trkpt><trkpt lat="43.374478145547606" lon="13.471237327932881"><ele>82.0</ele><time>2026-04-12T08:06:08.001Z</time></trkpt><trkpt lat="43.374549509356626" lon="13.471310885965215"><ele>82.0</ele><time>2026-04-12T08:06:09.001Z</time></trkpt><trkpt lat="43.37463211931731" lon="13.471394314507052"><ele>82.0</ele><time>2026-04-12T08:06:10.001Z</time></trkpt><trkpt lat="43.374696885972305" lon="13.471458136201987"><ele>82.6</ele><time>2026-04-12T08:06:11.001Z</time></trkpt><trkpt lat="43.374760580484846" lon="13.47151869954408"><ele>83.19999999999999</ele><time>2026-04-12T08:06:12.001Z</time></trkpt><trkpt lat="43.37483416711203" lon="13.471592844154694"><ele>83.8</ele><time>2026-04-12T08:06:13.001Z</time></trkpt><trkpt lat="43.374916471477704" lon="13.471672875772306"><ele>84.4</ele><time>2026-04-12T08:06:14.001Z</time></trkpt><trkpt lat="43.37499059005028" lon="13.471744051364979"><ele>85.0</ele><time>2026-04-12T08:06:15.001Z</time></trkpt><trkpt lat="43.375074324717566" lon="13.471827604662758"><ele>85.0</ele><time>2026-04-12T08:06:16.001Z</time></trkpt><trkpt lat="43.37516756304681" lon="13.471919451365348"><ele>85.0</ele><time>2026-04-12T08:06:17.001Z</time></trkpt><trkpt lat="43.37525300892529" lon="13.47200821317658"><ele>85.0</ele><time>2026-04-12T08:06:18.001Z</time></trkpt><trkpt lat="43.375343667477715" lon="13.47210165622349"><ele>85.0</ele><time>2026-04-12T08:06:19.001Z</time></trkpt><trkpt lat="43.375440097113" lon="13.472193792527303"><ele>86.8</ele><time>2026-04-12T08:06:20.001Z</time></trkpt><trkpt lat="43.375531365783445" lon="13.472289050265118"><ele>88.6</ele><time>2026-04-12T08:06:21.001Z</time></trkpt><trkpt lat="43.37561650482327" lon="13.472377759511167"><ele>90.4</ele><time>2026-04-12T08:06:22.001Z</time></trkpt><trkpt lat="43.37569557221403" lon="13.47245488036715"><ele>92.2</ele><time>2026-04-12T08:06:23.001Z</time></trkpt><trkpt lat="43.37577518131829" lon="13.472538279568946"><ele>94.0</ele><time>2026-04-12T08:06:24.001Z</time></trkpt><trkpt lat="43.37584620247484" lon="13.472609181228338"><ele>94.0</ele><time>2026-04-12T08:06:25.001Z</time></trkpt><trkpt lat="43.375912804995586" lon="13.472669976431137"><ele>94.0</ele><time>2026-04-12T08:06:26.001Z</time></trkpt><trkpt lat="43.375982367746886" lon="13.472725913179273"><ele>94.0</ele><time>2026-04-12T08:06:27.001Z</time></trkpt><trkpt lat="43.37605073095099" lon="13.472769174017497"><ele>94.0</ele><time>2026-04-12T08:06:28.001Z</time></trkpt><trkpt lat="43.37613006362467" lon="13.472791716665032"><ele>94.0</ele><time>2026-04-12T08:06:30.001Z</time></trkpt><trkpt lat="43.376069480240275" lon="13.472744471916148"><ele>94.0</ele><time>2026-04-12T08:07:00Z</time></trkpt><trkpt lat="43.375981924113134" lon="13.472703641743589"><ele>94.0</ele><time>2026-04-12T08:07:03Z</time></trkpt><trkpt lat="43.375904887202864" lon="13.472653613058737"><ele>94.0</ele><time>2026-04-12T08:07:04Z</time></trkpt><trkpt lat="43.37583431269689" lon="13.472597958478103"><ele>94.0</ele><time>2026-04-12T08:07:05Z</time></trkpt><trkpt lat="43.37576585439746" lon="13.472531532884686"><ele>94.0</ele><time>2026-04-12T08:07:06Z</time></trkpt><trkpt lat="43.37569499000559" lon="13.472456419215273"><ele>94.0</ele><time>2026-04-12T08:07:07Z</time></trkpt><trkpt lat="43.37561427830084" lon="13.472373344769307"><ele>94.0</ele><time>2026-04-12T08:07:08Z</time></trkpt><trkpt lat="43.37553592828131" lon="13.472289860171268"><ele>92.6</ele><time>2026-04-12T08:07:09Z</time></trkpt><trkpt lat="43.375450004300376" lon="13.472198190936528"><ele>91.2</ele><time>2026-04-12T08:07:10Z</time></trkpt><trkpt lat="43.37536802704968" lon="13.47211619221048"><ele>89.8</ele><time>2026-04-12T08:07:11Z</time></trkpt><trkpt lat="43.37528437331883" lon="13.472030831855896"><ele>88.39999999999999</ele><time>2026-04-12T08:07:12Z</time></trkpt><trkpt lat="43.375185539534236" lon="13.471936549519262"><ele>87.0</ele><time>2026-04-12T08:07:13Z</time></trkpt><trkpt lat="43.375087141568024" lon="13.471833582650323"><ele>86.5</ele><time>2026-04-12T08:07:14Z</time></trkpt><trkpt lat="43.374993482280054" lon="13.471738376318136"><ele>86.0</ele><time>2026-04-12T08:07:15Z</time></trkpt><trkpt lat="43.37490024921523" lon="13.471643567582877"><ele>85.5</ele><time>2026-04-12T08:07:16Z</time></trkpt><trkpt lat="43.37480137733263" lon="13.471551183480077"><ele>85.0</ele><time>2026-04-12T08:07:17Z</time></trkpt><trkpt lat="43.37471464613566" lon="13.471468320694543"><ele>84.4</ele><time>2026-04-12T08:07:18Z</time></trkpt><trkpt lat="43.37463735424332" lon="13.471396208062242"><ele>83.8</ele><time>2026-04-12T08:07:19Z</time></trkpt><trkpt lat="43.37456210930803" lon="13.471320803483419"><ele>83.19999999999999</ele><time>2026-04-12T08:07:20Z</time></trkpt><trkpt lat="43.374492004530154" lon="13.471249056575298"><ele>82.6</ele><time>2026-04-12T08:07:21Z</time></trkpt><trkpt lat="43.374414546644715" lon="13.471167759594378"><ele>82.0</ele><time>2026-04-12T08:07:22Z</time></trkpt><trkpt lat="43.37434075445186" lon="13.471099813979057"><ele>82.0</ele><time>2026-04-12T08:07:23Z</time></trkpt><trkpt lat="43.374280499272274" lon="13.471040882597151"><ele>82.0</ele><time>2026-04-12T08:07:24Z</time></trkpt><trkpt lat="43.374229029145695" lon="13.470989323765354"><ele>82.0</ele><time>2026-04-12T08:07:25Z</time></trkpt><trkpt lat="43.37414079218374" lon="13.470907731924017"><ele>82.0</ele><time>2026-04-12T08:07:27Z</time></trkpt><trkpt lat="43.374092774529366" lon="13.470820980868128"><ele>82.0</ele><time>2026-04-12T08:07:30Z</time></trkpt><trkpt lat="43.374124834244455" lon="13.47072167632183"><ele>82.0</ele><time>2026-04-12T08:07:32Z</time></trkpt><trkpt lat="43.37418075346411" lon="13.470634083445036"><ele>82.0</ele><time>2026-04-12T08:07:33Z</time></trkpt><trkpt lat="43.37423303277673" lon="13.470549506633443"><ele>82.0</ele><time>2026-04-12T08:07:34Z</time></trkpt><trkpt lat="43.374286244056954" lon="13.470452366936897"><ele>82.0</ele><time>2026-04-12T08:07:35Z</time></trkpt><trkpt lat="43.37435528580037" lon="13.470340937194695"><ele>82.0</ele><time>2026-04-12T08:07:36Z</time></trkpt><trkpt lat="43.37443078036568" lon="13.470233543504884"><ele>82.0</ele><time>2026-04-12T08:07:37Z</time></trkpt><trkpt lat="43.374522783065" lon="13.470126254935032"><ele>82.0</ele><time>2026-04-12T08:07:38Z</time></trkpt><trkpt lat="43.37462116522785" lon="13.470022036558866"><ele>82.0</ele><time>2026-04-12T08:07:39Z</time></trkpt><trkpt lat="43.374733842946604" lon="13.469913621071079"><ele>82.0</ele><time>2026-04-12T08:07:40Z</time></trkpt><trkpt lat="43.374849009513795" lon="13.469809986070862"><ele>82.0</ele><time>2026-04-12T08:07:41Z</time></trkpt><trkpt lat="43.37496481964615" lon="13.469713063756762"><ele>82.25</ele><time>2026-04-12T08:07:42Z</time></trkpt><trkpt lat="43.37508860457167" lon="13.469617934563288"><ele>82.5</ele><time>2026-04-12T08:07:43Z</time></trkpt><trkpt lat="43.375210044274276" lon="13.469556655329646"><ele>82.75</ele><time>2026-04-12T08:07:44Z</time></trkpt><trkpt lat="43.37534806034258" lon="13.46950065610552"><ele>83.0</ele><time>2026-04-12T08:07:45Z</time></trkpt><trkpt lat="43.375497394955296" lon="13.469461348915637"><ele>83.33333333333334</ele><time>2026-04-12T08:07:46Z</time></trkpt><trkpt lat="43.37565013650534" lon="13.469428149063198"><ele>83.66666666666667</ele><time>2026-04-12T08:07:47Z</time></trkpt><trkpt lat="43.375801843636026" lon="13.469387290987033"><ele>84.0</ele><time>2026-04-12T08:07:48Z</time></trkpt><trkpt lat="43.375952180792666" lon="13.469318903090928"><ele>84.0</ele><time>2026-04-12T08:07:49Z</time></trkpt><trkpt lat="43.37610060285666" lon="13.469226016396707"><ele>84.0</ele><time>2026-04-12T08:07:50Z</time></trkpt><trkpt lat="43.37624632718765" lon="13.469101257248763"><ele>84.0</ele><time>2026-04-12T08:07:51Z</time></trkpt><trkpt lat="43.37637577953177" lon="13.468968529987746"><ele>85.0</ele><time>2026-04-12T08:07:52Z</time></trkpt><trkpt lat="43.37648449954266" lon="13.468835751061635"><ele>86.0</ele><time>2026-04-12T08:07:53Z</time></trkpt><trkpt lat="43.376600920238616" lon="13.468718665517295"><ele>87.0</ele><time>2026-04-12T08:07:54Z</time></trkpt><trkpt lat="43.37673782314628" lon="13.468611617455183"><ele>88.0</ele><time>2026-04-12T08:07:55Z</time></trkpt><trkpt lat="43.37688320854061" lon="13.46851160306188"><ele>88.0</ele><time>2026-04-12T08:07:56Z</time></trkpt><trkpt lat="43.37703370006414" lon="13.468412922963271"><ele>88.0</ele><time>2026-04-12T08:07:57Z</time></trkpt><trkpt lat="43.37718057044328" lon="13.468308862562742"><ele>88.0</ele><time>2026-04-12T08:07:58Z</time></trkpt><trkpt lat="43.37734011703504" lon="13.46822342681452"><ele>88.66666666666666</ele><time>2026-04-12T08:07:59Z</time></trkpt><trkpt lat="43.3774926615533" lon="13.468132329004629"><ele>89.33333333333333</ele><time>2026-04-12T08:08:00Z</time></trkpt><trkpt lat="43.37762970117333" lon="13.468046105940862"><ele>90.0</ele><time>2026-04-12T08:08:01.001Z</time></trkpt><trkpt lat="43.37777334691823" lon="13.467942621808282"><ele>90.0</ele><time>2026-04-12T08:08:02.001Z</time></trkpt><trkpt lat="43.377917585572746" lon="13.467837370002023"><ele>90.0</ele><time>2026-04-12T08:08:03.001Z</time></trkpt><trkpt lat="43.37806293356064" lon="13.467733499375237"><ele>90.0</ele><time>2026-04-12T08:08:04.001Z</time></trkpt><trkpt lat="43.37820694848166" lon="13.467625866488074"><ele>91.75</ele><time>2026-04-12T08:08:05.001Z</time></trkpt><trkpt lat="43.378340917423344" lon="13.46752917575508"><ele>93.5</ele><time>2026-04-12T08:08:06.001Z</time></trkpt><trkpt lat="43.37846219234611" lon="13.467434022753816"><ele>95.25</ele><time>2026-04-12T08:08:07.001Z</time></trkpt><trkpt lat="43.378579149612634" lon="13.467342131234025"><ele>97.0</ele><time>2026-04-12T08:08:08.001Z</time></trkpt><trkpt lat="43.37869518652396" lon="13.467246157876401"><ele>97.0</ele><time>2026-04-12T08:08:09.001Z</time></trkpt><trkpt lat="43.378819253608356" lon="13.467142583792727"><ele>97.0</ele><time>2026-04-12T08:08:10.001Z</time></trkpt><trkpt lat="43.378949547665435" lon="13.467030522959288"><ele>97.0</ele><time>2026-04-12T08:08:11.001Z</time></trkpt><trkpt lat="43.379071018071905" lon="13.466900624658784"><ele>96.0</ele><time>2026-04-12T08:08:12.001Z</time></trkpt><trkpt lat="43.37918582249951" lon="13.466743209075329"><ele>95.0</ele><time>2026-04-12T08:08:13.001Z</time></trkpt><trkpt lat="43.37930616380001" lon="13.466582214619645"><ele>94.0</ele><time>2026-04-12T08:08:14.001Z</time></trkpt><trkpt lat="43.37942499370987" lon="13.466417003576618"><ele>92.66666666666666</ele><time>2026-04-12T08:08:15.001Z</time></trkpt><trkpt lat="43.379547144185196" lon="13.466243089207456"><ele>91.33333333333333</ele><time>2026-04-12T08:08:16.001Z</time></trkpt><trkpt lat="43.37966014160301" lon="13.46605483060019"><ele>90.0</ele><time>2026-04-12T08:08:17.001Z</time></trkpt><trkpt lat="43.379764861700686" lon="13.46584893698878"><ele>90.0</ele><time>2026-04-12T08:08:18.001Z</time></trkpt><trkpt lat="43.37986757890259" lon="13.465629504448072"><ele>90.0</ele><time>2026-04-12T08:08:19.001Z</time></trkpt><trkpt lat="43.37997515212022" lon="13.46540610200367"><ele>90.0</ele><time>2026-04-12T08:08:20.001Z</time></trkpt><trkpt lat="43.3800839667221" lon="13.465178523128277"><ele>90.0</ele><time>2026-04-12T08:08:21.001Z</time></trkpt><trkpt lat="43.380190019336" lon="13.464967787997663"><ele>90.0</ele><time>2026-04-12T08:08:22.001Z</time></trkpt><trkpt lat="43.380303529322134" lon="13.464759888143359"><ele>90.0</ele><time>2026-04-12T08:08:23.001Z</time></trkpt><trkpt lat="43.380415659461505" lon="13.464553100982041"><ele>91.66666666666667</ele><time>2026-04-12T08:08:24.001Z</time></trkpt><trkpt lat="43.38053434382447" lon="13.464339211326546"><ele>93.33333333333334</ele><time>2026-04-12T08:08:25.001Z</time></trkpt><trkpt lat="43.38064038541845" lon="13.464131150582539"><ele>95.0</ele><time>2026-04-12T08:08:26.001Z</time></trkpt><trkpt lat="43.38074634764627" lon="13.463901283139814"><ele>94.33333333333334</ele><time>2026-04-12T08:08:27.001Z</time></trkpt><trkpt lat="43.38086479724012" lon="13.463684406412872"><ele>93.66666666666667</ele><time>2026-04-12T08:08:28.001Z</time></trkpt><trkpt lat="43.38097923471132" lon="13.463463499055717"><ele>93.0</ele><time>2026-04-12T08:08:29.001Z</time></trkpt><trkpt lat="43.38109312977401" lon="13.463240569411845"><ele>93.0</ele><time>2026-04-12T08:08:30.001Z</time></trkpt><trkpt lat="43.38121071421294" lon="13.463020517826592"><ele>93.0</ele><time>2026-04-12T08:08:31.001Z</time></trkpt><trkpt lat="43.38132095538875" lon="13.462823919296833"><ele>93.0</ele><time>2026-04-12T08:08:32.001Z</time></trkpt><trkpt lat="43.38142589242523" lon="13.462631618674827"><ele>93.66666666666667</ele><time>2026-04-12T08:08:33.001Z</time></trkpt><trkpt lat="43.38152173285891" lon="13.462455810077241"><ele>94.33333333333334</ele><time>2026-04-12T08:08:34.001Z</time></trkpt><trkpt lat="43.38161465698563" lon="13.462286919609591"><ele>95.0</ele><time>2026-04-12T08:08:35.001Z</time></trkpt><trkpt lat="43.38170116334906" lon="13.462126096924097"><ele>95.0</ele><time>2026-04-12T08:08:36.001Z</time></trkpt><trkpt lat="43.38179338700728" lon="13.461964788297013"><ele>95.0</ele><time>2026-04-12T08:08:37.001Z</time></trkpt><trkpt lat="43.381887971798456" lon="13.461797583417932"><ele>95.0</ele><time>2026-04-12T08:08:38.001Z</time></trkpt><trkpt lat="43.38197954654811" lon="13.461625407667018"><ele>95.0</ele><time>2026-04-12T08:08:39.001Z</time></trkpt><trkpt lat="43.382070903552474" lon="13.461462001451746"><ele>95.0</ele><time>2026-04-12T08:08:40.001Z</time></trkpt><trkpt lat="43.382158827845174" lon="13.461279433851411"><ele>95.0</ele><time>2026-04-12T08:08:41.001Z</time></trkpt><trkpt lat="43.382252699127754" lon="13.461098643366055"><ele>95.33333333333334</ele><time>2026-04-12T08:08:42.001Z</time></trkpt><trkpt lat="43.382351263695476" lon="13.460910420348952"><ele>95.66666666666667</ele><time>2026-04-12T08:08:43.001Z</time></trkpt><trkpt lat="43.38244225773108" lon="13.460740516056045"><ele>96.0</ele><time>2026-04-12T08:08:44.001Z</time></trkpt><trkpt lat="43.3825224870096" lon="13.460583905446578"><ele>96.0</ele><time>2026-04-12T08:08:45Z</time></trkpt><trkpt lat="43.38258251888005" lon="13.46046516181813"><ele>96.0</ele><time>2026-04-12T08:08:46Z</time></trkpt><trkpt lat="43.38263099561838" lon="13.460374679800598"><ele>96.0</ele><time>2026-04-12T08:08:47Z</time></trkpt><trkpt lat="43.38268102036574" lon="13.460279193272562"><ele>96.0</ele><time>2026-04-12T08:08:48Z</time></trkpt><trkpt lat="43.38274126136636" lon="13.460181884994906"><ele>96.0</ele><time>2026-04-12T08:08:49Z</time></trkpt><trkpt lat="43.382805667496164" lon="13.460040464768976"><ele>95.75</ele><time>2026-04-12T08:08:50Z</time></trkpt><trkpt lat="43.38288790523732" lon="13.45989311173057"><ele>95.5</ele><time>2026-04-12T08:08:51Z</time></trkpt><trkpt lat="43.38298951260546" lon="13.459742216642242"><ele>95.25</ele><time>2026-04-12T08:08:52Z</time></trkpt><trkpt lat="43.383100812121924" lon="13.459590696464884"><ele>95.0</ele><time>2026-04-12T08:08:53Z</time></trkpt><trkpt lat="43.383216478267634" lon="13.459435111807274"><ele>95.0</ele><time>2026-04-12T08:08:54Z</time></trkpt><trkpt lat="43.38332812668165" lon="13.459268869856798"><ele>95.0</ele><time>2026-04-12T08:08:55Z</time></trkpt><trkpt lat="43.38343820655983" lon="13.459098739487457"><ele>95.0</ele><time>2026-04-12T08:08:56Z</time></trkpt><trkpt lat="43.38356549655028" lon="13.458941343243785"><ele>95.0</ele><time>2026-04-12T08:08:57Z</time></trkpt><trkpt lat="43.38368914656154" lon="13.458767900656397"><ele>95.0</ele><time>2026-04-12T08:08:58Z</time></trkpt><trkpt lat="43.3838141778742" lon="13.458588354900032"><ele>95.0</ele><time>2026-04-12T08:08:59Z</time></trkpt><trkpt lat="43.38393345599346" lon="13.458396280963482"><ele>95.0</ele><time>2026-04-12T08:09:00Z</time></trkpt><trkpt lat="43.384065362366066" lon="13.458214486270302"><ele>95.0</ele><time>2026-04-12T08:09:01Z</time></trkpt><trkpt lat="43.38419732047978" lon="13.458020468984186"><ele>95.0</ele><time>2026-04-12T08:09:02Z</time></trkpt><trkpt lat="43.384328074896736" lon="13.457824099706047"><ele>95.0</ele><time>2026-04-12T08:09:03Z</time></trkpt><trkpt lat="43.38444940646554" lon="13.45763458470105"><ele>95.0</ele><time>2026-04-12T08:09:04Z</time></trkpt><trkpt lat="43.38455792105287" lon="13.457468549123714"><ele>95.0</ele><time>2026-04-12T08:09:05Z</time></trkpt><trkpt lat="43.38465897937305" lon="13.45731709574482"><ele>95.6</ele><time>2026-04-12T08:09:06Z</time></trkpt><trkpt lat="43.38474857537787" lon="13.457192983434977"><ele>96.2</ele><time>2026-04-12T08:09:07Z</time></trkpt><trkpt lat="43.38481659272405" lon="13.457097576743635"><ele>96.80000000000001</ele><time>2026-04-12T08:09:08Z</time></trkpt><trkpt lat="43.38487602733373" lon="13.457014301940518"><ele>97.4</ele><time>2026-04-12T08:09:09Z</time></trkpt><trkpt lat="43.38492756753412" lon="13.456939021050783"><ele>98.0</ele><time>2026-04-12T08:09:10Z</time></trkpt><trkpt lat="43.38500410954126" lon="13.456842621219348"><ele>96.0</ele><time>2026-04-12T08:09:11Z</time></trkpt><trkpt lat="43.38511525862386" lon="13.456717105625234"><ele>94.0</ele><time>2026-04-12T08:09:12Z</time></trkpt><trkpt lat="43.38524457873696" lon="13.4565822739824"><ele>92.0</ele><time>2026-04-12T08:09:13Z</time></trkpt><trkpt lat="43.38536746815796" lon="13.456443307014842"><ele>92.0</ele><time>2026-04-12T08:09:14Z</time></trkpt><trkpt lat="43.38548604823616" lon="13.456328277041084"><ele>92.0</ele><time>2026-04-12T08:09:15Z</time></trkpt><trkpt lat="43.385602328792345" lon="13.45619400957837"><ele>92.0</ele><time>2026-04-12T08:09:16Z</time></trkpt><trkpt lat="43.385730548928386" lon="13.45604158749658"><ele>92.66666666666667</ele><time>2026-04-12T08:09:17Z</time></trkpt><trkpt lat="43.385852739819036" lon="13.45587835936484"><ele>93.33333333333333</ele><time>2026-04-12T08:09:18Z</time></trkpt><trkpt lat="43.385961396480155" lon="13.455720822245656"><ele>94.0</ele><time>2026-04-12T08:09:19Z</time></trkpt><trkpt lat="43.386051450777" lon="13.455593697034503"><ele>94.0</ele><time>2026-04-12T08:09:20Z</time></trkpt><trkpt lat="43.38613858383206" lon="13.455462924732839"><ele>94.0</ele><time>2026-04-12T08:09:21Z</time></trkpt><trkpt lat="43.386211319663715" lon="13.455340651605182"><ele>94.0</ele><time>2026-04-12T08:09:22Z</time></trkpt><trkpt lat="43.38627714878838" lon="13.455234540272917"><ele>94.0</ele><time>2026-04-12T08:09:23Z</time></trkpt><trkpt lat="43.38632512467521" lon="13.455163862990135"><ele>94.0</ele><time>2026-04-12T08:09:24Z</time></trkpt><trkpt lat="43.386376838065665" lon="13.455109453267633"><ele>95.2</ele><time>2026-04-12T08:09:27Z</time></trkpt><trkpt lat="43.386429061526165" lon="13.454992331756268"><ele>96.4</ele><time>2026-04-12T08:09:34Z</time></trkpt><trkpt lat="43.38651085434063" lon="13.45488830520694"><ele>97.6</ele><time>2026-04-12T08:09:36Z</time></trkpt><trkpt lat="43.38656098211521" lon="13.454828360014691"><ele>98.8</ele><time>2026-04-12T08:09:38Z</time></trkpt><trkpt lat="43.38650197906413" lon="13.45490840371115"><ele>100.0</ele><time>2026-04-12T08:09:51Z</time></trkpt><trkpt lat="43.38640766287472" lon="13.455012965083364"><ele>100.00000000000001</ele><time>2026-04-12T08:09:52Z</time></trkpt><trkpt lat="43.38636629058579" lon="13.455106684905196"><ele>100.0</ele><time>2026-04-12T08:09:53Z</time></trkpt><trkpt lat="43.38630423636188" lon="13.455199373132315"><ele>100.0</ele><time>2026-04-12T08:09:54Z</time></trkpt><trkpt lat="43.38624116279149" lon="13.455299335199118"><ele>100.0</ele><time>2026-04-12T08:09:55Z</time></trkpt><trkpt lat="43.38618808667782" lon="13.455384221890094"><ele>100.00000000000001</ele><time>2026-04-12T08:09:56Z</time></trkpt><trkpt lat="43.386138870799726" lon="13.45546206397129"><ele>100.0</ele><time>2026-04-12T08:09:57Z</time></trkpt><trkpt lat="43.38607121494145" lon="13.455569072144272"><ele>98.8</ele><time>2026-04-12T08:09:59Z</time></trkpt><trkpt lat="43.3859134502996" lon="13.455517984767809"><ele>97.6</ele><time>2026-04-12T08:10:12Z</time></trkpt><trkpt lat="43.38583320602828" lon="13.455505330945932"><ele>96.4</ele><time>2026-04-12T08:10:13Z</time></trkpt><trkpt lat="43.38573525319691" lon="13.45549495910577"><ele>95.2</ele><time>2026-04-12T08:10:14Z</time></trkpt><trkpt lat="43.38563377699908" lon="13.455484911624028"><ele>94.0</ele><time>2026-04-12T08:10:15Z</time></trkpt><trkpt lat="43.38553692519472" lon="13.455477405832019"><ele>94.0</ele><time>2026-04-12T08:10:16Z</time></trkpt><trkpt lat="43.38544859149945" lon="13.455468248231405"><ele>94.0</ele><time>2026-04-12T08:10:17Z</time></trkpt><trkpt lat="43.38536402740847" lon="13.455436136841339"><ele>94.0</ele><time>2026-04-12T08:10:18.001Z</time></trkpt><trkpt lat="43.3852774745743" lon="13.455441974777381"><ele>94.0</ele><time>2026-04-12T08:10:19.001Z</time></trkpt><trkpt lat="43.38519892242698" lon="13.45541187513461"><ele>94.0</ele><time>2026-04-12T08:10:20.001Z</time></trkpt><trkpt lat="43.3851240093052" lon="13.455418620346599"><ele>94.0</ele><time>2026-04-12T08:10:21.001Z</time></trkpt><trkpt lat="43.385055852926186" lon="13.4553812297617"><ele>94.0</ele><time>2026-04-12T08:10:22.001Z</time></trkpt><trkpt lat="43.38496746052327" lon="13.455362138001481"><ele>94.0</ele><time>2026-04-12T08:10:24.001Z</time></trkpt><trkpt lat="43.38484878320013" lon="13.455336505149257"><ele>94.0</ele><time>2026-04-12T08:10:26.001Z</time></trkpt><trkpt lat="43.384782393445704" lon="13.455322165770934"><ele>94.0</ele><time>2026-04-12T08:10:28.001Z</time></trkpt><trkpt lat="43.384709146198965" lon="13.455330889638844"><ele>94.0</ele><time>2026-04-12T08:10:30.001Z</time></trkpt><trkpt lat="43.384644122633524" lon="13.45531540477992"><ele>94.0</ele><time>2026-04-12T08:10:32.001Z</time></trkpt><trkpt lat="43.384572964699935" lon="13.455303146972218"><ele>92.80000000000001</ele><time>2026-04-12T08:10:34.001Z</time></trkpt><trkpt lat="43.384499288331924" lon="13.455312222800432"><ele>91.60000000000001</ele><time>2026-04-12T08:10:36.001Z</time></trkpt><trkpt lat="43.38441613382085" lon="13.455321157187056"><ele>90.4</ele><time>2026-04-12T08:10:38.001Z</time></trkpt><trkpt lat="43.38431382828307" lon="13.455337762679491"><ele>89.2</ele><time>2026-04-12T08:10:40.001Z</time></trkpt><trkpt lat="43.38423272282168" lon="13.455358231374143"><ele>88.0</ele><time>2026-04-12T08:10:42.001Z</time></trkpt><trkpt lat="43.38412233072915" lon="13.4554032098827"><ele>88.0</ele><time>2026-04-12T08:10:44.001Z</time></trkpt><trkpt lat="43.384048670340896" lon="13.455432422160618"><ele>88.0</ele><time>2026-04-12T08:10:45.001Z</time></trkpt><trkpt lat="43.383980538823785" lon="13.455456786852352"><ele>88.0</ele><time>2026-04-12T08:10:46.001Z</time></trkpt><trkpt lat="43.383866698356286" lon="13.455503031944284"><ele>88.0</ele><time>2026-04-12T08:10:48.001Z</time></trkpt><trkpt lat="43.38377932708152" lon="13.455543999203204"><ele>88.0</ele><time>2026-04-12T08:10:50.001Z</time></trkpt><trkpt lat="43.38371633541086" lon="13.455586245876203"><ele>88.0</ele><time>2026-04-12T08:10:53Z</time></trkpt><trkpt lat="43.383632895058035" lon="13.455631351459012"><ele>88.0</ele><time>2026-04-12T08:10:56Z</time></trkpt><trkpt lat="43.383566450267104" lon="13.45561991994203"><ele>88.0</ele><time>2026-04-12T08:11:05Z</time></trkpt><trkpt lat="43.38363056363156" lon="13.455622643561243"><ele>88.0</ele><time>2026-04-12T08:11:28Z</time></trkpt><trkpt lat="43.38372992659603" lon="13.455583103985273"><ele>88.0</ele><time>2026-04-12T08:11:31Z</time></trkpt><trkpt lat="43.3838167027873" lon="13.455547346967773"><ele>88.0</ele><time>2026-04-12T08:11:32Z</time></trkpt><trkpt lat="43.3838888584644" lon="13.455516138736433"><ele>88.0</ele><time>2026-04-12T08:11:33Z</time></trkpt><trkpt lat="43.383953181951426" lon="13.455494239575748"><ele>88.0</ele><time>2026-04-12T08:11:34Z</time></trkpt><trkpt lat="43.38402718952833" lon="13.455472207600767"><ele>88.0</ele><time>2026-04-12T08:11:35Z</time></trkpt><trkpt lat="43.38411068813384" lon="13.45544789000563"><ele>88.0</ele><time>2026-04-12T08:11:36Z</time></trkpt><trkpt lat="43.38419992519982" lon="13.455415930556837"><ele>88.0</ele><time>2026-04-12T08:11:37Z</time></trkpt><trkpt lat="43.38427912323319" lon="13.455395689442264"><ele>88.0</ele><time>2026-04-12T08:11:38Z</time></trkpt><trkpt lat="43.38435356396459" lon="13.455396507475854"><ele>88.0</ele><time>2026-04-12T08:11:39Z</time></trkpt><trkpt lat="43.38444578317476" lon="13.455398962902567"><ele>88.0</ele><time>2026-04-12T08:11:40Z</time></trkpt><trkpt lat="43.38453429480213" lon="13.45538413038322"><ele>88.0</ele><time>2026-04-12T08:11:41Z</time></trkpt><trkpt lat="43.38465138239173" lon="13.455392392923507"><ele>88.0</ele><time>2026-04-12T08:11:43Z</time></trkpt><trkpt lat="43.384749134460854" lon="13.455400790055517"><ele>88.0</ele><time>2026-04-12T08:11:44Z</time></trkpt><trkpt lat="43.384859064410776" lon="13.455419057546946"><ele>88.0</ele><time>2026-04-12T08:11:45Z</time></trkpt><trkpt lat="43.384956737830684" lon="13.455418139809877"><ele>88.75</ele><time>2026-04-12T08:11:46Z</time></trkpt><trkpt lat="43.38505567224002" lon="13.455421105415464"><ele>89.5</ele><time>2026-04-12T08:11:47Z</time></trkpt><trkpt lat="43.38517025050762" lon="13.455433363296303"><ele>90.25</ele><time>2026-04-12T08:11:48Z</time></trkpt><trkpt lat="43.38530481185263" lon="13.455473917705891"><ele>91.0</ele><time>2026-04-12T08:11:49Z</time></trkpt><trkpt lat="43.385441745699794" lon="13.455471902689977"><ele>91.75</ele><time>2026-04-12T08:11:50Z</time></trkpt><trkpt lat="43.38556909987898" lon="13.45548849920126"><ele>92.5</ele><time>2026-04-12T08:11:51Z</time></trkpt><trkpt lat="43.38570421045852" lon="13.455496816105166"><ele>93.25</ele><time>2026-04-12T08:11:52Z</time></trkpt><trkpt lat="43.38580887761711" lon="13.455529460320749"><ele>94.0</ele><time>2026-04-12T08:11:53Z</time></trkpt><trkpt lat="43.3858978449875" lon="13.455540190855885"><ele>94.0</ele><time>2026-04-12T08:11:54Z</time></trkpt><trkpt lat="43.385960487916066" lon="13.455552762792996"><ele>94.0</ele><time>2026-04-12T08:11:55Z</time></trkpt><trkpt lat="43.38603376220459" lon="13.455581595591498"><ele>94.0</ele><time>2026-04-12T08:11:57Z</time></trkpt><trkpt lat="43.386148347450494" lon="13.455455336457412"><ele>94.0</ele><time>2026-04-12T08:12:00Z</time></trkpt><trkpt lat="43.38619382400034" lon="13.455369588237087"><ele>94.0</ele><time>2026-04-12T08:12:01Z</time></trkpt><trkpt lat="43.38625286871398" lon="13.45526604514849"><ele>94.75</ele><time>2026-04-12T08:12:02Z</time></trkpt><trkpt lat="43.38632687941962" lon="13.455148678014558"><ele>95.5</ele><time>2026-04-12T08:12:03Z</time></trkpt><trkpt lat="43.38641987057694" lon="13.455010844049538"><ele>96.25</ele><time>2026-04-12T08:12:04Z</time></trkpt><trkpt lat="43.386523306935025" lon="13.454855933400754"><ele>97.0</ele><time>2026-04-12T08:12:05Z</time></trkpt><trkpt lat="43.38663388175301" lon="13.454697651728535"><ele>97.0</ele><time>2026-04-12T08:12:06Z</time></trkpt><trkpt lat="43.38673945838097" lon="13.454544831122595"><ele>97.0</ele><time>2026-04-12T08:12:07Z</time></trkpt><trkpt lat="43.38684742810708" lon="13.454399219665023"><ele>97.0</ele><time>2026-04-12T08:12:08Z</time></trkpt><trkpt lat="43.38695580519413" lon="13.45427105225632"><ele>97.0</ele><time>2026-04-12T08:12:09Z</time></trkpt><trkpt lat="43.387084598334624" lon="13.454142862605686"><ele>98.0</ele><time>2026-04-12T08:12:10Z</time></trkpt><trkpt lat="43.387241841693246" lon="13.454013874392201"><ele>99.0</ele><time>2026-04-12T08:12:11Z</time></trkpt><trkpt lat="43.38740473012629" lon="13.45387868555348"><ele>100.0</ele><time>2026-04-12T08:12:12Z</time></trkpt><trkpt lat="43.38758321899903" lon="13.45376066549769"><ele>100.0</ele><time>2026-04-12T08:12:13Z</time></trkpt><trkpt lat="43.38772672336976" lon="13.453619861744897"><ele>100.0</ele><time>2026-04-12T08:12:14Z</time></trkpt><trkpt lat="43.38787616703447" lon="13.453526989602302"><ele>100.0</ele><time>2026-04-12T08:12:15Z</time></trkpt><trkpt lat="43.38801014355036" lon="13.453420120498972"><ele>100.75</ele><time>2026-04-12T08:12:16Z</time></trkpt><trkpt lat="43.38812170879237" lon="13.453332568759063"><ele>101.5</ele><time>2026-04-12T08:12:17Z</time></trkpt><trkpt lat="43.38821974778473" lon="13.453219395361124"><ele>102.25</ele><time>2026-04-12T08:12:18Z</time></trkpt><trkpt lat="43.388319812839846" lon="13.453094653584627"><ele>103.0</ele><time>2026-04-12T08:12:19Z</time></trkpt><trkpt lat="43.38841157034302" lon="13.452928892474047"><ele>103.0</ele><time>2026-04-12T08:12:20Z</time></trkpt><trkpt lat="43.388507390793535" lon="13.452716851868848"><ele>103.0</ele><time>2026-04-12T08:12:21Z</time></trkpt><trkpt lat="43.388604613331836" lon="13.45249225690684"><ele>103.0</ele><time>2026-04-12T08:12:22Z</time></trkpt><trkpt lat="43.388707944688775" lon="13.452274112691287"><ele>103.66666666666667</ele><time>2026-04-12T08:12:23Z</time></trkpt><trkpt lat="43.38881108964385" lon="13.452066056702526"><ele>104.33333333333334</ele><time>2026-04-12T08:12:24Z</time></trkpt><trkpt lat="43.388908359200514" lon="13.451879131392902"><ele>105.0</ele><time>2026-04-12T08:12:25Z</time></trkpt><trkpt lat="43.38899130329814" lon="13.451708623447459"><ele>105.0</ele><time>2026-04-12T08:12:26Z</time></trkpt><trkpt lat="43.389070444800865" lon="13.451561726553406"><ele>105.0</ele><time>2026-04-12T08:12:27Z</time></trkpt><trkpt lat="43.38913378666955" lon="13.451409510821298"><ele>105.0</ele><time>2026-04-12T08:12:28Z</time></trkpt><trkpt lat="43.38919412639978" lon="13.451256217782424"><ele>105.0</ele><time>2026-04-12T08:12:29Z</time></trkpt><trkpt lat="43.38931210006217" lon="13.451026998654768"><ele>104.0</ele><time>2026-04-12T08:12:31Z</time></trkpt><trkpt lat="43.389346034480226" lon="13.450928521418703"><ele>103.0</ele><time>2026-04-12T08:12:32Z</time></trkpt><trkpt lat="43.3893700439908" lon="13.450808973150794"><ele>102.0</ele><time>2026-04-12T08:12:33Z</time></trkpt><trkpt lat="43.38937508346456" lon="13.450641282422739"><ele>101.0</ele><time>2026-04-12T08:12:34Z</time></trkpt><trkpt lat="43.389361489977134" lon="13.450448186798823"><ele>100.0</ele><time>2026-04-12T08:12:35Z</time></trkpt><trkpt lat="43.38934404386996" lon="13.45025277535419"><ele>99.5</ele><time>2026-04-12T08:12:36Z</time></trkpt><trkpt lat="43.389338770078794" lon="13.45006797322005"><ele>99.0</ele><time>2026-04-12T08:12:37Z</time></trkpt><trkpt lat="43.389352666343214" lon="13.44988745411245"><ele>98.5</ele><time>2026-04-12T08:12:38Z</time></trkpt><trkpt lat="43.38938888665044" lon="13.449706870545437"><ele>98.0</ele><time>2026-04-12T08:12:39Z</time></trkpt><trkpt lat="43.38945093758775" lon="13.449527602044816"><ele>97.33333333333333</ele><time>2026-04-12T08:12:40Z</time></trkpt><trkpt lat="43.38953614695818" lon="13.449323731159296"><ele>96.66666666666666</ele><time>2026-04-12T08:12:41Z</time></trkpt><trkpt lat="43.389634978116966" lon="13.449107799066056"><ele>96.0</ele><time>2026-04-12T08:12:42Z</time></trkpt><trkpt lat="43.389737211816566" lon="13.448902761213349"><ele>99.33333333333334</ele><time>2026-04-12T08:12:43.001Z</time></trkpt><trkpt lat="43.38982955654133" lon="13.448711762824567"><ele>102.66666666666667</ele><time>2026-04-12T08:12:44.001Z</time></trkpt><trkpt lat="43.38992736064057" lon="13.44851154326287"><ele>106.0</ele><time>2026-04-12T08:12:45.001Z</time></trkpt><trkpt lat="43.39002191626047" lon="13.44832031553604"><ele>106.0</ele><time>2026-04-12T08:12:46.001Z</time></trkpt><trkpt lat="43.390106335998546" lon="13.448152754044322"><ele>106.0</ele><time>2026-04-12T08:12:47.001Z</time></trkpt><trkpt lat="43.390180822119575" lon="13.448003296742172"><ele>106.0</ele><time>2026-04-12T08:12:48.001Z</time></trkpt><trkpt lat="43.39024319224138" lon="13.447878752465776"><ele>106.0</ele><time>2026-04-12T08:12:49.001Z</time></trkpt><trkpt lat="43.390291238823316" lon="13.44775914217829"><ele>105.75</ele><time>2026-04-12T08:12:50.001Z</time></trkpt><trkpt lat="43.39031535464258" lon="13.447631816888896"><ele>105.5</ele><time>2026-04-12T08:12:51.001Z</time></trkpt><trkpt lat="43.390306354306354" lon="13.447472305290098"><ele>105.25</ele><time>2026-04-12T08:12:52.001Z</time></trkpt><trkpt lat="43.39027951575214" lon="13.447292113638897"><ele>105.0</ele><time>2026-04-12T08:12:53.001Z</time></trkpt><trkpt lat="43.39027920925307" lon="13.447109429991984"><ele>105.0</ele><time>2026-04-12T08:12:54.001Z</time></trkpt><trkpt lat="43.390258367371956" lon="13.44692221044428"><ele>105.0</ele><time>2026-04-12T08:12:55.001Z</time></trkpt><trkpt lat="43.39024023304441" lon="13.446733553871994"><ele>105.0</ele><time>2026-04-12T08:12:56.001Z</time></trkpt><trkpt lat="43.39024165133035" lon="13.446555871502605"><ele>105.0</ele><time>2026-04-12T08:12:57Z</time></trkpt><trkpt lat="43.390242695151834" lon="13.446376551069644"><ele>104.75</ele><time>2026-04-12T08:12:58Z</time></trkpt><trkpt lat="43.39025363111315" lon="13.446194656685474"><ele>104.5</ele><time>2026-04-12T08:12:59Z</time></trkpt><trkpt lat="43.3902661795898" lon="13.446013259106985"><ele>104.25</ele><time>2026-04-12T08:13:00Z</time></trkpt><trkpt lat="43.39028867579985" lon="13.445831602688445"><ele>104.0</ele><time>2026-04-12T08:13:01Z</time></trkpt><trkpt lat="43.39033417687701" lon="13.445674129825278"><ele>103.0</ele><time>2026-04-12T08:13:02Z</time></trkpt><trkpt lat="43.39038432212252" lon="13.445459807760802"><ele>102.0</ele><time>2026-04-12T08:13:03Z</time></trkpt><trkpt lat="43.390459555047585" lon="13.445256165986958"><ele>101.0</ele><time>2026-04-12T08:13:04Z</time></trkpt><trkpt lat="43.39055681889524" lon="13.445018907471352"><ele>102.0</ele><time>2026-04-12T08:13:05Z</time></trkpt><trkpt lat="43.39063962400856" lon="13.444817190257993"><ele>103.0</ele><time>2026-04-12T08:13:06Z</time></trkpt><trkpt lat="43.39071659361411" lon="13.44464336579266"><ele>104.0</ele><time>2026-04-12T08:13:07Z</time></trkpt><trkpt lat="43.39078776416611" lon="13.444477624403296"><ele>104.0</ele><time>2026-04-12T08:13:08Z</time></trkpt><trkpt lat="43.390844322625334" lon="13.44433997906188"><ele>104.0</ele><time>2026-04-12T08:13:09Z</time></trkpt><trkpt lat="43.39089209390192" lon="13.444202628009185"><ele>104.0</ele><time>2026-04-12T08:13:10Z</time></trkpt><trkpt lat="43.390926221436594" lon="13.44406057845367"><ele>104.0</ele><time>2026-04-12T08:13:11Z</time></trkpt><trkpt lat="43.39093702494356" lon="13.44391188839553"><ele>104.0</ele><time>2026-04-12T08:13:12Z</time></trkpt><trkpt lat="43.39094262770283" lon="13.443747665418895"><ele>104.25</ele><time>2026-04-12T08:13:13Z</time></trkpt><trkpt lat="43.390881924108115" lon="13.443600491789862"><ele>104.5</ele><time>2026-04-12T08:13:14Z</time></trkpt><trkpt lat="43.39082563531078" lon="13.443424354628188"><ele>104.75</ele><time>2026-04-12T08:13:15Z</time></trkpt><trkpt lat="43.390780930792744" lon="13.443256751979018"><ele>105.0</ele><time>2026-04-12T08:13:16Z</time></trkpt><trkpt lat="43.390775887558064" lon="13.443093752778694"><ele>105.4</ele><time>2026-04-12T08:13:17Z</time></trkpt><trkpt lat="43.3907992713816" lon="13.442913884423614"><ele>105.8</ele><time>2026-04-12T08:13:18Z</time></trkpt><trkpt lat="43.390824393612434" lon="13.442760032136968"><ele>106.19999999999999</ele><time>2026-04-12T08:13:19Z</time></trkpt><trkpt lat="43.3908430932317" lon="13.442635348600131"><ele>106.6</ele><time>2026-04-12T08:13:20Z</time></trkpt><trkpt lat="43.39085625459993" lon="13.442521506840695"><ele>107.0</ele><time>2026-04-12T08:13:21Z</time></trkpt><trkpt lat="43.390865046627596" lon="13.442405294633328"><ele>107.0</ele><time>2026-04-12T08:13:22Z</time></trkpt><trkpt lat="43.39087045243095" lon="13.442282455538658"><ele>106.99999999999999</ele><time>2026-04-12T08:13:23Z</time></trkpt><trkpt lat="43.39086565989529" lon="13.442141307766862"><ele>106.99999999999999</ele><time>2026-04-12T08:13:24Z</time></trkpt><trkpt lat="43.390843442683405" lon="13.441991347116085"><ele>107.0</ele><time>2026-04-12T08:13:25Z</time></trkpt><trkpt lat="43.39080657546422" lon="13.44183522956534"><ele>107.0</ele><time>2026-04-12T08:13:26Z</time></trkpt><trkpt lat="43.390765297109084" lon="13.44167102913087"><ele>106.25</ele><time>2026-04-12T08:13:27Z</time></trkpt><trkpt lat="43.39072115402915" lon="13.441494653311025"><ele>105.5</ele><time>2026-04-12T08:13:28Z</time></trkpt><trkpt lat="43.390673620682364" lon="13.441304457032476"><ele>104.75</ele><time>2026-04-12T08:13:29Z</time></trkpt><trkpt lat="43.39063011827646" lon="13.441130980655515"><ele>104.0</ele><time>2026-04-12T08:13:30Z</time></trkpt><trkpt lat="43.39059587761703" lon="13.440963267292231"><ele>103.75</ele><time>2026-04-12T08:13:31Z</time></trkpt><trkpt lat="43.39057543084208" lon="13.440813737251895"><ele>103.5</ele><time>2026-04-12T08:13:32Z</time></trkpt><trkpt lat="43.39057196056583" lon="13.440664620287293"><ele>103.25</ele><time>2026-04-12T08:13:33Z</time></trkpt><trkpt lat="43.39057860732404" lon="13.44050782026568"><ele>103.0</ele><time>2026-04-12T08:13:34Z</time></trkpt><trkpt lat="43.39059309686261" lon="13.440340876317535"><ele>103.0</ele><time>2026-04-12T08:13:35Z</time></trkpt><trkpt lat="43.39061360458487" lon="13.44018171475095"><ele>103.0</ele><time>2026-04-12T08:13:36Z</time></trkpt><trkpt lat="43.39064085290446" lon="13.440009675654299"><ele>103.0</ele><time>2026-04-12T08:13:37Z</time></trkpt><trkpt lat="43.39068131082653" lon="13.439843597338356"><ele>103.0</ele><time>2026-04-12T08:13:38Z</time></trkpt><trkpt lat="43.39073916144634" lon="13.439668432782238"><ele>103.0</ele><time>2026-04-12T08:13:39Z</time></trkpt><trkpt lat="43.39081450470571" lon="13.439482943225137"><ele>103.0</ele><time>2026-04-12T08:13:40Z</time></trkpt><trkpt lat="43.39088730601203" lon="13.439303687562235"><ele>103.0</ele><time>2026-04-12T08:13:41Z</time></trkpt><trkpt lat="43.39094950123541" lon="13.439135668647792"><ele>103.0</ele><time>2026-04-12T08:13:42Z</time></trkpt><trkpt lat="43.390992024954166" lon="13.438988300350445"><ele>103.0</ele><time>2026-04-12T08:13:43Z</time></trkpt><trkpt lat="43.39103584258265" lon="13.43882292192394"><ele>103.0</ele><time>2026-04-12T08:13:44Z</time></trkpt><trkpt lat="43.391068003794054" lon="13.438645039630966"><ele>103.0</ele><time>2026-04-12T08:13:45Z</time></trkpt><trkpt lat="43.39108400830835" lon="13.438461547860845"><ele>103.0</ele><time>2026-04-12T08:13:46Z</time></trkpt><trkpt lat="43.39109768329891" lon="13.438289858451181"><ele>102.80000000000001</ele><time>2026-04-12T08:13:47Z</time></trkpt><trkpt lat="43.39110979827992" lon="13.438126164745203"><ele>102.6</ele><time>2026-04-12T08:13:48Z</time></trkpt><trkpt lat="43.39111911985218" lon="13.437980707498442"><ele>102.4</ele><time>2026-04-12T08:13:49Z</time></trkpt><trkpt lat="43.39112556549063" lon="13.437854254827958"><ele>102.19999999999999</ele><time>2026-04-12T08:13:50Z</time></trkpt><trkpt lat="43.39112935026566" lon="13.43774412544976"><ele>102.0</ele><time>2026-04-12T08:13:51Z</time></trkpt><trkpt lat="43.39112972371629" lon="13.437636426158946"><ele>102.0</ele><time>2026-04-12T08:13:53Z</time></trkpt><trkpt lat="43.391149957362046" lon="13.437539425836263"><ele>102.0</ele><time>2026-04-12T08:13:57Z</time></trkpt><trkpt lat="43.39124245315011" lon="13.437582925766758"><ele>102.0</ele><time>2026-04-12T08:13:58Z</time></trkpt><trkpt lat="43.3913388553476" lon="13.437577796268206"><ele>102.0</ele><time>2026-04-12T08:13:59Z</time></trkpt><trkpt lat="43.39142985825669" lon="13.437557690202643"><ele>102.0</ele><time>2026-04-12T08:14:00Z</time></trkpt><trkpt lat="43.39153733189899" lon="13.43755743419958"><ele>102.5</ele><time>2026-04-12T08:14:01Z</time></trkpt><trkpt lat="43.39165336182391" lon="13.437551003201326"><ele>103.0</ele><time>2026-04-12T08:14:02Z</time></trkpt><trkpt lat="43.39177040567127" lon="13.437538431300664"><ele>103.5</ele><time>2026-04-12T08:14:03Z</time></trkpt><trkpt lat="43.391896255232375" lon="13.437524790700111"><ele>104.0</ele><time>2026-04-12T08:14:04Z</time></trkpt><trkpt lat="43.39203009354831" lon="13.437527228568971"><ele>104.0</ele><time>2026-04-12T08:14:05Z</time></trkpt><trkpt lat="43.39216997123811" lon="13.437513329133624"><ele>104.0</ele><time>2026-04-12T08:14:06Z</time></trkpt><trkpt lat="43.39231945503914" lon="13.437507358500064"><ele>104.0</ele><time>2026-04-12T08:14:07Z</time></trkpt><trkpt lat="43.39246253791489" lon="13.437499009697548"><ele>104.0</ele><time>2026-04-12T08:14:08Z</time></trkpt><trkpt lat="43.392607112514874" lon="13.437493996296837"><ele>106.0</ele><time>2026-04-12T08:14:09Z</time></trkpt><trkpt lat="43.3927517421947" lon="13.437486454272022"><ele>108.0</ele><time>2026-04-12T08:14:10Z</time></trkpt><trkpt lat="43.39290049061106" lon="13.437480158423167"><ele>110.0</ele><time>2026-04-12T08:14:11Z</time></trkpt><trkpt lat="43.39305444076578" lon="13.437471734116086"><ele>112.0</ele><time>2026-04-12T08:14:12Z</time></trkpt><trkpt lat="43.39320345510927" lon="13.437466488611468"><ele>115.33333333333334</ele><time>2026-04-12T08:14:13Z</time></trkpt><trkpt lat="43.39335739207507" lon="13.437463830240425"><ele>118.66666666666666</ele><time>2026-04-12T08:14:14Z</time></trkpt><trkpt lat="43.393508413060275" lon="13.437463378730852"><ele>122.0</ele><time>2026-04-12T08:14:15Z</time></trkpt><trkpt lat="43.39366399016751" lon="13.437457167377007"><ele>122.0</ele><time>2026-04-12T08:14:16Z</time></trkpt><trkpt lat="43.393826511262056" lon="13.437450549092938"><ele>122.0</ele><time>2026-04-12T08:14:17Z</time></trkpt><trkpt lat="43.39399297938497" lon="13.437447126159533"><ele>122.0</ele><time>2026-04-12T08:14:18Z</time></trkpt><trkpt lat="43.39415268153916" lon="13.437438317895053"><ele>125.33333333333333</ele><time>2026-04-12T08:14:19Z</time></trkpt><trkpt lat="43.39431392708657" lon="13.43742433533587"><ele>128.66666666666666</ele><time>2026-04-12T08:14:20Z</time></trkpt><trkpt lat="43.39448977503136" lon="13.437422658969878"><ele>132.0</ele><time>2026-04-12T08:14:21Z</time></trkpt><trkpt lat="43.394669425640885" lon="13.437416141002158"><ele>134.66666666666666</ele><time>2026-04-12T08:14:22Z</time></trkpt><trkpt lat="43.39485595226505" lon="13.43741060406257"><ele>137.33333333333331</ele><time>2026-04-12T08:14:23Z</time></trkpt><trkpt lat="43.39504308416556" lon="13.437402645815023"><ele>140.0</ele><time>2026-04-12T08:14:24Z</time></trkpt><trkpt lat="43.39522405981242" lon="13.437402220619036"><ele>140.0</ele><time>2026-04-12T08:14:25Z</time></trkpt><trkpt lat="43.395409270901695" lon="13.437391364956493"><ele>140.0</ele><time>2026-04-12T08:14:26Z</time></trkpt><trkpt lat="43.395588808027256" lon="13.437381967803555"><ele>140.0</ele><time>2026-04-12T08:14:27Z</time></trkpt><trkpt lat="43.39576280687122" lon="13.437376755640498"><ele>142.33333333333331</ele><time>2026-04-12T08:14:28Z</time></trkpt><trkpt lat="43.39593060946971" lon="13.437376086789614"><ele>144.66666666666666</ele><time>2026-04-12T08:14:29Z</time></trkpt><trkpt lat="43.39610683813251" lon="13.43735646572156"><ele>147.0</ele><time>2026-04-12T08:14:30Z</time></trkpt><trkpt lat="43.39628196478853" lon="13.437343272000007"><ele>147.0</ele><time>2026-04-12T08:14:31Z</time></trkpt><trkpt lat="43.39645384001815" lon="13.437336749446413"><ele>147.0</ele><time>2026-04-12T08:14:32Z</time></trkpt><trkpt lat="43.396636594492705" lon="13.437330237837557"><ele>147.0</ele><time>2026-04-12T08:14:33Z</time></trkpt><trkpt lat="43.39681977501843" lon="13.437318567327825"><ele>147.0</ele><time>2026-04-12T08:14:34Z</time></trkpt><trkpt lat="43.396997252932685" lon="13.437296875389615"><ele>147.0</ele><time>2026-04-12T08:14:35Z</time></trkpt><trkpt lat="43.397171126243755" lon="13.437277684542886"><ele>147.0</ele><time>2026-04-12T08:14:36Z</time></trkpt><trkpt lat="43.397348315311376" lon="13.437254885056216"><ele>149.33333333333334</ele><time>2026-04-12T08:14:37Z</time></trkpt><trkpt lat="43.397517314866235" lon="13.437247752510414"><ele>151.66666666666669</ele><time>2026-04-12T08:14:38Z</time></trkpt><trkpt lat="43.397680352444745" lon="13.437242391616062"><ele>154.0</ele><time>2026-04-12T08:14:39Z</time></trkpt><trkpt lat="43.397839951911045" lon="13.437239399297908"><ele>154.0</ele><time>2026-04-12T08:14:40Z</time></trkpt><trkpt lat="43.397997364370084" lon="13.437228178657524"><ele>154.0</ele><time>2026-04-12T08:14:41Z</time></trkpt><trkpt lat="43.39816535704745" lon="13.437213093877856"><ele>154.0</ele><time>2026-04-12T08:14:42Z</time></trkpt><trkpt lat="43.39832945708617" lon="13.437200976418598"><ele>156.66666666666669</ele><time>2026-04-12T08:14:43Z</time></trkpt><trkpt lat="43.39849944832808" lon="13.43719104813073"><ele>159.33333333333334</ele><time>2026-04-12T08:14:44Z</time></trkpt><trkpt lat="43.39867171163362" lon="13.437184244546144"><ele>162.0</ele><time>2026-04-12T08:14:45Z</time></trkpt><trkpt lat="43.39884420216214" lon="13.437175522626784"><ele>165.0</ele><time>2026-04-12T08:14:46Z</time></trkpt><trkpt lat="43.39901299751353" lon="13.437181133794677"><ele>168.0</ele><time>2026-04-12T08:14:47Z</time></trkpt><trkpt lat="43.39918339414975" lon="13.437182365086954"><ele>171.0</ele><time>2026-04-12T08:14:48Z</time></trkpt><trkpt lat="43.39935385423811" lon="13.437193012823103"><ele>171.0</ele><time>2026-04-12T08:14:49Z</time></trkpt><trkpt lat="43.39951752337802" lon="13.437191246707547"><ele>171.0</ele><time>2026-04-12T08:14:50Z</time></trkpt><trkpt lat="43.399682037114665" lon="13.437189390130564"><ele>171.0</ele><time>2026-04-12T08:14:51Z</time></trkpt><trkpt lat="43.39984852957993" lon="13.437188651395287"><ele>172.66666666666666</ele><time>2026-04-12T08:14:52Z</time></trkpt><trkpt lat="43.400008698987854" lon="13.437186043333151"><ele>174.33333333333331</ele><time>2026-04-12T08:14:53Z</time></trkpt><trkpt lat="43.40015653570682" lon="13.437174894753655"><ele>176.0</ele><time>2026-04-12T08:14:54Z</time></trkpt><trkpt lat="43.40030385931687" lon="13.437155790834213"><ele>178.5</ele><time>2026-04-12T08:14:55Z</time></trkpt><trkpt lat="43.400435907095655" lon="13.437129721848875"><ele>181.0</ele><time>2026-04-12T08:14:56Z</time></trkpt><trkpt lat="43.400563819477334" lon="13.437093726136245"><ele>183.5</ele><time>2026-04-12T08:14:57.001Z</time></trkpt><trkpt lat="43.400691220538306" lon="13.43703839175015"><ele>186.0</ele><time>2026-04-12T08:14:58.001Z</time></trkpt><trkpt lat="43.40081983827139" lon="13.436968238372387"><ele>186.5</ele><time>2026-04-12T08:14:59.001Z</time></trkpt><trkpt lat="43.4009520434518" lon="13.4368921855797"><ele>187.0</ele><time>2026-04-12T08:15:00.001Z</time></trkpt><trkpt lat="43.4010919438905" lon="13.436821387528058"><ele>187.5</ele><time>2026-04-12T08:15:01.001Z</time></trkpt><trkpt lat="43.401233907283405" lon="13.436748717641892"><ele>188.0</ele><time>2026-04-12T08:15:02.001Z</time></trkpt><trkpt lat="43.40138703994163" lon="13.43667205109692"><ele>188.33333333333331</ele><time>2026-04-12T08:15:03Z</time></trkpt><trkpt lat="43.40154451835739" lon="13.436596413962649"><ele>188.66666666666666</ele><time>2026-04-12T08:15:04Z</time></trkpt><trkpt lat="43.40169393321332" lon="13.436536986650736"><ele>189.0</ele><time>2026-04-12T08:15:05Z</time></trkpt><trkpt lat="43.40183698627405" lon="13.436495949999063"><ele>189.0</ele><time>2026-04-12T08:15:06Z</time></trkpt><trkpt lat="43.40197328747157" lon="13.436464884245288"><ele>189.0</ele><time>2026-04-12T08:15:07Z</time></trkpt><trkpt lat="43.40211254399407" lon="13.436434064778298"><ele>189.0</ele><time>2026-04-12T08:15:08Z</time></trkpt><trkpt lat="43.402230580697164" lon="13.436412665856182"><ele>189.0</ele><time>2026-04-12T08:15:09Z</time></trkpt><trkpt lat="43.40235151626798" lon="13.436409741553298"><ele>190.0</ele><time>2026-04-12T08:15:10Z</time></trkpt><trkpt lat="43.402485897443114" lon="13.43641628996347"><ele>191.0</ele><time>2026-04-12T08:15:11Z</time></trkpt><trkpt lat="43.40263087569766" lon="13.436431644899972"><ele>192.0</ele><time>2026-04-12T08:15:12Z</time></trkpt><trkpt lat="43.40278361290616" lon="13.436452943773716"><ele>193.0</ele><time>2026-04-12T08:15:13Z</time></trkpt><trkpt lat="43.40294025032209" lon="13.43647620419427"><ele>194.0</ele><time>2026-04-12T08:15:14Z</time></trkpt><trkpt lat="43.403102536925246" lon="13.436511514200808"><ele>195.0</ele><time>2026-04-12T08:15:15Z</time></trkpt><trkpt lat="43.40325668238961" lon="13.436561203043478"><ele>196.0</ele><time>2026-04-12T08:15:16Z</time></trkpt><trkpt lat="43.40339039273996" lon="13.43664562996736"><ele>196.0</ele><time>2026-04-12T08:15:17Z</time></trkpt><trkpt lat="43.403545739323114" lon="13.436712306399226"><ele>196.0</ele><time>2026-04-12T08:15:18Z</time></trkpt><trkpt lat="43.40368056255409" lon="13.436819093371474"><ele>196.0</ele><time>2026-04-12T08:15:19Z</time></trkpt><trkpt lat="43.40381672675214" lon="13.436909352091323"><ele>197.0</ele><time>2026-04-12T08:15:20Z</time></trkpt><trkpt lat="43.40395394479515" lon="13.436993872736856"><ele>198.0</ele><time>2026-04-12T08:15:21Z</time></trkpt><trkpt lat="43.40410069667514" lon="13.437056465705137"><ele>199.0</ele><time>2026-04-12T08:15:22Z</time></trkpt><trkpt lat="43.40424018176898" lon="13.437150967541633"><ele>199.0</ele><time>2026-04-12T08:15:23Z</time></trkpt><trkpt lat="43.404384321608724" lon="13.437235815220438"><ele>199.0</ele><time>2026-04-12T08:15:24Z</time></trkpt><trkpt lat="43.40453248730418" lon="13.437322959421051"><ele>199.0</ele><time>2026-04-12T08:15:25Z</time></trkpt><trkpt lat="43.404682447878734" lon="13.43740846858224"><ele>200.33333333333331</ele><time>2026-04-12T08:15:26Z</time></trkpt><trkpt lat="43.40483361042561" lon="13.43749306172343"><ele>201.66666666666669</ele><time>2026-04-12T08:15:27Z</time></trkpt><trkpt lat="43.404978774390976" lon="13.437568270393976"><ele>203.0</ele><time>2026-04-12T08:15:28Z</time></trkpt><trkpt lat="43.40512448310147" lon="13.437642958723663"><ele>203.0</ele><time>2026-04-12T08:15:29Z</time></trkpt><trkpt lat="43.405272736441674" lon="13.437719659364053"><ele>203.0</ele><time>2026-04-12T08:15:30Z</time></trkpt><trkpt lat="43.40541940498969" lon="13.437786044214587"><ele>203.0</ele><time>2026-04-12T08:15:31Z</time></trkpt><trkpt lat="43.40556712869783" lon="13.43785497657145"><ele>203.66666666666669</ele><time>2026-04-12T08:15:32Z</time></trkpt><trkpt lat="43.405707525203866" lon="13.437923611892082"><ele>204.33333333333331</ele><time>2026-04-12T08:15:33Z</time></trkpt><trkpt lat="43.405851594575076" lon="13.437994719539047"><ele>205.0</ele><time>2026-04-12T08:15:34Z</time></trkpt><trkpt lat="43.40599456718825" lon="13.438062180098461"><ele>203.75</ele><time>2026-04-12T08:15:35Z</time></trkpt><trkpt lat="43.40613961701978" lon="13.438137003506725"><ele>202.5</ele><time>2026-04-12T08:15:36Z</time></trkpt><trkpt lat="43.40626086418883" lon="13.438207588882515"><ele>201.25</ele><time>2026-04-12T08:15:37Z</time></trkpt><trkpt lat="43.406383354424115" lon="13.438261525913644"><ele>200.0</ele><time>2026-04-12T08:15:38Z</time></trkpt><trkpt lat="43.40648624493793" lon="13.438312075056961"><ele>201.66666666666669</ele><time>2026-04-12T08:15:39Z</time></trkpt><trkpt lat="43.40657462844132" lon="13.438364605239586"><ele>203.33333333333334</ele><time>2026-04-12T08:15:40Z</time></trkpt><trkpt lat="43.406655650253896" lon="13.438411982373118"><ele>205.0</ele><time>2026-04-12T08:15:41Z</time></trkpt><trkpt lat="43.40672068421921" lon="13.438449236708228"><ele>206.66666666666669</ele><time>2026-04-12T08:15:42Z</time></trkpt><trkpt lat="43.40679070964469" lon="13.438504505922092"><ele>208.33333333333334</ele><time>2026-04-12T08:15:44Z</time></trkpt><trkpt lat="43.40684251317014" lon="13.438365713695665"><ele>210.0</ele><time>2026-04-12T08:15:45Z</time></trkpt><trkpt lat="43.40688409532132" lon="13.438179668385818"><ele>210.0</ele><time>2026-04-12T08:15:47Z</time></trkpt><trkpt lat="43.40691725390901" lon="13.438051541147516"><ele>210.0</ele><time>2026-04-12T08:15:48Z</time></trkpt><trkpt lat="43.40694943012274" lon="13.437932825830323"><ele>210.0</ele><time>2026-04-12T08:15:49Z</time></trkpt><trkpt lat="43.406980309215164" lon="13.437846250307276"><ele>210.0</ele><time>2026-04-12T08:15:50Z</time></trkpt><trkpt lat="43.40703931558116" lon="13.437812526877964"><ele>210.0</ele><time>2026-04-12T08:15:52Z</time></trkpt><trkpt lat="43.4071071469287" lon="13.437897699963107"><ele>210.0</ele><time>2026-04-12T08:15:54Z</time></trkpt><trkpt lat="43.40718031505244" lon="13.437913133466012"><ele>210.4</ele><time>2026-04-12T08:15:55Z</time></trkpt><trkpt lat="43.40726988904477" lon="13.437968340287316"><ele>210.8</ele><time>2026-04-12T08:15:56Z</time></trkpt><trkpt lat="43.40736959722193" lon="13.43801552159259"><ele>211.2</ele><time>2026-04-12T08:15:57Z</time></trkpt><trkpt lat="43.40747247907618" lon="13.438055231077042"><ele>211.6</ele><time>2026-04-12T08:15:58Z</time></trkpt><trkpt lat="43.407576442659106" lon="13.43810067609576"><ele>212.0</ele><time>2026-04-12T08:15:59Z</time></trkpt><trkpt lat="43.40768391059706" lon="13.438143718496294"><ele>212.2</ele><time>2026-04-12T08:16:00Z</time></trkpt><trkpt lat="43.40779678023339" lon="13.438210700562411"><ele>212.39999999999998</ele><time>2026-04-12T08:16:01Z</time></trkpt><trkpt lat="43.40790249272931" lon="13.438257429178567"><ele>212.60000000000002</ele><time>2026-04-12T08:16:02Z</time></trkpt><trkpt lat="43.40799917406448" lon="13.43830014364453"><ele>212.8</ele><time>2026-04-12T08:16:03Z</time></trkpt><trkpt lat="43.40810471873546" lon="13.43833529033963"><ele>213.0</ele><time>2026-04-12T08:16:04Z</time></trkpt><trkpt lat="43.408203652921486" lon="13.438390058107839"><ele>213.0</ele><time>2026-04-12T08:16:05Z</time></trkpt><trkpt lat="43.40829236217123" lon="13.438427777800257"><ele>213.0</ele><time>2026-04-12T08:16:06Z</time></trkpt><trkpt lat="43.408366868541044" lon="13.43846091991588"><ele>213.0</ele><time>2026-04-12T08:16:07Z</time></trkpt><trkpt lat="43.408447730635274" lon="13.438492663449363"><ele>213.0</ele><time>2026-04-12T08:16:09Z</time></trkpt><trkpt lat="43.408558363893626" lon="13.438526350897469"><ele>213.0</ele><time>2026-04-12T08:16:12Z</time></trkpt><trkpt lat="43.40864797464261" lon="13.438544610436956"><ele>213.0</ele><time>2026-04-12T08:16:13Z</time></trkpt><trkpt lat="43.408733647068786" lon="13.438564876765206"><ele>213.0</ele><time>2026-04-12T08:16:14Z</time></trkpt><trkpt lat="43.408834310648004" lon="13.438582634770558"><ele>213.0</ele><time>2026-04-12T08:16:15Z</time></trkpt><trkpt lat="43.40894039639116" lon="13.438593055656817"><ele>213.0</ele><time>2026-04-12T08:16:16Z</time></trkpt><trkpt lat="43.409049547519835" lon="13.438604596110258"><ele>213.0</ele><time>2026-04-12T08:16:17Z</time></trkpt><trkpt lat="43.409152363608975" lon="13.43861977479895"><ele>213.2</ele><time>2026-04-12T08:16:18Z</time></trkpt><trkpt lat="43.40924420536133" lon="13.43862861390458"><ele>213.4</ele><time>2026-04-12T08:16:19Z</time></trkpt><trkpt lat="43.40935121952615" lon="13.438613451444608"><ele>213.59999999999997</ele><time>2026-04-12T08:16:20Z</time></trkpt><trkpt lat="43.40945469469175" lon="13.438593772815215"><ele>213.79999999999998</ele><time>2026-04-12T08:16:21Z</time></trkpt><trkpt lat="43.40955152479546" lon="13.438569498546345"><ele>214.0</ele><time>2026-04-12T08:16:22Z</time></trkpt><trkpt lat="43.40964375889372" lon="13.438542630451296"><ele>214.0</ele><time>2026-04-12T08:16:23Z</time></trkpt><trkpt lat="43.40973649184187" lon="13.438522399977872"><ele>213.99999999999997</ele><time>2026-04-12T08:16:24Z</time></trkpt><trkpt lat="43.40982438270837" lon="13.438504944128042"><ele>213.99999999999997</ele><time>2026-04-12T08:16:25Z</time></trkpt><trkpt lat="43.40991561102531" lon="13.438491138006587"><ele>214.0</ele><time>2026-04-12T08:16:26Z</time></trkpt><trkpt lat="43.409993460253354" lon="13.438477086518946"><ele>214.0</ele><time>2026-04-12T08:16:27Z</time></trkpt><trkpt lat="43.41009066344219" lon="13.438474324795425"><ele>213.99999999999997</ele><time>2026-04-12T08:16:29Z</time></trkpt><trkpt lat="43.41014650261988" lon="13.438590826017048"><ele>214.0</ele><time>2026-04-12T08:16:32Z</time></trkpt><trkpt lat="43.410142303682875" lon="13.43869232437412"><ele>214.0</ele><time>2026-04-12T08:16:33Z</time></trkpt><trkpt lat="43.41015356521029" lon="13.438803189030184"><ele>214.0</ele><time>2026-04-12T08:16:34Z</time></trkpt><trkpt lat="43.410165368498085" lon="13.438913599823541"><ele>213.99999999999997</ele><time>2026-04-12T08:16:35Z</time></trkpt><trkpt lat="43.41017826078082" lon="13.439037073436388"><ele>214.0</ele><time>2026-04-12T08:16:36Z</time></trkpt><trkpt lat="43.41019308928908" lon="13.4391790910245"><ele>215.0</ele><time>2026-04-12T08:16:37Z</time></trkpt><trkpt lat="43.41020687807623" lon="13.439320106089442"><ele>215.99999999999997</ele><time>2026-04-12T08:16:38Z</time></trkpt><trkpt lat="43.41021752175501" lon="13.439434620336003"><ele>216.99999999999997</ele><time>2026-04-12T08:16:39Z</time></trkpt><trkpt lat="43.41022643495398" lon="13.43953442748288"><ele>218.0</ele><time>2026-04-12T08:16:40Z</time></trkpt><trkpt lat="43.410247214828814" lon="13.439699158844086"><ele>219.0</ele><time>2026-04-12T08:16:42Z</time></trkpt><trkpt lat="43.41024550019419" lon="13.439860464261843"><ele>219.6</ele><time>2026-04-12T08:16:44Z</time></trkpt><trkpt lat="43.4102449910039" lon="13.440012549240448"><ele>220.2</ele><time>2026-04-12T08:16:46.001Z</time></trkpt><trkpt lat="43.41023766592344" lon="13.440101448713227"><ele>220.79999999999998</ele><time>2026-04-12T08:16:49.001Z</time></trkpt><trkpt lat="43.410307655491216" lon="13.440237903660867"><ele>221.39999999999998</ele><time>2026-04-12T08:16:52.001Z</time></trkpt><trkpt lat="43.41038549678285" lon="13.440273322593159"><ele>222.0</ele><time>2026-04-12T08:16:53.001Z</time></trkpt><trkpt lat="43.41045967405784" lon="13.440298638421734"><ele>221.83333333333334</ele><time>2026-04-12T08:16:54.001Z</time></trkpt><trkpt lat="43.41053656191715" lon="13.44033562195886"><ele>221.66666666666669</ele><time>2026-04-12T08:16:55.001Z</time></trkpt><trkpt lat="43.4106183849676" lon="13.440387755448599"><ele>221.5</ele><time>2026-04-12T08:16:56.001Z</time></trkpt><trkpt lat="43.410683681422185" lon="13.440433964050147"><ele>221.33333333333334</ele><time>2026-04-12T08:16:57.001Z</time></trkpt><trkpt lat="43.410762267020665" lon="13.440481554967706"><ele>221.16666666666669</ele><time>2026-04-12T08:16:59.001Z</time></trkpt><trkpt lat="43.410837167866305" lon="13.440520904623256"><ele>221.0</ele><time>2026-04-12T08:17:01.001Z</time></trkpt><trkpt lat="43.41085142386793" lon="13.440663171547767"><ele>221.00000000000003</ele><time>2026-04-12T08:17:02.001Z</time></trkpt><trkpt lat="43.41089488707203" lon="13.440751460183826"><ele>221.0</ele><time>2026-04-12T08:17:03.001Z</time></trkpt><trkpt lat="43.410954323717505" lon="13.440835280566729"><ele>221.0</ele><time>2026-04-12T08:17:04.001Z</time></trkpt><trkpt lat="43.41102304700249" lon="13.440929157857363"><ele>221.0</ele><time>2026-04-12T08:17:05.001Z</time></trkpt><trkpt lat="43.411099065602244" lon="13.441001124506787"><ele>221.00000000000003</ele><time>2026-04-12T08:17:06.001Z</time></trkpt><trkpt lat="43.41118752370484" lon="13.441058496857734"><ele>221.0</ele><time>2026-04-12T08:17:07.001Z</time></trkpt><trkpt lat="43.41128106898477" lon="13.441100994465287"><ele>219.60000000000002</ele><time>2026-04-12T08:17:08.001Z</time></trkpt><trkpt lat="43.411358776437105" lon="13.441143660839039"><ele>218.20000000000002</ele><time>2026-04-12T08:17:09Z</time></trkpt><trkpt lat="43.411446876620474" lon="13.441182380440802"><ele>216.79999999999998</ele><time>2026-04-12T08:17:10Z</time></trkpt><trkpt lat="43.411541995861874" lon="13.441225339306246"><ele>215.39999999999998</ele><time>2026-04-12T08:17:11Z</time></trkpt><trkpt lat="43.41164529650403" lon="13.44127581002885"><ele>214.0</ele><time>2026-04-12T08:17:12Z</time></trkpt><trkpt lat="43.411744920018336" lon="13.441334766717036"><ele>214.0</ele><time>2026-04-12T08:17:13Z</time></trkpt><trkpt lat="43.4118430586469" lon="13.441386801754822"><ele>213.99999999999997</ele><time>2026-04-12T08:17:14Z</time></trkpt><trkpt lat="43.41194116920009" lon="13.441445778367914"><ele>213.99999999999997</ele><time>2026-04-12T08:17:15Z</time></trkpt><trkpt lat="43.41204282402205" lon="13.441492282445932"><ele>214.0</ele><time>2026-04-12T08:17:16Z</time></trkpt><trkpt lat="43.41213518646675" lon="13.441565125779263"><ele>214.0</ele><time>2026-04-12T08:17:17Z</time></trkpt><trkpt lat="43.41221350044765" lon="13.441659704089673"><ele>214.0</ele><time>2026-04-12T08:17:18Z</time></trkpt><trkpt lat="43.41229234390918" lon="13.441762404677172"><ele>213.99999999999997</ele><time>2026-04-12T08:17:19Z</time></trkpt><trkpt lat="43.412374720551625" lon="13.441878620860923"><ele>213.99999999999997</ele><time>2026-04-12T08:17:20Z</time></trkpt><trkpt lat="43.41243947657802" lon="13.441996169053997"><ele>214.0</ele><time>2026-04-12T08:17:21Z</time></trkpt><trkpt lat="43.4124872732853" lon="13.44210987122599"><ele>214.0</ele><time>2026-04-12T08:17:22Z</time></trkpt><trkpt lat="43.412536481650946" lon="13.442215988774064"><ele>213.99999999999997</ele><time>2026-04-12T08:17:23Z</time></trkpt><trkpt lat="43.41258032570158" lon="13.442316211213925"><ele>214.0</ele><time>2026-04-12T08:17:24Z</time></trkpt><trkpt lat="43.41262215398385" lon="13.442408596138414"><ele>214.0</ele><time>2026-04-12T08:17:25Z</time></trkpt><trkpt lat="43.41265496528305" lon="13.442496188812047"><ele>214.0</ele><time>2026-04-12T08:17:26Z</time></trkpt><trkpt lat="43.41273327480759" lon="13.442539124103309"><ele>213.99999999999997</ele><time>2026-04-12T08:17:28Z</time></trkpt><trkpt lat="43.41283857461447" lon="13.442460310488627"><ele>214.0</ele><time>2026-04-12T08:17:30Z</time></trkpt><trkpt lat="43.41289905637516" lon="13.442400120276494"><ele>213.99999999999997</ele><time>2026-04-12T08:17:31Z</time></trkpt><trkpt lat="43.412959134230924" lon="13.442338569520071"><ele>214.0</ele><time>2026-04-12T08:17:32Z</time></trkpt><trkpt lat="43.41301407428602" lon="13.442286463316968"><ele>214.0</ele><time>2026-04-12T08:17:33Z</time></trkpt><trkpt lat="43.413073269085615" lon="13.442239952582275"><ele>214.0</ele><time>2026-04-12T08:17:36Z</time></trkpt><trkpt lat="43.41309450366709" lon="13.44213960577383"><ele>213.99999999999997</ele><time>2026-04-12T08:17:42Z</time></trkpt><trkpt lat="43.41302430571884" lon="13.441992572585006"><ele>214.0</ele><time>2026-04-12T08:17:44Z</time></trkpt><trkpt lat="43.41295378444232" lon="13.441846276307688"><ele>215.42857142857144</ele><time>2026-04-12T08:17:46Z</time></trkpt><trkpt lat="43.412913373545464" lon="13.441766476744448"><ele>216.85714285714286</ele><time>2026-04-12T08:17:47Z</time></trkpt><trkpt lat="43.41287720893535" lon="13.441684532810333"><ele>218.28571428571428</ele><time>2026-04-12T08:17:48Z</time></trkpt><trkpt lat="43.412842354720894" lon="13.441600837303556"><ele>219.71428571428572</ele><time>2026-04-12T08:17:49Z</time></trkpt><trkpt lat="43.41281002018271" lon="13.441515133748986"><ele>221.14285714285714</ele><time>2026-04-12T08:17:50Z</time></trkpt><trkpt lat="43.41277434433926" lon="13.441431955080871"><ele>222.57142857142858</ele><time>2026-04-12T08:17:51Z</time></trkpt><trkpt lat="43.412740983248305" lon="13.441351707109536"><ele>224.0</ele><time>2026-04-12T08:17:52Z</time></trkpt><trkpt lat="43.41270354364937" lon="13.441272886520796"><ele>225.6</ele><time>2026-04-12T08:17:53Z</time></trkpt><trkpt lat="43.412603655667795" lon="13.441146764580857"><ele>227.2</ele><time>2026-04-12T08:17:55Z</time></trkpt><trkpt lat="43.41253931348395" lon="13.441082827656174"><ele>228.79999999999998</ele><time>2026-04-12T08:17:56Z</time></trkpt><trkpt lat="43.412464296716365" lon="13.441018987332605"><ele>230.39999999999998</ele><time>2026-04-12T08:17:57Z</time></trkpt><trkpt lat="43.41237450679861" lon="13.440961657692018"><ele>232.0</ele><time>2026-04-12T08:17:58Z</time></trkpt><trkpt lat="43.41228401622713" lon="13.440915002840592"><ele>231.99999999999997</ele><time>2026-04-12T08:17:59Z</time></trkpt><trkpt lat="43.41220739914813" lon="13.440881322822685"><ele>232.0</ele><time>2026-04-12T08:18:00Z</time></trkpt><trkpt lat="43.41212823182966" lon="13.440851849669382"><ele>232.0</ele><time>2026-04-12T08:18:01Z</time></trkpt><trkpt lat="43.41204365424575" lon="13.440815582091764"><ele>232.0</ele><time>2026-04-12T08:18:02Z</time></trkpt><trkpt lat="43.411959699001" lon="13.440778283259512"><ele>231.99999999999997</ele><time>2026-04-12T08:18:03Z</time></trkpt><trkpt lat="43.41187423333464" lon="13.440730071766767"><ele>232.0</ele><time>2026-04-12T08:18:04Z</time></trkpt><trkpt lat="43.4117813347068" lon="13.440684467948453"><ele>231.39999999999998</ele><time>2026-04-12T08:18:05Z</time></trkpt><trkpt lat="43.411687772195286" lon="13.440626426244743"><ele>230.79999999999998</ele><time>2026-04-12T08:18:06Z</time></trkpt><trkpt lat="43.41160039580773" lon="13.440550673298306"><ele>230.2</ele><time>2026-04-12T08:18:07Z</time></trkpt><trkpt lat="43.411524015738244" lon="13.440459448634817"><ele>229.6</ele><time>2026-04-12T08:18:08Z</time></trkpt><trkpt lat="43.4114566054094" lon="13.440341367214547"><ele>229.0</ele><time>2026-04-12T08:18:09Z</time></trkpt><trkpt lat="43.41140685536137" lon="13.440211196864182"><ele>228.5</ele><time>2026-04-12T08:18:10Z</time></trkpt><trkpt lat="43.4113644513837" lon="13.440066082829107"><ele>228.0</ele><time>2026-04-12T08:18:11Z</time></trkpt><trkpt lat="43.411337092824084" lon="13.43991576822611"><ele>227.5</ele><time>2026-04-12T08:18:12Z</time></trkpt><trkpt lat="43.4113182396868" lon="13.439759123065075"><ele>227.0</ele><time>2026-04-12T08:18:13Z</time></trkpt><trkpt lat="43.4113124951659" lon="13.439599819368464"><ele>226.75</ele><time>2026-04-12T08:18:14Z</time></trkpt><trkpt lat="43.41129862210224" lon="13.439430874274034"><ele>226.5</ele><time>2026-04-12T08:18:15Z</time></trkpt><trkpt lat="43.41128470907262" lon="13.439270823163998"><ele>226.25</ele><time>2026-04-12T08:18:16Z</time></trkpt><trkpt lat="43.4112686094589" lon="13.439110253468069"><ele>226.0</ele><time>2026-04-12T08:18:17Z</time></trkpt><trkpt lat="43.41125933941104" lon="13.438957340189441"><ele>226.4</ele><time>2026-04-12T08:18:18Z</time></trkpt><trkpt lat="43.41124055177765" lon="13.43879572451613"><ele>226.8</ele><time>2026-04-12T08:18:19Z</time></trkpt><trkpt lat="43.411230535553926" lon="13.438654887973108"><ele>227.20000000000002</ele><time>2026-04-12T08:18:20Z</time></trkpt><trkpt lat="43.411214055768575" lon="13.438523386456424"><ele>227.60000000000002</ele><time>2026-04-12T08:18:21Z</time></trkpt><trkpt lat="43.41119876858475" lon="13.438381694128365"><ele>228.0</ele><time>2026-04-12T08:18:22Z</time></trkpt><trkpt lat="43.41117882045413" lon="13.438228202040063"><ele>228.0</ele><time>2026-04-12T08:18:23Z</time></trkpt><trkpt lat="43.41115713181643" lon="13.438053737718736"><ele>228.0</ele><time>2026-04-12T08:18:24Z</time></trkpt><trkpt lat="43.41112716150448" lon="13.437886966330947"><ele>228.0</ele><time>2026-04-12T08:18:25Z</time></trkpt><trkpt lat="43.411099323909994" lon="13.437722530850943"><ele>228.0</ele><time>2026-04-12T08:18:26Z</time></trkpt><trkpt lat="43.411060847411115" lon="13.437555908946676"><ele>228.0</ele><time>2026-04-12T08:18:27Z</time></trkpt><trkpt lat="43.411014852719454" lon="13.437386648818851"><ele>228.0</ele><time>2026-04-12T08:18:28Z</time></trkpt><trkpt lat="43.41096359446546" lon="13.437221825606246"><ele>228.0</ele><time>2026-04-12T08:18:29Z</time></trkpt><trkpt lat="43.41091262073691" lon="13.437049100487764"><ele>228.0</ele><time>2026-04-12T08:18:30Z</time></trkpt><trkpt lat="43.410856870063384" lon="13.43686995467916"><ele>229.0</ele><time>2026-04-12T08:18:31.001Z</time></trkpt><trkpt lat="43.41079756531957" lon="13.436700591048957"><ele>230.0</ele><time>2026-04-12T08:18:32.001Z</time></trkpt><trkpt lat="43.4107404887824" lon="13.436526782823082"><ele>231.0</ele><time>2026-04-12T08:18:33.001Z</time></trkpt><trkpt lat="43.41067249304875" lon="13.436354695412822"><ele>232.0</ele><time>2026-04-12T08:18:34.001Z</time></trkpt><trkpt lat="43.410603033308206" lon="13.436187050957392"><ele>232.5</ele><time>2026-04-12T08:18:35.001Z</time></trkpt><trkpt lat="43.4105148005305" lon="13.4360166966332"><ele>233.0</ele><time>2026-04-12T08:18:36.001Z</time></trkpt><trkpt lat="43.410446193681985" lon="13.435843053824787"><ele>233.5</ele><time>2026-04-12T08:18:37.001Z</time></trkpt><trkpt lat="43.41036371677209" lon="13.435668045279728"><ele>234.0</ele><time>2026-04-12T08:18:38.001Z</time></trkpt><trkpt lat="43.41027747220189" lon="13.435512061459443"><ele>232.0</ele><time>2026-04-12T08:18:39.001Z</time></trkpt><trkpt lat="43.41021177256612" lon="13.435351274623475"><ele>230.0</ele><time>2026-04-12T08:18:40.001Z</time></trkpt><trkpt lat="43.41012941811017" lon="13.435188462217527"><ele>228.0</ele><time>2026-04-12T08:18:41.001Z</time></trkpt><trkpt lat="43.41005265087851" lon="13.435040888396726"><ele>226.0</ele><time>2026-04-12T08:18:42.001Z</time></trkpt><trkpt lat="43.40998237291794" lon="13.43489780733199"><ele>226.0</ele><time>2026-04-12T08:18:43.001Z</time></trkpt><trkpt lat="43.409913714972504" lon="13.43476480480968"><ele>226.0</ele><time>2026-04-12T08:18:44.001Z</time></trkpt><trkpt lat="43.409848138022646" lon="13.43461625924851"><ele>226.0</ele><time>2026-04-12T08:18:45.001Z</time></trkpt><trkpt lat="43.409782377465945" lon="13.434473406896705"><ele>226.0</ele><time>2026-04-12T08:18:46.001Z</time></trkpt><trkpt lat="43.409721945114796" lon="13.434327826199848"><ele>226.0</ele><time>2026-04-12T08:18:47.001Z</time></trkpt><trkpt lat="43.40967257193638" lon="13.434165165442195"><ele>226.0</ele><time>2026-04-12T08:18:48.001Z</time></trkpt><trkpt lat="43.409634572080776" lon="13.434005754256127"><ele>226.0</ele><time>2026-04-12T08:18:49.001Z</time></trkpt><trkpt lat="43.409602160546534" lon="13.43382382357938"><ele>226.0</ele><time>2026-04-12T08:18:50.001Z</time></trkpt><trkpt lat="43.40957485626721" lon="13.433639861962273"><ele>224.0</ele><time>2026-04-12T08:18:51.001Z</time></trkpt><trkpt lat="43.40954602733195" lon="13.433448063648324"><ele>222.0</ele><time>2026-04-12T08:18:52.001Z</time></trkpt><trkpt lat="43.40950947699279" lon="13.433246726503262"><ele>220.0</ele><time>2026-04-12T08:18:53.001Z</time></trkpt><trkpt lat="43.40947559813147" lon="13.43304780634032"><ele>218.0</ele><time>2026-04-12T08:18:54.001Z</time></trkpt><trkpt lat="43.40943952878216" lon="13.432849839254649"><ele>217.5</ele><time>2026-04-12T08:18:55.001Z</time></trkpt><trkpt lat="43.409408750035745" lon="13.432658753157757"><ele>217.0</ele><time>2026-04-12T08:18:56.001Z</time></trkpt><trkpt lat="43.40937626190203" lon="13.432469066371356"><ele>216.5</ele><time>2026-04-12T08:18:57.001Z</time></trkpt><trkpt lat="43.40934449086035" lon="13.432275332167572"><ele>216.0</ele><time>2026-04-12T08:18:58.001Z</time></trkpt><trkpt lat="43.40931494294122" lon="13.432097062213844"><ele>215.75</ele><time>2026-04-12T08:18:59.001Z</time></trkpt><trkpt lat="43.40928174507159" lon="13.431919821322365"><ele>215.5</ele><time>2026-04-12T08:19:00.001Z</time></trkpt><trkpt lat="43.409243451675565" lon="13.431755939959128"><ele>215.25</ele><time>2026-04-12T08:19:01.001Z</time></trkpt><trkpt lat="43.40919176236098" lon="13.431584912663032"><ele>215.0</ele><time>2026-04-12T08:19:02.001Z</time></trkpt><trkpt lat="43.40913601060679" lon="13.43142959674199"><ele>214.75</ele><time>2026-04-12T08:19:03.001Z</time></trkpt><trkpt lat="43.40907657706179" lon="13.431268491903612"><ele>214.5</ele><time>2026-04-12T08:19:04.001Z</time></trkpt><trkpt lat="43.409014210149785" lon="13.431101837921966"><ele>214.25</ele><time>2026-04-12T08:19:05.001Z</time></trkpt><trkpt lat="43.40894948024364" lon="13.430929290574095"><ele>214.0</ele><time>2026-04-12T08:19:06.001Z</time></trkpt><trkpt lat="43.40888509390262" lon="13.430754211263125"><ele>214.0</ele><time>2026-04-12T08:19:07.001Z</time></trkpt><trkpt lat="43.408817112511365" lon="13.43058354120346"><ele>214.0</ele><time>2026-04-12T08:19:08.001Z</time></trkpt><trkpt lat="43.408750446325875" lon="13.43040490608738"><ele>214.0</ele><time>2026-04-12T08:19:09.001Z</time></trkpt><trkpt lat="43.408687413833746" lon="13.43024451421421"><ele>214.0</ele><time>2026-04-12T08:19:10.001Z</time></trkpt><trkpt lat="43.40862932602545" lon="13.430093564714872"><ele>214.0</ele><time>2026-04-12T08:19:11.001Z</time></trkpt><trkpt lat="43.408569576801234" lon="13.42994520249982"><ele>213.99999999999997</ele><time>2026-04-12T08:19:12.001Z</time></trkpt><trkpt lat="43.40852866536397" lon="13.429815821170434"><ele>213.99999999999997</ele><time>2026-04-12T08:19:13.001Z</time></trkpt><trkpt lat="43.4084985288035" lon="13.429693958550477"><ele>214.0</ele><time>2026-04-12T08:19:14.001Z</time></trkpt><trkpt lat="43.40848145461128" lon="13.429564250305697"><ele>214.0</ele><time>2026-04-12T08:19:15Z</time></trkpt><trkpt lat="43.40848494280556" lon="13.429427373952993"><ele>216.0</ele><time>2026-04-12T08:19:16Z</time></trkpt><trkpt lat="43.408506418438385" lon="13.42928318566469"><ele>218.0</ele><time>2026-04-12T08:19:17Z</time></trkpt><trkpt lat="43.408532092706366" lon="13.429135698579131"><ele>220.0</ele><time>2026-04-12T08:19:18Z</time></trkpt><trkpt lat="43.40855933030069" lon="13.428971809728964"><ele>222.0</ele><time>2026-04-12T08:19:19Z</time></trkpt><trkpt lat="43.408585157232004" lon="13.428805212326411"><ele>222.5</ele><time>2026-04-12T08:19:20Z</time></trkpt><trkpt lat="43.40860475032358" lon="13.428612124634215"><ele>223.0</ele><time>2026-04-12T08:19:21Z</time></trkpt><trkpt lat="43.40861173700154" lon="13.428409247266456"><ele>223.5</ele><time>2026-04-12T08:19:22Z</time></trkpt><trkpt lat="43.40862180834289" lon="13.42821125596799"><ele>224.0</ele><time>2026-04-12T08:19:23Z</time></trkpt><trkpt lat="43.40859659325945" lon="13.428002784751566"><ele>223.66666666666669</ele><time>2026-04-12T08:19:24Z</time></trkpt><trkpt lat="43.40856659525432" lon="13.427789936650536"><ele>223.33333333333331</ele><time>2026-04-12T08:19:25Z</time></trkpt><trkpt lat="43.40852266420816" lon="13.42758909568273"><ele>223.0</ele><time>2026-04-12T08:19:26Z</time></trkpt><trkpt lat="43.40846746168514" lon="13.42738206119932"><ele>223.0</ele><time>2026-04-12T08:19:27Z</time></trkpt><trkpt lat="43.40839882332393" lon="13.427181128066598"><ele>223.0</ele><time>2026-04-12T08:19:28Z</time></trkpt><trkpt lat="43.408325515188565" lon="13.426974386485773"><ele>223.0</ele><time>2026-04-12T08:19:29Z</time></trkpt><trkpt lat="43.408246233441346" lon="13.426771459196875"><ele>221.33333333333331</ele><time>2026-04-12T08:19:30Z</time></trkpt><trkpt lat="43.408172524141015" lon="13.4265838384471"><ele>219.66666666666669</ele><time>2026-04-12T08:19:31Z</time></trkpt><trkpt lat="43.408082407880954" lon="13.426384463101483"><ele>218.0</ele><time>2026-04-12T08:19:32Z</time></trkpt><trkpt lat="43.40799786006781" lon="13.42620474708835"><ele>218.0</ele><time>2026-04-12T08:19:33Z</time></trkpt><trkpt lat="43.40791476054673" lon="13.42601551897851"><ele>218.0</ele><time>2026-04-12T08:19:34Z</time></trkpt><trkpt lat="43.4078522810431" lon="13.425811632614375"><ele>218.0</ele><time>2026-04-12T08:19:35Z</time></trkpt><trkpt lat="43.40781538791993" lon="13.42560472716175"><ele>217.66666666666669</ele><time>2026-04-12T08:19:36Z</time></trkpt><trkpt lat="43.40782679392574" lon="13.42537133559381"><ele>217.33333333333331</ele><time>2026-04-12T08:19:37Z</time></trkpt><trkpt lat="43.407833482841106" lon="13.425138623906737"><ele>217.0</ele><time>2026-04-12T08:19:38Z</time></trkpt><trkpt lat="43.40784101361727" lon="13.424895194770885"><ele>217.0</ele><time>2026-04-12T08:19:39Z</time></trkpt><trkpt lat="43.40785744526533" lon="13.42465939721183"><ele>217.0</ele><time>2026-04-12T08:19:40Z</time></trkpt><trkpt lat="43.40786947357692" lon="13.424422461734283"><ele>217.0</ele><time>2026-04-12T08:19:41Z</time></trkpt><trkpt lat="43.40788075119183" lon="13.424188698792115"><ele>217.33333333333331</ele><time>2026-04-12T08:19:42Z</time></trkpt><trkpt lat="43.40788501280815" lon="13.423955746490009"><ele>217.66666666666669</ele><time>2026-04-12T08:19:43Z</time></trkpt><trkpt lat="43.40788735842985" lon="13.423722451736877"><ele>218.0</ele><time>2026-04-12T08:19:44Z</time></trkpt><trkpt lat="43.4078825669776" lon="13.423494801658471"><ele>218.33333333333334</ele><time>2026-04-12T08:19:45Z</time></trkpt><trkpt lat="43.407866582384415" lon="13.423269121276206"><ele>218.66666666666669</ele><time>2026-04-12T08:19:46Z</time></trkpt><trkpt lat="43.40784207007693" lon="13.42303852454882"><ele>219.0</ele><time>2026-04-12T08:19:47Z</time></trkpt><trkpt lat="43.40780503244176" lon="13.42283865219925"><ele>219.5</ele><time>2026-04-12T08:19:48Z</time></trkpt><trkpt lat="43.4077648757599" lon="13.422663668032472"><ele>220.0</ele><time>2026-04-12T08:19:49Z</time></trkpt><trkpt lat="43.407723490221755" lon="13.422498141813717"><ele>220.5</ele><time>2026-04-12T08:19:50Z</time></trkpt><trkpt lat="43.40766805208509" lon="13.422344250805173"><ele>221.0</ele><time>2026-04-12T08:19:51Z</time></trkpt><trkpt lat="43.40759760492615" lon="13.422189363918696"><ele>220.66666666666669</ele><time>2026-04-12T08:19:52Z</time></trkpt><trkpt lat="43.40750454722345" lon="13.422040645482607"><ele>220.33333333333331</ele><time>2026-04-12T08:19:53Z</time></trkpt><trkpt lat="43.407398133474366" lon="13.421890218723577"><ele>220.0</ele><time>2026-04-12T08:19:54Z</time></trkpt><trkpt lat="43.407292366407745" lon="13.42173327295916"><ele>220.0</ele><time>2026-04-12T08:19:55Z</time></trkpt><trkpt lat="43.40718217959179" lon="13.421562582574206"><ele>220.0</ele><time>2026-04-12T08:19:56Z</time></trkpt><trkpt lat="43.40707492762266" lon="13.421375461854305"><ele>220.0</ele><time>2026-04-12T08:19:57Z</time></trkpt><trkpt lat="43.406973233412764" lon="13.42117554840821"><ele>219.66666666666666</ele><time>2026-04-12T08:19:58Z</time></trkpt><trkpt lat="43.40687875801517" lon="13.420966104225009"><ele>219.33333333333331</ele><time>2026-04-12T08:19:59Z</time></trkpt><trkpt lat="43.40679497884623" lon="13.42074564606878"><ele>219.0</ele><time>2026-04-12T08:20:00Z</time></trkpt><trkpt lat="43.4067257592216" lon="13.42051466073783"><ele>219.33333333333331</ele><time>2026-04-12T08:20:01Z</time></trkpt><trkpt lat="43.406661136080785" lon="13.420269500596245"><ele>219.66666666666666</ele><time>2026-04-12T08:20:02Z</time></trkpt><trkpt lat="43.40661002694072" lon="13.420035665126683"><ele>220.0</ele><time>2026-04-12T08:20:03Z</time></trkpt><trkpt lat="43.40655600807722" lon="13.419795356895946"><ele>218.66666666666666</ele><time>2026-04-12T08:20:04Z</time></trkpt><trkpt lat="43.406494705234444" lon="13.419562173642674"><ele>217.33333333333331</ele><time>2026-04-12T08:20:05Z</time></trkpt><trkpt lat="43.406427219421" lon="13.419334079710923"><ele>216.0</ele><time>2026-04-12T08:20:06Z</time></trkpt><trkpt lat="43.40635114881584" lon="13.419109230555456"><ele>217.0</ele><time>2026-04-12T08:20:07Z</time></trkpt><trkpt lat="43.406267941303" lon="13.418886546712143"><ele>218.0</ele><time>2026-04-12T08:20:08Z</time></trkpt><trkpt lat="43.406188185042765" lon="13.41867329307177"><ele>219.0</ele><time>2026-04-12T08:20:09Z</time></trkpt><trkpt lat="43.406108191857825" lon="13.418443083043295"><ele>220.66666666666669</ele><time>2026-04-12T08:20:10Z</time></trkpt><trkpt lat="43.40603309467397" lon="13.418232588850774"><ele>222.33333333333334</ele><time>2026-04-12T08:20:11Z</time></trkpt><trkpt lat="43.405956879314594" lon="13.418013447672225"><ele>224.0</ele><time>2026-04-12T08:20:12Z</time></trkpt><trkpt lat="43.4058688993092" lon="13.41780040098763"><ele>224.66666666666669</ele><time>2026-04-12T08:20:13Z</time></trkpt><trkpt lat="43.40580194344138" lon="13.417583231337803"><ele>225.33333333333331</ele><time>2026-04-12T08:20:14Z</time></trkpt><trkpt lat="43.40573400217045" lon="13.417370158660813"><ele>226.0</ele><time>2026-04-12T08:20:15Z</time></trkpt><trkpt lat="43.40567819891256" lon="13.417154096747636"><ele>225.66666666666666</ele><time>2026-04-12T08:20:16Z</time></trkpt><trkpt lat="43.405632839218434" lon="13.41693178379684"><ele>225.33333333333331</ele><time>2026-04-12T08:20:17Z</time></trkpt><trkpt lat="43.405592747463736" lon="13.416716707213302"><ele>225.0</ele><time>2026-04-12T08:20:18Z</time></trkpt><trkpt lat="43.405564019305935" lon="13.416528219299773"><ele>225.0</ele><time>2026-04-12T08:20:19Z</time></trkpt><trkpt lat="43.40554971970605" lon="13.416359010826659"><ele>225.0</ele><time>2026-04-12T08:20:20Z</time></trkpt><trkpt lat="43.405560004647555" lon="13.416210370744162"><ele>225.0</ele><time>2026-04-12T08:20:21Z</time></trkpt><trkpt lat="43.405534911759105" lon="13.416056808124358"><ele>225.0</ele><time>2026-04-12T08:20:22Z</time></trkpt><trkpt lat="43.40566917156455" lon="13.415920550795477"><ele>225.5</ele><time>2026-04-12T08:20:23Z</time></trkpt><trkpt lat="43.40573652208816" lon="13.415756667495076"><ele>226.0</ele><time>2026-04-12T08:20:24Z</time></trkpt><trkpt lat="43.40579030032719" lon="13.415581132695092"><ele>226.5</ele><time>2026-04-12T08:20:25Z</time></trkpt><trkpt lat="43.40583483303318" lon="13.415383578042508"><ele>227.0</ele><time>2026-04-12T08:20:26Z</time></trkpt><trkpt lat="43.4058759075681" lon="13.41517739012201"><ele>228.33333333333334</ele><time>2026-04-12T08:20:27Z</time></trkpt><trkpt lat="43.40591100284772" lon="13.41496461189884"><ele>229.66666666666669</ele><time>2026-04-12T08:20:28Z</time></trkpt><trkpt lat="43.40592943037066" lon="13.414733188232502"><ele>231.0</ele><time>2026-04-12T08:20:29Z</time></trkpt><trkpt lat="43.40594523356526" lon="13.414500301002153"><ele>231.33333333333331</ele><time>2026-04-12T08:20:30Z</time></trkpt><trkpt lat="43.40595439374115" lon="13.41426750180032"><ele>231.66666666666666</ele><time>2026-04-12T08:20:31Z</time></trkpt><trkpt lat="43.405964026704375" lon="13.414029164997782"><ele>232.0</ele><time>2026-04-12T08:20:32Z</time></trkpt><trkpt lat="43.40597390862037" lon="13.413785236765415"><ele>232.0</ele><time>2026-04-12T08:20:33Z</time></trkpt><trkpt lat="43.405977168560376" lon="13.413539211897813"><ele>232.0</ele><time>2026-04-12T08:20:34Z</time></trkpt><trkpt lat="43.40597508162755" lon="13.41330334044471"><ele>232.0</ele><time>2026-04-12T08:20:35.001Z</time></trkpt><trkpt lat="43.40596372973811" lon="13.413071008764149"><ele>231.0</ele><time>2026-04-12T08:20:36.001Z</time></trkpt><trkpt lat="43.405930978137725" lon="13.412833228483166"><ele>230.0</ele><time>2026-04-12T08:20:37.001Z</time></trkpt><trkpt lat="43.4058933019597" lon="13.412588751511533"><ele>229.0</ele><time>2026-04-12T08:20:38.001Z</time></trkpt><trkpt lat="43.40586402755272" lon="13.41234742226662"><ele>227.0</ele><time>2026-04-12T08:20:39.001Z</time></trkpt><trkpt lat="43.405832809371255" lon="13.412096995525953"><ele>225.0</ele><time>2026-04-12T08:20:40.001Z</time></trkpt><trkpt lat="43.40580530343876" lon="13.411849011218429"><ele>223.0</ele><time>2026-04-12T08:20:41.001Z</time></trkpt><trkpt lat="43.405772375209565" lon="13.411596007162883"><ele>223.0</ele><time>2026-04-12T08:20:42.001Z</time></trkpt><trkpt lat="43.40574027009032" lon="13.411343037431841"><ele>223.0</ele><time>2026-04-12T08:20:43.001Z</time></trkpt><trkpt lat="43.40570916682092" lon="13.411087046551835"><ele>223.0</ele><time>2026-04-12T08:20:44.001Z</time></trkpt><trkpt lat="43.405677854122715" lon="13.410827540212438"><ele>222.0</ele><time>2026-04-12T08:20:45.001Z</time></trkpt><trkpt lat="43.40565073023173" lon="13.410588426883281"><ele>221.0</ele><time>2026-04-12T08:20:46.001Z</time></trkpt><trkpt lat="43.40562204799554" lon="13.410367074050122"><ele>220.0</ele><time>2026-04-12T08:20:47.001Z</time></trkpt><trkpt lat="43.405577837196724" lon="13.410139939326774"><ele>218.66666666666666</ele><time>2026-04-12T08:20:48.001Z</time></trkpt><trkpt lat="43.40551186058335" lon="13.409921145034625"><ele>217.33333333333331</ele><time>2026-04-12T08:20:49.001Z</time></trkpt><trkpt lat="43.40542079998981" lon="13.409722275025967"><ele>216.0</ele><time>2026-04-12T08:20:50.001Z</time></trkpt><trkpt lat="43.40533271285419" lon="13.409547353450048"><ele>218.66666666666669</ele><time>2026-04-12T08:20:51.001Z</time></trkpt><trkpt lat="43.40523914303919" lon="13.409371721868753"><ele>221.33333333333334</ele><time>2026-04-12T08:20:52.001Z</time></trkpt><trkpt lat="43.405140215519786" lon="13.409178917025491"><ele>224.0</ele><time>2026-04-12T08:20:53.001Z</time></trkpt><trkpt lat="43.40504519946109" lon="13.408980365193669"><ele>224.66666666666669</ele><time>2026-04-12T08:20:54.001Z</time></trkpt><trkpt lat="43.40494419661654" lon="13.408793929404705"><ele>225.33333333333331</ele><time>2026-04-12T08:20:55.001Z</time></trkpt><trkpt lat="43.40483238244945" lon="13.408609403752017"><ele>226.0</ele><time>2026-04-12T08:20:56.001Z</time></trkpt><trkpt lat="43.404720804294406" lon="13.408430176490908"><ele>226.0</ele><time>2026-04-12T08:20:57.001Z</time></trkpt><trkpt lat="43.40459349877156" lon="13.40825495673079"><ele>226.0</ele><time>2026-04-12T08:20:58.001Z</time></trkpt><trkpt lat="43.40445822538663" lon="13.408099702700913"><ele>226.0</ele><time>2026-04-12T08:20:59.001Z</time></trkpt><trkpt lat="43.40430465056224" lon="13.407956017287754"><ele>226.0</ele><time>2026-04-12T08:21:00.001Z</time></trkpt><trkpt lat="43.40414520132832" lon="13.407821505058658"><ele>226.0</ele><time>2026-04-12T08:21:01.001Z</time></trkpt><trkpt lat="43.4039856966942" lon="13.407691892872323"><ele>226.0</ele><time>2026-04-12T08:21:02.001Z</time></trkpt><trkpt lat="43.403824652838644" lon="13.407562128579256"><ele>221.0</ele><time>2026-04-12T08:21:03.001Z</time></trkpt><trkpt lat="43.4036644392932" lon="13.407423197244432"><ele>216.0</ele><time>2026-04-12T08:21:04.001Z</time></trkpt><trkpt lat="43.4035148591127" lon="13.407296536001466"><ele>211.0</ele><time>2026-04-12T08:21:05.001Z</time></trkpt><trkpt lat="43.4033652903208" lon="13.407161613507546"><ele>208.66666666666666</ele><time>2026-04-12T08:21:06.001Z</time></trkpt><trkpt lat="43.40320861829783" lon="13.40701905442312"><ele>206.33333333333331</ele><time>2026-04-12T08:21:07.001Z</time></trkpt><trkpt lat="43.40304884609062" lon="13.406871771907069"><ele>204.0</ele><time>2026-04-12T08:21:08.001Z</time></trkpt><trkpt lat="43.40288506008628" lon="13.406721171143587"><ele>204.0</ele><time>2026-04-12T08:21:09.001Z</time></trkpt><trkpt lat="43.402728206131705" lon="13.406568302946715"><ele>204.0</ele><time>2026-04-12T08:21:10.001Z</time></trkpt><trkpt lat="43.40256465142047" lon="13.406406930786769"><ele>204.0</ele><time>2026-04-12T08:21:11.001Z</time></trkpt><trkpt lat="43.40240784757871" lon="13.406250306376979"><ele>202.33333333333331</ele><time>2026-04-12T08:21:12.001Z</time></trkpt><trkpt lat="43.40225449566823" lon="13.406087346101241"><ele>200.66666666666666</ele><time>2026-04-12T08:21:13.001Z</time></trkpt><trkpt lat="43.40210837389875" lon="13.405934097937555"><ele>199.0</ele><time>2026-04-12T08:21:14.001Z</time></trkpt><trkpt lat="43.40196951923487" lon="13.40578972160934"><ele>199.0</ele><time>2026-04-12T08:21:15.001Z</time></trkpt><trkpt lat="43.40183670537565" lon="13.405656615937927"><ele>199.0</ele><time>2026-04-12T08:21:16.001Z</time></trkpt><trkpt lat="43.40170821356004" lon="13.4055310535016"><ele>199.0</ele><time>2026-04-12T08:21:17.001Z</time></trkpt><trkpt lat="43.40158775457862" lon="13.405412953646616"><ele>198.25</ele><time>2026-04-12T08:21:18.001Z</time></trkpt><trkpt lat="43.401477881493044" lon="13.405297752348512"><ele>197.5</ele><time>2026-04-12T08:21:19.001Z</time></trkpt><trkpt lat="43.40137616428869" lon="13.405178917224301"><ele>196.75</ele><time>2026-04-12T08:21:20.001Z</time></trkpt><trkpt lat="43.40128158890877" lon="13.40503913229143"><ele>196.0</ele><time>2026-04-12T08:21:21Z</time></trkpt><trkpt lat="43.40120076304701" lon="13.404882785256644"><ele>196.0</ele><time>2026-04-12T08:21:22Z</time></trkpt><trkpt lat="43.40112505339104" lon="13.404719956020626"><ele>196.0</ele><time>2026-04-12T08:21:23Z</time></trkpt><trkpt lat="43.401045135862205" lon="13.404557566551155"><ele>196.0</ele><time>2026-04-12T08:21:24Z</time></trkpt><trkpt lat="43.40096612149376" lon="13.40440180938182"><ele>196.0</ele><time>2026-04-12T08:21:25Z</time></trkpt><trkpt lat="43.400884229479416" lon="13.404244724726233"><ele>195.25</ele><time>2026-04-12T08:21:26Z</time></trkpt><trkpt lat="43.40079373920121" lon="13.404089798789634"><ele>194.5</ele><time>2026-04-12T08:21:27Z</time></trkpt><trkpt lat="43.40069649606114" lon="13.40393795654818"><ele>193.75</ele><time>2026-04-12T08:21:28Z</time></trkpt><trkpt lat="43.400590614368696" lon="13.403783972820941"><ele>193.0</ele><time>2026-04-12T08:21:29Z</time></trkpt><trkpt lat="43.40047964693266" lon="13.403641939966848"><ele>193.0</ele><time>2026-04-12T08:21:30Z</time></trkpt><trkpt lat="43.40036519488582" lon="13.403510909534914"><ele>193.0</ele><time>2026-04-12T08:21:31Z</time></trkpt><trkpt lat="43.40025751035797" lon="13.403364334421324"><ele>193.0</ele><time>2026-04-12T08:21:32Z</time></trkpt><trkpt lat="43.40015119641789" lon="13.40323020276561"><ele>193.0</ele><time>2026-04-12T08:21:33Z</time></trkpt><trkpt lat="43.40003915679986" lon="13.403103464869895"><ele>192.75</ele><time>2026-04-12T08:21:34Z</time></trkpt><trkpt lat="43.399922807605044" lon="13.402975987666064"><ele>192.5</ele><time>2026-04-12T08:21:35Z</time></trkpt><trkpt lat="43.39980279680142" lon="13.402852224526827"><ele>192.25</ele><time>2026-04-12T08:21:36Z</time></trkpt><trkpt lat="43.39967853713826" lon="13.40273516411231"><ele>192.0</ele><time>2026-04-12T08:21:37Z</time></trkpt><trkpt lat="43.399547692606355" lon="13.402626608551945"><ele>192.0</ele><time>2026-04-12T08:21:38Z</time></trkpt><trkpt lat="43.39941778279065" lon="13.402524219771282"><ele>192.0</ele><time>2026-04-12T08:21:39Z</time></trkpt><trkpt lat="43.39928326104628" lon="13.402425639741045"><ele>192.0</ele><time>2026-04-12T08:21:40Z</time></trkpt><trkpt lat="43.39914983725823" lon="13.40232383837439"><ele>192.0</ele><time>2026-04-12T08:21:41Z</time></trkpt><trkpt lat="43.39901829827288" lon="13.402219995993645"><ele>192.0</ele><time>2026-04-12T08:21:42Z</time></trkpt><trkpt lat="43.398883719764044" lon="13.40212105921964"><ele>192.0</ele><time>2026-04-12T08:21:43Z</time></trkpt><trkpt lat="43.398749036451996" lon="13.402019446129573"><ele>192.33333333333331</ele><time>2026-04-12T08:21:44Z</time></trkpt><trkpt lat="43.39861472086526" lon="13.40191559306696"><ele>192.66666666666666</ele><time>2026-04-12T08:21:45Z</time></trkpt><trkpt lat="43.39847813956712" lon="13.401815035374808"><ele>193.0</ele><time>2026-04-12T08:21:46Z</time></trkpt><trkpt lat="43.39833821046501" lon="13.401712051309334"><ele>193.0</ele><time>2026-04-12T08:21:47Z</time></trkpt><trkpt lat="43.39820019512745" lon="13.401600285311288"><ele>193.0</ele><time>2026-04-12T08:21:48Z</time></trkpt><trkpt lat="43.39806547930696" lon="13.40148143475022"><ele>193.0</ele><time>2026-04-12T08:21:49Z</time></trkpt><trkpt lat="43.39792857307577" lon="13.401363403975887"><ele>192.33333333333331</ele><time>2026-04-12T08:21:50Z</time></trkpt><trkpt lat="43.39778971301868" lon="13.401242543837762"><ele>191.66666666666666</ele><time>2026-04-12T08:21:51Z</time></trkpt><trkpt lat="43.39765242364266" lon="13.401126969251703"><ele>191.0</ele><time>2026-04-12T08:21:52Z</time></trkpt><trkpt lat="43.397505740689496" lon="13.401006880672522"><ele>191.0</ele><time>2026-04-12T08:21:53Z</time></trkpt><trkpt lat="43.39735967870051" lon="13.40088603120271"><ele>191.0</ele><time>2026-04-12T08:21:54Z</time></trkpt><trkpt lat="43.39721512442996" lon="13.400763459685539"><ele>191.0</ele><time>2026-04-12T08:21:55Z</time></trkpt><trkpt lat="43.39707037059773" lon="13.400639551963412"><ele>190.0</ele><time>2026-04-12T08:21:56Z</time></trkpt><trkpt lat="43.39692323825206" lon="13.400515789331278"><ele>189.0</ele><time>2026-04-12T08:21:57Z</time></trkpt><trkpt lat="43.396773898584854" lon="13.400388754809892"><ele>188.0</ele><time>2026-04-12T08:21:58Z</time></trkpt><trkpt lat="43.39662782584397" lon="13.400260897054403"><ele>188.0</ele><time>2026-04-12T08:21:59Z</time></trkpt><trkpt lat="43.39648028901346" lon="13.40013604729512"><ele>188.0</ele><time>2026-04-12T08:22:00Z</time></trkpt><trkpt lat="43.39633706357524" lon="13.400016357461201"><ele>188.0</ele><time>2026-04-12T08:22:01Z</time></trkpt><trkpt lat="43.396194576002245" lon="13.39989333818811"><ele>188.66666666666666</ele><time>2026-04-12T08:22:02Z</time></trkpt><trkpt lat="43.39605742016201" lon="13.399767889856422"><ele>189.33333333333334</ele><time>2026-04-12T08:22:03Z</time></trkpt><trkpt lat="43.39592498902199" lon="13.399637992441207"><ele>190.0</ele><time>2026-04-12T08:22:04Z</time></trkpt><trkpt lat="43.39579701442581" lon="13.399514275867585"><ele>192.0</ele><time>2026-04-12T08:22:05Z</time></trkpt><trkpt lat="43.395667090354486" lon="13.399390144465846"><ele>194.0</ele><time>2026-04-12T08:22:06Z</time></trkpt><trkpt lat="43.39553296791494" lon="13.399264326612775"><ele>196.0</ele><time>2026-04-12T08:22:07Z</time></trkpt><trkpt lat="43.395401520523954" lon="13.399133378502512"><ele>196.0</ele><time>2026-04-12T08:22:08Z</time></trkpt><trkpt lat="43.395274568462796" lon="13.398999360233544"><ele>196.0</ele><time>2026-04-12T08:22:09Z</time></trkpt><trkpt lat="43.3951403573854" lon="13.398882219669572"><ele>196.0</ele><time>2026-04-12T08:22:10Z</time></trkpt><trkpt lat="43.39500575561177" lon="13.398795370748806"><ele>197.75</ele><time>2026-04-12T08:22:11Z</time></trkpt><trkpt lat="43.39485619036311" lon="13.398739081200288"><ele>199.5</ele><time>2026-04-12T08:22:12Z</time></trkpt><trkpt lat="43.394706227297604" lon="13.398691568474291"><ele>201.25</ele><time>2026-04-12T08:22:13Z</time></trkpt><trkpt lat="43.394569683472064" lon="13.39865507992335"><ele>203.0</ele><time>2026-04-12T08:22:14Z</time></trkpt><trkpt lat="43.39443578778774" lon="13.39861508061863"><ele>203.0</ele><time>2026-04-12T08:22:15Z</time></trkpt><trkpt lat="43.39431578923498" lon="13.398569921098861"><ele>203.0</ele><time>2026-04-12T08:22:16Z</time></trkpt><trkpt lat="43.39420508959134" lon="13.398534372184066"><ele>203.0</ele><time>2026-04-12T08:22:17Z</time></trkpt><trkpt lat="43.39411397104183" lon="13.398491716334766"><ele>203.0</ele><time>2026-04-12T08:22:18Z</time></trkpt><trkpt lat="43.39403226743615" lon="13.398432864823008"><ele>203.0</ele><time>2026-04-12T08:22:19Z</time></trkpt><trkpt lat="43.39396141791952" lon="13.398350769750238"><ele>203.0</ele><time>2026-04-12T08:22:20Z</time></trkpt><trkpt lat="43.3939100892234" lon="13.398251272124478"><ele>203.0</ele><time>2026-04-12T08:22:21Z</time></trkpt><trkpt lat="43.393876942305916" lon="13.398137474568907"><ele>203.0</ele><time>2026-04-12T08:22:22Z</time></trkpt><trkpt lat="43.393868427581054" lon="13.397987900571195"><ele>203.0</ele><time>2026-04-12T08:22:23Z</time></trkpt><trkpt lat="43.39385700238888" lon="13.39782201443607"><ele>203.0</ele><time>2026-04-12T08:22:24Z</time></trkpt><trkpt lat="43.393831656070084" lon="13.397636903678453"><ele>201.66666666666669</ele><time>2026-04-12T08:22:25Z</time></trkpt><trkpt lat="43.39382573141097" lon="13.397433015276865"><ele>200.33333333333331</ele><time>2026-04-12T08:22:26Z</time></trkpt><trkpt lat="43.39381690945774" lon="13.397216999273255"><ele>199.0</ele><time>2026-04-12T08:22:27Z</time></trkpt><trkpt lat="43.3938080542921" lon="13.396989767464799"><ele>199.0</ele><time>2026-04-12T08:22:28Z</time></trkpt><trkpt lat="43.393800803671695" lon="13.396759637711037"><ele>199.0</ele><time>2026-04-12T08:22:29Z</time></trkpt><trkpt lat="43.39379473515286" lon="13.396552856767215"><ele>199.0</ele><time>2026-04-12T08:22:30Z</time></trkpt><trkpt lat="43.39379571069174" lon="13.396349096714607"><ele>200.0</ele><time>2026-04-12T08:22:31Z</time></trkpt><trkpt lat="43.39383223037674" lon="13.396150259135915"><ele>201.0</ele><time>2026-04-12T08:22:32Z</time></trkpt><trkpt lat="43.39387204150251" lon="13.395956681455383"><ele>202.0</ele><time>2026-04-12T08:22:33Z</time></trkpt><trkpt lat="43.3939097665599" lon="13.395757996684926"><ele>203.0</ele><time>2026-04-12T08:22:34Z</time></trkpt><trkpt lat="43.39396347363287" lon="13.395573211756103"><ele>205.5</ele><time>2026-04-12T08:22:35Z</time></trkpt><trkpt lat="43.39401262387163" lon="13.395387901927046"><ele>208.0</ele><time>2026-04-12T08:22:36Z</time></trkpt><trkpt lat="43.39405898248928" lon="13.395195913175412"><ele>210.5</ele><time>2026-04-12T08:22:37Z</time></trkpt><trkpt lat="43.39410576285783" lon="13.395012883914006"><ele>213.0</ele><time>2026-04-12T08:22:38Z</time></trkpt><trkpt lat="43.39415485055281" lon="13.394823433609238"><ele>212.0</ele><time>2026-04-12T08:22:39.001Z</time></trkpt><trkpt lat="43.394199444439586" lon="13.394635537049458"><ele>211.0</ele><time>2026-04-12T08:22:40.001Z</time></trkpt><trkpt lat="43.39424602942832" lon="13.394446340943606"><ele>210.0</ele><time>2026-04-12T08:22:41.001Z</time></trkpt><trkpt lat="43.39429370269186" lon="13.394256871596841"><ele>209.0</ele><time>2026-04-12T08:22:42.001Z</time></trkpt><trkpt lat="43.39433911238224" lon="13.39407166521994"><ele>209.0</ele><time>2026-04-12T08:22:43.001Z</time></trkpt><trkpt lat="43.39437962134136" lon="13.393890883520715"><ele>209.0</ele><time>2026-04-12T08:22:44.001Z</time></trkpt><trkpt lat="43.39441854554987" lon="13.393714284974338"><ele>209.0</ele><time>2026-04-12T08:22:45.001Z</time></trkpt><trkpt lat="43.3944488161465" lon="13.393542322283722"><ele>209.0</ele><time>2026-04-12T08:22:46.001Z</time></trkpt><trkpt lat="43.39445816324038" lon="13.39336427489288"><ele>208.75</ele><time>2026-04-12T08:22:47.001Z</time></trkpt><trkpt lat="43.394440945049766" lon="13.393180865817827"><ele>208.5</ele><time>2026-04-12T08:22:48.001Z</time></trkpt><trkpt lat="43.39440010182247" lon="13.393000389477626"><ele>208.25</ele><time>2026-04-12T08:22:49.001Z</time></trkpt><trkpt lat="43.39433190547636" lon="13.392829995407405"><ele>208.0</ele><time>2026-04-12T08:22:50.001Z</time></trkpt><trkpt lat="43.39426788307828" lon="13.392688629621622"><ele>207.99999999999997</ele><time>2026-04-12T08:22:51.001Z</time></trkpt><trkpt lat="43.394214737889484" lon="13.392564298361965"><ele>208.0</ele><time>2026-04-12T08:22:52.001Z</time></trkpt><trkpt lat="43.39417297205431" lon="13.392461895582947"><ele>208.0</ele><time>2026-04-12T08:22:53.001Z</time></trkpt><trkpt lat="43.394144249887276" lon="13.392384738254247"><ele>208.0</ele><time>2026-04-12T08:22:54.001Z</time></trkpt><trkpt lat="43.394137415614914" lon="13.392277796891245"><ele>207.99999999999997</ele><time>2026-04-12T08:23:21.001Z</time></trkpt><trkpt lat="43.39421109669889" lon="13.392178893078706"><ele>208.0</ele><time>2026-04-12T08:23:22.001Z</time></trkpt><trkpt lat="43.394229746341416" lon="13.392056653415713"><ele>208.4</ele><time>2026-04-12T08:23:23.001Z</time></trkpt><trkpt lat="43.394262417112806" lon="13.391929516747526"><ele>208.8</ele><time>2026-04-12T08:23:24.001Z</time></trkpt><trkpt lat="43.394287728071504" lon="13.391795704904569"><ele>209.2</ele><time>2026-04-12T08:23:25.001Z</time></trkpt><trkpt lat="43.39431149745102" lon="13.39165665502049"><ele>209.6</ele><time>2026-04-12T08:23:26.001Z</time></trkpt><trkpt lat="43.394328343187674" lon="13.391517802286007"><ele>210.0</ele><time>2026-04-12T08:23:27Z</time></trkpt><trkpt lat="43.39433686332216" lon="13.391373159812682"><ele>210.0</ele><time>2026-04-12T08:23:28Z</time></trkpt><trkpt lat="43.394349001390566" lon="13.39123523025684"><ele>210.0</ele><time>2026-04-12T08:23:29Z</time></trkpt><trkpt lat="43.39439210477251" lon="13.391098192991628"><ele>210.0</ele><time>2026-04-12T08:23:30Z</time></trkpt><trkpt lat="43.39442947361555" lon="13.390953585271996"><ele>210.0</ele><time>2026-04-12T08:23:31Z</time></trkpt><trkpt lat="43.394472674439484" lon="13.390810847946705"><ele>210.0</ele><time>2026-04-12T08:23:32Z</time></trkpt><trkpt lat="43.39451693221447" lon="13.390664024400037"><ele>210.0</ele><time>2026-04-12T08:23:33Z</time></trkpt><trkpt lat="43.394569903970435" lon="13.390534881955013"><ele>210.0</ele><time>2026-04-12T08:23:34Z</time></trkpt><trkpt lat="43.39460386623514" lon="13.390400325258868"><ele>210.0</ele><time>2026-04-12T08:23:35Z</time></trkpt><trkpt lat="43.39465541484596" lon="13.390282613133508"><ele>210.0</ele><time>2026-04-12T08:23:36Z</time></trkpt><trkpt lat="43.39471991813653" lon="13.390172201317357"><ele>210.0</ele><time>2026-04-12T08:23:37Z</time></trkpt><trkpt lat="43.39477991602777" lon="13.390044028454875"><ele>205.8</ele><time>2026-04-12T08:23:38Z</time></trkpt><trkpt lat="43.394840730600606" lon="13.389941041456701"><ele>201.6</ele><time>2026-04-12T08:23:39Z</time></trkpt><trkpt lat="43.39489874911592" lon="13.389864264592141"><ele>197.39999999999998</ele><time>2026-04-12T08:23:40Z</time></trkpt><trkpt lat="43.39501949703766" lon="13.38978557195702"><ele>193.2</ele><time>2026-04-12T08:23:42Z</time></trkpt><trkpt lat="43.39512516651653" lon="13.389759704102111"><ele>189.0</ele><time>2026-04-12T08:23:43Z</time></trkpt><trkpt lat="43.39523406649898" lon="13.389711199355345"><ele>189.0</ele><time>2026-04-12T08:23:44Z</time></trkpt><trkpt lat="43.39534434380237" lon="13.389718808009931"><ele>189.0</ele><time>2026-04-12T08:23:45Z</time></trkpt><trkpt lat="43.39543819932087" lon="13.38969072987503"><ele>189.0</ele><time>2026-04-12T08:23:46Z</time></trkpt><trkpt lat="43.39551730036548" lon="13.389681825167719"><ele>189.0</ele><time>2026-04-12T08:23:47Z</time></trkpt><trkpt lat="43.39558155193162" lon="13.389673574618461"><ele>189.0</ele><time>2026-04-12T08:23:48Z</time></trkpt><trkpt lat="43.39564403099602" lon="13.38965749406969"><ele>189.0</ele><time>2026-04-12T08:23:49Z</time></trkpt><trkpt lat="43.39570598457138" lon="13.389628930210254"><ele>186.83333333333334</ele><time>2026-04-12T08:23:50Z</time></trkpt><trkpt lat="43.395777765049694" lon="13.389585114580116"><ele>184.66666666666666</ele><time>2026-04-12T08:23:51Z</time></trkpt><trkpt lat="43.39584354320805" lon="13.389532996041032"><ele>182.5</ele><time>2026-04-12T08:23:52Z</time></trkpt><trkpt lat="43.39590983631223" lon="13.389474934556748"><ele>180.33333333333331</ele><time>2026-04-12T08:23:53Z</time></trkpt><trkpt lat="43.395980461050485" lon="13.389399991469363"><ele>178.16666666666666</ele><time>2026-04-12T08:23:54Z</time></trkpt><trkpt lat="43.39606700091248" lon="13.389370555215196"><ele>176.0</ele><time>2026-04-12T08:23:55Z</time></trkpt><trkpt lat="43.39615850246672" lon="13.389285573939969"><ele>176.0</ele><time>2026-04-12T08:23:57Z</time></trkpt><trkpt lat="43.39619815912487" lon="13.38916476305518"><ele>176.0</ele><time>2026-04-12T08:23:58Z</time></trkpt><trkpt lat="43.3962632208758" lon="13.38905014390741"><ele>176.0</ele><time>2026-04-12T08:23:59Z</time></trkpt><trkpt lat="43.39633728158002" lon="13.388954089948275"><ele>176.0</ele><time>2026-04-12T08:24:00Z</time></trkpt><trkpt lat="43.3963929644721" lon="13.388876100567952"><ele>176.0</ele><time>2026-04-12T08:24:01Z</time></trkpt><trkpt lat="43.39644738119196" lon="13.388812635487271"><ele>173.4</ele><time>2026-04-12T08:24:02Z</time></trkpt><trkpt lat="43.396520421009384" lon="13.388775832948804"><ele>170.8</ele><time>2026-04-12T08:24:03Z</time></trkpt><trkpt lat="43.39662286305922" lon="13.388741017126193"><ele>168.20000000000002</ele><time>2026-04-12T08:24:04Z</time></trkpt><trkpt lat="43.3967247631133" lon="13.388698468645478"><ele>165.60000000000002</ele><time>2026-04-12T08:24:05Z</time></trkpt><trkpt lat="43.39682532269914" lon="13.388642224261806"><ele>163.0</ele><time>2026-04-12T08:24:06Z</time></trkpt><trkpt lat="43.39692390976987" lon="13.388595763221328"><ele>163.0</ele><time>2026-04-12T08:24:07Z</time></trkpt><trkpt lat="43.397023373944975" lon="13.388565561210283"><ele>163.0</ele><time>2026-04-12T08:24:08Z</time></trkpt><trkpt lat="43.39712752829671" lon="13.388526726652307"><ele>163.0</ele><time>2026-04-12T08:24:09Z</time></trkpt><trkpt lat="43.3972231237163" lon="13.388505991994574"><ele>163.0</ele><time>2026-04-12T08:24:10Z</time></trkpt><trkpt lat="43.39730154037105" lon="13.388459830715382"><ele>163.0</ele><time>2026-04-12T08:24:11Z</time></trkpt><trkpt lat="43.397377816631526" lon="13.388428002195619"><ele>160.83333333333334</ele><time>2026-04-12T08:24:12Z</time></trkpt><trkpt lat="43.39745221579786" lon="13.388402135075511"><ele>158.66666666666669</ele><time>2026-04-12T08:24:14Z</time></trkpt><trkpt lat="43.3975151588507" lon="13.388398090411577"><ele>156.5</ele><time>2026-04-12T08:24:26Z</time></trkpt><trkpt lat="43.39752553316632" lon="13.388213365659434"><ele>154.33333333333334</ele><time>2026-04-12T08:24:28Z</time></trkpt><trkpt lat="43.39753994587507" lon="13.388104115013139"><ele>152.16666666666666</ele><time>2026-04-12T08:24:29Z</time></trkpt><trkpt lat="43.39755210201031" lon="13.387986989442455"><ele>150.0</ele><time>2026-04-12T08:24:30Z</time></trkpt><trkpt lat="43.397562561600914" lon="13.38785781152981"><ele>150.0</ele><time>2026-04-12T08:24:31Z</time></trkpt><trkpt lat="43.39757328610516" lon="13.387742407974441"><ele>150.0</ele><time>2026-04-12T08:24:32Z</time></trkpt><trkpt lat="43.39758996872642" lon="13.387609670418039"><ele>150.0</ele><time>2026-04-12T08:24:34.001Z</time></trkpt><trkpt lat="43.397608265629906" lon="13.38744557081971"><ele>150.0</ele><time>2026-04-12T08:24:36.001Z</time></trkpt><trkpt lat="43.39761808979108" lon="13.387336465254815"><ele>150.0</ele><time>2026-04-12T08:24:37.001Z</time></trkpt><trkpt lat="43.397633810975115" lon="13.387216538786916"><ele>149.0</ele><time>2026-04-12T08:24:38.001Z</time></trkpt><trkpt lat="43.39765618104303" lon="13.387080576499251"><ele>148.0</ele><time>2026-04-12T08:24:39.001Z</time></trkpt><trkpt lat="43.39767026060932" lon="13.386947012001157"><ele>147.0</ele><time>2026-04-12T08:24:40.001Z</time></trkpt><trkpt lat="43.39769332241859" lon="13.38680383791668"><ele>146.0</ele><time>2026-04-12T08:24:41.001Z</time></trkpt><trkpt lat="43.39769978928827" lon="13.386645946115157"><ele>145.0</ele><time>2026-04-12T08:24:42.001Z</time></trkpt><trkpt lat="43.39770863374449" lon="13.386477188637157"><ele>143.5</ele><time>2026-04-12T08:24:43.001Z</time></trkpt><trkpt lat="43.39772236893848" lon="13.38629129181576"><ele>142.0</ele><time>2026-04-12T08:24:44.001Z</time></trkpt><trkpt lat="43.39772189907778" lon="13.386088617875194"><ele>140.5</ele><time>2026-04-12T08:24:45.001Z</time></trkpt><trkpt lat="43.39772245583253" lon="13.38590021402813"><ele>139.0</ele><time>2026-04-12T08:24:46.001Z</time></trkpt><trkpt lat="43.39772552974818" lon="13.385719870187708"><ele>139.0</ele><time>2026-04-12T08:24:47.001Z</time></trkpt><trkpt lat="43.39772788112879" lon="13.385550743106746"><ele>139.0</ele><time>2026-04-12T08:24:48.001Z</time></trkpt><trkpt lat="43.397731224479436" lon="13.385408315743787"><ele>139.0</ele><time>2026-04-12T08:24:49.001Z</time></trkpt><trkpt lat="43.397730985169204" lon="13.385271150576749"><ele>139.0</ele><time>2026-04-12T08:24:50.001Z</time></trkpt><trkpt lat="43.39772911705646" lon="13.385153499416534"><ele>139.0</ele><time>2026-04-12T08:24:51.001Z</time></trkpt><trkpt lat="43.3977309116677" lon="13.385059651675562"><ele>139.0</ele><time>2026-04-12T08:24:52.001Z</time></trkpt><trkpt lat="43.39778261495249" lon="13.384934394478433"><ele>139.0</ele><time>2026-04-12T08:24:54.001Z</time></trkpt><trkpt lat="43.397841570995254" lon="13.38487271780259"><ele>139.0</ele><time>2026-04-12T08:24:55.001Z</time></trkpt><trkpt lat="43.39790940961287" lon="13.384786077680362"><ele>139.0</ele><time>2026-04-12T08:24:56.001Z</time></trkpt><trkpt lat="43.39798005658211" lon="13.384675716537137"><ele>139.0</ele><time>2026-04-12T08:24:57.001Z</time></trkpt><trkpt lat="43.39803535893838" lon="13.384569205812593"><ele>137.6</ele><time>2026-04-12T08:24:58.001Z</time></trkpt><trkpt lat="43.3980624480467" lon="13.38447363078174"><ele>136.2</ele><time>2026-04-12T08:24:59.001Z</time></trkpt><trkpt lat="43.398075419593845" lon="13.384361354863417"><ele>134.79999999999998</ele><time>2026-04-12T08:25:00.001Z</time></trkpt><trkpt lat="43.3980752166049" lon="13.38422790154702"><ele>133.4</ele><time>2026-04-12T08:25:01.001Z</time></trkpt><trkpt lat="43.398071434474645" lon="13.384058991518488"><ele>132.0</ele><time>2026-04-12T08:25:02.001Z</time></trkpt><trkpt lat="43.398065298836976" lon="13.383878641519443"><ele>131.4</ele><time>2026-04-12T08:25:03.001Z</time></trkpt><trkpt lat="43.39805872750554" lon="13.383725634970748"><ele>130.79999999999998</ele><time>2026-04-12T08:25:04.001Z</time></trkpt><trkpt lat="43.398051471887584" lon="13.383564432688937"><ele>130.2</ele><time>2026-04-12T08:25:05.001Z</time></trkpt><trkpt lat="43.39804569512879" lon="13.383407940598099"><ele>129.6</ele><time>2026-04-12T08:25:06.001Z</time></trkpt><trkpt lat="43.39805421310784" lon="13.383270026430008"><ele>129.0</ele><time>2026-04-12T08:25:07.001Z</time></trkpt><trkpt lat="43.398054971915094" lon="13.383130654369138"><ele>129.0</ele><time>2026-04-12T08:25:08.001Z</time></trkpt><trkpt lat="43.39804353958713" lon="13.382995091549983"><ele>129.0</ele><time>2026-04-12T08:25:09.001Z</time></trkpt><trkpt lat="43.398035574774426" lon="13.382890917734901"><ele>129.0</ele><time>2026-04-12T08:25:10.001Z</time></trkpt><trkpt lat="43.398038756423325" lon="13.38280238141613"><ele>129.0</ele><time>2026-04-12T08:25:11.001Z</time></trkpt><trkpt lat="43.39807073150636" lon="13.382725991947753"><ele>129.0</ele><time>2026-04-12T08:25:12.001Z</time></trkpt><trkpt lat="43.39812297782433" lon="13.382648284794643"><ele>129.0</ele><time>2026-04-12T08:25:13.001Z</time></trkpt><trkpt lat="43.39819803062558" lon="13.382518670565837"><ele>129.0</ele><time>2026-04-12T08:25:14.001Z</time></trkpt><trkpt lat="43.39827881615892" lon="13.382381751591048"><ele>129.0</ele><time>2026-04-12T08:25:15.001Z</time></trkpt><trkpt lat="43.39834460099082" lon="13.38226077067484"><ele>129.0</ele><time>2026-04-12T08:25:16.001Z</time></trkpt><trkpt lat="43.39839993962259" lon="13.38216143140679"><ele>129.0</ele><time>2026-04-12T08:25:17.001Z</time></trkpt><trkpt lat="43.39845589320262" lon="13.382079642928705"><ele>129.0</ele><time>2026-04-12T08:25:18.001Z</time></trkpt><trkpt lat="43.39851872087576" lon="13.38199845086974"><ele>129.0</ele><time>2026-04-12T08:25:19.001Z</time></trkpt><trkpt lat="43.3985968595479" lon="13.381910312632936"><ele>129.0</ele><time>2026-04-12T08:25:20.001Z</time></trkpt><trkpt lat="43.398685806925975" lon="13.381814946997945"><ele>129.0</ele><time>2026-04-12T08:25:21.001Z</time></trkpt><trkpt lat="43.39878723490075" lon="13.381717679763895"><ele>129.0</ele><time>2026-04-12T08:25:22.001Z</time></trkpt><trkpt lat="43.39887885801603" lon="13.381638586220943"><ele>129.0</ele><time>2026-04-12T08:25:23.001Z</time></trkpt><trkpt lat="43.398959023052214" lon="13.381571176327665"><ele>129.0</ele><time>2026-04-12T08:25:24.001Z</time></trkpt><trkpt lat="43.399039588739214" lon="13.381513714690474"><ele>129.0</ele><time>2026-04-12T08:25:25.001Z</time></trkpt><trkpt lat="43.39911676569645" lon="13.381474325381975"><ele>129.0</ele><time>2026-04-12T08:25:26.001Z</time></trkpt><trkpt lat="43.39919722279034" lon="13.381440357016434"><ele>129.0</ele><time>2026-04-12T08:25:27.001Z</time></trkpt><trkpt lat="43.39928593081714" lon="13.381410582682909"><ele>129.0</ele><time>2026-04-12T08:25:28.001Z</time></trkpt><trkpt lat="43.399385332862806" lon="13.381357935043908"><ele>130.0</ele><time>2026-04-12T08:25:29.001Z</time></trkpt><trkpt lat="43.39947905481532" lon="13.381319287415142"><ele>131.0</ele><time>2026-04-12T08:25:30.001Z</time></trkpt><trkpt lat="43.39957283537339" lon="13.381291049047967"><ele>132.0</ele><time>2026-04-12T08:25:31.001Z</time></trkpt><trkpt lat="43.39966680387575" lon="13.381265751926978"><ele>133.0</ele><time>2026-04-12T08:25:32.001Z</time></trkpt><trkpt lat="43.39974890163158" lon="13.381236757891829"><ele>134.0</ele><time>2026-04-12T08:25:33Z</time></trkpt><trkpt lat="43.39982364430602" lon="13.381205626155342"><ele>134.0</ele><time>2026-04-12T08:25:34Z</time></trkpt><trkpt lat="43.399887021744256" lon="13.381196085182726"><ele>134.0</ele><time>2026-04-12T08:25:35Z</time></trkpt><trkpt lat="43.39997139292995" lon="13.381139771811096"><ele>134.0</ele><time>2026-04-12T08:25:37Z</time></trkpt><trkpt lat="43.400055444352994" lon="13.381086240520288"><ele>134.0</ele><time>2026-04-12T08:25:39Z</time></trkpt><trkpt lat="43.40013761491714" lon="13.381018574678473"><ele>134.0</ele><time>2026-04-12T08:25:41Z</time></trkpt><trkpt lat="43.400198638220424" lon="13.380848655353166"><ele>134.0</ele><time>2026-04-12T08:25:43Z</time></trkpt><trkpt lat="43.400231259542394" lon="13.380734571654841"><ele>134.0</ele><time>2026-04-12T08:25:44Z</time></trkpt><trkpt lat="43.40026422826004" lon="13.380623415660201"><ele>134.0</ele><time>2026-04-12T08:25:45Z</time></trkpt><trkpt lat="43.40032309987383" lon="13.380523015009791"><ele>134.0</ele><time>2026-04-12T08:25:46Z</time></trkpt><trkpt lat="43.40038981767086" lon="13.380345626701251"><ele>134.0</ele><time>2026-04-12T08:25:47Z</time></trkpt><trkpt lat="43.40043605987196" lon="13.380209151764193"><ele>133.4</ele><time>2026-04-12T08:25:48Z</time></trkpt><trkpt lat="43.400491013392035" lon="13.380096577850571"><ele>132.8</ele><time>2026-04-12T08:25:49Z</time></trkpt><trkpt lat="43.40051366598684" lon="13.379981420325613"><ele>132.2</ele><time>2026-04-12T08:25:50Z</time></trkpt><trkpt lat="43.40051962436435" lon="13.379877893169674"><ele>131.6</ele><time>2026-04-12T08:25:51Z</time></trkpt><trkpt lat="43.40050442110444" lon="13.379752892019107"><ele>131.0</ele><time>2026-04-12T08:25:52Z</time></trkpt><trkpt lat="43.40046741209935" lon="13.379609336431592"><ele>135.75</ele><time>2026-04-12T08:25:53Z</time></trkpt><trkpt lat="43.40042323874408" lon="13.379444020006648"><ele>140.5</ele><time>2026-04-12T08:25:54Z</time></trkpt><trkpt lat="43.40036365651965" lon="13.379272931776566"><ele>145.25</ele><time>2026-04-12T08:25:55Z</time></trkpt><trkpt lat="43.40030719332365" lon="13.379084230482041"><ele>150.0</ele><time>2026-04-12T08:25:56Z</time></trkpt><trkpt lat="43.40028559082353" lon="13.37893975361062"><ele>151.8</ele><time>2026-04-12T08:25:57Z</time></trkpt><trkpt lat="43.40027700101472" lon="13.378838034518374"><ele>153.6</ele><time>2026-04-12T08:25:58Z</time></trkpt><trkpt lat="43.400307070939874" lon="13.378734837487805"><ele>155.4</ele><time>2026-04-12T08:26:00Z</time></trkpt><trkpt lat="43.400376324162664" lon="13.37860224590074"><ele>157.2</ele><time>2026-04-12T08:26:02Z</time></trkpt><trkpt lat="43.40039566219734" lon="13.378504026918488"><ele>159.0</ele><time>2026-04-12T08:26:04Z</time></trkpt><trkpt lat="43.40029810193417" lon="13.378386121310074"><ele>159.0</ele><time>2026-04-12T08:26:06Z</time></trkpt><trkpt lat="43.400233902760945" lon="13.378447221485334"><ele>159.0</ele><time>2026-04-12T08:26:07Z</time></trkpt><trkpt lat="43.40017024621888" lon="13.37849273790356"><ele>159.0</ele><time>2026-04-12T08:26:08Z</time></trkpt><trkpt lat="43.40009338500585" lon="13.378521028704995"><ele>159.0</ele><time>2026-04-12T08:26:09Z</time></trkpt><trkpt lat="43.39999978260949" lon="13.37857093167216"><ele>159.0</ele><time>2026-04-12T08:26:10Z</time></trkpt><trkpt lat="43.39991546062694" lon="13.378609444106567"><ele>159.0</ele><time>2026-04-12T08:26:11Z</time></trkpt><trkpt lat="43.399823774226746" lon="13.378633847874811"><ele>159.0</ele><time>2026-04-12T08:26:13Z</time></trkpt><trkpt lat="43.39993862362522" lon="13.378564804033218"><ele>159.0</ele><time>2026-04-12T08:26:45Z</time></trkpt><trkpt lat="43.4000825244405" lon="13.37842773986556"><ele>159.0</ele><time>2026-04-12T08:26:46Z</time></trkpt><trkpt lat="43.400177143894325" lon="13.378353955237658"><ele>159.0</ele><time>2026-04-12T08:26:47Z</time></trkpt><trkpt lat="43.4002574190191" lon="13.37828187154867"><ele>159.0</ele><time>2026-04-12T08:26:48Z</time></trkpt><trkpt lat="43.40033397152869" lon="13.378213010478145"><ele>159.0</ele><time>2026-04-12T08:26:49Z</time></trkpt><trkpt lat="43.400411248879855" lon="13.378150093120794"><ele>159.0</ele><time>2026-04-12T08:26:50.001Z</time></trkpt><trkpt lat="43.40047892961203" lon="13.378098978141226"><ele>159.0</ele><time>2026-04-12T08:26:51.001Z</time></trkpt><trkpt lat="43.40054544636352" lon="13.37805308313881"><ele>159.0</ele><time>2026-04-12T08:26:52.001Z</time></trkpt><trkpt lat="43.40061105599843" lon="13.37801558717502"><ele>159.0</ele><time>2026-04-12T08:26:53.001Z</time></trkpt><trkpt lat="43.40067790740653" lon="13.377988587780747"><ele>159.42857142857142</ele><time>2026-04-12T08:26:54.001Z</time></trkpt><trkpt lat="43.40074854384399" lon="13.37796726313384"><ele>159.85714285714286</ele><time>2026-04-12T08:26:55.001Z</time></trkpt><trkpt lat="43.40082256828906" lon="13.377959636856062"><ele>160.28571428571428</ele><time>2026-04-12T08:26:56.001Z</time></trkpt><trkpt lat="43.40089645745042" lon="13.377968588072632"><ele>160.71428571428572</ele><time>2026-04-12T08:26:57.001Z</time></trkpt><trkpt lat="43.40096683545853" lon="13.377986898027356"><ele>161.14285714285714</ele><time>2026-04-12T08:26:58.001Z</time></trkpt><trkpt lat="43.4010379344512" lon="13.378006621650691"><ele>161.57142857142858</ele><time>2026-04-12T08:26:59.001Z</time></trkpt><trkpt lat="43.401110205628314" lon="13.378030381546127"><ele>162.0</ele><time>2026-04-12T08:27:00.001Z</time></trkpt><trkpt lat="43.401178257585755" lon="13.3780548654469"><ele>161.2</ele><time>2026-04-12T08:27:01.001Z</time></trkpt><trkpt lat="43.40124089242317" lon="13.378068472544173"><ele>160.39999999999998</ele><time>2026-04-12T08:27:02.001Z</time></trkpt><trkpt lat="43.401353869170244" lon="13.378070714163206"><ele>159.60000000000002</ele><time>2026-04-12T08:27:04.001Z</time></trkpt><trkpt lat="43.401479928832686" lon="13.378058393919188"><ele>158.8</ele><time>2026-04-12T08:27:06.001Z</time></trkpt><trkpt lat="43.40156851699083" lon="13.37804174770801"><ele>158.0</ele><time>2026-04-12T08:27:07.001Z</time></trkpt><trkpt lat="43.40167025656248" lon="13.378016597184093"><ele>158.0</ele><time>2026-04-12T08:27:08.001Z</time></trkpt><trkpt lat="43.401781570313524" lon="13.377987613769479"><ele>158.0</ele><time>2026-04-12T08:27:09.001Z</time></trkpt><trkpt lat="43.401901919968275" lon="13.37794910687489"><ele>158.0</ele><time>2026-04-12T08:27:10.001Z</time></trkpt><trkpt lat="43.40203315334676" lon="13.3779098586617"><ele>158.0</ele><time>2026-04-12T08:27:11.001Z</time></trkpt><trkpt lat="43.40215917146752" lon="13.37787653272553"><ele>155.5</ele><time>2026-04-12T08:27:12.001Z</time></trkpt><trkpt lat="43.40229646553999" lon="13.377837379667133"><ele>153.0</ele><time>2026-04-12T08:27:13.001Z</time></trkpt><trkpt lat="43.40242531617039" lon="13.377801781340679"><ele>150.5</ele><time>2026-04-12T08:27:14.001Z</time></trkpt><trkpt lat="43.40254671427782" lon="13.377760339061453"><ele>148.0</ele><time>2026-04-12T08:27:15.001Z</time></trkpt><trkpt lat="43.40268201824449" lon="13.37772091441621"><ele>148.0</ele><time>2026-04-12T08:27:16.001Z</time></trkpt><trkpt lat="43.40282343204511" lon="13.377685378123553"><ele>148.0</ele><time>2026-04-12T08:27:17.001Z</time></trkpt><trkpt lat="43.40296931671728" lon="13.377647562150155"><ele>148.0</ele><time>2026-04-12T08:27:18.001Z</time></trkpt><trkpt lat="43.403116725359645" lon="13.377610874422993"><ele>148.0</ele><time>2026-04-12T08:27:19.001Z</time></trkpt><trkpt lat="43.40326736445977" lon="13.377576356708026"><ele>145.33333333333334</ele><time>2026-04-12T08:27:20.001Z</time></trkpt><trkpt lat="43.40342265151052" lon="13.377546645887936"><ele>142.66666666666666</ele><time>2026-04-12T08:27:21.001Z</time></trkpt><trkpt lat="43.40357483996035" lon="13.377521424088865"><ele>140.0</ele><time>2026-04-12T08:27:22.001Z</time></trkpt><trkpt lat="43.40371879078658" lon="13.377499729300848"><ele>139.75</ele><time>2026-04-12T08:27:23.001Z</time></trkpt><trkpt lat="43.403870418175835" lon="13.377476096067351"><ele>139.5</ele><time>2026-04-12T08:27:24.001Z</time></trkpt><trkpt lat="43.40402181496112" lon="13.377459724322527"><ele>139.25</ele><time>2026-04-12T08:27:25.001Z</time></trkpt><trkpt lat="43.40415488802456" lon="13.377438284896861"><ele>139.0</ele><time>2026-04-12T08:27:26.001Z</time></trkpt><trkpt lat="43.4043024355258" lon="13.377423725123947"><ele>139.0</ele><time>2026-04-12T08:27:27.001Z</time></trkpt><trkpt lat="43.40443295385523" lon="13.377393524598205"><ele>139.0</ele><time>2026-04-12T08:27:28.001Z</time></trkpt><trkpt lat="43.4045635736792" lon="13.377373232540096"><ele>139.0</ele><time>2026-04-12T08:27:29.001Z</time></trkpt><trkpt lat="43.40469920910382" lon="13.377341132677055"><ele>139.0</ele><time>2026-04-12T08:27:30.001Z</time></trkpt><trkpt lat="43.404828494906525" lon="13.377300258059147"><ele>138.5</ele><time>2026-04-12T08:27:31.001Z</time></trkpt><trkpt lat="43.40496790984098" lon="13.377263418805002"><ele>138.0</ele><time>2026-04-12T08:27:32.001Z</time></trkpt><trkpt lat="43.40511048134629" lon="13.377220343466693"><ele>137.5</ele><time>2026-04-12T08:27:33.001Z</time></trkpt><trkpt lat="43.40525068936921" lon="13.377166692610103"><ele>137.0</ele><time>2026-04-12T08:27:34.001Z</time></trkpt><trkpt lat="43.40538607960563" lon="13.377114511609465"><ele>137.25</ele><time>2026-04-12T08:27:35.001Z</time></trkpt><trkpt lat="43.40552852319736" lon="13.377047995900712"><ele>137.5</ele><time>2026-04-12T08:27:36.001Z</time></trkpt><trkpt lat="43.40566678003018" lon="13.376962361566989"><ele>137.75</ele><time>2026-04-12T08:27:37.001Z</time></trkpt><trkpt lat="43.405789214974995" lon="13.376875595759943"><ele>138.0</ele><time>2026-04-12T08:27:38.001Z</time></trkpt><trkpt lat="43.405904128482725" lon="13.376791303321893"><ele>138.0</ele><time>2026-04-12T08:27:39Z</time></trkpt><trkpt lat="43.40601725922529" lon="13.376705902965341"><ele>138.0</ele><time>2026-04-12T08:27:40Z</time></trkpt><trkpt lat="43.40612802350355" lon="13.37662263339218"><ele>138.0</ele><time>2026-04-12T08:27:41Z</time></trkpt><trkpt lat="43.40623448230172" lon="13.37653638960994"><ele>138.0</ele><time>2026-04-12T08:27:42Z</time></trkpt><trkpt lat="43.40634319726692" lon="13.376450950527383"><ele>135.75</ele><time>2026-04-12T08:27:43Z</time></trkpt><trkpt lat="43.406456049612714" lon="13.376361693658254"><ele>133.5</ele><time>2026-04-12T08:27:44Z</time></trkpt><trkpt lat="43.40657608544587" lon="13.376263683369235"><ele>131.25</ele><time>2026-04-12T08:27:45Z</time></trkpt><trkpt lat="43.40670341861357" lon="13.376166285375314"><ele>129.0</ele><time>2026-04-12T08:27:46Z</time></trkpt><trkpt lat="43.40682146741551" lon="13.37607344356173"><ele>129.0</ele><time>2026-04-12T08:27:47Z</time></trkpt><trkpt lat="43.40693827323123" lon="13.375982429927818"><ele>129.0</ele><time>2026-04-12T08:27:48Z</time></trkpt><trkpt lat="43.40705376631455" lon="13.375898324582773"><ele>129.0</ele><time>2026-04-12T08:27:49Z</time></trkpt><trkpt lat="43.40717014307843" lon="13.375810701835926"><ele>129.0</ele><time>2026-04-12T08:27:50Z</time></trkpt><trkpt lat="43.40728285163127" lon="13.375723228547386"><ele>126.80000000000001</ele><time>2026-04-12T08:27:51Z</time></trkpt><trkpt lat="43.40739375325551" lon="13.375633398478406"><ele>124.60000000000001</ele><time>2026-04-12T08:27:52Z</time></trkpt><trkpt lat="43.40749384731984" lon="13.37555021561677"><ele>122.4</ele><time>2026-04-12T08:27:53Z</time></trkpt><trkpt lat="43.40757297687016" lon="13.375478866193477"><ele>120.2</ele><time>2026-04-12T08:27:54Z</time></trkpt><trkpt lat="43.40764654021597" lon="13.375429646930765"><ele>118.0</ele><time>2026-04-12T08:27:55Z</time></trkpt><trkpt lat="43.407708171909846" lon="13.375338383803173"><ele>118.0</ele><time>2026-04-12T08:27:56Z</time></trkpt><trkpt lat="43.40777337322846" lon="13.37522398082094"><ele>118.0</ele><time>2026-04-12T08:27:57Z</time></trkpt><trkpt lat="43.4078428121093" lon="13.375084539616207"><ele>118.0</ele><time>2026-04-12T08:27:58Z</time></trkpt><trkpt lat="43.40791009605777" lon="13.374940056425821"><ele>118.0</ele><time>2026-04-12T08:27:59Z</time></trkpt><trkpt lat="43.40797248949725" lon="13.37476709803335"><ele>113.66666666666667</ele><time>2026-04-12T08:28:00Z</time></trkpt><trkpt lat="43.40805810313114" lon="13.374593664306689"><ele>109.33333333333334</ele><time>2026-04-12T08:28:01Z</time></trkpt><trkpt lat="43.40814407810305" lon="13.374415127752862"><ele>105.0</ele><time>2026-04-12T08:28:02Z</time></trkpt><trkpt lat="43.40822892709286" lon="13.374236533635116"><ele>105.0</ele><time>2026-04-12T08:28:03Z</time></trkpt><trkpt lat="43.408303775941214" lon="13.374067666498036"><ele>105.0</ele><time>2026-04-12T08:28:04Z</time></trkpt><trkpt lat="43.40838859559159" lon="13.373895632104649"><ele>105.0</ele><time>2026-04-12T08:28:05Z</time></trkpt><trkpt lat="43.40845817291545" lon="13.373727772958018"><ele>105.0</ele><time>2026-04-12T08:28:06Z</time></trkpt><trkpt lat="43.408528791423116" lon="13.373552976450338"><ele>105.0</ele><time>2026-04-12T08:28:07Z</time></trkpt><trkpt lat="43.40860367252617" lon="13.373379925366887"><ele>105.0</ele><time>2026-04-12T08:28:08Z</time></trkpt><trkpt lat="43.40867047311453" lon="13.3732074292214"><ele>105.0</ele><time>2026-04-12T08:28:09Z</time></trkpt><trkpt lat="43.40873093324171" lon="13.373029250179973"><ele>105.0</ele><time>2026-04-12T08:28:10Z</time></trkpt><trkpt lat="43.40878949215313" lon="13.372840040035381"><ele>101.75</ele><time>2026-04-12T08:28:11Z</time></trkpt><trkpt lat="43.40883565621268" lon="13.372642964103148"><ele>98.5</ele><time>2026-04-12T08:28:12Z</time></trkpt><trkpt lat="43.40886508093445" lon="13.372435058022543"><ele>95.25</ele><time>2026-04-12T08:28:13Z</time></trkpt><trkpt lat="43.40889834219071" lon="13.3722413179269"><ele>92.0</ele><time>2026-04-12T08:28:14Z</time></trkpt><trkpt lat="43.40892497964714" lon="13.372055351854762"><ele>91.25</ele><time>2026-04-12T08:28:15Z</time></trkpt><trkpt lat="43.408960926165015" lon="13.371873996832898"><ele>90.5</ele><time>2026-04-12T08:28:16Z</time></trkpt><trkpt lat="43.40899752105247" lon="13.371684804192837"><ele>89.75</ele><time>2026-04-12T08:28:17Z</time></trkpt><trkpt lat="43.40903364764565" lon="13.37148580948505"><ele>89.0</ele><time>2026-04-12T08:28:18Z</time></trkpt><trkpt lat="43.409069860879036" lon="13.371276128516817"><ele>89.0</ele><time>2026-04-12T08:28:19Z</time></trkpt><trkpt lat="43.4091020002769" lon="13.37106006213404"><ele>89.0</ele><time>2026-04-12T08:28:20Z</time></trkpt><trkpt lat="43.40913391143984" lon="13.370847144653029"><ele>89.0</ele><time>2026-04-12T08:28:21Z</time></trkpt><trkpt lat="43.409163660805824" lon="13.370632432976558"><ele>89.0</ele><time>2026-04-12T08:28:22Z</time></trkpt><trkpt lat="43.40919537080266" lon="13.370424374987337"><ele>89.0</ele><time>2026-04-12T08:28:23Z</time></trkpt><trkpt lat="43.40922742303818" lon="13.370221886826345"><ele>89.0</ele><time>2026-04-12T08:28:24Z</time></trkpt><trkpt lat="43.40925196768035" lon="13.370045785963923"><ele>89.0</ele><time>2026-04-12T08:28:25Z</time></trkpt><trkpt lat="43.40926898921321" lon="13.369876435731838"><ele>89.0</ele><time>2026-04-12T08:28:26Z</time></trkpt><trkpt lat="43.409264031911874" lon="13.369718772277999"><ele>89.0</ele><time>2026-04-12T08:28:27Z</time></trkpt><trkpt lat="43.409220866485434" lon="13.369555691603297"><ele>89.0</ele><time>2026-04-12T08:28:28Z</time></trkpt><trkpt lat="43.409154004078474" lon="13.369406417225315"><ele>89.0</ele><time>2026-04-12T08:28:29Z</time></trkpt><trkpt lat="43.40908245649086" lon="13.369249080420671"><ele>89.0</ele><time>2026-04-12T08:28:30Z</time></trkpt><trkpt lat="43.40901293295511" lon="13.369090372933362"><ele>89.0</ele><time>2026-04-12T08:28:31Z</time></trkpt><trkpt lat="43.40894501984224" lon="13.36892914150804"><ele>89.0</ele><time>2026-04-12T08:28:32Z</time></trkpt><trkpt lat="43.40887642064684" lon="13.36876237676947"><ele>89.0</ele><time>2026-04-12T08:28:33Z</time></trkpt><trkpt lat="43.40880603998988" lon="13.3685921181613"><ele>89.0</ele><time>2026-04-12T08:28:34Z</time></trkpt><trkpt lat="43.408734946649275" lon="13.368428309300091"><ele>89.0</ele><time>2026-04-12T08:28:35Z</time></trkpt><trkpt lat="43.40866130728862" lon="13.368259716087318"><ele>89.0</ele><time>2026-04-12T08:28:36Z</time></trkpt><trkpt lat="43.408587322900935" lon="13.368085612083936"><ele>89.0</ele><time>2026-04-12T08:28:37Z</time></trkpt><trkpt lat="43.40851734970066" lon="13.367921784242382"><ele>88.0</ele><time>2026-04-12T08:28:38Z</time></trkpt><trkpt lat="43.40845865722875" lon="13.367770185307187"><ele>87.0</ele><time>2026-04-12T08:28:39Z</time></trkpt><trkpt lat="43.40842070548467" lon="13.367627558972256"><ele>86.0</ele><time>2026-04-12T08:28:40Z</time></trkpt><trkpt lat="43.40843122866681" lon="13.367474450340973"><ele>85.0</ele><time>2026-04-12T08:28:41Z</time></trkpt><trkpt lat="43.40845534772751" lon="13.367320557513178"><ele>84.75</ele><time>2026-04-12T08:28:42Z</time></trkpt><trkpt lat="43.408472903912184" lon="13.367154466649732"><ele>84.5</ele><time>2026-04-12T08:28:43Z</time></trkpt><trkpt lat="43.40847995022605" lon="13.366971681488923"><ele>84.25</ele><time>2026-04-12T08:28:44Z</time></trkpt><trkpt lat="43.40850316865926" lon="13.366785764165613"><ele>84.0</ele><time>2026-04-12T08:28:45Z</time></trkpt><trkpt lat="43.408528331261785" lon="13.366590595532843"><ele>84.0</ele><time>2026-04-12T08:28:46Z</time></trkpt><trkpt lat="43.40854794104505" lon="13.36638782953999"><ele>84.0</ele><time>2026-04-12T08:28:47Z</time></trkpt><trkpt lat="43.40856688057382" lon="13.366186611658833"><ele>84.0</ele><time>2026-04-12T08:28:48Z</time></trkpt><trkpt lat="43.40859022733776" lon="13.36599092986411"><ele>84.0</ele><time>2026-04-12T08:28:49Z</time></trkpt><trkpt lat="43.408611484966755" lon="13.36578154925825"><ele>84.0</ele><time>2026-04-12T08:28:50Z</time></trkpt><trkpt lat="43.40863016252797" lon="13.36558507587549"><ele>84.0</ele><time>2026-04-12T08:28:51Z</time></trkpt><trkpt lat="43.40865228266714" lon="13.365409929974662"><ele>84.0</ele><time>2026-04-12T08:28:52Z</time></trkpt><trkpt lat="43.40867220159157" lon="13.365250953512524"><ele>84.0</ele><time>2026-04-12T08:28:53Z</time></trkpt><trkpt lat="43.40870232450146" lon="13.365131822685905"><ele>84.0</ele><time>2026-04-12T08:28:54Z</time></trkpt><trkpt lat="43.40876020428346" lon="13.365036422838012"><ele>84.0</ele><time>2026-04-12T08:28:55Z</time></trkpt><trkpt lat="43.40883799036925" lon="13.364961100080388"><ele>84.0</ele><time>2026-04-12T08:28:56Z</time></trkpt><trkpt lat="43.40893933937725" lon="13.364909809486504"><ele>84.0</ele><time>2026-04-12T08:28:57Z</time></trkpt><trkpt lat="43.409052590843636" lon="13.364851075132256"><ele>84.0</ele><time>2026-04-12T08:28:58Z</time></trkpt><trkpt lat="43.409174688990625" lon="13.364790642293418"><ele>84.25</ele><time>2026-04-12T08:28:59Z</time></trkpt><trkpt lat="43.409301359028596" lon="13.364728416389838"><ele>84.5</ele><time>2026-04-12T08:29:00Z</time></trkpt><trkpt lat="43.40943517155653" lon="13.364663536545592"><ele>84.75</ele><time>2026-04-12T08:29:01Z</time></trkpt><trkpt lat="43.40956564025693" lon="13.364592259586276"><ele>85.0</ele><time>2026-04-12T08:29:02Z</time></trkpt><trkpt lat="43.40970123670091" lon="13.364520375819811"><ele>86.5</ele><time>2026-04-12T08:29:03Z</time></trkpt><trkpt lat="43.40983561489631" lon="13.364449166174778"><ele>88.0</ele><time>2026-04-12T08:29:04Z</time></trkpt><trkpt lat="43.40995921975085" lon="13.364380276532597"><ele>89.5</ele><time>2026-04-12T08:29:05Z</time></trkpt><trkpt lat="43.41007748082799" lon="13.364321490933529"><ele>91.0</ele><time>2026-04-12T08:29:06Z</time></trkpt><trkpt lat="43.4101783042281" lon="13.36426563632221"><ele>91.0</ele><time>2026-04-12T08:29:07Z</time></trkpt><trkpt lat="43.410272002716546" lon="13.364219048755851"><ele>91.0</ele><time>2026-04-12T08:29:08Z</time></trkpt><trkpt lat="43.410365171524234" lon="13.364186939571082"><ele>91.0</ele><time>2026-04-12T08:29:09Z</time></trkpt><trkpt lat="43.410454635152504" lon="13.364170869906685"><ele>91.0</ele><time>2026-04-12T08:29:10Z</time></trkpt><trkpt lat="43.41053472298951" lon="13.36417310948782"><ele>91.0</ele><time>2026-04-12T08:29:11Z</time></trkpt><trkpt lat="43.41059777794407" lon="13.36415374412298"><ele>91.0</ele><time>2026-04-12T08:29:12Z</time></trkpt><trkpt lat="43.41064256371866" lon="13.364011390135696"><ele>90.8</ele><time>2026-04-12T08:29:14Z</time></trkpt><trkpt lat="43.41064487629464" lon="13.363916551815766"><ele>90.6</ele><time>2026-04-12T08:29:15Z</time></trkpt><trkpt lat="43.41056766119446" lon="13.3638360534425"><ele>90.4</ele><time>2026-04-12T08:29:16Z</time></trkpt><trkpt lat="43.41049209050103" lon="13.36377363458152"><ele>90.2</ele><time>2026-04-12T08:29:17Z</time></trkpt><trkpt lat="43.41039642464826" lon="13.363707875926835"><ele>90.0</ele><time>2026-04-12T08:29:18Z</time></trkpt><trkpt lat="43.41030704228121" lon="13.36360541010491"><ele>90.0</ele><time>2026-04-12T08:29:19Z</time></trkpt><trkpt lat="43.410252477842775" lon="13.363436870788405"><ele>90.0</ele><time>2026-04-12T08:29:20Z</time></trkpt><trkpt lat="43.410174231912" lon="13.36327971878533"><ele>90.0</ele><time>2026-04-12T08:29:21Z</time></trkpt><trkpt lat="43.41009081054461" lon="13.363106415728508"><ele>90.0</ele><time>2026-04-12T08:29:22Z</time></trkpt><trkpt lat="43.41000784365468" lon="13.3629343722073"><ele>90.5</ele><time>2026-04-12T08:29:23Z</time></trkpt><trkpt lat="43.40991095701428" lon="13.362776973710126"><ele>91.0</ele><time>2026-04-12T08:29:24Z</time></trkpt><trkpt lat="43.409828583841474" lon="13.362609510324827"><ele>91.5</ele><time>2026-04-12T08:29:25Z</time></trkpt><trkpt lat="43.40975742321342" lon="13.362423534347183"><ele>92.0</ele><time>2026-04-12T08:29:26.001Z</time></trkpt><trkpt lat="43.40967280281513" lon="13.362250915381047"><ele>92.33333333333334</ele><time>2026-04-12T08:29:27.001Z</time></trkpt><trkpt lat="43.40958555429517" lon="13.36207288089418"><ele>92.66666666666667</ele><time>2026-04-12T08:29:28.001Z</time></trkpt><trkpt lat="43.40949854897994" lon="13.36189533389764"><ele>93.0</ele><time>2026-04-12T08:29:29.001Z</time></trkpt><trkpt lat="43.409411659484284" lon="13.361719216645875"><ele>93.0</ele><time>2026-04-12T08:29:30.001Z</time></trkpt><trkpt lat="43.40930935908635" lon="13.361552569058228"><ele>93.0</ele><time>2026-04-12T08:29:31.001Z</time></trkpt><trkpt lat="43.40922705389058" lon="13.361370744259323"><ele>93.0</ele><time>2026-04-12T08:29:32.001Z</time></trkpt><trkpt lat="43.40913628476659" lon="13.361178772113865"><ele>93.33333333333333</ele><time>2026-04-12T08:29:33.001Z</time></trkpt><trkpt lat="43.409042129815475" lon="13.360989601082567"><ele>93.66666666666666</ele><time>2026-04-12T08:29:34.001Z</time></trkpt><trkpt lat="43.40894789615264" lon="13.360800586512509"><ele>94.0</ele><time>2026-04-12T08:29:35.001Z</time></trkpt><trkpt lat="43.40885489890205" lon="13.360613125215085"><ele>93.66666666666666</ele><time>2026-04-12T08:29:36.001Z</time></trkpt><trkpt lat="43.408757574217745" lon="13.36041565014423"><ele>93.33333333333333</ele><time>2026-04-12T08:29:37.001Z</time></trkpt><trkpt lat="43.40866694499168" lon="13.360224011528556"><ele>93.0</ele><time>2026-04-12T08:29:38.001Z</time></trkpt><trkpt lat="43.40857257875865" lon="13.360031208774146"><ele>93.0</ele><time>2026-04-12T08:29:39.001Z</time></trkpt><trkpt lat="43.40847407063575" lon="13.359826521260233"><ele>93.0</ele><time>2026-04-12T08:29:40.001Z</time></trkpt><trkpt lat="43.40837425103888" lon="13.359625893423306"><ele>93.0</ele><time>2026-04-12T08:29:41.001Z</time></trkpt><trkpt lat="43.40827288382831" lon="13.359416040886664"><ele>93.0</ele><time>2026-04-12T08:29:42.001Z</time></trkpt><trkpt lat="43.40818117432177" lon="13.359210718300384"><ele>93.0</ele><time>2026-04-12T08:29:43.001Z</time></trkpt><trkpt lat="43.408086683065534" lon="13.359004814101352"><ele>93.0</ele><time>2026-04-12T08:29:44.001Z</time></trkpt><trkpt lat="43.40799217192823" lon="13.35880186532638"><ele>93.0</ele><time>2026-04-12T08:29:45Z</time></trkpt><trkpt lat="43.407915310379416" lon="13.358584478517843"><ele>93.0</ele><time>2026-04-12T08:29:46Z</time></trkpt><trkpt lat="43.40781362871951" lon="13.35839236046307"><ele>93.0</ele><time>2026-04-12T08:29:47Z</time></trkpt><trkpt lat="43.407726011343726" lon="13.358177767426644"><ele>93.66666666666667</ele><time>2026-04-12T08:29:48Z</time></trkpt><trkpt lat="43.407632516425586" lon="13.357960871369121"><ele>94.33333333333334</ele><time>2026-04-12T08:29:49Z</time></trkpt><trkpt lat="43.40753774877521" lon="13.35775526847868"><ele>95.0</ele><time>2026-04-12T08:29:50Z</time></trkpt><trkpt lat="43.40743317937839" lon="13.357549056504023"><ele>95.0</ele><time>2026-04-12T08:29:51Z</time></trkpt><trkpt lat="43.40732602511393" lon="13.357352987765337"><ele>95.0</ele><time>2026-04-12T08:29:52Z</time></trkpt><trkpt lat="43.407216100977344" lon="13.357181952975745"><ele>95.0</ele><time>2026-04-12T08:29:53Z</time></trkpt><trkpt lat="43.40709232082708" lon="13.356990365712077"><ele>95.0</ele><time>2026-04-12T08:29:54Z</time></trkpt><trkpt lat="43.40699004305989" lon="13.356808236828472"><ele>95.0</ele><time>2026-04-12T08:29:55Z</time></trkpt><trkpt lat="43.40689427744643" lon="13.356614348362468"><ele>95.0</ele><time>2026-04-12T08:29:56Z</time></trkpt><trkpt lat="43.40682804111407" lon="13.356402130004732"><ele>96.0</ele><time>2026-04-12T08:29:57Z</time></trkpt><trkpt lat="43.40675288751067" lon="13.356193462461455"><ele>97.0</ele><time>2026-04-12T08:29:58Z</time></trkpt><trkpt lat="43.406674821774736" lon="13.355978026039935"><ele>98.0</ele><time>2026-04-12T08:29:59Z</time></trkpt><trkpt lat="43.40658579083078" lon="13.355779540399908"><ele>98.0</ele><time>2026-04-12T08:30:00Z</time></trkpt><trkpt lat="43.40651461176902" lon="13.355582009134661"><ele>98.0</ele><time>2026-04-12T08:30:01Z</time></trkpt><trkpt lat="43.4064477352143" lon="13.355410503239588"><ele>98.0</ele><time>2026-04-12T08:30:02Z</time></trkpt><trkpt lat="43.40639022126463" lon="13.355250352156464"><ele>98.0</ele><time>2026-04-12T08:30:03Z</time></trkpt><trkpt lat="43.40634924196081" lon="13.355122765638797"><ele>98.0</ele><time>2026-04-12T08:30:04Z</time></trkpt><trkpt lat="43.40631234850557" lon="13.355019576065764"><ele>98.0</ele><time>2026-04-12T08:30:05Z</time></trkpt><trkpt lat="43.40625648803969" lon="13.354880451556228"><ele>98.0</ele><time>2026-04-12T08:30:07Z</time></trkpt><trkpt lat="43.40623299238333" lon="13.354789399167032"><ele>98.0</ele><time>2026-04-12T08:30:09Z</time></trkpt><trkpt lat="43.40612102914707" lon="13.354800729937969"><ele>98.0</ele><time>2026-04-12T08:30:13Z</time></trkpt><trkpt lat="43.40604958182821" lon="13.35485200304173"><ele>97.99999999999999</ele><time>2026-04-12T08:30:15Z</time></trkpt><trkpt lat="43.40597883826412" lon="13.354927325837105"><ele>98.0</ele><time>2026-04-12T08:30:17Z</time></trkpt><trkpt lat="43.405888166510664" lon="13.354978809715107"><ele>98.0</ele><time>2026-04-12T08:30:19Z</time></trkpt><trkpt lat="43.40583186609589" lon="13.355028763846944"><ele>98.0</ele><time>2026-04-12T08:30:20Z</time></trkpt><trkpt lat="43.40577077543008" lon="13.35511001139492"><ele>97.99999999999999</ele><time>2026-04-12T08:30:21Z</time></trkpt><trkpt lat="43.40569410415732" lon="13.35517537181466"><ele>98.0</ele><time>2026-04-12T08:30:22Z</time></trkpt><trkpt lat="43.40560987107622" lon="13.35524323006314"><ele>98.0</ele><time>2026-04-12T08:30:23Z</time></trkpt><trkpt lat="43.405527045203705" lon="13.35532341204824"><ele>98.0</ele><time>2026-04-12T08:30:24Z</time></trkpt><trkpt lat="43.40544725446246" lon="13.355382818517322"><ele>98.0</ele><time>2026-04-12T08:30:25Z</time></trkpt><trkpt lat="43.40537475740601" lon="13.355450420025633"><ele>98.0</ele><time>2026-04-12T08:30:26Z</time></trkpt><trkpt lat="43.405300654816564" lon="13.355504769995733"><ele>98.0</ele><time>2026-04-12T08:30:27Z</time></trkpt><trkpt lat="43.40521858043532" lon="13.35555548689687"><ele>95.60000000000001</ele><time>2026-04-12T08:30:28Z</time></trkpt><trkpt lat="43.4051318091107" lon="13.355596394824017"><ele>93.2</ele><time>2026-04-12T08:30:29Z</time></trkpt><trkpt lat="43.40503963236087" lon="13.35563209541948"><ele>90.8</ele><time>2026-04-12T08:30:30Z</time></trkpt><trkpt lat="43.40495147869226" lon="13.355655141501847"><ele>88.4</ele><time>2026-04-12T08:30:31Z</time></trkpt><trkpt lat="43.40483892893204" lon="13.35567195512315"><ele>86.0</ele><time>2026-04-12T08:30:32Z</time></trkpt><trkpt lat="43.404710012816096" lon="13.355689190356063"><ele>86.25</ele><time>2026-04-12T08:30:33Z</time></trkpt><trkpt lat="43.40459092256862" lon="13.355687968583338"><ele>86.5</ele><time>2026-04-12T08:30:34Z</time></trkpt><trkpt lat="43.40447953367731" lon="13.3556484731055"><ele>86.75</ele><time>2026-04-12T08:30:35Z</time></trkpt><trkpt lat="43.404356215224745" lon="13.355600155958262"><ele>87.0</ele><time>2026-04-12T08:30:36Z</time></trkpt><trkpt lat="43.40421675540977" lon="13.355532896816673"><ele>87.0</ele><time>2026-04-12T08:30:37Z</time></trkpt><trkpt lat="43.404093955480555" lon="13.35546369068147"><ele>87.0</ele><time>2026-04-12T08:30:38Z</time></trkpt><trkpt lat="43.403981137067454" lon="13.355417961067655"><ele>87.0</ele><time>2026-04-12T08:30:39Z</time></trkpt><trkpt lat="43.4038937879812" lon="13.355325844653699"><ele>87.0</ele><time>2026-04-12T08:30:40Z</time></trkpt><trkpt lat="43.40382017881051" lon="13.355262924385869"><ele>87.0</ele><time>2026-04-12T08:30:41Z</time></trkpt><trkpt lat="43.40376275840312" lon="13.35521591930962"><ele>87.0</ele><time>2026-04-12T08:30:42Z</time></trkpt><trkpt lat="43.40366245958132" lon="13.355183389740763"><ele>87.0</ele><time>2026-04-12T08:30:44Z</time></trkpt><trkpt lat="43.40362194223205" lon="13.35525439010839"><ele>87.0</ele><time>2026-04-12T08:30:45Z</time></trkpt><trkpt lat="43.40355758287526" lon="13.35530957350843"><ele>87.0</ele><time>2026-04-12T08:30:46Z</time></trkpt><trkpt lat="43.40348686020179" lon="13.35534141642067"><ele>87.0</ele><time>2026-04-12T08:30:47Z</time></trkpt><trkpt lat="43.40340856189034" lon="13.355363354308468"><ele>87.0</ele><time>2026-04-12T08:30:49Z</time></trkpt><trkpt lat="43.40334822271854" lon="13.355181910093643"><ele>87.0</ele><time>2026-04-12T08:30:51Z</time></trkpt><trkpt lat="43.4032999537049" lon="13.355070127487714"><ele>87.0</ele><time>2026-04-12T08:30:52Z</time></trkpt><trkpt lat="43.4032453048468" lon="13.354971800659774"><ele>87.0</ele><time>2026-04-12T08:30:53Z</time></trkpt><trkpt lat="43.40320990847665" lon="13.354898221201358"><ele>87.0</ele><time>2026-04-12T08:30:54Z</time></trkpt><trkpt lat="43.40312829607291" lon="13.354856544732423"><ele>87.0</ele><time>2026-04-12T08:30:57Z</time></trkpt><trkpt lat="43.40306254872029" lon="13.354968678811664"><ele>87.0</ele><time>2026-04-12T08:30:59Z</time></trkpt><trkpt lat="43.403089611820995" lon="13.355077935211616"><ele>87.0</ele><time>2026-04-12T08:31:00Z</time></trkpt><trkpt lat="43.40311099135819" lon="13.355188803886614"><ele>87.0</ele><time>2026-04-12T08:31:01Z</time></trkpt><trkpt lat="43.40312911028829" lon="13.35528945673183"><ele>87.0</ele><time>2026-04-12T08:31:02Z</time></trkpt><trkpt lat="43.40312598522726" lon="13.355400545891404"><ele>87.0</ele><time>2026-04-12T08:31:03Z</time></trkpt><trkpt lat="43.40302294434247" lon="13.35546371346348"><ele>87.0</ele><time>2026-04-12T08:31:05Z</time></trkpt><trkpt lat="43.40295914689204" lon="13.355467082882575"><ele>87.0</ele><time>2026-04-12T08:31:06Z</time></trkpt><trkpt lat="43.40287184516506" lon="13.355392338709828"><ele>88.25</ele><time>2026-04-12T08:31:07Z</time></trkpt><trkpt lat="43.40275226679481" lon="13.355367889934353"><ele>89.5</ele><time>2026-04-12T08:31:08Z</time></trkpt><trkpt lat="43.402629466689376" lon="13.355367445446205"><ele>90.75</ele><time>2026-04-12T08:31:09Z</time></trkpt><trkpt lat="43.402487344011334" lon="13.355405715700133"><ele>92.0</ele><time>2026-04-12T08:31:10Z</time></trkpt><trkpt lat="43.40232600136077" lon="13.355429896405031"><ele>92.33333333333334</ele><time>2026-04-12T08:31:11Z</time></trkpt><trkpt lat="43.402154280734365" lon="13.35546994846191"><ele>92.66666666666667</ele><time>2026-04-12T08:31:12Z</time></trkpt><trkpt lat="43.40197614277251" lon="13.355506332833707"><ele>93.0</ele><time>2026-04-12T08:31:13Z</time></trkpt><trkpt lat="43.40179233221861" lon="13.355547292552234"><ele>93.0</ele><time>2026-04-12T08:31:14Z</time></trkpt><trkpt lat="43.401612756168284" lon="13.35558360887749"><ele>93.0</ele><time>2026-04-12T08:31:15Z</time></trkpt><trkpt lat="43.401429912422344" lon="13.355620035275326"><ele>93.0</ele><time>2026-04-12T08:31:16Z</time></trkpt><trkpt lat="43.40128160893639" lon="13.355652101376178"><ele>93.5</ele><time>2026-04-12T08:31:17.001Z</time></trkpt><trkpt lat="43.40114157439385" lon="13.355676959279283"><ele>94.0</ele><time>2026-04-12T08:31:18.001Z</time></trkpt><trkpt lat="43.401026457235226" lon="13.355692173763664"><ele>94.5</ele><time>2026-04-12T08:31:19.001Z</time></trkpt><trkpt lat="43.400924332679395" lon="13.355691882447653"><ele>95.0</ele><time>2026-04-12T08:31:20.001Z</time></trkpt><trkpt lat="43.4008322016521" lon="13.355668325659389"><ele>95.0</ele><time>2026-04-12T08:31:21.001Z</time></trkpt><trkpt lat="43.40074244350834" lon="13.355595082833728"><ele>95.0</ele><time>2026-04-12T08:31:22.001Z</time></trkpt><trkpt lat="43.40062616750237" lon="13.355545260474019"><ele>95.0</ele><time>2026-04-12T08:31:23.001Z</time></trkpt><trkpt lat="43.40052605219839" lon="13.355487811207905"><ele>95.0</ele><time>2026-04-12T08:31:24.001Z</time></trkpt><trkpt lat="43.400432829170505" lon="13.35546460230217"><ele>95.0</ele><time>2026-04-12T08:31:25.001Z</time></trkpt><trkpt lat="43.40032378318728" lon="13.35547517410314"><ele>94.75</ele><time>2026-04-12T08:31:26.001Z</time></trkpt><trkpt lat="43.40020103546387" lon="13.355506088961452"><ele>94.5</ele><time>2026-04-12T08:31:27.001Z</time></trkpt><trkpt lat="43.400060013900216" lon="13.35556256256316"><ele>94.25</ele><time>2026-04-12T08:31:28.001Z</time></trkpt><trkpt lat="43.39990601002811" lon="13.355620572706007"><ele>94.0</ele><time>2026-04-12T08:31:29.001Z</time></trkpt><trkpt lat="43.399767907531434" lon="13.355637553420253"><ele>94.0</ele><time>2026-04-12T08:31:30.001Z</time></trkpt><trkpt lat="43.39965548020586" lon="13.35565846998621"><ele>94.0</ele><time>2026-04-12T08:31:31.001Z</time></trkpt><trkpt lat="43.399576714544125" lon="13.355679054018898"><ele>94.0</ele><time>2026-04-12T08:31:32.001Z</time></trkpt><trkpt lat="43.39947664567682" lon="13.355643029059925"><ele>94.0</ele><time>2026-04-12T08:31:34.001Z</time></trkpt><trkpt lat="43.399393747902224" lon="13.355471664005151"><ele>94.0</ele><time>2026-04-12T08:31:36.001Z</time></trkpt><trkpt lat="43.39932309117667" lon="13.355341785374023"><ele>94.66666666666666</ele><time>2026-04-12T08:31:37.001Z</time></trkpt><trkpt lat="43.39925267664199" lon="13.35517635190551"><ele>95.33333333333333</ele><time>2026-04-12T08:31:38.001Z</time></trkpt><trkpt lat="43.399170055894096" lon="13.354984780706385"><ele>96.0</ele><time>2026-04-12T08:31:39.001Z</time></trkpt><trkpt lat="43.39909860545354" lon="13.354794136926559"><ele>97.0</ele><time>2026-04-12T08:31:40.001Z</time></trkpt><trkpt lat="43.39899661534126" lon="13.354577180597902"><ele>98.0</ele><time>2026-04-12T08:31:41.001Z</time></trkpt><trkpt lat="43.39890034887052" lon="13.354346123279836"><ele>99.0</ele><time>2026-04-12T08:31:42.001Z</time></trkpt><trkpt lat="43.398792610731505" lon="13.354119497620216"><ele>100.33333333333334</ele><time>2026-04-12T08:31:43.001Z</time></trkpt><trkpt lat="43.398670810044905" lon="13.353884366955992"><ele>101.66666666666667</ele><time>2026-04-12T08:31:44.001Z</time></trkpt><trkpt lat="43.39856048472695" lon="13.353660238629057"><ele>103.0</ele><time>2026-04-12T08:31:45.001Z</time></trkpt><trkpt lat="43.39845396720614" lon="13.353426552475277"><ele>104.33333333333334</ele><time>2026-04-12T08:31:46.001Z</time></trkpt><trkpt lat="43.39835601549178" lon="13.353197043557238"><ele>105.66666666666666</ele><time>2026-04-12T08:31:47.001Z</time></trkpt><trkpt lat="43.39825311043673" lon="13.352965580677187"><ele>107.0</ele><time>2026-04-12T08:31:48.001Z</time></trkpt><trkpt lat="43.398157697798645" lon="13.35271177229152"><ele>109.0</ele><time>2026-04-12T08:31:49.001Z</time></trkpt><trkpt lat="43.39803165945778" lon="13.352472261914714"><ele>111.0</ele><time>2026-04-12T08:31:50Z</time></trkpt><trkpt lat="43.39794018817661" lon="13.352259822613195"><ele>113.0</ele><time>2026-04-12T08:31:51Z</time></trkpt><trkpt lat="43.39784933652884" lon="13.352043706131328"><ele>116.0</ele><time>2026-04-12T08:31:52Z</time></trkpt><trkpt lat="43.39775334039813" lon="13.351831431339402"><ele>119.0</ele><time>2026-04-12T08:31:53Z</time></trkpt><trkpt lat="43.39767394642972" lon="13.35164493143122"><ele>122.0</ele><time>2026-04-12T08:31:54Z</time></trkpt><trkpt lat="43.39759069742838" lon="13.351453269922763"><ele>124.66666666666666</ele><time>2026-04-12T08:31:55Z</time></trkpt><trkpt lat="43.397492145432224" lon="13.35122462756105"><ele>127.33333333333334</ele><time>2026-04-12T08:31:56Z</time></trkpt><trkpt lat="43.39740736490638" lon="13.35099217963339"><ele>130.0</ele><time>2026-04-12T08:31:57Z</time></trkpt><trkpt lat="43.39732615147953" lon="13.350803211274163"><ele>130.0</ele><time>2026-04-12T08:31:58Z</time></trkpt><trkpt lat="43.39723350077885" lon="13.350616967689984"><ele>130.0</ele><time>2026-04-12T08:31:59Z</time></trkpt><trkpt lat="43.397141954286255" lon="13.350396076141417"><ele>130.0</ele><time>2026-04-12T08:32:00Z</time></trkpt><trkpt lat="43.39704731361548" lon="13.3501761588831"><ele>133.66666666666669</ele><time>2026-04-12T08:32:01Z</time></trkpt><trkpt lat="43.39695375694764" lon="13.34995390919125"><ele>137.33333333333334</ele><time>2026-04-12T08:32:02Z</time></trkpt><trkpt lat="43.39688889659046" lon="13.349756234283435"><ele>141.0</ele><time>2026-04-12T08:32:03Z</time></trkpt><trkpt lat="43.396826736769746" lon="13.349599064660408"><ele>141.8</ele><time>2026-04-12T08:32:04Z</time></trkpt><trkpt lat="43.396757946572144" lon="13.34945892777497"><ele>142.6</ele><time>2026-04-12T08:32:05Z</time></trkpt><trkpt lat="43.39670754323187" lon="13.349324819052688"><ele>143.4</ele><time>2026-04-12T08:32:06Z</time></trkpt><trkpt lat="43.39666057660092" lon="13.349205978680583"><ele>144.2</ele><time>2026-04-12T08:32:07Z</time></trkpt><trkpt lat="43.39661168046622" lon="13.349087691765908"><ele>145.0</ele><time>2026-04-12T08:32:08Z</time></trkpt><trkpt lat="43.3965634100368" lon="13.348974312125552"><ele>145.0</ele><time>2026-04-12T08:32:09Z</time></trkpt><trkpt lat="43.39652229334249" lon="13.348886980609574"><ele>145.0</ele><time>2026-04-12T08:32:10Z</time></trkpt><trkpt lat="43.39648082262568" lon="13.348810356548135"><ele>145.0</ele><time>2026-04-12T08:32:11Z</time></trkpt><trkpt lat="43.39640524049276" lon="13.348756076054602"><ele>145.0</ele><time>2026-04-12T08:32:13Z</time></trkpt><trkpt lat="43.39630247248984" lon="13.34881532199838"><ele>145.0</ele><time>2026-04-12T08:32:15Z</time></trkpt><trkpt lat="43.396221935811134" lon="13.348880014271485"><ele>145.0</ele><time>2026-04-12T08:32:16Z</time></trkpt><trkpt lat="43.39613967649648" lon="13.348951526890415"><ele>146.66666666666669</ele><time>2026-04-12T08:32:17Z</time></trkpt><trkpt lat="43.396039256245615" lon="13.349008095324553"><ele>148.33333333333334</ele><time>2026-04-12T08:32:18Z</time></trkpt><trkpt lat="43.39595453652486" lon="13.349045793414486"><ele>150.0</ele><time>2026-04-12T08:32:19Z</time></trkpt><trkpt lat="43.39588341818503" lon="13.349040269011871"><ele>151.66666666666666</ele><time>2026-04-12T08:32:20Z</time></trkpt><trkpt lat="43.39580351420673" lon="13.349022490536534"><ele>153.33333333333331</ele><time>2026-04-12T08:32:21Z</time></trkpt><trkpt lat="43.39570654453253" lon="13.349009367035446"><ele>155.0</ele><time>2026-04-12T08:32:22Z</time></trkpt><trkpt lat="43.39563523371174" lon="13.3489522890772"><ele>155.0</ele><time>2026-04-12T08:32:23Z</time></trkpt><trkpt lat="43.395571877323135" lon="13.348877302923967"><ele>155.0</ele><time>2026-04-12T08:32:24Z</time></trkpt><trkpt lat="43.395496467832096" lon="13.348767797649508"><ele>155.0</ele><time>2026-04-12T08:32:25Z</time></trkpt><trkpt lat="43.39540391232666" lon="13.348636374078804"><ele>155.0</ele><time>2026-04-12T08:32:26Z</time></trkpt><trkpt lat="43.39531578580216" lon="13.348503855793004"><ele>155.0</ele><time>2026-04-12T08:32:27Z</time></trkpt><trkpt lat="43.395216342754765" lon="13.348360841620437"><ele>155.0</ele><time>2026-04-12T08:32:28Z</time></trkpt><trkpt lat="43.395122697849764" lon="13.34821914847852"><ele>155.0</ele><time>2026-04-12T08:32:29Z</time></trkpt><trkpt lat="43.39505477609401" lon="13.34810742026087"><ele>155.0</ele><time>2026-04-12T08:32:30Z</time></trkpt><trkpt lat="43.395006196586365" lon="13.348010744041797"><ele>155.0</ele><time>2026-04-12T08:32:31Z</time></trkpt><trkpt lat="43.394977744364205" lon="13.34787820459553"><ele>155.0</ele><time>2026-04-12T08:32:32Z</time></trkpt><trkpt lat="43.39492833985623" lon="13.347749918503638"><ele>155.0</ele><time>2026-04-12T08:32:33Z</time></trkpt><trkpt lat="43.394899229180474" lon="13.347619361218479"><ele>155.0</ele><time>2026-04-12T08:32:34Z</time></trkpt><trkpt lat="43.394873713793494" lon="13.347505855420744"><ele>155.0</ele><time>2026-04-12T08:32:35Z</time></trkpt><trkpt lat="43.39484840297667" lon="13.347402655977886"><ele>155.0</ele><time>2026-04-12T08:32:36Z</time></trkpt><trkpt lat="43.39482609380376" lon="13.347321034948923"><ele>155.0</ele><time>2026-04-12T08:32:37Z</time></trkpt><trkpt lat="43.394804689122985" lon="13.347210064286049"><ele>155.0</ele><time>2026-04-12T08:32:39Z</time></trkpt><trkpt lat="43.39462902912415" lon="13.34719042148864"><ele>155.0</ele><time>2026-04-12T08:32:43Z</time></trkpt><trkpt lat="43.39455658719522" lon="13.347211226935693"><ele>155.0</ele><time>2026-04-12T08:32:44Z</time></trkpt><trkpt lat="43.3944591073164" lon="13.347239140445753"><ele>154.25</ele><time>2026-04-12T08:32:45Z</time></trkpt><trkpt lat="43.39434868021168" lon="13.347292875522532"><ele>153.5</ele><time>2026-04-12T08:32:46Z</time></trkpt><trkpt lat="43.39421278512122" lon="13.347325986248126"><ele>152.75</ele><time>2026-04-12T08:32:47Z</time></trkpt><trkpt lat="43.3940590892082" lon="13.347350897925573"><ele>152.0</ele><time>2026-04-12T08:32:48Z</time></trkpt><trkpt lat="43.39390402601125" lon="13.347368742560715"><ele>151.66666666666666</ele><time>2026-04-12T08:32:49Z</time></trkpt><trkpt lat="43.39373962482517" lon="13.347377150306324"><ele>151.33333333333334</ele><time>2026-04-12T08:32:50Z</time></trkpt><trkpt lat="43.393589763504195" lon="13.347387265254163"><ele>151.0</ele><time>2026-04-12T08:32:51Z</time></trkpt><trkpt lat="43.39345393838704" lon="13.347425516010295"><ele>151.0</ele><time>2026-04-12T08:32:52Z</time></trkpt><trkpt lat="43.39331439241735" lon="13.347414763607944"><ele>151.0</ele><time>2026-04-12T08:32:53Z</time></trkpt><trkpt lat="43.393163846053056" lon="13.34741999165869"><ele>151.0</ele><time>2026-04-12T08:32:54Z</time></trkpt><trkpt lat="43.39302218999106" lon="13.347422487550185"><ele>151.0</ele><time>2026-04-12T08:32:55Z</time></trkpt><trkpt lat="43.392890032556586" lon="13.347416086657585"><ele>151.0</ele><time>2026-04-12T08:32:56Z</time></trkpt><trkpt lat="43.39275373488963" lon="13.347393361706228"><ele>151.0</ele><time>2026-04-12T08:32:57Z</time></trkpt><trkpt lat="43.39262981983174" lon="13.347358603047283"><ele>151.0</ele><time>2026-04-12T08:32:58Z</time></trkpt><trkpt lat="43.39250207072003" lon="13.347289420975478"><ele>151.0</ele><time>2026-04-12T08:32:59Z</time></trkpt><trkpt lat="43.392346835152296" lon="13.347204134584883"><ele>151.25</ele><time>2026-04-12T08:33:00Z</time></trkpt><trkpt lat="43.39219986520921" lon="13.347153165109875"><ele>151.5</ele><time>2026-04-12T08:33:01Z</time></trkpt><trkpt lat="43.39208473137642" lon="13.347097734045148"><ele>151.75</ele><time>2026-04-12T08:33:02Z</time></trkpt><trkpt lat="43.39197041853931" lon="13.34706166639178"><ele>152.0</ele><time>2026-04-12T08:33:03Z</time></trkpt><trkpt lat="43.39188337034052" lon="13.347044255257442"><ele>152.0</ele><time>2026-04-12T08:33:04Z</time></trkpt><trkpt lat="43.39181520869755" lon="13.34701939022049"><ele>152.0</ele><time>2026-04-12T08:33:06Z</time></trkpt><trkpt lat="43.39167295138047" lon="13.347031071068242"><ele>152.0</ele><time>2026-04-12T08:33:08Z</time></trkpt><trkpt lat="43.391549575819916" lon="13.347026909638716"><ele>152.0</ele><time>2026-04-12T08:33:09Z</time></trkpt><trkpt lat="43.39141030899814" lon="13.347035659068418"><ele>150.0</ele><time>2026-04-12T08:33:10Z</time></trkpt><trkpt lat="43.39125968510955" lon="13.347051969291888"><ele>148.0</ele><time>2026-04-12T08:33:11Z</time></trkpt><trkpt lat="43.39109596950863" lon="13.347094293952573"><ele>146.0</ele><time>2026-04-12T08:33:12Z</time></trkpt><trkpt lat="43.39092486576596" lon="13.347130262695227"><ele>146.0</ele><time>2026-04-12T08:33:13Z</time></trkpt><trkpt lat="43.39074980242676" lon="13.347161060448641"><ele>146.0</ele><time>2026-04-12T08:33:14Z</time></trkpt><trkpt lat="43.39056434955974" lon="13.347191602452822"><ele>146.0</ele><time>2026-04-12T08:33:15Z</time></trkpt><trkpt lat="43.39038449811522" lon="13.347220144523254"><ele>145.66666666666666</ele><time>2026-04-12T08:33:16.001Z</time></trkpt><trkpt lat="43.390213462799984" lon="13.347248793126152"><ele>145.33333333333334</ele><time>2026-04-12T08:33:17.001Z</time></trkpt><trkpt lat="43.390045102097886" lon="13.34727431999574"><ele>145.0</ele><time>2026-04-12T08:33:18.001Z</time></trkpt><trkpt lat="43.389873757017234" lon="13.34730154502607"><ele>145.0</ele><time>2026-04-12T08:33:19.001Z</time></trkpt><trkpt lat="43.3897116869551" lon="13.347301373546047"><ele>145.0</ele><time>2026-04-12T08:33:20.001Z</time></trkpt><trkpt lat="43.389528317908464" lon="13.347347265680797"><ele>145.0</ele><time>2026-04-12T08:33:21.001Z</time></trkpt><trkpt lat="43.38935525389261" lon="13.347368214410984"><ele>145.75</ele><time>2026-04-12T08:33:22.001Z</time></trkpt><trkpt lat="43.389213063647006" lon="13.34738897246975"><ele>146.5</ele><time>2026-04-12T08:33:23.001Z</time></trkpt><trkpt lat="43.389090815169006" lon="13.347404775712516"><ele>147.25</ele><time>2026-04-12T08:33:24.001Z</time></trkpt><trkpt lat="43.38898608721224" lon="13.347420972797643"><ele>148.0</ele><time>2026-04-12T08:33:25.001Z</time></trkpt><trkpt lat="43.388884315689" lon="13.347453659130245"><ele>149.0</ele><time>2026-04-12T08:33:26.001Z</time></trkpt><trkpt lat="43.388785597246574" lon="13.347509478076585"><ele>150.0</ele><time>2026-04-12T08:33:27.001Z</time></trkpt><trkpt lat="43.388686654096716" lon="13.347584161557101"><ele>151.0</ele><time>2026-04-12T08:33:28.001Z</time></trkpt><trkpt lat="43.38859277434956" lon="13.347658840170887"><ele>152.0</ele><time>2026-04-12T08:33:29.001Z</time></trkpt><trkpt lat="43.388494500018695" lon="13.347733164319461"><ele>153.0</ele><time>2026-04-12T08:33:30.001Z</time></trkpt><trkpt lat="43.388379410913586" lon="13.347822552797654"><ele>153.0</ele><time>2026-04-12T08:33:31.001Z</time></trkpt><trkpt lat="43.3882482590247" lon="13.34791581020329"><ele>153.0</ele><time>2026-04-12T08:33:32.001Z</time></trkpt><trkpt lat="43.388112880765995" lon="13.348023225511309"><ele>153.0</ele><time>2026-04-12T08:33:33.001Z</time></trkpt><trkpt lat="43.38796489965432" lon="13.348129519475068"><ele>152.33333333333334</ele><time>2026-04-12T08:33:34.001Z</time></trkpt><trkpt lat="43.38782265550434" lon="13.348238570513374"><ele>151.66666666666669</ele><time>2026-04-12T08:33:35.001Z</time></trkpt><trkpt lat="43.38769636359128" lon="13.3483321145561"><ele>151.0</ele><time>2026-04-12T08:33:36.001Z</time></trkpt><trkpt lat="43.38756615393992" lon="13.348435584271982"><ele>151.0</ele><time>2026-04-12T08:33:37.001Z</time></trkpt><trkpt lat="43.38742815163033" lon="13.348560504524144"><ele>151.0</ele><time>2026-04-12T08:33:38.001Z</time></trkpt><trkpt lat="43.38730926069435" lon="13.348680231604922"><ele>151.0</ele><time>2026-04-12T08:33:39.001Z</time></trkpt><trkpt lat="43.38721075789207" lon="13.348793409858985"><ele>151.0</ele><time>2026-04-12T08:33:40.001Z</time></trkpt><trkpt lat="43.38709663232994" lon="13.348920415443837"><ele>152.33333333333334</ele><time>2026-04-12T08:33:41.001Z</time></trkpt><trkpt lat="43.38696561594855" lon="13.349050083731205"><ele>153.66666666666666</ele><time>2026-04-12T08:33:42.001Z</time></trkpt><trkpt lat="43.386811240404555" lon="13.349178780333899"><ele>155.0</ele><time>2026-04-12T08:33:43.001Z</time></trkpt><trkpt lat="43.386637884384626" lon="13.349319863188443"><ele>155.0</ele><time>2026-04-12T08:33:44.001Z</time></trkpt><trkpt lat="43.386486265005765" lon="13.349436958122759"><ele>155.0</ele><time>2026-04-12T08:33:45.001Z</time></trkpt><trkpt lat="43.38635585649576" lon="13.349544922267864"><ele>155.0</ele><time>2026-04-12T08:33:46.001Z</time></trkpt><trkpt lat="43.38623298647923" lon="13.3496358956322"><ele>155.75</ele><time>2026-04-12T08:33:47.001Z</time></trkpt><trkpt lat="43.386098282792815" lon="13.349725392225121"><ele>156.5</ele><time>2026-04-12T08:33:48.001Z</time></trkpt><trkpt lat="43.38595688803462" lon="13.349774450046466"><ele>157.25</ele><time>2026-04-12T08:33:49.001Z</time></trkpt><trkpt lat="43.385806139785906" lon="13.349817898254837"><ele>158.0</ele><time>2026-04-12T08:33:50.001Z</time></trkpt><trkpt lat="43.38563726724059" lon="13.34987435123095"><ele>161.33333333333331</ele><time>2026-04-12T08:33:51.001Z</time></trkpt><trkpt lat="43.38544199967334" lon="13.349892846844376"><ele>164.66666666666666</ele><time>2026-04-12T08:33:52.001Z</time></trkpt><trkpt lat="43.385253159692994" lon="13.349911526158017"><ele>168.0</ele><time>2026-04-12T08:33:53.001Z</time></trkpt><trkpt lat="43.38506384877979" lon="13.349939914223066"><ele>168.0</ele><time>2026-04-12T08:33:54.001Z</time></trkpt><trkpt lat="43.3848726184029" lon="13.349971238598041"><ele>168.0</ele><time>2026-04-12T08:33:55.001Z</time></trkpt><trkpt lat="43.38470146024522" lon="13.34999648581679"><ele>168.0</ele><time>2026-04-12T08:33:56Z</time></trkpt><trkpt lat="43.38454457742594" lon="13.350013038327331"><ele>171.0</ele><time>2026-04-12T08:33:57Z</time></trkpt><trkpt lat="43.384390934223006" lon="13.349991788291081"><ele>174.0</ele><time>2026-04-12T08:33:58Z</time></trkpt><trkpt lat="43.384264862858046" lon="13.350008141252863"><ele>177.0</ele><time>2026-04-12T08:33:59Z</time></trkpt><trkpt lat="43.38413499883844" lon="13.349983155937151"><ele>180.0</ele><time>2026-04-12T08:34:00Z</time></trkpt><trkpt lat="43.384015617303504" lon="13.349948673708582"><ele>180.0</ele><time>2026-04-12T08:34:01Z</time></trkpt><trkpt lat="43.383903451454785" lon="13.349907581078972"><ele>180.0</ele><time>2026-04-12T08:34:02Z</time></trkpt><trkpt lat="43.38381345562594" lon="13.349863972618618"><ele>180.0</ele><time>2026-04-12T08:34:03Z</time></trkpt><trkpt lat="43.38373794175715" lon="13.349808834504048"><ele>180.0</ele><time>2026-04-12T08:34:04Z</time></trkpt><trkpt lat="43.3836737950112" lon="13.349698623698899"><ele>180.0</ele><time>2026-04-12T08:34:05Z</time></trkpt><trkpt lat="43.38359195911346" lon="13.34957826306448"><ele>184.5</ele><time>2026-04-12T08:34:06Z</time></trkpt><trkpt lat="43.383510783963345" lon="13.349449220500244"><ele>189.0</ele><time>2026-04-12T08:34:07Z</time></trkpt><trkpt lat="43.38342287696258" lon="13.349331795956774"><ele>193.5</ele><time>2026-04-12T08:34:08Z</time></trkpt><trkpt lat="43.38336261679148" lon="13.349188849058692"><ele>198.0</ele><time>2026-04-12T08:34:09Z</time></trkpt><trkpt lat="43.38328667008506" lon="13.349090337158513"><ele>198.0</ele><time>2026-04-12T08:34:10Z</time></trkpt><trkpt lat="43.383239125746606" lon="13.349017398528492"><ele>198.0</ele><time>2026-04-12T08:34:11Z</time></trkpt><trkpt lat="43.383173526860915" lon="13.348958650633678"><ele>198.0</ele><time>2026-04-12T08:34:13Z</time></trkpt><trkpt lat="43.38308129262383" lon="13.348963870936496"><ele>198.0</ele><time>2026-04-12T08:34:15Z</time></trkpt><trkpt lat="43.3830149793013" lon="13.349051561950619"><ele>198.0</ele><time>2026-04-12T08:34:17Z</time></trkpt><trkpt lat="43.38292724961728" lon="13.34919013419346"><ele>201.0</ele><time>2026-04-12T08:34:19Z</time></trkpt><trkpt lat="43.38286998149538" lon="13.349280071413252"><ele>204.0</ele><time>2026-04-12T08:34:20Z</time></trkpt><trkpt lat="43.38281000615163" lon="13.349408985888344"><ele>207.0</ele><time>2026-04-12T08:34:21Z</time></trkpt><trkpt lat="43.38276219138629" lon="13.349541728061244"><ele>210.0</ele><time>2026-04-12T08:34:22Z</time></trkpt><trkpt lat="43.382723894662455" lon="13.349680210641122"><ele>213.0</ele><time>2026-04-12T08:34:23Z</time></trkpt><trkpt lat="43.38269063435666" lon="13.349795616134552"><ele>213.0</ele><time>2026-04-12T08:34:24Z</time></trkpt><trkpt lat="43.38264238414973" lon="13.349890067152602"><ele>213.0</ele><time>2026-04-12T08:34:25Z</time></trkpt><trkpt lat="43.38256123821699" lon="13.349934218901254"><ele>213.0</ele><time>2026-04-12T08:34:26Z</time></trkpt><trkpt lat="43.38247093562909" lon="13.349988955110772"><ele>213.0</ele><time>2026-04-12T08:34:27Z</time></trkpt><trkpt lat="43.38236497566987" lon="13.350045399325593"><ele>213.0</ele><time>2026-04-12T08:34:28Z</time></trkpt><trkpt lat="43.38225516270006" lon="13.350115078444063"><ele>217.0</ele><time>2026-04-12T08:34:29Z</time></trkpt><trkpt lat="43.38217295098204" lon="13.350201037873456"><ele>221.0</ele><time>2026-04-12T08:34:30Z</time></trkpt><trkpt lat="43.38209191337805" lon="13.35028189298878"><ele>225.0</ele><time>2026-04-12T08:34:31Z</time></trkpt><trkpt lat="43.38202609853231" lon="13.350374863543335"><ele>229.0</ele><time>2026-04-12T08:34:32Z</time></trkpt><trkpt lat="43.38196798594156" lon="13.35048808805083"><ele>233.0</ele><time>2026-04-12T08:34:33Z</time></trkpt><trkpt lat="43.38191920487593" lon="13.350614073077255"><ele>233.0</ele><time>2026-04-12T08:34:34Z</time></trkpt><trkpt lat="43.38188573640206" lon="13.3507605318313"><ele>233.0</ele><time>2026-04-12T08:34:35Z</time></trkpt><trkpt lat="43.38184980321736" lon="13.35094794973698"><ele>233.0</ele><time>2026-04-12T08:34:36Z</time></trkpt><trkpt lat="43.38181080219629" lon="13.35112410093297"><ele>233.0</ele><time>2026-04-12T08:34:37Z</time></trkpt><trkpt lat="43.381765807139" lon="13.351255767669622"><ele>233.00000000000003</ele><time>2026-04-12T08:34:38Z</time></trkpt><trkpt lat="43.38171830256812" lon="13.351377661403795"><ele>233.0</ele><time>2026-04-12T08:34:39Z</time></trkpt><trkpt lat="43.38167694565097" lon="13.351475355001144"><ele>233.0</ele><time>2026-04-12T08:34:40Z</time></trkpt><trkpt lat="43.38163605570929" lon="13.35156938657305"><ele>233.0</ele><time>2026-04-12T08:34:41Z</time></trkpt><trkpt lat="43.3815948970739" lon="13.351656586142044"><ele>233.00000000000003</ele><time>2026-04-12T08:34:42Z</time></trkpt><trkpt lat="43.38154648924859" lon="13.351743895576128"><ele>233.0</ele><time>2026-04-12T08:34:43Z</time></trkpt><trkpt lat="43.381472405017945" lon="13.351851290420669"><ele>233.00000000000003</ele><time>2026-04-12T08:34:45Z</time></trkpt><trkpt lat="43.38140551795051" lon="13.351866258095521"><ele>233.0</ele><time>2026-04-12T08:34:48Z</time></trkpt><trkpt lat="43.38142096174506" lon="13.351740813347766"><ele>233.0</ele><time>2026-04-12T08:34:52Z</time></trkpt><trkpt lat="43.381435100915546" lon="13.351633493704092"><ele>233.0</ele><time>2026-04-12T08:34:53Z</time></trkpt><trkpt lat="43.38143714337229" lon="13.351505093609747"><ele>233.00000000000003</ele><time>2026-04-12T08:34:54Z</time></trkpt><trkpt lat="43.38145556174792" lon="13.35138544205609"><ele>233.0</ele><time>2026-04-12T08:34:55Z</time></trkpt><trkpt lat="43.38146192275904" lon="13.351247456899625"><ele>233.0</ele><time>2026-04-12T08:34:56Z</time></trkpt><trkpt lat="43.38146074745147" lon="13.351080840892186"><ele>233.0</ele><time>2026-04-12T08:34:57Z</time></trkpt><trkpt lat="43.38144732787022" lon="13.350907375477796"><ele>233.0</ele><time>2026-04-12T08:34:58Z</time></trkpt><trkpt lat="43.38143584549463" lon="13.350719194617326"><ele>233.0</ele><time>2026-04-12T08:34:59Z</time></trkpt><trkpt lat="43.38143277656255" lon="13.350517042761298"><ele>233.66666666666669</ele><time>2026-04-12T08:35:00Z</time></trkpt><trkpt lat="43.38143236794051" lon="13.350307016464626"><ele>234.33333333333331</ele><time>2026-04-12T08:35:01Z</time></trkpt><trkpt lat="43.381434041998475" lon="13.350100003589093"><ele>235.0</ele><time>2026-04-12T08:35:02Z</time></trkpt><trkpt lat="43.38143990698734" lon="13.349883548198983"><ele>235.33333333333331</ele><time>2026-04-12T08:35:03Z</time></trkpt><trkpt lat="43.3814461931838" lon="13.349649696736309"><ele>235.66666666666669</ele><time>2026-04-12T08:35:04Z</time></trkpt><trkpt lat="43.38146405015895" lon="13.349445549198093"><ele>236.0</ele><time>2026-04-12T08:35:05Z</time></trkpt><trkpt lat="43.38146131084178" lon="13.349258478678701"><ele>236.0</ele><time>2026-04-12T08:35:06Z</time></trkpt><trkpt lat="43.38142562637468" lon="13.349078123683238"><ele>236.0</ele><time>2026-04-12T08:35:07Z</time></trkpt><trkpt lat="43.381390265031676" lon="13.3488892538354"><ele>236.0</ele><time>2026-04-12T08:35:08Z</time></trkpt><trkpt lat="43.381338920567174" lon="13.348701775360215"><ele>236.0</ele><time>2026-04-12T08:35:09Z</time></trkpt><trkpt lat="43.3812765334745" lon="13.348511683408374"><ele>238.0</ele><time>2026-04-12T08:35:10Z</time></trkpt><trkpt lat="43.38120923837313" lon="13.34831631787808"><ele>240.0</ele><time>2026-04-12T08:35:11Z</time></trkpt><trkpt lat="43.38113373277847" lon="13.348109312353634"><ele>242.0</ele><time>2026-04-12T08:35:12Z</time></trkpt><trkpt lat="43.381054841257836" lon="13.347900069209485"><ele>242.0</ele><time>2026-04-12T08:35:13Z</time></trkpt><trkpt lat="43.38096762646627" lon="13.347691296832929"><ele>242.0</ele><time>2026-04-12T08:35:14Z</time></trkpt><trkpt lat="43.38086568210844" lon="13.347472323256724"><ele>242.0</ele><time>2026-04-12T08:35:15Z</time></trkpt><trkpt lat="43.38076021935222" lon="13.347247021475104"><ele>240.0</ele><time>2026-04-12T08:35:16Z</time></trkpt><trkpt lat="43.38064998410833" lon="13.347011779869954"><ele>238.0</ele><time>2026-04-12T08:35:17Z</time></trkpt><trkpt lat="43.38053826988204" lon="13.346773980621077"><ele>236.0</ele><time>2026-04-12T08:35:18Z</time></trkpt><trkpt lat="43.380435305317945" lon="13.346540797326185"><ele>235.33333333333334</ele><time>2026-04-12T08:35:19Z</time></trkpt><trkpt lat="43.38033122235073" lon="13.34630840578803"><ele>234.66666666666669</ele><time>2026-04-12T08:35:20Z</time></trkpt><trkpt lat="43.380237773253896" lon="13.346103796243478"><ele>234.0</ele><time>2026-04-12T08:35:21Z</time></trkpt><trkpt lat="43.38014128860033" lon="13.345892440668909"><ele>234.0</ele><time>2026-04-12T08:35:22Z</time></trkpt><trkpt lat="43.38005245643219" lon="13.345688951476328"><ele>234.0</ele><time>2026-04-12T08:35:23Z</time></trkpt><trkpt lat="43.37996395996539" lon="13.345479860630784"><ele>234.0</ele><time>2026-04-12T08:35:24Z</time></trkpt><trkpt lat="43.379869785357585" lon="13.345267626921597"><ele>231.66666666666669</ele><time>2026-04-12T08:35:25Z</time></trkpt><trkpt lat="43.37977637831753" lon="13.34504792826804"><ele>229.33333333333334</ele><time>2026-04-12T08:35:26Z</time></trkpt><trkpt lat="43.37967932951898" lon="13.344821917512007"><ele>227.0</ele><time>2026-04-12T08:35:27Z</time></trkpt><trkpt lat="43.37958412683203" lon="13.344588244266358"><ele>226.33333333333334</ele><time>2026-04-12T08:35:28Z</time></trkpt><trkpt lat="43.379490041440896" lon="13.344356379675506"><ele>225.66666666666669</ele><time>2026-04-12T08:35:29Z</time></trkpt><trkpt lat="43.37939284333493" lon="13.344128899940333"><ele>225.0</ele><time>2026-04-12T08:35:30Z</time></trkpt><trkpt lat="43.379293861261985" lon="13.3439005263156"><ele>225.0</ele><time>2026-04-12T08:35:31.001Z</time></trkpt><trkpt lat="43.37919673577357" lon="13.343669989748873"><ele>225.0</ele><time>2026-04-12T08:35:32.001Z</time></trkpt><trkpt lat="43.379105498544966" lon="13.34343775269429"><ele>225.0</ele><time>2026-04-12T08:35:33.001Z</time></trkpt><trkpt lat="43.37901782312033" lon="13.343206165718875"><ele>225.33333333333331</ele><time>2026-04-12T08:35:34.001Z</time></trkpt><trkpt lat="43.37893609842621" lon="13.342967823556707"><ele>225.66666666666666</ele><time>2026-04-12T08:35:35.001Z</time></trkpt><trkpt lat="43.37885476332237" lon="13.342730837881716"><ele>226.0</ele><time>2026-04-12T08:35:36.001Z</time></trkpt><trkpt lat="43.37877271167138" lon="13.342496678751607"><ele>226.0</ele><time>2026-04-12T08:35:37.001Z</time></trkpt><trkpt lat="43.378695371552055" lon="13.342263819640642"><ele>226.0</ele><time>2026-04-12T08:35:38.001Z</time></trkpt><trkpt lat="43.378630160324654" lon="13.342026861734743"><ele>226.0</ele><time>2026-04-12T08:35:39.001Z</time></trkpt><trkpt lat="43.3785785196143" lon="13.34178325265106"><ele>227.0</ele><time>2026-04-12T08:35:40.001Z</time></trkpt><trkpt lat="43.37854382102616" lon="13.341536676423578"><ele>228.0</ele><time>2026-04-12T08:35:41.001Z</time></trkpt><trkpt lat="43.37851708943241" lon="13.341292825504524"><ele>229.0</ele><time>2026-04-12T08:35:42.001Z</time></trkpt><trkpt lat="43.37849953424898" lon="13.341067979462723"><ele>230.0</ele><time>2026-04-12T08:35:43.001Z</time></trkpt><trkpt lat="43.3784686464916" lon="13.340865140175074"><ele>231.0</ele><time>2026-04-12T08:35:44.001Z</time></trkpt><trkpt lat="43.3784281067914" lon="13.340662964893427"><ele>232.0</ele><time>2026-04-12T08:35:45.001Z</time></trkpt><trkpt lat="43.37838052904204" lon="13.340461494879037"><ele>232.0</ele><time>2026-04-12T08:35:46.001Z</time></trkpt><trkpt lat="43.378328118966174" lon="13.340256279036733"><ele>232.0</ele><time>2026-04-12T08:35:47.001Z</time></trkpt><trkpt lat="43.37827297175038" lon="13.340047644947099"><ele>232.0</ele><time>2026-04-12T08:35:48.001Z</time></trkpt><trkpt lat="43.378212264792936" lon="13.339837025725485"><ele>230.66666666666666</ele><time>2026-04-12T08:35:49.001Z</time></trkpt><trkpt lat="43.378143454420695" lon="13.339628762522105"><ele>229.33333333333331</ele><time>2026-04-12T08:35:50.001Z</time></trkpt><trkpt lat="43.37806520511637" lon="13.339427014163208"><ele>228.0</ele><time>2026-04-12T08:35:51.001Z</time></trkpt><trkpt lat="43.377999825056285" lon="13.33921446283907"><ele>231.33333333333331</ele><time>2026-04-12T08:35:52.001Z</time></trkpt><trkpt lat="43.37791628131706" lon="13.339008107632703"><ele>234.66666666666666</ele><time>2026-04-12T08:35:53.001Z</time></trkpt><trkpt lat="43.37783968189961" lon="13.338807189374114"><ele>238.0</ele><time>2026-04-12T08:35:54.001Z</time></trkpt><trkpt lat="43.37776042215371" lon="13.338603842902259"><ele>238.66666666666666</ele><time>2026-04-12T08:35:55.001Z</time></trkpt><trkpt lat="43.37764882777289" lon="13.338421868818175"><ele>239.33333333333331</ele><time>2026-04-12T08:35:56.001Z</time></trkpt><trkpt lat="43.377551033658854" lon="13.338243390364369"><ele>240.0</ele><time>2026-04-12T08:35:57.001Z</time></trkpt><trkpt lat="43.37745780160925" lon="13.338080152560668"><ele>239.66666666666669</ele><time>2026-04-12T08:35:58.001Z</time></trkpt><trkpt lat="43.37736981588344" lon="13.337902013319807"><ele>239.33333333333334</ele><time>2026-04-12T08:35:59.001Z</time></trkpt><trkpt lat="43.37728869905148" lon="13.337710798055417"><ele>239.0</ele><time>2026-04-12T08:36:00.001Z</time></trkpt><trkpt lat="43.37720902308126" lon="13.337508668291182"><ele>241.66666666666669</ele><time>2026-04-12T08:36:01.001Z</time></trkpt><trkpt lat="43.377150240217944" lon="13.33728952645177"><ele>244.33333333333331</ele><time>2026-04-12T08:36:02Z</time></trkpt><trkpt lat="43.37707415450422" lon="13.337097156602354"><ele>247.0</ele><time>2026-04-12T08:36:03Z</time></trkpt><trkpt lat="43.37702689891236" lon="13.336904561959043"><ele>247.0</ele><time>2026-04-12T08:36:04Z</time></trkpt><trkpt lat="43.3769838495054" lon="13.336692828349733"><ele>247.0</ele><time>2026-04-12T08:36:05Z</time></trkpt><trkpt lat="43.37693721474547" lon="13.336469325387599"><ele>247.0</ele><time>2026-04-12T08:36:06Z</time></trkpt><trkpt lat="43.37687527457431" lon="13.336237862516553"><ele>245.66666666666666</ele><time>2026-04-12T08:36:07Z</time></trkpt><trkpt lat="43.3768013350592" lon="13.336013834973262"><ele>244.33333333333331</ele><time>2026-04-12T08:36:08Z</time></trkpt><trkpt lat="43.37671906419769" lon="13.335804110175815"><ele>243.0</ele><time>2026-04-12T08:36:09Z</time></trkpt><trkpt lat="43.37664256430134" lon="13.335620975308943"><ele>242.66666666666669</ele><time>2026-04-12T08:36:10Z</time></trkpt><trkpt lat="43.37657584396639" lon="13.335435310213345"><ele>242.33333333333334</ele><time>2026-04-12T08:36:11Z</time></trkpt><trkpt lat="43.3764685318802" lon="13.335291811828595"><ele>242.0</ele><time>2026-04-12T08:36:12Z</time></trkpt><trkpt lat="43.37636061799421" lon="13.33514659631322"><ele>243.0</ele><time>2026-04-12T08:36:13Z</time></trkpt><trkpt lat="43.376245042689725" lon="13.335010500193304"><ele>244.0</ele><time>2026-04-12T08:36:14Z</time></trkpt><trkpt lat="43.376134091756434" lon="13.334865539874396"><ele>245.0</ele><time>2026-04-12T08:36:15Z</time></trkpt><trkpt lat="43.376037167796866" lon="13.334705434691797"><ele>245.75</ele><time>2026-04-12T08:36:16Z</time></trkpt><trkpt lat="43.37597910503375" lon="13.334525840373121"><ele>246.5</ele><time>2026-04-12T08:36:17Z</time></trkpt><trkpt lat="43.37592021112965" lon="13.334339070215814"><ele>247.25</ele><time>2026-04-12T08:36:18Z</time></trkpt><trkpt lat="43.37586168301384" lon="13.334139333922101"><ele>248.0</ele><time>2026-04-12T08:36:19Z</time></trkpt><trkpt lat="43.37579212671459" lon="13.333946381148573"><ele>247.5</ele><time>2026-04-12T08:36:20Z</time></trkpt><trkpt lat="43.37574094407923" lon="13.333755841619865"><ele>247.0</ele><time>2026-04-12T08:36:21Z</time></trkpt><trkpt lat="43.375695601162455" lon="13.333578050454504"><ele>246.5</ele><time>2026-04-12T08:36:22Z</time></trkpt><trkpt lat="43.37563544734276" lon="13.333404782929955"><ele>246.0</ele><time>2026-04-12T08:36:23Z</time></trkpt><trkpt lat="43.375564071827334" lon="13.333241093201972"><ele>245.5</ele><time>2026-04-12T08:36:24Z</time></trkpt><trkpt lat="43.37548904290412" lon="13.333080671855512"><ele>245.0</ele><time>2026-04-12T08:36:25Z</time></trkpt><trkpt lat="43.375422941704585" lon="13.33291229160819"><ele>244.5</ele><time>2026-04-12T08:36:26Z</time></trkpt><trkpt lat="43.37535329825191" lon="13.33273918059014"><ele>244.0</ele><time>2026-04-12T08:36:27Z</time></trkpt><trkpt lat="43.37527686957252" lon="13.332572823015084"><ele>244.0</ele><time>2026-04-12T08:36:28Z</time></trkpt><trkpt lat="43.37519547226529" lon="13.332398232619488"><ele>244.0</ele><time>2026-04-12T08:36:29Z</time></trkpt><trkpt lat="43.375110440833325" lon="13.332208165386165"><ele>244.0</ele><time>2026-04-12T08:36:30Z</time></trkpt><trkpt lat="43.375020596987696" lon="13.332018060666492"><ele>244.0</ele><time>2026-04-12T08:36:31Z</time></trkpt><trkpt lat="43.37492443020356" lon="13.331826503641281"><ele>244.0</ele><time>2026-04-12T08:36:32Z</time></trkpt><trkpt lat="43.37481414393369" lon="13.331640574688844"><ele>244.0</ele><time>2026-04-12T08:36:33Z</time></trkpt><trkpt lat="43.37468985212204" lon="13.331465184466927"><ele>244.0</ele><time>2026-04-12T08:36:34Z</time></trkpt><trkpt lat="43.37455532284952" lon="13.331301524341058"><ele>244.0</ele><time>2026-04-12T08:36:35Z</time></trkpt><trkpt lat="43.37441296185223" lon="13.33114443691137"><ele>244.0</ele><time>2026-04-12T08:36:36Z</time></trkpt><trkpt lat="43.37426769356719" lon="13.330999155331671"><ele>244.0</ele><time>2026-04-12T08:36:37Z</time></trkpt><trkpt lat="43.37412079710144" lon="13.3308514842053"><ele>244.0</ele><time>2026-04-12T08:36:38Z</time></trkpt><trkpt lat="43.373980174902684" lon="13.330692937208987"><ele>244.0</ele><time>2026-04-12T08:36:39Z</time></trkpt><trkpt lat="43.37383344043529" lon="13.330542112101712"><ele>246.0</ele><time>2026-04-12T08:36:40Z</time></trkpt><trkpt lat="43.3736937207102" lon="13.330398673599195"><ele>248.0</ele><time>2026-04-12T08:36:41Z</time></trkpt><trkpt lat="43.37354699168747" lon="13.330278034606632"><ele>250.0</ele><time>2026-04-12T08:36:42Z</time></trkpt><trkpt lat="43.37339296252196" lon="13.330166024658897"><ele>250.0</ele><time>2026-04-12T08:36:43Z</time></trkpt><trkpt lat="43.37324749927442" lon="13.330049615265393"><ele>250.0</ele><time>2026-04-12T08:36:44Z</time></trkpt><trkpt lat="43.37311183171641" lon="13.32991145228439"><ele>250.0</ele><time>2026-04-12T08:36:45Z</time></trkpt><trkpt lat="43.37300195869862" lon="13.329727509275077"><ele>252.66666666666666</ele><time>2026-04-12T08:36:46Z</time></trkpt><trkpt lat="43.3728967467783" lon="13.3295379417542"><ele>255.33333333333331</ele><time>2026-04-12T08:36:47Z</time></trkpt><trkpt lat="43.37279251910639" lon="13.32933447939666"><ele>258.0</ele><time>2026-04-12T08:36:48Z</time></trkpt><trkpt lat="43.37267712215857" lon="13.329132768936791"><ele>258.0</ele><time>2026-04-12T08:36:49Z</time></trkpt><trkpt lat="43.3725966859377" lon="13.328930965147304"><ele>258.0</ele><time>2026-04-12T08:36:50Z</time></trkpt><trkpt lat="43.37253834678258" lon="13.328766621115125"><ele>258.0</ele><time>2026-04-12T08:36:51Z</time></trkpt><trkpt lat="43.372471098169235" lon="13.328599895988438"><ele>258.0</ele><time>2026-04-12T08:36:52Z</time></trkpt><trkpt lat="43.37240842469178" lon="13.328438829862627"><ele>258.25</ele><time>2026-04-12T08:36:53Z</time></trkpt><trkpt lat="43.37235214275835" lon="13.328280359996267"><ele>258.5</ele><time>2026-04-12T08:36:54Z</time></trkpt><trkpt lat="43.3722979559661" lon="13.328105647922309"><ele>258.75</ele><time>2026-04-12T08:36:55Z</time></trkpt><trkpt lat="43.37224841780359" lon="13.327926095819153"><ele>259.0</ele><time>2026-04-12T08:36:56Z</time></trkpt><trkpt lat="43.37220013854041" lon="13.327732149348531"><ele>259.3333333333333</ele><time>2026-04-12T08:36:57Z</time></trkpt><trkpt lat="43.37214579471632" lon="13.327513370128017"><ele>259.6666666666667</ele><time>2026-04-12T08:36:58Z</time></trkpt><trkpt lat="43.372092706017874" lon="13.32727549983393"><ele>260.0</ele><time>2026-04-12T08:36:59Z</time></trkpt><trkpt lat="43.37203288088736" lon="13.327033700794921"><ele>258.0</ele><time>2026-04-12T08:37:00Z</time></trkpt><trkpt lat="43.371987350107055" lon="13.326784666845642"><ele>256.0</ele><time>2026-04-12T08:37:01Z</time></trkpt><trkpt lat="43.37190999609823" lon="13.326556795001487"><ele>254.0</ele><time>2026-04-12T08:37:02Z</time></trkpt><trkpt lat="43.37185118079959" lon="13.326343210295319"><ele>253.0</ele><time>2026-04-12T08:37:03Z</time></trkpt><trkpt lat="43.371795056229345" lon="13.326146557102978"><ele>252.0</ele><time>2026-04-12T08:37:04Z</time></trkpt><trkpt lat="43.37177446153134" lon="13.325938250729735"><ele>251.0</ele><time>2026-04-12T08:37:05Z</time></trkpt><trkpt lat="43.37174219443018" lon="13.325731986182051"><ele>251.33333333333334</ele><time>2026-04-12T08:37:06Z</time></trkpt><trkpt lat="43.37169533907229" lon="13.325509678275711"><ele>251.66666666666669</ele><time>2026-04-12T08:37:07Z</time></trkpt><trkpt lat="43.3716682821473" lon="13.325281365639487"><ele>252.0</ele><time>2026-04-12T08:37:08Z</time></trkpt><trkpt lat="43.37163510578818" lon="13.325060360366487"><ele>252.0</ele><time>2026-04-12T08:37:09Z</time></trkpt><trkpt lat="43.37160684197579" lon="13.324846164875675"><ele>252.0</ele><time>2026-04-12T08:37:10Z</time></trkpt><trkpt lat="43.37158150764265" lon="13.32464610797909"><ele>252.0</ele><time>2026-04-12T08:37:11Z</time></trkpt><trkpt lat="43.37155355384359" lon="13.324474612400502"><ele>252.0</ele><time>2026-04-12T08:37:12Z</time></trkpt><trkpt lat="43.37151813043855" lon="13.324319716895456"><ele>252.5</ele><time>2026-04-12T08:37:13Z</time></trkpt><trkpt lat="43.37147329144425" lon="13.324176917936265"><ele>253.0</ele><time>2026-04-12T08:37:14Z</time></trkpt><trkpt lat="43.37142507845123" lon="13.324038134229543"><ele>253.5</ele><time>2026-04-12T08:37:15Z</time></trkpt><trkpt lat="43.37137076643765" lon="13.323897708062573"><ele>254.0</ele><time>2026-04-12T08:37:16Z</time></trkpt><trkpt lat="43.371312555187274" lon="13.323757733128916"><ele>255.0</ele><time>2026-04-12T08:37:17Z</time></trkpt><trkpt lat="43.37124227197057" lon="13.32361821274964"><ele>256.0</ele><time>2026-04-12T08:37:18Z</time></trkpt><trkpt lat="43.37116902587801" lon="13.32346876527322"><ele>257.0</ele><time>2026-04-12T08:37:19Z</time></trkpt><trkpt lat="43.371079953515085" lon="13.32333839569167"><ele>258.0</ele><time>2026-04-12T08:37:20Z</time></trkpt><trkpt lat="43.37099208550061" lon="13.323211630116491"><ele>258.0</ele><time>2026-04-12T08:37:21Z</time></trkpt><trkpt lat="43.3709118626577" lon="13.323089954599967"><ele>258.0</ele><time>2026-04-12T08:37:22Z</time></trkpt><trkpt lat="43.37083581207579" lon="13.322974063610387"><ele>258.0</ele><time>2026-04-12T08:37:23Z</time></trkpt><trkpt lat="43.370757979883585" lon="13.322850534088216"><ele>258.0</ele><time>2026-04-12T08:37:24Z</time></trkpt><trkpt lat="43.370676578242" lon="13.322721105254445"><ele>258.25</ele><time>2026-04-12T08:37:25Z</time></trkpt><trkpt lat="43.37059047104401" lon="13.322579358406987"><ele>258.5</ele><time>2026-04-12T08:37:26Z</time></trkpt><trkpt lat="43.37050365243743" lon="13.322432356864951"><ele>258.75</ele><time>2026-04-12T08:37:27Z</time></trkpt><trkpt lat="43.370416130748545" lon="13.322275450486773"><ele>259.0</ele><time>2026-04-12T08:37:28Z</time></trkpt><trkpt lat="43.37033245809264" lon="13.322115999477147"><ele>260.0</ele><time>2026-04-12T08:37:29Z</time></trkpt><trkpt lat="43.37025398221538" lon="13.321946440907386"><ele>261.0</ele><time>2026-04-12T08:37:30Z</time></trkpt><trkpt lat="43.370176328803055" lon="13.321769641654742"><ele>262.0</ele><time>2026-04-12T08:37:31Z</time></trkpt><trkpt lat="43.37010696523425" lon="13.321580090032787"><ele>261.0</ele><time>2026-04-12T08:37:32Z</time></trkpt><trkpt lat="43.370041092834676" lon="13.321367606089257"><ele>260.0</ele><time>2026-04-12T08:37:33Z</time></trkpt><trkpt lat="43.3699809217374" lon="13.321163603090822"><ele>259.0</ele><time>2026-04-12T08:37:34Z</time></trkpt><trkpt lat="43.369915692096505" lon="13.320961655938472"><ele>259.0</ele><time>2026-04-12T08:37:35Z</time></trkpt><trkpt lat="43.36985570003641" lon="13.320772665520066"><ele>259.0</ele><time>2026-04-12T08:37:36Z</time></trkpt><trkpt lat="43.369809561161375" lon="13.320590693051425"><ele>259.0</ele><time>2026-04-12T08:37:37Z</time></trkpt><trkpt lat="43.369780867056996" lon="13.320398877951853"><ele>259.0</ele><time>2026-04-12T08:37:38Z</time></trkpt><trkpt lat="43.36977847123605" lon="13.320194431212585"><ele>258.3333333333333</ele><time>2026-04-12T08:37:39Z</time></trkpt><trkpt lat="43.36978682103093" lon="13.31996516224576"><ele>257.6666666666667</ele><time>2026-04-12T08:37:40Z</time></trkpt><trkpt lat="43.369800236872294" lon="13.319734493011"><ele>257.0</ele><time>2026-04-12T08:37:41Z</time></trkpt><trkpt lat="43.36980044918448" lon="13.319510181773202"><ele>257.0</ele><time>2026-04-12T08:37:42Z</time></trkpt><trkpt lat="43.369790677780315" lon="13.319279660052349"><ele>257.0</ele><time>2026-04-12T08:37:43Z</time></trkpt><trkpt lat="43.36976554959761" lon="13.319045050088853"><ele>257.0</ele><time>2026-04-12T08:37:44Z</time></trkpt><trkpt lat="43.36972460167473" lon="13.318817384941287"><ele>256.33333333333337</ele><time>2026-04-12T08:37:45Z</time></trkpt><trkpt lat="43.36968145401124" lon="13.318597153005115"><ele>255.66666666666669</ele><time>2026-04-12T08:37:46Z</time></trkpt><trkpt lat="43.36964050132569" lon="13.318385928422641"><ele>255.0</ele><time>2026-04-12T08:37:47Z</time></trkpt><trkpt lat="43.36960134333189" lon="13.318167200941508"><ele>255.0</ele><time>2026-04-12T08:37:48.001Z</time></trkpt><trkpt lat="43.36956663595222" lon="13.317945032579715"><ele>255.0</ele><time>2026-04-12T08:37:49.001Z</time></trkpt><trkpt lat="43.369533744422064" lon="13.317722414999082"><ele>255.0</ele><time>2026-04-12T08:37:50.001Z</time></trkpt><trkpt lat="43.36950221923214" lon="13.317501384676698"><ele>255.0</ele><time>2026-04-12T08:37:51.001Z</time></trkpt><trkpt lat="43.36947122672255" lon="13.317278245074663"><ele>255.0</ele><time>2026-04-12T08:37:52.001Z</time></trkpt><trkpt lat="43.369435604529016" lon="13.31705509273742"><ele>255.0</ele><time>2026-04-12T08:37:53.001Z</time></trkpt><trkpt lat="43.369381329305746" lon="13.316848819145724"><ele>254.66666666666669</ele><time>2026-04-12T08:37:54.001Z</time></trkpt><trkpt lat="43.36931135445666" lon="13.316654150742345"><ele>254.33333333333334</ele><time>2026-04-12T08:37:55.001Z</time></trkpt><trkpt lat="43.36922743530663" lon="13.31646380513695"><ele>254.0</ele><time>2026-04-12T08:37:56.001Z</time></trkpt><trkpt lat="43.3691375255982" lon="13.316272303721954"><ele>252.33333333333334</ele><time>2026-04-12T08:37:57.001Z</time></trkpt><trkpt lat="43.36903872893951" lon="13.316072398755688"><ele>250.66666666666669</ele><time>2026-04-12T08:37:58.001Z</time></trkpt><trkpt lat="43.36894001410063" lon="13.315852455447956"><ele>249.0</ele><time>2026-04-12T08:37:59.001Z</time></trkpt><trkpt lat="43.36884008723626" lon="13.315625712065758"><ele>248.33333333333331</ele><time>2026-04-12T08:38:00.001Z</time></trkpt><trkpt lat="43.368742154563016" lon="13.315424115049677"><ele>247.66666666666666</ele><time>2026-04-12T08:38:01.001Z</time></trkpt><trkpt lat="43.36865579481057" lon="13.315226880127117"><ele>247.0</ele><time>2026-04-12T08:38:02.001Z</time></trkpt><trkpt lat="43.368571151483636" lon="13.315027710813485"><ele>247.0</ele><time>2026-04-12T08:38:03.001Z</time></trkpt><trkpt lat="43.36849378323005" lon="13.314844630443746"><ele>247.0</ele><time>2026-04-12T08:38:04.001Z</time></trkpt><trkpt lat="43.3684316921777" lon="13.31468359594043"><ele>247.0</ele><time>2026-04-12T08:38:05.001Z</time></trkpt><trkpt lat="43.368388475456506" lon="13.314540065359065"><ele>247.0</ele><time>2026-04-12T08:38:06.001Z</time></trkpt><trkpt lat="43.368353481269125" lon="13.314402667296212"><ele>246.0</ele><time>2026-04-12T08:38:07.001Z</time></trkpt><trkpt lat="43.36832060269854" lon="13.314269291458364"><ele>245.0</ele><time>2026-04-12T08:38:08Z</time></trkpt><trkpt lat="43.36827715123993" lon="13.31413244067811"><ele>244.0</ele><time>2026-04-12T08:38:09Z</time></trkpt><trkpt lat="43.36823172367533" lon="13.313992987692384"><ele>243.0</ele><time>2026-04-12T08:38:10Z</time></trkpt><trkpt lat="43.36818556272061" lon="13.313841288945756"><ele>242.0</ele><time>2026-04-12T08:38:11Z</time></trkpt><trkpt lat="43.36813992776581" lon="13.313704545775614"><ele>242.5</ele><time>2026-04-12T08:38:12Z</time></trkpt><trkpt lat="43.36809498683725" lon="13.31352635214745"><ele>243.0</ele><time>2026-04-12T08:38:13Z</time></trkpt><trkpt lat="43.36803744813331" lon="13.31333653974134"><ele>243.5</ele><time>2026-04-12T08:38:14Z</time></trkpt><trkpt lat="43.36800872647571" lon="13.313168950971535"><ele>244.0</ele><time>2026-04-12T08:38:15Z</time></trkpt><trkpt lat="43.36798609862051" lon="13.31298601342534"><ele>244.0</ele><time>2026-04-12T08:38:16Z</time></trkpt><trkpt lat="43.367970325807406" lon="13.31279701380482"><ele>244.0</ele><time>2026-04-12T08:38:17Z</time></trkpt><trkpt lat="43.36794942056817" lon="13.312613029143693"><ele>244.0</ele><time>2026-04-12T08:38:18Z</time></trkpt><trkpt lat="43.367918345096705" lon="13.312424648275831"><ele>244.0</ele><time>2026-04-12T08:38:19Z</time></trkpt><trkpt lat="43.3678783466767" lon="13.312235734888782"><ele>243.0</ele><time>2026-04-12T08:38:20Z</time></trkpt><trkpt lat="43.367834031006915" lon="13.312041567239312"><ele>242.0</ele><time>2026-04-12T08:38:21Z</time></trkpt><trkpt lat="43.367787004804086" lon="13.31184468706473"><ele>241.0</ele><time>2026-04-12T08:38:22Z</time></trkpt><trkpt lat="43.36773278839123" lon="13.311643425649379"><ele>241.0</ele><time>2026-04-12T08:38:23Z</time></trkpt><trkpt lat="43.367674074023434" lon="13.311444372442635"><ele>241.0</ele><time>2026-04-12T08:38:24Z</time></trkpt><trkpt lat="43.36762053321555" lon="13.311254208092802"><ele>241.0</ele><time>2026-04-12T08:38:25Z</time></trkpt><trkpt lat="43.367564214841856" lon="13.311064710970232"><ele>239.75</ele><time>2026-04-12T08:38:26Z</time></trkpt><trkpt lat="43.36750872812793" lon="13.310875755520861"><ele>238.5</ele><time>2026-04-12T08:38:27Z</time></trkpt><trkpt lat="43.36743165571894" lon="13.310703832581945"><ele>237.25</ele><time>2026-04-12T08:38:28Z</time></trkpt><trkpt lat="43.36734373136508" lon="13.310554840325961"><ele>236.0</ele><time>2026-04-12T08:38:29Z</time></trkpt><trkpt lat="43.367241868170225" lon="13.31042994348287"><ele>236.5</ele><time>2026-04-12T08:38:30Z</time></trkpt><trkpt lat="43.36713210094021" lon="13.310318915641131"><ele>237.0</ele><time>2026-04-12T08:38:31Z</time></trkpt><trkpt lat="43.367020940571635" lon="13.310204381116959"><ele>237.5</ele><time>2026-04-12T08:38:32Z</time></trkpt><trkpt lat="43.366909834726606" lon="13.310088862357912"><ele>238.0</ele><time>2026-04-12T08:38:33Z</time></trkpt><trkpt lat="43.36678634430513" lon="13.309968633312128"><ele>238.0</ele><time>2026-04-12T08:38:34Z</time></trkpt><trkpt lat="43.36665857272433" lon="13.309849375480477"><ele>238.0</ele><time>2026-04-12T08:38:35Z</time></trkpt><trkpt lat="43.36655147250224" lon="13.309717890602567"><ele>238.0</ele><time>2026-04-12T08:38:36Z</time></trkpt><trkpt lat="43.36643335696449" lon="13.30962581743075"><ele>238.0</ele><time>2026-04-12T08:38:37Z</time></trkpt><trkpt lat="43.36632814761619" lon="13.309514077477045"><ele>236.0</ele><time>2026-04-12T08:38:38Z</time></trkpt><trkpt lat="43.36621575186685" lon="13.309399772949082"><ele>234.0</ele><time>2026-04-12T08:38:39Z</time></trkpt><trkpt lat="43.36610546788212" lon="13.309290297853437"><ele>232.0</ele><time>2026-04-12T08:38:40Z</time></trkpt><trkpt lat="43.36599234381235" lon="13.309178625804288"><ele>230.0</ele><time>2026-04-12T08:38:41Z</time></trkpt><trkpt lat="43.36587392871602" lon="13.309063746319444"><ele>230.0</ele><time>2026-04-12T08:38:42Z</time></trkpt><trkpt lat="43.36575134767669" lon="13.308944648423182"><ele>230.0</ele><time>2026-04-12T08:38:43Z</time></trkpt><trkpt lat="43.36562310645092" lon="13.308822133507956"><ele>230.0</ele><time>2026-04-12T08:38:44Z</time></trkpt><trkpt lat="43.365493063347465" lon="13.308700869338816"><ele>229.25</ele><time>2026-04-12T08:38:45Z</time></trkpt><trkpt lat="43.365366113862095" lon="13.308596880229354"><ele>228.5</ele><time>2026-04-12T08:38:46Z</time></trkpt><trkpt lat="43.36523677014441" lon="13.308513663450402"><ele>227.75</ele><time>2026-04-12T08:38:47Z</time></trkpt><trkpt lat="43.36510561896522" lon="13.308455297170473"><ele>227.0</ele><time>2026-04-12T08:38:48Z</time></trkpt><trkpt lat="43.364980543506256" lon="13.308397807258567"><ele>227.0</ele><time>2026-04-12T08:38:49Z</time></trkpt><trkpt lat="43.36487993313753" lon="13.308315685128827"><ele>227.0</ele><time>2026-04-12T08:38:50Z</time></trkpt><trkpt lat="43.36480049019435" lon="13.308205037044862"><ele>227.0</ele><time>2026-04-12T08:38:51Z</time></trkpt><trkpt lat="43.36472876133254" lon="13.30808289674552"><ele>227.0</ele><time>2026-04-12T08:38:52Z</time></trkpt><trkpt lat="43.36466620483182" lon="13.307964857185086"><ele>227.66666666666669</ele><time>2026-04-12T08:38:53Z</time></trkpt><trkpt lat="43.36462297222454" lon="13.30785890274794"><ele>228.33333333333334</ele><time>2026-04-12T08:38:54Z</time></trkpt><trkpt lat="43.364579397728534" lon="13.307768051722746"><ele>229.0</ele><time>2026-04-12T08:38:55Z</time></trkpt><trkpt lat="43.36454965934027" lon="13.307690989406321"><ele>229.66666666666669</ele><time>2026-04-12T08:38:56Z</time></trkpt><trkpt lat="43.36451305809327" lon="13.307604454527391"><ele>230.33333333333334</ele><time>2026-04-12T08:38:58Z</time></trkpt><trkpt lat="43.364421486893974" lon="13.30767547775162"><ele>231.0</ele><time>2026-04-12T08:39:00Z</time></trkpt><trkpt lat="43.36430801544849" lon="13.307798254014163"><ele>231.0</ele><time>2026-04-12T08:39:02Z</time></trkpt><trkpt lat="43.36422063451571" lon="13.307895339531811"><ele>231.0</ele><time>2026-04-12T08:39:03Z</time></trkpt><trkpt lat="43.36412202007055" lon="13.30800345941625"><ele>231.0</ele><time>2026-04-12T08:39:04Z</time></trkpt><trkpt lat="43.36401244038359" lon="13.30811981116314"><ele>231.0</ele><time>2026-04-12T08:39:05Z</time></trkpt><trkpt lat="43.363900161942915" lon="13.308236952647425"><ele>232.0</ele><time>2026-04-12T08:39:06Z</time></trkpt><trkpt lat="43.36379460979163" lon="13.308349140815425"><ele>233.00000000000003</ele><time>2026-04-12T08:39:07Z</time></trkpt><trkpt lat="43.36370856236461" lon="13.30847248207361"><ele>234.00000000000003</ele><time>2026-04-12T08:39:08Z</time></trkpt><trkpt lat="43.36363700932855" lon="13.308546260166812"><ele>235.0</ele><time>2026-04-12T08:39:09Z</time></trkpt><trkpt lat="43.36358000520598" lon="13.308599601129336"><ele>236.0</ele><time>2026-04-12T08:39:10Z</time></trkpt><trkpt lat="43.36348998073542" lon="13.30870599946393"><ele>236.0</ele><time>2026-04-12T08:39:12Z</time></trkpt><trkpt lat="43.36343786199324" lon="13.308770042636723"><ele>236.00000000000003</ele><time>2026-04-12T08:39:13Z</time></trkpt><trkpt lat="43.36335127785976" lon="13.308873503459637"><ele>236.00000000000003</ele><time>2026-04-12T08:39:15Z</time></trkpt><trkpt lat="43.363254468300816" lon="13.308962217599152"><ele>236.0</ele><time>2026-04-12T08:39:17Z</time></trkpt><trkpt lat="43.363156398137306" lon="13.309052461653948"><ele>236.0</ele><time>2026-04-12T08:39:19Z</time></trkpt><trkpt lat="43.36306968314499" lon="13.309160452934938"><ele>233.8</ele><time>2026-04-12T08:39:21Z</time></trkpt><trkpt lat="43.36298990507299" lon="13.309238279430492"><ele>231.60000000000002</ele><time>2026-04-12T08:39:23Z</time></trkpt><trkpt lat="43.36292219809931" lon="13.309312021308855"><ele>229.4</ele><time>2026-04-12T08:39:25Z</time></trkpt><trkpt lat="43.36284482102828" lon="13.309386726896797"><ele>227.2</ele><time>2026-04-12T08:39:27Z</time></trkpt><trkpt lat="43.36278282473759" lon="13.309468562740932"><ele>225.0</ele><time>2026-04-12T08:39:29Z</time></trkpt><trkpt lat="43.36275027323352" lon="13.309591826873211"><ele>225.2</ele><time>2026-04-12T08:39:31Z</time></trkpt><trkpt lat="43.362746147109995" lon="13.309761524159404"><ele>225.4</ele><time>2026-04-12T08:39:33Z</time></trkpt><trkpt lat="43.362760765343495" lon="13.309857290860787"><ele>225.60000000000002</ele><time>2026-04-12T08:39:34Z</time></trkpt><trkpt lat="43.36280148929555" lon="13.309949136922873"><ele>225.8</ele><time>2026-04-12T08:39:35Z</time></trkpt><trkpt lat="43.36287112703022" lon="13.310073128622099"><ele>226.0</ele><time>2026-04-12T08:39:37Z</time></trkpt><trkpt lat="43.36291865149982" lon="13.310139309181128"><ele>225.99999999999997</ele><time>2026-04-12T08:39:38Z</time></trkpt><trkpt lat="43.362979548453865" lon="13.310206281772528"><ele>226.0</ele><time>2026-04-12T08:39:39Z</time></trkpt><trkpt lat="43.36304385678152" lon="13.310266257847884"><ele>226.0</ele><time>2026-04-12T08:39:40Z</time></trkpt><trkpt lat="43.363135579308135" lon="13.31032582511855"><ele>226.0</ele><time>2026-04-12T08:39:42Z</time></trkpt><trkpt lat="43.363195600546526" lon="13.31037494799429"><ele>225.99999999999997</ele><time>2026-04-12T08:39:43Z</time></trkpt><trkpt lat="43.36325610832966" lon="13.310421849132531"><ele>226.0</ele><time>2026-04-12T08:39:44Z</time></trkpt><trkpt lat="43.363308337926746" lon="13.310472816295231"><ele>225.33333333333331</ele><time>2026-04-12T08:39:45Z</time></trkpt><trkpt lat="43.36336692402747" lon="13.31054708340501"><ele>224.66666666666666</ele><time>2026-04-12T08:39:47Z</time></trkpt><trkpt lat="43.3633804863566" lon="13.310649104467046"><ele>224.0</ele><time>2026-04-12T08:39:49Z</time></trkpt><trkpt lat="43.36332584623327" lon="13.310785210860375"><ele>223.33333333333331</ele><time>2026-04-12T08:39:51Z</time></trkpt><trkpt lat="43.36327621244817" lon="13.310849412075731"><ele>222.66666666666666</ele><time>2026-04-12T08:39:52Z</time></trkpt><trkpt lat="43.36320568818554" lon="13.31084939254175"><ele>222.0</ele><time>2026-04-12T08:39:53Z</time></trkpt><trkpt lat="43.36313517714627" lon="13.310875916965312"><ele>222.0</ele><time>2026-04-12T08:39:54Z</time></trkpt><trkpt lat="43.36305787999589" lon="13.310929313827256"><ele>222.0</ele><time>2026-04-12T08:39:55Z</time></trkpt><trkpt lat="43.36297370844466" lon="13.310951993870875"><ele>222.0</ele><time>2026-04-12T08:39:56Z</time></trkpt><trkpt lat="43.36287295787497" lon="13.310993710765588"><ele>222.0</ele><time>2026-04-12T08:39:57Z</time></trkpt><trkpt lat="43.362775225654644" lon="13.311037620095451"><ele>222.0</ele><time>2026-04-12T08:39:58Z</time></trkpt><trkpt lat="43.362687765330506" lon="13.311090650338384"><ele>223.8</ele><time>2026-04-12T08:39:59Z</time></trkpt><trkpt lat="43.362597833254846" lon="13.31114952321924"><ele>225.6</ele><time>2026-04-12T08:40:00Z</time></trkpt><trkpt lat="43.36250627797216" lon="13.311212615954672"><ele>227.40000000000003</ele><time>2026-04-12T08:40:01Z</time></trkpt><trkpt lat="43.36241315918704" lon="13.311269259160978"><ele>229.20000000000002</ele><time>2026-04-12T08:40:02Z</time></trkpt><trkpt lat="43.362304129387944" lon="13.311324388264737"><ele>231.0</ele><time>2026-04-12T08:40:03Z</time></trkpt><trkpt lat="43.36218704801142" lon="13.311377475484534"><ele>232.0</ele><time>2026-04-12T08:40:04Z</time></trkpt><trkpt lat="43.36206286179597" lon="13.311439928674044"><ele>233.0</ele><time>2026-04-12T08:40:05.001Z</time></trkpt><trkpt lat="43.361929010673016" lon="13.311504656530316"><ele>234.0</ele><time>2026-04-12T08:40:06.001Z</time></trkpt><trkpt lat="43.36180004607114" lon="13.311574288218155"><ele>235.0</ele><time>2026-04-12T08:40:07.001Z</time></trkpt><trkpt lat="43.361653740931935" lon="13.311648303243127"><ele>235.0</ele><time>2026-04-12T08:40:08.001Z</time></trkpt><trkpt lat="43.361509440891375" lon="13.311723883628835"><ele>235.0</ele><time>2026-04-12T08:40:09.001Z</time></trkpt><trkpt lat="43.361374331081535" lon="13.31179305216743"><ele>235.0</ele><time>2026-04-12T08:40:10.001Z</time></trkpt><trkpt lat="43.361233046030215" lon="13.311870522310809"><ele>235.0</ele><time>2026-04-12T08:40:11.001Z</time></trkpt><trkpt lat="43.36106995708641" lon="13.311953425394602"><ele>235.0</ele><time>2026-04-12T08:40:12.001Z</time></trkpt><trkpt lat="43.36090774537617" lon="13.312041790681194"><ele>235.0</ele><time>2026-04-12T08:40:13.001Z</time></trkpt><trkpt lat="43.36073464202248" lon="13.31213022921146"><ele>235.0</ele><time>2026-04-12T08:40:14Z</time></trkpt><trkpt lat="43.36057696169401" lon="13.312209852595393"><ele>235.0</ele><time>2026-04-12T08:40:15Z</time></trkpt><trkpt lat="43.36044326086407" lon="13.312280381672668"><ele>235.0</ele><time>2026-04-12T08:40:16Z</time></trkpt><trkpt lat="43.360330311038496" lon="13.312339062856752"><ele>235.0</ele><time>2026-04-12T08:40:17Z</time></trkpt><trkpt lat="43.36024228258359" lon="13.312386445570665"><ele>234.99999999999997</ele><time>2026-04-12T08:40:18Z</time></trkpt><trkpt lat="43.36015213671227" lon="13.312432564296568"><ele>235.0</ele><time>2026-04-12T08:40:19Z</time></trkpt><trkpt lat="43.36006656615779" lon="13.312481536514035"><ele>235.0</ele><time>2026-04-12T08:40:20Z</time></trkpt><trkpt lat="43.35998966031442" lon="13.312504681081144"><ele>235.0</ele><time>2026-04-12T08:40:21Z</time></trkpt><trkpt lat="43.359924365714726" lon="13.312587851001805"><ele>234.99999999999997</ele><time>2026-04-12T08:40:23Z</time></trkpt><trkpt lat="43.35986900659031" lon="13.312535290391235"><ele>235.0</ele><time>2026-04-12T08:40:27Z</time></trkpt><trkpt lat="43.35980977029882" lon="13.31235415855858"><ele>235.0</ele><time>2026-04-12T08:40:29Z</time></trkpt><trkpt lat="43.35978443959218" lon="13.31221150573636"><ele>235.0</ele><time>2026-04-12T08:40:30Z</time></trkpt><trkpt lat="43.3597577875228" lon="13.312093223865643"><ele>235.0</ele><time>2026-04-12T08:40:31Z</time></trkpt><trkpt lat="43.35972982733355" lon="13.311994610609782"><ele>235.0</ele><time>2026-04-12T08:40:32Z</time></trkpt><trkpt lat="43.35969306979183" lon="13.311889753543412"><ele>235.0</ele><time>2026-04-12T08:40:33Z</time></trkpt><trkpt lat="43.3596460780083" lon="13.311770363685437"><ele>235.25</ele><time>2026-04-12T08:40:34Z</time></trkpt><trkpt lat="43.359598870386264" lon="13.311623207962429"><ele>235.5</ele><time>2026-04-12T08:40:35Z</time></trkpt><trkpt lat="43.35955499853479" lon="13.311445496682312"><ele>235.75</ele><time>2026-04-12T08:40:36Z</time></trkpt><trkpt lat="43.35950353280488" lon="13.311245027233426"><ele>236.0</ele><time>2026-04-12T08:40:37Z</time></trkpt><trkpt lat="43.359443567758525" lon="13.31103879615069"><ele>236.33333333333334</ele><time>2026-04-12T08:40:38Z</time></trkpt><trkpt lat="43.359377665464365" lon="13.310829737241752"><ele>236.66666666666669</ele><time>2026-04-12T08:40:39Z</time></trkpt><trkpt lat="43.35931385232558" lon="13.310638700820496"><ele>237.0</ele><time>2026-04-12T08:40:40Z</time></trkpt><trkpt lat="43.35924637076219" lon="13.31044886221251"><ele>237.33333333333331</ele><time>2026-04-12T08:40:41Z</time></trkpt><trkpt lat="43.359181467145824" lon="13.310260808804033"><ele>237.66666666666666</ele><time>2026-04-12T08:40:42Z</time></trkpt><trkpt lat="43.35911605959728" lon="13.310082931687973"><ele>238.0</ele><time>2026-04-12T08:40:43Z</time></trkpt><trkpt lat="43.359040243023145" lon="13.309870909018386"><ele>238.33333333333331</ele><time>2026-04-12T08:40:44Z</time></trkpt><trkpt lat="43.35896847550524" lon="13.309650191419703"><ele>238.66666666666669</ele><time>2026-04-12T08:40:45Z</time></trkpt><trkpt lat="43.35891309751657" lon="13.309456397938394"><ele>239.0</ele><time>2026-04-12T08:40:46Z</time></trkpt><trkpt lat="43.35885887695132" lon="13.309275153701659"><ele>239.2</ele><time>2026-04-12T08:40:47Z</time></trkpt><trkpt lat="43.35880326734359" lon="13.309104663713404"><ele>239.39999999999998</ele><time>2026-04-12T08:40:48Z</time></trkpt><trkpt lat="43.35875126439141" lon="13.308945941076944"><ele>239.6</ele><time>2026-04-12T08:40:49Z</time></trkpt><trkpt lat="43.35870760396487" lon="13.308815400856972"><ele>239.8</ele><time>2026-04-12T08:40:50Z</time></trkpt><trkpt lat="43.35867823568079" lon="13.308724944700346"><ele>240.0</ele><time>2026-04-12T08:40:51Z</time></trkpt><trkpt lat="43.35863716229394" lon="13.308603812509105"><ele>241.0</ele><time>2026-04-12T08:40:53Z</time></trkpt><trkpt lat="43.358605175528524" lon="13.308507029463263"><ele>242.0</ele><time>2026-04-12T08:40:54Z</time></trkpt><trkpt lat="43.35855346379333" lon="13.30837155290287"><ele>243.0</ele><time>2026-04-12T08:40:55Z</time></trkpt><trkpt lat="43.358478086416206" lon="13.308180079507228"><ele>244.0</ele><time>2026-04-12T08:40:56Z</time></trkpt><trkpt lat="43.358422725179196" lon="13.307999940826416"><ele>244.33333333333331</ele><time>2026-04-12T08:40:57Z</time></trkpt><trkpt lat="43.35835542411309" lon="13.307795996923486"><ele>244.66666666666669</ele><time>2026-04-12T08:40:58Z</time></trkpt><trkpt lat="43.358286493934145" lon="13.307579434455812"><ele>245.0</ele><time>2026-04-12T08:40:59Z</time></trkpt><trkpt lat="43.35821084164043" lon="13.30736122406079"><ele>245.0</ele><time>2026-04-12T08:41:00Z</time></trkpt><trkpt lat="43.35813848997555" lon="13.307145585788353"><ele>245.0</ele><time>2026-04-12T08:41:01Z</time></trkpt><trkpt lat="43.358066912556794" lon="13.306924592156044"><ele>245.0</ele><time>2026-04-12T08:41:02Z</time></trkpt><trkpt lat="43.35798515405192" lon="13.306675768207517"><ele>245.33333333333334</ele><time>2026-04-12T08:41:03Z</time></trkpt><trkpt lat="43.35789883173479" lon="13.30641071506331"><ele>245.66666666666669</ele><time>2026-04-12T08:41:04Z</time></trkpt><trkpt lat="43.35781460880383" lon="13.306160240691591"><ele>246.0</ele><time>2026-04-12T08:41:05Z</time></trkpt><trkpt lat="43.357742639357646" lon="13.30594222902991"><ele>246.0</ele><time>2026-04-12T08:41:06Z</time></trkpt><trkpt lat="43.357675274581744" lon="13.305735742101467"><ele>246.0</ele><time>2026-04-12T08:41:07Z</time></trkpt><trkpt lat="43.35761166782875" lon="13.305541329263356"><ele>246.0</ele><time>2026-04-12T08:41:08Z</time></trkpt><trkpt lat="43.35754937095383" lon="13.305353335452986"><ele>246.0</ele><time>2026-04-12T08:41:09Z</time></trkpt><trkpt lat="43.35748669870209" lon="13.305163557496213"><ele>246.0</ele><time>2026-04-12T08:41:10Z</time></trkpt><trkpt lat="43.35743307521546" lon="13.304996918235812"><ele>246.0</ele><time>2026-04-12T08:41:11Z</time></trkpt><trkpt lat="43.357381553827736" lon="13.304846894215448"><ele>246.0</ele><time>2026-04-12T08:41:12Z</time></trkpt><trkpt lat="43.357335557795295" lon="13.304713611397702"><ele>245.8</ele><time>2026-04-12T08:41:13Z</time></trkpt><trkpt lat="43.35730456623044" lon="13.304618984860797"><ele>245.60000000000002</ele><time>2026-04-12T08:41:14Z</time></trkpt><trkpt lat="43.35724993060202" lon="13.304497194135868"><ele>245.4</ele><time>2026-04-12T08:41:16Z</time></trkpt><trkpt lat="43.35713617902173" lon="13.304435445767153"><ele>245.2</ele><time>2026-04-12T08:41:20Z</time></trkpt><trkpt lat="43.35705188872752" lon="13.304457111230047"><ele>245.0</ele><time>2026-04-12T08:41:21Z</time></trkpt><trkpt lat="43.356966597624506" lon="13.30448105900118"><ele>246.25</ele><time>2026-04-12T08:41:22Z</time></trkpt><trkpt lat="43.356862256503575" lon="13.304505947975949"><ele>247.5</ele><time>2026-04-12T08:41:23Z</time></trkpt><trkpt lat="43.35673239595945" lon="13.30453388017795"><ele>248.75</ele><time>2026-04-12T08:41:24Z</time></trkpt><trkpt lat="43.356606548861656" lon="13.30456094902579"><ele>250.0</ele><time>2026-04-12T08:41:25Z</time></trkpt><trkpt lat="43.35648306337523" lon="13.304588735754113"><ele>250.0</ele><time>2026-04-12T08:41:26Z</time></trkpt><trkpt lat="43.35638430825455" lon="13.304630982596263"><ele>250.0</ele><time>2026-04-12T08:41:27Z</time></trkpt><trkpt lat="43.35628006570662" lon="13.304658044953594"><ele>250.0</ele><time>2026-04-12T08:41:28Z</time></trkpt><trkpt lat="43.356158873320275" lon="13.304694388466775"><ele>250.0</ele><time>2026-04-12T08:41:29Z</time></trkpt><trkpt lat="43.35600840804107" lon="13.30473346474253"><ele>250.0</ele><time>2026-04-12T08:41:30Z</time></trkpt><trkpt lat="43.355873328269055" lon="13.30476766315991"><ele>250.0</ele><time>2026-04-12T08:41:31Z</time></trkpt><trkpt lat="43.35573423364644" lon="13.304795137215763"><ele>250.0</ele><time>2026-04-12T08:41:32Z</time></trkpt><trkpt lat="43.35558435193505" lon="13.304805687758554"><ele>250.0</ele><time>2026-04-12T08:41:33Z</time></trkpt><trkpt lat="43.35543091236616" lon="13.304833498457535"><ele>250.33333333333331</ele><time>2026-04-12T08:41:34Z</time></trkpt><trkpt lat="43.355289027367206" lon="13.304876113624996"><ele>250.66666666666669</ele><time>2026-04-12T08:41:35Z</time></trkpt><trkpt lat="43.355141095516395" lon="13.304908624824462"><ele>251.0</ele><time>2026-04-12T08:41:36Z</time></trkpt><trkpt lat="43.35498830786253" lon="13.304954153531478"><ele>251.0</ele><time>2026-04-12T08:41:37Z</time></trkpt><trkpt lat="43.35486201464934" lon="13.304991827039807"><ele>251.0</ele><time>2026-04-12T08:41:38Z</time></trkpt><trkpt lat="43.35474003417031" lon="13.30503376169158"><ele>251.0</ele><time>2026-04-12T08:41:39Z</time></trkpt><trkpt lat="43.354621325534886" lon="13.305101363980498"><ele>251.0</ele><time>2026-04-12T08:41:40Z</time></trkpt><trkpt lat="43.35452430276451" lon="13.305166129911365"><ele>251.60000000000002</ele><time>2026-04-12T08:41:41Z</time></trkpt><trkpt lat="43.35441672672841" lon="13.305246012131873"><ele>252.20000000000002</ele><time>2026-04-12T08:41:42Z</time></trkpt><trkpt lat="43.35433043524601" lon="13.305278107216292"><ele>252.79999999999998</ele><time>2026-04-12T08:41:43Z</time></trkpt><trkpt lat="43.35423977875835" lon="13.305292542268386"><ele>253.39999999999998</ele><time>2026-04-12T08:41:44Z</time></trkpt><trkpt lat="43.3541157152896" lon="13.305270690978656"><ele>254.0</ele><time>2026-04-12T08:41:45Z</time></trkpt><trkpt lat="43.35395824954107" lon="13.30528151858263"><ele>254.0</ele><time>2026-04-12T08:41:46Z</time></trkpt><trkpt lat="43.353795734239576" lon="13.305332969699576"><ele>254.0</ele><time>2026-04-12T08:41:47Z</time></trkpt><trkpt lat="43.35362684571634" lon="13.305371941082173"><ele>254.0</ele><time>2026-04-12T08:41:48Z</time></trkpt><trkpt lat="43.353444240482965" lon="13.30541178009482"><ele>254.0</ele><time>2026-04-12T08:41:49Z</time></trkpt><trkpt lat="43.3532564817861" lon="13.305474150596964"><ele>254.0</ele><time>2026-04-12T08:41:50Z</time></trkpt><trkpt lat="43.353064558752806" lon="13.305529097288561"><ele>254.0</ele><time>2026-04-12T08:41:51Z</time></trkpt><trkpt lat="43.352881572061065" lon="13.305587538181129"><ele>254.66666666666669</ele><time>2026-04-12T08:41:52Z</time></trkpt><trkpt lat="43.35270248719535" lon="13.30564538055812"><ele>255.33333333333331</ele><time>2026-04-12T08:41:53Z</time></trkpt><trkpt lat="43.352532658067396" lon="13.305701107026989"><ele>256.0</ele><time>2026-04-12T08:41:54Z</time></trkpt><trkpt lat="43.3523719195763" lon="13.305757919322835"><ele>255.66666666666666</ele><time>2026-04-12T08:41:55Z</time></trkpt><trkpt lat="43.35219576637355" lon="13.305817153508112"><ele>255.33333333333331</ele><time>2026-04-12T08:41:56Z</time></trkpt><trkpt lat="43.35200709223149" lon="13.305883034183003"><ele>255.0</ele><time>2026-04-12T08:41:57Z</time></trkpt><trkpt lat="43.35182447162275" lon="13.30594982142612"><ele>255.0</ele><time>2026-04-12T08:41:58Z</time></trkpt><trkpt lat="43.35162912032221" lon="13.306015696924991"><ele>255.0</ele><time>2026-04-12T08:41:59Z</time></trkpt><trkpt lat="43.35143881941342" lon="13.30607732729049"><ele>255.0</ele><time>2026-04-12T08:42:00Z</time></trkpt><trkpt lat="43.35125534026513" lon="13.306109898956091"><ele>255.66666666666669</ele><time>2026-04-12T08:42:01Z</time></trkpt><trkpt lat="43.35108283779594" lon="13.306161863156232"><ele>256.33333333333337</ele><time>2026-04-12T08:42:02Z</time></trkpt><trkpt lat="43.35090694048425" lon="13.306218216030445"><ele>257.0</ele><time>2026-04-12T08:42:03Z</time></trkpt><trkpt lat="43.35074521703593" lon="13.306270027971374"><ele>257.0</ele><time>2026-04-12T08:42:04Z</time></trkpt><trkpt lat="43.35059348464121" lon="13.30631789372167"><ele>257.0</ele><time>2026-04-12T08:42:05Z</time></trkpt><trkpt lat="43.350442946076456" lon="13.306364645675918"><ele>257.0</ele><time>2026-04-12T08:42:06Z</time></trkpt><trkpt lat="43.350304645961984" lon="13.306405950815522"><ele>256.8</ele><time>2026-04-12T08:42:07Z</time></trkpt><trkpt lat="43.350173186414985" lon="13.306447169617499"><ele>256.6</ele><time>2026-04-12T08:42:08Z</time></trkpt><trkpt lat="43.35005629888256" lon="13.306486547353646"><ele>256.40000000000003</ele><time>2026-04-12T08:42:09Z</time></trkpt><trkpt lat="43.34995145924033" lon="13.306515844473168"><ele>256.2</ele><time>2026-04-12T08:42:10Z</time></trkpt><trkpt lat="43.34987677630561" lon="13.306535635205721"><ele>256.0</ele><time>2026-04-12T08:42:11Z</time></trkpt><trkpt lat="43.34980341509919" lon="13.306546862704389"><ele>256.2</ele><time>2026-04-12T08:42:13Z</time></trkpt><trkpt lat="43.34977298493301" lon="13.306376807472287"><ele>256.40000000000003</ele><time>2026-04-12T08:42:28Z</time></trkpt><trkpt lat="43.34981029582653" lon="13.306221752353466"><ele>256.6</ele><time>2026-04-12T08:42:30Z</time></trkpt><trkpt lat="43.349832805059044" lon="13.306131352605712"><ele>256.8</ele><time>2026-04-12T08:42:31Z</time></trkpt><trkpt lat="43.34985266745962" lon="13.306015926496496"><ele>257.0</ele><time>2026-04-12T08:42:32Z</time></trkpt><trkpt lat="43.34987864254993" lon="13.30588985737646"><ele>257.0</ele><time>2026-04-12T08:42:33Z</time></trkpt><trkpt lat="43.349910589486235" lon="13.305759762448384"><ele>257.0</ele><time>2026-04-12T08:42:34Z</time></trkpt><trkpt lat="43.34994041961232" lon="13.305624001742311"><ele>257.0</ele><time>2026-04-12T08:42:35Z</time></trkpt><trkpt lat="43.34997062826158" lon="13.305475206930028"><ele>257.0</ele><time>2026-04-12T08:42:36Z</time></trkpt><trkpt lat="43.35000718489694" lon="13.305312612205936"><ele>257.0</ele><time>2026-04-12T08:42:37Z</time></trkpt><trkpt lat="43.350042631765554" lon="13.305131420511794"><ele>256.33333333333337</ele><time>2026-04-12T08:42:38Z</time></trkpt><trkpt lat="43.35008191279595" lon="13.304938507284838"><ele>255.66666666666669</ele><time>2026-04-12T08:42:39Z</time></trkpt><trkpt lat="43.35012541906282" lon="13.304738872811708"><ele>255.0</ele><time>2026-04-12T08:42:40Z</time></trkpt><trkpt lat="43.35017076632981" lon="13.304533929917953"><ele>254.66666666666669</ele><time>2026-04-12T08:42:41Z</time></trkpt><trkpt lat="43.35021805133568" lon="13.304324061178159"><ele>254.33333333333334</ele><time>2026-04-12T08:42:42Z</time></trkpt><trkpt lat="43.350262804043005" lon="13.304106332298414"><ele>254.0</ele><time>2026-04-12T08:42:43Z</time></trkpt><trkpt lat="43.35030485520821" lon="13.303910481342138"><ele>254.75</ele><time>2026-04-12T08:42:44Z</time></trkpt><trkpt lat="43.35034241355627" lon="13.30374171305547"><ele>255.5</ele><time>2026-04-12T08:42:45Z</time></trkpt><trkpt lat="43.35037306448051" lon="13.303571972917855"><ele>256.25</ele><time>2026-04-12T08:42:46Z</time></trkpt><trkpt lat="43.35039996672847" lon="13.30340042693873"><ele>257.0</ele><time>2026-04-12T08:42:47Z</time></trkpt><trkpt lat="43.35041686393878" lon="13.303251365021994"><ele>257.0</ele><time>2026-04-12T08:42:48Z</time></trkpt><trkpt lat="43.350432052550445" lon="13.303106021382993"><ele>257.0</ele><time>2026-04-12T08:42:49Z</time></trkpt><trkpt lat="43.35044617913219" lon="13.30294695223703"><ele>257.0</ele><time>2026-04-12T08:42:50Z</time></trkpt><trkpt lat="43.35046263383364" lon="13.302784792917006"><ele>257.0</ele><time>2026-04-12T08:42:51Z</time></trkpt><trkpt lat="43.35048114878105" lon="13.302625310740561"><ele>257.2</ele><time>2026-04-12T08:42:52Z</time></trkpt><trkpt lat="43.3504952873616" lon="13.302466262684446"><ele>257.4</ele><time>2026-04-12T08:42:53Z</time></trkpt><trkpt lat="43.35052771056155" lon="13.30231949207356"><ele>257.6</ele><time>2026-04-12T08:42:54Z</time></trkpt><trkpt lat="43.35053230589457" lon="13.302170850008014"><ele>257.8</ele><time>2026-04-12T08:42:55Z</time></trkpt><trkpt lat="43.350550513199764" lon="13.302027654549141"><ele>258.0</ele><time>2026-04-12T08:42:56Z</time></trkpt><trkpt lat="43.35056872592062" lon="13.30186809085797"><ele>259.3333333333333</ele><time>2026-04-12T08:42:57Z</time></trkpt><trkpt lat="43.35058985430024" lon="13.301674921121522"><ele>260.66666666666663</ele><time>2026-04-12T08:42:58Z</time></trkpt><trkpt lat="43.350616983373136" lon="13.301471275725142"><ele>262.0</ele><time>2026-04-12T08:42:59Z</time></trkpt><trkpt lat="43.35064100480718" lon="13.301252346505526"><ele>262.0</ele><time>2026-04-12T08:43:00Z</time></trkpt><trkpt lat="43.350658076697165" lon="13.301024689788088"><ele>262.0</ele><time>2026-04-12T08:43:01Z</time></trkpt><trkpt lat="43.350682586962655" lon="13.300774793563733"><ele>262.0</ele><time>2026-04-12T08:43:02Z</time></trkpt><trkpt lat="43.35072353001794" lon="13.300543726985461"><ele>262.66666666666663</ele><time>2026-04-12T08:43:03Z</time></trkpt><trkpt lat="43.35074737810146" lon="13.300314494866829"><ele>263.3333333333333</ele><time>2026-04-12T08:43:04Z</time></trkpt><trkpt lat="43.35076721789361" lon="13.300096475241256"><ele>264.0</ele><time>2026-04-12T08:43:05Z</time></trkpt><trkpt lat="43.35077331741769" lon="13.299874601663651"><ele>264.5</ele><time>2026-04-12T08:43:06Z</time></trkpt><trkpt lat="43.350791398821016" lon="13.299669274218651"><ele>265.0</ele><time>2026-04-12T08:43:07Z</time></trkpt><trkpt lat="43.350806410591886" lon="13.299490491107248"><ele>265.5</ele><time>2026-04-12T08:43:08Z</time></trkpt><trkpt lat="43.350817366396" lon="13.299327548546474"><ele>266.0</ele><time>2026-04-12T08:43:09Z</time></trkpt><trkpt lat="43.35082549785151" lon="13.299163402250768"><ele>266.0</ele><time>2026-04-12T08:43:10Z</time></trkpt><trkpt lat="43.350846950701644" lon="13.299005633591907"><ele>266.0</ele><time>2026-04-12T08:43:11Z</time></trkpt><trkpt lat="43.35085282510943" lon="13.298850858206906"><ele>266.0</ele><time>2026-04-12T08:43:12Z</time></trkpt><trkpt lat="43.35085603500964" lon="13.298694758621805"><ele>266.0</ele><time>2026-04-12T08:43:13Z</time></trkpt><trkpt lat="43.35085855103101" lon="13.298523644183076"><ele>266.25</ele><time>2026-04-12T08:43:14Z</time></trkpt><trkpt lat="43.35085806928028" lon="13.298342047613238"><ele>266.5</ele><time>2026-04-12T08:43:15Z</time></trkpt><trkpt lat="43.350853899098674" lon="13.298150350205027"><ele>266.75</ele><time>2026-04-12T08:43:16Z</time></trkpt><trkpt lat="43.350826816557664" lon="13.297953114063889"><ele>267.0</ele><time>2026-04-12T08:43:17Z</time></trkpt><trkpt lat="43.35082383311777" lon="13.297772440658283"><ele>267.0</ele><time>2026-04-12T08:43:18Z</time></trkpt><trkpt lat="43.350790743795656" lon="13.297569707758257"><ele>267.0</ele><time>2026-04-12T08:43:19Z</time></trkpt><trkpt lat="43.35074947929424" lon="13.29736155941159"><ele>267.0</ele><time>2026-04-12T08:43:20Z</time></trkpt><trkpt lat="43.350695003575" lon="13.297142036775307"><ele>267.0</ele><time>2026-04-12T08:43:21Z</time></trkpt><trkpt lat="43.350625525680435" lon="13.296891090202372"><ele>267.0</ele><time>2026-04-12T08:43:22Z</time></trkpt><trkpt lat="43.35055935690006" lon="13.296640300480977"><ele>267.0</ele><time>2026-04-12T08:43:23Z</time></trkpt><trkpt lat="43.3504982420788" lon="13.29641767838342"><ele>268.0</ele><time>2026-04-12T08:43:24Z</time></trkpt><trkpt lat="43.35043491740568" lon="13.296219533334993"><ele>269.0</ele><time>2026-04-12T08:43:25Z</time></trkpt><trkpt lat="43.35037537304495" lon="13.296055770743308"><ele>270.0</ele><time>2026-04-12T08:43:26Z</time></trkpt><trkpt lat="43.350320146676424" lon="13.295888616132817"><ele>271.0</ele><time>2026-04-12T08:43:27Z</time></trkpt><trkpt lat="43.350260717817626" lon="13.295716114989885"><ele>271.40000000000003</ele><time>2026-04-12T08:43:28Z</time></trkpt><trkpt lat="43.35021238456983" lon="13.295564863647982"><ele>271.8</ele><time>2026-04-12T08:43:29Z</time></trkpt><trkpt lat="43.350181892062274" lon="13.295437516946254"><ele>272.20000000000005</ele><time>2026-04-12T08:43:30Z</time></trkpt><trkpt lat="43.35016546764006" lon="13.295306427373143"><ele>272.6</ele><time>2026-04-12T08:43:31Z</time></trkpt><trkpt lat="43.35017108344473" lon="13.295153702395172"><ele>273.0</ele><time>2026-04-12T08:43:32Z</time></trkpt><trkpt lat="43.35018612916383" lon="13.294985061673675"><ele>273.0</ele><time>2026-04-12T08:43:33Z</time></trkpt><trkpt lat="43.35021607480256" lon="13.29480979486307"><ele>273.0</ele><time>2026-04-12T08:43:34Z</time></trkpt><trkpt lat="43.350240265179835" lon="13.294631992079179"><ele>273.0</ele><time>2026-04-12T08:43:35Z</time></trkpt><trkpt lat="43.35025854646153" lon="13.294421161364927"><ele>273.0</ele><time>2026-04-12T08:43:36Z</time></trkpt><trkpt lat="43.35026712373473" lon="13.294168765042228"><ele>272.6666666666667</ele><time>2026-04-12T08:43:37Z</time></trkpt><trkpt lat="43.350289895792066" lon="13.293891035659383"><ele>272.33333333333337</ele><time>2026-04-12T08:43:38Z</time></trkpt><trkpt lat="43.35031516011307" lon="13.293627278816743"><ele>272.0</ele><time>2026-04-12T08:43:39Z</time></trkpt><trkpt lat="43.35034086795356" lon="13.293385540234281"><ele>272.0</ele><time>2026-04-12T08:43:40Z</time></trkpt><trkpt lat="43.350366992269954" lon="13.293126128060793"><ele>272.0</ele><time>2026-04-12T08:43:41Z</time></trkpt><trkpt lat="43.35039299674118" lon="13.292875938994134"><ele>272.0</ele><time>2026-04-12T08:43:42Z</time></trkpt><trkpt lat="43.350426878171874" lon="13.292581135824442"><ele>273.0</ele><time>2026-04-12T08:43:43Z</time></trkpt><trkpt lat="43.3504576731883" lon="13.292295770007046"><ele>274.0</ele><time>2026-04-12T08:43:44Z</time></trkpt><trkpt lat="43.35048165831875" lon="13.292030623215748"><ele>275.0</ele><time>2026-04-12T08:43:45Z</time></trkpt><trkpt lat="43.3505011732823" lon="13.291797745382594"><ele>275.0</ele><time>2026-04-12T08:43:46Z</time></trkpt><trkpt lat="43.35051639015299" lon="13.291571497797616"><ele>275.0</ele><time>2026-04-12T08:43:47Z</time></trkpt><trkpt lat="43.35053417344133" lon="13.291371180205763"><ele>275.0</ele><time>2026-04-12T08:43:48Z</time></trkpt><trkpt lat="43.35054877284126" lon="13.291184882852573"><ele>275.0</ele><time>2026-04-12T08:43:49Z</time></trkpt><trkpt lat="43.350560635787694" lon="13.291003534598643"><ele>275.0</ele><time>2026-04-12T08:43:50Z</time></trkpt><trkpt lat="43.35057507184752" lon="13.290802902445387"><ele>275.0</ele><time>2026-04-12T08:43:51Z</time></trkpt><trkpt lat="43.350586775725155" lon="13.290626228473277"><ele>275.0</ele><time>2026-04-12T08:43:52Z</time></trkpt><trkpt lat="43.3505979472359" lon="13.290469601477772"><ele>275.0</ele><time>2026-04-12T08:43:53Z</time></trkpt><trkpt lat="43.35060582306298" lon="13.290339189223646"><ele>275.1666666666667</ele><time>2026-04-12T08:43:54Z</time></trkpt><trkpt lat="43.35061461083585" lon="13.290217063358941"><ele>275.33333333333337</ele><time>2026-04-12T08:43:55Z</time></trkpt><trkpt lat="43.35062338120811" lon="13.290100204789667"><ele>275.5</ele><time>2026-04-12T08:43:56Z</time></trkpt><trkpt lat="43.35063087617807" lon="13.289986396724984"><ele>275.6666666666667</ele><time>2026-04-12T08:43:57Z</time></trkpt><trkpt lat="43.350640180047286" lon="13.289865984997416"><ele>275.8333333333333</ele><time>2026-04-12T08:43:58Z</time></trkpt><trkpt lat="43.35062321778687" lon="13.289772693118834"><ele>276.0</ele><time>2026-04-12T08:43:59Z</time></trkpt><trkpt lat="43.35055611064289" lon="13.289642903013533"><ele>276.6</ele><time>2026-04-12T08:44:01Z</time></trkpt><trkpt lat="43.350529647705436" lon="13.289560535755731"><ele>277.20000000000005</ele><time>2026-04-12T08:44:02Z</time></trkpt><trkpt lat="43.35049664777861" lon="13.28948019387623"><ele>277.79999999999995</ele><time>2026-04-12T08:44:03Z</time></trkpt><trkpt lat="43.35045530070787" lon="13.289370192294918"><ele>278.4</ele><time>2026-04-12T08:44:04Z</time></trkpt><trkpt lat="43.35040473338856" lon="13.289235201329607"><ele>279.0</ele><time>2026-04-12T08:44:05Z</time></trkpt><trkpt lat="43.35034447586084" lon="13.289074342065074"><ele>279.3333333333333</ele><time>2026-04-12T08:44:06Z</time></trkpt><trkpt lat="43.35027442815081" lon="13.288887347684057"><ele>279.66666666666663</ele><time>2026-04-12T08:44:07Z</time></trkpt><trkpt lat="43.35019611436759" lon="13.288678286570986"><ele>280.0</ele><time>2026-04-12T08:44:08Z</time></trkpt><trkpt lat="43.350125421974944" lon="13.288489571012336"><ele>280.0</ele><time>2026-04-12T08:44:09Z</time></trkpt><trkpt lat="43.35005641743076" lon="13.288306699198696"><ele>280.0</ele><time>2026-04-12T08:44:10Z</time></trkpt><trkpt lat="43.349987401172946" lon="13.288124327911808"><ele>280.0</ele><time>2026-04-12T08:44:11Z</time></trkpt><trkpt lat="43.34991673216367" lon="13.287937589432868"><ele>279.75</ele><time>2026-04-12T08:44:12Z</time></trkpt><trkpt lat="43.34984657111963" lon="13.28775219322563"><ele>279.5</ele><time>2026-04-12T08:44:13Z</time></trkpt><trkpt lat="43.3497765985085" lon="13.287567295025138"><ele>279.25</ele><time>2026-04-12T08:44:14Z</time></trkpt><trkpt lat="43.34971032513617" lon="13.287392171790335"><ele>279.0</ele><time>2026-04-12T08:44:15Z</time></trkpt><trkpt lat="43.34964557228828" lon="13.28721967734391"><ele>280.25</ele><time>2026-04-12T08:44:16Z</time></trkpt><trkpt lat="43.34958587579579" lon="13.287061857016"><ele>281.5</ele><time>2026-04-12T08:44:17Z</time></trkpt><trkpt lat="43.34951887770699" lon="13.286891785004064"><ele>282.75</ele><time>2026-04-12T08:44:18Z</time></trkpt><trkpt lat="43.34946228896148" lon="13.28675658616688"><ele>284.0</ele><time>2026-04-12T08:44:19Z</time></trkpt><trkpt lat="43.34940330307357" lon="13.286615236482085"><ele>284.0</ele><time>2026-04-12T08:44:20Z</time></trkpt><trkpt lat="43.34933057777491" lon="13.286434111876208"><ele>284.0</ele><time>2026-04-12T08:44:21Z</time></trkpt><trkpt lat="43.349276732453056" lon="13.286239497064763"><ele>284.0</ele><time>2026-04-12T08:44:22Z</time></trkpt><trkpt lat="43.349249810945466" lon="13.286125698520058"><ele>284.0</ele><time>2026-04-12T08:44:24Z</time></trkpt><trkpt lat="43.349881050796505" lon="13.285803382468199"><ele>284.0</ele><time>2026-04-12T08:44:26Z</time></trkpt><trkpt lat="43.34994209512975" lon="13.285755212539527"><ele>284.0</ele><time>2026-04-12T08:44:27Z</time></trkpt><trkpt lat="43.35001527095437" lon="13.285692882942467"><ele>284.0</ele><time>2026-04-12T08:44:28Z</time></trkpt><trkpt lat="43.35012588797386" lon="13.285593759632455"><ele>284.0</ele><time>2026-04-12T08:44:29Z</time></trkpt><trkpt lat="43.3502301745109" lon="13.285487901705219"><ele>284.0</ele><time>2026-04-12T08:44:30Z</time></trkpt><trkpt lat="43.35032672343788" lon="13.285374930061648"><ele>284.0</ele><time>2026-04-12T08:44:31Z</time></trkpt><trkpt lat="43.35041359300424" lon="13.285270099735333"><ele>284.0</ele><time>2026-04-12T08:44:32Z</time></trkpt><trkpt lat="43.35047262423176" lon="13.285196159170658"><ele>284.0</ele><time>2026-04-12T08:44:33Z</time></trkpt><trkpt lat="43.3505669960644" lon="13.28508780318049"><ele>284.0</ele><time>2026-04-12T08:44:35Z</time></trkpt><trkpt lat="43.350617280492024" lon="13.285035707243015"><ele>284.0</ele><time>2026-04-12T08:44:36Z</time></trkpt><trkpt lat="43.35066150116502" lon="13.284952230279362"><ele>284.0</ele><time>2026-04-12T08:44:39Z</time></trkpt><trkpt lat="43.35067849390436" lon="13.28482298124798"><ele>284.0</ele><time>2026-04-12T08:44:41Z</time></trkpt><trkpt lat="43.350681089974685" lon="13.284728316520939"><ele>284.0</ele><time>2026-04-12T08:44:42Z</time></trkpt><trkpt lat="43.35067395332331" lon="13.28462076260254"><ele>284.0</ele><time>2026-04-12T08:44:43Z</time></trkpt><trkpt lat="43.3506538359436" lon="13.28449102616008"><ele>284.0</ele><time>2026-04-12T08:44:44Z</time></trkpt><trkpt lat="43.350642353095516" lon="13.28437302462666"><ele>284.0</ele><time>2026-04-12T08:44:45Z</time></trkpt><trkpt lat="43.35064329616471" lon="13.284251498613047"><ele>284.0</ele><time>2026-04-12T08:44:46Z</time></trkpt><trkpt lat="43.35066374353619" lon="13.284136227904819"><ele>284.0</ele><time>2026-04-12T08:44:47Z</time></trkpt><trkpt lat="43.3506743597719" lon="13.284015166449857"><ele>284.0</ele><time>2026-04-12T08:44:48Z</time></trkpt><trkpt lat="43.35067486119277" lon="13.283884385734932"><ele>284.0</ele><time>2026-04-12T08:44:49Z</time></trkpt><trkpt lat="43.35065899665679" lon="13.283735190842181"><ele>284.0</ele><time>2026-04-12T08:44:50Z</time></trkpt><trkpt lat="43.35062786249352" lon="13.283580960875168"><ele>284.59999999999997</ele><time>2026-04-12T08:44:51Z</time></trkpt><trkpt lat="43.3505972842906" lon="13.283420521128019"><ele>285.2</ele><time>2026-04-12T08:44:52Z</time></trkpt><trkpt lat="43.350573268874015" lon="13.283276094078806"><ele>285.79999999999995</ele><time>2026-04-12T08:44:53Z</time></trkpt><trkpt lat="43.35056576906072" lon="13.283135672839382"><ele>286.4</ele><time>2026-04-12T08:44:54Z</time></trkpt><trkpt lat="43.350564367012645" lon="13.283004677524545"><ele>287.0</ele><time>2026-04-12T08:44:55Z</time></trkpt><trkpt lat="43.35056883126273" lon="13.282889947152333"><ele>287.4</ele><time>2026-04-12T08:44:56Z</time></trkpt><trkpt lat="43.35061411069198" lon="13.282800912661802"><ele>287.79999999999995</ele><time>2026-04-12T08:44:57Z</time></trkpt><trkpt lat="43.350665593743074" lon="13.282739339931553"><ele>288.2</ele><time>2026-04-12T08:44:59Z</time></trkpt><trkpt lat="43.3507417029033" lon="13.282710800303748"><ele>288.59999999999997</ele><time>2026-04-12T08:45:02Z</time></trkpt><trkpt lat="43.35081668551441" lon="13.282615577441327"><ele>289.0</ele><time>2026-04-12T08:45:04Z</time></trkpt><trkpt lat="43.350938934187525" lon="13.28250734551547"><ele>289.0</ele><time>2026-04-12T08:45:06Z</time></trkpt><trkpt lat="43.35101885033094" lon="13.282435131643988"><ele>289.0</ele><time>2026-04-12T08:45:07Z</time></trkpt><trkpt lat="43.351104513354116" lon="13.282370789468144"><ele>289.0</ele><time>2026-04-12T08:45:08Z</time></trkpt><trkpt lat="43.351199705567744" lon="13.282300761148148"><ele>289.0</ele><time>2026-04-12T08:45:09Z</time></trkpt><trkpt lat="43.35129078297642" lon="13.282231306880272"><ele>289.0</ele><time>2026-04-12T08:45:10Z</time></trkpt><trkpt lat="43.351378213553744" lon="13.282186539667022"><ele>288.4</ele><time>2026-04-12T08:45:11Z</time></trkpt><trkpt lat="43.351485026711785" lon="13.2821221755508"><ele>287.79999999999995</ele><time>2026-04-12T08:45:12Z</time></trkpt><trkpt lat="43.3515975078273" lon="13.282055022214879"><ele>287.20000000000005</ele><time>2026-04-12T08:45:13Z</time></trkpt><trkpt lat="43.35169427640148" lon="13.281997825265448"><ele>286.6</ele><time>2026-04-12T08:45:14Z</time></trkpt><trkpt lat="43.35178148831494" lon="13.281943876108155"><ele>286.0</ele><time>2026-04-12T08:45:15Z</time></trkpt><trkpt lat="43.35186107920673" lon="13.281893844483529"><ele>286.0</ele><time>2026-04-12T08:45:16Z</time></trkpt><trkpt lat="43.351928690277724" lon="13.281851720647895"><ele>286.0</ele><time>2026-04-12T08:45:17Z</time></trkpt><trkpt lat="43.35201774550501" lon="13.281792800015873"><ele>286.0</ele><time>2026-04-12T08:45:19Z</time></trkpt><trkpt lat="43.35207723348914" lon="13.281729286595171"><ele>286.0</ele><time>2026-04-12T08:45:23Z</time></trkpt><trkpt lat="43.35202374160015" lon="13.281581847963906"><ele>286.0</ele><time>2026-04-12T08:45:24Z</time></trkpt><trkpt lat="43.35197880730794" lon="13.2814992086041"><ele>286.0</ele><time>2026-04-12T08:45:25Z</time></trkpt><trkpt lat="43.3519271832719" lon="13.281401055480295"><ele>286.25</ele><time>2026-04-12T08:45:26Z</time></trkpt><trkpt lat="43.35186900653507" lon="13.281284276520742"><ele>286.5</ele><time>2026-04-12T08:45:27Z</time></trkpt><trkpt lat="43.35181087246698" lon="13.281150752285429"><ele>286.75</ele><time>2026-04-12T08:45:28Z</time></trkpt><trkpt lat="43.35174753310646" lon="13.281014192338656"><ele>287.0</ele><time>2026-04-12T08:45:29Z</time></trkpt><trkpt lat="43.3516731208952" lon="13.280868892923934"><ele>287.0</ele><time>2026-04-12T08:45:30Z</time></trkpt><trkpt lat="43.3515941479858" lon="13.280714087072676"><ele>287.0</ele><time>2026-04-12T08:45:31Z</time></trkpt><trkpt lat="43.351514671671005" lon="13.280546381184658"><ele>287.0</ele><time>2026-04-12T08:45:32Z</time></trkpt><trkpt lat="43.351447837525114" lon="13.280366983074853"><ele>287.0</ele><time>2026-04-12T08:45:33Z</time></trkpt><trkpt lat="43.35136434989789" lon="13.280190104345573"><ele>288.0</ele><time>2026-04-12T08:45:34Z</time></trkpt><trkpt lat="43.351281417288455" lon="13.280014401309458"><ele>289.0</ele><time>2026-04-12T08:45:35Z</time></trkpt><trkpt lat="43.35119617142669" lon="13.279833797462056"><ele>290.0</ele><time>2026-04-12T08:45:36Z</time></trkpt><trkpt lat="43.35110840599171" lon="13.279647855525381"><ele>290.6666666666667</ele><time>2026-04-12T08:45:37Z</time></trkpt><trkpt lat="43.351008516004654" lon="13.27947110585374"><ele>291.3333333333333</ele><time>2026-04-12T08:45:38Z</time></trkpt><trkpt lat="43.35092658733489" lon="13.279280548566506"><ele>292.0</ele><time>2026-04-12T08:45:39Z</time></trkpt><trkpt lat="43.35084696790538" lon="13.279091685708774"><ele>292.66666666666663</ele><time>2026-04-12T08:45:40Z</time></trkpt><trkpt lat="43.350764336805334" lon="13.278900910888998"><ele>293.3333333333333</ele><time>2026-04-12T08:45:41Z</time></trkpt><trkpt lat="43.35068408563697" lon="13.278713397992494"><ele>294.0</ele><time>2026-04-12T08:45:42Z</time></trkpt><trkpt lat="43.35060943334133" lon="13.278517075711028"><ele>294.3333333333333</ele><time>2026-04-12T08:45:43Z</time></trkpt><trkpt lat="43.35053763651861" lon="13.27831427268206"><ele>294.66666666666663</ele><time>2026-04-12T08:45:44Z</time></trkpt><trkpt lat="43.35046584168096" lon="13.27810294694964"><ele>295.0</ele><time>2026-04-12T08:45:45Z</time></trkpt><trkpt lat="43.350397584098346" lon="13.277905175164106"><ele>295.3333333333333</ele><time>2026-04-12T08:45:46Z</time></trkpt><trkpt lat="43.35033551121814" lon="13.277690120451508"><ele>295.6666666666667</ele><time>2026-04-12T08:45:47Z</time></trkpt><trkpt lat="43.3502706929386" lon="13.277468388426444"><ele>296.0</ele><time>2026-04-12T08:45:48Z</time></trkpt><trkpt lat="43.350217190199444" lon="13.277245999623807"><ele>296.33333333333337</ele><time>2026-04-12T08:45:49Z</time></trkpt><trkpt lat="43.350160344183024" lon="13.277018918526776"><ele>296.6666666666667</ele><time>2026-04-12T08:45:50Z</time></trkpt><trkpt lat="43.35010103747353" lon="13.276800591319608"><ele>297.0</ele><time>2026-04-12T08:45:51Z</time></trkpt><trkpt lat="43.35004017466857" lon="13.27658020502951"><ele>296.6666666666667</ele><time>2026-04-12T08:45:52Z</time></trkpt><trkpt lat="43.3499833293899" lon="13.276352148428035"><ele>296.33333333333337</ele><time>2026-04-12T08:45:53Z</time></trkpt><trkpt lat="43.34992565116572" lon="13.276128525933473"><ele>296.0</ele><time>2026-04-12T08:45:54Z</time></trkpt><trkpt lat="43.349865495984396" lon="13.275898916730071"><ele>296.0</ele><time>2026-04-12T08:45:55Z</time></trkpt><trkpt lat="43.3498051110292" lon="13.275670752426937"><ele>296.0</ele><time>2026-04-12T08:45:56Z</time></trkpt><trkpt lat="43.34974528964958" lon="13.27543974009293"><ele>296.0</ele><time>2026-04-12T08:45:57Z</time></trkpt><trkpt lat="43.349685713528714" lon="13.27520840554151"><ele>297.0</ele><time>2026-04-12T08:45:58Z</time></trkpt><trkpt lat="43.34962488719636" lon="13.274971513795785"><ele>298.0</ele><time>2026-04-12T08:45:59Z</time></trkpt><trkpt lat="43.34956032121626" lon="13.274743925660262"><ele>299.0</ele><time>2026-04-12T08:46:00Z</time></trkpt><trkpt lat="43.34949447259964" lon="13.274497833554511"><ele>299.33333333333337</ele><time>2026-04-12T08:46:01Z</time></trkpt><trkpt lat="43.34942698331585" lon="13.274248738937843"><ele>299.6666666666667</ele><time>2026-04-12T08:46:02Z</time></trkpt><trkpt lat="43.34936044663608" lon="13.27399713044589"><ele>300.0</ele><time>2026-04-12T08:46:03Z</time></trkpt><trkpt lat="43.349291650906046" lon="13.27374829620163"><ele>301.6666666666667</ele><time>2026-04-12T08:46:04Z</time></trkpt><trkpt lat="43.349226188480365" lon="13.273518577835166"><ele>303.33333333333337</ele><time>2026-04-12T08:46:05Z</time></trkpt><trkpt lat="43.34916545446143" lon="13.273302344875276"><ele>305.0</ele><time>2026-04-12T08:46:06Z</time></trkpt><trkpt lat="43.34910539961881" lon="13.273093266097833"><ele>305.33333333333337</ele><time>2026-04-12T08:46:07Z</time></trkpt><trkpt lat="43.34904413700928" lon="13.27289582169232"><ele>305.6666666666667</ele><time>2026-04-12T08:46:08Z</time></trkpt><trkpt lat="43.34898350654918" lon="13.272705370722504"><ele>306.0</ele><time>2026-04-12T08:46:09Z</time></trkpt><trkpt lat="43.348925627771045" lon="13.272517195489534"><ele>306.75</ele><time>2026-04-12T08:46:10Z</time></trkpt><trkpt lat="43.34886827928314" lon="13.27233331136529"><ele>307.5</ele><time>2026-04-12T08:46:11Z</time></trkpt><trkpt lat="43.348810627123534" lon="13.272146039558011"><ele>308.25</ele><time>2026-04-12T08:46:12Z</time></trkpt><trkpt lat="43.34875252011271" lon="13.271953470538056"><ele>309.0</ele><time>2026-04-12T08:46:13Z</time></trkpt><trkpt lat="43.34869361906056" lon="13.27176467999376"><ele>309.5</ele><time>2026-04-12T08:46:14Z</time></trkpt><trkpt lat="43.34863453549248" lon="13.271574125982172"><ele>310.0</ele><time>2026-04-12T08:46:15Z</time></trkpt><trkpt lat="43.348574305540986" lon="13.27138244538138"><ele>310.5</ele><time>2026-04-12T08:46:16Z</time></trkpt><trkpt lat="43.348517786648095" lon="13.271199247819661"><ele>311.0</ele><time>2026-04-12T08:46:17Z</time></trkpt><trkpt lat="43.34846127461926" lon="13.27102189657607"><ele>311.25</ele><time>2026-04-12T08:46:18Z</time></trkpt><trkpt lat="43.34840729403644" lon="13.270853375077303"><ele>311.5</ele><time>2026-04-12T08:46:19Z</time></trkpt><trkpt lat="43.34835856997237" lon="13.270705688077546"><ele>311.75</ele><time>2026-04-12T08:46:20Z</time></trkpt><trkpt lat="43.34831761059405" lon="13.27056972107439"><ele>312.0</ele><time>2026-04-12T08:46:21Z</time></trkpt><trkpt lat="43.34827586416749" lon="13.27044018270403"><ele>312.2</ele><time>2026-04-12T08:46:22Z</time></trkpt><trkpt lat="43.3482370283627" lon="13.27033099931203"><ele>312.4</ele><time>2026-04-12T08:46:23Z</time></trkpt><trkpt lat="43.348203241623104" lon="13.270229160318285"><ele>312.6</ele><time>2026-04-12T08:46:24Z</time></trkpt><trkpt lat="43.34817322728776" lon="13.270148705934902"><ele>312.8</ele><time>2026-04-12T08:46:25Z</time></trkpt><trkpt lat="43.34813390384732" lon="13.270064718271362"><ele>313.0</ele><time>2026-04-12T08:46:27Z</time></trkpt><trkpt lat="43.347975450795566" lon="13.270149519568683"><ele>313.4</ele><time>2026-04-12T08:46:31Z</time></trkpt><trkpt lat="43.347921976345205" lon="13.270229533782505"><ele>313.8</ele><time>2026-04-12T08:46:32Z</time></trkpt><trkpt lat="43.347867941511694" lon="13.270332746414502"><ele>314.2</ele><time>2026-04-12T08:46:33Z</time></trkpt><trkpt lat="43.34780154859133" lon="13.270455758394363"><ele>314.6</ele><time>2026-04-12T08:46:34Z</time></trkpt><trkpt lat="43.347712359926206" lon="13.270564696489908"><ele>315.0</ele><time>2026-04-12T08:46:35Z</time></trkpt><trkpt lat="43.347630163676435" lon="13.270662495012681"><ele>315.0</ele><time>2026-04-12T08:46:36Z</time></trkpt><trkpt lat="43.347559710381134" lon="13.270746455074821"><ele>315.0</ele><time>2026-04-12T08:46:37Z</time></trkpt><trkpt lat="43.347517897911096" lon="13.270813277833064"><ele>315.0</ele><time>2026-04-12T08:46:38Z</time></trkpt><trkpt lat="43.34743726055812" lon="13.27079491579268"><ele>315.0</ele><time>2026-04-12T08:46:40Z</time></trkpt><trkpt lat="43.34737316547139" lon="13.27066238118604"><ele>315.0</ele><time>2026-04-12T08:46:42Z</time></trkpt><trkpt lat="43.34735390903929" lon="13.27055775943902"><ele>315.0</ele><time>2026-04-12T08:46:43Z</time></trkpt><trkpt lat="43.347339824851474" lon="13.270442597660477"><ele>315.0</ele><time>2026-04-12T08:46:44Z</time></trkpt><trkpt lat="43.347317716737045" lon="13.270317296949901"><ele>315.0</ele><time>2026-04-12T08:46:45Z</time></trkpt><trkpt lat="43.34728891195686" lon="13.270187066027212"><ele>315.0</ele><time>2026-04-12T08:46:46Z</time></trkpt><trkpt lat="43.347256152563006" lon="13.270031121426955"><ele>315.0</ele><time>2026-04-12T08:46:47Z</time></trkpt><trkpt lat="43.347218986903734" lon="13.269870129379182"><ele>315.0</ele><time>2026-04-12T08:46:48Z</time></trkpt><trkpt lat="43.34718489726917" lon="13.2696997105151"><ele>315.25</ele><time>2026-04-12T08:46:49Z</time></trkpt><trkpt lat="43.34714301529638" lon="13.269517332967906"><ele>315.5</ele><time>2026-04-12T08:46:50Z</time></trkpt><trkpt lat="43.34710873668953" lon="13.269336416264498"><ele>315.75</ele><time>2026-04-12T08:46:51Z</time></trkpt><trkpt lat="43.34706677158665" lon="13.269175605428911"><ele>316.0</ele><time>2026-04-12T08:46:52Z</time></trkpt><trkpt lat="43.34702740785717" lon="13.268996513256475"><ele>316.5</ele><time>2026-04-12T08:46:53Z</time></trkpt><trkpt lat="43.34698689270738" lon="13.268817921708608"><ele>317.0</ele><time>2026-04-12T08:46:54Z</time></trkpt><trkpt lat="43.34695068463459" lon="13.268636455698442"><ele>317.5</ele><time>2026-04-12T08:46:55Z</time></trkpt><trkpt lat="43.34691170320228" lon="13.268458605355855"><ele>318.0</ele><time>2026-04-12T08:46:56Z</time></trkpt><trkpt lat="43.346876845234036" lon="13.268290520308543"><ele>318.0</ele><time>2026-04-12T08:46:57Z</time></trkpt><trkpt lat="43.34684140700613" lon="13.268125011698446"><ele>318.0</ele><time>2026-04-12T08:46:58Z</time></trkpt><trkpt lat="43.34680545913814" lon="13.267968347951149"><ele>318.0</ele><time>2026-04-12T08:46:59Z</time></trkpt><trkpt lat="43.346766793931906" lon="13.267826598747371"><ele>318.0</ele><time>2026-04-12T08:47:00Z</time></trkpt><trkpt lat="43.346736469361964" lon="13.267703763219663"><ele>318.0</ele><time>2026-04-12T08:47:01Z</time></trkpt><trkpt lat="43.3467137964617" lon="13.267588014192189"><ele>318.5</ele><time>2026-04-12T08:47:02Z</time></trkpt><trkpt lat="43.34669588063744" lon="13.267487988678281"><ele>319.0</ele><time>2026-04-12T08:47:03Z</time></trkpt><trkpt lat="43.34663819374293" lon="13.267353930931561"><ele>319.5</ele><time>2026-04-12T08:47:05Z</time></trkpt><trkpt lat="43.3467031399477" lon="13.267121488318145"><ele>320.0</ele><time>2026-04-12T08:47:07Z</time></trkpt><trkpt lat="43.346753765127296" lon="13.2670012950834"><ele>320.25</ele><time>2026-04-12T08:47:08Z</time></trkpt><trkpt lat="43.34680870909722" lon="13.26687740463947"><ele>320.5</ele><time>2026-04-12T08:47:09Z</time></trkpt><trkpt lat="43.34687650318558" lon="13.266736170614427"><ele>320.75</ele><time>2026-04-12T08:47:10Z</time></trkpt><trkpt lat="43.34695178270916" lon="13.266571751901308"><ele>321.0</ele><time>2026-04-12T08:47:11Z</time></trkpt><trkpt lat="43.347034393944575" lon="13.266389015213806"><ele>321.6666666666667</ele><time>2026-04-12T08:47:12Z</time></trkpt><trkpt lat="43.34711571564357" lon="13.266209650912403"><ele>322.33333333333337</ele><time>2026-04-12T08:47:13Z</time></trkpt><trkpt lat="43.34719265577332" lon="13.266024735010541"><ele>323.0</ele><time>2026-04-12T08:47:14Z</time></trkpt><trkpt lat="43.34727569607138" lon="13.26583032258667"><ele>323.6666666666667</ele><time>2026-04-12T08:47:15Z</time></trkpt><trkpt lat="43.347365676909156" lon="13.26563068122496"><ele>324.3333333333333</ele><time>2026-04-12T08:47:16Z</time></trkpt><trkpt lat="43.34746049048345" lon="13.265420578773945"><ele>325.0</ele><time>2026-04-12T08:47:17Z</time></trkpt><trkpt lat="43.347550114713684" lon="13.26520217137476"><ele>325.66666666666663</ele><time>2026-04-12T08:47:18Z</time></trkpt><trkpt lat="43.34764930596686" lon="13.264976636702022"><ele>326.3333333333333</ele><time>2026-04-12T08:47:19Z</time></trkpt><trkpt lat="43.34774125386481" lon="13.264765618227642"><ele>327.0</ele><time>2026-04-12T08:47:20Z</time></trkpt><trkpt lat="43.347831579787254" lon="13.264558438633728"><ele>328.0</ele><time>2026-04-12T08:47:21Z</time></trkpt><trkpt lat="43.347916586782084" lon="13.264365426470727"><ele>329.0</ele><time>2026-04-12T08:47:22Z</time></trkpt><trkpt lat="43.347995228376554" lon="13.264187082395873"><ele>330.0</ele><time>2026-04-12T08:47:23Z</time></trkpt><trkpt lat="43.34806430258296" lon="13.264026971633815"><ele>330.5</ele><time>2026-04-12T08:47:24Z</time></trkpt><trkpt lat="43.348134776907784" lon="13.263858769616412"><ele>331.0</ele><time>2026-04-12T08:47:25Z</time></trkpt><trkpt lat="43.34819496263302" lon="13.263687638167932"><ele>331.5</ele><time>2026-04-12T08:47:26Z</time></trkpt><trkpt lat="43.34826806230728" lon="13.263511603146924"><ele>332.0</ele><time>2026-04-12T08:47:27Z</time></trkpt><trkpt lat="43.34834994244436" lon="13.263329483216285"><ele>332.0</ele><time>2026-04-12T08:47:28Z</time></trkpt><trkpt lat="43.3484322713253" lon="13.263145900903858"><ele>332.0</ele><time>2026-04-12T08:47:29Z</time></trkpt><trkpt lat="43.3485214432377" lon="13.26294634524722"><ele>332.0</ele><time>2026-04-12T08:47:30Z</time></trkpt><trkpt lat="43.34860393937277" lon="13.262747589757188"><ele>332.33333333333337</ele><time>2026-04-12T08:47:31Z</time></trkpt><trkpt lat="43.34869307423057" lon="13.262539595968938"><ele>332.6666666666667</ele><time>2026-04-12T08:47:32Z</time></trkpt><trkpt lat="43.34877667272514" lon="13.262334183068434"><ele>333.0</ele><time>2026-04-12T08:47:33Z</time></trkpt><trkpt lat="43.348837637919665" lon="13.262126601987058"><ele>333.75</ele><time>2026-04-12T08:47:34Z</time></trkpt><trkpt lat="43.34886707098046" lon="13.261925236711544"><ele>334.5</ele><time>2026-04-12T08:47:35Z</time></trkpt><trkpt lat="43.34888367205684" lon="13.261756948528518"><ele>335.25</ele><time>2026-04-12T08:47:36Z</time></trkpt><trkpt lat="43.34891981281801" lon="13.261603962505202"><ele>336.0</ele><time>2026-04-12T08:47:37Z</time></trkpt><trkpt lat="43.34898152969258" lon="13.261476179056197"><ele>337.5</ele><time>2026-04-12T08:47:38Z</time></trkpt><trkpt lat="43.34907662372214" lon="13.261365788855002"><ele>339.0</ele><time>2026-04-12T08:47:39Z</time></trkpt><trkpt lat="43.34918947642581" lon="13.261261937213064"><ele>340.5</ele><time>2026-04-12T08:47:40Z</time></trkpt><trkpt lat="43.349303623088716" lon="13.261126097650099"><ele>342.0</ele><time>2026-04-12T08:47:41Z</time></trkpt><trkpt lat="43.34939875368504" lon="13.26095078752486"><ele>342.0</ele><time>2026-04-12T08:47:42Z</time></trkpt><trkpt lat="43.34947829843046" lon="13.260758416153557"><ele>342.0</ele><time>2026-04-12T08:47:43Z</time></trkpt><trkpt lat="43.34954863887412" lon="13.260565239216712"><ele>342.0</ele><time>2026-04-12T08:47:44Z</time></trkpt><trkpt lat="43.34963644427744" lon="13.26037221143911"><ele>345.0</ele><time>2026-04-12T08:47:45Z</time></trkpt><trkpt lat="43.3497261014571" lon="13.260158213787"><ele>348.0</ele><time>2026-04-12T08:47:46Z</time></trkpt><trkpt lat="43.349816400343244" lon="13.259936207675453"><ele>351.0</ele><time>2026-04-12T08:47:47Z</time></trkpt><trkpt lat="43.34991205265397" lon="13.259725774040252"><ele>351.6666666666667</ele><time>2026-04-12T08:47:48Z</time></trkpt><trkpt lat="43.35000782669597" lon="13.259524756169863"><ele>352.33333333333337</ele><time>2026-04-12T08:47:49Z</time></trkpt><trkpt lat="43.35009902104818" lon="13.259307438752288"><ele>353.0</ele><time>2026-04-12T08:47:50Z</time></trkpt><trkpt lat="43.35018846183697" lon="13.259103547194778"><ele>353.33333333333337</ele><time>2026-04-12T08:47:51Z</time></trkpt><trkpt lat="43.350278827355" lon="13.258894762884417"><ele>353.6666666666667</ele><time>2026-04-12T08:47:52Z</time></trkpt><trkpt lat="43.35037464400752" lon="13.25867782762014"><ele>354.0</ele><time>2026-04-12T08:47:53Z</time></trkpt><trkpt lat="43.35046659148401" lon="13.25846113819494"><ele>356.3333333333333</ele><time>2026-04-12T08:47:54Z</time></trkpt><trkpt lat="43.350556518657086" lon="13.258238983919135"><ele>358.66666666666663</ele><time>2026-04-12T08:47:55Z</time></trkpt><trkpt lat="43.35064669101386" lon="13.258027327818306"><ele>361.0</ele><time>2026-04-12T08:47:56Z</time></trkpt><trkpt lat="43.35074011653092" lon="13.257817547215133"><ele>361.75</ele><time>2026-04-12T08:47:57Z</time></trkpt><trkpt lat="43.35081544764756" lon="13.257639613540443"><ele>362.5</ele><time>2026-04-12T08:47:58Z</time></trkpt><trkpt lat="43.35088382607484" lon="13.25748117085198"><ele>363.25</ele><time>2026-04-12T08:47:59Z</time></trkpt><trkpt lat="43.3509492140175" lon="13.257336666514338"><ele>364.0</ele><time>2026-04-12T08:48:00Z</time></trkpt><trkpt lat="43.351018333216345" lon="13.257194408757794"><ele>364.25</ele><time>2026-04-12T08:48:01Z</time></trkpt><trkpt lat="43.35109625345269" lon="13.257027099914685"><ele>364.5</ele><time>2026-04-12T08:48:02Z</time></trkpt><trkpt lat="43.35117279066891" lon="13.25684683353607"><ele>364.75</ele><time>2026-04-12T08:48:03Z</time></trkpt><trkpt lat="43.35123253189856" lon="13.256670134148509"><ele>365.0</ele><time>2026-04-12T08:48:04Z</time></trkpt><trkpt lat="43.35125746946783" lon="13.256482859855469"><ele>365.33333333333337</ele><time>2026-04-12T08:48:05Z</time></trkpt><trkpt lat="43.351260802085264" lon="13.256270614670088"><ele>365.6666666666667</ele><time>2026-04-12T08:48:06Z</time></trkpt><trkpt lat="43.35126306022304" lon="13.256048731177136"><ele>366.0</ele><time>2026-04-12T08:48:07Z</time></trkpt><trkpt lat="43.351272407662904" lon="13.255820417032986"><ele>367.0</ele><time>2026-04-12T08:48:08Z</time></trkpt><trkpt lat="43.35128464787182" lon="13.25558425776523"><ele>368.0</ele><time>2026-04-12T08:48:09Z</time></trkpt><trkpt lat="43.35129896449433" lon="13.255338387454398"><ele>369.0</ele><time>2026-04-12T08:48:10Z</time></trkpt><trkpt lat="43.35131529600159" lon="13.255084972093895"><ele>369.0</ele><time>2026-04-12T08:48:11Z</time></trkpt><trkpt lat="43.351330117238376" lon="13.254830733470959"><ele>369.0</ele><time>2026-04-12T08:48:12Z</time></trkpt><trkpt lat="43.35134839989449" lon="13.254574822321544"><ele>369.0</ele><time>2026-04-12T08:48:13Z</time></trkpt><trkpt lat="43.35136288145926" lon="13.254308702794734"><ele>370.3333333333333</ele><time>2026-04-12T08:48:14Z</time></trkpt><trkpt lat="43.351384837741996" lon="13.254060043996281"><ele>371.66666666666663</ele><time>2026-04-12T08:48:15Z</time></trkpt><trkpt lat="43.35140566834235" lon="13.253801739608912"><ele>373.0</ele><time>2026-04-12T08:48:16Z</time></trkpt><trkpt lat="43.351423683521915" lon="13.253540040734007"><ele>373.0</ele><time>2026-04-12T08:48:17Z</time></trkpt><trkpt lat="43.351439654721695" lon="13.253292740995397"><ele>373.0</ele><time>2026-04-12T08:48:18Z</time></trkpt><trkpt lat="43.35145922286926" lon="13.253058383837061"><ele>373.0</ele><time>2026-04-12T08:48:19Z</time></trkpt><trkpt lat="43.35147755838313" lon="13.252830069785102"><ele>375.3333333333333</ele><time>2026-04-12T08:48:20Z</time></trkpt><trkpt lat="43.351494331476694" lon="13.252605925802154"><ele>377.6666666666667</ele><time>2026-04-12T08:48:21Z</time></trkpt><trkpt lat="43.35151717207788" lon="13.252382262692448"><ele>380.0</ele><time>2026-04-12T08:48:22Z</time></trkpt><trkpt lat="43.35153259042096" lon="13.252157500169005"><ele>382.33333333333337</ele><time>2026-04-12T08:48:23Z</time></trkpt><trkpt lat="43.35154673195337" lon="13.251932894935198"><ele>384.6666666666667</ele><time>2026-04-12T08:48:24Z</time></trkpt><trkpt lat="43.35155574228933" lon="13.251694196223529"><ele>387.0</ele><time>2026-04-12T08:48:25Z</time></trkpt><trkpt lat="43.351564968471614" lon="13.251481616502307"><ele>388.75</ele><time>2026-04-12T08:48:26Z</time></trkpt><trkpt lat="43.35157112009764" lon="13.251301606057295"><ele>390.5</ele><time>2026-04-12T08:48:27Z</time></trkpt><trkpt lat="43.351568241214935" lon="13.25112950322805"><ele>392.25</ele><time>2026-04-12T08:48:28Z</time></trkpt><trkpt lat="43.35154292648571" lon="13.250951327531348"><ele>394.0</ele><time>2026-04-12T08:48:29Z</time></trkpt><trkpt lat="43.351496742089054" lon="13.250766205004336"><ele>394.0</ele><time>2026-04-12T08:48:30Z</time></trkpt><trkpt lat="43.35143383285102" lon="13.25058315968388"><ele>394.0</ele><time>2026-04-12T08:48:31Z</time></trkpt><trkpt lat="43.35136310972973" lon="13.250395948374067"><ele>394.0</ele><time>2026-04-12T08:48:32Z</time></trkpt><trkpt lat="43.35129382301295" lon="13.250209471363904"><ele>397.6666666666667</ele><time>2026-04-12T08:48:33.001Z</time></trkpt><trkpt lat="43.35122690785683" lon="13.250016869518262"><ele>401.33333333333337</ele><time>2026-04-12T08:48:34.001Z</time></trkpt><trkpt lat="43.351157795396546" lon="13.249818662367954"><ele>405.0</ele><time>2026-04-12T08:48:35.001Z</time></trkpt><trkpt lat="43.35108649998206" lon="13.249610615047054"><ele>407.0</ele><time>2026-04-12T08:48:36.001Z</time></trkpt><trkpt lat="43.35101426221593" lon="13.249402950510511"><ele>409.0</ele><time>2026-04-12T08:48:37.001Z</time></trkpt><trkpt lat="43.35093936963951" lon="13.249191719171893"><ele>411.0</ele><time>2026-04-12T08:48:38Z</time></trkpt><trkpt lat="43.35086400099593" lon="13.248983432535802"><ele>413.66666666666663</ele><time>2026-04-12T08:48:39Z</time></trkpt><trkpt lat="43.35078813171199" lon="13.24876763396663"><ele>416.3333333333333</ele><time>2026-04-12T08:48:40Z</time></trkpt><trkpt lat="43.35071370119987" lon="13.248553383984763"><ele>419.0</ele><time>2026-04-12T08:48:41Z</time></trkpt><trkpt lat="43.35064770077066" lon="13.24836991791331"><ele>419.0</ele><time>2026-04-12T08:48:42Z</time></trkpt><trkpt lat="43.35058952193125" lon="13.248188166820174"><ele>419.0</ele><time>2026-04-12T08:48:43Z</time></trkpt><trkpt lat="43.350549157094605" lon="13.247999650294012"><ele>419.0</ele><time>2026-04-12T08:48:44Z</time></trkpt><trkpt lat="43.35052623858838" lon="13.247793470944952"><ele>419.0</ele><time>2026-04-12T08:48:45Z</time></trkpt><trkpt lat="43.35052191380926" lon="13.247581021504214"><ele>422.0</ele><time>2026-04-12T08:48:46Z</time></trkpt><trkpt lat="43.35051949158047" lon="13.247363141358434"><ele>425.0</ele><time>2026-04-12T08:48:47Z</time></trkpt><trkpt lat="43.35051315895758" lon="13.247140751919197"><ele>428.0</ele><time>2026-04-12T08:48:48Z</time></trkpt><trkpt lat="43.35050484389987" lon="13.246915207599903"><ele>431.0</ele><time>2026-04-12T08:48:49Z</time></trkpt><trkpt lat="43.350497525116154" lon="13.246686582519075"><ele>434.0</ele><time>2026-04-12T08:48:50Z</time></trkpt><trkpt lat="43.35049149476849" lon="13.246454157200471"><ele>437.0</ele><time>2026-04-12T08:48:51Z</time></trkpt><trkpt lat="43.35048700462728" lon="13.246219329749795"><ele>440.66666666666663</ele><time>2026-04-12T08:48:52Z</time></trkpt><trkpt lat="43.35048159297273" lon="13.24598775219737"><ele>444.33333333333337</ele><time>2026-04-12T08:48:53Z</time></trkpt><trkpt lat="43.350473880348474" lon="13.245753597905804"><ele>448.0</ele><time>2026-04-12T08:48:54Z</time></trkpt><trkpt lat="43.35046830349089" lon="13.24552754345822"><ele>450.6666666666667</ele><time>2026-04-12T08:48:55Z</time></trkpt><trkpt lat="43.350469329537326" lon="13.24531065671388"><ele>453.33333333333337</ele><time>2026-04-12T08:48:56Z</time></trkpt><trkpt lat="43.35047168077248" lon="13.245097938074418"><ele>456.0</ele><time>2026-04-12T08:48:57Z</time></trkpt><trkpt lat="43.35047622015524" lon="13.244869655552181"><ele>456.0</ele><time>2026-04-12T08:48:58Z</time></trkpt><trkpt lat="43.35048491603568" lon="13.244643331414355"><ele>456.0</ele><time>2026-04-12T08:48:59Z</time></trkpt><trkpt lat="43.35049682223927" lon="13.244418173890715"><ele>456.0</ele><time>2026-04-12T08:49:00Z</time></trkpt><trkpt lat="43.350517190067364" lon="13.244199882969786"><ele>456.0</ele><time>2026-04-12T08:49:01Z</time></trkpt><trkpt lat="43.35054122882074" lon="13.24400556227714"><ele>456.0</ele><time>2026-04-12T08:49:02Z</time></trkpt><trkpt lat="43.350555929782495" lon="13.243862903066276"><ele>456.0</ele><time>2026-04-12T08:49:03Z</time></trkpt><trkpt lat="43.350555956311474" lon="13.24365041168983"><ele>456.0</ele><time>2026-04-12T08:49:05Z</time></trkpt><trkpt lat="43.35058348916113" lon="13.24351455559902"><ele>456.3333333333333</ele><time>2026-04-12T08:49:07Z</time></trkpt><trkpt lat="43.35051137152454" lon="13.243400289990811"><ele>456.66666666666663</ele><time>2026-04-12T08:49:09Z</time></trkpt><trkpt lat="43.35049689936302" lon="13.243278689927337"><ele>457.0</ele><time>2026-04-12T08:49:11Z</time></trkpt><trkpt lat="43.35049114029371" lon="13.243190595654482"><ele>457.3333333333333</ele><time>2026-04-12T08:49:12Z</time></trkpt><trkpt lat="43.350475449209526" lon="13.243075744183322"><ele>457.66666666666663</ele><time>2026-04-12T08:49:13Z</time></trkpt><trkpt lat="43.350452233528046" lon="13.242950916329931"><ele>458.0</ele><time>2026-04-12T08:49:14Z</time></trkpt><trkpt lat="43.35041661592375" lon="13.242832545175462"><ele>459.79999999999995</ele><time>2026-04-12T08:49:15Z</time></trkpt><trkpt lat="43.35035957250413" lon="13.242721262946086"><ele>461.59999999999997</ele><time>2026-04-12T08:49:16Z</time></trkpt><trkpt lat="43.35029767997646" lon="13.242628097547632"><ele>463.40000000000003</ele><time>2026-04-12T08:49:17Z</time></trkpt><trkpt lat="43.3502415580571" lon="13.242558260669265"><ele>465.20000000000005</ele><time>2026-04-12T08:49:18Z</time></trkpt><trkpt lat="43.350131055446276" lon="13.24248831809683"><ele>467.0</ele><time>2026-04-12T08:49:20Z</time></trkpt><trkpt lat="43.350039387815876" lon="13.24248311640586"><ele>467.0</ele><time>2026-04-12T08:49:22Z</time></trkpt><trkpt lat="43.349925777019116" lon="13.242464666634103"><ele>467.00000000000006</ele><time>2026-04-12T08:49:24Z</time></trkpt><trkpt lat="43.349860711001334" lon="13.242477428354906"><ele>467.00000000000006</ele><time>2026-04-12T08:49:25Z</time></trkpt><trkpt lat="43.34977501559226" lon="13.242456707681164"><ele>467.0</ele><time>2026-04-12T08:49:26Z</time></trkpt><trkpt lat="43.34967193759761" lon="13.242420279140028"><ele>467.0</ele><time>2026-04-12T08:49:27Z</time></trkpt><trkpt lat="43.349579537709715" lon="13.242386086614868"><ele>467.49999999999994</ele><time>2026-04-12T08:49:28Z</time></trkpt><trkpt lat="43.34949513084211" lon="13.242360627921991"><ele>468.0</ele><time>2026-04-12T08:49:29Z</time></trkpt><trkpt lat="43.349419013387596" lon="13.242338386704052"><ele>468.5</ele><time>2026-04-12T08:49:30Z</time></trkpt><trkpt lat="43.349333730071606" lon="13.242313467176695"><ele>469.0</ele><time>2026-04-12T08:49:31Z</time></trkpt><trkpt lat="43.34924046931574" lon="13.242286216014405"><ele>469.49999999999994</ele><time>2026-04-12T08:49:32Z</time></trkpt><trkpt lat="43.34915208859423" lon="13.242260390819393"><ele>470.0</ele><time>2026-04-12T08:49:33Z</time></trkpt><trkpt lat="43.3490734389861" lon="13.242229525604268"><ele>470.0</ele><time>2026-04-12T08:49:34Z</time></trkpt><trkpt lat="43.34905049226501" lon="13.241807262358797"><ele>470.0</ele><time>2026-04-12T08:49:35Z</time></trkpt><trkpt lat="43.34899366217485" lon="13.241681296089693"><ele>470.0</ele><time>2026-04-12T08:49:36Z</time></trkpt><trkpt lat="43.3489522656782" lon="13.241558809049668"><ele>471.8</ele><time>2026-04-12T08:49:37Z</time></trkpt><trkpt lat="43.34892149835514" lon="13.241422107746544"><ele>473.6</ele><time>2026-04-12T08:49:38Z</time></trkpt><trkpt lat="43.34889846913098" lon="13.241273099788566"><ele>475.4</ele><time>2026-04-12T08:49:39Z</time></trkpt><trkpt lat="43.34887923625334" lon="13.241127355143066"><ele>477.2</ele><time>2026-04-12T08:49:40Z</time></trkpt><trkpt lat="43.34886208056618" lon="13.241006832410308"><ele>479.0</ele><time>2026-04-12T08:49:41Z</time></trkpt><trkpt lat="43.34884782943167" lon="13.24090349554614"><ele>475.16666666666663</ele><time>2026-04-12T08:49:42Z</time></trkpt><trkpt lat="43.34883932945416" lon="13.240810898285755"><ele>471.3333333333333</ele><time>2026-04-12T08:49:43Z</time></trkpt><trkpt lat="43.34883792450129" lon="13.24070562633333"><ele>467.5</ele><time>2026-04-12T08:49:44Z</time></trkpt><trkpt lat="43.34883131760503" lon="13.240587488580736"><ele>463.66666666666663</ele><time>2026-04-12T08:49:45Z</time></trkpt><trkpt lat="43.34881759171677" lon="13.240501248694015"><ele>459.8333333333333</ele><time>2026-04-12T08:49:46Z</time></trkpt><trkpt lat="43.34879954976085" lon="13.24039182530899"><ele>456.0</ele><time>2026-04-12T08:49:47Z</time></trkpt><trkpt lat="43.34878192008661" lon="13.240240001933518"><ele>456.0</ele><time>2026-04-12T08:49:48Z</time></trkpt><trkpt lat="43.348763990357256" lon="13.24007494745319"><ele>456.0</ele><time>2026-04-12T08:49:49Z</time></trkpt><trkpt lat="43.34874201972811" lon="13.239930749369629"><ele>456.0</ele><time>2026-04-12T08:49:50Z</time></trkpt><trkpt lat="43.34872419549515" lon="13.239809415251194"><ele>456.0</ele><time>2026-04-12T08:49:51Z</time></trkpt><trkpt lat="43.348695460902704" lon="13.23969828712191"><ele>456.0</ele><time>2026-04-12T08:49:52Z</time></trkpt><trkpt lat="43.348651799274464" lon="13.239586585184169"><ele>457.4</ele><time>2026-04-12T08:49:53Z</time></trkpt><trkpt lat="43.348594890414084" lon="13.239490997101658"><ele>458.8</ele><time>2026-04-12T08:49:54Z</time></trkpt><trkpt lat="43.34852064329849" lon="13.239389750982353"><ele>460.19999999999993</ele><time>2026-04-12T08:49:55Z</time></trkpt><trkpt lat="43.3484466482469" lon="13.239310766133931"><ele>461.59999999999997</ele><time>2026-04-12T08:49:56Z</time></trkpt><trkpt lat="43.34838527036055" lon="13.23923971925121"><ele>463.0</ele><time>2026-04-12T08:49:57Z</time></trkpt><trkpt lat="43.34825657585681" lon="13.239132043786423"><ele>463.0</ele><time>2026-04-12T08:49:59Z</time></trkpt><trkpt lat="43.34817697227346" lon="13.239109964932725"><ele>462.99999999999994</ele><time>2026-04-12T08:50:00Z</time></trkpt><trkpt lat="43.34811167629313" lon="13.239096599125192"><ele>462.99999999999994</ele><time>2026-04-12T08:50:01Z</time></trkpt><trkpt lat="43.34800986812505" lon="13.239108847835517"><ele>463.0</ele><time>2026-04-12T08:50:03Z</time></trkpt><trkpt lat="43.347920826351576" lon="13.239132823601198"><ele>463.0</ele><time>2026-04-12T08:50:05Z</time></trkpt><trkpt lat="43.34779865846041" lon="13.23917485747115"><ele>462.6666666666667</ele><time>2026-04-12T08:50:07Z</time></trkpt><trkpt lat="43.34773177316257" lon="13.239191661251333"><ele>462.33333333333337</ele><time>2026-04-12T08:50:08Z</time></trkpt><trkpt lat="43.34765706967979" lon="13.239207287834784"><ele>462.0</ele><time>2026-04-12T08:50:09Z</time></trkpt><trkpt lat="43.347589531851256" lon="13.239224725626864"><ele>461.66666666666663</ele><time>2026-04-12T08:50:10Z</time></trkpt><trkpt lat="43.34751201132488" lon="13.239243540136284"><ele>461.3333333333333</ele><time>2026-04-12T08:50:11Z</time></trkpt><trkpt lat="43.34744580657725" lon="13.239277995115923"><ele>461.0</ele><time>2026-04-12T08:50:12Z</time></trkpt><trkpt lat="43.3473517671111" lon="13.239360659104266"><ele>461.0</ele><time>2026-04-12T08:50:14Z</time></trkpt><trkpt lat="43.34730681857082" lon="13.239498735451933"><ele>461.0</ele><time>2026-04-12T08:50:16Z</time></trkpt><trkpt lat="43.34728416567563" lon="13.239592161330481"><ele>461.0</ele><time>2026-04-12T08:50:17Z</time></trkpt><trkpt lat="43.34725487501406" lon="13.239686618360231"><ele>461.0</ele><time>2026-04-12T08:50:18Z</time></trkpt><trkpt lat="43.34722196285763" lon="13.239773159704528"><ele>461.0</ele><time>2026-04-12T08:50:19Z</time></trkpt><trkpt lat="43.34715250986414" lon="13.239919271989153"><ele>465.20000000000005</ele><time>2026-04-12T08:50:21Z</time></trkpt><trkpt lat="43.34711594609363" lon="13.240035751028758"><ele>469.40000000000003</ele><time>2026-04-12T08:50:22Z</time></trkpt><trkpt lat="43.34707080840875" lon="13.240171589791887"><ele>473.6</ele><time>2026-04-12T08:50:23Z</time></trkpt><trkpt lat="43.347023747615744" lon="13.240288323862217"><ele>477.8</ele><time>2026-04-12T08:50:24Z</time></trkpt><trkpt lat="43.346987857417005" lon="13.240381922044675"><ele>482.0</ele><time>2026-04-12T08:50:25Z</time></trkpt><trkpt lat="43.34692018716244" lon="13.240494278060263"><ele>481.99999999999994</ele><time>2026-04-12T08:50:27Z</time></trkpt><trkpt lat="43.34684482507963" lon="13.240586475453291"><ele>482.0</ele><time>2026-04-12T08:50:29Z</time></trkpt><trkpt lat="43.346803212970244" lon="13.240653203197372"><ele>482.0</ele><time>2026-04-12T08:50:32Z</time></trkpt><trkpt lat="43.346741746853404" lon="13.240720025197787"><ele>482.0</ele><time>2026-04-12T08:50:42.001Z</time></trkpt><trkpt lat="43.34668877018046" lon="13.240775651752102"><ele>481.99999999999994</ele><time>2026-04-12T08:50:44Z</time></trkpt><trkpt lat="43.34660802187109" lon="13.24084138868344"><ele>482.0</ele><time>2026-04-12T08:50:46Z</time></trkpt><trkpt lat="43.34654234191648" lon="13.240912907767214"><ele>479.66666666666663</ele><time>2026-04-12T08:50:48Z</time></trkpt><trkpt lat="43.34660028833249" lon="13.240852129459695"><ele>477.3333333333333</ele><time>2026-04-12T08:58:01Z</time></trkpt><trkpt lat="43.346670463844426" lon="13.240788595985315"><ele>475.0</ele><time>2026-04-12T08:58:03Z</time></trkpt><trkpt lat="43.34672846615182" lon="13.240731373565984"><ele>472.66666666666663</ele><time>2026-04-12T08:58:05Z</time></trkpt><trkpt lat="43.34678834376768" lon="13.24066618044972"><ele>470.3333333333333</ele><time>2026-04-12T08:58:08Z</time></trkpt><trkpt lat="43.34678203203296" lon="13.240785164949955"><ele>468.0</ele><time>2026-04-12T08:58:15Z</time></trkpt><trkpt lat="43.34670954690856" lon="13.240864192640801"><ele>468.0</ele><time>2026-04-12T08:58:16Z</time></trkpt><trkpt lat="43.34664345974458" lon="13.240958507984782"><ele>467.99999999999994</ele><time>2026-04-12T08:58:17Z</time></trkpt><trkpt lat="43.34658755166712" lon="13.241062354238395"><ele>467.99999999999994</ele><time>2026-04-12T08:58:18Z</time></trkpt><trkpt lat="43.346527026770374" lon="13.241150888891575"><ele>468.0</ele><time>2026-04-12T08:58:19Z</time></trkpt><trkpt lat="43.346467365668644" lon="13.241239194658068"><ele>468.0</ele><time>2026-04-12T08:58:20Z</time></trkpt><trkpt lat="43.346404653064475" lon="13.241337826266182"><ele>468.8333333333333</ele><time>2026-04-12T08:58:21Z</time></trkpt><trkpt lat="43.34634537110738" lon="13.241456217197129"><ele>469.66666666666663</ele><time>2026-04-12T08:58:22Z</time></trkpt><trkpt lat="43.346296678272296" lon="13.241588298782514"><ele>470.5</ele><time>2026-04-12T08:58:23Z</time></trkpt><trkpt lat="43.34625490918134" lon="13.241689630173587"><ele>471.3333333333333</ele><time>2026-04-12T08:58:24Z</time></trkpt><trkpt lat="43.3462207734133" lon="13.241775989625364"><ele>472.16666666666663</ele><time>2026-04-12T08:58:25Z</time></trkpt><trkpt lat="43.34617457404836" lon="13.241857161778974"><ele>473.0</ele><time>2026-04-12T08:58:26Z</time></trkpt><trkpt lat="43.34612039296231" lon="13.24193294601832"><ele>472.99999999999994</ele><time>2026-04-12T08:58:27Z</time></trkpt><trkpt lat="43.346061383692586" lon="13.242003866990595"><ele>473.0</ele><time>2026-04-12T08:58:28Z</time></trkpt><trkpt lat="43.34602381863687" lon="13.242074735071325"><ele>473.0</ele><time>2026-04-12T08:58:29Z</time></trkpt><trkpt lat="43.34599377424189" lon="13.242209086130885"><ele>473.0</ele><time>2026-04-12T08:58:31Z</time></trkpt><trkpt lat="43.34591618122302" lon="13.242315315786751"><ele>472.99999999999994</ele><time>2026-04-12T08:58:33Z</time></trkpt><trkpt lat="43.34587013428171" lon="13.242376409855206"><ele>473.0</ele><time>2026-04-12T08:58:34Z</time></trkpt><trkpt lat="43.345819399991" lon="13.242453962791423"><ele>475.16666666666663</ele><time>2026-04-12T08:58:35Z</time></trkpt><trkpt lat="43.345765064661556" lon="13.242550024631209"><ele>477.3333333333333</ele><time>2026-04-12T08:58:36Z</time></trkpt><trkpt lat="43.34571770146665" lon="13.242649172591388"><ele>479.5</ele><time>2026-04-12T08:58:37Z</time></trkpt><trkpt lat="43.345675877682" lon="13.242742119342699"><ele>481.66666666666663</ele><time>2026-04-12T08:58:38Z</time></trkpt><trkpt lat="43.34562462146935" lon="13.24284471103984"><ele>483.8333333333333</ele><time>2026-04-12T08:58:39Z</time></trkpt><trkpt lat="43.345566448524245" lon="13.242952365827152"><ele>486.0</ele><time>2026-04-12T08:58:40Z</time></trkpt><trkpt lat="43.34550288898146" lon="13.243061304030064"><ele>481.20000000000005</ele><time>2026-04-12T08:58:41Z</time></trkpt><trkpt lat="43.34543712433811" lon="13.243155035393267"><ele>476.40000000000003</ele><time>2026-04-12T08:58:42Z</time></trkpt><trkpt lat="43.345350394798864" lon="13.243304979028201"><ele>471.6</ele><time>2026-04-12T08:58:44Z</time></trkpt><trkpt lat="43.34533897752584" lon="13.243394915353745"><ele>466.8</ele><time>2026-04-12T08:59:14Z</time></trkpt><trkpt lat="43.34535861814218" lon="13.243284754667238"><ele>462.0</ele><time>2026-04-12T08:59:38Z</time></trkpt><trkpt lat="43.34541967933654" lon="13.243196457176728"><ele>460.25</ele><time>2026-04-12T08:59:40Z</time></trkpt><trkpt lat="43.34552060064985" lon="13.243024280241569"><ele>458.5</ele><time>2026-04-12T08:59:42Z</time></trkpt><trkpt lat="43.34559527270321" lon="13.242908616270677"><ele>456.75</ele><time>2026-04-12T08:59:43Z</time></trkpt><trkpt lat="43.34565626875919" lon="13.242809145543045"><ele>455.0</ele><time>2026-04-12T08:59:44Z</time></trkpt><trkpt lat="43.34572120583373" lon="13.242687846307335"><ele>455.0</ele><time>2026-04-12T08:59:45Z</time></trkpt><trkpt lat="43.34577999302263" lon="13.242556889339925"><ele>455.0</ele><time>2026-04-12T08:59:46Z</time></trkpt><trkpt lat="43.34583157482002" lon="13.242446741021848"><ele>455.0</ele><time>2026-04-12T08:59:47Z</time></trkpt><trkpt lat="43.3458846329947" lon="13.242357405943627"><ele>455.0</ele><time>2026-04-12T08:59:48Z</time></trkpt><trkpt lat="43.34595362520845" lon="13.242274503054063"><ele>455.0</ele><time>2026-04-12T08:59:49Z</time></trkpt><trkpt lat="43.346017679964646" lon="13.242193297911689"><ele>457.99999999999994</ele><time>2026-04-12T08:59:50Z</time></trkpt><trkpt lat="43.346061950456566" lon="13.2421140658092"><ele>461.0</ele><time>2026-04-12T08:59:51Z</time></trkpt><trkpt lat="43.34609456770916" lon="13.241965236325846"><ele>464.0</ele><time>2026-04-12T08:59:53Z</time></trkpt><trkpt lat="43.34614147997894" lon="13.24189801209275"><ele>467.0</ele><time>2026-04-12T08:59:54Z</time></trkpt><trkpt lat="43.34619737268974" lon="13.24184507372359"><ele>469.99999999999994</ele><time>2026-04-12T08:59:55Z</time></trkpt><trkpt lat="43.34626157803718" lon="13.241740702474871"><ele>473.0</ele><time>2026-04-12T08:59:56Z</time></trkpt><trkpt lat="43.34631471718144" lon="13.241635387176082"><ele>473.0</ele><time>2026-04-12T08:59:57Z</time></trkpt><trkpt lat="43.34634751477324" lon="13.241518478038113"><ele>472.99999999999994</ele><time>2026-04-12T08:59:58Z</time></trkpt><trkpt lat="43.34639950711951" lon="13.241391701107265"><ele>472.99999999999994</ele><time>2026-04-12T08:59:59Z</time></trkpt><trkpt lat="43.346455124702075" lon="13.241270670356077"><ele>473.0</ele><time>2026-04-12T09:00:00Z</time></trkpt><trkpt lat="43.34653064659505" lon="13.241161786010652"><ele>473.0</ele><time>2026-04-12T09:00:01Z</time></trkpt><trkpt lat="43.34668431389892" lon="13.240943816097856"><ele>472.16666666666663</ele><time>2026-04-12T09:00:03Z</time></trkpt><trkpt lat="43.34674694514116" lon="13.24084665039788"><ele>471.3333333333333</ele><time>2026-04-12T09:00:04Z</time></trkpt><trkpt lat="43.346796589220865" lon="13.240767041753946"><ele>470.5</ele><time>2026-04-12T09:00:05Z</time></trkpt><trkpt lat="43.34683277619648" lon="13.240693506919573"><ele>469.66666666666663</ele><time>2026-04-12T09:00:06Z</time></trkpt><trkpt lat="43.34685480145227" lon="13.240603240460374"><ele>468.8333333333333</ele><time>2026-04-12T09:00:08Z</time></trkpt><trkpt lat="43.34690705260359" lon="13.240502699906754"><ele>468.0</ele><time>2026-04-12T09:00:10Z</time></trkpt><trkpt lat="43.346949368193314" lon="13.240429018972554"><ele>470.79999999999995</ele><time>2026-04-12T09:00:11Z</time></trkpt><trkpt lat="43.347003115840074" lon="13.240332715422587"><ele>473.59999999999997</ele><time>2026-04-12T09:00:12Z</time></trkpt><trkpt lat="43.34705418346115" lon="13.24021487699271"><ele>476.40000000000003</ele><time>2026-04-12T09:00:13Z</time></trkpt><trkpt lat="43.34710058147205" lon="13.2401015948892"><ele>479.20000000000005</ele><time>2026-04-12T09:00:14Z</time></trkpt><trkpt lat="43.34714070398582" lon="13.239990294065784"><ele>482.0</ele><time>2026-04-12T09:00:15Z</time></trkpt><trkpt lat="43.34717737527371" lon="13.239877572983668"><ele>477.8</ele><time>2026-04-12T09:00:16Z</time></trkpt><trkpt lat="43.347212237240846" lon="13.239782868982534"><ele>473.6</ele><time>2026-04-12T09:00:17Z</time></trkpt><trkpt lat="43.34724551121977" lon="13.239689912930908"><ele>469.40000000000003</ele><time>2026-04-12T09:00:18Z</time></trkpt><trkpt lat="43.34728410052724" lon="13.239598644943099"><ele>465.20000000000005</ele><time>2026-04-12T09:00:19Z</time></trkpt><trkpt lat="43.34733015936051" lon="13.239449166798867"><ele>461.0</ele><time>2026-04-12T09:00:21Z</time></trkpt><trkpt lat="43.34739144791096" lon="13.239331495600577"><ele>461.0</ele><time>2026-04-12T09:00:23Z</time></trkpt><trkpt lat="43.347477489148055" lon="13.23927535363053"><ele>461.0</ele><time>2026-04-12T09:00:25Z</time></trkpt><trkpt lat="43.34755719334356" lon="13.23923867310584"><ele>461.0</ele><time>2026-04-12T09:00:26Z</time></trkpt><trkpt lat="43.347639732404" lon="13.239216924142958"><ele>461.0</ele><time>2026-04-12T09:00:27Z</time></trkpt><trkpt lat="43.34773240566464" lon="13.239201506246085"><ele>461.0</ele><time>2026-04-12T09:00:28Z</time></trkpt><trkpt lat="43.34782749296131" lon="13.239182714560096"><ele>460.99999999999994</ele><time>2026-04-12T09:00:29Z</time></trkpt><trkpt lat="43.34791198178732" lon="13.239158434925653"><ele>461.0</ele><time>2026-04-12T09:00:30Z</time></trkpt><trkpt lat="43.34798996285001" lon="13.239133111148822"><ele>461.0</ele><time>2026-04-12T09:00:31Z</time></trkpt><trkpt lat="43.34805250117074" lon="13.23911845737134"><ele>461.0</ele><time>2026-04-12T09:00:32Z</time></trkpt><trkpt lat="43.34811580283009" lon="13.239121279953848"><ele>460.99999999999994</ele><time>2026-04-12T09:00:33Z</time></trkpt><trkpt lat="43.348258538425604" lon="13.239171079858286"><ele>461.0</ele><time>2026-04-12T09:00:35Z</time></trkpt><trkpt lat="43.34834464685421" lon="13.239228242068643"><ele>461.4</ele><time>2026-04-12T09:00:36Z</time></trkpt><trkpt lat="43.34840932283108" lon="13.23928466891603"><ele>461.8</ele><time>2026-04-12T09:00:37Z</time></trkpt><trkpt lat="43.34846940735909" lon="13.239366524140811"><ele>462.19999999999993</ele><time>2026-04-12T09:00:38Z</time></trkpt><trkpt lat="43.34854456827842" lon="13.23948333737716"><ele>462.59999999999997</ele><time>2026-04-12T09:00:39Z</time></trkpt><trkpt lat="43.34861967765614" lon="13.239584216144278"><ele>463.0</ele><time>2026-04-12T09:00:40Z</time></trkpt><trkpt lat="43.34866578233278" lon="13.239670301029063"><ele>463.0</ele><time>2026-04-12T09:00:41Z</time></trkpt><trkpt lat="43.34870365515618" lon="13.239773635210604"><ele>462.99999999999994</ele><time>2026-04-12T09:00:42Z</time></trkpt><trkpt lat="43.3487339087554" lon="13.239920422253084"><ele>462.99999999999994</ele><time>2026-04-12T09:00:43Z</time></trkpt><trkpt lat="43.348751199622754" lon="13.240092192002884"><ele>463.0</ele><time>2026-04-12T09:00:44Z</time></trkpt><trkpt lat="43.34877045967012" lon="13.240262575920505"><ele>463.0</ele><time>2026-04-12T09:00:45Z</time></trkpt><trkpt lat="43.34878955962555" lon="13.240428191106815"><ele>461.83333333333337</ele><time>2026-04-12T09:00:46Z</time></trkpt><trkpt lat="43.348799951563784" lon="13.240562799878893"><ele>460.6666666666667</ele><time>2026-04-12T09:00:47Z</time></trkpt><trkpt lat="43.348811564931054" lon="13.240686104599476"><ele>459.5</ele><time>2026-04-12T09:00:49Z</time></trkpt><trkpt lat="43.348859695534436" lon="13.240627650854268"><ele>458.33333333333337</ele><time>2026-04-12T09:00:58Z</time></trkpt><trkpt lat="43.3488265789041" lon="13.240484397846133"><ele>457.1666666666667</ele><time>2026-04-12T09:01:00Z</time></trkpt><trkpt lat="43.34882688472196" lon="13.240387844260047"><ele>456.0</ele><time>2026-04-12T09:01:01Z</time></trkpt><trkpt lat="43.348830843532916" lon="13.240271123899594"><ele>456.0</ele><time>2026-04-12T09:01:02Z</time></trkpt><trkpt lat="43.34883172042347" lon="13.24013564316232"><ele>456.0</ele><time>2026-04-12T09:01:03Z</time></trkpt><trkpt lat="43.34883562838547" lon="13.23999224797734"><ele>456.0</ele><time>2026-04-12T09:01:04Z</time></trkpt><trkpt lat="43.34884014588305" lon="13.23984803484993"><ele>456.0</ele><time>2026-04-12T09:01:05Z</time></trkpt><trkpt lat="43.348840285214344" lon="13.239694086300046"><ele>456.0</ele><time>2026-04-12T09:01:06Z</time></trkpt><trkpt lat="43.34884110487395" lon="13.239534706699654"><ele>457.75</ele><time>2026-04-12T09:01:07Z</time></trkpt><trkpt lat="43.34883662125185" lon="13.239383022975934"><ele>459.5</ele><time>2026-04-12T09:01:08Z</time></trkpt><trkpt lat="43.34883283301194" lon="13.239222007004877"><ele>461.25</ele><time>2026-04-12T09:01:09Z</time></trkpt><trkpt lat="43.348834698405085" lon="13.239041955351091"><ele>463.0</ele><time>2026-04-12T09:01:10Z</time></trkpt><trkpt lat="43.3488332441805" lon="13.238897983397477"><ele>464.79999999999995</ele><time>2026-04-12T09:01:11Z</time></trkpt><trkpt lat="43.348822146681485" lon="13.238756139610151"><ele>466.59999999999997</ele><time>2026-04-12T09:01:12Z</time></trkpt><trkpt lat="43.348822280135074" lon="13.238646131442943"><ele>468.40000000000003</ele><time>2026-04-12T09:01:13Z</time></trkpt><trkpt lat="43.348805249498646" lon="13.238516681925494"><ele>470.20000000000005</ele><time>2026-04-12T09:01:14Z</time></trkpt><trkpt lat="43.3488254900119" lon="13.238398657288"><ele>472.0</ele><time>2026-04-12T09:01:15Z</time></trkpt><trkpt lat="43.348822425366414" lon="13.238245207157776"><ele>472.00000000000006</ele><time>2026-04-12T09:01:17Z</time></trkpt><trkpt lat="43.348810226644964" lon="13.23811802671255"><ele>472.0</ele><time>2026-04-12T09:01:19Z</time></trkpt><trkpt lat="43.34877721551798" lon="13.237996704720256"><ele>472.0</ele><time>2026-04-12T09:01:21Z</time></trkpt><trkpt lat="43.348749583729216" lon="13.237908982696903"><ele>472.0</ele><time>2026-04-12T09:01:24Z</time></trkpt><trkpt lat="43.348767310294505" lon="13.23800408696205"><ele>472.00000000000006</ele><time>2026-04-12T09:01:43Z</time></trkpt><trkpt lat="43.34879823365057" lon="13.238154395185607"><ele>472.0</ele><time>2026-04-12T09:01:45Z</time></trkpt><trkpt lat="43.3488195984884" lon="13.238272523572013"><ele>472.0</ele><time>2026-04-12T09:01:46Z</time></trkpt><trkpt lat="43.34882743346661" lon="13.238389991980853"><ele>472.00000000000006</ele><time>2026-04-12T09:01:47Z</time></trkpt><trkpt lat="43.34882703147388" lon="13.23851632769162"><ele>472.00000000000006</ele><time>2026-04-12T09:01:48Z</time></trkpt><trkpt lat="43.3488206066721" lon="13.238649692795837"><ele>472.0</ele><time>2026-04-12T09:01:49Z</time></trkpt><trkpt lat="43.34882577407498" lon="13.238773916427249"><ele>472.0</ele><time>2026-04-12T09:01:50Z</time></trkpt><trkpt lat="43.34884198515402" lon="13.238921573313958"><ele>469.75</ele><time>2026-04-12T09:01:51Z</time></trkpt><trkpt lat="43.34885023834943" lon="13.239079846548908"><ele>467.5</ele><time>2026-04-12T09:01:52Z</time></trkpt><trkpt lat="43.34885672600744" lon="13.239250000102505"><ele>465.25</ele><time>2026-04-12T09:01:53Z</time></trkpt><trkpt lat="43.348848944955535" lon="13.239445298779112"><ele>463.0</ele><time>2026-04-12T09:01:54Z</time></trkpt><trkpt lat="43.34885230891369" lon="13.239653269093168"><ele>460.6666666666667</ele><time>2026-04-12T09:01:55Z</time></trkpt><trkpt lat="43.34885586478327" lon="13.239847219552214"><ele>458.33333333333337</ele><time>2026-04-12T09:01:56Z</time></trkpt><trkpt lat="43.34885397733114" lon="13.24020713083305"><ele>456.0</ele><time>2026-04-12T09:01:58Z</time></trkpt><trkpt lat="43.348852860310934" lon="13.240355884468938"><ele>456.0</ele><time>2026-04-12T09:01:59Z</time></trkpt><trkpt lat="43.34885312049196" lon="13.2404700432477"><ele>456.0</ele><time>2026-04-12T09:02:00Z</time></trkpt><trkpt lat="43.34885182306429" lon="13.240559386477635"><ele>456.0</ele><time>2026-04-12T09:02:01Z</time></trkpt><trkpt lat="43.34884135781882" lon="13.240696989145558"><ele>456.0</ele><time>2026-04-12T09:02:03Z</time></trkpt><trkpt lat="43.348834336145366" lon="13.24087447921208"><ele>456.0</ele><time>2026-04-12T09:02:05Z</time></trkpt><trkpt lat="43.34884650355671" lon="13.241018624795956"><ele>454.5</ele><time>2026-04-12T09:02:06Z</time></trkpt><trkpt lat="43.34887166436972" lon="13.241188188831604"><ele>453.0</ele><time>2026-04-12T09:02:07Z</time></trkpt><trkpt lat="43.348909229406175" lon="13.241374679961924"><ele>451.5</ele><time>2026-04-12T09:02:08Z</time></trkpt><trkpt lat="43.34893238079475" lon="13.241523288216381"><ele>450.0</ele><time>2026-04-12T09:02:09Z</time></trkpt><trkpt lat="43.34896176441232" lon="13.241654711968433"><ele>455.0</ele><time>2026-04-12T09:02:10Z</time></trkpt><trkpt lat="43.34901365215604" lon="13.2417900799446"><ele>460.0</ele><time>2026-04-12T09:02:11Z</time></trkpt><trkpt lat="43.34909062786926" lon="13.241921757303128"><ele>465.0</ele><time>2026-04-12T09:02:12Z</time></trkpt><trkpt lat="43.34917327835597" lon="13.24205041123954"><ele>470.0</ele><time>2026-04-12T09:02:13Z</time></trkpt><trkpt lat="43.34925138173042" lon="13.242156670144999"><ele>470.0</ele><time>2026-04-12T09:02:14Z</time></trkpt><trkpt lat="43.349342550824694" lon="13.242249247134026"><ele>470.0</ele><time>2026-04-12T09:02:15Z</time></trkpt><trkpt lat="43.34944060160108" lon="13.242319026673949"><ele>470.0</ele><time>2026-04-12T09:02:16Z</time></trkpt><trkpt lat="43.3495392013804" lon="13.24236142162795"><ele>470.0</ele><time>2026-04-12T09:02:17Z</time></trkpt><trkpt lat="43.34964987575422" lon="13.242459260335158"><ele>469.4</ele><time>2026-04-12T09:02:18Z</time></trkpt><trkpt lat="43.3497732240947" lon="13.242503015130538"><ele>468.8</ele><time>2026-04-12T09:02:19Z</time></trkpt><trkpt lat="43.34988203084005" lon="13.242526246664989"><ele>468.20000000000005</ele><time>2026-04-12T09:02:20Z</time></trkpt><trkpt lat="43.34997446268679" lon="13.242523752165145"><ele>467.6</ele><time>2026-04-12T09:02:21Z</time></trkpt><trkpt lat="43.35009078176829" lon="13.24250374840164"><ele>467.0</ele><time>2026-04-12T09:02:23Z</time></trkpt><trkpt lat="43.350167285957895" lon="13.242526441607913"><ele>466.99999999999994</ele><time>2026-04-12T09:02:25Z</time></trkpt><trkpt lat="43.35021252980983" lon="13.242590522941292"><ele>467.0</ele><time>2026-04-12T09:02:26Z</time></trkpt><trkpt lat="43.350270261240865" lon="13.242663922295037"><ele>467.0</ele><time>2026-04-12T09:02:27Z</time></trkpt><trkpt lat="43.35033833172654" lon="13.242767955296262"><ele>467.0</ele><time>2026-04-12T09:02:28Z</time></trkpt><trkpt lat="43.350398694373816" lon="13.24288057272835"><ele>466.99999999999994</ele><time>2026-04-12T09:02:29Z</time></trkpt><trkpt lat="43.35043659459332" lon="13.242994805468442"><ele>467.0</ele><time>2026-04-12T09:02:30Z</time></trkpt><trkpt lat="43.35045201142846" lon="13.243110413202272"><ele>465.20000000000005</ele><time>2026-04-12T09:02:31Z</time></trkpt><trkpt lat="43.350480078718775" lon="13.243221610448835"><ele>463.40000000000003</ele><time>2026-04-12T09:02:32Z</time></trkpt><trkpt lat="43.3504947894082" lon="13.24332685006789"><ele>461.59999999999997</ele><time>2026-04-12T09:02:33Z</time></trkpt><trkpt lat="43.35050972584214" lon="13.243463816284986"><ele>459.79999999999995</ele><time>2026-04-12T09:02:35Z</time></trkpt><trkpt lat="43.35052921253777" lon="13.243563889615153"><ele>458.0</ele><time>2026-04-12T09:02:43Z</time></trkpt><trkpt lat="43.35060146263515" lon="13.24338163928169"><ele>457.79999999999995</ele><time>2026-04-12T09:02:46Z</time></trkpt><trkpt lat="43.3506302291302" lon="13.24326661708896"><ele>457.59999999999997</ele><time>2026-04-12T09:02:47Z</time></trkpt><trkpt lat="43.35067084522668" lon="13.243139625843831"><ele>457.40000000000003</ele><time>2026-04-12T09:02:48Z</time></trkpt><trkpt lat="43.35072598854678" lon="13.24300137709817"><ele>457.20000000000005</ele><time>2026-04-12T09:02:49Z</time></trkpt><trkpt lat="43.350780676980236" lon="13.242858692767939"><ele>457.0</ele><time>2026-04-12T09:02:50Z</time></trkpt><trkpt lat="43.350836527779784" lon="13.24268440141176"><ele>457.0</ele><time>2026-04-12T09:02:51Z</time></trkpt><trkpt lat="43.35090550409302" lon="13.242513211772414"><ele>457.0</ele><time>2026-04-12T09:02:52Z</time></trkpt><trkpt lat="43.35097008715886" lon="13.242343365628185"><ele>457.0</ele><time>2026-04-12T09:02:53Z</time></trkpt><trkpt lat="43.3510402921597" lon="13.242171708794048"><ele>457.0</ele><time>2026-04-12T09:02:54Z</time></trkpt><trkpt lat="43.35110670951209" lon="13.241987755707056"><ele>458.6666666666667</ele><time>2026-04-12T09:02:55Z</time></trkpt><trkpt lat="43.351164618079984" lon="13.241794728905642"><ele>460.33333333333337</ele><time>2026-04-12T09:02:56Z</time></trkpt><trkpt lat="43.35122228216426" lon="13.241599685209936"><ele>462.0</ele><time>2026-04-12T09:02:57Z</time></trkpt><trkpt lat="43.35126732602475" lon="13.241409767994476"><ele>462.75</ele><time>2026-04-12T09:02:58Z</time></trkpt><trkpt lat="43.3513284996737" lon="13.241236703272127"><ele>463.5</ele><time>2026-04-12T09:02:59Z</time></trkpt><trkpt lat="43.351410907077636" lon="13.241083392448814"><ele>464.25</ele><time>2026-04-12T09:03:00Z</time></trkpt><trkpt lat="43.3515247264685" lon="13.240957671240988"><ele>465.0</ele><time>2026-04-12T09:03:01Z</time></trkpt><trkpt lat="43.351628065459934" lon="13.240800609494977"><ele>465.0</ele><time>2026-04-12T09:03:02Z</time></trkpt><trkpt lat="43.351743996283865" lon="13.240655692723323"><ele>465.0</ele><time>2026-04-12T09:03:03Z</time></trkpt><trkpt lat="43.35185100645567" lon="13.240494482840097"><ele>465.0</ele><time>2026-04-12T09:03:04Z</time></trkpt><trkpt lat="43.35195017995098" lon="13.240329637193652"><ele>465.75</ele><time>2026-04-12T09:03:05Z</time></trkpt><trkpt lat="43.35203630954708" lon="13.240184094344045"><ele>466.5</ele><time>2026-04-12T09:03:06Z</time></trkpt><trkpt lat="43.35213472750167" lon="13.240052927582829"><ele>467.25</ele><time>2026-04-12T09:03:07Z</time></trkpt><trkpt lat="43.35224769447705" lon="13.239936045277034"><ele>468.0</ele><time>2026-04-12T09:03:08Z</time></trkpt><trkpt lat="43.35237002189494" lon="13.239824412125401"><ele>475.0</ele><time>2026-04-12T09:03:09Z</time></trkpt><trkpt lat="43.35249484832139" lon="13.239711902435474"><ele>482.0</ele><time>2026-04-12T09:03:10Z</time></trkpt><trkpt lat="43.35262849585735" lon="13.239618213860775"><ele>489.0</ele><time>2026-04-12T09:03:11Z</time></trkpt><trkpt lat="43.35274106402121" lon="13.23953127433172"><ele>496.0</ele><time>2026-04-12T09:03:12Z</time></trkpt><trkpt lat="43.35286680873437" lon="13.23949942279836"><ele>496.0</ele><time>2026-04-12T09:03:13Z</time></trkpt><trkpt lat="43.35299285709531" lon="13.23944440365563"><ele>496.0</ele><time>2026-04-12T09:03:14Z</time></trkpt><trkpt lat="43.35312509384288" lon="13.239434546481212"><ele>496.0</ele><time>2026-04-12T09:03:15Z</time></trkpt><trkpt lat="43.353247898918546" lon="13.239438817013161"><ele>496.0</ele><time>2026-04-12T09:03:16Z</time></trkpt><trkpt lat="43.35332227371624" lon="13.239498002585481"><ele>493.00000000000006</ele><time>2026-04-12T09:03:17Z</time></trkpt><trkpt lat="43.35338298728394" lon="13.2395473107124"><ele>490.0</ele><time>2026-04-12T09:03:18Z</time></trkpt><trkpt lat="43.35339616347764" lon="13.239699949560297"><ele>487.0</ele><time>2026-04-12T09:03:19.999Z</time></trkpt><trkpt lat="43.35340723314273" lon="13.23979315177804"><ele>484.0</ele><time>2026-04-12T09:03:20.999Z</time></trkpt><trkpt lat="43.35337294797397" lon="13.239896941768821"><ele>481.00000000000006</ele><time>2026-04-12T09:03:21.999Z</time></trkpt><trkpt lat="43.35333376539169" lon="13.2399998664971"><ele>478.0</ele><time>2026-04-12T09:03:22.999Z</time></trkpt><trkpt lat="43.35328821986058" lon="13.24012865737018"><ele>477.2</ele><time>2026-04-12T09:03:23.999Z</time></trkpt><trkpt lat="43.35323717493911" lon="13.240252547003477"><ele>476.4</ele><time>2026-04-12T09:03:24.999Z</time></trkpt><trkpt lat="43.35318810199849" lon="13.240376976575007"><ele>475.59999999999997</ele><time>2026-04-12T09:03:25.999Z</time></trkpt><trkpt lat="43.353148459339586" lon="13.240484178789476"><ele>474.79999999999995</ele><time>2026-04-12T09:03:26.999Z</time></trkpt><trkpt lat="43.35310015219317" lon="13.24060691188111"><ele>474.0</ele><time>2026-04-12T09:03:28.999Z</time></trkpt><trkpt lat="43.35306269084319" lon="13.24067768850183"><ele>471.79999999999995</ele><time>2026-04-12T09:03:30.999Z</time></trkpt><trkpt lat="43.35301054443675" lon="13.240832156790438"><ele>469.59999999999997</ele><time>2026-04-12T09:03:32.999Z</time></trkpt><trkpt lat="43.35296822320004" lon="13.240937311202876"><ele>467.4</ele><time>2026-04-12T09:03:34Z</time></trkpt><trkpt lat="43.35293216117099" lon="13.241043902386721"><ele>465.2</ele><time>2026-04-12T09:03:35Z</time></trkpt><trkpt lat="43.35289401716402" lon="13.241148000487394"><ele>463.0</ele><time>2026-04-12T09:03:36Z</time></trkpt><trkpt lat="43.352872866132394" lon="13.241242349153397"><ele>463.0</ele><time>2026-04-12T09:03:37Z</time></trkpt><trkpt lat="43.35287448868219" lon="13.241337430791964"><ele>462.99999999999994</ele><time>2026-04-12T09:03:38Z</time></trkpt><trkpt lat="43.35296072693045" lon="13.24142832536457"><ele>462.99999999999994</ele><time>2026-04-12T09:03:40Z</time></trkpt><trkpt lat="43.35308336412077" lon="13.241365133013472"><ele>463.0</ele><time>2026-04-12T09:03:42Z</time></trkpt><trkpt lat="43.35313741752825" lon="13.241271099787967"><ele>463.0</ele><time>2026-04-12T09:03:43Z</time></trkpt><trkpt lat="43.35318724916482" lon="13.241158512967312"><ele>465.75</ele><time>2026-04-12T09:03:44Z</time></trkpt><trkpt lat="43.35322835829429" lon="13.241038930004436"><ele>468.5</ele><time>2026-04-12T09:03:45Z</time></trkpt><trkpt lat="43.35326944961283" lon="13.240914969332517"><ele>471.25</ele><time>2026-04-12T09:03:46Z</time></trkpt><trkpt lat="43.35333961380178" lon="13.240808805008085"><ele>474.0</ele><time>2026-04-12T09:03:47Z</time></trkpt><trkpt lat="43.35347585541537" lon="13.240578016054354"><ele>474.0</ele><time>2026-04-12T09:03:49Z</time></trkpt><trkpt lat="43.353565829347644" lon="13.240481499116674"><ele>474.0</ele><time>2026-04-12T09:03:50Z</time></trkpt><trkpt lat="43.35366357175884" lon="13.240397645566574"><ele>474.0</ele><time>2026-04-12T09:03:51Z</time></trkpt><trkpt lat="43.353768628310085" lon="13.240323099910608"><ele>474.0</ele><time>2026-04-12T09:03:52Z</time></trkpt><trkpt lat="43.35387951326431" lon="13.24026032238462"><ele>478.5</ele><time>2026-04-12T09:03:53Z</time></trkpt><trkpt lat="43.353992907383066" lon="13.24020100935264"><ele>483.0</ele><time>2026-04-12T09:03:54Z</time></trkpt><trkpt lat="43.35411501757509" lon="13.240172785417501"><ele>487.5</ele><time>2026-04-12T09:03:55Z</time></trkpt><trkpt lat="43.35423669364723" lon="13.240106490783186"><ele>492.0</ele><time>2026-04-12T09:03:56Z</time></trkpt><trkpt lat="43.35434860384471" lon="13.24004024713065"><ele>492.0</ele><time>2026-04-12T09:03:57Z</time></trkpt><trkpt lat="43.35447107540679" lon="13.239963181214103"><ele>492.0</ele><time>2026-04-12T09:03:58Z</time></trkpt><trkpt lat="43.354599307978766" lon="13.239911678316362"><ele>492.0</ele><time>2026-04-12T09:03:59Z</time></trkpt><trkpt lat="43.354709006691564" lon="13.239837718992792"><ele>492.0</ele><time>2026-04-12T09:04:00Z</time></trkpt><trkpt lat="43.354817979033285" lon="13.239753785029507"><ele>495.0</ele><time>2026-04-12T09:04:01Z</time></trkpt><trkpt lat="43.3549146190686" lon="13.23965392109833"><ele>498.0</ele><time>2026-04-12T09:04:02Z</time></trkpt><trkpt lat="43.355013666631656" lon="13.239557222026466"><ele>501.0</ele><time>2026-04-12T09:04:03Z</time></trkpt><trkpt lat="43.35512030949233" lon="13.239468410981903"><ele>504.0</ele><time>2026-04-12T09:04:04Z</time></trkpt><trkpt lat="43.35522683311558" lon="13.23939299385335"><ele>504.0</ele><time>2026-04-12T09:04:05Z</time></trkpt><trkpt lat="43.3553239616252" lon="13.239340781418576"><ele>504.0</ele><time>2026-04-12T09:04:06Z</time></trkpt><trkpt lat="43.35540104921348" lon="13.239288385357467"><ele>504.0</ele><time>2026-04-12T09:04:07Z</time></trkpt><trkpt lat="43.35546507934735" lon="13.239237752411654"><ele>504.0</ele><time>2026-04-12T09:04:08Z</time></trkpt><trkpt lat="43.35554971951522" lon="13.239248182366369"><ele>504.0</ele><time>2026-04-12T09:04:10Z</time></trkpt><trkpt lat="43.35555562427529" lon="13.239377612552609"><ele>504.0</ele><time>2026-04-12T09:04:12Z</time></trkpt><trkpt lat="43.35549399483207" lon="13.239524504065738"><ele>504.0</ele><time>2026-04-12T09:04:14Z</time></trkpt><trkpt lat="43.35545612067997" lon="13.239606405016602"><ele>504.0</ele><time>2026-04-12T09:04:15Z</time></trkpt><trkpt lat="43.35540909613317" lon="13.239692279448072"><ele>504.0</ele><time>2026-04-12T09:04:16Z</time></trkpt><trkpt lat="43.35535554107115" lon="13.239785796438419"><ele>504.0</ele><time>2026-04-12T09:04:17Z</time></trkpt><trkpt lat="43.3553053841931" lon="13.239890235427724"><ele>504.0</ele><time>2026-04-12T09:04:18Z</time></trkpt><trkpt lat="43.355262257239396" lon="13.239976601338949"><ele>504.0</ele><time>2026-04-12T09:04:19Z</time></trkpt><trkpt lat="43.35522164120413" lon="13.240101633588871"><ele>506.25</ele><time>2026-04-12T09:04:21Z</time></trkpt><trkpt lat="43.355312438288045" lon="13.240373547688659"><ele>508.5</ele><time>2026-04-12T09:04:24Z</time></trkpt><trkpt lat="43.355359186598704" lon="13.2404733533045"><ele>510.75</ele><time>2026-04-12T09:04:25Z</time></trkpt><trkpt lat="43.35539433281511" lon="13.24058656310962"><ele>513.0</ele><time>2026-04-12T09:04:26Z</time></trkpt><trkpt lat="43.355443627570715" lon="13.240689559802737"><ele>515.1999999999999</ele><time>2026-04-12T09:04:27Z</time></trkpt><trkpt lat="43.355499728557426" lon="13.240806317496379"><ele>517.4</ele><time>2026-04-12T09:04:28Z</time></trkpt><trkpt lat="43.35555354522317" lon="13.240919432363494"><ele>519.5999999999999</ele><time>2026-04-12T09:04:29Z</time></trkpt><trkpt lat="43.35559840880934" lon="13.241025435122781"><ele>521.8</ele><time>2026-04-12T09:04:30Z</time></trkpt><trkpt lat="43.35569895083284" lon="13.241114656635412"><ele>524.0</ele><time>2026-04-12T09:04:32Z</time></trkpt><trkpt lat="43.355763028783805" lon="13.241106582960025"><ele>524.4</ele><time>2026-04-12T09:04:33Z</time></trkpt><trkpt lat="43.35582731541538" lon="13.241062161053073"><ele>524.8</ele><time>2026-04-12T09:04:34Z</time></trkpt><trkpt lat="43.35588913635858" lon="13.240995593158674"><ele>525.2</ele><time>2026-04-12T09:04:35Z</time></trkpt><trkpt lat="43.35596757484317" lon="13.240911698045066"><ele>525.6</ele><time>2026-04-12T09:04:36Z</time></trkpt><trkpt lat="43.356049761637735" lon="13.240816652461604"><ele>526.0</ele><time>2026-04-12T09:04:37Z</time></trkpt><trkpt lat="43.35613707095436" lon="13.24072416373035"><ele>526.0</ele><time>2026-04-12T09:04:38Z</time></trkpt><trkpt lat="43.35622160664972" lon="13.24063418772282"><ele>526.0</ele><time>2026-04-12T09:04:39Z</time></trkpt><trkpt lat="43.35630368102717" lon="13.240546426764867"><ele>526.0</ele><time>2026-04-12T09:04:40Z</time></trkpt><trkpt lat="43.356404023558866" lon="13.240443191607069"><ele>526.0</ele><time>2026-04-12T09:04:41Z</time></trkpt><trkpt lat="43.35649795208122" lon="13.24034414721801"><ele>526.4</ele><time>2026-04-12T09:04:42Z</time></trkpt><trkpt lat="43.35659481540261" lon="13.240258685511687"><ele>526.8</ele><time>2026-04-12T09:04:43Z</time></trkpt><trkpt lat="43.35668108305179" lon="13.240166863587007"><ele>527.1999999999999</ele><time>2026-04-12T09:04:44Z</time></trkpt><trkpt lat="43.35676898745464" lon="13.240070992777927"><ele>527.6</ele><time>2026-04-12T09:04:45Z</time></trkpt><trkpt lat="43.356858005282525" lon="13.23998458978171"><ele>528.0</ele><time>2026-04-12T09:04:46Z</time></trkpt><trkpt lat="43.35694074448742" lon="13.239889647902311"><ele>528.0</ele><time>2026-04-12T09:04:47Z</time></trkpt><trkpt lat="43.35703135215488" lon="13.239814127456086"><ele>528.0</ele><time>2026-04-12T09:04:48Z</time></trkpt><trkpt lat="43.35716608166364" lon="13.239598806397474"><ele>528.0</ele><time>2026-04-12T09:04:50Z</time></trkpt><trkpt lat="43.35724094225945" lon="13.239508237697347"><ele>528.0</ele><time>2026-04-12T09:04:51Z</time></trkpt><trkpt lat="43.35731334311655" lon="13.239424755188034"><ele>530.6</ele><time>2026-04-12T09:04:52Z</time></trkpt><trkpt lat="43.35738472541971" lon="13.239335299162164"><ele>533.1999999999999</ele><time>2026-04-12T09:04:53Z</time></trkpt><trkpt lat="43.3574688978307" lon="13.239263174794603"><ele>535.8</ele><time>2026-04-12T09:04:54Z</time></trkpt><trkpt lat="43.357558476970745" lon="13.239192057388577"><ele>538.4</ele><time>2026-04-12T09:04:55Z</time></trkpt><trkpt lat="43.357636913648435" lon="13.239127656401342"><ele>541.0</ele><time>2026-04-12T09:04:56Z</time></trkpt><trkpt lat="43.35772121355175" lon="13.239049264973078"><ele>542.0</ele><time>2026-04-12T09:04:57Z</time></trkpt><trkpt lat="43.35780329181603" lon="13.238960782560444"><ele>543.0</ele><time>2026-04-12T09:04:58Z</time></trkpt><trkpt lat="43.35788690339914" lon="13.238862021302246"><ele>544.0</ele><time>2026-04-12T09:04:59Z</time></trkpt><trkpt lat="43.35797585368159" lon="13.238773331004305"><ele>545.0</ele><time>2026-04-12T09:05:00Z</time></trkpt><trkpt lat="43.35806264725416" lon="13.238683463540662"><ele>546.0</ele><time>2026-04-12T09:05:01Z</time></trkpt><trkpt lat="43.358145322394186" lon="13.238584330041885"><ele>547.0</ele><time>2026-04-12T09:05:02Z</time></trkpt><trkpt lat="43.35823524143966" lon="13.238497409715615"><ele>548.0</ele><time>2026-04-12T09:05:03Z</time></trkpt><trkpt lat="43.35832564858762" lon="13.238399005718925"><ele>549.0</ele><time>2026-04-12T09:05:04Z</time></trkpt><trkpt lat="43.358424466541095" lon="13.238313509823744"><ele>550.0</ele><time>2026-04-12T09:05:05Z</time></trkpt><trkpt lat="43.358528851233984" lon="13.238230835544382"><ele>550.0</ele><time>2026-04-12T09:05:06Z</time></trkpt><trkpt lat="43.35863307902521" lon="13.238152782718664"><ele>550.0</ele><time>2026-04-12T09:05:07Z</time></trkpt><trkpt lat="43.35874255122208" lon="13.238067297510257"><ele>550.0</ele><time>2026-04-12T09:05:08Z</time></trkpt><trkpt lat="43.35885389388434" lon="13.23799273863992"><ele>550.0</ele><time>2026-04-12T09:05:09Z</time></trkpt><trkpt lat="43.35895962883312" lon="13.237885394617033"><ele>552.75</ele><time>2026-04-12T09:05:10Z</time></trkpt><trkpt lat="43.35907051324171" lon="13.237775875003742"><ele>555.5</ele><time>2026-04-12T09:05:11Z</time></trkpt><trkpt lat="43.359185443844865" lon="13.2376632344357"><ele>558.25</ele><time>2026-04-12T09:05:12Z</time></trkpt><trkpt lat="43.35930436950751" lon="13.23755326963663"><ele>561.0</ele><time>2026-04-12T09:05:13Z</time></trkpt><trkpt lat="43.35942211315346" lon="13.237443258214318"><ele>561.0</ele><time>2026-04-12T09:05:14Z</time></trkpt><trkpt lat="43.3595305871486" lon="13.23734098498272"><ele>561.0</ele><time>2026-04-12T09:05:15Z</time></trkpt><trkpt lat="43.35964730947273" lon="13.237239609030832"><ele>561.0</ele><time>2026-04-12T09:05:16Z</time></trkpt><trkpt lat="43.35976487530201" lon="13.23713828107788"><ele>561.0</ele><time>2026-04-12T09:05:17Z</time></trkpt><trkpt lat="43.359871396070204" lon="13.237026534545494"><ele>563.0</ele><time>2026-04-12T09:05:18Z</time></trkpt><trkpt lat="43.35996949305619" lon="13.236930682808367"><ele>565.0</ele><time>2026-04-12T09:05:19Z</time></trkpt><trkpt lat="43.36005319509126" lon="13.236819760606545"><ele>567.0</ele><time>2026-04-12T09:05:20Z</time></trkpt><trkpt lat="43.36012693232076" lon="13.236704401489568"><ele>569.0</ele><time>2026-04-12T09:05:21Z</time></trkpt><trkpt lat="43.36017856761166" lon="13.236608309158225"><ele>571.0</ele><time>2026-04-12T09:05:22Z</time></trkpt><trkpt lat="43.36022773303341" lon="13.236496592852534"><ele>572.8</ele><time>2026-04-12T09:05:23Z</time></trkpt><trkpt lat="43.36028229270892" lon="13.236365000855407"><ele>574.6</ele><time>2026-04-12T09:05:24Z</time></trkpt><trkpt lat="43.36033981204726" lon="13.236234584279986"><ele>576.4</ele><time>2026-04-12T09:05:25Z</time></trkpt><trkpt lat="43.36039559051592" lon="13.236109125228744"><ele>578.2</ele><time>2026-04-12T09:05:26Z</time></trkpt><trkpt lat="43.36045263785691" lon="13.235972777251803"><ele>580.0</ele><time>2026-04-12T09:05:27Z</time></trkpt><trkpt lat="43.36051396536097" lon="13.235831144221521"><ele>577.4</ele><time>2026-04-12T09:05:28Z</time></trkpt><trkpt lat="43.360571104820714" lon="13.235692523084643"><ele>574.8</ele><time>2026-04-12T09:05:29Z</time></trkpt><trkpt lat="43.36063301190316" lon="13.235557174094263"><ele>572.2</ele><time>2026-04-12T09:05:30Z</time></trkpt><trkpt lat="43.360689064203655" lon="13.235431452101238"><ele>569.6</ele><time>2026-04-12T09:05:31Z</time></trkpt><trkpt lat="43.360737148176774" lon="13.235313199430282"><ele>567.0</ele><time>2026-04-12T09:05:32Z</time></trkpt><trkpt lat="43.36082051238857" lon="13.235105446328811"><ele>567.0</ele><time>2026-04-12T09:05:34Z</time></trkpt><trkpt lat="43.36085105125689" lon="13.235018315901408"><ele>567.0</ele><time>2026-04-12T09:05:35Z</time></trkpt><trkpt lat="43.3608713552722" lon="13.234918351089604"><ele>567.0</ele><time>2026-04-12T09:05:37Z</time></trkpt><trkpt lat="43.36071360875872" lon="13.234848341501833"><ele>567.0</ele><time>2026-04-12T09:05:41Z</time></trkpt><trkpt lat="43.36060717337263" lon="13.234872501706528"><ele>567.0</ele><time>2026-04-12T09:05:43Z</time></trkpt><trkpt lat="43.36053406555604" lon="13.234964899899754"><ele>568.6666666666666</ele><time>2026-04-12T09:05:45Z</time></trkpt><trkpt lat="43.360464498267234" lon="13.234967236263492"><ele>570.3333333333334</ele><time>2026-04-12T09:05:46Z</time></trkpt><trkpt lat="43.3603362137514" lon="13.234987103266302"><ele>572.0</ele><time>2026-04-12T09:05:48Z</time></trkpt><trkpt lat="43.36024990655094" lon="13.234975794424072"><ele>573.6666666666667</ele><time>2026-04-12T09:05:49Z</time></trkpt><trkpt lat="43.36017619297627" lon="13.234985360412951"><ele>575.3333333333334</ele><time>2026-04-12T09:05:50Z</time></trkpt><trkpt lat="43.36010905096642" lon="13.235007583377357"><ele>577.0</ele><time>2026-04-12T09:05:51Z</time></trkpt><trkpt lat="43.360040893077105" lon="13.235065806803442"><ele>577.0</ele><time>2026-04-12T09:05:52Z</time></trkpt><trkpt lat="43.359969312219896" lon="13.235138656942908"><ele>577.0</ele><time>2026-04-12T09:05:53Z</time></trkpt><trkpt lat="43.35988445644039" lon="13.235207038181136"><ele>577.0</ele><time>2026-04-12T09:05:54Z</time></trkpt><trkpt lat="43.35978380675508" lon="13.2352775173549"><ele>577.0</ele><time>2026-04-12T09:05:55Z</time></trkpt><trkpt lat="43.35968976622456" lon="13.235363345517298"><ele>577.0</ele><time>2026-04-12T09:05:56Z</time></trkpt><trkpt lat="43.35961838823882" lon="13.235459169174902"><ele>579.0</ele><time>2026-04-12T09:05:57Z</time></trkpt><trkpt lat="43.35956058737701" lon="13.235521100943744"><ele>581.0</ele><time>2026-04-12T09:05:58Z</time></trkpt><trkpt lat="43.35946722849459" lon="13.23562261507296"><ele>583.0</ele><time>2026-04-12T09:06:00Z</time></trkpt><trkpt lat="43.359398512550506" lon="13.235686558268009"><ele>585.0</ele><time>2026-04-12T09:06:02Z</time></trkpt><trkpt lat="43.359324512009565" lon="13.235676043042444"><ele>587.0</ele><time>2026-04-12T09:06:05Z</time></trkpt><trkpt lat="43.35929944743331" lon="13.235566502244586"><ele>589.0</ele><time>2026-04-12T09:06:07Z</time></trkpt><trkpt lat="43.35926563119349" lon="13.235493456299233"><ele>589.0</ele><time>2026-04-12T09:06:08Z</time></trkpt><trkpt lat="43.35927218123947" lon="13.235388221510142"><ele>589.0</ele><time>2026-04-12T09:06:09Z</time></trkpt><trkpt lat="43.359229994609954" lon="13.235297927436596"><ele>589.0</ele><time>2026-04-12T09:06:10Z</time></trkpt><trkpt lat="43.359193501730424" lon="13.235192856493493"><ele>589.0</ele><time>2026-04-12T09:06:11Z</time></trkpt><trkpt lat="43.35914968294505" lon="13.235108970546225"><ele>589.0</ele><time>2026-04-12T09:06:12Z</time></trkpt><trkpt lat="43.35910172673995" lon="13.235034898981663"><ele>589.0</ele><time>2026-04-12T09:06:13Z</time></trkpt><trkpt lat="43.3590543557165" lon="13.234975131541718"><ele>589.0</ele><time>2026-04-12T09:06:14Z</time></trkpt><trkpt lat="43.35897215108608" lon="13.234873988613833"><ele>589.0</ele><time>2026-04-12T09:06:16Z</time></trkpt><trkpt lat="43.358934745205566" lon="13.234779741908818"><ele>589.0</ele><time>2026-04-12T09:06:17Z</time></trkpt><trkpt lat="43.35887192120513" lon="13.234689663388824"><ele>589.0</ele><time>2026-04-12T09:06:18Z</time></trkpt><trkpt lat="43.35882415296631" lon="13.23456593060088"><ele>589.0</ele><time>2026-04-12T09:06:19Z</time></trkpt><trkpt lat="43.35878241446792" lon="13.23445148026521"><ele>589.0</ele><time>2026-04-12T09:06:20Z</time></trkpt><trkpt lat="43.35874494716322" lon="13.234351074562124"><ele>589.0</ele><time>2026-04-12T09:06:21Z</time></trkpt><trkpt lat="43.358711793314114" lon="13.234262492479507"><ele>589.0</ele><time>2026-04-12T09:06:22Z</time></trkpt><trkpt lat="43.3586626844364" lon="13.2341783550606"><ele>589.0</ele><time>2026-04-12T09:06:23Z</time></trkpt><trkpt lat="43.3585961092513" lon="13.234081001836639"><ele>589.0</ele><time>2026-04-12T09:06:24Z</time></trkpt><trkpt lat="43.35852249328065" lon="13.233976521067964"><ele>589.0</ele><time>2026-04-12T09:06:25Z</time></trkpt><trkpt lat="43.35846624856034" lon="13.233864511134813"><ele>588.0</ele><time>2026-04-12T09:06:26Z</time></trkpt><trkpt lat="43.3584044006511" lon="13.233747124263934"><ele>587.0</ele><time>2026-04-12T09:06:27Z</time></trkpt><trkpt lat="43.358316825084195" lon="13.233649614250867"><ele>586.0</ele><time>2026-04-12T09:06:28Z</time></trkpt><trkpt lat="43.358221615254045" lon="13.233532832470557"><ele>585.0</ele><time>2026-04-12T09:06:29Z</time></trkpt><trkpt lat="43.358116659167756" lon="13.233421090993922"><ele>586.5</ele><time>2026-04-12T09:06:30Z</time></trkpt><trkpt lat="43.35801848060407" lon="13.2333104734621"><ele>588.0</ele><time>2026-04-12T09:06:31Z</time></trkpt><trkpt lat="43.35791791932543" lon="13.233186525483251"><ele>589.5</ele><time>2026-04-12T09:06:32Z</time></trkpt><trkpt lat="43.35782721879088" lon="13.233076996772708"><ele>591.0</ele><time>2026-04-12T09:06:33Z</time></trkpt><trkpt lat="43.357749770290724" lon="13.232986590408082"><ele>592.8333333333334</ele><time>2026-04-12T09:06:34Z</time></trkpt><trkpt lat="43.357676573016946" lon="13.232913710519181"><ele>594.6666666666666</ele><time>2026-04-12T09:06:35Z</time></trkpt><trkpt lat="43.357606967792705" lon="13.232868850655827"><ele>596.5</ele><time>2026-04-12T09:06:36Z</time></trkpt><trkpt lat="43.357535187364704" lon="13.232845264608429"><ele>598.3333333333333</ele><time>2026-04-12T09:06:37Z</time></trkpt><trkpt lat="43.3574435964924" lon="13.232836970355837"><ele>600.1666666666666</ele><time>2026-04-12T09:06:38Z</time></trkpt><trkpt lat="43.35733167043068" lon="13.23279858138475"><ele>602.0</ele><time>2026-04-12T09:06:39Z</time></trkpt><trkpt lat="43.35721945015819" lon="13.23276888483338"><ele>605.2</ele><time>2026-04-12T09:06:40Z</time></trkpt><trkpt lat="43.35712304290263" lon="13.2327250348411"><ele>608.4000000000001</ele><time>2026-04-12T09:06:41Z</time></trkpt><trkpt lat="43.35703580210404" lon="13.23269917675482"><ele>611.5999999999999</ele><time>2026-04-12T09:06:42Z</time></trkpt><trkpt lat="43.35690899161554" lon="13.232656228649445"><ele>614.8</ele><time>2026-04-12T09:06:44Z</time></trkpt><trkpt lat="43.356838446289665" lon="13.232694993700255"><ele>618.0</ele><time>2026-04-12T09:06:45Z</time></trkpt><trkpt lat="43.35676889019356" lon="13.232760482600549"><ele>618.0</ele><time>2026-04-12T09:06:46Z</time></trkpt><trkpt lat="43.35670629652713" lon="13.232794776154241"><ele>618.0</ele><time>2026-04-12T09:06:47Z</time></trkpt><trkpt lat="43.35663711149437" lon="13.232825935767385"><ele>618.0</ele><time>2026-04-12T09:06:49Z</time></trkpt><trkpt lat="43.356518606866395" lon="13.232857158706206"><ele>618.0</ele><time>2026-04-12T09:06:52Z</time></trkpt><trkpt lat="43.35644677199305" lon="13.232870851171322"><ele>618.0</ele><time>2026-04-12T09:06:53Z</time></trkpt><trkpt lat="43.356358415338484" lon="13.232867659590985"><ele>618.0</ele><time>2026-04-12T09:06:54Z</time></trkpt><trkpt lat="43.35625821497555" lon="13.232879183785759"><ele>620.6666666666666</ele><time>2026-04-12T09:06:55Z</time></trkpt><trkpt lat="43.35615109827985" lon="13.232892990745386"><ele>623.3333333333334</ele><time>2026-04-12T09:06:56Z</time></trkpt><trkpt lat="43.356048183027035" lon="13.232916975652396"><ele>626.0</ele><time>2026-04-12T09:06:57Z</time></trkpt><trkpt lat="43.35598506460729" lon="13.232972354255448"><ele>628.6666666666667</ele><time>2026-04-12T09:06:58Z</time></trkpt><trkpt lat="43.355917291806904" lon="13.233023148289723"><ele>631.3333333333334</ele><time>2026-04-12T09:06:59Z</time></trkpt><trkpt lat="43.35584885612887" lon="13.233084213041685"><ele>634.0</ele><time>2026-04-12T09:07:00Z</time></trkpt><trkpt lat="43.355765043782576" lon="13.233129613277326"><ele>634.6</ele><time>2026-04-12T09:07:01Z</time></trkpt><trkpt lat="43.35568691858616" lon="13.233180390512784"><ele>635.2</ele><time>2026-04-12T09:07:02Z</time></trkpt><trkpt lat="43.35560670593659" lon="13.233243598394143"><ele>635.8000000000001</ele><time>2026-04-12T09:07:03Z</time></trkpt><trkpt lat="43.35552145995965" lon="13.233296634384894"><ele>636.4</ele><time>2026-04-12T09:07:04Z</time></trkpt><trkpt lat="43.3554333664609" lon="13.233343265313422"><ele>637.0</ele><time>2026-04-12T09:07:05Z</time></trkpt><trkpt lat="43.355344772344566" lon="13.23339295806044"><ele>637.0</ele><time>2026-04-12T09:07:06Z</time></trkpt><trkpt lat="43.35526155838922" lon="13.23344656544201"><ele>637.0</ele><time>2026-04-12T09:07:07Z</time></trkpt><trkpt lat="43.355185669082665" lon="13.233505373691866"><ele>637.0</ele><time>2026-04-12T09:07:08Z</time></trkpt><trkpt lat="43.355106679540306" lon="13.233564234763895"><ele>637.0</ele><time>2026-04-12T09:07:09Z</time></trkpt><trkpt lat="43.355022948872374" lon="13.233635275393064"><ele>637.0</ele><time>2026-04-12T09:07:10Z</time></trkpt><trkpt lat="43.35493155480057" lon="13.233701148254168"><ele>637.0</ele><time>2026-04-12T09:07:11Z</time></trkpt><trkpt lat="43.35484920177731" lon="13.233761237982241"><ele>637.0</ele><time>2026-04-12T09:07:12Z</time></trkpt><trkpt lat="43.35476743020811" lon="13.233797008219875"><ele>637.0</ele><time>2026-04-12T09:07:13Z</time></trkpt><trkpt lat="43.354692114863674" lon="13.233835384080246"><ele>637.0</ele><time>2026-04-12T09:07:14Z</time></trkpt><trkpt lat="43.35462479151547" lon="13.233854335610912"><ele>637.0</ele><time>2026-04-12T09:07:15Z</time></trkpt><trkpt lat="43.35456121984237" lon="13.233892493239097"><ele>637.0</ele><time>2026-04-12T09:07:16Z</time></trkpt><trkpt lat="43.35448530093312" lon="13.233907256697599"><ele>638.5</ele><time>2026-04-12T09:07:17Z</time></trkpt><trkpt lat="43.35441054142" lon="13.233934803260686"><ele>640.0</ele><time>2026-04-12T09:07:18Z</time></trkpt><trkpt lat="43.35433170984682" lon="13.233984458469234"><ele>641.5</ele><time>2026-04-12T09:07:19Z</time></trkpt><trkpt lat="43.35423871672754" lon="13.234001145456896"><ele>643.0</ele><time>2026-04-12T09:07:20.001Z</time></trkpt><trkpt lat="43.35414098897252" lon="13.234020693787487"><ele>644.5</ele><time>2026-04-12T09:07:21.001Z</time></trkpt><trkpt lat="43.354061679369934" lon="13.234037377760302"><ele>646.0</ele><time>2026-04-12T09:07:22.001Z</time></trkpt><trkpt lat="43.3539841501205" lon="13.234032994822542"><ele>646.8333333333334</ele><time>2026-04-12T09:07:23.001Z</time></trkpt><trkpt lat="43.35391553114495" lon="13.234007806325279"><ele>647.6666666666667</ele><time>2026-04-12T09:07:24.001Z</time></trkpt><trkpt lat="43.35383861843735" lon="13.233960247987419"><ele>648.5</ele><time>2026-04-12T09:07:25.001Z</time></trkpt><trkpt lat="43.35376802267853" lon="13.233895144121083"><ele>649.3333333333334</ele><time>2026-04-12T09:07:26.001Z</time></trkpt><trkpt lat="43.35370519044069" lon="13.233819897175042"><ele>650.1666666666666</ele><time>2026-04-12T09:07:27.001Z</time></trkpt><trkpt lat="43.35364921468763" lon="13.23375767756917"><ele>651.0</ele><time>2026-04-12T09:07:28.001Z</time></trkpt><trkpt lat="43.353585976344704" lon="13.233717811804325"><ele>651.0</ele><time>2026-04-12T09:07:29.001Z</time></trkpt><trkpt lat="43.353519399967915" lon="13.233676315326095"><ele>651.0</ele><time>2026-04-12T09:07:30.001Z</time></trkpt><trkpt lat="43.353455732201866" lon="13.233711437191547"><ele>651.0</ele><time>2026-04-12T09:07:31.001Z</time></trkpt><trkpt lat="43.35337743500623" lon="13.233757861643541"><ele>651.0</ele><time>2026-04-12T09:07:33Z</time></trkpt><trkpt lat="43.35327072550639" lon="13.233792083504024"><ele>651.0</ele><time>2026-04-12T09:09:03.001Z</time></trkpt><trkpt lat="43.35320086221908" lon="13.23383091172583"><ele>651.0</ele><time>2026-04-12T09:09:04.001Z</time></trkpt><trkpt lat="43.353118748149484" lon="13.233880113440415"><ele>649.8</ele><time>2026-04-12T09:09:05.001Z</time></trkpt><trkpt lat="43.353017952649154" lon="13.233937728801507"><ele>648.5999999999999</ele><time>2026-04-12T09:09:06.001Z</time></trkpt><trkpt lat="43.35292482983388" lon="13.233983742067702"><ele>647.4</ele><time>2026-04-12T09:09:07.001Z</time></trkpt><trkpt lat="43.35282244757626" lon="13.234030154912249"><ele>646.2</ele><time>2026-04-12T09:09:08.001Z</time></trkpt><trkpt lat="43.3527080107936" lon="13.234061912425288"><ele>645.0</ele><time>2026-04-12T09:09:09.001Z</time></trkpt><trkpt lat="43.352573531111055" lon="13.234081772873466"><ele>645.0</ele><time>2026-04-12T09:09:10.001Z</time></trkpt><trkpt lat="43.35243467887944" lon="13.234091388874175"><ele>645.0</ele><time>2026-04-12T09:09:11.001Z</time></trkpt><trkpt lat="43.352314995860965" lon="13.23408319899267"><ele>645.0</ele><time>2026-04-12T09:09:12.001Z</time></trkpt><trkpt lat="43.35220192213825" lon="13.234055806912064"><ele>645.0</ele><time>2026-04-12T09:09:13.001Z</time></trkpt><trkpt lat="43.3520911102271" lon="13.234024901754504"><ele>650.25</ele><time>2026-04-12T09:09:14.001Z</time></trkpt><trkpt lat="43.35198118505929" lon="13.233962583973257"><ele>655.5</ele><time>2026-04-12T09:09:15.001Z</time></trkpt><trkpt lat="43.35185543392684" lon="13.233891023261842"><ele>660.75</ele><time>2026-04-12T09:09:16.001Z</time></trkpt><trkpt lat="43.351732778463116" lon="13.233799520306281"><ele>666.0</ele><time>2026-04-12T09:09:17.001Z</time></trkpt><trkpt lat="43.35161010980937" lon="13.233702651388331"><ele>666.0</ele><time>2026-04-12T09:09:18.001Z</time></trkpt><trkpt lat="43.35147889575191" lon="13.233629804157076"><ele>666.0</ele><time>2026-04-12T09:09:19.001Z</time></trkpt><trkpt lat="43.35136281141734" lon="13.233563358591026"><ele>666.0</ele><time>2026-04-12T09:09:20.001Z</time></trkpt><trkpt lat="43.35124990091143" lon="13.233528679277207"><ele>666.0</ele><time>2026-04-12T09:09:21.001Z</time></trkpt><trkpt lat="43.35115958484263" lon="13.233511162656074"><ele>664.1999999999999</ele><time>2026-04-12T09:09:22.001Z</time></trkpt><trkpt lat="43.35107886437446" lon="13.233467681773586"><ele>662.4</ele><time>2026-04-12T09:09:24.001Z</time></trkpt><trkpt lat="43.351005474885255" lon="13.233347089602184"><ele>660.6</ele><time>2026-04-12T09:09:26.001Z</time></trkpt><trkpt lat="43.35094816988666" lon="13.23323019196495"><ele>658.8</ele><time>2026-04-12T09:09:27.001Z</time></trkpt><trkpt lat="43.35088361968305" lon="13.233076565166591"><ele>657.0</ele><time>2026-04-12T09:09:28.001Z</time></trkpt><trkpt lat="43.350834397323155" lon="13.232906163105424"><ele>663.0</ele><time>2026-04-12T09:09:29.001Z</time></trkpt><trkpt lat="43.35079471517114" lon="13.23272100083371"><ele>669.0</ele><time>2026-04-12T09:09:30.001Z</time></trkpt><trkpt lat="43.35074322676434" lon="13.232507460221015"><ele>675.0</ele><time>2026-04-12T09:09:31.001Z</time></trkpt><trkpt lat="43.350684519359774" lon="13.232300424083393"><ele>673.0</ele><time>2026-04-12T09:09:32.001Z</time></trkpt><trkpt lat="43.35062450265174" lon="13.232105467783382"><ele>671.0</ele><time>2026-04-12T09:09:33.001Z</time></trkpt><trkpt lat="43.350560020940414" lon="13.231930860996487"><ele>669.0</ele><time>2026-04-12T09:09:34.001Z</time></trkpt><trkpt lat="43.350513268835776" lon="13.23178946995427"><ele>667.0</ele><time>2026-04-12T09:09:35.001Z</time></trkpt><trkpt lat="43.350468328078506" lon="13.231663540144956"><ele>667.0</ele><time>2026-04-12T09:09:36.001Z</time></trkpt><trkpt lat="43.35044432669473" lon="13.231550903308634"><ele>667.0</ele><time>2026-04-12T09:09:37.001Z</time></trkpt><trkpt lat="43.35040097333014" lon="13.23146846199988"><ele>667.0</ele><time>2026-04-12T09:09:38Z</time></trkpt><trkpt lat="43.35034015714541" lon="13.231401452377193"><ele>667.0</ele><time>2026-04-12T09:09:39Z</time></trkpt><trkpt lat="43.35027094640592" lon="13.231343289298987"><ele>667.0</ele><time>2026-04-12T09:09:40Z</time></trkpt><trkpt lat="43.35020218279672" lon="13.23128250173946"><ele>667.0</ele><time>2026-04-12T09:09:41Z</time></trkpt><trkpt lat="43.35013765123362" lon="13.23120786790544"><ele>671.8</ele><time>2026-04-12T09:09:42Z</time></trkpt><trkpt lat="43.35007134651572" lon="13.231128038105323"><ele>676.6</ele><time>2026-04-12T09:09:43Z</time></trkpt><trkpt lat="43.35000362417505" lon="13.231027233065278"><ele>681.4</ele><time>2026-04-12T09:09:44Z</time></trkpt><trkpt lat="43.3499257802225" lon="13.23090661283854"><ele>686.1999999999999</ele><time>2026-04-12T09:09:45Z</time></trkpt><trkpt lat="43.34984322868526" lon="13.230781442382632"><ele>691.0</ele><time>2026-04-12T09:09:46Z</time></trkpt><trkpt lat="43.349757900275414" lon="13.230648132053002"><ele>691.0</ele><time>2026-04-12T09:09:47Z</time></trkpt><trkpt lat="43.34966404585345" lon="13.230509864922773"><ele>691.0</ele><time>2026-04-12T09:09:48Z</time></trkpt><trkpt lat="43.34957260952116" lon="13.23038566011263"><ele>691.0</ele><time>2026-04-12T09:09:49Z</time></trkpt><trkpt lat="43.34948470946869" lon="13.230276355700783"><ele>691.0</ele><time>2026-04-12T09:09:50Z</time></trkpt><trkpt lat="43.349393375979865" lon="13.230173240660845"><ele>691.0</ele><time>2026-04-12T09:09:51Z</time></trkpt><trkpt lat="43.3493069103296" lon="13.23008908507523"><ele>691.0</ele><time>2026-04-12T09:09:52Z</time></trkpt><trkpt lat="43.349211105573396" lon="13.230001422128575"><ele>691.0</ele><time>2026-04-12T09:09:53Z</time></trkpt><trkpt lat="43.34909774452617" lon="13.22990333202619"><ele>691.0</ele><time>2026-04-12T09:09:54Z</time></trkpt><trkpt lat="43.348994396967356" lon="13.229800418712793"><ele>690.0</ele><time>2026-04-12T09:09:55Z</time></trkpt><trkpt lat="43.34889644101847" lon="13.229700014838265"><ele>689.0</ele><time>2026-04-12T09:09:56Z</time></trkpt><trkpt lat="43.34879543508781" lon="13.229588587051712"><ele>688.0</ele><time>2026-04-12T09:09:57Z</time></trkpt><trkpt lat="43.348695601154134" lon="13.229473920980055"><ele>687.0</ele><time>2026-04-12T09:09:58Z</time></trkpt><trkpt lat="43.348594579491966" lon="13.229344581223724"><ele>687.0</ele><time>2026-04-12T09:09:59Z</time></trkpt><trkpt lat="43.34848486771242" lon="13.229192327824606"><ele>687.0</ele><time>2026-04-12T09:10:00Z</time></trkpt><trkpt lat="43.34838792072517" lon="13.229062896910738"><ele>687.0</ele><time>2026-04-12T09:10:01Z</time></trkpt><trkpt lat="43.34829195092559" lon="13.228935326005365"><ele>687.0</ele><time>2026-04-12T09:10:02Z</time></trkpt><trkpt lat="43.34818307077326" lon="13.228795920049647"><ele>686.0</ele><time>2026-04-12T09:10:03Z</time></trkpt><trkpt lat="43.348082186174764" lon="13.228658111894376"><ele>685.0</ele><time>2026-04-12T09:10:04Z</time></trkpt><trkpt lat="43.34797192042437" lon="13.228513762931557"><ele>684.0</ele><time>2026-04-12T09:10:05Z</time></trkpt><trkpt lat="43.3478624563075" lon="13.228369228158497"><ele>683.0</ele><time>2026-04-12T09:10:06Z</time></trkpt><trkpt lat="43.347756977227185" lon="13.22822404185356"><ele>686.5</ele><time>2026-04-12T09:10:07Z</time></trkpt><trkpt lat="43.3476425797063" lon="13.228101471753112"><ele>690.0</ele><time>2026-04-12T09:10:08Z</time></trkpt><trkpt lat="43.347526600895755" lon="13.227977136054015"><ele>693.5</ele><time>2026-04-12T09:10:09Z</time></trkpt><trkpt lat="43.34741825381807" lon="13.227833734920683"><ele>697.0</ele><time>2026-04-12T09:10:10Z</time></trkpt><trkpt lat="43.34730543851783" lon="13.227703829772075"><ele>695.75</ele><time>2026-04-12T09:10:11Z</time></trkpt><trkpt lat="43.34719197162454" lon="13.227573174219108"><ele>694.5</ele><time>2026-04-12T09:10:12Z</time></trkpt><trkpt lat="43.34706906361797" lon="13.227459111283896"><ele>693.25</ele><time>2026-04-12T09:10:13Z</time></trkpt><trkpt lat="43.34695690362702" lon="13.227327993449624"><ele>692.0</ele><time>2026-04-12T09:10:14Z</time></trkpt><trkpt lat="43.346864472773184" lon="13.227202598000364"><ele>692.0</ele><time>2026-04-12T09:10:15Z</time></trkpt><trkpt lat="43.346776527388386" lon="13.227099821950482"><ele>692.0</ele><time>2026-04-12T09:10:16Z</time></trkpt><trkpt lat="43.34669868772237" lon="13.227006934689207"><ele>692.0</ele><time>2026-04-12T09:10:17Z</time></trkpt><trkpt lat="43.34660844401308" lon="13.226899245499421"><ele>692.0</ele><time>2026-04-12T09:10:18Z</time></trkpt><trkpt lat="43.34650433374918" lon="13.226787825737407"><ele>692.0</ele><time>2026-04-12T09:10:19Z</time></trkpt><trkpt lat="43.346393909471715" lon="13.226659552791293"><ele>692.0</ele><time>2026-04-12T09:10:20Z</time></trkpt><trkpt lat="43.34629130581765" lon="13.226528384204894"><ele>692.0</ele><time>2026-04-12T09:10:21Z</time></trkpt><trkpt lat="43.346198990097406" lon="13.226406428236148"><ele>692.0</ele><time>2026-04-12T09:10:22Z</time></trkpt><trkpt lat="43.3461115856033" lon="13.226296821822507"><ele>690.6</ele><time>2026-04-12T09:10:23Z</time></trkpt><trkpt lat="43.34602729207753" lon="13.226188408703068"><ele>689.2</ele><time>2026-04-12T09:10:24Z</time></trkpt><trkpt lat="43.34594744107082" lon="13.226079653597147"><ele>687.8</ele><time>2026-04-12T09:10:25Z</time></trkpt><trkpt lat="43.34588302110365" lon="13.225964673352726"><ele>686.4</ele><time>2026-04-12T09:10:26Z</time></trkpt><trkpt lat="43.34581241606917" lon="13.22589144149196"><ele>685.0</ele><time>2026-04-12T09:10:27Z</time></trkpt><trkpt lat="43.345768625749024" lon="13.225828558249493"><ele>685.0</ele><time>2026-04-12T09:10:28Z</time></trkpt><trkpt lat="43.34571504528245" lon="13.225738503527191"><ele>685.0</ele><time>2026-04-12T09:10:52Z</time></trkpt><trkpt lat="43.34564882962076" lon="13.225622053637357"><ele>685.0</ele><time>2026-04-12T09:10:55Z</time></trkpt><trkpt lat="43.34559515247385" lon="13.225510512749011"><ele>685.0</ele><time>2026-04-12T09:10:57Z</time></trkpt><trkpt lat="43.34553430513952" lon="13.225409250394055"><ele>685.0</ele><time>2026-04-12T09:10:59Z</time></trkpt><trkpt lat="43.34548105397121" lon="13.225314597694487"><ele>684.0</ele><time>2026-04-12T09:11:01Z</time></trkpt><trkpt lat="43.34545604782892" lon="13.225222301507584"><ele>683.0</ele><time>2026-04-12T09:11:04.001Z</time></trkpt><trkpt lat="43.34544490831653" lon="13.225082430448056"><ele>682.0</ele><time>2026-04-12T09:11:12.001Z</time></trkpt><trkpt lat="43.345405073659514" lon="13.224947089012394"><ele>681.0</ele><time>2026-04-12T09:11:14.001Z</time></trkpt><trkpt lat="43.345380427586086" lon="13.22480411347333"><ele>680.0</ele><time>2026-04-12T09:11:16.001Z</time></trkpt><trkpt lat="43.34535479308828" lon="13.22466246522353"><ele>680.0</ele><time>2026-04-12T09:11:18.001Z</time></trkpt><trkpt lat="43.345333676687105" lon="13.224572197398818"><ele>680.0</ele><time>2026-04-12T09:11:19.001Z</time></trkpt><trkpt lat="43.34531984504087" lon="13.224482785833446"><ele>680.0</ele><time>2026-04-12T09:11:20.001Z</time></trkpt><trkpt lat="43.345310899409014" lon="13.224384299684667"><ele>680.0</ele><time>2026-04-12T09:11:21.001Z</time></trkpt><trkpt lat="43.345275278936384" lon="13.22422856301282"><ele>680.0</ele><time>2026-04-12T09:11:23.001Z</time></trkpt><trkpt lat="43.34523844647804" lon="13.224099478276864"><ele>680.0</ele><time>2026-04-12T09:11:25.001Z</time></trkpt><trkpt lat="43.34520241553831" lon="13.224006357817812"><ele>680.0</ele><time>2026-04-12T09:11:27.001Z</time></trkpt><trkpt lat="43.34514185215674" lon="13.223959186145636"><ele>680.0</ele><time>2026-04-12T09:11:30.001Z</time></trkpt><trkpt lat="43.34508604375845" lon="13.223908849626708"><ele>680.0</ele><time>2026-04-12T09:11:44Z</time></trkpt><trkpt lat="43.34501493720778" lon="13.223822588806943"><ele>680.0</ele><time>2026-04-12T09:11:46Z</time></trkpt><trkpt lat="43.34498832298345" lon="13.223728112962586"><ele>680.0</ele><time>2026-04-12T09:11:47Z</time></trkpt><trkpt lat="43.34502078099323" lon="13.223452727562178"><ele>680.0</ele><time>2026-04-12T09:11:49Z</time></trkpt><trkpt lat="43.34499556194238" lon="13.223351217290393"><ele>680.0</ele><time>2026-04-12T09:11:50Z</time></trkpt><trkpt lat="43.34498290756707" lon="13.223239439426267"><ele>680.0</ele><time>2026-04-12T09:11:51Z</time></trkpt><trkpt lat="43.344961904314104" lon="13.223127804225172"><ele>680.0</ele><time>2026-04-12T09:11:52Z</time></trkpt><trkpt lat="43.34494564395662" lon="13.223021691367409"><ele>680.0</ele><time>2026-04-12T09:11:53Z</time></trkpt><trkpt lat="43.34492458788501" lon="13.222867838714022"><ele>680.0</ele><time>2026-04-12T09:11:55Z</time></trkpt><trkpt lat="43.34491095223566" lon="13.222778502332508"><ele>680.0</ele><time>2026-04-12T09:11:58Z</time></trkpt><trkpt lat="43.344898541776125" lon="13.222691054915053"><ele>680.0</ele><time>2026-04-12T09:12:01Z</time></trkpt><trkpt lat="43.34488848691267" lon="13.222572619801397"><ele>680.0</ele><time>2026-04-12T09:12:03Z</time></trkpt><trkpt lat="43.344901072415276" lon="13.222444980734828"><ele>680.0</ele><time>2026-04-12T09:12:05Z</time></trkpt><trkpt lat="43.344880230961145" lon="13.222320033079829"><ele>680.0</ele><time>2026-04-12T09:12:07Z</time></trkpt><trkpt lat="43.344849984128615" lon="13.22214798976627"><ele>679.8333333333333</ele><time>2026-04-12T09:12:09Z</time></trkpt><trkpt lat="43.344839282921754" lon="13.222052347638046"><ele>679.6666666666666</ele><time>2026-04-12T09:12:10Z</time></trkpt><trkpt lat="43.34483391144302" lon="13.221956999212582"><ele>679.5</ele><time>2026-04-12T09:12:11Z</time></trkpt><trkpt lat="43.34482684942207" lon="13.221858785454979"><ele>679.3333333333334</ele><time>2026-04-12T09:12:12Z</time></trkpt><trkpt lat="43.344821880773374" lon="13.221752145786972"><ele>679.1666666666667</ele><time>2026-04-12T09:12:13Z</time></trkpt><trkpt lat="43.3448169984161" lon="13.221634181237576"><ele>679.0</ele><time>2026-04-12T09:12:14Z</time></trkpt><trkpt lat="43.344806145991214" lon="13.221519129391652"><ele>678.5</ele><time>2026-04-12T09:12:15Z</time></trkpt><trkpt lat="43.34480059268053" lon="13.221404222212138"><ele>678.0</ele><time>2026-04-12T09:12:16Z</time></trkpt><trkpt lat="43.34480052008104" lon="13.221291858684653"><ele>677.5</ele><time>2026-04-12T09:12:17Z</time></trkpt><trkpt lat="43.34480723912119" lon="13.22118233619271"><ele>677.0</ele><time>2026-04-12T09:12:18Z</time></trkpt><trkpt lat="43.344796869452516" lon="13.221084152561815"><ele>676.5</ele><time>2026-04-12T09:12:19Z</time></trkpt><trkpt lat="43.34479011715059" lon="13.220989745886339"><ele>676.0</ele><time>2026-04-12T09:12:20Z</time></trkpt><trkpt lat="43.344774073107416" lon="13.220884826032181"><ele>676.0</ele><time>2026-04-12T09:12:21Z</time></trkpt><trkpt lat="43.34476238917398" lon="13.220797320057367"><ele>676.0</ele><time>2026-04-12T09:12:22Z</time></trkpt><trkpt lat="43.34474884663054" lon="13.220711179410593"><ele>676.0</ele><time>2026-04-12T09:12:23Z</time></trkpt><trkpt lat="43.344748924174674" lon="13.220574348060008"><ele>676.0</ele><time>2026-04-12T09:12:25Z</time></trkpt><trkpt lat="43.34475128011032" lon="13.220465288795374"><ele>676.0</ele><time>2026-04-12T09:12:27Z</time></trkpt><trkpt lat="43.34477807456772" lon="13.220371777273263"><ele>676.0</ele><time>2026-04-12T09:12:29Z</time></trkpt><trkpt lat="43.34483198844723" lon="13.220287849167464"><ele>674.1666666666667</ele><time>2026-04-12T09:12:39Z</time></trkpt><trkpt lat="43.344869870468806" lon="13.220217002692134"><ele>672.3333333333334</ele><time>2026-04-12T09:12:41Z</time></trkpt><trkpt lat="43.34492566574934" lon="13.220159724129346"><ele>670.5</ele><time>2026-04-12T09:12:44Z</time></trkpt><trkpt lat="43.34499454365318" lon="13.220094568468141"><ele>668.6666666666666</ele><time>2026-04-12T09:12:46Z</time></trkpt><trkpt lat="43.34508826529124" lon="13.22001353520292"><ele>666.8333333333333</ele><time>2026-04-12T09:12:48Z</time></trkpt><trkpt lat="43.34518277229858" lon="13.219932865326738"><ele>665.0</ele><time>2026-04-12T09:12:50Z</time></trkpt><trkpt lat="43.34526079305712" lon="13.219851667254952"><ele>664.6</ele><time>2026-04-12T09:12:52Z</time></trkpt><trkpt lat="43.34527468330732" lon="13.21972703325235"><ele>664.2</ele><time>2026-04-12T09:12:54Z</time></trkpt><trkpt lat="43.34525546360942" lon="13.21955081674179"><ele>663.8</ele><time>2026-04-12T09:12:56Z</time></trkpt><trkpt lat="43.34522758294349" lon="13.219459021649286"><ele>663.4</ele><time>2026-04-12T09:12:57Z</time></trkpt><trkpt lat="43.34519991119154" lon="13.219351844603034"><ele>663.0</ele><time>2026-04-12T09:12:58Z</time></trkpt><trkpt lat="43.345151076128566" lon="13.219262068768844"><ele>663.0</ele><time>2026-04-12T09:12:59Z</time></trkpt><trkpt lat="43.34511147152404" lon="13.219187734585612"><ele>663.0</ele><time>2026-04-12T09:13:00Z</time></trkpt><trkpt lat="43.345032001959865" lon="13.219034766911658"><ele>663.0</ele><time>2026-04-12T09:13:02Z</time></trkpt><trkpt lat="43.34499100949704" lon="13.218942801426957"><ele>663.0</ele><time>2026-04-12T09:13:03Z</time></trkpt><trkpt lat="43.34494878215343" lon="13.218862999105824"><ele>663.0</ele><time>2026-04-12T09:13:04Z</time></trkpt><trkpt lat="43.34490730380083" lon="13.218778065269317"><ele>663.0</ele><time>2026-04-12T09:13:05Z</time></trkpt><trkpt lat="43.344860866591084" lon="13.218631454184871"><ele>665.0</ele><time>2026-04-12T09:13:07Z</time></trkpt><trkpt lat="43.3448177700196" lon="13.21851900293562"><ele>667.0</ele><time>2026-04-12T09:13:10Z</time></trkpt><trkpt lat="43.344786623336425" lon="13.218407265975605"><ele>669.0</ele><time>2026-04-12T09:13:12Z</time></trkpt><trkpt lat="43.34475089680785" lon="13.218306837399457"><ele>671.0</ele><time>2026-04-12T09:13:14.001Z</time></trkpt><trkpt lat="43.34472133194081" lon="13.21818221419635"><ele>673.0</ele><time>2026-04-12T09:13:16.001Z</time></trkpt><trkpt lat="43.34467940843982" lon="13.218047299429019"><ele>666.5</ele><time>2026-04-12T09:13:18.001Z</time></trkpt><trkpt lat="43.344641468895325" lon="13.217924905716309"><ele>660.0</ele><time>2026-04-12T09:13:20.001Z</time></trkpt><trkpt lat="43.344616540046324" lon="13.217842979018192"><ele>653.5</ele><time>2026-04-12T09:13:21.001Z</time></trkpt><trkpt lat="43.344591966806874" lon="13.217756940943493"><ele>647.0</ele><time>2026-04-12T09:13:22.001Z</time></trkpt><trkpt lat="43.34456564628474" lon="13.217670838044427"><ele>640.5</ele><time>2026-04-12T09:13:23.001Z</time></trkpt><trkpt lat="43.34453916495593" lon="13.21757164575537"><ele>634.0</ele><time>2026-04-12T09:13:24.001Z</time></trkpt><trkpt lat="43.34449396653204" lon="13.217416007251202"><ele>634.0</ele><time>2026-04-12T09:13:26.001Z</time></trkpt><trkpt lat="43.344470995846386" lon="13.21733275644551"><ele>634.0</ele><time>2026-04-12T09:13:27.001Z</time></trkpt><trkpt lat="43.344437952820286" lon="13.217245291409089"><ele>634.0</ele><time>2026-04-12T09:13:28.001Z</time></trkpt><trkpt lat="43.34439084163885" lon="13.217161998842405"><ele>634.0</ele><time>2026-04-12T09:13:29.001Z</time></trkpt><trkpt lat="43.34434453458719" lon="13.217068035230932"><ele>634.0</ele><time>2026-04-12T09:13:30.001Z</time></trkpt><trkpt lat="43.34428339206186" lon="13.216964977019488"><ele>634.0</ele><time>2026-04-12T09:13:31.001Z</time></trkpt><trkpt lat="43.34423685529627" lon="13.216868343110384"><ele>636.5</ele><time>2026-04-12T09:13:32.001Z</time></trkpt><trkpt lat="43.344186423444604" lon="13.21677238761508"><ele>639.0</ele><time>2026-04-12T09:13:33.001Z</time></trkpt><trkpt lat="43.344144888929975" lon="13.216694679171136"><ele>641.5</ele><time>2026-04-12T09:13:34.001Z</time></trkpt><trkpt lat="43.3440642561932" lon="13.2166106499534"><ele>644.0</ele><time>2026-04-12T09:13:36.001Z</time></trkpt><trkpt lat="43.34399599183884" lon="13.216543170808132"><ele>646.5</ele><time>2026-04-12T09:13:38.001Z</time></trkpt><trkpt lat="43.343939777042024" lon="13.216427819393015"><ele>649.0</ele><time>2026-04-12T09:13:40.001Z</time></trkpt><trkpt lat="43.34389466782562" lon="13.216308837199685"><ele>645.8000000000001</ele><time>2026-04-12T09:13:42.001Z</time></trkpt><trkpt lat="43.343802867272245" lon="13.21610225054906"><ele>642.6</ele><time>2026-04-12T09:13:45.001Z</time></trkpt><trkpt lat="43.34376444879181" lon="13.215965989920521"><ele>639.4</ele><time>2026-04-12T09:13:47.001Z</time></trkpt><trkpt lat="43.34370810221633" lon="13.215877588133768"><ele>636.2</ele><time>2026-04-12T09:13:50Z</time></trkpt><trkpt lat="43.34368796433184" lon="13.215770887771791"><ele>633.0</ele><time>2026-04-12T09:13:52Z</time></trkpt><trkpt lat="43.343666877468486" lon="13.215633977826158"><ele>633.0</ele><time>2026-04-12T09:13:54Z</time></trkpt><trkpt lat="43.343650328742726" lon="13.215516227240606"><ele>633.0</ele><time>2026-04-12T09:13:56Z</time></trkpt><trkpt lat="43.343626224430295" lon="13.215422140445463"><ele>633.0</ele><time>2026-04-12T09:13:58Z</time></trkpt><trkpt lat="43.34360799732468" lon="13.215311865671966"><ele>633.0</ele><time>2026-04-12T09:14:00Z</time></trkpt><trkpt lat="43.34359176061636" lon="13.215160437990148"><ele>633.0</ele><time>2026-04-12T09:14:02Z</time></trkpt><trkpt lat="43.3435827272323" lon="13.215057782124163"><ele>633.0</ele><time>2026-04-12T09:14:04Z</time></trkpt><trkpt lat="43.34358489772695" lon="13.214968526933749"><ele>633.0</ele><time>2026-04-12T09:14:09Z</time></trkpt><trkpt lat="43.343581037035364" lon="13.214865101158592"><ele>633.0</ele><time>2026-04-12T09:14:12Z</time></trkpt><trkpt lat="43.34356957291496" lon="13.214768747457034"><ele>633.0</ele><time>2026-04-12T09:14:15Z</time></trkpt><trkpt lat="43.34357128216272" lon="13.21467718993846"><ele>633.0</ele><time>2026-04-12T09:14:24Z</time></trkpt><trkpt lat="43.34356857088997" lon="13.214590550742285"><ele>633.0</ele><time>2026-04-12T09:14:34Z</time></trkpt><trkpt lat="43.34355513392111" lon="13.214467660356883"><ele>633.0</ele><time>2026-04-12T09:14:38Z</time></trkpt><trkpt lat="43.343546825321184" lon="13.214373543474565"><ele>633.0</ele><time>2026-04-12T09:14:40Z</time></trkpt><trkpt lat="43.34356238498865" lon="13.214277514295818"><ele>631.0</ele><time>2026-04-12T09:14:42Z</time></trkpt><trkpt lat="43.34358474635444" lon="13.214178484807624"><ele>629.0</ele><time>2026-04-12T09:14:44Z</time></trkpt><trkpt lat="43.3436015824601" lon="13.214044667094853"><ele>627.0</ele><time>2026-04-12T09:14:47Z</time></trkpt><trkpt lat="43.34359161231376" lon="13.21394547370845"><ele>625.0</ele><time>2026-04-12T09:14:49Z</time></trkpt><trkpt lat="43.34357836348954" lon="13.21384864226835"><ele>623.0</ele><time>2026-04-12T09:14:53Z</time></trkpt><trkpt lat="43.343573405921575" lon="13.213757438765697"><ele>621.0</ele><time>2026-04-12T09:14:56Z</time></trkpt><trkpt lat="43.34358601812437" lon="13.213653646117503"><ele>618.6666666666666</ele><time>2026-04-12T09:14:59Z</time></trkpt><trkpt lat="43.3435879409622" lon="13.213555910462798"><ele>616.3333333333334</ele><time>2026-04-12T09:15:06Z</time></trkpt><trkpt lat="43.34359686744268" lon="13.213469472226231"><ele>614.0</ele><time>2026-04-12T09:15:22Z</time></trkpt><trkpt lat="43.34361219996725" lon="13.213381069404727"><ele>611.6666666666667</ele><time>2026-04-12T09:15:38Z</time></trkpt><trkpt lat="43.34362801877552" lon="13.213270967155443"><ele>609.3333333333334</ele><time>2026-04-12T09:16:06Z</time></trkpt><trkpt lat="43.343636804088604" lon="13.213172782910377"><ele>607.0</ele><time>2026-04-12T09:16:28Z</time></trkpt><trkpt lat="43.343645001198034" lon="13.213005353017026"><ele>605.3333333333334</ele><time>2026-04-12T09:19:50Z</time></trkpt><trkpt lat="43.34363559111863" lon="13.212911784897871"><ele>603.6666666666667</ele><time>2026-04-12T09:19:53Z</time></trkpt><trkpt lat="43.34364169906964" lon="13.212789483783105"><ele>602.0</ele><time>2026-04-12T09:19:57Z</time></trkpt><trkpt lat="43.34365867309389" lon="13.212673705599363"><ele>600.3333333333334</ele><time>2026-04-12T09:20:00Z</time></trkpt><trkpt lat="43.343664478968364" lon="13.212576771498004"><ele>598.6666666666666</ele><time>2026-04-12T09:20:02Z</time></trkpt><trkpt lat="43.343671394452194" lon="13.212480937774377"><ele>597.0</ele><time>2026-04-12T09:20:04Z</time></trkpt><trkpt lat="43.343670493743886" lon="13.212375638712636"><ele>595.6666666666666</ele><time>2026-04-12T09:20:07Z</time></trkpt><trkpt lat="43.343680539220216" lon="13.212245901128053"><ele>594.3333333333334</ele><time>2026-04-12T09:20:09Z</time></trkpt><trkpt lat="43.3437128324131" lon="13.212124805769434"><ele>593.0</ele><time>2026-04-12T09:20:11Z</time></trkpt><trkpt lat="43.34372495907194" lon="13.21203329675474"><ele>591.6666666666667</ele><time>2026-04-12T09:20:13Z</time></trkpt><trkpt lat="43.343738246263" lon="13.21193428756769"><ele>590.3333333333334</ele><time>2026-04-12T09:20:15Z</time></trkpt><trkpt lat="43.343734765252705" lon="13.211828752509664"><ele>589.0</ele><time>2026-04-12T09:20:17Z</time></trkpt><trkpt lat="43.34373876828697" lon="13.211736920588283"><ele>589.0</ele><time>2026-04-12T09:20:19Z</time></trkpt><trkpt lat="43.34376275703477" lon="13.211631338645624"><ele>589.0</ele><time>2026-04-12T09:20:21Z</time></trkpt><trkpt lat="43.34377635194421" lon="13.211522940850937"><ele>589.0</ele><time>2026-04-12T09:20:23Z</time></trkpt><trkpt lat="43.34378604823635" lon="13.211428689514642"><ele>589.0</ele><time>2026-04-12T09:20:25Z</time></trkpt><trkpt lat="43.34376740792166" lon="13.211325909342076"><ele>589.0</ele><time>2026-04-12T09:20:27Z</time></trkpt><trkpt lat="43.34375145945303" lon="13.211200903389289"><ele>589.0</ele><time>2026-04-12T09:20:30Z</time></trkpt><trkpt lat="43.34375794345385" lon="13.211105319800456"><ele>587.6</ele><time>2026-04-12T09:20:32Z</time></trkpt><trkpt lat="43.34378346973058" lon="13.210963214110013"><ele>586.2</ele><time>2026-04-12T09:20:34Z</time></trkpt><trkpt lat="43.34379670424903" lon="13.210874506402348"><ele>584.8000000000001</ele><time>2026-04-12T09:20:35Z</time></trkpt><trkpt lat="43.34383930182909" lon="13.210722719358218"><ele>583.4</ele><time>2026-04-12T09:20:37Z</time></trkpt><trkpt lat="43.34385888046607" lon="13.210636587395609"><ele>582.0</ele><time>2026-04-12T09:20:38Z</time></trkpt><trkpt lat="43.343888706851736" lon="13.21046504340334"><ele>585.3333333333334</ele><time>2026-04-12T09:20:40Z</time></trkpt><trkpt lat="43.34392033449607" lon="13.210375621681107"><ele>588.6666666666666</ele><time>2026-04-12T09:20:41Z</time></trkpt><trkpt lat="43.3439432384033" lon="13.210294539446272"><ele>592.0</ele><time>2026-04-12T09:20:42Z</time></trkpt><trkpt lat="43.34396708350797" lon="13.210199975247564"><ele>595.3333333333333</ele><time>2026-04-12T09:20:43Z</time></trkpt><trkpt lat="43.343996024315025" lon="13.21010908456556"><ele>598.6666666666666</ele><time>2026-04-12T09:20:44Z</time></trkpt><trkpt lat="43.34402504094536" lon="13.210025680572722"><ele>602.0</ele><time>2026-04-12T09:20:45Z</time></trkpt><trkpt lat="43.344089517824145" lon="13.209898481207873"><ele>599.0</ele><time>2026-04-12T09:20:47Z</time></trkpt><trkpt lat="43.344133527564495" lon="13.209773023197059"><ele>596.0</ele><time>2026-04-12T09:20:49Z</time></trkpt><trkpt lat="43.34416502013885" lon="13.20961796170404"><ele>593.0</ele><time>2026-04-12T09:20:51Z</time></trkpt><trkpt lat="43.344214889270425" lon="13.20947354491565"><ele>590.0</ele><time>2026-04-12T09:20:53Z</time></trkpt><trkpt lat="43.34425160398755" lon="13.209394367330248"><ele>587.0</ele><time>2026-04-12T09:20:54Z</time></trkpt><trkpt lat="43.34428676033357" lon="13.209317041195169"><ele>587.0</ele><time>2026-04-12T09:20:55Z</time></trkpt><trkpt lat="43.34434247711961" lon="13.209164794236733"><ele>587.0</ele><time>2026-04-12T09:20:57Z</time></trkpt><trkpt lat="43.344377810443476" lon="13.209089095808615"><ele>587.0</ele><time>2026-04-12T09:20:58Z</time></trkpt><trkpt lat="43.34444814350093" lon="13.208956152942056"><ele>587.0</ele><time>2026-04-12T09:21:00Z</time></trkpt><trkpt lat="43.34448086598067" lon="13.208880655648082"><ele>587.0</ele><time>2026-04-12T09:21:01Z</time></trkpt><trkpt lat="43.34451792995612" lon="13.208803976472302"><ele>587.0</ele><time>2026-04-12T09:21:02Z</time></trkpt><trkpt lat="43.344559029011265" lon="13.208738263347081"><ele>585.4</ele><time>2026-04-12T09:21:03Z</time></trkpt><trkpt lat="43.34464790950546" lon="13.208606514271834"><ele>583.8000000000001</ele><time>2026-04-12T09:21:05Z</time></trkpt><trkpt lat="43.34469200622135" lon="13.208542680320798"><ele>582.2</ele><time>2026-04-12T09:21:06Z</time></trkpt><trkpt lat="43.34477024061921" lon="13.208426871371742"><ele>580.6</ele><time>2026-04-12T09:21:08Z</time></trkpt><trkpt lat="43.34483306469589" lon="13.208325132482702"><ele>579.0</ele><time>2026-04-12T09:21:10Z</time></trkpt><trkpt lat="43.344848314805326" lon="13.20820615111913"><ele>580.5</ele><time>2026-04-12T09:21:13Z</time></trkpt><trkpt lat="43.344846579072936" lon="13.208103979572767"><ele>582.0</ele><time>2026-04-12T09:21:15Z</time></trkpt><trkpt lat="43.344864243756234" lon="13.20800471465151"><ele>583.5</ele><time>2026-04-12T09:21:18Z</time></trkpt><trkpt lat="43.34487575012135" lon="13.207884485760216"><ele>585.0</ele><time>2026-04-12T09:21:21Z</time></trkpt><trkpt lat="43.34481177474989" lon="13.207856800068221"><ele>586.5</ele><time>2026-04-12T09:21:26Z</time></trkpt><trkpt lat="43.34480981377554" lon="13.20795432620822"><ele>588.0</ele><time>2026-04-12T09:21:28Z</time></trkpt><trkpt lat="43.344845738192525" lon="13.208059888681698"><ele>588.0</ele><time>2026-04-12T09:21:30Z</time></trkpt><trkpt lat="43.34484371627451" lon="13.208153843023462"><ele>588.0</ele><time>2026-04-12T09:21:32Z</time></trkpt><trkpt lat="43.344819445103774" lon="13.208235844328511"><ele>588.0</ele><time>2026-04-12T09:21:34Z</time></trkpt><trkpt lat="43.3447523583951" lon="13.208299319466473"><ele>588.0</ele><time>2026-04-12T09:21:36Z</time></trkpt><trkpt lat="43.34469519989147" lon="13.208346531422245"><ele>588.0</ele><time>2026-04-12T09:21:37Z</time></trkpt><trkpt lat="43.344628353923625" lon="13.208401074006957"><ele>588.0</ele><time>2026-04-12T09:21:38Z</time></trkpt><trkpt lat="43.34456541637" lon="13.208451979206249"><ele>588.0</ele><time>2026-04-12T09:21:39Z</time></trkpt><trkpt lat="43.34449001933589" lon="13.208514558795752"><ele>586.5</ele><time>2026-04-12T09:21:40Z</time></trkpt><trkpt lat="43.344417829021445" lon="13.208575628652483"><ele>585.0</ele><time>2026-04-12T09:21:41Z</time></trkpt><trkpt lat="43.34434709932586" lon="13.208648433163637"><ele>583.5</ele><time>2026-04-12T09:21:42Z</time></trkpt><trkpt lat="43.34427763623954" lon="13.208726808391871"><ele>582.0</ele><time>2026-04-12T09:21:43Z</time></trkpt><trkpt lat="43.34420491000295" lon="13.208788242992172"><ele>580.5</ele><time>2026-04-12T09:21:44Z</time></trkpt><trkpt lat="43.344132988137865" lon="13.20885504049161"><ele>579.0</ele><time>2026-04-12T09:21:45Z</time></trkpt><trkpt lat="43.344047624495744" lon="13.208908037186134"><ele>579.0</ele><time>2026-04-12T09:21:46Z</time></trkpt><trkpt lat="43.34396103573867" lon="13.208948655022658"><ele>579.0</ele><time>2026-04-12T09:21:47Z</time></trkpt><trkpt lat="43.34388725520706" lon="13.208974518655085"><ele>579.0</ele><time>2026-04-12T09:21:48Z</time></trkpt><trkpt lat="43.343809766703444" lon="13.209005411279428"><ele>579.0</ele><time>2026-04-12T09:21:49Z</time></trkpt><trkpt lat="43.343738777020896" lon="13.20905484284427"><ele>579.0</ele><time>2026-04-12T09:21:50Z</time></trkpt><trkpt lat="43.34367425228037" lon="13.209132636922186"><ele>579.0</ele><time>2026-04-12T09:21:51Z</time></trkpt><trkpt lat="43.343607790481265" lon="13.209222371164907"><ele>576.6666666666666</ele><time>2026-04-12T09:21:52Z</time></trkpt><trkpt lat="43.34354365368277" lon="13.209319145651158"><ele>574.3333333333334</ele><time>2026-04-12T09:21:53Z</time></trkpt><trkpt lat="43.343479887074146" lon="13.209406634441827"><ele>572.0</ele><time>2026-04-12T09:21:54Z</time></trkpt><trkpt lat="43.34341057816478" lon="13.209489346962538"><ele>569.6666666666667</ele><time>2026-04-12T09:21:55Z</time></trkpt><trkpt lat="43.34334043887687" lon="13.209565016043552"><ele>567.3333333333334</ele><time>2026-04-12T09:21:56Z</time></trkpt><trkpt lat="43.343280900071456" lon="13.20962664807019"><ele>565.0</ele><time>2026-04-12T09:21:57Z</time></trkpt><trkpt lat="43.34322318325186" lon="13.20970453587787"><ele>565.0</ele><time>2026-04-12T09:21:58Z</time></trkpt><trkpt lat="43.343166016771725" lon="13.209794137128553"><ele>565.0</ele><time>2026-04-12T09:21:59Z</time></trkpt><trkpt lat="43.34310429364369" lon="13.209890653710412"><ele>565.0</ele><time>2026-04-12T09:22:00Z</time></trkpt><trkpt lat="43.34304543907842" lon="13.210006229981028"><ele>565.0</ele><time>2026-04-12T09:22:01Z</time></trkpt><trkpt lat="43.34299637831451" lon="13.210120315165865"><ele>565.0</ele><time>2026-04-12T09:22:02Z</time></trkpt><trkpt lat="43.342945790166915" lon="13.210221167607603"><ele>564.8333333333334</ele><time>2026-04-12T09:22:03Z</time></trkpt><trkpt lat="43.3428863790602" lon="13.210299989968178"><ele>564.6666666666667</ele><time>2026-04-12T09:22:04Z</time></trkpt><trkpt lat="43.34281283449345" lon="13.210369594352814"><ele>564.5</ele><time>2026-04-12T09:22:05Z</time></trkpt><trkpt lat="43.34273084175199" lon="13.210446440487024"><ele>564.3333333333334</ele><time>2026-04-12T09:22:06Z</time></trkpt><trkpt lat="43.3426627323177" lon="13.21051951563179"><ele>564.1666666666666</ele><time>2026-04-12T09:22:07Z</time></trkpt><trkpt lat="43.342606410859815" lon="13.210605969564874"><ele>564.0</ele><time>2026-04-12T09:22:08Z</time></trkpt><trkpt lat="43.342560799996555" lon="13.210726209769447"><ele>564.0</ele><time>2026-04-12T09:22:09Z</time></trkpt><trkpt lat="43.342524787463404" lon="13.210851396853462"><ele>564.0</ele><time>2026-04-12T09:22:10Z</time></trkpt><trkpt lat="43.34249107321138" lon="13.210990375068798"><ele>564.0</ele><time>2026-04-12T09:22:11Z</time></trkpt><trkpt lat="43.342455159635264" lon="13.211130659308049"><ele>564.0</ele><time>2026-04-12T09:22:12Z</time></trkpt><trkpt lat="43.34241682686713" lon="13.211273289567355"><ele>564.0</ele><time>2026-04-12T09:22:13Z</time></trkpt><trkpt lat="43.34237569876377" lon="13.211420867307092"><ele>564.2</ele><time>2026-04-12T09:22:14Z</time></trkpt><trkpt lat="43.342335040574014" lon="13.211575224686058"><ele>564.4</ele><time>2026-04-12T09:22:15Z</time></trkpt><trkpt lat="43.342305011449625" lon="13.211703419471293"><ele>564.6</ele><time>2026-04-12T09:22:16Z</time></trkpt><trkpt lat="43.34226679103812" lon="13.21184946925447"><ele>564.8</ele><time>2026-04-12T09:22:17Z</time></trkpt><trkpt lat="43.34222132284528" lon="13.211973035206892"><ele>565.0</ele><time>2026-04-12T09:22:18Z</time></trkpt><trkpt lat="43.34216850342347" lon="13.212076880816408"><ele>564.1666666666667</ele><time>2026-04-12T09:22:19Z</time></trkpt><trkpt lat="43.34211369822504" lon="13.21217290969302"><ele>563.3333333333334</ele><time>2026-04-12T09:22:20Z</time></trkpt><trkpt lat="43.342056606130285" lon="13.212258471036453"><ele>562.5</ele><time>2026-04-12T09:22:21Z</time></trkpt><trkpt lat="43.34198526602151" lon="13.212343665753703"><ele>561.6666666666666</ele><time>2026-04-12T09:22:22Z</time></trkpt><trkpt lat="43.34190570312254" lon="13.212414891884034"><ele>560.8333333333333</ele><time>2026-04-12T09:22:23Z</time></trkpt><trkpt lat="43.34183352246855" lon="13.212464165458016"><ele>560.0</ele><time>2026-04-12T09:22:24Z</time></trkpt><trkpt lat="43.34176078610552" lon="13.212519764549366"><ele>560.0</ele><time>2026-04-12T09:22:25Z</time></trkpt><trkpt lat="43.341689537478295" lon="13.212573514522784"><ele>560.0</ele><time>2026-04-12T09:22:26Z</time></trkpt><trkpt lat="43.34161770529087" lon="13.212628345107934"><ele>560.0</ele><time>2026-04-12T09:22:27Z</time></trkpt><trkpt lat="43.34154459652227" lon="13.212680136672782"><ele>560.0</ele><time>2026-04-12T09:22:28Z</time></trkpt><trkpt lat="43.34145875717673" lon="13.21273978525792"><ele>560.0</ele><time>2026-04-12T09:22:29Z</time></trkpt><trkpt lat="43.341371753619704" lon="13.212791419232051"><ele>560.0</ele><time>2026-04-12T09:22:30Z</time></trkpt><trkpt lat="43.34127197873386" lon="13.212844384513618"><ele>558.75</ele><time>2026-04-12T09:22:31Z</time></trkpt><trkpt lat="43.3411600110464" lon="13.212894817889214"><ele>557.5</ele><time>2026-04-12T09:22:32Z</time></trkpt><trkpt lat="43.34103852238167" lon="13.212942592581129"><ele>556.25</ele><time>2026-04-12T09:22:33Z</time></trkpt><trkpt lat="43.3409127492837" lon="13.212979831765207"><ele>555.0</ele><time>2026-04-12T09:22:34Z</time></trkpt><trkpt lat="43.34079320346509" lon="13.213008119973189"><ele>555.0</ele><time>2026-04-12T09:22:35Z</time></trkpt><trkpt lat="43.340677386614765" lon="13.21302322593397"><ele>555.0</ele><time>2026-04-12T09:22:36Z</time></trkpt><trkpt lat="43.340564294795065" lon="13.21301967597935"><ele>555.0</ele><time>2026-04-12T09:22:37Z</time></trkpt><trkpt lat="43.34045609859325" lon="13.213020900667757"><ele>555.0</ele><time>2026-04-12T09:22:38Z</time></trkpt><trkpt lat="43.340363875582405" lon="13.213017357040783"><ele>555.0</ele><time>2026-04-12T09:22:39Z</time></trkpt><trkpt lat="43.340277722881495" lon="13.213038922284769"><ele>554.5</ele><time>2026-04-12T09:22:40Z</time></trkpt><trkpt lat="43.340206694555725" lon="13.213067652166941"><ele>554.0</ele><time>2026-04-12T09:22:41Z</time></trkpt><trkpt lat="43.34014726094258" lon="13.213114707132114"><ele>553.5</ele><time>2026-04-12T09:22:42Z</time></trkpt><trkpt lat="43.34009134432477" lon="13.21319212428122"><ele>553.0</ele><time>2026-04-12T09:22:43Z</time></trkpt><trkpt lat="43.34003905055784" lon="13.213279938814653"><ele>552.5</ele><time>2026-04-12T09:22:44Z</time></trkpt><trkpt lat="43.33999641992829" lon="13.213381887218203"><ele>552.0</ele><time>2026-04-12T09:22:45Z</time></trkpt><trkpt lat="43.33995581336045" lon="13.213491207319247"><ele>552.1666666666666</ele><time>2026-04-12T09:22:46Z</time></trkpt><trkpt lat="43.33991741659263" lon="13.213573393727977"><ele>552.3333333333334</ele><time>2026-04-12T09:22:47Z</time></trkpt><trkpt lat="43.33987544672705" lon="13.213648127722948"><ele>552.5</ele><time>2026-04-12T09:22:48Z</time></trkpt><trkpt lat="43.33983371581064" lon="13.213723002485573"><ele>552.6666666666667</ele><time>2026-04-12T09:22:49Z</time></trkpt><trkpt lat="43.33979472569923" lon="13.213800840203557"><ele>552.8333333333334</ele><time>2026-04-12T09:22:50Z</time></trkpt><trkpt lat="43.339739911542985" lon="13.213942099188497"><ele>553.0</ele><time>2026-04-12T09:22:52Z</time></trkpt><trkpt lat="43.33970937753518" lon="13.214017795317629"><ele>553.0</ele><time>2026-04-12T09:22:53Z</time></trkpt><trkpt lat="43.339638650522986" lon="13.214150276798822"><ele>553.0</ele><time>2026-04-12T09:22:55Z</time></trkpt><trkpt lat="43.339575786217296" lon="13.21421724006675"><ele>553.0</ele><time>2026-04-12T09:22:57Z</time></trkpt><trkpt lat="43.3396575489146" lon="13.214106137404437"><ele>553.0</ele><time>2026-04-12T09:23:18Z</time></trkpt><trkpt lat="43.33975593383354" lon="13.213930143110636"><ele>553.8333333333334</ele><time>2026-04-12T09:23:19Z</time></trkpt><trkpt lat="43.33981216928079" lon="13.21379076227345"><ele>554.6666666666667</ele><time>2026-04-12T09:23:20Z</time></trkpt><trkpt lat="43.33986311300969" lon="13.213668836824565"><ele>555.5</ele><time>2026-04-12T09:23:21Z</time></trkpt><trkpt lat="43.33990687553885" lon="13.213572603006213"><ele>556.3333333333334</ele><time>2026-04-12T09:23:22Z</time></trkpt><trkpt lat="43.33994815740651" lon="13.213499926227076"><ele>557.1666666666666</ele><time>2026-04-12T09:23:23Z</time></trkpt><trkpt lat="43.3400038433773" lon="13.21342078495074"><ele>558.0</ele><time>2026-04-12T09:23:24Z</time></trkpt><trkpt lat="43.340051139861856" lon="13.213340641248797"><ele>558.0</ele><time>2026-04-12T09:23:25Z</time></trkpt><trkpt lat="43.340086317255675" lon="13.213261170789632"><ele>558.0</ele><time>2026-04-12T09:23:26Z</time></trkpt><trkpt lat="43.34014114992923" lon="13.213170837110805"><ele>558.0</ele><time>2026-04-12T09:23:27Z</time></trkpt><trkpt lat="43.340229357357586" lon="13.213066499124047"><ele>558.0</ele><time>2026-04-12T09:23:29Z</time></trkpt><trkpt lat="43.340294929124234" lon="13.213037655300107"><ele>558.0</ele><time>2026-04-12T09:23:30Z</time></trkpt><trkpt lat="43.34039731963514" lon="13.213009880173887"><ele>558.0</ele><time>2026-04-12T09:23:31Z</time></trkpt><trkpt lat="43.34051835922293" lon="13.213000980155721"><ele>557.25</ele><time>2026-04-12T09:23:32Z</time></trkpt><trkpt lat="43.34064517927598" lon="13.21299991112326"><ele>556.5</ele><time>2026-04-12T09:23:33Z</time></trkpt><trkpt lat="43.340760816236156" lon="13.21300270447548"><ele>555.75</ele><time>2026-04-12T09:23:34Z</time></trkpt><trkpt lat="43.340874086313846" lon="13.212996591549123"><ele>555.0</ele><time>2026-04-12T09:23:35Z</time></trkpt><trkpt lat="43.340997414284324" lon="13.212960317810035"><ele>555.0</ele><time>2026-04-12T09:23:36Z</time></trkpt><trkpt lat="43.341126922825914" lon="13.212913464575323"><ele>555.0</ele><time>2026-04-12T09:23:37Z</time></trkpt><trkpt lat="43.34126354642696" lon="13.212849355260456"><ele>555.0</ele><time>2026-04-12T09:23:38Z</time></trkpt><trkpt lat="43.341408991623844" lon="13.21277045793285"><ele>555.0</ele><time>2026-04-12T09:23:39Z</time></trkpt><trkpt lat="43.341555766220296" lon="13.212684651002505"><ele>555.5</ele><time>2026-04-12T09:23:40Z</time></trkpt><trkpt lat="43.34169011872012" lon="13.212586084607334"><ele>556.0</ele><time>2026-04-12T09:23:41Z</time></trkpt><trkpt lat="43.341814750230604" lon="13.212482657423145"><ele>556.5</ele><time>2026-04-12T09:23:42Z</time></trkpt><trkpt lat="43.34193339457173" lon="13.212388653040751"><ele>557.0</ele><time>2026-04-12T09:23:43Z</time></trkpt><trkpt lat="43.342028306790475" lon="13.212301590210238"><ele>557.0</ele><time>2026-04-12T09:23:44Z</time></trkpt><trkpt lat="43.34210252165337" lon="13.212221647175559"><ele>557.0</ele><time>2026-04-12T09:23:45Z</time></trkpt><trkpt lat="43.34216783536752" lon="13.212114473468356"><ele>557.0</ele><time>2026-04-12T09:23:46Z</time></trkpt><trkpt lat="43.34223059772772" lon="13.211973076831965"><ele>557.0</ele><time>2026-04-12T09:23:47Z</time></trkpt><trkpt lat="43.342299007795866" lon="13.21179459127958"><ele>559.3333333333333</ele><time>2026-04-12T09:23:48Z</time></trkpt><trkpt lat="43.34235373371309" lon="13.211590276468007"><ele>561.6666666666666</ele><time>2026-04-12T09:23:49Z</time></trkpt><trkpt lat="43.342408545912505" lon="13.211342895700609"><ele>564.0</ele><time>2026-04-12T09:23:50Z</time></trkpt><trkpt lat="43.34246793169767" lon="13.211127540273663"><ele>564.0</ele><time>2026-04-12T09:23:51Z</time></trkpt><trkpt lat="43.34252695958842" lon="13.210930861358229"><ele>564.0</ele><time>2026-04-12T09:23:52Z</time></trkpt><trkpt lat="43.342578819380186" lon="13.210755357320902"><ele>564.0</ele><time>2026-04-12T09:23:53Z</time></trkpt><trkpt lat="43.34262734792072" lon="13.210611714804537"><ele>564.0</ele><time>2026-04-12T09:23:54Z</time></trkpt><trkpt lat="43.34268290858284" lon="13.210503305570867"><ele>564.75</ele><time>2026-04-12T09:23:55Z</time></trkpt><trkpt lat="43.342760124245935" lon="13.210402279081238"><ele>565.5</ele><time>2026-04-12T09:23:56Z</time></trkpt><trkpt lat="43.34286833862098" lon="13.210298907099201"><ele>566.25</ele><time>2026-04-12T09:23:57Z</time></trkpt><trkpt lat="43.342965686797534" lon="13.210214940663422"><ele>567.0</ele><time>2026-04-12T09:23:58Z</time></trkpt><trkpt lat="43.343038559276884" lon="13.210103057875967"><ele>566.6</ele><time>2026-04-12T09:23:59Z</time></trkpt><trkpt lat="43.34308904925279" lon="13.209979391848092"><ele>566.2</ele><time>2026-04-12T09:24:00Z</time></trkpt><trkpt lat="43.34314681440886" lon="13.209855550937599"><ele>565.8</ele><time>2026-04-12T09:24:01Z</time></trkpt><trkpt lat="43.34321386778546" lon="13.209747877956968"><ele>565.4</ele><time>2026-04-12T09:24:02Z</time></trkpt><trkpt lat="43.343277922534455" lon="13.209651579703895"><ele>565.0</ele><time>2026-04-12T09:24:03Z</time></trkpt><trkpt lat="43.34334495574034" lon="13.209569797872367"><ele>565.0</ele><time>2026-04-12T09:24:04Z</time></trkpt><trkpt lat="43.34341055460372" lon="13.20949612142408"><ele>565.0</ele><time>2026-04-12T09:24:05Z</time></trkpt><trkpt lat="43.34347428973133" lon="13.209429734147303"><ele>565.0</ele><time>2026-04-12T09:24:06Z</time></trkpt><trkpt lat="43.34353867607783" lon="13.209359432918783"><ele>565.0</ele><time>2026-04-12T09:24:07Z</time></trkpt><trkpt lat="43.34360250941635" lon="13.209282781263155"><ele>565.0</ele><time>2026-04-12T09:24:08Z</time></trkpt><trkpt lat="43.34365657303583" lon="13.209195331641432"><ele>565.0</ele><time>2026-04-12T09:24:09Z</time></trkpt><trkpt lat="43.3437198689525" lon="13.209113496813297"><ele>564.9999999999999</ele><time>2026-04-12T09:24:10Z</time></trkpt><trkpt lat="43.343777304692885" lon="13.209049894627872"><ele>565.0</ele><time>2026-04-12T09:24:11Z</time></trkpt><trkpt lat="43.34384460969374" lon="13.208998358859583"><ele>565.0</ele><time>2026-04-12T09:24:12Z</time></trkpt><trkpt lat="43.34391431589207" lon="13.208956692678031"><ele>565.0</ele><time>2026-04-12T09:24:13Z</time></trkpt><trkpt lat="43.34398601459973" lon="13.208925112576754"><ele>565.0</ele><time>2026-04-12T09:24:14Z</time></trkpt><trkpt lat="43.34405772940042" lon="13.208894446675677"><ele>564.9999999999999</ele><time>2026-04-12T09:24:15Z</time></trkpt><trkpt lat="43.3441245328739" lon="13.208859187234795"><ele>565.0</ele><time>2026-04-12T09:24:16Z</time></trkpt><trkpt lat="43.344185965676324" lon="13.208815872254121"><ele>567.8</ele><time>2026-04-12T09:24:17Z</time></trkpt><trkpt lat="43.34425222586537" lon="13.208759290403433"><ele>570.6</ele><time>2026-04-12T09:24:18Z</time></trkpt><trkpt lat="43.344365022579225" lon="13.208648975889242"><ele>573.4</ele><time>2026-04-12T09:24:20Z</time></trkpt><trkpt lat="43.344440145593374" lon="13.208581745478062"><ele>576.2</ele><time>2026-04-12T09:24:21Z</time></trkpt><trkpt lat="43.344505547973675" lon="13.208520862976258"><ele>579.0</ele><time>2026-04-12T09:24:22Z</time></trkpt><trkpt lat="43.344567819725555" lon="13.208460790659036"><ele>579.0</ele><time>2026-04-12T09:24:23Z</time></trkpt><trkpt lat="43.34463851312362" lon="13.208402092700807"><ele>579.0</ele><time>2026-04-12T09:24:24Z</time></trkpt><trkpt lat="43.34469727232101" lon="13.20834602448606"><ele>579.0</ele><time>2026-04-12T09:24:25Z</time></trkpt><trkpt lat="43.3447624311719" lon="13.208286461926866"><ele>579.0</ele><time>2026-04-12T09:24:26Z</time></trkpt><trkpt lat="43.34481940665258" lon="13.208225933559374"><ele>579.0</ele><time>2026-04-12T09:24:27Z</time></trkpt><trkpt lat="43.34483811032779" lon="13.208137381631849"><ele>579.0</ele><time>2026-04-12T09:24:29Z</time></trkpt><trkpt lat="43.34483627791087" lon="13.208014168454238"><ele>580.5</ele><time>2026-04-12T09:24:31Z</time></trkpt><trkpt lat="43.34488053103294" lon="13.207866543757122"><ele>582.0</ele><time>2026-04-12T09:24:33Z</time></trkpt><trkpt lat="43.344927008097294" lon="13.207803168576037"><ele>583.5</ele><time>2026-04-12T09:24:34Z</time></trkpt><trkpt lat="43.344995566769725" lon="13.207764924105522"><ele>585.0</ele><time>2026-04-12T09:24:35Z</time></trkpt><trkpt lat="43.34505443923427" lon="13.2076862777552"><ele>586.5</ele><time>2026-04-12T09:24:36Z</time></trkpt><trkpt lat="43.3451378246503" lon="13.207632495071676"><ele>588.0</ele><time>2026-04-12T09:24:37Z</time></trkpt><trkpt lat="43.345216083497746" lon="13.207559643057674"><ele>588.0</ele><time>2026-04-12T09:24:38Z</time></trkpt><trkpt lat="43.34529173848706" lon="13.207461714995642"><ele>588.0</ele><time>2026-04-12T09:24:39Z</time></trkpt><trkpt lat="43.345372416215675" lon="13.207386328699211"><ele>588.0</ele><time>2026-04-12T09:24:40Z</time></trkpt><trkpt lat="43.345433266196565" lon="13.20730342358113"><ele>588.0</ele><time>2026-04-12T09:24:41Z</time></trkpt><trkpt lat="43.345483235793864" lon="13.207225247527303"><ele>588.0</ele><time>2026-04-12T09:24:42Z</time></trkpt><trkpt lat="43.34552335867095" lon="13.207148387336417"><ele>588.0</ele><time>2026-04-12T09:24:43Z</time></trkpt><trkpt lat="43.34556949770539" lon="13.207046306866474"><ele>589.25</ele><time>2026-04-12T09:24:44Z</time></trkpt><trkpt lat="43.34561924981428" lon="13.206902367204279"><ele>590.5</ele><time>2026-04-12T09:24:45Z</time></trkpt><trkpt lat="43.34566756230518" lon="13.206720724190788"><ele>591.75</ele><time>2026-04-12T09:24:46Z</time></trkpt><trkpt lat="43.34571618943658" lon="13.20656675565126"><ele>593.0</ele><time>2026-04-12T09:24:47Z</time></trkpt><trkpt lat="43.34575937279662" lon="13.206422871406696"><ele>593.0</ele><time>2026-04-12T09:24:48Z</time></trkpt><trkpt lat="43.34578273318594" lon="13.206253535594454"><ele>593.0</ele><time>2026-04-12T09:24:49Z</time></trkpt><trkpt lat="43.345821290622325" lon="13.206073107373324"><ele>593.0</ele><time>2026-04-12T09:24:50Z</time></trkpt><trkpt lat="43.34584046864932" lon="13.205904972569122"><ele>593.0</ele><time>2026-04-12T09:24:51Z</time></trkpt><trkpt lat="43.3458835693482" lon="13.20573179623501"><ele>592.25</ele><time>2026-04-12T09:24:52Z</time></trkpt><trkpt lat="43.34592222736313" lon="13.205531551531372"><ele>591.5</ele><time>2026-04-12T09:24:53Z</time></trkpt><trkpt lat="43.34595538306203" lon="13.205352772512175"><ele>590.75</ele><time>2026-04-12T09:24:54Z</time></trkpt><trkpt lat="43.345988520226236" lon="13.205176928329845"><ele>590.0</ele><time>2026-04-12T09:24:55Z</time></trkpt><trkpt lat="43.34601399919246" lon="13.205016865086092"><ele>589.25</ele><time>2026-04-12T09:24:56Z</time></trkpt><trkpt lat="43.34603712227071" lon="13.204815836224116"><ele>588.5</ele><time>2026-04-12T09:24:57Z</time></trkpt><trkpt lat="43.34608406118464" lon="13.204631133104233"><ele>587.75</ele><time>2026-04-12T09:24:58Z</time></trkpt><trkpt lat="43.34611950967684" lon="13.204463218513766"><ele>587.0</ele><time>2026-04-12T09:24:59Z</time></trkpt><trkpt lat="43.34615526637425" lon="13.204293560599357"><ele>587.0</ele><time>2026-04-12T09:25:00Z</time></trkpt><trkpt lat="43.34617990625699" lon="13.204122026314662"><ele>587.0</ele><time>2026-04-12T09:25:01Z</time></trkpt><trkpt lat="43.346222152344204" lon="13.203917911102799"><ele>587.0</ele><time>2026-04-12T09:25:02Z</time></trkpt><trkpt lat="43.34625525107004" lon="13.203721498858556"><ele>587.0</ele><time>2026-04-12T09:25:03Z</time></trkpt><trkpt lat="43.34627155762163" lon="13.203550315301744"><ele>587.6</ele><time>2026-04-12T09:25:04Z</time></trkpt><trkpt lat="43.34629563793853" lon="13.203404412216834"><ele>588.2</ele><time>2026-04-12T09:25:05Z</time></trkpt><trkpt lat="43.34632458036711" lon="13.203251889092629"><ele>588.8</ele><time>2026-04-12T09:25:06Z</time></trkpt><trkpt lat="43.34636181797831" lon="13.203117279309263"><ele>589.4</ele><time>2026-04-12T09:25:07Z</time></trkpt><trkpt lat="43.3463875562883" lon="13.202977389907025"><ele>590.0</ele><time>2026-04-12T09:25:08Z</time></trkpt><trkpt lat="43.34641455075285" lon="13.202842813914032"><ele>593.8</ele><time>2026-04-12T09:25:09Z</time></trkpt><trkpt lat="43.34642576733787" lon="13.202703318935784"><ele>597.6</ele><time>2026-04-12T09:25:10Z</time></trkpt><trkpt lat="43.34645691599974" lon="13.202573590470648"><ele>601.4</ele><time>2026-04-12T09:25:11Z</time></trkpt><trkpt lat="43.3464795338197" lon="13.202448939381986"><ele>605.2</ele><time>2026-04-12T09:25:12Z</time></trkpt><trkpt lat="43.346506492333795" lon="13.202316507473913"><ele>609.0</ele><time>2026-04-12T09:25:13Z</time></trkpt><trkpt lat="43.34652811618129" lon="13.20217538927431"><ele>609.0</ele><time>2026-04-12T09:25:14Z</time></trkpt><trkpt lat="43.34656277198433" lon="13.202016884849854"><ele>609.0</ele><time>2026-04-12T09:25:15Z</time></trkpt><trkpt lat="43.34657670832813" lon="13.20183415098954"><ele>609.0</ele><time>2026-04-12T09:25:16Z</time></trkpt><trkpt lat="43.34660790017874" lon="13.201639552292068"><ele>609.0</ele><time>2026-04-12T09:25:17Z</time></trkpt><trkpt lat="43.346643442002765" lon="13.201401941915867"><ele>609.0</ele><time>2026-04-12T09:25:18Z</time></trkpt><trkpt lat="43.346682291287124" lon="13.201170012626411"><ele>609.0</ele><time>2026-04-12T09:25:19Z</time></trkpt><trkpt lat="43.346705669782004" lon="13.20098130082898"><ele>609.0</ele><time>2026-04-12T09:25:20Z</time></trkpt><trkpt lat="43.34673501700933" lon="13.20082656749261"><ele>609.0</ele><time>2026-04-12T09:25:21Z</time></trkpt><trkpt lat="43.346747777653135" lon="13.200679930098653"><ele>608.8</ele><time>2026-04-12T09:25:22Z</time></trkpt><trkpt lat="43.346777495224366" lon="13.200522160142393"><ele>608.5999999999999</ele><time>2026-04-12T09:25:23Z</time></trkpt><trkpt lat="43.346805578619154" lon="13.20039106479827"><ele>608.4</ele><time>2026-04-12T09:25:24Z</time></trkpt><trkpt lat="43.34682172404434" lon="13.20025579284675"><ele>608.1999999999999</ele><time>2026-04-12T09:25:25Z</time></trkpt><trkpt lat="43.34681420878392" lon="13.200135861003167"><ele>608.0</ele><time>2026-04-12T09:25:26Z</time></trkpt><trkpt lat="43.34680806237921" lon="13.200015391178525"><ele>608.0</ele><time>2026-04-12T09:25:28Z</time></trkpt><trkpt lat="43.3468070850816" lon="13.199920383280514"><ele>608.0</ele><time>2026-04-12T09:25:32Z</time></trkpt><trkpt lat="43.346792323168145" lon="13.199831688568024"><ele>608.0</ele><time>2026-04-12T09:25:34Z</time></trkpt><trkpt lat="43.34678327252058" lon="13.199715303424263"><ele>608.0</ele><time>2026-04-12T09:25:36Z</time></trkpt><trkpt lat="43.346772298071684" lon="13.199610891349513"><ele>608.0</ele><time>2026-04-12T09:25:38Z</time></trkpt><trkpt lat="43.34675903282868" lon="13.19950088768717"><ele>608.0</ele><time>2026-04-12T09:25:40Z</time></trkpt><trkpt lat="43.34674415898002" lon="13.199371047117925"><ele>608.0</ele><time>2026-04-12T09:25:42Z</time></trkpt><trkpt lat="43.34672274459345" lon="13.19921829646097"><ele>608.0</ele><time>2026-04-12T09:25:44Z</time></trkpt><trkpt lat="43.346711963555364" lon="13.199126209417564"><ele>608.0</ele><time>2026-04-12T09:25:45Z</time></trkpt><trkpt lat="43.34670157254046" lon="13.199022556979614"><ele>608.0</ele><time>2026-04-12T09:25:46Z</time></trkpt><trkpt lat="43.346687212015446" lon="13.198913389505119"><ele>608.0</ele><time>2026-04-12T09:25:47Z</time></trkpt><trkpt lat="43.34666949418786" lon="13.198790356163727"><ele>608.0</ele><time>2026-04-12T09:25:48Z</time></trkpt><trkpt lat="43.34665886426698" lon="13.19866282596804"><ele>608.0</ele><time>2026-04-12T09:25:49Z</time></trkpt><trkpt lat="43.34664738266438" lon="13.198551992314929"><ele>608.0</ele><time>2026-04-12T09:25:50Z</time></trkpt><trkpt lat="43.346633480956925" lon="13.198440446530318"><ele>608.0</ele><time>2026-04-12T09:25:51Z</time></trkpt><trkpt lat="43.34662186848776" lon="13.19833204474687"><ele>608.0</ele><time>2026-04-12T09:25:52Z</time></trkpt><trkpt lat="43.34661064677504" lon="13.19822869177942"><ele>608.0</ele><time>2026-04-12T09:25:53Z</time></trkpt><trkpt lat="43.34660175917317" lon="13.198131794155447"><ele>608.0</ele><time>2026-04-12T09:25:54Z</time></trkpt><trkpt lat="43.346584736282246" lon="13.198029538847994"><ele>607.8571428571428</ele><time>2026-04-12T09:25:55Z</time></trkpt><trkpt lat="43.346577373028914" lon="13.197938357547718"><ele>607.7142857142858</ele><time>2026-04-12T09:25:56Z</time></trkpt><trkpt lat="43.346564637304176" lon="13.197848731196713"><ele>607.5714285714286</ele><time>2026-04-12T09:25:57Z</time></trkpt><trkpt lat="43.34654153547404" lon="13.1977175249192"><ele>607.4285714285713</ele><time>2026-04-12T09:25:59Z</time></trkpt><trkpt lat="43.34652939967187" lon="13.197625663151436"><ele>607.2857142857142</ele><time>2026-04-12T09:26:01Z</time></trkpt><trkpt lat="43.346573535226916" lon="13.197557384728155"><ele>607.1428571428571</ele><time>2026-04-12T09:26:03Z</time></trkpt><trkpt lat="43.346607764105066" lon="13.19748178097535"><ele>607.0</ele><time>2026-04-12T09:26:04Z</time></trkpt><trkpt lat="43.34663304883167" lon="13.197378688495373"><ele>606.8000000000001</ele><time>2026-04-12T09:26:05Z</time></trkpt><trkpt lat="43.3466722273156" lon="13.197270451863476"><ele>606.6</ele><time>2026-04-12T09:26:06Z</time></trkpt><trkpt lat="43.346710890682914" lon="13.197145048287103"><ele>606.4000000000001</ele><time>2026-04-12T09:26:07Z</time></trkpt><trkpt lat="43.34674588869126" lon="13.19700420987722"><ele>606.2</ele><time>2026-04-12T09:26:08Z</time></trkpt><trkpt lat="43.346769426176586" lon="13.196861630942271"><ele>606.0</ele><time>2026-04-12T09:26:09Z</time></trkpt><trkpt lat="43.3467888097198" lon="13.196717746759061"><ele>606.0</ele><time>2026-04-12T09:26:10Z</time></trkpt><trkpt lat="43.34680768794971" lon="13.196556449196637"><ele>606.0</ele><time>2026-04-12T09:26:11Z</time></trkpt><trkpt lat="43.34682538548991" lon="13.196390179989177"><ele>606.0</ele><time>2026-04-12T09:26:12Z</time></trkpt><trkpt lat="43.34683803972986" lon="13.196225981544789"><ele>606.0</ele><time>2026-04-12T09:26:13Z</time></trkpt><trkpt lat="43.346852950080944" lon="13.19607054997834"><ele>606.25</ele><time>2026-04-12T09:26:14Z</time></trkpt><trkpt lat="43.34686874821591" lon="13.19591275552233"><ele>606.5</ele><time>2026-04-12T09:26:15Z</time></trkpt><trkpt lat="43.34687801909646" lon="13.195744503157966"><ele>606.75</ele><time>2026-04-12T09:26:16Z</time></trkpt><trkpt lat="43.346886867375986" lon="13.195576980293598"><ele>607.0</ele><time>2026-04-12T09:26:17Z</time></trkpt><trkpt lat="43.34688740130713" lon="13.195402190292793"><ele>607.5</ele><time>2026-04-12T09:26:18Z</time></trkpt><trkpt lat="43.34688214816038" lon="13.195227289179789"><ele>608.0</ele><time>2026-04-12T09:26:19Z</time></trkpt><trkpt lat="43.34687488584325" lon="13.195045060080169"><ele>608.5</ele><time>2026-04-12T09:26:20Z</time></trkpt><trkpt lat="43.34685978251336" lon="13.194859175888663"><ele>609.0</ele><time>2026-04-12T09:26:21Z</time></trkpt><trkpt lat="43.34683820327285" lon="13.194686953121606"><ele>610.0</ele><time>2026-04-12T09:26:22Z</time></trkpt><trkpt lat="43.34681506674499" lon="13.19451993057681"><ele>611.0</ele><time>2026-04-12T09:26:23Z</time></trkpt><trkpt lat="43.3468000923295" lon="13.194357587285324"><ele>612.0</ele><time>2026-04-12T09:26:24Z</time></trkpt><trkpt lat="43.346790862487154" lon="13.194209269228233"><ele>613.0</ele><time>2026-04-12T09:26:25Z</time></trkpt><trkpt lat="43.346792076299465" lon="13.19406865722458"><ele>612.8</ele><time>2026-04-12T09:26:25.999Z</time></trkpt><trkpt lat="43.346798717459826" lon="13.193920751488172"><ele>612.5999999999999</ele><time>2026-04-12T09:26:26.999Z</time></trkpt><trkpt lat="43.346817789499255" lon="13.19377272620149"><ele>612.4000000000001</ele><time>2026-04-12T09:26:27.999Z</time></trkpt><trkpt lat="43.34684916581533" lon="13.193625271374033"><ele>612.2</ele><time>2026-04-12T09:26:29Z</time></trkpt><trkpt lat="43.34688624346807" lon="13.193481136531522"><ele>612.0</ele><time>2026-04-12T09:26:30Z</time></trkpt><trkpt lat="43.34692282764271" lon="13.193357250929662"><ele>612.0</ele><time>2026-04-12T09:26:31Z</time></trkpt><trkpt lat="43.3469631479974" lon="13.193247255611446"><ele>612.0</ele><time>2026-04-12T09:26:32Z</time></trkpt><trkpt lat="43.347016175704304" lon="13.193171720916421"><ele>612.0</ele><time>2026-04-12T09:26:33Z</time></trkpt><trkpt lat="43.347085546501354" lon="13.193067015789907"><ele>612.0</ele><time>2026-04-12T09:26:35Z</time></trkpt><trkpt lat="43.34699233701317" lon="13.19284149940884"><ele>611.5</ele><time>2026-04-12T09:26:38Z</time></trkpt><trkpt lat="43.34692641372151" lon="13.192743673758455"><ele>611.0</ele><time>2026-04-12T09:26:39Z</time></trkpt><trkpt lat="43.346854819253814" lon="13.192617959193777"><ele>610.5</ele><time>2026-04-12T09:26:40Z</time></trkpt><trkpt lat="43.34675580853512" lon="13.192516094972953"><ele>610.0</ele><time>2026-04-12T09:26:41Z</time></trkpt><trkpt lat="43.346669238573675" lon="13.192392648012852"><ele>608.25</ele><time>2026-04-12T09:26:42Z</time></trkpt><trkpt lat="43.34657322357907" lon="13.192271852185648"><ele>606.5</ele><time>2026-04-12T09:26:43Z</time></trkpt><trkpt lat="43.3464698576603" lon="13.192145122992688"><ele>604.75</ele><time>2026-04-12T09:26:44Z</time></trkpt><trkpt lat="43.34636433507495" lon="13.192021299225052"><ele>603.0</ele><time>2026-04-12T09:26:45Z</time></trkpt><trkpt lat="43.346270897318874" lon="13.191902921187097"><ele>600.6</ele><time>2026-04-12T09:26:46Z</time></trkpt><trkpt lat="43.34619423716158" lon="13.191805660330298"><ele>598.1999999999999</ele><time>2026-04-12T09:26:47Z</time></trkpt><trkpt lat="43.346161001978736" lon="13.191698432972123"><ele>595.8</ele><time>2026-04-12T09:26:48Z</time></trkpt><trkpt lat="43.346152666002354" lon="13.19160436975586"><ele>593.4</ele><time>2026-04-12T09:26:49Z</time></trkpt><trkpt lat="43.34613529467637" lon="13.191477951951482"><ele>591.0</ele><time>2026-04-12T09:26:50Z</time></trkpt><trkpt lat="43.346141755389276" lon="13.19132954202203"><ele>590.0</ele><time>2026-04-12T09:26:51Z</time></trkpt><trkpt lat="43.34615137623237" lon="13.191195977617529"><ele>589.0</ele><time>2026-04-12T09:26:52Z</time></trkpt><trkpt lat="43.34616007032784" lon="13.191089749255015"><ele>588.0</ele><time>2026-04-12T09:26:53Z</time></trkpt><trkpt lat="43.34614602514917" lon="13.19099973088226"><ele>587.0</ele><time>2026-04-12T09:26:54Z</time></trkpt><trkpt lat="43.346100426903114" lon="13.190896646698526"><ele>586.0</ele><time>2026-04-12T09:26:55Z</time></trkpt><trkpt lat="43.34601873637639" lon="13.190809308244724"><ele>585.0</ele><time>2026-04-12T09:26:56Z</time></trkpt><trkpt lat="43.34592645348799" lon="13.190735959687066"><ele>582.0</ele><time>2026-04-12T09:26:57Z</time></trkpt><trkpt lat="43.345827145199166" lon="13.190667993147807"><ele>579.0</ele><time>2026-04-12T09:26:58Z</time></trkpt><trkpt lat="43.34573206140448" lon="13.1905947276495"><ele>576.0</ele><time>2026-04-12T09:26:59Z</time></trkpt><trkpt lat="43.345638124198096" lon="13.190512853049881"><ele>573.0</ele><time>2026-04-12T09:27:00Z</time></trkpt><trkpt lat="43.34554813815863" lon="13.19042729459199"><ele>570.0</ele><time>2026-04-12T09:27:01Z</time></trkpt><trkpt lat="43.34546536382643" lon="13.19034467050058"><ele>569.1428571428571</ele><time>2026-04-12T09:27:02Z</time></trkpt><trkpt lat="43.34540016287044" lon="13.190290795546355"><ele>568.2857142857143</ele><time>2026-04-12T09:27:03Z</time></trkpt><trkpt lat="43.34532974204079" lon="13.190265378336878"><ele>567.4285714285714</ele><time>2026-04-12T09:27:04Z</time></trkpt><trkpt lat="43.345250929491556" lon="13.190285614842969"><ele>566.5714285714286</ele><time>2026-04-12T09:27:05Z</time></trkpt><trkpt lat="43.345185055821176" lon="13.190338898060546"><ele>565.7142857142857</ele><time>2026-04-12T09:27:06Z</time></trkpt><trkpt lat="43.34513457427268" lon="13.190391254478662"><ele>564.8571428571429</ele><time>2026-04-12T09:27:07Z</time></trkpt><trkpt lat="43.34506463679048" lon="13.190342496720113"><ele>564.0</ele><time>2026-04-12T09:27:09Z</time></trkpt><trkpt lat="43.34506993571953" lon="13.190251866230318"><ele>564.0</ele><time>2026-04-12T09:27:10Z</time></trkpt><trkpt lat="43.34510216672277" lon="13.190135673864372"><ele>564.0</ele><time>2026-04-12T09:27:11Z</time></trkpt><trkpt lat="43.34513894002896" lon="13.190012972024425"><ele>564.0</ele><time>2026-04-12T09:27:12Z</time></trkpt><trkpt lat="43.345184772169965" lon="13.189890355639733"><ele>564.0</ele><time>2026-04-12T09:27:13Z</time></trkpt><trkpt lat="43.345245941883064" lon="13.189781622375081"><ele>564.0</ele><time>2026-04-12T09:27:14Z</time></trkpt><trkpt lat="43.34531888139993" lon="13.189702790037355"><ele>563.1666666666666</ele><time>2026-04-12T09:27:15Z</time></trkpt><trkpt lat="43.34539046707939" lon="13.189655433245694"><ele>562.3333333333334</ele><time>2026-04-12T09:27:16Z</time></trkpt><trkpt lat="43.34544591656376" lon="13.189604738871536"><ele>561.5</ele><time>2026-04-12T09:27:17Z</time></trkpt><trkpt lat="43.345488345695856" lon="13.18946731979892"><ele>560.6666666666667</ele><time>2026-04-12T09:27:19Z</time></trkpt><trkpt lat="43.34547750038393" lon="13.18937857269006"><ele>559.8333333333334</ele><time>2026-04-12T09:27:20Z</time></trkpt><trkpt lat="43.34545231639247" lon="13.189287016112168"><ele>559.0</ele><time>2026-04-12T09:27:21Z</time></trkpt><trkpt lat="43.34541434717277" lon="13.189203685194775"><ele>559.0</ele><time>2026-04-12T09:27:22Z</time></trkpt><trkpt lat="43.345331073290964" lon="13.1891014934993"><ele>559.0</ele><time>2026-04-12T09:27:24Z</time></trkpt><trkpt lat="43.34526089513999" lon="13.18902770625355"><ele>559.0</ele><time>2026-04-12T09:27:26Z</time></trkpt><trkpt lat="43.34532579461616" lon="13.188868409186883"><ele>559.0</ele><time>2026-04-12T09:27:29Z</time></trkpt><trkpt lat="43.345380647409264" lon="13.188772450046482"><ele>559.0</ele><time>2026-04-12T09:27:30Z</time></trkpt><trkpt lat="43.34543146343336" lon="13.18866087509777"><ele>557.25</ele><time>2026-04-12T09:27:31Z</time></trkpt><trkpt lat="43.34546908059445" lon="13.188528470246064"><ele>555.5</ele><time>2026-04-12T09:27:32Z</time></trkpt><trkpt lat="43.34548492909043" lon="13.188379063401252"><ele>553.75</ele><time>2026-04-12T09:27:33Z</time></trkpt><trkpt lat="43.345478618626146" lon="13.18821624633351"><ele>552.0</ele><time>2026-04-12T09:27:34Z</time></trkpt><trkpt lat="43.34547341240809" lon="13.188050528178955"><ele>549.0</ele><time>2026-04-12T09:27:35Z</time></trkpt><trkpt lat="43.34548932446544" lon="13.187882494422732"><ele>546.0</ele><time>2026-04-12T09:27:36Z</time></trkpt><trkpt lat="43.345493552031996" lon="13.187705218441899"><ele>543.0</ele><time>2026-04-12T09:27:37Z</time></trkpt><trkpt lat="43.345491397820915" lon="13.187522344541978"><ele>540.0</ele><time>2026-04-12T09:27:38Z</time></trkpt><trkpt lat="43.345477299987785" lon="13.18734349926126"><ele>540.0</ele><time>2026-04-12T09:27:39Z</time></trkpt><trkpt lat="43.345459062362586" lon="13.187162208323487"><ele>540.0</ele><time>2026-04-12T09:27:40Z</time></trkpt><trkpt lat="43.34542511901329" lon="13.186984112353247"><ele>540.0</ele><time>2026-04-12T09:27:41Z</time></trkpt><trkpt lat="43.34537960976482" lon="13.186804332415177"><ele>540.0</ele><time>2026-04-12T09:27:42Z</time></trkpt><trkpt lat="43.345328981053825" lon="13.186619094155775"><ele>540.5</ele><time>2026-04-12T09:27:43Z</time></trkpt><trkpt lat="43.345273842714676" lon="13.1864323205316"><ele>541.0</ele><time>2026-04-12T09:27:44Z</time></trkpt><trkpt lat="43.345214781340005" lon="13.186262470972398"><ele>541.5</ele><time>2026-04-12T09:27:45Z</time></trkpt><trkpt lat="43.34514514521783" lon="13.186085908223312"><ele>542.0</ele><time>2026-04-12T09:27:46Z</time></trkpt><trkpt lat="43.345069940418306" lon="13.185933989505475"><ele>542.0</ele><time>2026-04-12T09:27:47Z</time></trkpt><trkpt lat="43.34500098957639" lon="13.185791931452107"><ele>542.0</ele><time>2026-04-12T09:27:48Z</time></trkpt><trkpt lat="43.34493947783001" lon="13.185649964724444"><ele>542.0</ele><time>2026-04-12T09:27:49Z</time></trkpt><trkpt lat="43.344874439611594" lon="13.18551100266473"><ele>542.0</ele><time>2026-04-12T09:27:50Z</time></trkpt><trkpt lat="43.34480609105281" lon="13.185379328567034"><ele>542.75</ele><time>2026-04-12T09:27:51Z</time></trkpt><trkpt lat="43.34473120559977" lon="13.185252681948345"><ele>543.5</ele><time>2026-04-12T09:27:52Z</time></trkpt><trkpt lat="43.344648790935246" lon="13.185135908035132"><ele>544.25</ele><time>2026-04-12T09:27:53Z</time></trkpt><trkpt lat="43.344532601860976" lon="13.18503126265996"><ele>545.0</ele><time>2026-04-12T09:27:54Z</time></trkpt><trkpt lat="43.344416248077096" lon="13.184935996480668"><ele>544.25</ele><time>2026-04-12T09:27:55Z</time></trkpt><trkpt lat="43.34431024465366" lon="13.184859080914089"><ele>543.5</ele><time>2026-04-12T09:27:56Z</time></trkpt><trkpt lat="43.34422023361579" lon="13.184748643737061"><ele>542.75</ele><time>2026-04-12T09:27:57Z</time></trkpt><trkpt lat="43.34410818355159" lon="13.18464722539594"><ele>542.0</ele><time>2026-04-12T09:27:58Z</time></trkpt><trkpt lat="43.34401793207277" lon="13.184502786850606"><ele>542.0</ele><time>2026-04-12T09:27:59Z</time></trkpt><trkpt lat="43.3439407218676" lon="13.184359074864666"><ele>542.0</ele><time>2026-04-12T09:28:00Z</time></trkpt><trkpt lat="43.34387856873235" lon="13.184207802680117"><ele>542.0</ele><time>2026-04-12T09:28:01Z</time></trkpt><trkpt lat="43.3438415898554" lon="13.184055831778563"><ele>542.0</ele><time>2026-04-12T09:28:02Z</time></trkpt><trkpt lat="43.34382810457665" lon="13.183906667380977"><ele>540.8000000000001</ele><time>2026-04-12T09:28:03Z</time></trkpt><trkpt lat="43.343870084545166" lon="13.183767259765233"><ele>539.6</ele><time>2026-04-12T09:28:04Z</time></trkpt><trkpt lat="43.34392217300742" lon="13.183641116480736"><ele>538.4000000000001</ele><time>2026-04-12T09:28:05Z</time></trkpt><trkpt lat="43.343965317263866" lon="13.183501740484338"><ele>537.2</ele><time>2026-04-12T09:28:06Z</time></trkpt><trkpt lat="43.344024856907325" lon="13.183364078273284"><ele>536.0</ele><time>2026-04-12T09:28:07Z</time></trkpt><trkpt lat="43.34405853638593" lon="13.183201652056614"><ele>536.25</ele><time>2026-04-12T09:28:08Z</time></trkpt><trkpt lat="43.344064424239185" lon="13.183023578318064"><ele>536.5</ele><time>2026-04-12T09:28:09Z</time></trkpt><trkpt lat="43.34405033358036" lon="13.182844357545099"><ele>536.75</ele><time>2026-04-12T09:28:10Z</time></trkpt><trkpt lat="43.34402603628098" lon="13.18267004159743"><ele>537.0</ele><time>2026-04-12T09:28:11Z</time></trkpt><trkpt lat="43.344000269956176" lon="13.182499416162724"><ele>537.0</ele><time>2026-04-12T09:28:12Z</time></trkpt><trkpt lat="43.34397521001932" lon="13.182333825813082"><ele>537.0</ele><time>2026-04-12T09:28:13Z</time></trkpt><trkpt lat="43.34395364188425" lon="13.182182782593465"><ele>537.0</ele><time>2026-04-12T09:28:14Z</time></trkpt><trkpt lat="43.34393320894457" lon="13.182031159073109"><ele>537.0</ele><time>2026-04-12T09:28:15Z</time></trkpt><trkpt lat="43.34391754904106" lon="13.181884489069216"><ele>537.0</ele><time>2026-04-12T09:28:16Z</time></trkpt><trkpt lat="43.34390913111213" lon="13.181726035429008"><ele>537.0</ele><time>2026-04-12T09:28:17Z</time></trkpt><trkpt lat="43.343911555402244" lon="13.181565515600816"><ele>537.0</ele><time>2026-04-12T09:28:18Z</time></trkpt><trkpt lat="43.343949840263676" lon="13.181405123692315"><ele>537.0</ele><time>2026-04-12T09:28:19Z</time></trkpt><trkpt lat="43.34396286515879" lon="13.181231962729077"><ele>536.5</ele><time>2026-04-12T09:28:20Z</time></trkpt><trkpt lat="43.343994936754456" lon="13.181066257845124"><ele>536.0</ele><time>2026-04-12T09:28:21Z</time></trkpt><trkpt lat="43.34402169906626" lon="13.18088950421524"><ele>535.5</ele><time>2026-04-12T09:28:22Z</time></trkpt><trkpt lat="43.34404658033366" lon="13.180707707330386"><ele>535.0</ele><time>2026-04-12T09:28:23Z</time></trkpt><trkpt lat="43.344069608820796" lon="13.180528956137417"><ele>534.0</ele><time>2026-04-12T09:28:24Z</time></trkpt><trkpt lat="43.34408858015799" lon="13.180351517185052"><ele>533.0</ele><time>2026-04-12T09:28:25Z</time></trkpt><trkpt lat="43.3441072857971" lon="13.180180288747762"><ele>532.0</ele><time>2026-04-12T09:28:26Z</time></trkpt><trkpt lat="43.3441164674373" lon="13.17999882399398"><ele>531.0</ele><time>2026-04-12T09:28:27Z</time></trkpt><trkpt lat="43.34414120521698" lon="13.1798310396913"><ele>531.0</ele><time>2026-04-12T09:28:28Z</time></trkpt><trkpt lat="43.34413707132211" lon="13.179658655071863"><ele>531.0</ele><time>2026-04-12T09:28:29Z</time></trkpt><trkpt lat="43.34413098658638" lon="13.17949193273684"><ele>531.0</ele><time>2026-04-12T09:28:30Z</time></trkpt><trkpt lat="43.34412793362394" lon="13.179341217491196"><ele>531.0</ele><time>2026-04-12T09:28:31Z</time></trkpt><trkpt lat="43.34413910206344" lon="13.179193432054204"><ele>531.0</ele><time>2026-04-12T09:28:32Z</time></trkpt><trkpt lat="43.34416971509488" lon="13.179066434452732"><ele>531.0</ele><time>2026-04-12T09:28:33Z</time></trkpt><trkpt lat="43.344218824811264" lon="13.178963490769297"><ele>531.0</ele><time>2026-04-12T09:28:34Z</time></trkpt><trkpt lat="43.34428481829591" lon="13.178866016437027"><ele>531.0</ele><time>2026-04-12T09:28:35Z</time></trkpt><trkpt lat="43.34437926923018" lon="13.178812966859706"><ele>531.0</ele><time>2026-04-12T09:28:36Z</time></trkpt><trkpt lat="43.3444770917009" lon="13.178763880756467"><ele>531.0</ele><time>2026-04-12T09:28:37Z</time></trkpt><trkpt lat="43.34458397024364" lon="13.178716333306005"><ele>531.0</ele><time>2026-04-12T09:28:38Z</time></trkpt><trkpt lat="43.34469177512214" lon="13.17864832366761"><ele>531.0</ele><time>2026-04-12T09:28:39Z</time></trkpt><trkpt lat="43.34481831193267" lon="13.178601339671928"><ele>531.0</ele><time>2026-04-12T09:28:40Z</time></trkpt><trkpt lat="43.34495139529328" lon="13.178536454631589"><ele>531.0</ele><time>2026-04-12T09:28:41Z</time></trkpt><trkpt lat="43.34509375114018" lon="13.178475814829534"><ele>531.0</ele><time>2026-04-12T09:28:42Z</time></trkpt><trkpt lat="43.3452315650098" lon="13.178427632054344"><ele>531.0</ele><time>2026-04-12T09:28:43Z</time></trkpt><trkpt lat="43.345356678188786" lon="13.17837328421166"><ele>531.0</ele><time>2026-04-12T09:28:44Z</time></trkpt><trkpt lat="43.345475685972126" lon="13.17832767623481"><ele>530.25</ele><time>2026-04-12T09:28:45Z</time></trkpt><trkpt lat="43.34558978185431" lon="13.178286342202751"><ele>529.5</ele><time>2026-04-12T09:28:46Z</time></trkpt><trkpt lat="43.34570161759558" lon="13.178253835378175"><ele>528.75</ele><time>2026-04-12T09:28:47Z</time></trkpt><trkpt lat="43.345811095373044" lon="13.178233354191958"><ele>528.0</ele><time>2026-04-12T09:28:48Z</time></trkpt><trkpt lat="43.34591911342402" lon="13.178239945199463"><ele>528.0</ele><time>2026-04-12T09:28:49Z</time></trkpt><trkpt lat="43.34601218337285" lon="13.178291493499062"><ele>528.0</ele><time>2026-04-12T09:28:50Z</time></trkpt><trkpt lat="43.346068473189355" lon="13.178414693529735"><ele>528.0</ele><time>2026-04-12T09:28:51Z</time></trkpt><trkpt lat="43.346129686357976" lon="13.178541227028273"><ele>528.0</ele><time>2026-04-12T09:28:52Z</time></trkpt><trkpt lat="43.34620671366777" lon="13.178626477396381"><ele>528.0</ele><time>2026-04-12T09:28:53Z</time></trkpt><trkpt lat="43.34628936521382" lon="13.17870067733285"><ele>525.75</ele><time>2026-04-12T09:28:54Z</time></trkpt><trkpt lat="43.34638374493797" lon="13.178731351964554"><ele>523.5</ele><time>2026-04-12T09:28:55Z</time></trkpt><trkpt lat="43.34649543133875" lon="13.178689818041022"><ele>521.25</ele><time>2026-04-12T09:28:56Z</time></trkpt><trkpt lat="43.346623210950504" lon="13.178623493994463"><ele>519.0</ele><time>2026-04-12T09:28:57Z</time></trkpt><trkpt lat="43.34673496168806" lon="13.178538709514111"><ele>519.0</ele><time>2026-04-12T09:28:58Z</time></trkpt><trkpt lat="43.34686687331602" lon="13.17845386992737"><ele>519.0</ele><time>2026-04-12T09:28:59Z</time></trkpt><trkpt lat="43.34698746836801" lon="13.178359491767894"><ele>519.0</ele><time>2026-04-12T09:29:00Z</time></trkpt><trkpt lat="43.34710572514983" lon="13.178243721165694"><ele>519.0</ele><time>2026-04-12T09:29:01Z</time></trkpt><trkpt lat="43.34721181747535" lon="13.178103213905347"><ele>516.75</ele><time>2026-04-12T09:29:02Z</time></trkpt><trkpt lat="43.34729706276191" lon="13.177953814702468"><ele>514.5</ele><time>2026-04-12T09:29:03Z</time></trkpt><trkpt lat="43.347374013557264" lon="13.177806902313359"><ele>512.25</ele><time>2026-04-12T09:29:04Z</time></trkpt><trkpt lat="43.34744893006755" lon="13.177658322566192"><ele>510.0</ele><time>2026-04-12T09:29:05Z</time></trkpt><trkpt lat="43.34752556713857" lon="13.177524636351178"><ele>510.0</ele><time>2026-04-12T09:29:06Z</time></trkpt><trkpt lat="43.34760859661153" lon="13.177430382588865"><ele>510.0</ele><time>2026-04-12T09:29:07Z</time></trkpt><trkpt lat="43.347726202581555" lon="13.177412611280303"><ele>510.0</ele><time>2026-04-12T09:29:08Z</time></trkpt><trkpt lat="43.34783652624929" lon="13.177421673787851"><ele>510.0</ele><time>2026-04-12T09:29:09Z</time></trkpt><trkpt lat="43.34795202397165" lon="13.177417020348614"><ele>510.0</ele><time>2026-04-12T09:29:10Z</time></trkpt><trkpt lat="43.34805225824306" lon="13.17739170675143"><ele>510.0</ele><time>2026-04-12T09:29:11Z</time></trkpt><trkpt lat="43.348136783880285" lon="13.177347892142375"><ele>510.0</ele><time>2026-04-12T09:29:12Z</time></trkpt><trkpt lat="43.34819673151801" lon="13.17725456964051"><ele>510.0</ele><time>2026-04-12T09:29:13Z</time></trkpt><trkpt lat="43.34823963107192" lon="13.17711734041117"><ele>510.0</ele><time>2026-04-12T09:29:14Z</time></trkpt><trkpt lat="43.34826905830039" lon="13.17697555490339"><ele>507.2</ele><time>2026-04-12T09:29:15Z</time></trkpt><trkpt lat="43.34830643112873" lon="13.176844362484541"><ele>504.4</ele><time>2026-04-12T09:29:16Z</time></trkpt><trkpt lat="43.3483694151385" lon="13.176756407245467"><ele>501.6</ele><time>2026-04-12T09:29:17Z</time></trkpt><trkpt lat="43.34846307403183" lon="13.176732280486284"><ele>498.8</ele><time>2026-04-12T09:29:18Z</time></trkpt><trkpt lat="43.34855299989092" lon="13.176737330610866"><ele>496.0</ele><time>2026-04-12T09:29:19Z</time></trkpt><trkpt lat="43.348665383014605" lon="13.176743427742379"><ele>496.0</ele><time>2026-04-12T09:29:20Z</time></trkpt><trkpt lat="43.348785265294346" lon="13.17673144417544"><ele>496.0</ele><time>2026-04-12T09:29:21Z</time></trkpt><trkpt lat="43.34888769695913" lon="13.176729470379582"><ele>496.0</ele><time>2026-04-12T09:29:22Z</time></trkpt><trkpt lat="43.34898276681249" lon="13.176704661568964"><ele>496.0</ele><time>2026-04-12T09:29:23Z</time></trkpt><trkpt lat="43.34906816703628" lon="13.176644513305652"><ele>496.0</ele><time>2026-04-12T09:29:24Z</time></trkpt><trkpt lat="43.3491319141299" lon="13.176548580566358"><ele>493.5</ele><time>2026-04-12T09:29:25Z</time></trkpt><trkpt lat="43.349175636169356" lon="13.176405709368579"><ele>491.0</ele><time>2026-04-12T09:29:26Z</time></trkpt><trkpt lat="43.34919807026621" lon="13.176244513790879"><ele>488.5</ele><time>2026-04-12T09:29:27Z</time></trkpt><trkpt lat="43.349236837857525" lon="13.176100649467692"><ele>486.0</ele><time>2026-04-12T09:29:28Z</time></trkpt><trkpt lat="43.34932370099354" lon="13.175997964811833"><ele>486.0</ele><time>2026-04-12T09:29:29Z</time></trkpt><trkpt lat="43.34941484697874" lon="13.175883463486668"><ele>486.0</ele><time>2026-04-12T09:29:30Z</time></trkpt><trkpt lat="43.349501863395474" lon="13.175749764926378"><ele>486.0</ele><time>2026-04-12T09:29:31Z</time></trkpt><trkpt lat="43.349611028275646" lon="13.175632999734104"><ele>486.0</ele><time>2026-04-12T09:29:32Z</time></trkpt><trkpt lat="43.349708449026004" lon="13.17550832480385"><ele>484.8</ele><time>2026-04-12T09:29:33Z</time></trkpt><trkpt lat="43.34980657061326" lon="13.175400826471543"><ele>483.6</ele><time>2026-04-12T09:29:34Z</time></trkpt><trkpt lat="43.34989440289504" lon="13.175291307289674"><ele>482.4</ele><time>2026-04-12T09:29:35Z</time></trkpt><trkpt lat="43.34997761684218" lon="13.175226512168445"><ele>481.2</ele><time>2026-04-12T09:29:36Z</time></trkpt><trkpt lat="43.35006840184099" lon="13.175197157154093"><ele>480.0</ele><time>2026-04-12T09:29:37Z</time></trkpt><trkpt lat="43.35017383538165" lon="13.175226173130438"><ele>480.0</ele><time>2026-04-12T09:29:38Z</time></trkpt><trkpt lat="43.35028131650138" lon="13.175207502030753"><ele>480.0</ele><time>2026-04-12T09:29:39Z</time></trkpt><trkpt lat="43.350367686574465" lon="13.175118777765135"><ele>480.0</ele><time>2026-04-12T09:29:40Z</time></trkpt><trkpt lat="43.35045011095532" lon="13.174997069692798"><ele>480.0</ele><time>2026-04-12T09:29:41Z</time></trkpt><trkpt lat="43.35052835170816" lon="13.174845975305827"><ele>476.75</ele><time>2026-04-12T09:29:42Z</time></trkpt><trkpt lat="43.35061713222434" lon="13.17470523060497"><ele>473.5</ele><time>2026-04-12T09:29:43Z</time></trkpt><trkpt lat="43.35072973868319" lon="13.174621591748409"><ele>470.25</ele><time>2026-04-12T09:29:44Z</time></trkpt><trkpt lat="43.35084639537118" lon="13.174566134450748"><ele>467.0</ele><time>2026-04-12T09:29:45Z</time></trkpt><trkpt lat="43.350986311244384" lon="13.174543100931066"><ele>467.0</ele><time>2026-04-12T09:29:46Z</time></trkpt><trkpt lat="43.35113868235058" lon="13.17451990607893"><ele>467.0</ele><time>2026-04-12T09:29:47Z</time></trkpt><trkpt lat="43.35128343605979" lon="13.174475127143868"><ele>467.0</ele><time>2026-04-12T09:29:48Z</time></trkpt><trkpt lat="43.35141496407631" lon="13.174436504706696"><ele>467.0</ele><time>2026-04-12T09:29:49Z</time></trkpt><trkpt lat="43.3515452522391" lon="13.174372178210154"><ele>467.0</ele><time>2026-04-12T09:29:50Z</time></trkpt><trkpt lat="43.35167088228677" lon="13.174275312591632"><ele>467.0</ele><time>2026-04-12T09:29:51Z</time></trkpt><trkpt lat="43.351786104935464" lon="13.174168366372513"><ele>467.0</ele><time>2026-04-12T09:29:52Z</time></trkpt><trkpt lat="43.351892091733816" lon="13.174049957658985"><ele>467.0</ele><time>2026-04-12T09:29:53Z</time></trkpt><trkpt lat="43.3519927499785" lon="13.173926444200672"><ele>465.5</ele><time>2026-04-12T09:29:54Z</time></trkpt><trkpt lat="43.35209410796831" lon="13.17381331292883"><ele>464.0</ele><time>2026-04-12T09:29:55Z</time></trkpt><trkpt lat="43.352184199846675" lon="13.173686813568068"><ele>462.5</ele><time>2026-04-12T09:29:56Z</time></trkpt><trkpt lat="43.35226968645371" lon="13.173541304318164"><ele>461.0</ele><time>2026-04-12T09:29:57Z</time></trkpt><trkpt lat="43.35235329671083" lon="13.173393719134893"><ele>461.0</ele><time>2026-04-12T09:29:58Z</time></trkpt><trkpt lat="43.35243370004201" lon="13.17324827531056"><ele>461.0</ele><time>2026-04-12T09:29:59Z</time></trkpt><trkpt lat="43.352509626613305" lon="13.17310050066918"><ele>461.0</ele><time>2026-04-12T09:30:00Z</time></trkpt><trkpt lat="43.35257305684238" lon="13.172938005715036"><ele>461.0</ele><time>2026-04-12T09:30:01Z</time></trkpt><trkpt lat="43.352606469515074" lon="13.172773059349064"><ele>459.5</ele><time>2026-04-12T09:30:02Z</time></trkpt><trkpt lat="43.35262912789537" lon="13.172588229286509"><ele>458.0</ele><time>2026-04-12T09:30:03Z</time></trkpt><trkpt lat="43.35264216896272" lon="13.172401497958413"><ele>456.5</ele><time>2026-04-12T09:30:04Z</time></trkpt><trkpt lat="43.352654754347874" lon="13.1722176228224"><ele>455.0</ele><time>2026-04-12T09:30:05Z</time></trkpt><trkpt lat="43.35266784435652" lon="13.172047285435744"><ele>454.4</ele><time>2026-04-12T09:30:06Z</time></trkpt><trkpt lat="43.3526810959814" lon="13.171887945339206"><ele>453.8</ele><time>2026-04-12T09:30:07Z</time></trkpt><trkpt lat="43.35266488799423" lon="13.171732139932745"><ele>453.20000000000005</ele><time>2026-04-12T09:30:08Z</time></trkpt><trkpt lat="43.352625241029024" lon="13.17158732389653"><ele>452.6</ele><time>2026-04-12T09:30:09Z</time></trkpt><trkpt lat="43.35257400053131" lon="13.171484079729318"><ele>452.0</ele><time>2026-04-12T09:30:10Z</time></trkpt><trkpt lat="43.35252073869815" lon="13.171411348389613"><ele>451.6</ele><time>2026-04-12T09:30:11Z</time></trkpt><trkpt lat="43.35245024119085" lon="13.171343576847843"><ele>451.20000000000005</ele><time>2026-04-12T09:30:12Z</time></trkpt><trkpt lat="43.352365427522734" lon="13.171257929965908"><ele>450.8</ele><time>2026-04-12T09:30:13Z</time></trkpt><trkpt lat="43.3522809823349" lon="13.171150323941308"><ele>450.4</ele><time>2026-04-12T09:30:14Z</time></trkpt><trkpt lat="43.352203772787355" lon="13.171014849666584"><ele>450.0</ele><time>2026-04-12T09:30:15Z</time></trkpt><trkpt lat="43.35213569163129" lon="13.170892179415187"><ele>447.6</ele><time>2026-04-12T09:30:16Z</time></trkpt><trkpt lat="43.352076229761614" lon="13.170769953294913"><ele>445.2</ele><time>2026-04-12T09:30:17.001Z</time></trkpt><trkpt lat="43.352010471053305" lon="13.170661271604235"><ele>442.79999999999995</ele><time>2026-04-12T09:30:18.001Z</time></trkpt><trkpt lat="43.351942937980986" lon="13.170556950285421"><ele>440.4</ele><time>2026-04-12T09:30:19.001Z</time></trkpt><trkpt lat="43.35187817891176" lon="13.170451230777143"><ele>438.0</ele><time>2026-04-12T09:30:20.001Z</time></trkpt><trkpt lat="43.35182038654949" lon="13.170339974148508"><ele>438.0</ele><time>2026-04-12T09:30:21.001Z</time></trkpt><trkpt lat="43.351778659732894" lon="13.170211410565948"><ele>438.0</ele><time>2026-04-12T09:30:22.001Z</time></trkpt><trkpt lat="43.351750509261805" lon="13.170048368204078"><ele>438.0</ele><time>2026-04-12T09:30:23.001Z</time></trkpt><trkpt lat="43.35173183432762" lon="13.169876621281743"><ele>438.0</ele><time>2026-04-12T09:30:24.001Z</time></trkpt><trkpt lat="43.35171002334769" lon="13.169699432749368"><ele>437.25</ele><time>2026-04-12T09:30:25.001Z</time></trkpt><trkpt lat="43.3516667561782" lon="13.169515594486391"><ele>436.5</ele><time>2026-04-12T09:30:26.001Z</time></trkpt><trkpt lat="43.35160847392157" lon="13.169342915185513"><ele>435.75</ele><time>2026-04-12T09:30:27.001Z</time></trkpt><trkpt lat="43.351542433497514" lon="13.169179832476514"><ele>435.0</ele><time>2026-04-12T09:30:28.001Z</time></trkpt><trkpt lat="43.351481880752026" lon="13.16903522918884"><ele>433.6</ele><time>2026-04-12T09:30:29.001Z</time></trkpt><trkpt lat="43.35143706702574" lon="13.1688954914177"><ele>432.2</ele><time>2026-04-12T09:30:30.001Z</time></trkpt><trkpt lat="43.35140929703475" lon="13.168742867218654"><ele>430.79999999999995</ele><time>2026-04-12T09:30:31.001Z</time></trkpt><trkpt lat="43.35140091098272" lon="13.16859439451733"><ele>429.4</ele><time>2026-04-12T09:30:32.001Z</time></trkpt><trkpt lat="43.351399011697346" lon="13.168448184576704"><ele>428.0</ele><time>2026-04-12T09:30:33.001Z</time></trkpt><trkpt lat="43.351394679378096" lon="13.168310608898675"><ele>428.79999999999995</ele><time>2026-04-12T09:30:34.001Z</time></trkpt><trkpt lat="43.35136550228732" lon="13.168190241420557"><ele>429.59999999999997</ele><time>2026-04-12T09:30:35.001Z</time></trkpt><trkpt lat="43.35131505534231" lon="13.16807023244036"><ele>430.40000000000003</ele><time>2026-04-12T09:30:36.001Z</time></trkpt><trkpt lat="43.351260622794975" lon="13.16795852703653"><ele>431.20000000000005</ele><time>2026-04-12T09:30:37.001Z</time></trkpt><trkpt lat="43.35122056529102" lon="13.167842479524769"><ele>432.0</ele><time>2026-04-12T09:30:38Z</time></trkpt><trkpt lat="43.35119332627701" lon="13.167716306745174"><ele>432.0</ele><time>2026-04-12T09:30:39Z</time></trkpt><trkpt lat="43.351176912443535" lon="13.167584434359082"><ele>432.00000000000006</ele><time>2026-04-12T09:30:40Z</time></trkpt><trkpt lat="43.35116904343097" lon="13.16743371189427"><ele>432.00000000000006</ele><time>2026-04-12T09:30:41Z</time></trkpt><trkpt lat="43.35116116214509" lon="13.16728342312819"><ele>432.0</ele><time>2026-04-12T09:30:42Z</time></trkpt><trkpt lat="43.35115077778943" lon="13.16713257198098"><ele>432.0</ele><time>2026-04-12T09:30:43Z</time></trkpt><trkpt lat="43.35112332672488" lon="13.166990382536927"><ele>430.0</ele><time>2026-04-12T09:30:44Z</time></trkpt><trkpt lat="43.35107412400603" lon="13.16686794780381"><ele>428.00000000000006</ele><time>2026-04-12T09:30:45Z</time></trkpt><trkpt lat="43.35100043871892" lon="13.166769712420702"><ele>426.0</ele><time>2026-04-12T09:30:46Z</time></trkpt><trkpt lat="43.35090542224412" lon="13.166687092494092"><ele>424.0</ele><time>2026-04-12T09:30:47Z</time></trkpt><trkpt lat="43.3508138875835" lon="13.166594333378308"><ele>422.0</ele><time>2026-04-12T09:30:48Z</time></trkpt><trkpt lat="43.350733746851795" lon="13.166484378330265"><ele>418.6</ele><time>2026-04-12T09:30:49Z</time></trkpt><trkpt lat="43.35066718582018" lon="13.166361882846827"><ele>415.20000000000005</ele><time>2026-04-12T09:30:50Z</time></trkpt><trkpt lat="43.35061711836771" lon="13.16622028202456"><ele>411.8</ele><time>2026-04-12T09:30:51Z</time></trkpt><trkpt lat="43.35058775343796" lon="13.166075094217934"><ele>408.4</ele><time>2026-04-12T09:30:52Z</time></trkpt><trkpt lat="43.350571234253465" lon="13.165921258125179"><ele>405.0</ele><time>2026-04-12T09:30:53Z</time></trkpt><trkpt lat="43.350543037697356" lon="13.165786843511281"><ele>406.0</ele><time>2026-04-12T09:30:54Z</time></trkpt><trkpt lat="43.35049159870089" lon="13.165672675538179"><ele>407.0</ele><time>2026-04-12T09:30:55Z</time></trkpt><trkpt lat="43.35041687647368" lon="13.165588102946241"><ele>408.0</ele><time>2026-04-12T09:30:56Z</time></trkpt><trkpt lat="43.35032908958144" lon="13.165528697284167"><ele>409.0</ele><time>2026-04-12T09:30:57Z</time></trkpt><trkpt lat="43.35024001981215" lon="13.165464458915821"><ele>410.0</ele><time>2026-04-12T09:30:58Z</time></trkpt><trkpt lat="43.35016886548218" lon="13.165381415947541"><ele>410.0</ele><time>2026-04-12T09:30:59Z</time></trkpt><trkpt lat="43.350123076614594" lon="13.165265346676343"><ele>410.0</ele><time>2026-04-12T09:31:00Z</time></trkpt><trkpt lat="43.35011158103704" lon="13.165110348663056"><ele>410.0</ele><time>2026-04-12T09:31:01Z</time></trkpt><trkpt lat="43.350133478531056" lon="13.164959572999964"><ele>410.0</ele><time>2026-04-12T09:31:02Z</time></trkpt><trkpt lat="43.350161062909635" lon="13.164817878466689"><ele>410.0</ele><time>2026-04-12T09:31:03Z</time></trkpt><trkpt lat="43.35016192949737" lon="13.16466248547958"><ele>407.0</ele><time>2026-04-12T09:31:04Z</time></trkpt><trkpt lat="43.35012158154471" lon="13.164504162031005"><ele>404.0</ele><time>2026-04-12T09:31:05Z</time></trkpt><trkpt lat="43.35004828672262" lon="13.164342498335126"><ele>401.0</ele><time>2026-04-12T09:31:06Z</time></trkpt><trkpt lat="43.34998269489613" lon="13.164178608553607"><ele>398.0</ele><time>2026-04-12T09:31:07Z</time></trkpt><trkpt lat="43.34993386315939" lon="13.164015156318346"><ele>396.0</ele><time>2026-04-12T09:31:08Z</time></trkpt><trkpt lat="43.34989885133584" lon="13.163843679556411"><ele>394.0</ele><time>2026-04-12T09:31:09Z</time></trkpt><trkpt lat="43.34987871127863" lon="13.16365768588262"><ele>392.0</ele><time>2026-04-12T09:31:10Z</time></trkpt><trkpt lat="43.34986387717746" lon="13.163478253434002"><ele>390.0</ele><time>2026-04-12T09:31:11Z</time></trkpt><trkpt lat="43.34985988742259" lon="13.163290775320998"><ele>388.75</ele><time>2026-04-12T09:31:12Z</time></trkpt><trkpt lat="43.349856052754944" lon="13.163098290121544"><ele>387.5</ele><time>2026-04-12T09:31:13Z</time></trkpt><trkpt lat="43.34985244209455" lon="13.162910719002957"><ele>386.25</ele><time>2026-04-12T09:31:14Z</time></trkpt><trkpt lat="43.349848606577375" lon="13.162726271267614"><ele>385.0</ele><time>2026-04-12T09:31:15Z</time></trkpt><trkpt lat="43.349841520496156" lon="13.162543542112983"><ele>383.75</ele><time>2026-04-12T09:31:16Z</time></trkpt><trkpt lat="43.349835545597216" lon="13.162359635199051"><ele>382.5</ele><time>2026-04-12T09:31:17Z</time></trkpt><trkpt lat="43.349821825246835" lon="13.16216118285373"><ele>381.25</ele><time>2026-04-12T09:31:18Z</time></trkpt><trkpt lat="43.349796304195365" lon="13.161970893432096"><ele>380.0</ele><time>2026-04-12T09:31:19Z</time></trkpt><trkpt lat="43.34976721393157" lon="13.161779896196249"><ele>380.0</ele><time>2026-04-12T09:31:20Z</time></trkpt><trkpt lat="43.349738697058925" lon="13.161598545766587"><ele>380.0</ele><time>2026-04-12T09:31:21Z</time></trkpt><trkpt lat="43.34970740910544" lon="13.161405452434499"><ele>380.0</ele><time>2026-04-12T09:31:22Z</time></trkpt><trkpt lat="43.34967603781021" lon="13.161222496479612"><ele>380.0</ele><time>2026-04-12T09:31:23Z</time></trkpt><trkpt lat="43.349648556970934" lon="13.161039022295414"><ele>381.25</ele><time>2026-04-12T09:31:24Z</time></trkpt><trkpt lat="43.34962145126765" lon="13.160857678900516"><ele>382.5</ele><time>2026-04-12T09:31:25Z</time></trkpt><trkpt lat="43.34960442433674" lon="13.160688165812283"><ele>383.75</ele><time>2026-04-12T09:31:26Z</time></trkpt><trkpt lat="43.349606578150784" lon="13.160503288551606"><ele>385.0</ele><time>2026-04-12T09:31:27Z</time></trkpt><trkpt lat="43.34963995494828" lon="13.160315049724518"><ele>385.0</ele><time>2026-04-12T09:31:28Z</time></trkpt><trkpt lat="43.349694271758835" lon="13.160130237765935"><ele>385.0</ele><time>2026-04-12T09:31:29Z</time></trkpt><trkpt lat="43.34975393646832" lon="13.159953192824654"><ele>385.0</ele><time>2026-04-12T09:31:30Z</time></trkpt><trkpt lat="43.349811345019546" lon="13.159793455122932"><ele>385.0</ele><time>2026-04-12T09:31:31Z</time></trkpt><trkpt lat="43.34986265166469" lon="13.159645629012106"><ele>381.2</ele><time>2026-04-12T09:31:32Z</time></trkpt><trkpt lat="43.34988848904528" lon="13.159502920931065"><ele>377.4</ele><time>2026-04-12T09:31:33Z</time></trkpt><trkpt lat="43.34989409744413" lon="13.159368177265952"><ele>373.6</ele><time>2026-04-12T09:31:34Z</time></trkpt><trkpt lat="43.3498723045064" lon="13.159233237853261"><ele>369.8</ele><time>2026-04-12T09:31:35Z</time></trkpt><trkpt lat="43.34982058633919" lon="13.15913558569656"><ele>366.0</ele><time>2026-04-12T09:31:36Z</time></trkpt><trkpt lat="43.34974278911645" lon="13.159069145768045"><ele>367.5</ele><time>2026-04-12T09:31:37Z</time></trkpt><trkpt lat="43.349646077456356" lon="13.159017956421987"><ele>369.0</ele><time>2026-04-12T09:31:38Z</time></trkpt><trkpt lat="43.34952497230035" lon="13.159006108288501"><ele>370.5</ele><time>2026-04-12T09:31:39Z</time></trkpt><trkpt lat="43.34939729653472" lon="13.159036713061022"><ele>372.0</ele><time>2026-04-12T09:31:40Z</time></trkpt><trkpt lat="43.34926913037157" lon="13.159066320851359"><ele>372.0</ele><time>2026-04-12T09:31:41Z</time></trkpt><trkpt lat="43.3491353104936" lon="13.159039322835868"><ele>372.0</ele><time>2026-04-12T09:31:42Z</time></trkpt><trkpt lat="43.34901177208827" lon="13.159010411052824"><ele>372.0</ele><time>2026-04-12T09:31:43Z</time></trkpt><trkpt lat="43.34887534385322" lon="13.15899718234131"><ele>372.0</ele><time>2026-04-12T09:31:44Z</time></trkpt><trkpt lat="43.34876424675658" lon="13.158957141461427"><ele>367.8333333333333</ele><time>2026-04-12T09:31:45Z</time></trkpt><trkpt lat="43.348678700138024" lon="13.158922463364696"><ele>363.6666666666667</ele><time>2026-04-12T09:31:46Z</time></trkpt><trkpt lat="43.34861602120214" lon="13.158898599946355"><ele>359.5</ele><time>2026-04-12T09:31:47Z</time></trkpt><trkpt lat="43.34857238960412" lon="13.158821082350583"><ele>355.33333333333337</ele><time>2026-04-12T09:31:49Z</time></trkpt><trkpt lat="43.34865584236227" lon="13.15871987866337"><ele>351.1666666666667</ele><time>2026-04-12T09:31:51Z</time></trkpt><trkpt lat="43.348733060937064" lon="13.15872120458432"><ele>347.0</ele><time>2026-04-12T09:31:52Z</time></trkpt><trkpt lat="43.34881958397907" lon="13.158690340291878"><ele>346.1666666666667</ele><time>2026-04-12T09:31:53Z</time></trkpt><trkpt lat="43.3489201870213" lon="13.158610359493197"><ele>345.33333333333337</ele><time>2026-04-12T09:31:54Z</time></trkpt><trkpt lat="43.34896096777916" lon="13.158522638404222"><ele>344.5</ele><time>2026-04-12T09:31:55Z</time></trkpt><trkpt lat="43.34902145437068" lon="13.158435674005272"><ele>343.6666666666667</ele><time>2026-04-12T09:31:56Z</time></trkpt><trkpt lat="43.349049026208085" lon="13.158337780713175"><ele>342.8333333333333</ele><time>2026-04-12T09:31:57Z</time></trkpt><trkpt lat="43.34906948458462" lon="13.158226840829474"><ele>342.0</ele><time>2026-04-12T09:31:58Z</time></trkpt><trkpt lat="43.3490702229548" lon="13.158117915197609"><ele>342.0</ele><time>2026-04-12T09:31:59Z</time></trkpt><trkpt lat="43.34905883983965" lon="13.158014687080836"><ele>342.0</ele><time>2026-04-12T09:32:00Z</time></trkpt><trkpt lat="43.349045461371524" lon="13.157920136010523"><ele>342.0</ele><time>2026-04-12T09:32:01Z</time></trkpt><trkpt lat="43.34902747423444" lon="13.157821139208473"><ele>342.0</ele><time>2026-04-12T09:32:02Z</time></trkpt><trkpt lat="43.34900415205886" lon="13.157716914929754"><ele>342.0</ele><time>2026-04-12T09:32:03Z</time></trkpt><trkpt lat="43.348978751202765" lon="13.157613126883607"><ele>342.0</ele><time>2026-04-12T09:32:04Z</time></trkpt><trkpt lat="43.34895239263517" lon="13.15751847037857"><ele>342.0</ele><time>2026-04-12T09:32:05Z</time></trkpt><trkpt lat="43.34892329424152" lon="13.157410573142624"><ele>342.0</ele><time>2026-04-12T09:32:06Z</time></trkpt><trkpt lat="43.348894274842664" lon="13.157292876116182"><ele>342.0</ele><time>2026-04-12T09:32:07Z</time></trkpt><trkpt lat="43.34887087015011" lon="13.15718442727227"><ele>342.0</ele><time>2026-04-12T09:32:08Z</time></trkpt><trkpt lat="43.34885573935644" lon="13.157072372189134"><ele>342.0</ele><time>2026-04-12T09:32:09Z</time></trkpt><trkpt lat="43.3488364358326" lon="13.156948871899857"><ele>342.0</ele><time>2026-04-12T09:32:10Z</time></trkpt><trkpt lat="43.348827638274415" lon="13.156816911168733"><ele>340.20000000000005</ele><time>2026-04-12T09:32:11Z</time></trkpt><trkpt lat="43.348821688458344" lon="13.156680312303559"><ele>338.4</ele><time>2026-04-12T09:32:12Z</time></trkpt><trkpt lat="43.348822230222105" lon="13.156530824961118"><ele>336.6</ele><time>2026-04-12T09:32:13Z</time></trkpt><trkpt lat="43.34883120922929" lon="13.156378961007684"><ele>334.79999999999995</ele><time>2026-04-12T09:32:14Z</time></trkpt><trkpt lat="43.348848017194186" lon="13.156218992502797"><ele>333.0</ele><time>2026-04-12T09:32:15Z</time></trkpt><trkpt lat="43.34887106305416" lon="13.156063871438986"><ele>332.5</ele><time>2026-04-12T09:32:16Z</time></trkpt><trkpt lat="43.348904946404716" lon="13.155902974290745"><ele>332.0</ele><time>2026-04-12T09:32:17Z</time></trkpt><trkpt lat="43.348947181320696" lon="13.155746430593096"><ele>331.5</ele><time>2026-04-12T09:32:18Z</time></trkpt><trkpt lat="43.34899343514773" lon="13.15559420491967"><ele>331.0</ele><time>2026-04-12T09:32:19.001Z</time></trkpt><trkpt lat="43.34903553160909" lon="13.155439753592306"><ele>332.0</ele><time>2026-04-12T09:32:20.001Z</time></trkpt><trkpt lat="43.34907686297516" lon="13.155282362529942"><ele>333.0</ele><time>2026-04-12T09:32:21.001Z</time></trkpt><trkpt lat="43.34911668571403" lon="13.155122781899916"><ele>334.0</ele><time>2026-04-12T09:32:22.001Z</time></trkpt><trkpt lat="43.34915717093164" lon="13.154966842545806"><ele>335.0</ele><time>2026-04-12T09:32:23.001Z</time></trkpt><trkpt lat="43.34919841545227" lon="13.154813768919764"><ele>337.0</ele><time>2026-04-12T09:32:24.001Z</time></trkpt><trkpt lat="43.34926392361531" lon="13.154676968004662"><ele>339.0</ele><time>2026-04-12T09:32:25.001Z</time></trkpt><trkpt lat="43.34932368713989" lon="13.154541558116417"><ele>341.0</ele><time>2026-04-12T09:32:26.001Z</time></trkpt><trkpt lat="43.349396418387514" lon="13.154417889981119"><ele>343.0</ele><time>2026-04-12T09:32:27.001Z</time></trkpt><trkpt lat="43.34947955063135" lon="13.154311522794078"><ele>343.0</ele><time>2026-04-12T09:32:28.001Z</time></trkpt><trkpt lat="43.349573735863764" lon="13.154216046964752"><ele>343.0</ele><time>2026-04-12T09:32:29.001Z</time></trkpt><trkpt lat="43.34967166292371" lon="13.154137356423691"><ele>343.0</ele><time>2026-04-12T09:32:30.001Z</time></trkpt><trkpt lat="43.34977206538646" lon="13.154072206097887"><ele>343.0</ele><time>2026-04-12T09:32:31.001Z</time></trkpt><trkpt lat="43.34987428077996" lon="13.154023443741341"><ele>346.4</ele><time>2026-04-12T09:32:32.001Z</time></trkpt><trkpt lat="43.34997776962605" lon="13.153990608720763"><ele>349.79999999999995</ele><time>2026-04-12T09:32:33.001Z</time></trkpt><trkpt lat="43.35007819712658" lon="13.153967423951588"><ele>353.2</ele><time>2026-04-12T09:32:34.001Z</time></trkpt><trkpt lat="43.350170671558246" lon="13.15395624529447"><ele>356.6</ele><time>2026-04-12T09:32:35.001Z</time></trkpt><trkpt lat="43.350250975666725" lon="13.153935679317128"><ele>360.0</ele><time>2026-04-12T09:32:36.001Z</time></trkpt><trkpt lat="43.350338968860015" lon="13.153930506961425"><ele>360.0</ele><time>2026-04-12T09:32:37.001Z</time></trkpt><trkpt lat="43.350424785377406" lon="13.153909331711953"><ele>360.0</ele><time>2026-04-12T09:32:38.001Z</time></trkpt><trkpt lat="43.35050198600406" lon="13.1538734863557"><ele>360.0</ele><time>2026-04-12T09:32:39.001Z</time></trkpt><trkpt lat="43.35056055044491" lon="13.153817921060478"><ele>360.0</ele><time>2026-04-12T09:32:40.001Z</time></trkpt><trkpt lat="43.35061502447709" lon="13.153698580632962"><ele>360.0</ele><time>2026-04-12T09:32:42.001Z</time></trkpt><trkpt lat="43.350629165851814" lon="13.153590961703177"><ele>360.0</ele><time>2026-04-12T09:34:16.001Z</time></trkpt><trkpt lat="43.35057481460017" lon="13.1534745115821"><ele>360.0</ele><time>2026-04-12T09:34:18.001Z</time></trkpt><trkpt lat="43.35052738392476" lon="13.153417364904705"><ele>360.0</ele><time>2026-04-12T09:34:19.001Z</time></trkpt><trkpt lat="43.350473745223354" lon="13.153367807702354"><ele>360.0</ele><time>2026-04-12T09:34:20.001Z</time></trkpt><trkpt lat="43.3504015007763" lon="13.15333611137565"><ele>360.0</ele><time>2026-04-12T09:34:21.001Z</time></trkpt><trkpt lat="43.35030642835007" lon="13.153330688806918"><ele>360.0</ele><time>2026-04-12T09:34:22.001Z</time></trkpt><trkpt lat="43.3502089246832" lon="13.153353279701586"><ele>360.0</ele><time>2026-04-12T09:34:23.001Z</time></trkpt><trkpt lat="43.350099541591646" lon="13.153385687150942"><ele>360.0</ele><time>2026-04-12T09:34:24.001Z</time></trkpt><trkpt lat="43.35000353031079" lon="13.153411896147922"><ele>360.0</ele><time>2026-04-12T09:34:25.001Z</time></trkpt><trkpt lat="43.349919931735165" lon="13.153420472834181"><ele>360.0</ele><time>2026-04-12T09:34:26.001Z</time></trkpt><trkpt lat="43.349847656963455" lon="13.153394003904461"><ele>360.0</ele><time>2026-04-12T09:34:27.001Z</time></trkpt><trkpt lat="43.34979356930699" lon="13.1533306498755"><ele>360.0</ele><time>2026-04-12T09:34:28.001Z</time></trkpt><trkpt lat="43.34977101825629" lon="13.153239853791058"><ele>360.0</ele><time>2026-04-12T09:34:29.001Z</time></trkpt><trkpt lat="43.34977852266189" lon="13.15311764998734"><ele>363.25</ele><time>2026-04-12T09:34:30.001Z</time></trkpt><trkpt lat="43.349833640977906" lon="13.152988953076335"><ele>366.5</ele><time>2026-04-12T09:34:31.001Z</time></trkpt><trkpt lat="43.34988161854401" lon="13.152841512729152"><ele>369.75</ele><time>2026-04-12T09:34:32.001Z</time></trkpt><trkpt lat="43.34991084289302" lon="13.152684535793783"><ele>373.0</ele><time>2026-04-12T09:34:33.001Z</time></trkpt><trkpt lat="43.3499343167424" lon="13.152532317113865"><ele>374.5</ele><time>2026-04-12T09:34:34.001Z</time></trkpt><trkpt lat="43.3499254653075" lon="13.152366845950208"><ele>376.0</ele><time>2026-04-12T09:34:35.001Z</time></trkpt><trkpt lat="43.34988319951127" lon="13.15220829083333"><ele>377.5</ele><time>2026-04-12T09:34:36.001Z</time></trkpt><trkpt lat="43.349818477694136" lon="13.152053014766954"><ele>379.0</ele><time>2026-04-12T09:34:37.001Z</time></trkpt><trkpt lat="43.34976143228644" lon="13.15189243788458"><ele>379.0</ele><time>2026-04-12T09:34:38.001Z</time></trkpt><trkpt lat="43.349747787987255" lon="13.151721027689415"><ele>379.0</ele><time>2026-04-12T09:34:39.001Z</time></trkpt><trkpt lat="43.34974665074505" lon="13.151580085551632"><ele>379.0</ele><time>2026-04-12T09:34:40.001Z</time></trkpt><trkpt lat="43.34974315651257" lon="13.151444064576731"><ele>379.0</ele><time>2026-04-12T09:34:41.001Z</time></trkpt><trkpt lat="43.34979013110843" lon="13.15132464553264"><ele>379.0</ele><time>2026-04-12T09:34:42.001Z</time></trkpt><trkpt lat="43.34989046475201" lon="13.151254715635572"><ele>379.0</ele><time>2026-04-12T09:34:43.001Z</time></trkpt><trkpt lat="43.349988049433335" lon="13.15117794622297"><ele>379.0</ele><time>2026-04-12T09:34:44.001Z</time></trkpt><trkpt lat="43.35009489545228" lon="13.151092822288959"><ele>379.0</ele><time>2026-04-12T09:34:45.001Z</time></trkpt><trkpt lat="43.350194568186986" lon="13.150980938533518"><ele>379.0</ele><time>2026-04-12T09:34:46.001Z</time></trkpt><trkpt lat="43.350317993034665" lon="13.150884058354539"><ele>379.0</ele><time>2026-04-12T09:34:47.001Z</time></trkpt><trkpt lat="43.35043761600367" lon="13.150788319191438"><ele>379.0</ele><time>2026-04-12T09:34:48.001Z</time></trkpt><trkpt lat="43.35053432775721" lon="13.150706172496134"><ele>379.0</ele><time>2026-04-12T09:34:49Z</time></trkpt><trkpt lat="43.350615135123824" lon="13.150621099997462"><ele>379.0</ele><time>2026-04-12T09:34:50Z</time></trkpt><trkpt lat="43.350658061632465" lon="13.150526555250957"><ele>379.0</ele><time>2026-04-12T09:34:51Z</time></trkpt><trkpt lat="43.350671447834124" lon="13.150400511381985"><ele>383.0</ele><time>2026-04-12T09:34:52Z</time></trkpt><trkpt lat="43.350667022235946" lon="13.15023992411493"><ele>387.0</ele><time>2026-04-12T09:34:53Z</time></trkpt><trkpt lat="43.35065563904635" lon="13.150065075360676"><ele>391.0</ele><time>2026-04-12T09:34:54Z</time></trkpt><trkpt lat="43.350643597652905" lon="13.149887448130512"><ele>395.0</ele><time>2026-04-12T09:34:55Z</time></trkpt><trkpt lat="43.3506474501922" lon="13.149701457726792"><ele>395.5</ele><time>2026-04-12T09:34:56Z</time></trkpt><trkpt lat="43.35065525477932" lon="13.149514935488865"><ele>396.0</ele><time>2026-04-12T09:34:57Z</time></trkpt><trkpt lat="43.35068270001628" lon="13.149314356285025"><ele>396.5</ele><time>2026-04-12T09:34:58Z</time></trkpt><trkpt lat="43.35070153186588" lon="13.149132652646742"><ele>397.0</ele><time>2026-04-12T09:34:59Z</time></trkpt><trkpt lat="43.35071627456207" lon="13.148984637882995"><ele>398.5</ele><time>2026-04-12T09:35:00Z</time></trkpt><trkpt lat="43.350714693403674" lon="13.148822860823165"><ele>400.0</ele><time>2026-04-12T09:35:01Z</time></trkpt><trkpt lat="43.35068634409409" lon="13.14864961232108"><ele>401.5</ele><time>2026-04-12T09:35:02Z</time></trkpt><trkpt lat="43.35064964753799" lon="13.14847752712926"><ele>403.0</ele><time>2026-04-12T09:35:03Z</time></trkpt><trkpt lat="43.350617285510694" lon="13.148317320056186"><ele>404.00000000000006</ele><time>2026-04-12T09:35:04Z</time></trkpt><trkpt lat="43.35059805838619" lon="13.148190114033465"><ele>405.0</ele><time>2026-04-12T09:35:05Z</time></trkpt><trkpt lat="43.35059234016398" lon="13.148091235256217"><ele>406.0</ele><time>2026-04-12T09:35:06Z</time></trkpt><trkpt lat="43.35062503011622" lon="13.147976088908226"><ele>407.0</ele><time>2026-04-12T09:35:08Z</time></trkpt><trkpt lat="43.350694504035" lon="13.14798802319354"><ele>408.00000000000006</ele><time>2026-04-12T09:35:11Z</time></trkpt><trkpt lat="43.35077061686091" lon="13.148027433726735"><ele>409.0</ele><time>2026-04-12T09:35:13Z</time></trkpt><trkpt lat="43.35083998756504" lon="13.148063903774334"><ele>409.0</ele><time>2026-04-12T09:35:14Z</time></trkpt><trkpt lat="43.35091824184909" lon="13.148105268266963"><ele>409.0</ele><time>2026-04-12T09:35:15Z</time></trkpt><trkpt lat="43.35098832477899" lon="13.148141807228667"><ele>409.0</ele><time>2026-04-12T09:35:16Z</time></trkpt><trkpt lat="43.35108191236149" lon="13.1481975513955"><ele>409.0</ele><time>2026-04-12T09:35:17Z</time></trkpt><trkpt lat="43.35118256771318" lon="13.14826708602685"><ele>409.0</ele><time>2026-04-12T09:35:18Z</time></trkpt><trkpt lat="43.35127090498758" lon="13.148333825943183"><ele>407.79999999999995</ele><time>2026-04-12T09:35:19Z</time></trkpt><trkpt lat="43.351358530834425" lon="13.14839515723849"><ele>406.59999999999997</ele><time>2026-04-12T09:35:20Z</time></trkpt><trkpt lat="43.351416382176495" lon="13.148482594149629"><ele>405.4</ele><time>2026-04-12T09:35:21Z</time></trkpt><trkpt lat="43.35142235449151" lon="13.148582829678986"><ele>404.2</ele><time>2026-04-12T09:35:22Z</time></trkpt><trkpt lat="43.35141531362459" lon="13.14868254851574"><ele>403.0</ele><time>2026-04-12T09:35:23Z</time></trkpt><trkpt lat="43.35141907596292" lon="13.148936916900107"><ele>406.0</ele><time>2026-04-12T09:35:25Z</time></trkpt><trkpt lat="43.35142065980515" lon="13.149056023176389"><ele>409.0</ele><time>2026-04-12T09:35:26Z</time></trkpt><trkpt lat="43.35143871206773" lon="13.14920502038471"><ele>412.0</ele><time>2026-04-12T09:35:28Z</time></trkpt><trkpt lat="43.3514803960563" lon="13.149295085378105"><ele>415.0</ele><time>2026-04-12T09:35:30Z</time></trkpt><trkpt lat="43.351597000551074" lon="13.14925242099917"><ele>418.0</ele><time>2026-04-12T09:35:32Z</time></trkpt><trkpt lat="43.351641547183924" lon="13.149042663596338"><ele>417.59999999999997</ele><time>2026-04-12T09:35:34Z</time></trkpt><trkpt lat="43.35170017726996" lon="13.148945833840923"><ele>417.2</ele><time>2026-04-12T09:35:35Z</time></trkpt><trkpt lat="43.35176246380144" lon="13.148828630798572"><ele>416.8</ele><time>2026-04-12T09:35:36Z</time></trkpt><trkpt lat="43.351825354322266" lon="13.148703845130399"><ele>416.4</ele><time>2026-04-12T09:35:37Z</time></trkpt><trkpt lat="43.35190441416531" lon="13.148602300003642"><ele>416.0</ele><time>2026-04-12T09:35:38Z</time></trkpt><trkpt lat="43.35199297761045" lon="13.148500038305505"><ele>416.0</ele><time>2026-04-12T09:35:39Z</time></trkpt><trkpt lat="43.35208287660807" lon="13.148385959183193"><ele>416.0</ele><time>2026-04-12T09:35:40Z</time></trkpt><trkpt lat="43.35218942738711" lon="13.148293871391745"><ele>416.0</ele><time>2026-04-12T09:35:41Z</time></trkpt><trkpt lat="43.3522883199815" lon="13.148189845267742"><ele>416.0</ele><time>2026-04-12T09:35:42Z</time></trkpt><trkpt lat="43.35238247757029" lon="13.148081464166443"><ele>418.16666666666663</ele><time>2026-04-12T09:35:43Z</time></trkpt><trkpt lat="43.35246741255192" lon="13.14799903523894"><ele>420.3333333333333</ele><time>2026-04-12T09:35:44Z</time></trkpt><trkpt lat="43.35253470487428" lon="13.14793834957828"><ele>422.5</ele><time>2026-04-12T09:35:45Z</time></trkpt><trkpt lat="43.35258810687178" lon="13.147873267591027"><ele>424.66666666666663</ele><time>2026-04-12T09:35:46Z</time></trkpt><trkpt lat="43.35261865505423" lon="13.147789926352816"><ele>426.8333333333333</ele><time>2026-04-12T09:35:47Z</time></trkpt><trkpt lat="43.35263048131908" lon="13.14768028458255"><ele>429.0</ele><time>2026-04-12T09:35:48Z</time></trkpt><trkpt lat="43.352620057090476" lon="13.147560476054409"><ele>429.0</ele><time>2026-04-12T09:35:49Z</time></trkpt><trkpt lat="43.35257949956671" lon="13.147446967714906"><ele>429.0</ele><time>2026-04-12T09:35:50Z</time></trkpt><trkpt lat="43.35251742376935" lon="13.147340974643136"><ele>429.0</ele><time>2026-04-12T09:35:51Z</time></trkpt><trkpt lat="43.352443664502125" lon="13.147242175722916"><ele>429.0</ele><time>2026-04-12T09:35:52Z</time></trkpt><trkpt lat="43.35235786705653" lon="13.147141901141158"><ele>429.0</ele><time>2026-04-12T09:35:53Z</time></trkpt><trkpt lat="43.35227651696116" lon="13.147047075103455"><ele>429.6</ele><time>2026-04-12T09:35:54Z</time></trkpt><trkpt lat="43.352202862584925" lon="13.146948326131318"><ele>430.2</ele><time>2026-04-12T09:35:55Z</time></trkpt><trkpt lat="43.352138041414655" lon="13.146838226655284"><ele>430.80000000000007</ele><time>2026-04-12T09:35:56Z</time></trkpt><trkpt lat="43.35208363223417" lon="13.14672882793843"><ele>431.40000000000003</ele><time>2026-04-12T09:35:57Z</time></trkpt><trkpt lat="43.35205062717209" lon="13.146613365184766"><ele>432.0</ele><time>2026-04-12T09:35:58Z</time></trkpt><trkpt lat="43.35203645509846" lon="13.146488313600386"><ele>433.40000000000003</ele><time>2026-04-12T09:35:59Z</time></trkpt><trkpt lat="43.352033051456246" lon="13.146353852136698"><ele>434.80000000000007</ele><time>2026-04-12T09:36:00Z</time></trkpt><trkpt lat="43.352053579192344" lon="13.146201366123623"><ele>436.2</ele><time>2026-04-12T09:36:01.001Z</time></trkpt><trkpt lat="43.352060987093445" lon="13.146081715048854"><ele>437.6</ele><time>2026-04-12T09:36:02.001Z</time></trkpt><trkpt lat="43.352083228485355" lon="13.145945080135002"><ele>439.0</ele><time>2026-04-12T09:36:03.001Z</time></trkpt><trkpt lat="43.35211328604753" lon="13.145809932294776"><ele>440.2</ele><time>2026-04-12T09:36:04.001Z</time></trkpt><trkpt lat="43.3521481006938" lon="13.145677442211209"><ele>441.4</ele><time>2026-04-12T09:36:05.001Z</time></trkpt><trkpt lat="43.352186634679455" lon="13.145533064696291"><ele>442.6</ele><time>2026-04-12T09:36:06.001Z</time></trkpt><trkpt lat="43.35224408415166" lon="13.145396802561772"><ele>443.8</ele><time>2026-04-12T09:36:07.001Z</time></trkpt><trkpt lat="43.352273495217446" lon="13.145270178369017"><ele>445.0</ele><time>2026-04-12T09:36:08.001Z</time></trkpt><trkpt lat="43.35231339795983" lon="13.145144777813648"><ele>446.00000000000006</ele><time>2026-04-12T09:36:09.001Z</time></trkpt><trkpt lat="43.352338537066814" lon="13.145017776307512"><ele>447.0</ele><time>2026-04-12T09:36:10.001Z</time></trkpt><trkpt lat="43.35234590213896" lon="13.144903848654083"><ele>448.0</ele><time>2026-04-12T09:36:11.001Z</time></trkpt><trkpt lat="43.352359648476295" lon="13.144809179731846"><ele>449.0</ele><time>2026-04-12T09:36:12.001Z</time></trkpt><trkpt lat="43.35238020931385" lon="13.144710551437376"><ele>450.00000000000006</ele><time>2026-04-12T09:36:13.001Z</time></trkpt><trkpt lat="43.35239320838287" lon="13.144610505138742"><ele>451.0</ele><time>2026-04-12T09:36:14.001Z</time></trkpt><trkpt lat="43.352388903345776" lon="13.144508330277178"><ele>451.33333333333337</ele><time>2026-04-12T09:36:16.001Z</time></trkpt><trkpt lat="43.35238663229758" lon="13.1444165871844"><ele>451.6666666666667</ele><time>2026-04-12T09:36:19.001Z</time></trkpt><trkpt lat="43.352405022064374" lon="13.144303456591286"><ele>452.0</ele><time>2026-04-12T09:36:22.001Z</time></trkpt><trkpt lat="43.35232790964677" lon="13.144235514514765"><ele>452.33333333333337</ele><time>2026-04-12T09:36:23.001Z</time></trkpt><trkpt lat="43.352267892492314" lon="13.14416151159507"><ele>452.6666666666667</ele><time>2026-04-12T09:36:24.001Z</time></trkpt><trkpt lat="43.35218935845338" lon="13.144080037575808"><ele>453.0</ele><time>2026-04-12T09:36:25.001Z</time></trkpt><trkpt lat="43.352126351395185" lon="13.144000197752687"><ele>453.6666666666667</ele><time>2026-04-12T09:36:26.001Z</time></trkpt><trkpt lat="43.3520842611169" lon="13.143919238708419"><ele>454.33333333333337</ele><time>2026-04-12T09:36:27.001Z</time></trkpt><trkpt lat="43.35204786938233" lon="13.143825126394564"><ele>455.0</ele><time>2026-04-12T09:36:28.001Z</time></trkpt><trkpt lat="43.352018745351" lon="13.143721255279528"><ele>455.6666666666667</ele><time>2026-04-12T09:36:29.001Z</time></trkpt><trkpt lat="43.35199223535695" lon="13.143598605082236"><ele>456.33333333333337</ele><time>2026-04-12T09:36:30.001Z</time></trkpt><trkpt lat="43.351971562117875" lon="13.143479834764799"><ele>457.0</ele><time>2026-04-12T09:36:31.001Z</time></trkpt><trkpt lat="43.35195402197112" lon="13.14334627941922"><ele>456.40000000000003</ele><time>2026-04-12T09:36:32.001Z</time></trkpt><trkpt lat="43.35195350571369" lon="13.143208587747504"><ele>455.80000000000007</ele><time>2026-04-12T09:36:33.001Z</time></trkpt><trkpt lat="43.351966514047255" lon="13.143083933899783"><ele>455.2</ele><time>2026-04-12T09:36:34.001Z</time></trkpt><trkpt lat="43.351985290518314" lon="13.142962433067847"><ele>454.6</ele><time>2026-04-12T09:36:35.001Z</time></trkpt><trkpt lat="43.35200614139611" lon="13.14285929663629"><ele>454.0</ele><time>2026-04-12T09:36:36.001Z</time></trkpt><trkpt lat="43.352056973783455" lon="13.142704669527273"><ele>454.0</ele><time>2026-04-12T09:36:38.001Z</time></trkpt><trkpt lat="43.35209299893284" lon="13.142605598656909"><ele>454.0</ele><time>2026-04-12T09:36:40.001Z</time></trkpt><trkpt lat="43.35212292826849" lon="13.142522411329415"><ele>454.0</ele><time>2026-04-12T09:36:44.001Z</time></trkpt><trkpt lat="43.35205079395736" lon="13.142266707179589"><ele>454.0</ele><time>2026-04-12T09:36:59Z</time></trkpt><trkpt lat="43.35170956171876" lon="13.142299605327667"><ele>453.0</ele><time>2026-04-12T09:37:04Z</time></trkpt><trkpt lat="43.351656096798095" lon="13.14223899649814"><ele>452.0</ele><time>2026-04-12T09:37:06Z</time></trkpt><trkpt lat="43.35157440286639" lon="13.14213215765408"><ele>451.0</ele><time>2026-04-12T09:37:08Z</time></trkpt><trkpt lat="43.35148344257911" lon="13.142076123765909"><ele>450.0</ele><time>2026-04-12T09:37:10Z</time></trkpt><trkpt lat="43.351370352262386" lon="13.142023889637224"><ele>449.0</ele><time>2026-04-12T09:37:12Z</time></trkpt><trkpt lat="43.35130734104361" lon="13.141922540427295"><ele>448.79999999999995</ele><time>2026-04-12T09:37:14Z</time></trkpt><trkpt lat="43.35130108112754" lon="13.141811049078335"><ele>448.59999999999997</ele><time>2026-04-12T09:37:16Z</time></trkpt><trkpt lat="43.35131540235464" lon="13.141718343116615"><ele>448.4</ele><time>2026-04-12T09:37:18Z</time></trkpt><trkpt lat="43.35132590030037" lon="13.141610420901147"><ele>448.2</ele><time>2026-04-12T09:37:21Z</time></trkpt><trkpt lat="43.351190192876885" lon="13.141551021341783"><ele>448.0</ele><time>2026-04-12T09:37:22Z</time></trkpt><trkpt lat="43.351108372138434" lon="13.14148951417652"><ele>446.59999999999997</ele><time>2026-04-12T09:37:23Z</time></trkpt><trkpt lat="43.35101092037764" lon="13.141401680655429"><ele>445.19999999999993</ele><time>2026-04-12T09:37:24Z</time></trkpt><trkpt lat="43.35091680659031" lon="13.14131096062354"><ele>443.8</ele><time>2026-04-12T09:37:25Z</time></trkpt><trkpt lat="43.35083079677499" lon="13.141223842960716"><ele>442.4</ele><time>2026-04-12T09:37:26Z</time></trkpt><trkpt lat="43.35074886694461" lon="13.141126862762848"><ele>441.0</ele><time>2026-04-12T09:37:27Z</time></trkpt><trkpt lat="43.350676675650995" lon="13.141009253479746"><ele>441.0</ele><time>2026-04-12T09:37:28Z</time></trkpt><trkpt lat="43.35059910960174" lon="13.140877562666924"><ele>441.0</ele><time>2026-04-12T09:37:29Z</time></trkpt><trkpt lat="43.35052293011187" lon="13.140747670714763"><ele>441.0</ele><time>2026-04-12T09:37:30Z</time></trkpt><trkpt lat="43.3504465906282" lon="13.140613721384433"><ele>441.0</ele><time>2026-04-12T09:37:31Z</time></trkpt><trkpt lat="43.35037153447361" lon="13.140473132107154"><ele>441.5</ele><time>2026-04-12T09:37:32Z</time></trkpt><trkpt lat="43.350303183246766" lon="13.140333406722158"><ele>442.0</ele><time>2026-04-12T09:37:33Z</time></trkpt><trkpt lat="43.350236707395474" lon="13.14017728350809"><ele>442.5</ele><time>2026-04-12T09:37:34Z</time></trkpt><trkpt lat="43.3501781725761" lon="13.14000536594027"><ele>443.0</ele><time>2026-04-12T09:37:35Z</time></trkpt><trkpt lat="43.35013940864209" lon="13.139840625247125"><ele>441.25</ele><time>2026-04-12T09:37:36Z</time></trkpt><trkpt lat="43.350097048007065" lon="13.13966076169567"><ele>439.5</ele><time>2026-04-12T09:37:37Z</time></trkpt><trkpt lat="43.35006602884594" lon="13.139472696387987"><ele>437.75</ele><time>2026-04-12T09:37:38Z</time></trkpt><trkpt lat="43.35003372326183" lon="13.139280704697297"><ele>436.0</ele><time>2026-04-12T09:37:39Z</time></trkpt><trkpt lat="43.35000412656791" lon="13.139099836889448"><ele>434.75</ele><time>2026-04-12T09:37:40Z</time></trkpt><trkpt lat="43.3499733631791" lon="13.13890195893394"><ele>433.5</ele><time>2026-04-12T09:37:41Z</time></trkpt><trkpt lat="43.34994663017083" lon="13.138703441626797"><ele>432.25</ele><time>2026-04-12T09:37:42Z</time></trkpt><trkpt lat="43.34990432152045" lon="13.138508507289362"><ele>431.0</ele><time>2026-04-12T09:37:43Z</time></trkpt><trkpt lat="43.349859395253695" lon="13.13831159732263"><ele>434.0</ele><time>2026-04-12T09:37:44Z</time></trkpt><trkpt lat="43.34977291589765" lon="13.137910655929135"><ele>437.0</ele><time>2026-04-12T09:37:46Z</time></trkpt><trkpt lat="43.34973143081351" lon="13.137722808985142"><ele>440.0</ele><time>2026-04-12T09:37:47Z</time></trkpt><trkpt lat="43.34969354716412" lon="13.137525500383926"><ele>437.25</ele><time>2026-04-12T09:37:48Z</time></trkpt><trkpt lat="43.34965828467924" lon="13.137334176982948"><ele>434.5</ele><time>2026-04-12T09:37:49Z</time></trkpt><trkpt lat="43.34962116990397" lon="13.137134325436794"><ele>431.75</ele><time>2026-04-12T09:37:50Z</time></trkpt><trkpt lat="43.34958721523172" lon="13.136935412157438"><ele>429.0</ele><time>2026-04-12T09:37:51Z</time></trkpt><trkpt lat="43.349547694347876" lon="13.136726420725672"><ele>427.0</ele><time>2026-04-12T09:37:52Z</time></trkpt><trkpt lat="43.34951430063471" lon="13.136522832188252"><ele>425.0</ele><time>2026-04-12T09:37:53Z</time></trkpt><trkpt lat="43.349475732516794" lon="13.136320779650639"><ele>423.0</ele><time>2026-04-12T09:37:54Z</time></trkpt><trkpt lat="43.34943743556283" lon="13.136115746532168"><ele>423.0</ele><time>2026-04-12T09:37:55Z</time></trkpt><trkpt lat="43.349398145827664" lon="13.135902720292457"><ele>423.0</ele><time>2026-04-12T09:37:56Z</time></trkpt><trkpt lat="43.349367425643095" lon="13.135699166365402"><ele>423.0</ele><time>2026-04-12T09:37:57Z</time></trkpt><trkpt lat="43.34932805992114" lon="13.135493689583091"><ele>421.33333333333337</ele><time>2026-04-12T09:37:58Z</time></trkpt><trkpt lat="43.3492800588934" lon="13.135283029175103"><ele>419.6666666666667</ele><time>2026-04-12T09:37:59Z</time></trkpt><trkpt lat="43.3492405812895" lon="13.135075443920984"><ele>418.0</ele><time>2026-04-12T09:38:00Z</time></trkpt><trkpt lat="43.34919871833778" lon="13.13486775459585"><ele>416.33333333333337</ele><time>2026-04-12T09:38:01Z</time></trkpt><trkpt lat="43.349159220325866" lon="13.134666855777882"><ele>414.66666666666663</ele><time>2026-04-12T09:38:02Z</time></trkpt><trkpt lat="43.349117718438336" lon="13.134466707585743"><ele>413.0</ele><time>2026-04-12T09:38:03Z</time></trkpt><trkpt lat="43.34907965766412" lon="13.13427159532928"><ele>413.0</ele><time>2026-04-12T09:38:04Z</time></trkpt><trkpt lat="43.34904034823658" lon="13.13408360055886"><ele>413.0</ele><time>2026-04-12T09:38:05Z</time></trkpt><trkpt lat="43.34900201639419" lon="13.133898902522827"><ele>413.0</ele><time>2026-04-12T09:38:06Z</time></trkpt><trkpt lat="43.348963473911326" lon="13.133708538258078"><ele>413.0</ele><time>2026-04-12T09:38:07Z</time></trkpt><trkpt lat="43.3489305923517" lon="13.133530246542403"><ele>414.0</ele><time>2026-04-12T09:38:08Z</time></trkpt><trkpt lat="43.34889969932233" lon="13.13335799142648"><ele>415.0</ele><time>2026-04-12T09:38:09Z</time></trkpt><trkpt lat="43.34886996487499" lon="13.133186314159394"><ele>416.0</ele><time>2026-04-12T09:38:10Z</time></trkpt><trkpt lat="43.34885217556907" lon="13.13302585926536"><ele>417.0</ele><time>2026-04-12T09:38:11Z</time></trkpt><trkpt lat="43.348847476523964" lon="13.13287834983268"><ele>417.0</ele><time>2026-04-12T09:38:12Z</time></trkpt><trkpt lat="43.34886012946363" lon="13.132723887738077"><ele>417.0</ele><time>2026-04-12T09:38:13Z</time></trkpt><trkpt lat="43.348898599066494" lon="13.132580839400667"><ele>417.0</ele><time>2026-04-12T09:38:14Z</time></trkpt><trkpt lat="43.348952070721104" lon="13.132441213387388"><ele>417.0</ele><time>2026-04-12T09:38:15Z</time></trkpt><trkpt lat="43.3490241629815" lon="13.132311814721593"><ele>413.5</ele><time>2026-04-12T09:38:16Z</time></trkpt><trkpt lat="43.349109782842724" lon="13.1321881716683"><ele>410.0</ele><time>2026-04-12T09:38:17Z</time></trkpt><trkpt lat="43.34921988496696" lon="13.132101823791848"><ele>406.5</ele><time>2026-04-12T09:38:18Z</time></trkpt><trkpt lat="43.34931784808456" lon="13.131985229372216"><ele>403.0</ele><time>2026-04-12T09:38:19Z</time></trkpt><trkpt lat="43.34942469105395" lon="13.131888163539095"><ele>403.0</ele><time>2026-04-12T09:38:20Z</time></trkpt><trkpt lat="43.349534581120665" lon="13.13178046752849"><ele>403.0</ele><time>2026-04-12T09:38:21Z</time></trkpt><trkpt lat="43.34964213223917" lon="13.13167182553281"><ele>403.0</ele><time>2026-04-12T09:38:22Z</time></trkpt><trkpt lat="43.349746003965976" lon="13.131569196754114"><ele>403.0</ele><time>2026-04-12T09:38:23Z</time></trkpt><trkpt lat="43.34984678120316" lon="13.131471567174424"><ele>401.0</ele><time>2026-04-12T09:38:24Z</time></trkpt><trkpt lat="43.34994373221759" lon="13.131373829219104"><ele>399.0</ele><time>2026-04-12T09:38:25Z</time></trkpt><trkpt lat="43.35003893784386" lon="13.13127911363202"><ele>397.0</ele><time>2026-04-12T09:38:26Z</time></trkpt><trkpt lat="43.350135792207304" lon="13.13119241936308"><ele>395.0</ele><time>2026-04-12T09:38:27Z</time></trkpt><trkpt lat="43.35022725428147" lon="13.131098639879704"><ele>395.0</ele><time>2026-04-12T09:38:28Z</time></trkpt><trkpt lat="43.35031944102052" lon="13.131016771363848"><ele>395.0</ele><time>2026-04-12T09:38:29Z</time></trkpt><trkpt lat="43.35039790117983" lon="13.130945906716159"><ele>395.0</ele><time>2026-04-12T09:38:30Z</time></trkpt><trkpt lat="43.3504595217144" lon="13.13087085855695"><ele>395.0</ele><time>2026-04-12T09:38:31Z</time></trkpt><trkpt lat="43.35050588308608" lon="13.130777262547774"><ele>395.0</ele><time>2026-04-12T09:38:32Z</time></trkpt><trkpt lat="43.35053451764064" lon="13.13065595411776"><ele>394.6</ele><time>2026-04-12T09:38:33.001Z</time></trkpt><trkpt lat="43.35053123495447" lon="13.13052993797499"><ele>394.2</ele><time>2026-04-12T09:38:34.001Z</time></trkpt><trkpt lat="43.350487996600855" lon="13.130404387581248"><ele>393.79999999999995</ele><time>2026-04-12T09:38:35.001Z</time></trkpt><trkpt lat="43.3504270228762" lon="13.130313880190725"><ele>393.4</ele><time>2026-04-12T09:38:36.001Z</time></trkpt><trkpt lat="43.3503429925967" lon="13.130242573955073"><ele>393.0</ele><time>2026-04-12T09:38:37.001Z</time></trkpt><trkpt lat="43.350260536087106" lon="13.13017593453119"><ele>393.0</ele><time>2026-04-12T09:38:38.001Z</time></trkpt><trkpt lat="43.35020249004517" lon="13.130083225047873"><ele>393.0</ele><time>2026-04-12T09:38:39.001Z</time></trkpt><trkpt lat="43.35017952100087" lon="13.130001153378213"><ele>393.0</ele><time>2026-04-12T09:38:40.001Z</time></trkpt><trkpt lat="43.350214590316064" lon="13.129887109179217"><ele>393.0</ele><time>2026-04-12T09:38:41.001Z</time></trkpt><trkpt lat="43.35024125511868" lon="13.129758067753583"><ele>393.0</ele><time>2026-04-12T09:38:42.001Z</time></trkpt><trkpt lat="43.35026910925785" lon="13.129648970784826"><ele>393.0</ele><time>2026-04-12T09:38:43.001Z</time></trkpt><trkpt lat="43.350308290365234" lon="13.129504629804897"><ele>392.75</ele><time>2026-04-12T09:38:44.001Z</time></trkpt><trkpt lat="43.35035539376257" lon="13.129361081321653"><ele>392.5</ele><time>2026-04-12T09:38:45.001Z</time></trkpt><trkpt lat="43.35040800263152" lon="13.129206776642667"><ele>392.25</ele><time>2026-04-12T09:38:46.001Z</time></trkpt><trkpt lat="43.35045807084524" lon="13.129049239262066"><ele>392.0</ele><time>2026-04-12T09:38:47.001Z</time></trkpt><trkpt lat="43.35049046334917" lon="13.128879081910071"><ele>392.0</ele><time>2026-04-12T09:38:48.001Z</time></trkpt><trkpt lat="43.35051611136695" lon="13.128713953605034"><ele>392.0</ele><time>2026-04-12T09:38:49.001Z</time></trkpt><trkpt lat="43.35051119998604" lon="13.128552848040032"><ele>392.0</ele><time>2026-04-12T09:38:50.001Z</time></trkpt><trkpt lat="43.35047882838407" lon="13.128413103862274"><ele>392.0</ele><time>2026-04-12T09:38:51.001Z</time></trkpt><trkpt lat="43.350344931010504" lon="13.12816303138047"><ele>393.0</ele><time>2026-04-12T09:38:53.001Z</time></trkpt><trkpt lat="43.35028173267687" lon="13.12802564032684"><ele>394.0</ele><time>2026-04-12T09:38:54.001Z</time></trkpt><trkpt lat="43.350220740114224" lon="13.12787786784051"><ele>395.0</ele><time>2026-04-12T09:38:55.001Z</time></trkpt><trkpt lat="43.350161032573915" lon="13.127724928289453"><ele>396.0</ele><time>2026-04-12T09:38:56.001Z</time></trkpt><trkpt lat="43.350097861655534" lon="13.127566778971852"><ele>396.0</ele><time>2026-04-12T09:38:57.001Z</time></trkpt><trkpt lat="43.350036362061815" lon="13.127413801189237"><ele>396.0</ele><time>2026-04-12T09:38:58.001Z</time></trkpt><trkpt lat="43.349968259752494" lon="13.127253773076571"><ele>396.0</ele><time>2026-04-12T09:38:59.001Z</time></trkpt><trkpt lat="43.349902171688015" lon="13.127098607988266"><ele>396.0</ele><time>2026-04-12T09:39:00.001Z</time></trkpt><trkpt lat="43.349833996397095" lon="13.126933788779533"><ele>396.0</ele><time>2026-04-12T09:39:01Z</time></trkpt><trkpt lat="43.349764248105934" lon="13.126765526408274"><ele>396.0</ele><time>2026-04-12T09:39:02Z</time></trkpt><trkpt lat="43.349693466739325" lon="13.12659226642261"><ele>396.0</ele><time>2026-04-12T09:39:03Z</time></trkpt><trkpt lat="43.34961642579873" lon="13.126415106684798"><ele>396.0</ele><time>2026-04-12T09:39:04Z</time></trkpt><trkpt lat="43.349537793449564" lon="13.126240503223892"><ele>397.0</ele><time>2026-04-12T09:39:05Z</time></trkpt><trkpt lat="43.34945579080563" lon="13.126070224365856"><ele>398.0</ele><time>2026-04-12T09:39:06Z</time></trkpt><trkpt lat="43.34937565939038" lon="13.125889095641835"><ele>399.0</ele><time>2026-04-12T09:39:07Z</time></trkpt><trkpt lat="43.34930173556313" lon="13.125711557857464"><ele>400.33333333333337</ele><time>2026-04-12T09:39:08Z</time></trkpt><trkpt lat="43.34922047523523" lon="13.12552879385165"><ele>401.6666666666667</ele><time>2026-04-12T09:39:09Z</time></trkpt><trkpt lat="43.349137367668" lon="13.125342458944086"><ele>403.0</ele><time>2026-04-12T09:39:10Z</time></trkpt><trkpt lat="43.349056615134984" lon="13.125160572329403"><ele>403.0</ele><time>2026-04-12T09:39:11Z</time></trkpt><trkpt lat="43.34897617508382" lon="13.124979050322949"><ele>403.0</ele><time>2026-04-12T09:39:12Z</time></trkpt><trkpt lat="43.34889306226833" lon="13.124799236634708"><ele>403.0</ele><time>2026-04-12T09:39:13Z</time></trkpt><trkpt lat="43.348809206073604" lon="13.12462106770606"><ele>404.75</ele><time>2026-04-12T09:39:14Z</time></trkpt><trkpt lat="43.34873753516768" lon="13.124467729988723"><ele>406.5</ele><time>2026-04-12T09:39:15Z</time></trkpt><trkpt lat="43.34868314727975" lon="13.124324371594307"><ele>408.25</ele><time>2026-04-12T09:39:16Z</time></trkpt><trkpt lat="43.34864427289113" lon="13.124178605645785"><ele>410.0</ele><time>2026-04-12T09:39:17Z</time></trkpt><trkpt lat="43.34866565193872" lon="13.124043851176658"><ele>410.8</ele><time>2026-04-12T09:39:18Z</time></trkpt><trkpt lat="43.34867802918077" lon="13.123902026951567"><ele>411.6</ele><time>2026-04-12T09:39:19Z</time></trkpt><trkpt lat="43.34876044021859" lon="13.12379367917587"><ele>412.4</ele><time>2026-04-12T09:39:20Z</time></trkpt><trkpt lat="43.34882396437116" lon="13.123681749999944"><ele>413.2</ele><time>2026-04-12T09:39:21Z</time></trkpt><trkpt lat="43.348860973838214" lon="13.123525092854582"><ele>414.0</ele><time>2026-04-12T09:39:22Z</time></trkpt><trkpt lat="43.34889516533292" lon="13.12336917131961"><ele>414.0</ele><time>2026-04-12T09:39:23Z</time></trkpt><trkpt lat="43.34895156156818" lon="13.123241412355052"><ele>414.0</ele><time>2026-04-12T09:39:24Z</time></trkpt><trkpt lat="43.34899038611484" lon="13.123128198358119"><ele>414.0</ele><time>2026-04-12T09:39:25Z</time></trkpt><trkpt lat="43.34901468982077" lon="13.1230398693351"><ele>414.0</ele><time>2026-04-12T09:39:26Z</time></trkpt><trkpt lat="43.34898179970321" lon="13.122930583021676"><ele>414.0</ele><time>2026-04-12T09:39:28Z</time></trkpt><trkpt lat="43.348881127865674" lon="13.122957775442384"><ele>415.79999999999995</ele><time>2026-04-12T09:39:30Z</time></trkpt><trkpt lat="43.34883333328605" lon="13.123034916461142"><ele>417.59999999999997</ele><time>2026-04-12T09:39:31Z</time></trkpt><trkpt lat="43.34877778149644" lon="13.12314927936636"><ele>419.4</ele><time>2026-04-12T09:39:32Z</time></trkpt><trkpt lat="43.34869682664069" lon="13.123224677185917"><ele>421.2</ele><time>2026-04-12T09:39:33Z</time></trkpt><trkpt lat="43.34859678508613" lon="13.123236145849857"><ele>423.0</ele><time>2026-04-12T09:39:34Z</time></trkpt><trkpt lat="43.348488750608745" lon="13.123192072769507"><ele>427.0</ele><time>2026-04-12T09:39:35Z</time></trkpt><trkpt lat="43.34839334662725" lon="13.123083025686485"><ele>431.0</ele><time>2026-04-12T09:39:36Z</time></trkpt><trkpt lat="43.34829472681582" lon="13.122960487421572"><ele>435.0</ele><time>2026-04-12T09:39:37Z</time></trkpt><trkpt lat="43.348180140406704" lon="13.122817592945237"><ele>439.0</ele><time>2026-04-12T09:39:38Z</time></trkpt><trkpt lat="43.34805124208991" lon="13.122682504975826"><ele>440.0</ele><time>2026-04-12T09:39:39Z</time></trkpt><trkpt lat="43.347944741574665" lon="13.122531622945203"><ele>441.0</ele><time>2026-04-12T09:39:40Z</time></trkpt><trkpt lat="43.34783738224854" lon="13.122385114386148"><ele>442.0</ele><time>2026-04-12T09:39:41Z</time></trkpt><trkpt lat="43.34774723536656" lon="13.122252520831816"><ele>443.0</ele><time>2026-04-12T09:39:42Z</time></trkpt><trkpt lat="43.34766471133956" lon="13.122125957203226"><ele>443.0</ele><time>2026-04-12T09:39:43Z</time></trkpt><trkpt lat="43.34759663397607" lon="13.121982929159152"><ele>443.0</ele><time>2026-04-12T09:39:44Z</time></trkpt><trkpt lat="43.34756410344367" lon="13.121810829954246"><ele>443.0</ele><time>2026-04-12T09:39:45Z</time></trkpt><trkpt lat="43.34751008709879" lon="13.121630998631534"><ele>443.0</ele><time>2026-04-12T09:39:46Z</time></trkpt><trkpt lat="43.34747037651732" lon="13.121428050122685"><ele>446.0</ele><time>2026-04-12T09:39:47Z</time></trkpt><trkpt lat="43.347423245243185" lon="13.121223839501006"><ele>449.0</ele><time>2026-04-12T09:39:48Z</time></trkpt><trkpt lat="43.3473658990352" lon="13.121016381985823"><ele>452.0</ele><time>2026-04-12T09:39:49Z</time></trkpt><trkpt lat="43.34731198490534" lon="13.12079841250992"><ele>454.0</ele><time>2026-04-12T09:39:50Z</time></trkpt><trkpt lat="43.347252303131924" lon="13.120591667954198"><ele>456.0</ele><time>2026-04-12T09:39:51Z</time></trkpt><trkpt lat="43.34719692748396" lon="13.120411293128583"><ele>458.0</ele><time>2026-04-12T09:39:52Z</time></trkpt><trkpt lat="43.34714829428237" lon="13.120247446487594"><ele>460.0</ele><time>2026-04-12T09:39:53Z</time></trkpt><trkpt lat="43.347101393010284" lon="13.120088820414235"><ele>457.5</ele><time>2026-04-12T09:39:54Z</time></trkpt><trkpt lat="43.34704076722965" lon="13.11993281994092"><ele>455.0</ele><time>2026-04-12T09:39:55Z</time></trkpt><trkpt lat="43.346982037255884" lon="13.119785991389136"><ele>452.5</ele><time>2026-04-12T09:39:56Z</time></trkpt><trkpt lat="43.34692771715555" lon="13.119652496290378"><ele>450.0</ele><time>2026-04-12T09:39:57Z</time></trkpt><trkpt lat="43.346882239216676" lon="13.119521851548651"><ele>450.0</ele><time>2026-04-12T09:39:58Z</time></trkpt><trkpt lat="43.34684557771386" lon="13.119382353534183"><ele>450.0</ele><time>2026-04-12T09:39:59Z</time></trkpt><trkpt lat="43.3468362119748" lon="13.119223066606374"><ele>450.0</ele><time>2026-04-12T09:40:00Z</time></trkpt><trkpt lat="43.34680073619789" lon="13.119060314489753"><ele>450.0</ele><time>2026-04-12T09:40:01Z</time></trkpt><trkpt lat="43.34680307260193" lon="13.118885682163095"><ele>450.75</ele><time>2026-04-12T09:40:02Z</time></trkpt><trkpt lat="43.346780303650476" lon="13.118696524171604"><ele>451.5</ele><time>2026-04-12T09:40:03Z</time></trkpt><trkpt lat="43.34679023352321" lon="13.118504944802064"><ele>452.25</ele><time>2026-04-12T09:40:04Z</time></trkpt><trkpt lat="43.34677369025653" lon="13.118301863043984"><ele>453.0</ele><time>2026-04-12T09:40:05Z</time></trkpt><trkpt lat="43.34677739378295" lon="13.11808862911801"><ele>453.75</ele><time>2026-04-12T09:40:06Z</time></trkpt><trkpt lat="43.34678130496247" lon="13.117888131296702"><ele>454.5</ele><time>2026-04-12T09:40:07Z</time></trkpt><trkpt lat="43.34679050053813" lon="13.117714186761441"><ele>455.25</ele><time>2026-04-12T09:40:08Z</time></trkpt><trkpt lat="43.346805895270734" lon="13.117544796532096"><ele>456.0</ele><time>2026-04-12T09:40:09Z</time></trkpt><trkpt lat="43.34686611563305" lon="13.117376627255334"><ele>456.25</ele><time>2026-04-12T09:40:10Z</time></trkpt><trkpt lat="43.34692553023345" lon="13.117203403730223"><ele>456.5</ele><time>2026-04-12T09:40:11Z</time></trkpt><trkpt lat="43.34699328313208" lon="13.117017779722987"><ele>456.75</ele><time>2026-04-12T09:40:12Z</time></trkpt><trkpt lat="43.34704879065623" lon="13.116834284973754"><ele>457.0</ele><time>2026-04-12T09:40:13Z</time></trkpt><trkpt lat="43.34711467667875" lon="13.116664352266923"><ele>458.0</ele><time>2026-04-12T09:40:14Z</time></trkpt><trkpt lat="43.347170743816065" lon="13.11650901103066"><ele>459.0</ele><time>2026-04-12T09:40:15Z</time></trkpt><trkpt lat="43.347225591769075" lon="13.11637968053077"><ele>460.0</ele><time>2026-04-12T09:40:16Z</time></trkpt><trkpt lat="43.347267101813884" lon="13.116233168491469"><ele>461.0</ele><time>2026-04-12T09:40:17Z</time></trkpt><trkpt lat="43.34728760863668" lon="13.11606905568383"><ele>461.25</ele><time>2026-04-12T09:40:18Z</time></trkpt><trkpt lat="43.34728409326238" lon="13.115900258815788"><ele>461.5</ele><time>2026-04-12T09:40:19Z</time></trkpt><trkpt lat="43.34725787277035" lon="13.115741608011914"><ele>461.75</ele><time>2026-04-12T09:40:20Z</time></trkpt><trkpt lat="43.34721823152326" lon="13.115585713011223"><ele>462.0</ele><time>2026-04-12T09:40:21Z</time></trkpt><trkpt lat="43.34717156706771" lon="13.11543061659707"><ele>462.0</ele><time>2026-04-12T09:40:22Z</time></trkpt><trkpt lat="43.34711756130809" lon="13.115286247856924"><ele>462.0</ele><time>2026-04-12T09:40:23Z</time></trkpt><trkpt lat="43.34706677934978" lon="13.11513870089965"><ele>462.0</ele><time>2026-04-12T09:40:24Z</time></trkpt><trkpt lat="43.34705410223593" lon="13.115003387957326"><ele>462.0</ele><time>2026-04-12T09:40:25Z</time></trkpt><trkpt lat="43.34706692138877" lon="13.11483514831992"><ele>462.75</ele><time>2026-04-12T09:40:26Z</time></trkpt><trkpt lat="43.34710448449963" lon="13.114675038215434"><ele>463.5</ele><time>2026-04-12T09:40:27Z</time></trkpt><trkpt lat="43.34712343111947" lon="13.114481573265156"><ele>464.25</ele><time>2026-04-12T09:40:28Z</time></trkpt><trkpt lat="43.34713133717493" lon="13.11427245855468"><ele>465.0</ele><time>2026-04-12T09:40:29Z</time></trkpt><trkpt lat="43.34712217019013" lon="13.114066533277976"><ele>466.0</ele><time>2026-04-12T09:40:30Z</time></trkpt><trkpt lat="43.34710125631523" lon="13.113877064745697"><ele>467.0</ele><time>2026-04-12T09:40:31Z</time></trkpt><trkpt lat="43.3470751156946" lon="13.113676537074426"><ele>468.0</ele><time>2026-04-12T09:40:32Z</time></trkpt><trkpt lat="43.347048586514205" lon="13.113469813467889"><ele>469.0</ele><time>2026-04-12T09:40:33Z</time></trkpt><trkpt lat="43.34701861518286" lon="13.11326096510281"><ele>470.25</ele><time>2026-04-12T09:40:34.001Z</time></trkpt><trkpt lat="43.346991012770204" lon="13.11305555345973"><ele>471.5</ele><time>2026-04-12T09:40:35.001Z</time></trkpt><trkpt lat="43.346960076489346" lon="13.112855669912182"><ele>472.75</ele><time>2026-04-12T09:40:36.001Z</time></trkpt><trkpt lat="43.34693483923045" lon="13.112657071635178"><ele>474.0</ele><time>2026-04-12T09:40:37.001Z</time></trkpt><trkpt lat="43.34691465523893" lon="13.112462336571015"><ele>475.5</ele><time>2026-04-12T09:40:38.001Z</time></trkpt><trkpt lat="43.3468890244103" lon="13.112272546540515"><ele>477.0</ele><time>2026-04-12T09:40:39.001Z</time></trkpt><trkpt lat="43.34687019821492" lon="13.112082207260904"><ele>478.5</ele><time>2026-04-12T09:40:40.001Z</time></trkpt><trkpt lat="43.34686126793501" lon="13.111891907073415"><ele>480.0</ele><time>2026-04-12T09:40:41.001Z</time></trkpt><trkpt lat="43.346866548234104" lon="13.11169805645877"><ele>481.0</ele><time>2026-04-12T09:40:42.001Z</time></trkpt><trkpt lat="43.346885755351416" lon="13.11149113071405"><ele>482.0</ele><time>2026-04-12T09:40:43.001Z</time></trkpt><trkpt lat="43.34690396899383" lon="13.111285939987726"><ele>483.0</ele><time>2026-04-12T09:40:44.001Z</time></trkpt><trkpt lat="43.34693038343696" lon="13.111094629132417"><ele>484.0</ele><time>2026-04-12T09:40:45.001Z</time></trkpt><trkpt lat="43.34694398220657" lon="13.110915057792065"><ele>484.0</ele><time>2026-04-12T09:40:46.001Z</time></trkpt><trkpt lat="43.34694193554313" lon="13.110746211596362"><ele>484.0</ele><time>2026-04-12T09:40:47.001Z</time></trkpt><trkpt lat="43.34696094143782" lon="13.110591296001617"><ele>484.0</ele><time>2026-04-12T09:40:48.001Z</time></trkpt><trkpt lat="43.34698539675164" lon="13.110442654364782"><ele>484.0</ele><time>2026-04-12T09:40:49.001Z</time></trkpt><trkpt lat="43.34702314812778" lon="13.110303569641566"><ele>484.0</ele><time>2026-04-12T09:40:50.001Z</time></trkpt><trkpt lat="43.34710525845423" lon="13.110176175577136"><ele>484.0</ele><time>2026-04-12T09:40:51.001Z</time></trkpt><trkpt lat="43.34716487011912" lon="13.110038226163931"><ele>484.0</ele><time>2026-04-12T09:40:52.001Z</time></trkpt><trkpt lat="43.34719252449979" lon="13.109888494494001"><ele>484.0</ele><time>2026-04-12T09:40:53.001Z</time></trkpt><trkpt lat="43.347210727568665" lon="13.109743311392547"><ele>483.2</ele><time>2026-04-12T09:40:54.001Z</time></trkpt><trkpt lat="43.34721777731479" lon="13.109588127721882"><ele>482.4</ele><time>2026-04-12T09:40:55.001Z</time></trkpt><trkpt lat="43.34722021945556" lon="13.109431127728964"><ele>481.6</ele><time>2026-04-12T09:40:56.001Z</time></trkpt><trkpt lat="43.34722422242753" lon="13.109283871973597"><ele>480.8</ele><time>2026-04-12T09:40:57.001Z</time></trkpt><trkpt lat="43.34721766054688" lon="13.10914860525486"><ele>480.0</ele><time>2026-04-12T09:40:58.001Z</time></trkpt><trkpt lat="43.34719020805642" lon="13.109026522838318"><ele>480.0</ele><time>2026-04-12T09:40:59.001Z</time></trkpt><trkpt lat="43.3471433034754" lon="13.108927995020695"><ele>480.0</ele><time>2026-04-12T09:41:00.001Z</time></trkpt><trkpt lat="43.34707087842349" lon="13.108847827146802"><ele>480.0</ele><time>2026-04-12T09:41:01.001Z</time></trkpt><trkpt lat="43.346983717657736" lon="13.10879583781897"><ele>480.0</ele><time>2026-04-12T09:41:02.001Z</time></trkpt><trkpt lat="43.34689979646601" lon="13.108756204503877"><ele>480.0</ele><time>2026-04-12T09:41:03.001Z</time></trkpt><trkpt lat="43.34683279250094" lon="13.10870529088062"><ele>480.0</ele><time>2026-04-12T09:41:04.001Z</time></trkpt><trkpt lat="43.346778439058916" lon="13.108593210552192"><ele>480.0</ele><time>2026-04-12T09:41:06.001Z</time></trkpt><trkpt lat="43.346848950565146" lon="13.108483437927868"><ele>480.0</ele><time>2026-04-12T09:41:08Z</time></trkpt><trkpt lat="43.34688789777946" lon="13.108400873098411"><ele>480.0</ele><time>2026-04-12T09:41:09Z</time></trkpt><trkpt lat="43.34695715140317" lon="13.108310627782135"><ele>480.0</ele><time>2026-04-12T09:41:10Z</time></trkpt><trkpt lat="43.34703351189785" lon="13.108193426615339"><ele>480.0</ele><time>2026-04-12T09:41:11Z</time></trkpt><trkpt lat="43.34711204089843" lon="13.108058321441726"><ele>482.0</ele><time>2026-04-12T09:41:12Z</time></trkpt><trkpt lat="43.347184978691295" lon="13.10791039525345"><ele>484.0</ele><time>2026-04-12T09:41:13Z</time></trkpt><trkpt lat="43.34725288663843" lon="13.10774239466949"><ele>486.0</ele><time>2026-04-12T09:41:14Z</time></trkpt><trkpt lat="43.34729623624746" lon="13.107571141142055"><ele>488.0</ele><time>2026-04-12T09:41:15Z</time></trkpt><trkpt lat="43.347328975497035" lon="13.10737277570477"><ele>484.0</ele><time>2026-04-12T09:41:16Z</time></trkpt><trkpt lat="43.34735707909202" lon="13.10715880981664"><ele>480.0</ele><time>2026-04-12T09:41:17Z</time></trkpt><trkpt lat="43.34738318348386" lon="13.106955668386169"><ele>476.0</ele><time>2026-04-12T09:41:18Z</time></trkpt><trkpt lat="43.347405248371025" lon="13.10678845882042"><ele>472.0</ele><time>2026-04-12T09:41:19Z</time></trkpt><trkpt lat="43.34742797417248" lon="13.106628851790164"><ele>471.75</ele><time>2026-04-12T09:41:20Z</time></trkpt><trkpt lat="43.347435335581274" lon="13.106477762857168"><ele>471.5</ele><time>2026-04-12T09:41:21Z</time></trkpt><trkpt lat="43.34742304485775" lon="13.106333578533102"><ele>471.25</ele><time>2026-04-12T09:41:22Z</time></trkpt><trkpt lat="43.34738346231477" lon="13.106186034437233"><ele>471.0</ele><time>2026-04-12T09:41:23Z</time></trkpt><trkpt lat="43.347320251163275" lon="13.106029167507867"><ele>471.0</ele><time>2026-04-12T09:41:24Z</time></trkpt><trkpt lat="43.34725758858389" lon="13.105882413869114"><ele>471.0</ele><time>2026-04-12T09:41:25Z</time></trkpt><trkpt lat="43.34719869554542" lon="13.10573121126792"><ele>471.0</ele><time>2026-04-12T09:41:26Z</time></trkpt><trkpt lat="43.34715482916114" lon="13.105577787295443"><ele>471.0</ele><time>2026-04-12T09:41:27Z</time></trkpt><trkpt lat="43.34712800920153" lon="13.10541340637194"><ele>474.5</ele><time>2026-04-12T09:41:28Z</time></trkpt><trkpt lat="43.34711457739058" lon="13.105254687633067"><ele>478.0</ele><time>2026-04-12T09:41:29Z</time></trkpt><trkpt lat="43.34711958359334" lon="13.105103502726937"><ele>481.5</ele><time>2026-04-12T09:41:30Z</time></trkpt><trkpt lat="43.347138498752884" lon="13.104948714551082"><ele>485.0</ele><time>2026-04-12T09:41:31Z</time></trkpt><trkpt lat="43.3471928855223" lon="13.104805103124388"><ele>482.25</ele><time>2026-04-12T09:41:32Z</time></trkpt><trkpt lat="43.3472366277828" lon="13.104657241250793"><ele>479.5</ele><time>2026-04-12T09:41:33Z</time></trkpt><trkpt lat="43.347268469219514" lon="13.104498625233587"><ele>476.75</ele><time>2026-04-12T09:41:34Z</time></trkpt><trkpt lat="43.347314224076214" lon="13.104343136763047"><ele>474.0</ele><time>2026-04-12T09:41:35Z</time></trkpt><trkpt lat="43.347357901088046" lon="13.104181544469238"><ele>474.0</ele><time>2026-04-12T09:41:36Z</time></trkpt><trkpt lat="43.34738460252656" lon="13.104011265600532"><ele>474.0</ele><time>2026-04-12T09:41:37Z</time></trkpt><trkpt lat="43.347397509256844" lon="13.103834169977523"><ele>474.0</ele><time>2026-04-12T09:41:38Z</time></trkpt><trkpt lat="43.347407068369776" lon="13.103671724422805"><ele>474.0</ele><time>2026-04-12T09:41:39Z</time></trkpt><trkpt lat="43.34740076260423" lon="13.103514378975305"><ele>474.0</ele><time>2026-04-12T09:41:40Z</time></trkpt><trkpt lat="43.34739870534632" lon="13.103365861503422"><ele>474.0</ele><time>2026-04-12T09:41:41Z</time></trkpt><trkpt lat="43.34741858202326" lon="13.103240207056448"><ele>474.0</ele><time>2026-04-12T09:41:42Z</time></trkpt><trkpt lat="43.3474578168476" lon="13.10304504191261"><ele>474.0</ele><time>2026-04-12T09:41:44Z</time></trkpt><trkpt lat="43.34749103474832" lon="13.102945351604921"><ele>474.0</ele><time>2026-04-12T09:41:47Z</time></trkpt><trkpt lat="43.34753892219627" lon="13.102859390836391"><ele>474.2</ele><time>2026-04-12T09:41:49Z</time></trkpt><trkpt lat="43.34748473050658" lon="13.102683138578907"><ele>474.4</ele><time>2026-04-12T09:41:51Z</time></trkpt><trkpt lat="43.347507890921285" lon="13.102584025902795"><ele>474.6</ele><time>2026-04-12T09:41:52Z</time></trkpt><trkpt lat="43.34752610332914" lon="13.102460624737796"><ele>474.8</ele><time>2026-04-12T09:41:53Z</time></trkpt><trkpt lat="43.34754287843711" lon="13.102346227693777"><ele>475.0</ele><time>2026-04-12T09:41:54Z</time></trkpt><trkpt lat="43.347556214170176" lon="13.102251507952593"><ele>475.50000000000006</ele><time>2026-04-12T09:41:55Z</time></trkpt><trkpt lat="43.34755142320852" lon="13.102136394139036"><ele>476.0</ele><time>2026-04-12T09:41:56Z</time></trkpt><trkpt lat="43.34755749148858" lon="13.102046664857944"><ele>476.5</ele><time>2026-04-12T09:41:57Z</time></trkpt><trkpt lat="43.34755039708433" lon="13.101932055039024"><ele>477.0</ele><time>2026-04-12T09:41:58Z</time></trkpt><trkpt lat="43.34752487822429" lon="13.101818385648205"><ele>477.50000000000006</ele><time>2026-04-12T09:41:59Z</time></trkpt><trkpt lat="43.34749629159131" lon="13.1017169639835"><ele>478.0</ele><time>2026-04-12T09:42:00Z</time></trkpt><trkpt lat="43.347466334300734" lon="13.101619652797964"><ele>479.0</ele><time>2026-04-12T09:42:01Z</time></trkpt><trkpt lat="43.34745690585077" lon="13.101523379404343"><ele>479.99999999999994</ele><time>2026-04-12T09:42:02Z</time></trkpt><trkpt lat="43.34745555049921" lon="13.101376834329995"><ele>480.99999999999994</ele><time>2026-04-12T09:42:04Z</time></trkpt><trkpt lat="43.347435214126705" lon="13.101204804459917"><ele>482.0</ele><time>2026-04-12T09:42:06Z</time></trkpt><trkpt lat="43.34742174577411" lon="13.101103838583006"><ele>483.0</ele><time>2026-04-12T09:42:07Z</time></trkpt><trkpt lat="43.347413498122904" lon="13.100995713834768"><ele>483.0</ele><time>2026-04-12T09:42:08Z</time></trkpt><trkpt lat="43.347413868285685" lon="13.100876546670015"><ele>483.0</ele><time>2026-04-12T09:42:09Z</time></trkpt><trkpt lat="43.34742174498946" lon="13.100753579842374"><ele>483.0</ele><time>2026-04-12T09:42:10Z</time></trkpt><trkpt lat="43.34742881698817" lon="13.100637348537031"><ele>483.0</ele><time>2026-04-12T09:42:11Z</time></trkpt><trkpt lat="43.34741649227796" lon="13.100538710244615"><ele>483.0</ele><time>2026-04-12T09:42:12Z</time></trkpt><trkpt lat="43.34739844445555" lon="13.100446550416109"><ele>483.0</ele><time>2026-04-12T09:42:13Z</time></trkpt><trkpt lat="43.34738208456383" lon="13.100354948021085"><ele>483.6666666666667</ele><time>2026-04-12T09:42:14Z</time></trkpt><trkpt lat="43.34737144562358" lon="13.100256698484763"><ele>484.33333333333337</ele><time>2026-04-12T09:42:15Z</time></trkpt><trkpt lat="43.347362544844195" lon="13.100152186433032"><ele>485.0</ele><time>2026-04-12T09:42:16Z</time></trkpt><trkpt lat="43.34734021221653" lon="13.100034657833872"><ele>485.6666666666667</ele><time>2026-04-12T09:42:17Z</time></trkpt><trkpt lat="43.347313683805666" lon="13.09992302312771"><ele>486.33333333333337</ele><time>2026-04-12T09:42:18Z</time></trkpt><trkpt lat="43.34726218207953" lon="13.099801655072921"><ele>487.0</ele><time>2026-04-12T09:42:19Z</time></trkpt><trkpt lat="43.34725520073353" lon="13.09970146924549"><ele>487.0</ele><time>2026-04-12T09:42:20Z</time></trkpt><trkpt lat="43.34723958085098" lon="13.09958469889934"><ele>487.00000000000006</ele><time>2026-04-12T09:42:21Z</time></trkpt><trkpt lat="43.347240610983356" lon="13.099438410400479"><ele>487.00000000000006</ele><time>2026-04-12T09:42:22Z</time></trkpt><trkpt lat="43.34724766458215" lon="13.099284147682054"><ele>487.0</ele><time>2026-04-12T09:42:23Z</time></trkpt><trkpt lat="43.347242446373" lon="13.099097641287516"><ele>487.0</ele><time>2026-04-12T09:42:24Z</time></trkpt><trkpt lat="43.34723006712191" lon="13.098927993302402"><ele>487.20000000000005</ele><time>2026-04-12T09:42:25Z</time></trkpt><trkpt lat="43.34721720138278" lon="13.098789165664517"><ele>487.40000000000003</ele><time>2026-04-12T09:42:26Z</time></trkpt><trkpt lat="43.34720965397867" lon="13.098658108132648"><ele>487.59999999999997</ele><time>2026-04-12T09:42:27Z</time></trkpt><trkpt lat="43.34721651321701" lon="13.098522025172295"><ele>487.79999999999995</ele><time>2026-04-12T09:42:28Z</time></trkpt><trkpt lat="43.34723659874732" lon="13.098367357302674"><ele>488.0</ele><time>2026-04-12T09:42:29Z</time></trkpt><trkpt lat="43.347273837879854" lon="13.098214827554063"><ele>488.0</ele><time>2026-04-12T09:42:30Z</time></trkpt><trkpt lat="43.34731624038084" lon="13.098065709532976"><ele>488.0</ele><time>2026-04-12T09:42:31Z</time></trkpt><trkpt lat="43.34737447368259" lon="13.097846738028526"><ele>488.0</ele><time>2026-04-12T09:42:32Z</time></trkpt><trkpt lat="43.347425463537846" lon="13.097629566981146"><ele>488.0</ele><time>2026-04-12T09:42:33Z</time></trkpt><trkpt lat="43.34746575868521" lon="13.097427677729565"><ele>488.0</ele><time>2026-04-12T09:42:34Z</time></trkpt><trkpt lat="43.347500544666964" lon="13.097224698539494"><ele>488.0</ele><time>2026-04-12T09:42:35Z</time></trkpt><trkpt lat="43.3475245519101" lon="13.09703457072532"><ele>488.0</ele><time>2026-04-12T09:42:36Z</time></trkpt><trkpt lat="43.3475390294017" lon="13.096856509279498"><ele>489.0</ele><time>2026-04-12T09:42:37Z</time></trkpt><trkpt lat="43.3475412505978" lon="13.096672909612801"><ele>490.0</ele><time>2026-04-12T09:42:38Z</time></trkpt><trkpt lat="43.34753926301544" lon="13.096508252815815"><ele>491.0</ele><time>2026-04-12T09:42:39Z</time></trkpt><trkpt lat="43.347534447862046" lon="13.096371520741402"><ele>492.0</ele><time>2026-04-12T09:42:40Z</time></trkpt><trkpt lat="43.34751992175221" lon="13.096235759253581"><ele>492.0</ele><time>2026-04-12T09:42:41Z</time></trkpt><trkpt lat="43.347486303913804" lon="13.096093915469499"><ele>492.00000000000006</ele><time>2026-04-12T09:42:42Z</time></trkpt><trkpt lat="43.347445867614965" lon="13.095942989509876"><ele>492.00000000000006</ele><time>2026-04-12T09:42:43Z</time></trkpt><trkpt lat="43.34740583066771" lon="13.095816479670704"><ele>492.0</ele><time>2026-04-12T09:42:44Z</time></trkpt><trkpt lat="43.347364334986274" lon="13.09570943311045"><ele>492.0</ele><time>2026-04-12T09:42:45Z</time></trkpt><trkpt lat="43.3473122488133" lon="13.09559696952754"><ele>492.3333333333333</ele><time>2026-04-12T09:42:46.001Z</time></trkpt><trkpt lat="43.34725840599548" lon="13.095488054412131"><ele>492.66666666666663</ele><time>2026-04-12T09:42:47.001Z</time></trkpt><trkpt lat="43.347203228967246" lon="13.095383210619483"><ele>493.0</ele><time>2026-04-12T09:42:48.001Z</time></trkpt><trkpt lat="43.34716139598073" lon="13.095284769728167"><ele>493.3333333333333</ele><time>2026-04-12T09:42:49.001Z</time></trkpt><trkpt lat="43.347128806589346" lon="13.095187428750252"><ele>493.66666666666663</ele><time>2026-04-12T09:42:50.001Z</time></trkpt><trkpt lat="43.34710665408077" lon="13.095074231804944"><ele>494.0</ele><time>2026-04-12T09:42:51.001Z</time></trkpt><trkpt lat="43.34710074583938" lon="13.094958160237077"><ele>496.2</ele><time>2026-04-12T09:42:52.001Z</time></trkpt><trkpt lat="43.347102274344" lon="13.09482614512421"><ele>498.4</ele><time>2026-04-12T09:42:53.001Z</time></trkpt><trkpt lat="43.34711107739211" lon="13.094681455129322"><ele>500.6</ele><time>2026-04-12T09:42:54.001Z</time></trkpt><trkpt lat="43.34712097244688" lon="13.094540915431788"><ele>502.8</ele><time>2026-04-12T09:42:55.001Z</time></trkpt><trkpt lat="43.34714425966233" lon="13.094423541721556"><ele>505.0</ele><time>2026-04-12T09:42:56.001Z</time></trkpt><trkpt lat="43.34716919621635" lon="13.094336914963177"><ele>505.00000000000006</ele><time>2026-04-12T09:42:57.001Z</time></trkpt><trkpt lat="43.3471965999248" lon="13.094243707776373"><ele>505.0</ele><time>2026-04-12T09:42:58.001Z</time></trkpt><trkpt lat="43.34722114702912" lon="13.094091880183914"><ele>505.0</ele><time>2026-04-12T09:43:00.001Z</time></trkpt><trkpt lat="43.347214078887816" lon="13.09400361344274"><ele>505.0</ele><time>2026-04-12T09:43:01.001Z</time></trkpt><trkpt lat="43.34719661911136" lon="13.093901597595888"><ele>505.00000000000006</ele><time>2026-04-12T09:43:02.001Z</time></trkpt><trkpt lat="43.34717373746362" lon="13.09379222980447"><ele>505.0</ele><time>2026-04-12T09:43:03.001Z</time></trkpt><trkpt lat="43.34714254078289" lon="13.093667165407643"><ele>505.4</ele><time>2026-04-12T09:43:04.001Z</time></trkpt><trkpt lat="43.34711013423401" lon="13.093539207009531"><ele>505.8</ele><time>2026-04-12T09:43:05.001Z</time></trkpt><trkpt lat="43.347076882815784" lon="13.093407773573192"><ele>506.20000000000005</ele><time>2026-04-12T09:43:06.001Z</time></trkpt><trkpt lat="43.34703122738593" lon="13.093300415891006"><ele>506.6</ele><time>2026-04-12T09:43:07.001Z</time></trkpt><trkpt lat="43.34696366685404" lon="13.093178915750244"><ele>507.0</ele><time>2026-04-12T09:43:08.001Z</time></trkpt><trkpt lat="43.34689137452714" lon="13.09305923474489"><ele>507.25</ele><time>2026-04-12T09:43:09.001Z</time></trkpt><trkpt lat="43.34683019311509" lon="13.092927142820832"><ele>507.5</ele><time>2026-04-12T09:43:10.001Z</time></trkpt><trkpt lat="43.34676375295706" lon="13.092768802762798"><ele>507.75</ele><time>2026-04-12T09:43:11.001Z</time></trkpt><trkpt lat="43.346708478255195" lon="13.09260999615939"><ele>508.0</ele><time>2026-04-12T09:43:12.001Z</time></trkpt><trkpt lat="43.34665970340717" lon="13.092455797283606"><ele>509.4</ele><time>2026-04-12T09:43:13Z</time></trkpt><trkpt lat="43.34661133362106" lon="13.09230534637609"><ele>510.79999999999995</ele><time>2026-04-12T09:43:14Z</time></trkpt><trkpt lat="43.3465589620184" lon="13.092166754410405"><ele>512.2</ele><time>2026-04-12T09:43:15Z</time></trkpt><trkpt lat="43.3465134243079" lon="13.092029281581539"><ele>513.6</ele><time>2026-04-12T09:43:16Z</time></trkpt><trkpt lat="43.34647628528781" lon="13.091915805939133"><ele>515.0</ele><time>2026-04-12T09:43:17Z</time></trkpt><trkpt lat="43.346436294936915" lon="13.091831040003184"><ele>515.0</ele><time>2026-04-12T09:43:18Z</time></trkpt><trkpt lat="43.34638134905549" lon="13.091731988935218"><ele>515.0</ele><time>2026-04-12T09:43:19Z</time></trkpt><trkpt lat="43.34631354621613" lon="13.091642691032112"><ele>515.0</ele><time>2026-04-12T09:43:20Z</time></trkpt><trkpt lat="43.34625170624191" lon="13.09155779623882"><ele>515.0</ele><time>2026-04-12T09:43:21Z</time></trkpt><trkpt lat="43.34620655277045" lon="13.091457467529427"><ele>515.0</ele><time>2026-04-12T09:43:22Z</time></trkpt><trkpt lat="43.34616654683293" lon="13.091329366857094"><ele>516.6</ele><time>2026-04-12T09:43:23Z</time></trkpt><trkpt lat="43.3461256532203" lon="13.091175093959912"><ele>518.2</ele><time>2026-04-12T09:43:24Z</time></trkpt><trkpt lat="43.34609620766534" lon="13.091029179377978"><ele>519.8</ele><time>2026-04-12T09:43:25Z</time></trkpt><trkpt lat="43.34606635892576" lon="13.090893853848804"><ele>521.4</ele><time>2026-04-12T09:43:26Z</time></trkpt><trkpt lat="43.34604608472316" lon="13.0907663326481"><ele>523.0</ele><time>2026-04-12T09:43:27Z</time></trkpt><trkpt lat="43.34602973267493" lon="13.090646850046152"><ele>523.1999999999999</ele><time>2026-04-12T09:43:28Z</time></trkpt><trkpt lat="43.346015787736455" lon="13.090525494977001"><ele>523.4</ele><time>2026-04-12T09:43:29Z</time></trkpt><trkpt lat="43.346002670112746" lon="13.090381872851147"><ele>523.5999999999999</ele><time>2026-04-12T09:43:30Z</time></trkpt><trkpt lat="43.34599436968498" lon="13.090213552204903"><ele>523.8</ele><time>2026-04-12T09:43:31Z</time></trkpt><trkpt lat="43.34599489038944" lon="13.090036648103053"><ele>524.0</ele><time>2026-04-12T09:43:32Z</time></trkpt><trkpt lat="43.34598118480043" lon="13.089883392427133"><ele>524.1666666666666</ele><time>2026-04-12T09:43:33Z</time></trkpt><trkpt lat="43.34598609503452" lon="13.089750193715908"><ele>524.3333333333333</ele><time>2026-04-12T09:43:34Z</time></trkpt><trkpt lat="43.345995307874794" lon="13.089637719684761"><ele>524.5</ele><time>2026-04-12T09:43:35Z</time></trkpt><trkpt lat="43.346001401278414" lon="13.08952920542807"><ele>524.6666666666666</ele><time>2026-04-12T09:43:36Z</time></trkpt><trkpt lat="43.34601870250507" lon="13.08943544063259"><ele>524.8333333333334</ele><time>2026-04-12T09:43:37Z</time></trkpt><trkpt lat="43.34603618164819" lon="13.089327767029678"><ele>525.0</ele><time>2026-04-12T09:43:38Z</time></trkpt><trkpt lat="43.346067815037095" lon="13.089208250901871"><ele>525.2</ele><time>2026-04-12T09:43:39Z</time></trkpt><trkpt lat="43.346099815864264" lon="13.089072803600358"><ele>525.4</ele><time>2026-04-12T09:43:40Z</time></trkpt><trkpt lat="43.346128554837534" lon="13.08892905301296"><ele>525.6</ele><time>2026-04-12T09:43:41Z</time></trkpt><trkpt lat="43.34615756993531" lon="13.088787571923174"><ele>525.8</ele><time>2026-04-12T09:43:42Z</time></trkpt><trkpt lat="43.34618915176949" lon="13.08865469466036"><ele>526.0</ele><time>2026-04-12T09:43:43Z</time></trkpt><trkpt lat="43.34621421054131" lon="13.088516386059265"><ele>526.0</ele><time>2026-04-12T09:43:44Z</time></trkpt><trkpt lat="43.3462358679545" lon="13.088385815352023"><ele>526.0</ele><time>2026-04-12T09:43:45Z</time></trkpt><trkpt lat="43.34625849689151" lon="13.088239412846344"><ele>526.0</ele><time>2026-04-12T09:43:46Z</time></trkpt><trkpt lat="43.346284154889865" lon="13.088101447392576"><ele>526.0</ele><time>2026-04-12T09:43:47Z</time></trkpt><trkpt lat="43.34630713647264" lon="13.08798194696597"><ele>526.0</ele><time>2026-04-12T09:43:48Z</time></trkpt><trkpt lat="43.34632963844331" lon="13.087873397860855"><ele>527.4</ele><time>2026-04-12T09:43:49Z</time></trkpt><trkpt lat="43.346362632522045" lon="13.0877438282091"><ele>528.8</ele><time>2026-04-12T09:43:50Z</time></trkpt><trkpt lat="43.346386541542216" lon="13.087616322258983"><ele>530.1999999999999</ele><time>2026-04-12T09:43:51Z</time></trkpt><trkpt lat="43.34641320810668" lon="13.087461399293302"><ele>531.6</ele><time>2026-04-12T09:43:52Z</time></trkpt><trkpt lat="43.34644492357464" lon="13.087308409910621"><ele>533.0</ele><time>2026-04-12T09:43:53Z</time></trkpt><trkpt lat="43.34648269114225" lon="13.087157553789742"><ele>533.25</ele><time>2026-04-12T09:43:54Z</time></trkpt><trkpt lat="43.346521568891006" lon="13.087003477558126"><ele>533.5</ele><time>2026-04-12T09:43:55Z</time></trkpt><trkpt lat="43.34656971333284" lon="13.086849514132972"><ele>533.75</ele><time>2026-04-12T09:43:56Z</time></trkpt><trkpt lat="43.3466186941531" lon="13.086690406768781"><ele>534.0</ele><time>2026-04-12T09:43:57Z</time></trkpt><trkpt lat="43.34666755737644" lon="13.086529213113353"><ele>536.0</ele><time>2026-04-12T09:43:58Z</time></trkpt><trkpt lat="43.346713882312834" lon="13.086359947763878"><ele>538.0</ele><time>2026-04-12T09:43:59Z</time></trkpt><trkpt lat="43.34675377746794" lon="13.086208318526706"><ele>540.0</ele><time>2026-04-12T09:44:00Z</time></trkpt><trkpt lat="43.34678436447366" lon="13.086087555427154"><ele>542.0</ele><time>2026-04-12T09:44:01Z</time></trkpt><trkpt lat="43.34681271363522" lon="13.08598407889263"><ele>544.0</ele><time>2026-04-12T09:44:02Z</time></trkpt><trkpt lat="43.34684152072175" lon="13.08586775257681"><ele>547.6</ele><time>2026-04-12T09:44:03Z</time></trkpt><trkpt lat="43.346861033032944" lon="13.085743141527928"><ele>551.2</ele><time>2026-04-12T09:44:04Z</time></trkpt><trkpt lat="43.346873196478406" lon="13.085605240885043"><ele>554.8000000000001</ele><time>2026-04-12T09:44:05Z</time></trkpt><trkpt lat="43.34688158210773" lon="13.085468667617825"><ele>558.4</ele><time>2026-04-12T09:44:06Z</time></trkpt><trkpt lat="43.34688114812793" lon="13.085336174508821"><ele>562.0</ele><time>2026-04-12T09:44:07Z</time></trkpt><trkpt lat="43.346870148720456" lon="13.08519063440675"><ele>562.0</ele><time>2026-04-12T09:44:08Z</time></trkpt><trkpt lat="43.34683619758643" lon="13.085051992508237"><ele>562.0</ele><time>2026-04-12T09:44:09Z</time></trkpt><trkpt lat="43.34684532980854" lon="13.084909791693272"><ele>562.0</ele><time>2026-04-12T09:44:10Z</time></trkpt><trkpt lat="43.34684977158668" lon="13.084698770285936"><ele>562.0</ele><time>2026-04-12T09:44:11Z</time></trkpt><trkpt lat="43.34684265482138" lon="13.084526084990248"><ele>564.3333333333334</ele><time>2026-04-12T09:44:12Z</time></trkpt><trkpt lat="43.34682919780161" lon="13.08439004967842"><ele>566.6666666666667</ele><time>2026-04-12T09:44:13Z</time></trkpt><trkpt lat="43.34682135621601" lon="13.084281454381431"><ele>569.0</ele><time>2026-04-12T09:44:14Z</time></trkpt><trkpt lat="43.346804495046804" lon="13.08417943603054"><ele>571.3333333333334</ele><time>2026-04-12T09:44:15Z</time></trkpt><trkpt lat="43.34680018448576" lon="13.084074395392996"><ele>573.6666666666666</ele><time>2026-04-12T09:44:16Z</time></trkpt><trkpt lat="43.346808434494406" lon="13.083976578127377"><ele>576.0</ele><time>2026-04-12T09:44:17Z</time></trkpt><trkpt lat="43.34683722742133" lon="13.083888341873081"><ele>580.2</ele><time>2026-04-12T09:44:18Z</time></trkpt><trkpt lat="43.34688537621176" lon="13.083771035767278"><ele>584.4000000000001</ele><time>2026-04-12T09:44:20Z</time></trkpt><trkpt lat="43.34696313970671" lon="13.083666495954278"><ele>588.6</ele><time>2026-04-12T09:46:53Z</time></trkpt><trkpt lat="43.3469858246475" lon="13.083579230015786"><ele>592.8000000000001</ele><time>2026-04-12T09:46:54Z</time></trkpt><trkpt lat="43.347043710772624" lon="13.083417398700437"><ele>597.0</ele><time>2026-04-12T09:46:56.001Z</time></trkpt><trkpt lat="43.34710369788796" lon="13.083274458740165"><ele>599.0</ele><time>2026-04-12T09:46:58.001Z</time></trkpt><trkpt lat="43.3471223138381" lon="13.083124073116865"><ele>601.0</ele><time>2026-04-12T09:47:00.001Z</time></trkpt><trkpt lat="43.34709698041038" lon="13.082958969273719"><ele>603.0</ele><time>2026-04-12T09:47:02.001Z</time></trkpt><trkpt lat="43.3471411744208" lon="13.082888900703532"><ele>605.0</ele><time>2026-04-12T09:47:03.001Z</time></trkpt><trkpt lat="43.34717243009097" lon="13.082771292799007"><ele>607.0</ele><time>2026-04-12T09:47:05.001Z</time></trkpt><trkpt lat="43.34723767949903" lon="13.08256834601798"><ele>607.0</ele><time>2026-04-12T09:47:07.001Z</time></trkpt><trkpt lat="43.34726431254342" lon="13.082480624864633"><ele>607.0</ele><time>2026-04-12T09:47:08.001Z</time></trkpt><trkpt lat="43.347244819636984" lon="13.082315657642917"><ele>607.0</ele><time>2026-04-12T09:47:10.001Z</time></trkpt><trkpt lat="43.34722049508307" lon="13.082186719590743"><ele>607.0</ele><time>2026-04-12T09:47:11.001Z</time></trkpt><trkpt lat="43.34724337030544" lon="13.082023012283269"><ele>607.0</ele><time>2026-04-12T09:47:12.001Z</time></trkpt><trkpt lat="43.34721676347168" lon="13.081904416494421"><ele>613.75</ele><time>2026-04-12T09:47:13.001Z</time></trkpt><trkpt lat="43.34714447349265" lon="13.081745586611717"><ele>620.5</ele><time>2026-04-12T09:47:14.001Z</time></trkpt><trkpt lat="43.34712447963929" lon="13.081589438766633"><ele>627.25</ele><time>2026-04-12T09:47:15.001Z</time></trkpt><trkpt lat="43.347104842666276" lon="13.081428316591166"><ele>634.0</ele><time>2026-04-12T09:47:16.001Z</time></trkpt><trkpt lat="43.34709835414048" lon="13.08126585945588"><ele>634.4</ele><time>2026-04-12T09:47:17.001Z</time></trkpt><trkpt lat="43.34708676081629" lon="13.081130402816848"><ele>634.8</ele><time>2026-04-12T09:47:18.001Z</time></trkpt><trkpt lat="43.34707860855198" lon="13.08099178211479"><ele>635.2</ele><time>2026-04-12T09:47:19.001Z</time></trkpt><trkpt lat="43.34706221477949" lon="13.080865852467106"><ele>635.6</ele><time>2026-04-12T09:47:20.001Z</time></trkpt><trkpt lat="43.3470441367732" lon="13.080707376777724"><ele>636.0</ele><time>2026-04-12T09:47:22.001Z</time></trkpt><trkpt lat="43.347054071294885" lon="13.080600359357401"><ele>636.1666666666666</ele><time>2026-04-12T09:47:23.001Z</time></trkpt><trkpt lat="43.34705271846473" lon="13.08044341177984"><ele>636.3333333333334</ele><time>2026-04-12T09:47:25Z</time></trkpt><trkpt lat="43.34701298461362" lon="13.08035516893406"><ele>636.5</ele><time>2026-04-12T09:47:26Z</time></trkpt><trkpt lat="43.346974092551726" lon="13.080262453882435"><ele>636.6666666666667</ele><time>2026-04-12T09:47:27Z</time></trkpt><trkpt lat="43.34691947395509" lon="13.080159977662497"><ele>636.8333333333334</ele><time>2026-04-12T09:47:28Z</time></trkpt><trkpt lat="43.346883322155406" lon="13.080062273345522"><ele>637.0</ele><time>2026-04-12T09:47:29Z</time></trkpt><trkpt lat="43.34683524183674" lon="13.079989031011001"><ele>638.0</ele><time>2026-04-12T09:47:30Z</time></trkpt><trkpt lat="43.34676875721261" lon="13.07990897975787"><ele>639.0</ele><time>2026-04-12T09:47:32Z</time></trkpt><trkpt lat="43.34677952536937" lon="13.07978163026946"><ele>640.0</ele><time>2026-04-12T09:47:34Z</time></trkpt><trkpt lat="43.346770582135974" lon="13.079666206037512"><ele>641.0</ele><time>2026-04-12T09:47:36Z</time></trkpt><trkpt lat="43.34680373411475" lon="13.079583180076204"><ele>642.0</ele><time>2026-04-12T09:47:37Z</time></trkpt><trkpt lat="43.346804027428846" lon="13.07947440984321"><ele>643.0</ele><time>2026-04-12T09:47:38Z</time></trkpt><trkpt lat="43.34679401927727" lon="13.079333811650121"><ele>643.0</ele><time>2026-04-12T09:47:40Z</time></trkpt><trkpt lat="43.34680921578748" lon="13.079186556047757"><ele>643.0</ele><time>2026-04-12T09:47:42Z</time></trkpt><trkpt lat="43.34682193420094" lon="13.079091866560347"><ele>643.0</ele><time>2026-04-12T09:47:43Z</time></trkpt><trkpt lat="43.34685230340295" lon="13.078918727027379"><ele>643.0</ele><time>2026-04-12T09:47:45Z</time></trkpt><trkpt lat="43.346849991843364" lon="13.078725209094975"><ele>643.0</ele><time>2026-04-12T09:47:47Z</time></trkpt><trkpt lat="43.346873254354655" lon="13.078614522261393"><ele>644.2</ele><time>2026-04-12T09:47:48Z</time></trkpt><trkpt lat="43.346843235599195" lon="13.078480670892482"><ele>645.4</ele><time>2026-04-12T09:47:49Z</time></trkpt><trkpt lat="43.346787535712224" lon="13.07834607342496"><ele>646.6</ele><time>2026-04-12T09:47:50Z</time></trkpt><trkpt lat="43.34677254152326" lon="13.078204936768577"><ele>647.8000000000001</ele><time>2026-04-12T09:47:51Z</time></trkpt><trkpt lat="43.346782568547106" lon="13.078083041737901"><ele>649.0</ele><time>2026-04-12T09:47:52Z</time></trkpt><trkpt lat="43.34675990526796" lon="13.077944803195322"><ele>649.5</ele><time>2026-04-12T09:47:53Z</time></trkpt><trkpt lat="43.346734113931504" lon="13.077837071776216"><ele>650.0</ele><time>2026-04-12T09:47:54Z</time></trkpt><trkpt lat="43.34671051112566" lon="13.077745904033392"><ele>650.5</ele><time>2026-04-12T09:47:55Z</time></trkpt><trkpt lat="43.346695870560424" lon="13.077658567989"><ele>651.0</ele><time>2026-04-12T09:47:56Z</time></trkpt><trkpt lat="43.34671384137988" lon="13.077497192352183"><ele>651.5</ele><time>2026-04-12T09:47:58Z</time></trkpt><trkpt lat="43.34671827918397" lon="13.077377225600591"><ele>652.0</ele><time>2026-04-12T09:47:59Z</time></trkpt><trkpt lat="43.346672877037555" lon="13.077233993799553"><ele>654.4000000000001</ele><time>2026-04-12T09:48:01Z</time></trkpt><trkpt lat="43.34662374506417" lon="13.077147514337188"><ele>656.8000000000001</ele><time>2026-04-12T09:48:02Z</time></trkpt><trkpt lat="43.34655770064679" lon="13.07706401434772"><ele>659.2</ele><time>2026-04-12T09:48:03Z</time></trkpt><trkpt lat="43.346479723483945" lon="13.076947607046682"><ele>661.6</ele><time>2026-04-12T09:48:04Z</time></trkpt><trkpt lat="43.34641638924056" lon="13.076838437773967"><ele>664.0</ele><time>2026-04-12T09:48:05Z</time></trkpt><trkpt lat="43.34634762205588" lon="13.076722609064664"><ele>666.2</ele><time>2026-04-12T09:48:06Z</time></trkpt><trkpt lat="43.34630886859128" lon="13.076638123829659"><ele>668.4000000000001</ele><time>2026-04-12T09:48:07Z</time></trkpt><trkpt lat="43.346267732170695" lon="13.076570847606273"><ele>670.6</ele><time>2026-04-12T09:48:08Z</time></trkpt><trkpt lat="43.34620811601456" lon="13.076415571912023"><ele>672.8</ele><time>2026-04-12T09:48:10Z</time></trkpt><trkpt lat="43.34617088105553" lon="13.076305143666485"><ele>675.0</ele><time>2026-04-12T09:48:11Z</time></trkpt><trkpt lat="43.346167995888834" lon="13.076170045635461"><ele>675.0</ele><time>2026-04-12T09:48:12Z</time></trkpt><trkpt lat="43.3461181774421" lon="13.076030825636938"><ele>675.0</ele><time>2026-04-12T09:48:14Z</time></trkpt><trkpt lat="43.34605802859374" lon="13.075934745903902"><ele>675.0</ele><time>2026-04-12T09:48:15Z</time></trkpt><trkpt lat="43.346016758261776" lon="13.07585997705321"><ele>675.0</ele><time>2026-04-12T09:48:16Z</time></trkpt><trkpt lat="43.345964595813896" lon="13.075755203768303"><ele>675.0</ele><time>2026-04-12T09:48:18Z</time></trkpt><trkpt lat="43.345929473522105" lon="13.075585954742767"><ele>675.1666666666666</ele><time>2026-04-12T09:48:20Z</time></trkpt><trkpt lat="43.34591611508076" lon="13.075500530160332"><ele>675.3333333333334</ele><time>2026-04-12T09:48:21Z</time></trkpt><trkpt lat="43.34588591266227" lon="13.075323400684947"><ele>675.5</ele><time>2026-04-12T09:48:23Z</time></trkpt><trkpt lat="43.34586631461551" lon="13.075213013233297"><ele>675.6666666666667</ele><time>2026-04-12T09:48:24Z</time></trkpt><trkpt lat="43.345860462723515" lon="13.075089176297949"><ele>675.8333333333334</ele><time>2026-04-12T09:48:25Z</time></trkpt><trkpt lat="43.345870840599844" lon="13.074982366196656"><ele>676.0</ele><time>2026-04-12T09:48:26Z</time></trkpt><trkpt lat="43.34588364740636" lon="13.074837720335225"><ele>676.8333333333334</ele><time>2026-04-12T09:48:28Z</time></trkpt><trkpt lat="43.34589870008943" lon="13.074749146291408"><ele>677.6666666666667</ele><time>2026-04-12T09:48:29Z</time></trkpt><trkpt lat="43.34591767241766" lon="13.07466512795481"><ele>678.5</ele><time>2026-04-12T09:48:30Z</time></trkpt><trkpt lat="43.345913191044104" lon="13.074571953505254"><ele>679.3333333333334</ele><time>2026-04-12T09:48:31Z</time></trkpt><trkpt lat="43.345895209834836" lon="13.074481829064869"><ele>680.1666666666666</ele><time>2026-04-12T09:48:32Z</time></trkpt><trkpt lat="43.34585928388449" lon="13.07431685122432"><ele>681.0</ele><time>2026-04-12T09:48:34Z</time></trkpt><trkpt lat="43.34583067098955" lon="13.074197072082987"><ele>683.0</ele><time>2026-04-12T09:48:35Z</time></trkpt><trkpt lat="43.34579800974632" lon="13.074046265321853"><ele>685.0</ele><time>2026-04-12T09:48:36Z</time></trkpt><trkpt lat="43.345782069677526" lon="13.073886359659465"><ele>687.0</ele><time>2026-04-12T09:48:37Z</time></trkpt><trkpt lat="43.34573343169821" lon="13.073719082819933"><ele>689.0</ele><time>2026-04-12T09:48:38Z</time></trkpt><trkpt lat="43.345710254046004" lon="13.073562895460885"><ele>689.0</ele><time>2026-04-12T09:48:39Z</time></trkpt><trkpt lat="43.345697567620526" lon="13.073412875208225"><ele>689.0</ele><time>2026-04-12T09:48:40Z</time></trkpt><trkpt lat="43.345701167726936" lon="13.073306836404146"><ele>689.0</ele><time>2026-04-12T09:48:41Z</time></trkpt><trkpt lat="43.34569041305615" lon="13.07321425440089"><ele>689.0</ele><time>2026-04-12T09:48:42Z</time></trkpt><trkpt lat="43.345664205929836" lon="13.073113325488995"><ele>689.0</ele><time>2026-04-12T09:48:44Z</time></trkpt><trkpt lat="43.34559447665416" lon="13.072984233204876"><ele>691.3333333333333</ele><time>2026-04-12T09:48:46Z</time></trkpt><trkpt lat="43.34554585572423" lon="13.072905329996628"><ele>693.6666666666666</ele><time>2026-04-12T09:48:47Z</time></trkpt><trkpt lat="43.34548854076793" lon="13.072822004650767"><ele>696.0</ele><time>2026-04-12T09:48:48Z</time></trkpt><trkpt lat="43.34545978610102" lon="13.072718500069046"><ele>698.3333333333334</ele><time>2026-04-12T09:48:49Z</time></trkpt><trkpt lat="43.34544248959566" lon="13.072604273812122"><ele>700.6666666666667</ele><time>2026-04-12T09:48:50.001Z</time></trkpt><trkpt lat="43.34542201896147" lon="13.072469398218264"><ele>703.0</ele><time>2026-04-12T09:48:51.001Z</time></trkpt><trkpt lat="43.34539142730503" lon="13.072332310725992"><ele>703.4</ele><time>2026-04-12T09:48:52.001Z</time></trkpt><trkpt lat="43.345363961315066" lon="13.072210521784001"><ele>703.8</ele><time>2026-04-12T09:48:53.001Z</time></trkpt><trkpt lat="43.34533696308436" lon="13.072044855595797"><ele>704.2</ele><time>2026-04-12T09:48:54.001Z</time></trkpt><trkpt lat="43.345299083272494" lon="13.071910692448942"><ele>704.6</ele><time>2026-04-12T09:48:55.001Z</time></trkpt><trkpt lat="43.34527215025168" lon="13.071789779053981"><ele>705.0</ele><time>2026-04-12T09:48:56.001Z</time></trkpt><trkpt lat="43.34523814111391" lon="13.071648416138968"><ele>707.0</ele><time>2026-04-12T09:48:57.001Z</time></trkpt><trkpt lat="43.34520142642609" lon="13.071498443461802"><ele>709.0</ele><time>2026-04-12T09:48:58.001Z</time></trkpt><trkpt lat="43.34515895776649" lon="13.071360391712098"><ele>711.0</ele><time>2026-04-12T09:48:59.001Z</time></trkpt><trkpt lat="43.34512136105337" lon="13.0712363923603"><ele>713.0</ele><time>2026-04-12T09:49:00.001Z</time></trkpt><trkpt lat="43.34510503987152" lon="13.071114146550006"><ele>715.0</ele><time>2026-04-12T09:49:01.001Z</time></trkpt><trkpt lat="43.34508918327204" lon="13.070998143861942"><ele>715.0</ele><time>2026-04-12T09:49:02.001Z</time></trkpt><trkpt lat="43.345067266339505" lon="13.070867793711598"><ele>715.0</ele><time>2026-04-12T09:49:03.001Z</time></trkpt><trkpt lat="43.345041140606476" lon="13.070748783543706"><ele>715.0</ele><time>2026-04-12T09:49:04.001Z</time></trkpt><trkpt lat="43.345011643840316" lon="13.07062104104805"><ele>715.0</ele><time>2026-04-12T09:49:05.001Z</time></trkpt><trkpt lat="43.34498421435945" lon="13.070493985462962"><ele>715.0</ele><time>2026-04-12T09:49:06.001Z</time></trkpt><trkpt lat="43.34495271696931" lon="13.070359783981871"><ele>716.8333333333334</ele><time>2026-04-12T09:49:07.001Z</time></trkpt><trkpt lat="43.344899872858996" lon="13.070237559824479"><ele>718.6666666666667</ele><time>2026-04-12T09:49:08.001Z</time></trkpt><trkpt lat="43.34485244521639" lon="13.070118830024862"><ele>720.5</ele><time>2026-04-12T09:49:09.001Z</time></trkpt><trkpt lat="43.34480722646803" lon="13.069994096510962"><ele>722.3333333333334</ele><time>2026-04-12T09:49:10.001Z</time></trkpt><trkpt lat="43.34478012578093" lon="13.069900307549807"><ele>724.1666666666666</ele><time>2026-04-12T09:49:11.001Z</time></trkpt><trkpt lat="43.34476935302187" lon="13.069808360402229"><ele>726.0</ele><time>2026-04-12T09:49:12.001Z</time></trkpt><trkpt lat="43.34471910732174" lon="13.069646287104876"><ele>728.3333333333334</ele><time>2026-04-12T09:49:14.001Z</time></trkpt><trkpt lat="43.34467650015704" lon="13.069554949646252"><ele>730.6666666666666</ele><time>2026-04-12T09:49:15.001Z</time></trkpt><trkpt lat="43.344635327391515" lon="13.069482236988794"><ele>733.0</ele><time>2026-04-12T09:49:16.001Z</time></trkpt><trkpt lat="43.34459994088223" lon="13.06940231078999"><ele>735.3333333333333</ele><time>2026-04-12T09:49:17.001Z</time></trkpt><trkpt lat="43.344539521787816" lon="13.069248455737695"><ele>737.6666666666666</ele><time>2026-04-12T09:49:19.001Z</time></trkpt><trkpt lat="43.34451076483503" lon="13.069133679583768"><ele>740.0</ele><time>2026-04-12T09:49:20.001Z</time></trkpt><trkpt lat="43.344479587555995" lon="13.069003644860889"><ele>740.6</ele><time>2026-04-12T09:49:21.001Z</time></trkpt><trkpt lat="43.34444014321827" lon="13.068875876434504"><ele>741.2</ele><time>2026-04-12T09:49:22.001Z</time></trkpt><trkpt lat="43.344397209005585" lon="13.068771565072737"><ele>741.8</ele><time>2026-04-12T09:49:23.001Z</time></trkpt><trkpt lat="43.344359195002696" lon="13.0686714661097"><ele>742.4</ele><time>2026-04-12T09:49:24.001Z</time></trkpt><trkpt lat="43.34431228214771" lon="13.068544545985414"><ele>743.0</ele><time>2026-04-12T09:49:26.001Z</time></trkpt><trkpt lat="43.344284647186896" lon="13.068425596605275"><ele>743.0</ele><time>2026-04-12T09:49:28.001Z</time></trkpt><trkpt lat="43.34429362560992" lon="13.068328843106467"><ele>743.0</ele><time>2026-04-12T09:49:30.001Z</time></trkpt><trkpt lat="43.344257061182546" lon="13.068252214505062"><ele>743.0</ele><time>2026-04-12T09:49:43Z</time></trkpt><trkpt lat="43.34417663525741" lon="13.06811530841608"><ele>743.0</ele><time>2026-04-12T09:49:45Z</time></trkpt><trkpt lat="43.34413416954483" lon="13.068039861112084"><ele>743.0</ele><time>2026-04-12T09:49:46Z</time></trkpt><trkpt lat="43.34408853645665" lon="13.067957401584822"><ele>743.0</ele><time>2026-04-12T09:49:47Z</time></trkpt><trkpt lat="43.34404026313509" lon="13.067888210760458"><ele>747.1666666666666</ele><time>2026-04-12T09:49:48Z</time></trkpt><trkpt lat="43.343985772303" lon="13.067833518423685"><ele>751.3333333333333</ele><time>2026-04-12T09:49:49Z</time></trkpt><trkpt lat="43.343907485940605" lon="13.06778477277197"><ele>755.5</ele><time>2026-04-12T09:49:50Z</time></trkpt><trkpt lat="43.3438197997841" lon="13.067739951764512"><ele>759.6666666666666</ele><time>2026-04-12T09:49:51Z</time></trkpt><trkpt lat="43.34373868150172" lon="13.067695737641913"><ele>763.8333333333334</ele><time>2026-04-12T09:49:52Z</time></trkpt><trkpt lat="43.34366126245847" lon="13.06765409920451"><ele>768.0</ele><time>2026-04-12T09:49:53Z</time></trkpt><trkpt lat="43.343585655902274" lon="13.067607487061398"><ele>768.0</ele><time>2026-04-12T09:49:54Z</time></trkpt><trkpt lat="43.34352021659683" lon="13.067580314117826"><ele>768.0</ele><time>2026-04-12T09:49:55Z</time></trkpt><trkpt lat="43.343398783064174" lon="13.06755375474242"><ele>768.0</ele><time>2026-04-12T09:49:57Z</time></trkpt><trkpt lat="43.343335332253865" lon="13.06753380272132"><ele>768.0</ele><time>2026-04-12T09:49:58Z</time></trkpt><trkpt lat="43.343230668545374" lon="13.067475456098137"><ele>768.0</ele><time>2026-04-12T09:50:00Z</time></trkpt><trkpt lat="43.343174917756386" lon="13.067422579852344"><ele>768.0</ele><time>2026-04-12T09:50:01Z</time></trkpt><trkpt lat="43.343063189238556" lon="13.067325300793193"><ele>771.7142857142857</ele><time>2026-04-12T09:50:03Z</time></trkpt><trkpt lat="43.34301480305624" lon="13.067265728939729"><ele>775.4285714285714</ele><time>2026-04-12T09:50:04Z</time></trkpt><trkpt lat="43.342913357927884" lon="13.06717118850922"><ele>779.1428571428571</ele><time>2026-04-12T09:50:06Z</time></trkpt><trkpt lat="43.342851145374915" lon="13.067137112477633"><ele>782.8571428571429</ele><time>2026-04-12T09:50:07Z</time></trkpt><trkpt lat="43.3427848191637" lon="13.06712473812509"><ele>786.5714285714286</ele><time>2026-04-12T09:50:08Z</time></trkpt><trkpt lat="43.34272631116646" lon="13.06709158151073"><ele>790.2857142857142</ele><time>2026-04-12T09:50:12Z</time></trkpt><trkpt lat="43.34278933166856" lon="13.067108758309727"><ele>794.0</ele><time>2026-04-12T09:50:34Z</time></trkpt><trkpt lat="43.34285852462544" lon="13.067154316987553"><ele>794.0000000000001</ele><time>2026-04-12T09:50:37Z</time></trkpt><trkpt lat="43.34292884493423" lon="13.067200677770744"><ele>794.0</ele><time>2026-04-12T09:50:40Z</time></trkpt><trkpt lat="43.34301739825032" lon="13.06727512937466"><ele>794.0</ele><time>2026-04-12T09:50:43Z</time></trkpt><trkpt lat="43.343058755906554" lon="13.067359917153071"><ele>794.0</ele><time>2026-04-12T09:50:45Z</time></trkpt><trkpt lat="43.34313328842701" lon="13.067378087140199"><ele>794.0000000000001</ele><time>2026-04-12T09:50:46Z</time></trkpt><trkpt lat="43.34322111335024" lon="13.067460384770818"><ele>794.0</ele><time>2026-04-12T09:50:48Z</time></trkpt><trkpt lat="43.3433125843485" lon="13.0675344022061"><ele>788.8000000000001</ele><time>2026-04-12T09:50:50Z</time></trkpt><trkpt lat="43.343396371392956" lon="13.067573882518786"><ele>783.6</ele><time>2026-04-12T09:50:52Z</time></trkpt><trkpt lat="43.34349690754412" lon="13.067584247478424"><ele>778.4</ele><time>2026-04-12T09:50:54Z</time></trkpt><trkpt lat="43.343614549507976" lon="13.067606852923928"><ele>773.2</ele><time>2026-04-12T09:50:56Z</time></trkpt><trkpt lat="43.34369827612869" lon="13.067660549924613"><ele>768.0</ele><time>2026-04-12T09:50:58Z</time></trkpt><trkpt lat="43.343789646297225" lon="13.067721662637629"><ele>768.0</ele><time>2026-04-12T09:51:00Z</time></trkpt><trkpt lat="43.34383877361641" lon="13.06777629805745"><ele>768.0</ele><time>2026-04-12T09:51:01Z</time></trkpt><trkpt lat="43.343948894053085" lon="13.067825935290257"><ele>768.0</ele><time>2026-04-12T09:51:03Z</time></trkpt><trkpt lat="43.344038657741244" lon="13.067885730200913"><ele>768.0</ele><time>2026-04-12T09:51:05Z</time></trkpt><trkpt lat="43.34410167009692" lon="13.067995628054003"><ele>768.0</ele><time>2026-04-12T09:51:07Z</time></trkpt><trkpt lat="43.34417073745745" lon="13.068135571266073"><ele>768.0</ele><time>2026-04-12T09:51:09Z</time></trkpt><trkpt lat="43.34424728574575" lon="13.06826324348231"><ele>768.0</ele><time>2026-04-12T09:51:11Z</time></trkpt><trkpt lat="43.34429373244968" lon="13.068329318780949"><ele>768.0</ele><time>2026-04-12T09:51:13Z</time></trkpt><trkpt lat="43.344319475142804" lon="13.068410450041018"><ele>768.0</ele><time>2026-04-12T09:51:18Z</time></trkpt><trkpt lat="43.34430084792212" lon="13.068512766609896"><ele>768.0</ele><time>2026-04-12T09:51:20Z</time></trkpt><trkpt lat="43.344316085080514" lon="13.068657393438356"><ele>768.0</ele><time>2026-04-12T09:51:22Z</time></trkpt><trkpt lat="43.344349045997745" lon="13.068747748398296"><ele>764.4285714285713</ele><time>2026-04-12T09:51:23.001Z</time></trkpt><trkpt lat="43.344387707096196" lon="13.068835764589467"><ele>760.8571428571429</ele><time>2026-04-12T09:51:24.001Z</time></trkpt><trkpt lat="43.34441582759106" lon="13.068914397566747"><ele>757.2857142857142</ele><time>2026-04-12T09:51:25.001Z</time></trkpt><trkpt lat="43.34444828082263" lon="13.069002759089317"><ele>753.7142857142857</ele><time>2026-04-12T09:51:26.001Z</time></trkpt><trkpt lat="43.344475498827876" lon="13.069094454820071"><ele>750.1428571428571</ele><time>2026-04-12T09:51:27.001Z</time></trkpt><trkpt lat="43.34450458835544" lon="13.069197803095653"><ele>746.5714285714286</ele><time>2026-04-12T09:51:28.001Z</time></trkpt><trkpt lat="43.344531492871425" lon="13.069289706396013"><ele>743.0</ele><time>2026-04-12T09:51:29.001Z</time></trkpt><trkpt lat="43.344558689281186" lon="13.069378640459698"><ele>742.4</ele><time>2026-04-12T09:51:30.001Z</time></trkpt><trkpt lat="43.344589783355815" lon="13.069466463152756"><ele>741.8</ele><time>2026-04-12T09:51:31.001Z</time></trkpt><trkpt lat="43.34464973190366" lon="13.069600906646343"><ele>741.2</ele><time>2026-04-12T09:51:33.001Z</time></trkpt><trkpt lat="43.34470736771888" lon="13.069718716304354"><ele>740.6</ele><time>2026-04-12T09:51:35.001Z</time></trkpt><trkpt lat="43.34473627574448" lon="13.069820115069177"><ele>740.0</ele><time>2026-04-12T09:51:37Z</time></trkpt><trkpt lat="43.344764578629956" lon="13.069951089371095"><ele>737.6666666666666</ele><time>2026-04-12T09:51:39Z</time></trkpt><trkpt lat="43.34480356271011" lon="13.070090377849494"><ele>735.3333333333333</ele><time>2026-04-12T09:51:41Z</time></trkpt><trkpt lat="43.344832746578376" lon="13.070169464502351"><ele>733.0</ele><time>2026-04-12T09:51:42Z</time></trkpt><trkpt lat="43.344864821657964" lon="13.070250779154966"><ele>730.6666666666666</ele><time>2026-04-12T09:51:43Z</time></trkpt><trkpt lat="43.34489870761502" lon="13.070337404256948"><ele>728.3333333333334</ele><time>2026-04-12T09:51:44Z</time></trkpt><trkpt lat="43.344932463863024" lon="13.070430271751887"><ele>726.0</ele><time>2026-04-12T09:51:45Z</time></trkpt><trkpt lat="43.34496055152555" lon="13.070523009897096"><ele>725.9999999999999</ele><time>2026-04-12T09:51:46Z</time></trkpt><trkpt lat="43.34498081270254" lon="13.070622546408151"><ele>726.0</ele><time>2026-04-12T09:51:47Z</time></trkpt><trkpt lat="43.345005120950965" lon="13.070724921447054"><ele>726.0</ele><time>2026-04-12T09:51:48Z</time></trkpt><trkpt lat="43.345031732013844" lon="13.070826543591048"><ele>726.0</ele><time>2026-04-12T09:51:49Z</time></trkpt><trkpt lat="43.34505093723826" lon="13.070916870615823"><ele>726.0</ele><time>2026-04-12T09:51:50Z</time></trkpt><trkpt lat="43.345067931202095" lon="13.071010029212077"><ele>725.9999999999999</ele><time>2026-04-12T09:51:51Z</time></trkpt><trkpt lat="43.34508166543353" lon="13.071101497290378"><ele>726.0</ele><time>2026-04-12T09:51:52Z</time></trkpt><trkpt lat="43.34509791176674" lon="13.07119819667505"><ele>724.1666666666666</ele><time>2026-04-12T09:51:53Z</time></trkpt><trkpt lat="43.34511828462506" lon="13.071297343722485"><ele>722.3333333333334</ele><time>2026-04-12T09:51:54Z</time></trkpt><trkpt lat="43.34515180202079" lon="13.071390546879528"><ele>720.5</ele><time>2026-04-12T09:51:55Z</time></trkpt><trkpt lat="43.3451785401383" lon="13.071489225995482"><ele>718.6666666666667</ele><time>2026-04-12T09:51:56Z</time></trkpt><trkpt lat="43.34520366337472" lon="13.071585349610023"><ele>716.8333333333334</ele><time>2026-04-12T09:51:57Z</time></trkpt><trkpt lat="43.345235275210804" lon="13.071686613831252"><ele>715.0</ele><time>2026-04-12T09:51:58Z</time></trkpt><trkpt lat="43.3452573841287" lon="13.071795482526309"><ele>713.3333333333334</ele><time>2026-04-12T09:51:59Z</time></trkpt><trkpt lat="43.3452600543813" lon="13.071896766637918"><ele>711.6666666666667</ele><time>2026-04-12T09:52:00Z</time></trkpt><trkpt lat="43.3452700987307" lon="13.07199877369002"><ele>710.0</ele><time>2026-04-12T09:52:01Z</time></trkpt><trkpt lat="43.345310898721046" lon="13.072080055436286"><ele>708.3333333333334</ele><time>2026-04-12T09:52:02Z</time></trkpt><trkpt lat="43.34534749551244" lon="13.072189792727668"><ele>706.6666666666666</ele><time>2026-04-12T09:52:03Z</time></trkpt><trkpt lat="43.34537208527737" lon="13.072289080507996"><ele>705.0</ele><time>2026-04-12T09:52:04Z</time></trkpt><trkpt lat="43.34539129947039" lon="13.07238560158228"><ele>704.8571428571428</ele><time>2026-04-12T09:52:05Z</time></trkpt><trkpt lat="43.34540974998167" lon="13.072485329294311"><ele>704.7142857142857</ele><time>2026-04-12T09:52:06Z</time></trkpt><trkpt lat="43.345423317283306" lon="13.072594075048034"><ele>704.5714285714286</ele><time>2026-04-12T09:52:07Z</time></trkpt><trkpt lat="43.345437223800346" lon="13.07269174117635"><ele>704.4285714285713</ele><time>2026-04-12T09:52:08Z</time></trkpt><trkpt lat="43.34545720099611" lon="13.072778370601066"><ele>704.2857142857142</ele><time>2026-04-12T09:52:09Z</time></trkpt><trkpt lat="43.3454877760305" lon="13.07285869564123"><ele>704.1428571428571</ele><time>2026-04-12T09:52:10Z</time></trkpt><trkpt lat="43.345516700148764" lon="13.0729407376887"><ele>704.0</ele><time>2026-04-12T09:52:11Z</time></trkpt><trkpt lat="43.34562562898573" lon="13.073072212144554"><ele>704.0</ele><time>2026-04-12T09:52:13Z</time></trkpt><trkpt lat="43.34568471141118" lon="13.07319748764133"><ele>704.0</ele><time>2026-04-12T09:52:15Z</time></trkpt><trkpt lat="43.34569388869862" lon="13.07336102830621"><ele>704.0</ele><time>2026-04-12T09:52:17Z</time></trkpt><trkpt lat="43.34570136852564" lon="13.073482411873307"><ele>704.0</ele><time>2026-04-12T09:52:18Z</time></trkpt><trkpt lat="43.34572682392767" lon="13.073587265538515"><ele>704.0</ele><time>2026-04-12T09:52:19Z</time></trkpt><trkpt lat="43.34573536827639" lon="13.073680096262166"><ele>701.5</ele><time>2026-04-12T09:52:20Z</time></trkpt><trkpt lat="43.34573838068749" lon="13.073768680581976"><ele>699.0</ele><time>2026-04-12T09:52:21Z</time></trkpt><trkpt lat="43.345762233178675" lon="13.073957842740986"><ele>696.5</ele><time>2026-04-12T09:52:23Z</time></trkpt><trkpt lat="43.34577605410474" lon="13.074059772069344"><ele>694.0</ele><time>2026-04-12T09:52:24Z</time></trkpt><trkpt lat="43.345798925544486" lon="13.074165363306543"><ele>691.5</ele><time>2026-04-12T09:52:25Z</time></trkpt><trkpt lat="43.34581159725426" lon="13.07425809405766"><ele>689.0</ele><time>2026-04-12T09:52:26Z</time></trkpt><trkpt lat="43.34585358553558" lon="13.07435063744336"><ele>687.4000000000001</ele><time>2026-04-12T09:52:27Z</time></trkpt><trkpt lat="43.34586942716987" lon="13.07444665905403"><ele>685.8</ele><time>2026-04-12T09:52:28Z</time></trkpt><trkpt lat="43.34588968368738" lon="13.074545386019217"><ele>684.2</ele><time>2026-04-12T09:52:30Z</time></trkpt><trkpt lat="43.34590142355966" lon="13.074716552929461"><ele>682.5999999999999</ele><time>2026-04-12T09:52:32Z</time></trkpt><trkpt lat="43.34586030461116" lon="13.074888296096002"><ele>681.0</ele><time>2026-04-12T09:52:34Z</time></trkpt><trkpt lat="43.34583597513605" lon="13.075012984722305"><ele>680.0</ele><time>2026-04-12T09:52:36Z</time></trkpt><trkpt lat="43.34584398616224" lon="13.075183322064248"><ele>679.0</ele><time>2026-04-12T09:52:38Z</time></trkpt><trkpt lat="43.34587018761416" lon="13.075341840234074"><ele>678.0</ele><time>2026-04-12T09:52:40Z</time></trkpt><trkpt lat="43.34588571570929" lon="13.075460459293257"><ele>677.0</ele><time>2026-04-12T09:52:42Z</time></trkpt><trkpt lat="43.34591610050154" lon="13.075577222019401"><ele>676.0</ele><time>2026-04-12T09:52:44Z</time></trkpt><trkpt lat="43.34595526492664" lon="13.07572287688841"><ele>675.8</ele><time>2026-04-12T09:52:46Z</time></trkpt><trkpt lat="43.34597049436417" lon="13.075811561234557"><ele>675.5999999999999</ele><time>2026-04-12T09:52:47Z</time></trkpt><trkpt lat="43.34604324712326" lon="13.075925892727547"><ele>675.4</ele><time>2026-04-12T09:52:49Z</time></trkpt><trkpt lat="43.34612502316993" lon="13.076047619591797"><ele>675.2</ele><time>2026-04-12T09:52:51Z</time></trkpt><trkpt lat="43.34617781216375" lon="13.076159436948625"><ele>675.0</ele><time>2026-04-12T09:52:53Z</time></trkpt><trkpt lat="43.34618779981276" lon="13.076332346429822"><ele>675.0</ele><time>2026-04-12T09:52:55Z</time></trkpt><trkpt lat="43.34620901453075" lon="13.076421029218443"><ele>675.0</ele><time>2026-04-12T09:52:56Z</time></trkpt><trkpt lat="43.34624041740512" lon="13.076512841887972"><ele>675.0</ele><time>2026-04-12T09:52:57Z</time></trkpt><trkpt lat="43.346310591801895" lon="13.076638664894187"><ele>675.0</ele><time>2026-04-12T09:52:59Z</time></trkpt><trkpt lat="43.34635925419738" lon="13.07670901616135"><ele>675.0</ele><time>2026-04-12T09:53:00Z</time></trkpt><trkpt lat="43.346411223182976" lon="13.076786600448875"><ele>675.0</ele><time>2026-04-12T09:53:01Z</time></trkpt><trkpt lat="43.34646354722599" lon="13.076926034382648"><ele>673.4285714285714</ele><time>2026-04-12T09:53:03Z</time></trkpt><trkpt lat="43.34651806901029" lon="13.076995287447852"><ele>671.8571428571429</ele><time>2026-04-12T09:53:04Z</time></trkpt><trkpt lat="43.34656155500493" lon="13.077072062195375"><ele>670.2857142857142</ele><time>2026-04-12T09:53:05Z</time></trkpt><trkpt lat="43.34661543086965" lon="13.07713006651031"><ele>668.7142857142858</ele><time>2026-04-12T09:53:06Z</time></trkpt><trkpt lat="43.34665056416383" lon="13.077202811380761"><ele>667.1428571428572</ele><time>2026-04-12T09:53:07Z</time></trkpt><trkpt lat="43.34667902010003" lon="13.07728051838185"><ele>665.5714285714286</ele><time>2026-04-12T09:53:08Z</time></trkpt><trkpt lat="43.34670760275946" lon="13.07742037712788"><ele>664.0</ele><time>2026-04-12T09:53:10Z</time></trkpt><trkpt lat="43.3466925079986" lon="13.077603220849113"><ele>662.0</ele><time>2026-04-12T09:53:12Z</time></trkpt><trkpt lat="43.34665181801904" lon="13.077698989826787"><ele>660.0</ele><time>2026-04-12T09:53:13Z</time></trkpt><trkpt lat="43.34670175413458" lon="13.077830592087983"><ele>658.0</ele><time>2026-04-12T09:53:15Z</time></trkpt><trkpt lat="43.34673272247383" lon="13.077910376177662"><ele>656.0</ele><time>2026-04-12T09:53:16Z</time></trkpt><trkpt lat="43.346785951567824" lon="13.078009028864901"><ele>654.0</ele><time>2026-04-12T09:53:17Z</time></trkpt><trkpt lat="43.346793711765095" lon="13.078100765914657"><ele>652.0</ele><time>2026-04-12T09:53:18Z</time></trkpt><trkpt lat="43.34680462160283" lon="13.078187175241938"><ele>651.5</ele><time>2026-04-12T09:53:19Z</time></trkpt><trkpt lat="43.346793954794705" lon="13.078279398026037"><ele>651.0</ele><time>2026-04-12T09:53:20Z</time></trkpt><trkpt lat="43.34680912362073" lon="13.078375552993489"><ele>650.5</ele><time>2026-04-12T09:53:21Z</time></trkpt><trkpt lat="43.34679919425843" lon="13.078511252364509"><ele>650.0</ele><time>2026-04-12T09:53:23Z</time></trkpt><trkpt lat="43.34681358191754" lon="13.078615737538371"><ele>649.5</ele><time>2026-04-12T09:53:24Z</time></trkpt><trkpt lat="43.34679217432999" lon="13.078770168540546"><ele>649.0</ele><time>2026-04-12T09:53:26Z</time></trkpt><trkpt lat="43.34680970082114" lon="13.078860048167725"><ele>649.0</ele><time>2026-04-12T09:53:27Z</time></trkpt><trkpt lat="43.34679153451072" lon="13.078972936744814"><ele>649.0</ele><time>2026-04-12T09:53:29Z</time></trkpt><trkpt lat="43.346788818133774" lon="13.079072718195052"><ele>649.0</ele><time>2026-04-12T09:53:31Z</time></trkpt><trkpt lat="43.34676980624638" lon="13.079186986608903"><ele>649.0</ele><time>2026-04-12T09:53:33Z</time></trkpt><trkpt lat="43.34676864989772" lon="13.079299287433647"><ele>649.0</ele><time>2026-04-12T09:53:35Z</time></trkpt><trkpt lat="43.34675076562493" lon="13.079427384725692"><ele>649.0</ele><time>2026-04-12T09:53:37Z</time></trkpt><trkpt lat="43.34675555639822" lon="13.0795183817817"><ele>647.8000000000001</ele><time>2026-04-12T09:53:39Z</time></trkpt><trkpt lat="43.34674963153257" lon="13.07966397052552"><ele>646.6</ele><time>2026-04-12T09:53:41Z</time></trkpt><trkpt lat="43.34673740762104" lon="13.079793700688015"><ele>645.4</ele><time>2026-04-12T09:53:42.999Z</time></trkpt><trkpt lat="43.346766085541695" lon="13.07992364363256"><ele>644.2</ele><time>2026-04-12T09:53:44.999Z</time></trkpt><trkpt lat="43.3468224602133" lon="13.080041655107918"><ele>643.0</ele><time>2026-04-12T09:53:46.999Z</time></trkpt><trkpt lat="43.34688900313189" lon="13.080182335501885"><ele>641.5</ele><time>2026-04-12T09:53:48.999Z</time></trkpt><trkpt lat="43.3469649030697" lon="13.080329771548474"><ele>640.0</ele><time>2026-04-12T09:53:50.999Z</time></trkpt><trkpt lat="43.34700062330188" lon="13.080455502949697"><ele>638.5</ele><time>2026-04-12T09:53:52.999Z</time></trkpt><trkpt lat="43.34702863989436" lon="13.080606466170007"><ele>637.0</ele><time>2026-04-12T09:53:55Z</time></trkpt><trkpt lat="43.34702293683431" lon="13.080768209314046"><ele>636.8000000000001</ele><time>2026-04-12T09:53:57Z</time></trkpt><trkpt lat="43.347035598465936" lon="13.080918526428205"><ele>636.6</ele><time>2026-04-12T09:53:59Z</time></trkpt><trkpt lat="43.34705620203444" lon="13.08105891570385"><ele>636.4000000000001</ele><time>2026-04-12T09:54:01Z</time></trkpt><trkpt lat="43.34706847926491" lon="13.081156450400997"><ele>636.2</ele><time>2026-04-12T09:54:02Z</time></trkpt><trkpt lat="43.3471085406784" lon="13.081338381239082"><ele>636.0</ele><time>2026-04-12T09:54:04Z</time></trkpt><trkpt lat="43.34708881939569" lon="13.08142998939844"><ele>636.0</ele><time>2026-04-12T09:54:05Z</time></trkpt><trkpt lat="43.34708111522057" lon="13.081518524388466"><ele>636.0</ele><time>2026-04-12T09:54:06Z</time></trkpt><trkpt lat="43.34710190541974" lon="13.081623466726986"><ele>636.0</ele><time>2026-04-12T09:54:07Z</time></trkpt><trkpt lat="43.34710973707984" lon="13.081757171712017"><ele>636.0</ele><time>2026-04-12T09:54:08Z</time></trkpt><trkpt lat="43.34712897000681" lon="13.081856707447432"><ele>636.0</ele><time>2026-04-12T09:54:09Z</time></trkpt><trkpt lat="43.34714418508004" lon="13.081955602913396"><ele>636.0</ele><time>2026-04-12T09:54:10Z</time></trkpt><trkpt lat="43.347183695054866" lon="13.08205474296503"><ele>635.6666666666666</ele><time>2026-04-12T09:54:11Z</time></trkpt><trkpt lat="43.347208700939206" lon="13.082149274382811"><ele>635.3333333333334</ele><time>2026-04-12T09:54:12Z</time></trkpt><trkpt lat="43.347185760805246" lon="13.082264670207483"><ele>635.0</ele><time>2026-04-12T09:54:13Z</time></trkpt><trkpt lat="43.34718272005429" lon="13.082353277357102"><ele>634.6666666666667</ele><time>2026-04-12T09:54:14Z</time></trkpt><trkpt lat="43.347174376611356" lon="13.082459026320793"><ele>634.3333333333334</ele><time>2026-04-12T09:54:15Z</time></trkpt><trkpt lat="43.34713583487153" lon="13.082599033012128"><ele>634.0</ele><time>2026-04-12T09:54:17Z</time></trkpt><trkpt lat="43.3471073109989" lon="13.082758588063813"><ele>629.25</ele><time>2026-04-12T09:54:19Z</time></trkpt><trkpt lat="43.34707046886927" lon="13.08292612732443"><ele>624.5</ele><time>2026-04-12T09:54:21Z</time></trkpt><trkpt lat="43.34705123488266" lon="13.08310372141459"><ele>619.75</ele><time>2026-04-12T09:54:23Z</time></trkpt><trkpt lat="43.347041606010066" lon="13.083284492322505"><ele>615.0</ele><time>2026-04-12T09:54:25Z</time></trkpt><trkpt lat="43.34699276360806" lon="13.083442519740714"><ele>612.0</ele><time>2026-04-12T09:54:27Z</time></trkpt><trkpt lat="43.34695232443883" lon="13.083529749833225"><ele>609.0</ele><time>2026-04-12T09:54:28Z</time></trkpt><trkpt lat="43.34690330275571" lon="13.083639033546712"><ele>606.0</ele><time>2026-04-12T09:54:29Z</time></trkpt><trkpt lat="43.346868529951934" lon="13.08376726271939"><ele>603.0</ele><time>2026-04-12T09:54:30Z</time></trkpt><trkpt lat="43.3468325786654" lon="13.083876794127203"><ele>600.0</ele><time>2026-04-12T09:54:31Z</time></trkpt><trkpt lat="43.346811080324336" lon="13.083974682494755"><ele>597.0</ele><time>2026-04-12T09:54:32Z</time></trkpt><trkpt lat="43.34678433372107" lon="13.084098967676297"><ele>592.8000000000001</ele><time>2026-04-12T09:54:33Z</time></trkpt><trkpt lat="43.346789703288756" lon="13.084217978309026"><ele>588.6</ele><time>2026-04-12T09:54:34Z</time></trkpt><trkpt lat="43.346797179724305" lon="13.084356650693772"><ele>584.4000000000001</ele><time>2026-04-12T09:54:35Z</time></trkpt><trkpt lat="43.34680870405905" lon="13.084530187057403"><ele>580.2</ele><time>2026-04-12T09:54:36Z</time></trkpt><trkpt lat="43.34681879579068" lon="13.084697038103785"><ele>576.0</ele><time>2026-04-12T09:54:37Z</time></trkpt><trkpt lat="43.346826077538076" lon="13.084857626858685"><ele>573.2</ele><time>2026-04-12T09:54:38Z</time></trkpt><trkpt lat="43.34682630382453" lon="13.085003998500309"><ele>570.4000000000001</ele><time>2026-04-12T09:54:39Z</time></trkpt><trkpt lat="43.34682334852123" lon="13.085141867308295"><ele>567.6</ele><time>2026-04-12T09:54:40Z</time></trkpt><trkpt lat="43.346821774336014" lon="13.085282790960525"><ele>564.8000000000001</ele><time>2026-04-12T09:54:41Z</time></trkpt><trkpt lat="43.34682990549922" lon="13.085406205109122"><ele>562.0</ele><time>2026-04-12T09:54:42Z</time></trkpt><trkpt lat="43.34683492291017" lon="13.08550351718095"><ele>562.0</ele><time>2026-04-12T09:54:43Z</time></trkpt><trkpt lat="43.346829800172" lon="13.085613806914317"><ele>562.0</ele><time>2026-04-12T09:54:44Z</time></trkpt><trkpt lat="43.3468167865011" lon="13.085741051303327"><ele>562.0</ele><time>2026-04-12T09:54:45Z</time></trkpt><trkpt lat="43.34679812053716" lon="13.085882705526544"><ele>562.0</ele><time>2026-04-12T09:54:46Z</time></trkpt><trkpt lat="43.34676853756755" lon="13.086002812815595"><ele>562.0</ele><time>2026-04-12T09:54:47Z</time></trkpt><trkpt lat="43.346740126031044" lon="13.086130071302957"><ele>558.4</ele><time>2026-04-12T09:54:48Z</time></trkpt><trkpt lat="43.346718440513015" lon="13.086262889204104"><ele>554.8000000000001</ele><time>2026-04-12T09:54:49Z</time></trkpt><trkpt lat="43.34666294220492" lon="13.086418151714724"><ele>551.2</ele><time>2026-04-12T09:54:50Z</time></trkpt><trkpt lat="43.346621005620655" lon="13.086553656503225"><ele>547.6</ele><time>2026-04-12T09:54:51Z</time></trkpt><trkpt lat="43.34657905830964" lon="13.086700445090836"><ele>544.0</ele><time>2026-04-12T09:54:52Z</time></trkpt><trkpt lat="43.34654127484733" lon="13.086849540853034"><ele>542.0</ele><time>2026-04-12T09:54:53Z</time></trkpt><trkpt lat="43.346499955526085" lon="13.08699409982628"><ele>540.0</ele><time>2026-04-12T09:54:54Z</time></trkpt><trkpt lat="43.34646023376314" lon="13.087132049326764"><ele>538.0</ele><time>2026-04-12T09:54:55Z</time></trkpt><trkpt lat="43.34641679533516" lon="13.087267512742956"><ele>536.0</ele><time>2026-04-12T09:54:56Z</time></trkpt><trkpt lat="43.34638711979817" lon="13.087407886085629"><ele>534.0</ele><time>2026-04-12T09:54:57Z</time></trkpt><trkpt lat="43.34636319799566" lon="13.087542493629263"><ele>533.8</ele><time>2026-04-12T09:54:58Z</time></trkpt><trkpt lat="43.346342178498944" lon="13.08767838145614"><ele>533.5999999999999</ele><time>2026-04-12T09:54:59Z</time></trkpt><trkpt lat="43.3463195140262" lon="13.087809898275555"><ele>533.4</ele><time>2026-04-12T09:55:00Z</time></trkpt><trkpt lat="43.346301962979254" lon="13.087910738201566"><ele>533.1999999999999</ele><time>2026-04-12T09:55:01Z</time></trkpt><trkpt lat="43.34626742660091" lon="13.088085685395608"><ele>533.0</ele><time>2026-04-12T09:55:03Z</time></trkpt><trkpt lat="43.34624075960775" lon="13.088178962084537"><ele>531.6</ele><time>2026-04-12T09:55:04Z</time></trkpt><trkpt lat="43.346223952261134" lon="13.088308974214055"><ele>530.1999999999999</ele><time>2026-04-12T09:55:05Z</time></trkpt><trkpt lat="43.34620414755612" lon="13.08844566768797"><ele>528.8</ele><time>2026-04-12T09:55:06Z</time></trkpt><trkpt lat="43.34618106187112" lon="13.088593596876647"><ele>527.4</ele><time>2026-04-12T09:55:07Z</time></trkpt><trkpt lat="43.346155709139815" lon="13.088731668526167"><ele>526.0</ele><time>2026-04-12T09:55:08Z</time></trkpt><trkpt lat="43.34612434798477" lon="13.088866309621332"><ele>526.0</ele><time>2026-04-12T09:55:09Z</time></trkpt><trkpt lat="43.346095940147876" lon="13.088994680388296"><ele>526.0</ele><time>2026-04-12T09:55:10Z</time></trkpt><trkpt lat="43.3460678016106" lon="13.089133616790892"><ele>526.0</ele><time>2026-04-12T09:55:11Z</time></trkpt><trkpt lat="43.34604216386369" lon="13.08925840789945"><ele>526.0</ele><time>2026-04-12T09:55:12Z</time></trkpt><trkpt lat="43.34601660120786" lon="13.08936223863135"><ele>526.0</ele><time>2026-04-12T09:55:13Z</time></trkpt><trkpt lat="43.34598927398643" lon="13.089473440826774"><ele>525.8</ele><time>2026-04-12T09:55:14Z</time></trkpt><trkpt lat="43.345973268413815" lon="13.089572584995189"><ele>525.6</ele><time>2026-04-12T09:55:15Z</time></trkpt><trkpt lat="43.34596541095537" lon="13.089695488827202"><ele>525.4</ele><time>2026-04-12T09:55:16Z</time></trkpt><trkpt lat="43.34596417048406" lon="13.089845591019255"><ele>525.2</ele><time>2026-04-12T09:55:17Z</time></trkpt><trkpt lat="43.34597266139508" lon="13.090019564557865"><ele>525.0</ele><time>2026-04-12T09:55:18Z</time></trkpt><trkpt lat="43.34596754039338" lon="13.090180696105874"><ele>524.75</ele><time>2026-04-12T09:55:19Z</time></trkpt><trkpt lat="43.34597461405225" lon="13.090312618906397"><ele>524.5</ele><time>2026-04-12T09:55:20Z</time></trkpt><trkpt lat="43.345990492357544" lon="13.090458784704733"><ele>524.25</ele><time>2026-04-12T09:55:21Z</time></trkpt><trkpt lat="43.346007148873554" lon="13.090631803176388"><ele>524.0</ele><time>2026-04-12T09:55:22Z</time></trkpt><trkpt lat="43.34602819152155" lon="13.090813210396252"><ele>523.75</ele><time>2026-04-12T09:55:23Z</time></trkpt><trkpt lat="43.34606438707387" lon="13.090983606857614"><ele>523.5</ele><time>2026-04-12T09:55:24Z</time></trkpt><trkpt lat="43.34610314974931" lon="13.091143722989871"><ele>523.25</ele><time>2026-04-12T09:55:25Z</time></trkpt><trkpt lat="43.34614198273879" lon="13.091284676518564"><ele>523.0</ele><time>2026-04-12T09:55:26Z</time></trkpt><trkpt lat="43.34617919212726" lon="13.091413443618118"><ele>523.0</ele><time>2026-04-12T09:55:27Z</time></trkpt><trkpt lat="43.34621631146706" lon="13.091537459771068"><ele>523.0</ele><time>2026-04-12T09:55:28Z</time></trkpt><trkpt lat="43.346265443248996" lon="13.091639216703397"><ele>523.0</ele><time>2026-04-12T09:55:29Z</time></trkpt><trkpt lat="43.346329169763486" lon="13.091720192440514"><ele>523.0</ele><time>2026-04-12T09:55:30Z</time></trkpt><trkpt lat="43.34638979206416" lon="13.0918081092286"><ele>523.0</ele><time>2026-04-12T09:55:31Z</time></trkpt><trkpt lat="43.34644804823781" lon="13.091902819734425"><ele>521.4</ele><time>2026-04-12T09:55:32Z</time></trkpt><trkpt lat="43.346492722381676" lon="13.092000204497841"><ele>519.8</ele><time>2026-04-12T09:55:33Z</time></trkpt><trkpt lat="43.346534601397636" lon="13.09212269163684"><ele>518.2</ele><time>2026-04-12T09:55:34Z</time></trkpt><trkpt lat="43.34658548944458" lon="13.092278604358809"><ele>516.6</ele><time>2026-04-12T09:55:35Z</time></trkpt><trkpt lat="43.34663367314339" lon="13.09242445462964"><ele>515.0</ele><time>2026-04-12T09:55:36Z</time></trkpt><trkpt lat="43.34667515680526" lon="13.092557667419083"><ele>513.6</ele><time>2026-04-12T09:55:37Z</time></trkpt><trkpt lat="43.34672504036334" lon="13.092697921075072"><ele>512.2</ele><time>2026-04-12T09:55:38Z</time></trkpt><trkpt lat="43.346770141886694" lon="13.092829795429097"><ele>510.79999999999995</ele><time>2026-04-12T09:55:39Z</time></trkpt><trkpt lat="43.34681640970086" lon="13.092956436556753"><ele>509.4</ele><time>2026-04-12T09:55:40Z</time></trkpt><trkpt lat="43.34687599884011" lon="13.093081813664524"><ele>508.0</ele><time>2026-04-12T09:55:41Z</time></trkpt><trkpt lat="43.34693805443181" lon="13.093201149407482"><ele>507.79999999999995</ele><time>2026-04-12T09:55:42Z</time></trkpt><trkpt lat="43.34699199491195" lon="13.093297619759342"><ele>507.59999999999997</ele><time>2026-04-12T09:55:43Z</time></trkpt><trkpt lat="43.34704904453874" lon="13.093397994450507"><ele>507.40000000000003</ele><time>2026-04-12T09:55:44Z</time></trkpt><trkpt lat="43.34708952584633" lon="13.093512843302872"><ele>507.20000000000005</ele><time>2026-04-12T09:55:45Z</time></trkpt><trkpt lat="43.34712773775903" lon="13.093677162457602"><ele>507.0</ele><time>2026-04-12T09:55:46Z</time></trkpt><trkpt lat="43.347158972035544" lon="13.09384276787826"><ele>507.0</ele><time>2026-04-12T09:55:47Z</time></trkpt><trkpt lat="43.34718926670105" lon="13.093968555943057"><ele>507.0</ele><time>2026-04-12T09:55:48Z</time></trkpt><trkpt lat="43.347200998417485" lon="13.094072132591956"><ele>507.0</ele><time>2026-04-12T09:55:49Z</time></trkpt><trkpt lat="43.34719545753272" lon="13.094188393299907"><ele>507.0</ele><time>2026-04-12T09:55:50Z</time></trkpt><trkpt lat="43.347178816155456" lon="13.094288903398567"><ele>507.0</ele><time>2026-04-12T09:55:51Z</time></trkpt><trkpt lat="43.347149571096374" lon="13.094385544977603"><ele>507.0</ele><time>2026-04-12T09:55:52Z</time></trkpt><trkpt lat="43.347121295878935" lon="13.094470789245127"><ele>507.0</ele><time>2026-04-12T09:55:53Z</time></trkpt><trkpt lat="43.3471006436112" lon="13.094557157546152"><ele>507.0</ele><time>2026-04-12T09:55:54Z</time></trkpt><trkpt lat="43.347083217081234" lon="13.094665980616119"><ele>507.0</ele><time>2026-04-12T09:55:55Z</time></trkpt><trkpt lat="43.34707656410689" lon="13.094797680046142"><ele>507.0</ele><time>2026-04-12T09:55:56Z</time></trkpt><trkpt lat="43.34707469834275" lon="13.094933805004999"><ele>507.0</ele><time>2026-04-12T09:55:57Z</time></trkpt><trkpt lat="43.34708887656982" lon="13.095062094803815"><ele>507.0</ele><time>2026-04-12T09:55:58Z</time></trkpt><trkpt lat="43.34710779202639" lon="13.095194331898986"><ele>507.0</ele><time>2026-04-12T09:55:59Z</time></trkpt><trkpt lat="43.34713922656872" lon="13.09531867263964"><ele>507.0</ele><time>2026-04-12T09:56:00Z</time></trkpt><trkpt lat="43.34719370124061" lon="13.09544725248324"><ele>507.0</ele><time>2026-04-12T09:56:01Z</time></trkpt><trkpt lat="43.34727504498717" lon="13.095600208680317"><ele>507.0</ele><time>2026-04-12T09:56:02Z</time></trkpt><trkpt lat="43.34735001171882" lon="13.095750777849263"><ele>503.25</ele><time>2026-04-12T09:56:03Z</time></trkpt><trkpt lat="43.34740857808835" lon="13.095898643962858"><ele>499.5</ele><time>2026-04-12T09:56:04Z</time></trkpt><trkpt lat="43.347449930495664" lon="13.096050527260834"><ele>495.75</ele><time>2026-04-12T09:56:05Z</time></trkpt><trkpt lat="43.34748183453539" lon="13.09619490936724"><ele>492.0</ele><time>2026-04-12T09:56:06Z</time></trkpt><trkpt lat="43.347505355050856" lon="13.09633552112866"><ele>492.0</ele><time>2026-04-12T09:56:07Z</time></trkpt><trkpt lat="43.34751974631638" lon="13.09649033423588"><ele>492.0</ele><time>2026-04-12T09:56:08Z</time></trkpt><trkpt lat="43.34751626530107" lon="13.096667360001597"><ele>492.0</ele><time>2026-04-12T09:56:09Z</time></trkpt><trkpt lat="43.3475219909656" lon="13.096859873456198"><ele>492.0</ele><time>2026-04-12T09:56:10Z</time></trkpt><trkpt lat="43.34750295488113" lon="13.097048043943813"><ele>492.25</ele><time>2026-04-12T09:56:11Z</time></trkpt><trkpt lat="43.34748099793406" lon="13.097219527968784"><ele>492.5</ele><time>2026-04-12T09:56:12Z</time></trkpt><trkpt lat="43.34745109612335" lon="13.097392714947247"><ele>492.75</ele><time>2026-04-12T09:56:13Z</time></trkpt><trkpt lat="43.347417624438" lon="13.097570318824998"><ele>493.0</ele><time>2026-04-12T09:56:14Z</time></trkpt><trkpt lat="43.3473798876837" lon="13.097749477286925"><ele>492.2</ele><time>2026-04-12T09:56:15Z</time></trkpt><trkpt lat="43.34733879905651" lon="13.09792422634245"><ele>491.4</ele><time>2026-04-12T09:56:16Z</time></trkpt><trkpt lat="43.34730205304528" lon="13.098073279174402"><ele>490.59999999999997</ele><time>2026-04-12T09:56:17Z</time></trkpt><trkpt lat="43.347269587405805" lon="13.098193710969632"><ele>489.79999999999995</ele><time>2026-04-12T09:56:18Z</time></trkpt><trkpt lat="43.34723798361621" lon="13.098300564633384"><ele>489.0</ele><time>2026-04-12T09:56:19Z</time></trkpt><trkpt lat="43.34721355834247" lon="13.098412857202618"><ele>488.6</ele><time>2026-04-12T09:56:20Z</time></trkpt><trkpt lat="43.34719791786553" lon="13.09854586452168"><ele>488.2</ele><time>2026-04-12T09:56:21Z</time></trkpt><trkpt lat="43.34719149960646" lon="13.098681549155513"><ele>487.80000000000007</ele><time>2026-04-12T09:56:22Z</time></trkpt><trkpt lat="43.34719114893988" lon="13.098802257216898"><ele>487.40000000000003</ele><time>2026-04-12T09:56:23Z</time></trkpt><trkpt lat="43.347201111043816" lon="13.098939412066581"><ele>487.0</ele><time>2026-04-12T09:56:24Z</time></trkpt><trkpt lat="43.347224363119054" lon="13.099085829915966"><ele>487.0</ele><time>2026-04-12T09:56:25Z</time></trkpt><trkpt lat="43.347241178937274" lon="13.099222606822057"><ele>487.00000000000006</ele><time>2026-04-12T09:56:26Z</time></trkpt><trkpt lat="43.34723955506726" lon="13.099353084831137"><ele>487.00000000000006</ele><time>2026-04-12T09:56:27Z</time></trkpt><trkpt lat="43.347236008730654" lon="13.099486692877397"><ele>487.0</ele><time>2026-04-12T09:56:28Z</time></trkpt><trkpt lat="43.34722475941141" lon="13.09960780140484"><ele>487.0</ele><time>2026-04-12T09:56:29Z</time></trkpt><trkpt lat="43.34722839090268" lon="13.099719074753821"><ele>487.0</ele><time>2026-04-12T09:56:30Z</time></trkpt><trkpt lat="43.34724923355146" lon="13.0998396209279"><ele>487.00000000000006</ele><time>2026-04-12T09:56:31Z</time></trkpt><trkpt lat="43.347287155451475" lon="13.09997102640717"><ele>487.00000000000006</ele><time>2026-04-12T09:56:32Z</time></trkpt><trkpt lat="43.34732741231819" lon="13.100110166326289"><ele>487.0</ele><time>2026-04-12T09:56:33Z</time></trkpt><trkpt lat="43.34736958493094" lon="13.100239334708572"><ele>487.0</ele><time>2026-04-12T09:56:34Z</time></trkpt><trkpt lat="43.34738412911843" lon="13.100376838442093"><ele>487.00000000000006</ele><time>2026-04-12T09:56:35Z</time></trkpt><trkpt lat="43.347391753239734" lon="13.100517591117452"><ele>487.0</ele><time>2026-04-12T09:56:36Z</time></trkpt><trkpt lat="43.347401417412314" lon="13.10064432768972"><ele>487.0</ele><time>2026-04-12T09:56:37Z</time></trkpt><trkpt lat="43.347405654413514" lon="13.100757191543563"><ele>487.0</ele><time>2026-04-12T09:56:38Z</time></trkpt><trkpt lat="43.3474069589215" lon="13.100866839769719"><ele>487.00000000000006</ele><time>2026-04-12T09:56:39Z</time></trkpt><trkpt lat="43.347395335888976" lon="13.100957186745408"><ele>487.0</ele><time>2026-04-12T09:56:40Z</time></trkpt><trkpt lat="43.347400507168786" lon="13.101045062600226"><ele>486.20000000000005</ele><time>2026-04-12T09:56:41Z</time></trkpt><trkpt lat="43.34742382510621" lon="13.101216023864444"><ele>485.40000000000003</ele><time>2026-04-12T09:56:43Z</time></trkpt><trkpt lat="43.347436615177834" lon="13.101335404065342"><ele>484.59999999999997</ele><time>2026-04-12T09:56:45Z</time></trkpt><trkpt lat="43.347443039257094" lon="13.101439581587538"><ele>483.79999999999995</ele><time>2026-04-12T09:56:50Z</time></trkpt><trkpt lat="43.34744125423071" lon="13.101541311029347"><ele>483.0</ele><time>2026-04-12T09:56:52Z</time></trkpt><trkpt lat="43.34746963389624" lon="13.101687751087589"><ele>482.0</ele><time>2026-04-12T09:56:54Z</time></trkpt><trkpt lat="43.347515644096994" lon="13.101820963061865"><ele>480.99999999999994</ele><time>2026-04-12T09:56:56Z</time></trkpt><trkpt lat="43.34753605275851" lon="13.101948753970019"><ele>479.99999999999994</ele><time>2026-04-12T09:56:58Z</time></trkpt><trkpt lat="43.34755150066426" lon="13.10207968995864"><ele>479.0</ele><time>2026-04-12T09:57:00Z</time></trkpt><trkpt lat="43.34753186763507" lon="13.102253927804432"><ele>478.0</ele><time>2026-04-12T09:57:02Z</time></trkpt><trkpt lat="43.34751457289148" lon="13.102357463040505"><ele>477.4</ele><time>2026-04-12T09:57:03Z</time></trkpt><trkpt lat="43.34749251018198" lon="13.102478807828806"><ele>476.79999999999995</ele><time>2026-04-12T09:57:04Z</time></trkpt><trkpt lat="43.347471802659015" lon="13.102587081521722"><ele>476.2</ele><time>2026-04-12T09:57:05Z</time></trkpt><trkpt lat="43.34746161453612" lon="13.102721726935126"><ele>475.6</ele><time>2026-04-12T09:57:07Z</time></trkpt><trkpt lat="43.347486927028406" lon="13.102820897193267"><ele>475.0</ele><time>2026-04-12T09:57:09Z</time></trkpt><trkpt lat="43.34759688406711" lon="13.102819348104964"><ele>475.0</ele><time>2026-04-12T09:57:11Z</time></trkpt><trkpt lat="43.34767963606691" lon="13.102784340925448"><ele>475.0</ele><time>2026-04-12T09:57:12Z</time></trkpt><trkpt lat="43.34778340285895" lon="13.102734259649257"><ele>475.0</ele><time>2026-04-12T09:57:13Z</time></trkpt><trkpt lat="43.34788576126934" lon="13.102720113192595"><ele>475.0</ele><time>2026-04-12T09:57:14Z</time></trkpt><trkpt lat="43.347992065229874" lon="13.102751101929362"><ele>475.0</ele><time>2026-04-12T09:57:15Z</time></trkpt><trkpt lat="43.34809804207183" lon="13.102813548314135"><ele>474.75</ele><time>2026-04-12T09:57:16Z</time></trkpt><trkpt lat="43.3481942365771" lon="13.102905978356105"><ele>474.5</ele><time>2026-04-12T09:57:17Z</time></trkpt><trkpt lat="43.34829099489293" lon="13.10301315370232"><ele>474.25</ele><time>2026-04-12T09:57:18Z</time></trkpt><trkpt lat="43.348388157534195" lon="13.103127696228599"><ele>474.0</ele><time>2026-04-12T09:57:19Z</time></trkpt><trkpt lat="43.34848164299754" lon="13.103255905561316"><ele>474.0</ele><time>2026-04-12T09:57:20.001Z</time></trkpt><trkpt lat="43.348566775743286" lon="13.103397176270313"><ele>474.0</ele><time>2026-04-12T09:57:21.001Z</time></trkpt><trkpt lat="43.3486453024173" lon="13.103534597838141"><ele>474.0</ele><time>2026-04-12T09:57:22.001Z</time></trkpt><trkpt lat="43.34872275234391" lon="13.103684866106471"><ele>474.0</ele><time>2026-04-12T09:57:23.001Z</time></trkpt><trkpt lat="43.3488064697234" lon="13.10383154590431"><ele>476.0</ele><time>2026-04-12T09:57:24.001Z</time></trkpt><trkpt lat="43.34889634826707" lon="13.103988074440782"><ele>478.0</ele><time>2026-04-12T09:57:25.001Z</time></trkpt><trkpt lat="43.34898515398188" lon="13.104143060975384"><ele>480.0</ele><time>2026-04-12T09:57:26.001Z</time></trkpt><trkpt lat="43.34907475613701" lon="13.104291303344452"><ele>482.0</ele><time>2026-04-12T09:57:27.001Z</time></trkpt><trkpt lat="43.34916928372723" lon="13.104430627395914"><ele>482.0</ele><time>2026-04-12T09:57:28.001Z</time></trkpt><trkpt lat="43.349377597715566" lon="13.104663155075661"><ele>482.0</ele><time>2026-04-12T09:57:30.001Z</time></trkpt><trkpt lat="43.34950490310808" lon="13.104756061696541"><ele>482.0</ele><time>2026-04-12T09:57:31.001Z</time></trkpt><trkpt lat="43.34963596047427" lon="13.104810258626955"><ele>486.25</ele><time>2026-04-12T09:57:32.001Z</time></trkpt><trkpt lat="43.34978266488949" lon="13.104842170192939"><ele>490.5</ele><time>2026-04-12T09:57:33.001Z</time></trkpt><trkpt lat="43.34992875716798" lon="13.104846513552486"><ele>494.75</ele><time>2026-04-12T09:57:34.001Z</time></trkpt><trkpt lat="43.35007575797154" lon="13.10484259278237"><ele>499.0</ele><time>2026-04-12T09:57:35.001Z</time></trkpt><trkpt lat="43.35022768732123" lon="13.104842743508028"><ele>499.0</ele><time>2026-04-12T09:57:36.001Z</time></trkpt><trkpt lat="43.35036166063609" lon="13.104838692365604"><ele>499.0</ele><time>2026-04-12T09:57:37.001Z</time></trkpt><trkpt lat="43.350490249316366" lon="13.10481050983074"><ele>499.0</ele><time>2026-04-12T09:57:38.001Z</time></trkpt><trkpt lat="43.35062008657689" lon="13.10475344778955"><ele>499.0</ele><time>2026-04-12T09:57:39.001Z</time></trkpt><trkpt lat="43.3507507008849" lon="13.10467337591395"><ele>497.25</ele><time>2026-04-12T09:57:40.001Z</time></trkpt><trkpt lat="43.35087727891566" lon="13.104595854176269"><ele>495.5</ele><time>2026-04-12T09:57:41.001Z</time></trkpt><trkpt lat="43.351003244682786" lon="13.104523155699843"><ele>493.75</ele><time>2026-04-12T09:57:42.001Z</time></trkpt><trkpt lat="43.351131021163674" lon="13.104456618524996"><ele>492.0</ele><time>2026-04-12T09:57:43.001Z</time></trkpt><trkpt lat="43.35124696200142" lon="13.104410576257465"><ele>492.0</ele><time>2026-04-12T09:57:44.001Z</time></trkpt><trkpt lat="43.351362017214285" lon="13.104393755902157"><ele>492.0</ele><time>2026-04-12T09:57:45.001Z</time></trkpt><trkpt lat="43.35147884915821" lon="13.10441443393973"><ele>492.0</ele><time>2026-04-12T09:57:46.001Z</time></trkpt><trkpt lat="43.351601735880756" lon="13.104476253940364"><ele>492.0</ele><time>2026-04-12T09:57:47.001Z</time></trkpt><trkpt lat="43.35171058153277" lon="13.104565279877166"><ele>490.25</ele><time>2026-04-12T09:57:48.001Z</time></trkpt><trkpt lat="43.35180606740099" lon="13.104686675464903"><ele>488.5</ele><time>2026-04-12T09:57:49.001Z</time></trkpt><trkpt lat="43.35185501937785" lon="13.104865783486233"><ele>486.75</ele><time>2026-04-12T09:57:50.001Z</time></trkpt><trkpt lat="43.351938722768985" lon="13.105023707776061"><ele>485.0</ele><time>2026-04-12T09:57:51.001Z</time></trkpt><trkpt lat="43.35202277797237" lon="13.105188479525644"><ele>486.0</ele><time>2026-04-12T09:57:52.001Z</time></trkpt><trkpt lat="43.35212007117074" lon="13.10534040499974"><ele>487.0</ele><time>2026-04-12T09:57:53.001Z</time></trkpt><trkpt lat="43.35219600578758" lon="13.105503178110789"><ele>488.0</ele><time>2026-04-12T09:57:54.001Z</time></trkpt><trkpt lat="43.35227974161748" lon="13.105662282173837"><ele>489.0</ele><time>2026-04-12T09:57:55Z</time></trkpt><trkpt lat="43.352356508512074" lon="13.105818298236105"><ele>489.2</ele><time>2026-04-12T09:57:56Z</time></trkpt><trkpt lat="43.35243253258907" lon="13.105954122462531"><ele>489.4</ele><time>2026-04-12T09:57:57Z</time></trkpt><trkpt lat="43.35250401029282" lon="13.106076248333821"><ele>489.6</ele><time>2026-04-12T09:57:58Z</time></trkpt><trkpt lat="43.352564882334654" lon="13.106178073599438"><ele>489.8</ele><time>2026-04-12T09:57:59Z</time></trkpt><trkpt lat="43.352624536965564" lon="13.10626838532279"><ele>490.0</ele><time>2026-04-12T09:58:00Z</time></trkpt><trkpt lat="43.35267801543976" lon="13.10634281720693"><ele>490.0</ele><time>2026-04-12T09:58:01Z</time></trkpt><trkpt lat="43.35277492913379" lon="13.106462785139588"><ele>490.0</ele><time>2026-04-12T09:58:03Z</time></trkpt><trkpt lat="43.35283165417422" lon="13.106539549994208"><ele>490.0</ele><time>2026-04-12T09:58:04Z</time></trkpt><trkpt lat="43.35289476035" lon="13.106612274204483"><ele>490.0</ele><time>2026-04-12T09:58:05Z</time></trkpt><trkpt lat="43.35296667706244" lon="13.106691040299888"><ele>490.0</ele><time>2026-04-12T09:58:06Z</time></trkpt><trkpt lat="43.353043794887306" lon="13.106780402725072"><ele>491.5</ele><time>2026-04-12T09:58:07Z</time></trkpt><trkpt lat="43.35312831411567" lon="13.106880007541463"><ele>493.0</ele><time>2026-04-12T09:58:08Z</time></trkpt><trkpt lat="43.353220643833055" lon="13.106976130643254"><ele>494.5</ele><time>2026-04-12T09:58:09Z</time></trkpt><trkpt lat="43.35331570292094" lon="13.107086600461269"><ele>496.0</ele><time>2026-04-12T09:58:10Z</time></trkpt><trkpt lat="43.35339527060702" lon="13.107225763605834"><ele>496.0</ele><time>2026-04-12T09:58:11Z</time></trkpt><trkpt lat="43.3534687842541" lon="13.107367962040332"><ele>496.0</ele><time>2026-04-12T09:58:12Z</time></trkpt><trkpt lat="43.35352509451817" lon="13.10751052044161"><ele>496.0</ele><time>2026-04-12T09:58:13Z</time></trkpt><trkpt lat="43.35358598626404" lon="13.107667571783159"><ele>496.0</ele><time>2026-04-12T09:58:14Z</time></trkpt><trkpt lat="43.35366511783106" lon="13.107790444504003"><ele>495.75</ele><time>2026-04-12T09:58:15Z</time></trkpt><trkpt lat="43.353739597890865" lon="13.107905759994914"><ele>495.5</ele><time>2026-04-12T09:58:16Z</time></trkpt><trkpt lat="43.3538310662086" lon="13.108002412166456"><ele>495.25</ele><time>2026-04-12T09:58:17Z</time></trkpt><trkpt lat="43.35393901019245" lon="13.108077482433211"><ele>495.0</ele><time>2026-04-12T09:58:18Z</time></trkpt><trkpt lat="43.354055747675076" lon="13.108132056274783"><ele>495.0</ele><time>2026-04-12T09:58:19Z</time></trkpt><trkpt lat="43.354182521600016" lon="13.108160526032194"><ele>495.0</ele><time>2026-04-12T09:58:20Z</time></trkpt><trkpt lat="43.35431852276682" lon="13.10815985476833"><ele>495.0</ele><time>2026-04-12T09:58:21Z</time></trkpt><trkpt lat="43.35445716626975" lon="13.10812030954927"><ele>495.0</ele><time>2026-04-12T09:58:22Z</time></trkpt><trkpt lat="43.35458560210609" lon="13.108074862487944"><ele>494.75</ele><time>2026-04-12T09:58:23Z</time></trkpt><trkpt lat="43.354720724810306" lon="13.108026112845964"><ele>494.5</ele><time>2026-04-12T09:58:24Z</time></trkpt><trkpt lat="43.35486157731111" lon="13.107986209495154"><ele>494.25</ele><time>2026-04-12T09:58:25Z</time></trkpt><trkpt lat="43.354999393006246" lon="13.107951837044526"><ele>494.0</ele><time>2026-04-12T09:58:26Z</time></trkpt><trkpt lat="43.355140319395545" lon="13.107915670721102"><ele>494.0</ele><time>2026-04-12T09:58:27Z</time></trkpt><trkpt lat="43.35527692298358" lon="13.107866301115529"><ele>494.0</ele><time>2026-04-12T09:58:28Z</time></trkpt><trkpt lat="43.35541382205696" lon="13.107819658629415"><ele>494.0</ele><time>2026-04-12T09:58:29Z</time></trkpt><trkpt lat="43.355550275732874" lon="13.107783824352795"><ele>494.0</ele><time>2026-04-12T09:58:30Z</time></trkpt><trkpt lat="43.35569153560834" lon="13.107740508773237"><ele>496.0</ele><time>2026-04-12T09:58:31Z</time></trkpt><trkpt lat="43.3558321021976" lon="13.107682912623353"><ele>498.0</ele><time>2026-04-12T09:58:32Z</time></trkpt><trkpt lat="43.35596853797346" lon="13.1076266679203"><ele>500.0</ele><time>2026-04-12T09:58:33Z</time></trkpt><trkpt lat="43.35610364357497" lon="13.107564574677928"><ele>502.0</ele><time>2026-04-12T09:58:34Z</time></trkpt><trkpt lat="43.356212741584145" lon="13.107513127824099"><ele>502.00000000000006</ele><time>2026-04-12T09:58:35Z</time></trkpt><trkpt lat="43.35631282360211" lon="13.107470502617952"><ele>502.0</ele><time>2026-04-12T09:58:36Z</time></trkpt><trkpt lat="43.35640429935605" lon="13.107468115045403"><ele>502.0</ele><time>2026-04-12T09:58:37Z</time></trkpt><trkpt lat="43.356486264956835" lon="13.107432055603802"><ele>502.0</ele><time>2026-04-12T09:58:38Z</time></trkpt><trkpt lat="43.35656785097443" lon="13.107428860612677"><ele>502.00000000000006</ele><time>2026-04-12T09:58:39Z</time></trkpt><trkpt lat="43.35664627983327" lon="13.107420776531338"><ele>502.0</ele><time>2026-04-12T09:58:40Z</time></trkpt><trkpt lat="43.356711910909574" lon="13.107414098305682"><ele>511.0</ele><time>2026-04-12T09:58:41Z</time></trkpt><trkpt lat="43.35679149589173" lon="13.107399959963985"><ele>490.0</ele><time>2026-04-12T09:58:44Z</time></trkpt></trkseg><trkseg><trkpt lat="43.45431829322812" lon="13.081593751391742"><ele>174.0</ele><time>2026-04-12T10:20:28Z</time></trkpt><trkpt lat="43.454473057756246" lon="13.081196913299344"><ele>174.0</ele><time>2026-04-12T10:20:30Z</time></trkpt><trkpt lat="43.45452178325725" lon="13.080989143643686"><ele>174.0</ele><time>2026-04-12T10:20:31Z</time></trkpt><trkpt lat="43.45458940787915" lon="13.080810751060726"><ele>174.0</ele><time>2026-04-12T10:20:32Z</time></trkpt><trkpt lat="43.45459762473035" lon="13.080545718344302"><ele>174.0</ele><time>2026-04-12T10:20:33Z</time></trkpt><trkpt lat="43.45463052558862" lon="13.080316852484199"><ele>174.0</ele><time>2026-04-12T10:20:34Z</time></trkpt><trkpt lat="43.45467500365223" lon="13.080104900065972"><ele>174.0</ele><time>2026-04-12T10:20:35Z</time></trkpt><trkpt lat="43.454744568655826" lon="13.079903880335625"><ele>174.0</ele><time>2026-04-12T10:20:36Z</time></trkpt><trkpt lat="43.454826779877216" lon="13.079688182662139"><ele>174.0</ele><time>2026-04-12T10:20:37Z</time></trkpt><trkpt lat="43.454901846098686" lon="13.079479210075903"><ele>174.0</ele><time>2026-04-12T10:20:38Z</time></trkpt><trkpt lat="43.45497430766977" lon="13.079271087119588"><ele>174.0</ele><time>2026-04-12T10:20:39Z</time></trkpt><trkpt lat="43.455063091472226" lon="13.079099220155744"><ele>174.5</ele><time>2026-04-12T10:20:40Z</time></trkpt><trkpt lat="43.45515216876278" lon="13.078929614892846"><ele>175.0</ele><time>2026-04-12T10:20:41Z</time></trkpt><trkpt lat="43.45525180553782" lon="13.078793324796974"><ele>175.5</ele><time>2026-04-12T10:20:42Z</time></trkpt><trkpt lat="43.45538459080166" lon="13.078683740464859"><ele>176.0</ele><time>2026-04-12T10:20:43Z</time></trkpt><trkpt lat="43.455530831523994" lon="13.078576391204011"><ele>176.0</ele><time>2026-04-12T10:20:44Z</time></trkpt><trkpt lat="43.45566763377217" lon="13.078463406135924"><ele>176.0</ele><time>2026-04-12T10:20:45Z</time></trkpt><trkpt lat="43.45580472092985" lon="13.078339720399637"><ele>176.0</ele><time>2026-04-12T10:20:46Z</time></trkpt><trkpt lat="43.455925503226375" lon="13.078171517126847"><ele>172.33333333333331</ele><time>2026-04-12T10:20:47Z</time></trkpt><trkpt lat="43.456031476929205" lon="13.07796812293325"><ele>168.66666666666666</ele><time>2026-04-12T10:20:48Z</time></trkpt><trkpt lat="43.45611578379458" lon="13.077731042189452"><ele>165.0</ele><time>2026-04-12T10:20:49Z</time></trkpt><trkpt lat="43.45617636183008" lon="13.077461136303958"><ele>163.33333333333334</ele><time>2026-04-12T10:20:50Z</time></trkpt><trkpt lat="43.45623508882436" lon="13.077170903851123"><ele>161.66666666666669</ele><time>2026-04-12T10:20:51Z</time></trkpt><trkpt lat="43.45629903838219" lon="13.076896226374982"><ele>160.0</ele><time>2026-04-12T10:20:52Z</time></trkpt><trkpt lat="43.45636112701311" lon="13.076641108342546"><ele>163.0</ele><time>2026-04-12T10:20:53Z</time></trkpt><trkpt lat="43.45642873063246" lon="13.076392472972291"><ele>166.0</ele><time>2026-04-12T10:20:54Z</time></trkpt><trkpt lat="43.456509093326076" lon="13.076140539947627"><ele>169.0</ele><time>2026-04-12T10:20:55Z</time></trkpt><trkpt lat="43.45659771693486" lon="13.075904885282565"><ele>166.33333333333334</ele><time>2026-04-12T10:20:56Z</time></trkpt><trkpt lat="43.456692119003954" lon="13.075688930300876"><ele>163.66666666666666</ele><time>2026-04-12T10:20:57Z</time></trkpt><trkpt lat="43.45678903870784" lon="13.075476975039308"><ele>161.0</ele><time>2026-04-12T10:20:58Z</time></trkpt><trkpt lat="43.45689608530109" lon="13.075271053539971"><ele>161.0</ele><time>2026-04-12T10:20:59Z</time></trkpt><trkpt lat="43.457015635443135" lon="13.07506987685029"><ele>161.0</ele><time>2026-04-12T10:21:00Z</time></trkpt><trkpt lat="43.45715293250107" lon="13.074880402948079"><ele>161.0</ele><time>2026-04-12T10:21:01Z</time></trkpt><trkpt lat="43.45729586632321" lon="13.074698576791613"><ele>161.33333333333331</ele><time>2026-04-12T10:21:02Z</time></trkpt><trkpt lat="43.45743237547719" lon="13.074529635972592"><ele>161.66666666666666</ele><time>2026-04-12T10:21:03Z</time></trkpt><trkpt lat="43.45756677956064" lon="13.07436447247245"><ele>162.0</ele><time>2026-04-12T10:21:04Z</time></trkpt><trkpt lat="43.457695584015205" lon="13.074204025926171"><ele>162.0</ele><time>2026-04-12T10:21:05Z</time></trkpt><trkpt lat="43.457828411706785" lon="13.074036414696197"><ele>162.0</ele><time>2026-04-12T10:21:06Z</time></trkpt><trkpt lat="43.457961007808635" lon="13.073871296032344"><ele>162.0</ele><time>2026-04-12T10:21:07Z</time></trkpt><trkpt lat="43.458092314805135" lon="13.073706719444852"><ele>162.0</ele><time>2026-04-12T10:21:08Z</time></trkpt><trkpt lat="43.45822776689352" lon="13.073535076869634"><ele>162.0</ele><time>2026-04-12T10:21:09Z</time></trkpt><trkpt lat="43.45836256995285" lon="13.0733642566995"><ele>162.0</ele><time>2026-04-12T10:21:10Z</time></trkpt><trkpt lat="43.45849512529864" lon="13.073194499499033"><ele>163.0</ele><time>2026-04-12T10:21:11Z</time></trkpt><trkpt lat="43.45862182273332" lon="13.073027415146939"><ele>164.0</ele><time>2026-04-12T10:21:12Z</time></trkpt><trkpt lat="43.45875638283671" lon="13.072849961791446"><ele>165.0</ele><time>2026-04-12T10:21:13Z</time></trkpt><trkpt lat="43.4588809323744" lon="13.072658950179253"><ele>165.0</ele><time>2026-04-12T10:21:14Z</time></trkpt><trkpt lat="43.45901447617764" lon="13.072485121179545"><ele>165.0</ele><time>2026-04-12T10:21:15Z</time></trkpt><trkpt lat="43.45914555858581" lon="13.072311074779085"><ele>165.0</ele><time>2026-04-12T10:21:16Z</time></trkpt><trkpt lat="43.459281956890145" lon="13.072126759780957"><ele>166.0</ele><time>2026-04-12T10:21:17Z</time></trkpt><trkpt lat="43.459417454259835" lon="13.071944429986575"><ele>167.0</ele><time>2026-04-12T10:21:18Z</time></trkpt><trkpt lat="43.45955594623669" lon="13.07178537294273"><ele>168.0</ele><time>2026-04-12T10:21:19Z</time></trkpt><trkpt lat="43.45967958201995" lon="13.071621668064115"><ele>164.66666666666666</ele><time>2026-04-12T10:21:20Z</time></trkpt><trkpt lat="43.459796431911684" lon="13.071439579184172"><ele>161.33333333333331</ele><time>2026-04-12T10:21:21Z</time></trkpt><trkpt lat="43.459927395748075" lon="13.071266951406061"><ele>158.0</ele><time>2026-04-12T10:21:22Z</time></trkpt><trkpt lat="43.46005905249286" lon="13.07109718296411"><ele>158.0</ele><time>2026-04-12T10:21:23Z</time></trkpt><trkpt lat="43.46018414548356" lon="13.070923825151693"><ele>158.0</ele><time>2026-04-12T10:21:24Z</time></trkpt><trkpt lat="43.4603065489827" lon="13.070758713756833"><ele>158.0</ele><time>2026-04-12T10:21:25Z</time></trkpt><trkpt lat="43.46042822279856" lon="13.070603706988393"><ele>159.66666666666666</ele><time>2026-04-12T10:21:26Z</time></trkpt><trkpt lat="43.460543334289" lon="13.070445190301585"><ele>161.33333333333334</ele><time>2026-04-12T10:21:27Z</time></trkpt><trkpt lat="43.46065941945094" lon="13.070288003588113"><ele>163.0</ele><time>2026-04-12T10:21:28Z</time></trkpt><trkpt lat="43.46077901023623" lon="13.070125087295166"><ele>163.0</ele><time>2026-04-12T10:21:29Z</time></trkpt><trkpt lat="43.460893095624044" lon="13.06996202332553"><ele>163.0</ele><time>2026-04-12T10:21:30Z</time></trkpt><trkpt lat="43.46101015593479" lon="13.069794607401471"><ele>163.0</ele><time>2026-04-12T10:21:31Z</time></trkpt><trkpt lat="43.46114267853645" lon="13.069641601010968"><ele>163.33333333333334</ele><time>2026-04-12T10:21:32Z</time></trkpt><trkpt lat="43.46125128036686" lon="13.069463446349383"><ele>163.66666666666666</ele><time>2026-04-12T10:21:33Z</time></trkpt><trkpt lat="43.46138470989654" lon="13.069311207146649"><ele>164.0</ele><time>2026-04-12T10:21:34Z</time></trkpt><trkpt lat="43.461530977847325" lon="13.069194691611672"><ele>158.0</ele><time>2026-04-12T10:21:35Z</time></trkpt><trkpt lat="43.4616748209043" lon="13.06904463234638"><ele>152.0</ele><time>2026-04-12T10:21:36Z</time></trkpt><trkpt lat="43.46182411889874" lon="13.068934246661229"><ele>146.0</ele><time>2026-04-12T10:21:37Z</time></trkpt><trkpt lat="43.46196506942483" lon="13.068836162674783"><ele>146.0</ele><time>2026-04-12T10:21:38Z</time></trkpt><trkpt lat="43.46210513392617" lon="13.068720910600097"><ele>146.0</ele><time>2026-04-12T10:21:39Z</time></trkpt><trkpt lat="43.462241270155474" lon="13.068584641902405"><ele>146.0</ele><time>2026-04-12T10:21:40Z</time></trkpt><trkpt lat="43.46236962821369" lon="13.068416688136253"><ele>146.0</ele><time>2026-04-12T10:21:41Z</time></trkpt><trkpt lat="43.46249352074779" lon="13.068256285553456"><ele>146.0</ele><time>2026-04-12T10:21:42Z</time></trkpt><trkpt lat="43.46262112489737" lon="13.068098958813874"><ele>146.0</ele><time>2026-04-12T10:21:43Z</time></trkpt><trkpt lat="43.46275520125596" lon="13.067947659491798"><ele>146.0</ele><time>2026-04-12T10:21:44Z</time></trkpt><trkpt lat="43.46288344021941" lon="13.067803262300014"><ele>146.0</ele><time>2026-04-12T10:21:45Z</time></trkpt><trkpt lat="43.46301505822763" lon="13.067658576970123"><ele>146.0</ele><time>2026-04-12T10:21:46Z</time></trkpt><trkpt lat="43.4631533405539" lon="13.06752368509061"><ele>145.66666666666666</ele><time>2026-04-12T10:21:47Z</time></trkpt><trkpt lat="43.46328954888746" lon="13.067393406103289"><ele>145.33333333333334</ele><time>2026-04-12T10:21:48Z</time></trkpt><trkpt lat="43.46340973205015" lon="13.067260695040094"><ele>145.0</ele><time>2026-04-12T10:21:49Z</time></trkpt><trkpt lat="43.46352424266176" lon="13.067125499336491"><ele>145.0</ele><time>2026-04-12T10:21:50Z</time></trkpt><trkpt lat="43.46361830988024" lon="13.066975208069126"><ele>145.0</ele><time>2026-04-12T10:21:51Z</time></trkpt><trkpt lat="43.463698901568996" lon="13.066792938576048"><ele>145.0</ele><time>2026-04-12T10:21:52Z</time></trkpt><trkpt lat="43.463751228041914" lon="13.066592316252962"><ele>143.0</ele><time>2026-04-12T10:21:53Z</time></trkpt><trkpt lat="43.46378407743325" lon="13.066371488367063"><ele>141.0</ele><time>2026-04-12T10:21:54Z</time></trkpt><trkpt lat="43.46379993649946" lon="13.066150769182865"><ele>139.0</ele><time>2026-04-12T10:21:55Z</time></trkpt><trkpt lat="43.46381086780527" lon="13.065936389273576"><ele>138.66666666666669</ele><time>2026-04-12T10:21:56Z</time></trkpt><trkpt lat="43.46384123842317" lon="13.065718078807942"><ele>138.33333333333334</ele><time>2026-04-12T10:21:57Z</time></trkpt><trkpt lat="43.463860164831225" lon="13.065493440770043"><ele>138.0</ele><time>2026-04-12T10:21:58Z</time></trkpt><trkpt lat="43.463878412283066" lon="13.065276446008786"><ele>138.0</ele><time>2026-04-12T10:21:59Z</time></trkpt><trkpt lat="43.463903680931516" lon="13.065056105086489"><ele>138.0</ele><time>2026-04-12T10:22:00Z</time></trkpt><trkpt lat="43.46393534588683" lon="13.064878865335384"><ele>138.0</ele><time>2026-04-12T10:22:01Z</time></trkpt><trkpt lat="43.46399057689941" lon="13.064687291053122"><ele>138.0</ele><time>2026-04-12T10:22:02Z</time></trkpt><trkpt lat="43.46408843503963" lon="13.06451295880644"><ele>137.66666666666666</ele><time>2026-04-12T10:22:03Z</time></trkpt><trkpt lat="43.46420214539039" lon="13.064366552544628"><ele>137.33333333333331</ele><time>2026-04-12T10:22:04Z</time></trkpt><trkpt lat="43.46432937237398" lon="13.064275315947944"><ele>137.0</ele><time>2026-04-12T10:22:05Z</time></trkpt><trkpt lat="43.46446457917105" lon="13.064184223367167"><ele>137.0</ele><time>2026-04-12T10:22:06Z</time></trkpt><trkpt lat="43.464587796330385" lon="13.064124838669485"><ele>137.0</ele><time>2026-04-12T10:22:07Z</time></trkpt><trkpt lat="43.46470588500825" lon="13.064061409431297"><ele>137.0</ele><time>2026-04-12T10:22:08Z</time></trkpt><trkpt lat="43.46482510190636" lon="13.063996742477975"><ele>137.0</ele><time>2026-04-12T10:22:09Z</time></trkpt><trkpt lat="43.46493874568441" lon="13.063929946900727"><ele>136.4</ele><time>2026-04-12T10:22:10Z</time></trkpt><trkpt lat="43.46504501174346" lon="13.063864081867477"><ele>135.79999999999998</ele><time>2026-04-12T10:22:11Z</time></trkpt><trkpt lat="43.46513720928998" lon="13.063842543201254"><ele>135.2</ele><time>2026-04-12T10:22:12Z</time></trkpt><trkpt lat="43.46523931091294" lon="13.063866872943303"><ele>134.6</ele><time>2026-04-12T10:22:13Z</time></trkpt><trkpt lat="43.465323185867256" lon="13.063932024939504"><ele>134.0</ele><time>2026-04-12T10:22:14Z</time></trkpt><trkpt lat="43.465390873500354" lon="13.064019972640839"><ele>134.0</ele><time>2026-04-12T10:22:15Z</time></trkpt><trkpt lat="43.46544222588752" lon="13.064143323813653"><ele>134.0</ele><time>2026-04-12T10:22:16Z</time></trkpt><trkpt lat="43.465471800757" lon="13.064285092072948"><ele>134.0</ele><time>2026-04-12T10:22:17Z</time></trkpt><trkpt lat="43.4654654669764" lon="13.064430893419141"><ele>134.0</ele><time>2026-04-12T10:22:18Z</time></trkpt><trkpt lat="43.465421506365196" lon="13.06456018065771"><ele>134.0</ele><time>2026-04-12T10:22:19Z</time></trkpt><trkpt lat="43.465353142882876" lon="13.064676289171599"><ele>134.4</ele><time>2026-04-12T10:22:19.999Z</time></trkpt><trkpt lat="43.465265716416184" lon="13.06475766753222"><ele>134.8</ele><time>2026-04-12T10:22:20.999Z</time></trkpt><trkpt lat="43.46516153274945" lon="13.064803660273494"><ele>135.2</ele><time>2026-04-12T10:22:21.999Z</time></trkpt><trkpt lat="43.46505605479952" lon="13.06480678453959"><ele>135.6</ele><time>2026-04-12T10:22:22.999Z</time></trkpt><trkpt lat="43.46495725737885" lon="13.064765106450919"><ele>136.0</ele><time>2026-04-12T10:22:23.999Z</time></trkpt><trkpt lat="43.46487546243643" lon="13.064680660141573"><ele>136.0</ele><time>2026-04-12T10:22:24.999Z</time></trkpt><trkpt lat="43.464812728093335" lon="13.06456481328456"><ele>136.0</ele><time>2026-04-12T10:22:25.999Z</time></trkpt><trkpt lat="43.46475102037181" lon="13.06442729704772"><ele>136.0</ele><time>2026-04-12T10:22:26.999Z</time></trkpt><trkpt lat="43.46468057945331" lon="13.064282153901992"><ele>136.0</ele><time>2026-04-12T10:22:28Z</time></trkpt><trkpt lat="43.464602690856175" lon="13.064121477236702"><ele>136.0</ele><time>2026-04-12T10:22:29Z</time></trkpt><trkpt lat="43.46452280210721" lon="13.063946286525615"><ele>136.0</ele><time>2026-04-12T10:22:30Z</time></trkpt><trkpt lat="43.46443551875171" lon="13.063760972614835"><ele>136.0</ele><time>2026-04-12T10:22:31Z</time></trkpt><trkpt lat="43.46434253033167" lon="13.06357004381582"><ele>136.0</ele><time>2026-04-12T10:22:32Z</time></trkpt><trkpt lat="43.4642472890573" lon="13.063370353632864"><ele>136.0</ele><time>2026-04-12T10:22:33Z</time></trkpt><trkpt lat="43.464159953072354" lon="13.06317154082968"><ele>136.0</ele><time>2026-04-12T10:22:34Z</time></trkpt><trkpt lat="43.46407066774138" lon="13.062954859248654"><ele>136.0</ele><time>2026-04-12T10:22:35Z</time></trkpt><trkpt lat="43.46398816466928" lon="13.062739477889089"><ele>136.0</ele><time>2026-04-12T10:22:36Z</time></trkpt><trkpt lat="43.46390093175312" lon="13.06251118614788"><ele>136.0</ele><time>2026-04-12T10:22:37Z</time></trkpt><trkpt lat="43.46381041965172" lon="13.062281041403969"><ele>136.66666666666669</ele><time>2026-04-12T10:22:38Z</time></trkpt><trkpt lat="43.463717663710256" lon="13.062045455817422"><ele>137.33333333333334</ele><time>2026-04-12T10:22:39Z</time></trkpt><trkpt lat="43.463625809485386" lon="13.061805112638647"><ele>138.0</ele><time>2026-04-12T10:22:40Z</time></trkpt><trkpt lat="43.46353524468917" lon="13.061560999090608"><ele>138.0</ele><time>2026-04-12T10:22:41Z</time></trkpt><trkpt lat="43.46344460020403" lon="13.061307515382975"><ele>138.0</ele><time>2026-04-12T10:22:42Z</time></trkpt><trkpt lat="43.46335629639597" lon="13.06105654937668"><ele>138.0</ele><time>2026-04-12T10:22:43Z</time></trkpt><trkpt lat="43.46326461900768" lon="13.060802540882941"><ele>137.33333333333334</ele><time>2026-04-12T10:22:44Z</time></trkpt><trkpt lat="43.46317404909726" lon="13.060549238556431"><ele>136.66666666666669</ele><time>2026-04-12T10:22:45Z</time></trkpt><trkpt lat="43.463084628201784" lon="13.060287910174594"><ele>136.0</ele><time>2026-04-12T10:22:46Z</time></trkpt><trkpt lat="43.4629953089734" lon="13.060020749443234"><ele>136.0</ele><time>2026-04-12T10:22:47Z</time></trkpt><trkpt lat="43.46290447870822" lon="13.059748657443803"><ele>136.0</ele><time>2026-04-12T10:22:48Z</time></trkpt><trkpt lat="43.462816008216606" lon="13.059484701170573"><ele>136.0</ele><time>2026-04-12T10:22:49Z</time></trkpt><trkpt lat="43.46272435176086" lon="13.05920684061373"><ele>135.66666666666669</ele><time>2026-04-12T10:22:50Z</time></trkpt><trkpt lat="43.46263350694945" lon="13.058928790068249"><ele>135.33333333333334</ele><time>2026-04-12T10:22:51Z</time></trkpt><trkpt lat="43.462542375817385" lon="13.058648814426364"><ele>135.0</ele><time>2026-04-12T10:22:52Z</time></trkpt><trkpt lat="43.46244927644781" lon="13.058364219311926"><ele>135.0</ele><time>2026-04-12T10:22:53Z</time></trkpt><trkpt lat="43.462357068445236" lon="13.058080887513619"><ele>135.0</ele><time>2026-04-12T10:22:54Z</time></trkpt><trkpt lat="43.46226458997334" lon="13.057793278170369"><ele>135.0</ele><time>2026-04-12T10:22:55Z</time></trkpt><trkpt lat="43.46217932987841" lon="13.057510413831578"><ele>135.0</ele><time>2026-04-12T10:22:56Z</time></trkpt><trkpt lat="43.46208950804908" lon="13.057221918800488"><ele>136.0</ele><time>2026-04-12T10:22:57Z</time></trkpt><trkpt lat="43.4619966890803" lon="13.056935158692585"><ele>137.0</ele><time>2026-04-12T10:22:58Z</time></trkpt><trkpt lat="43.461909225864524" lon="13.056642950372533"><ele>136.0</ele><time>2026-04-12T10:22:59Z</time></trkpt><trkpt lat="43.46182018315239" lon="13.056356375478321"><ele>135.0</ele><time>2026-04-12T10:23:00Z</time></trkpt><trkpt lat="43.46173198934159" lon="13.056063982170896"><ele>135.5</ele><time>2026-04-12T10:23:01Z</time></trkpt><trkpt lat="43.461643172730554" lon="13.055776254042552"><ele>136.0</ele><time>2026-04-12T10:23:02Z</time></trkpt><trkpt lat="43.46155378805336" lon="13.055483579357972"><ele>136.0</ele><time>2026-04-12T10:23:03Z</time></trkpt><trkpt lat="43.46146490961082" lon="13.055194270217275"><ele>136.0</ele><time>2026-04-12T10:23:04Z</time></trkpt><trkpt lat="43.46137365411966" lon="13.054902529278415"><ele>136.5</ele><time>2026-04-12T10:23:05Z</time></trkpt><trkpt lat="43.46128435709904" lon="13.054618662021753"><ele>137.0</ele><time>2026-04-12T10:23:06Z</time></trkpt><trkpt lat="43.46119518455927" lon="13.054326729320884"><ele>137.5</ele><time>2026-04-12T10:23:07Z</time></trkpt><trkpt lat="43.46110637066262" lon="13.054046302972772"><ele>138.0</ele><time>2026-04-12T10:23:08Z</time></trkpt><trkpt lat="43.46101318656488" lon="13.053758826245303"><ele>138.0</ele><time>2026-04-12T10:23:09Z</time></trkpt><trkpt lat="43.46091723274729" lon="13.053482732108668"><ele>138.0</ele><time>2026-04-12T10:23:10Z</time></trkpt><trkpt lat="43.46081660169879" lon="13.053210247824179"><ele>138.0</ele><time>2026-04-12T10:23:11Z</time></trkpt><trkpt lat="43.46071411863446" lon="13.052940570394297"><ele>138.0</ele><time>2026-04-12T10:23:12Z</time></trkpt><trkpt lat="43.46060414403455" lon="13.052676696140903"><ele>138.0</ele><time>2026-04-12T10:23:13Z</time></trkpt><trkpt lat="43.46048702936945" lon="13.052417803515088"><ele>138.0</ele><time>2026-04-12T10:23:14Z</time></trkpt><trkpt lat="43.46036603931778" lon="13.052160873135676"><ele>138.0</ele><time>2026-04-12T10:23:15Z</time></trkpt><trkpt lat="43.46024004226667" lon="13.051899158547908"><ele>138.0</ele><time>2026-04-12T10:23:16Z</time></trkpt><trkpt lat="43.46010748564215" lon="13.051638798246831"><ele>139.5</ele><time>2026-04-12T10:23:17Z</time></trkpt><trkpt lat="43.45996837968162" lon="13.05138438048037"><ele>141.0</ele><time>2026-04-12T10:23:18Z</time></trkpt><trkpt lat="43.459824388942586" lon="13.051132618471453"><ele>141.0</ele><time>2026-04-12T10:23:19Z</time></trkpt><trkpt lat="43.45967507475086" lon="13.050889339704392"><ele>141.0</ele><time>2026-04-12T10:23:20Z</time></trkpt><trkpt lat="43.45952426106485" lon="13.050652541982613"><ele>141.0</ele><time>2026-04-12T10:23:21Z</time></trkpt><trkpt lat="43.45936705476925" lon="13.050419286627978"><ele>141.0</ele><time>2026-04-12T10:23:22Z</time></trkpt><trkpt lat="43.45920563074586" lon="13.050194348886588"><ele>141.0</ele><time>2026-04-12T10:23:23Z</time></trkpt><trkpt lat="43.459039107612725" lon="13.049974106181955"><ele>141.0</ele><time>2026-04-12T10:23:24Z</time></trkpt><trkpt lat="43.45886829639934" lon="13.049762678493893"><ele>141.0</ele><time>2026-04-12T10:23:25Z</time></trkpt><trkpt lat="43.458694086564485" lon="13.049556991879138"><ele>141.0</ele><time>2026-04-12T10:23:26Z</time></trkpt><trkpt lat="43.45851801442832" lon="13.049350231764826"><ele>141.0</ele><time>2026-04-12T10:23:27Z</time></trkpt><trkpt lat="43.458338783170326" lon="13.049154403792476"><ele>141.0</ele><time>2026-04-12T10:23:28Z</time></trkpt><trkpt lat="43.458152334063854" lon="13.048967844065142"><ele>140.5</ele><time>2026-04-12T10:23:29Z</time></trkpt><trkpt lat="43.45795824966598" lon="13.048783885846847"><ele>140.0</ele><time>2026-04-12T10:23:30Z</time></trkpt><trkpt lat="43.457765969758725" lon="13.048602344893954"><ele>141.0</ele><time>2026-04-12T10:23:31Z</time></trkpt><trkpt lat="43.457568019888335" lon="13.04842614120926"><ele>142.0</ele><time>2026-04-12T10:23:32Z</time></trkpt><trkpt lat="43.457369888267856" lon="13.048260088177551"><ele>142.0</ele><time>2026-04-12T10:23:33Z</time></trkpt><trkpt lat="43.457160973703175" lon="13.048091620745025"><ele>142.0</ele><time>2026-04-12T10:23:34Z</time></trkpt><trkpt lat="43.456942133974486" lon="13.047926887906122"><ele>142.0</ele><time>2026-04-12T10:23:35Z</time></trkpt><trkpt lat="43.456722359210424" lon="13.047768786216881"><ele>142.0</ele><time>2026-04-12T10:23:36Z</time></trkpt><trkpt lat="43.45650524730998" lon="13.047610137979829"><ele>142.5</ele><time>2026-04-12T10:23:37Z</time></trkpt><trkpt lat="43.456286104825416" lon="13.047450057956373"><ele>143.0</ele><time>2026-04-12T10:23:38Z</time></trkpt><trkpt lat="43.45607468481664" lon="13.047288818374577"><ele>143.0</ele><time>2026-04-12T10:23:39Z</time></trkpt><trkpt lat="43.455867852259686" lon="13.047126389508021"><ele>143.0</ele><time>2026-04-12T10:23:40Z</time></trkpt><trkpt lat="43.45565563868374" lon="13.046962156200413"><ele>143.5</ele><time>2026-04-12T10:23:41Z</time></trkpt><trkpt lat="43.455450158735374" lon="13.046798094200275"><ele>144.0</ele><time>2026-04-12T10:23:42Z</time></trkpt><trkpt lat="43.45524348189954" lon="13.046630686101134"><ele>145.0</ele><time>2026-04-12T10:23:43Z</time></trkpt><trkpt lat="43.45502694388361" lon="13.046460505202075"><ele>146.0</ele><time>2026-04-12T10:23:44Z</time></trkpt><trkpt lat="43.454835689558074" lon="13.04628268404448"><ele>146.0</ele><time>2026-04-12T10:23:45Z</time></trkpt><trkpt lat="43.454638239244915" lon="13.046101111696977"><ele>146.0</ele><time>2026-04-12T10:23:46Z</time></trkpt><trkpt lat="43.45444613836698" lon="13.04591649799359"><ele>146.0</ele><time>2026-04-12T10:23:47Z</time></trkpt><trkpt lat="43.45425685904225" lon="13.045724264442429"><ele>146.0</ele><time>2026-04-12T10:23:48Z</time></trkpt><trkpt lat="43.45407219078226" lon="13.045531410304951"><ele>146.0</ele><time>2026-04-12T10:23:49Z</time></trkpt><trkpt lat="43.453887428673546" lon="13.045329744905516"><ele>146.0</ele><time>2026-04-12T10:23:50Z</time></trkpt><trkpt lat="43.45369995506854" lon="13.045123504445245"><ele>145.5</ele><time>2026-04-12T10:23:51Z</time></trkpt><trkpt lat="43.45351821614536" lon="13.044906644121138"><ele>145.0</ele><time>2026-04-12T10:23:52Z</time></trkpt><trkpt lat="43.45334221301219" lon="13.044683508019572"><ele>145.0</ele><time>2026-04-12T10:23:53Z</time></trkpt><trkpt lat="43.45316520274219" lon="13.044457364214507"><ele>145.0</ele><time>2026-04-12T10:23:54Z</time></trkpt><trkpt lat="43.45299031473534" lon="13.044228936315495"><ele>146.0</ele><time>2026-04-12T10:23:55Z</time></trkpt><trkpt lat="43.45282626434844" lon="13.043999504967031"><ele>147.0</ele><time>2026-04-12T10:23:56Z</time></trkpt><trkpt lat="43.452660659331755" lon="13.043765869735388"><ele>147.0</ele><time>2026-04-12T10:23:57Z</time></trkpt><trkpt lat="43.45250685192841" lon="13.043532462286365"><ele>147.0</ele><time>2026-04-12T10:23:58Z</time></trkpt><trkpt lat="43.45234851992719" lon="13.043287412436133"><ele>147.0</ele><time>2026-04-12T10:23:59Z</time></trkpt><trkpt lat="43.45219516873086" lon="13.0430507446678"><ele>147.0</ele><time>2026-04-12T10:24:00Z</time></trkpt><trkpt lat="43.4520499928817" lon="13.042801452372132"><ele>146.5</ele><time>2026-04-12T10:24:01Z</time></trkpt><trkpt lat="43.451902006383634" lon="13.042546648566253"><ele>146.0</ele><time>2026-04-12T10:24:02Z</time></trkpt><trkpt lat="43.45175589726299" lon="13.042289205733946"><ele>146.0</ele><time>2026-04-12T10:24:03Z</time></trkpt><trkpt lat="43.45161787000922" lon="13.042034946220012"><ele>146.0</ele><time>2026-04-12T10:24:04Z</time></trkpt><trkpt lat="43.45147875458051" lon="13.04177800645964"><ele>146.0</ele><time>2026-04-12T10:24:05Z</time></trkpt><trkpt lat="43.45134656186787" lon="13.041509265184619"><ele>146.0</ele><time>2026-04-12T10:24:06Z</time></trkpt><trkpt lat="43.45121545155652" lon="13.041244512281523"><ele>146.0</ele><time>2026-04-12T10:24:07Z</time></trkpt><trkpt lat="43.451091033532826" lon="13.040977899169505"><ele>146.0</ele><time>2026-04-12T10:24:08Z</time></trkpt><trkpt lat="43.45096853421952" lon="13.040710003174153"><ele>146.0</ele><time>2026-04-12T10:24:09Z</time></trkpt><trkpt lat="43.45084213096205" lon="13.040436459349479"><ele>146.0</ele><time>2026-04-12T10:24:10Z</time></trkpt><trkpt lat="43.45071366151535" lon="13.040159142637043"><ele>145.5</ele><time>2026-04-12T10:24:11Z</time></trkpt><trkpt lat="43.45058755510958" lon="13.03987892556827"><ele>145.0</ele><time>2026-04-12T10:24:12Z</time></trkpt><trkpt lat="43.4504623184666" lon="13.039600193527876"><ele>145.0</ele><time>2026-04-12T10:24:13Z</time></trkpt><trkpt lat="43.45033769081351" lon="13.03931806606832"><ele>145.0</ele><time>2026-04-12T10:24:14Z</time></trkpt><trkpt lat="43.45021211874233" lon="13.039041029192592"><ele>145.0</ele><time>2026-04-12T10:24:15Z</time></trkpt><trkpt lat="43.450084218140745" lon="13.038753689312122"><ele>145.0</ele><time>2026-04-12T10:24:16Z</time></trkpt><trkpt lat="43.4499555638626" lon="13.038474149253252"><ele>145.5</ele><time>2026-04-12T10:24:17Z</time></trkpt><trkpt lat="43.44982827835931" lon="13.038197489591694"><ele>146.0</ele><time>2026-04-12T10:24:18Z</time></trkpt><trkpt lat="43.449694213249515" lon="13.037919834528635"><ele>146.0</ele><time>2026-04-12T10:24:19Z</time></trkpt><trkpt lat="43.449554948728604" lon="13.037648628799761"><ele>146.0</ele><time>2026-04-12T10:24:20Z</time></trkpt><trkpt lat="43.44941312461823" lon="13.037382499782007"><ele>146.0</ele><time>2026-04-12T10:24:21Z</time></trkpt><trkpt lat="43.44925830246015" lon="13.037118687298765"><ele>146.0</ele><time>2026-04-12T10:24:22Z</time></trkpt><trkpt lat="43.44910404851765" lon="13.03686982630979"><ele>146.5</ele><time>2026-04-12T10:24:23Z</time></trkpt><trkpt lat="43.448948400443065" lon="13.0366187693096"><ele>147.0</ele><time>2026-04-12T10:24:24Z</time></trkpt><trkpt lat="43.44879444195725" lon="13.03637208324742"><ele>147.0</ele><time>2026-04-12T10:24:25Z</time></trkpt><trkpt lat="43.448634669510184" lon="13.036134084901924"><ele>147.0</ele><time>2026-04-12T10:24:25.999Z</time></trkpt><trkpt lat="43.448479055250104" lon="13.03590395705847"><ele>147.0</ele><time>2026-04-12T10:24:26.999Z</time></trkpt><trkpt lat="43.44830077130859" lon="13.035672123918605"><ele>147.0</ele><time>2026-04-12T10:24:27.999Z</time></trkpt><trkpt lat="43.44813688696983" lon="13.035450333795794"><ele>147.0</ele><time>2026-04-12T10:24:28.999Z</time></trkpt><trkpt lat="43.4479688861397" lon="13.03523392295968"><ele>147.0</ele><time>2026-04-12T10:24:29.999Z</time></trkpt><trkpt lat="43.447787635025534" lon="13.035023833466525"><ele>147.5</ele><time>2026-04-12T10:24:30.999Z</time></trkpt><trkpt lat="43.447613049559784" lon="13.034810417249968"><ele>148.0</ele><time>2026-04-12T10:24:31.999Z</time></trkpt><trkpt lat="43.44743110252537" lon="13.034609437682441"><ele>148.0</ele><time>2026-04-12T10:24:32.999Z</time></trkpt><trkpt lat="43.44725063458736" lon="13.034415824149605"><ele>148.0</ele><time>2026-04-12T10:24:33.999Z</time></trkpt><trkpt lat="43.4470723214093" lon="13.034226509491887"><ele>147.33333333333334</ele><time>2026-04-12T10:24:34.999Z</time></trkpt><trkpt lat="43.446888773648745" lon="13.034042449598655"><ele>146.66666666666666</ele><time>2026-04-12T10:24:35.999Z</time></trkpt><trkpt lat="43.44671106175791" lon="13.033861537620112"><ele>146.0</ele><time>2026-04-12T10:24:36.999Z</time></trkpt><trkpt lat="43.44652163878555" lon="13.0336832220077"><ele>146.0</ele><time>2026-04-12T10:24:37.999Z</time></trkpt><trkpt lat="43.44633879402273" lon="13.033518752680585"><ele>146.0</ele><time>2026-04-12T10:24:38.999Z</time></trkpt><trkpt lat="43.446158784932855" lon="13.033362373552905"><ele>146.0</ele><time>2026-04-12T10:24:40Z</time></trkpt><trkpt lat="43.44597125828331" lon="13.033209408822476"><ele>146.0</ele><time>2026-04-12T10:24:41Z</time></trkpt><trkpt lat="43.44576918500427" lon="13.033053435040776"><ele>146.0</ele><time>2026-04-12T10:24:42Z</time></trkpt><trkpt lat="43.4455710965586" lon="13.032909876395557"><ele>147.0</ele><time>2026-04-12T10:24:43Z</time></trkpt><trkpt lat="43.445365171378995" lon="13.03276338146076"><ele>148.0</ele><time>2026-04-12T10:24:44Z</time></trkpt><trkpt lat="43.44515407190435" lon="13.032621419909386"><ele>148.0</ele><time>2026-04-12T10:24:45Z</time></trkpt><trkpt lat="43.44493599202548" lon="13.032478167706945"><ele>148.0</ele><time>2026-04-12T10:24:46Z</time></trkpt><trkpt lat="43.44472731330638" lon="13.032340027974447"><ele>148.0</ele><time>2026-04-12T10:24:47Z</time></trkpt><trkpt lat="43.44451400684142" lon="13.032200118420686"><ele>148.0</ele><time>2026-04-12T10:24:48Z</time></trkpt><trkpt lat="43.44429792950222" lon="13.032058332942402"><ele>148.0</ele><time>2026-04-12T10:24:49Z</time></trkpt><trkpt lat="43.444092420985825" lon="13.031913672799824"><ele>148.0</ele><time>2026-04-12T10:24:50Z</time></trkpt><trkpt lat="43.44389085814642" lon="13.031764389192649"><ele>147.0</ele><time>2026-04-12T10:24:51Z</time></trkpt><trkpt lat="43.44369361978296" lon="13.031607184193778"><ele>146.0</ele><time>2026-04-12T10:24:52Z</time></trkpt><trkpt lat="43.44350155990257" lon="13.031453951579907"><ele>146.0</ele><time>2026-04-12T10:24:53Z</time></trkpt><trkpt lat="43.44331781545812" lon="13.031291093204823"><ele>146.0</ele><time>2026-04-12T10:24:54Z</time></trkpt><trkpt lat="43.44313473917184" lon="13.031115657635564"><ele>146.0</ele><time>2026-04-12T10:24:55Z</time></trkpt><trkpt lat="43.44295107382681" lon="13.03093415214342"><ele>147.5</ele><time>2026-04-12T10:24:56Z</time></trkpt><trkpt lat="43.442768998046326" lon="13.030750679395021"><ele>149.0</ele><time>2026-04-12T10:24:57Z</time></trkpt><trkpt lat="43.44258831642262" lon="13.03055920263825"><ele>149.0</ele><time>2026-04-12T10:24:58Z</time></trkpt><trkpt lat="43.44240827217708" lon="13.030359137137173"><ele>149.0</ele><time>2026-04-12T10:24:59Z</time></trkpt><trkpt lat="43.44223590284715" lon="13.030150597562006"><ele>149.5</ele><time>2026-04-12T10:25:00Z</time></trkpt><trkpt lat="43.44206795857245" lon="13.029933769008782"><ele>150.0</ele><time>2026-04-12T10:25:01Z</time></trkpt><trkpt lat="43.441902617580695" lon="13.029717067345427"><ele>150.0</ele><time>2026-04-12T10:25:02Z</time></trkpt><trkpt lat="43.44173429398797" lon="13.029494777740913"><ele>150.0</ele><time>2026-04-12T10:25:03Z</time></trkpt><trkpt lat="43.441572440645416" lon="13.02927291995272"><ele>150.0</ele><time>2026-04-12T10:25:04Z</time></trkpt><trkpt lat="43.44141304001487" lon="13.029041663959378"><ele>150.0</ele><time>2026-04-12T10:25:05Z</time></trkpt><trkpt lat="43.44125874085594" lon="13.028802904463715"><ele>150.0</ele><time>2026-04-12T10:25:06Z</time></trkpt><trkpt lat="43.44111123309636" lon="13.028558391560523"><ele>150.0</ele><time>2026-04-12T10:25:07Z</time></trkpt><trkpt lat="43.44096922602931" lon="13.028310971285824"><ele>150.0</ele><time>2026-04-12T10:25:08Z</time></trkpt><trkpt lat="43.44083096696274" lon="13.028064606503987"><ele>150.0</ele><time>2026-04-12T10:25:09Z</time></trkpt><trkpt lat="43.44070139198926" lon="13.02780681585603"><ele>150.0</ele><time>2026-04-12T10:25:10Z</time></trkpt><trkpt lat="43.440570524491" lon="13.027547047801994"><ele>150.0</ele><time>2026-04-12T10:25:11Z</time></trkpt><trkpt lat="43.440442829147656" lon="13.027283428168397"><ele>152.5</ele><time>2026-04-12T10:25:12Z</time></trkpt><trkpt lat="43.440318414782666" lon="13.027023896151775"><ele>155.0</ele><time>2026-04-12T10:25:13Z</time></trkpt><trkpt lat="43.440196835287324" lon="13.026754819987529"><ele>154.5</ele><time>2026-04-12T10:25:14Z</time></trkpt><trkpt lat="43.44008519584894" lon="13.026481270005004"><ele>154.0</ele><time>2026-04-12T10:25:15Z</time></trkpt><trkpt lat="43.439978753172525" lon="13.026196961191198"><ele>154.0</ele><time>2026-04-12T10:25:16Z</time></trkpt><trkpt lat="43.43987589826232" lon="13.025912590300377"><ele>154.0</ele><time>2026-04-12T10:25:17Z</time></trkpt><trkpt lat="43.43977536770952" lon="13.025621418945036"><ele>154.5</ele><time>2026-04-12T10:25:18Z</time></trkpt><trkpt lat="43.43967820308609" lon="13.025330789559462"><ele>155.0</ele><time>2026-04-12T10:25:19Z</time></trkpt><trkpt lat="43.43958213099396" lon="13.025041766272246"><ele>157.0</ele><time>2026-04-12T10:25:20Z</time></trkpt><trkpt lat="43.43948501228743" lon="13.024748338596739"><ele>159.0</ele><time>2026-04-12T10:25:21Z</time></trkpt><trkpt lat="43.439389537337625" lon="13.024457079219294"><ele>159.0</ele><time>2026-04-12T10:25:22Z</time></trkpt><trkpt lat="43.43929513550971" lon="13.024164860618512"><ele>159.0</ele><time>2026-04-12T10:25:23Z</time></trkpt><trkpt lat="43.43919146623908" lon="13.023887344632678"><ele>157.5</ele><time>2026-04-12T10:25:24Z</time></trkpt><trkpt lat="43.43907551685605" lon="13.023609928379022"><ele>156.0</ele><time>2026-04-12T10:25:25Z</time></trkpt><trkpt lat="43.43894673938389" lon="13.023351648750257"><ele>155.0</ele><time>2026-04-12T10:25:26Z</time></trkpt><trkpt lat="43.43880704724569" lon="13.023099524953679"><ele>154.0</ele><time>2026-04-12T10:25:27Z</time></trkpt><trkpt lat="43.43866400274445" lon="13.022855186032336"><ele>153.0</ele><time>2026-04-12T10:25:28Z</time></trkpt><trkpt lat="43.43851327808406" lon="13.022615646480924"><ele>152.0</ele><time>2026-04-12T10:25:29Z</time></trkpt><trkpt lat="43.43835339534767" lon="13.022389931594281"><ele>152.0</ele><time>2026-04-12T10:25:30Z</time></trkpt><trkpt lat="43.43818904626454" lon="13.022175425131623"><ele>152.0</ele><time>2026-04-12T10:25:31Z</time></trkpt><trkpt lat="43.438011712598076" lon="13.021967660312109"><ele>153.0</ele><time>2026-04-12T10:25:32Z</time></trkpt><trkpt lat="43.43783306621252" lon="13.021780448159571"><ele>154.0</ele><time>2026-04-12T10:25:33Z</time></trkpt><trkpt lat="43.43764640793974" lon="13.021602435430975"><ele>154.0</ele><time>2026-04-12T10:25:34Z</time></trkpt><trkpt lat="43.437451521519904" lon="13.02143900112088"><ele>154.0</ele><time>2026-04-12T10:25:35Z</time></trkpt><trkpt lat="43.43725178501708" lon="13.021282286896042"><ele>156.5</ele><time>2026-04-12T10:25:36Z</time></trkpt><trkpt lat="43.43705215232157" lon="13.02112564935627"><ele>159.0</ele><time>2026-04-12T10:25:37Z</time></trkpt><trkpt lat="43.43685131818593" lon="13.020969052325384"><ele>160.5</ele><time>2026-04-12T10:25:38Z</time></trkpt><trkpt lat="43.43665469991355" lon="13.020811968881324"><ele>162.0</ele><time>2026-04-12T10:25:39Z</time></trkpt><trkpt lat="43.436466928777854" lon="13.020644084612815"><ele>161.33333333333334</ele><time>2026-04-12T10:25:40Z</time></trkpt><trkpt lat="43.43628879789969" lon="13.020460022739046"><ele>160.66666666666669</ele><time>2026-04-12T10:25:41Z</time></trkpt><trkpt lat="43.43611678941096" lon="13.020261873110476"><ele>160.0</ele><time>2026-04-12T10:25:42Z</time></trkpt><trkpt lat="43.43595138038836" lon="13.020057152959184"><ele>162.0</ele><time>2026-04-12T10:25:43Z</time></trkpt><trkpt lat="43.435794942091455" lon="13.019836977869856"><ele>164.0</ele><time>2026-04-12T10:25:44Z</time></trkpt><trkpt lat="43.43564214609909" lon="13.0195987297029"><ele>164.0</ele><time>2026-04-12T10:25:45Z</time></trkpt><trkpt lat="43.43550013763597" lon="13.01935448884184"><ele>164.0</ele><time>2026-04-12T10:25:46Z</time></trkpt><trkpt lat="43.43535878154575" lon="13.019098787834002"><ele>164.0</ele><time>2026-04-12T10:25:47Z</time></trkpt><trkpt lat="43.4352230868115" lon="13.018836679568585"><ele>164.0</ele><time>2026-04-12T10:25:48Z</time></trkpt><trkpt lat="43.4350910484247" lon="13.018574118002206"><ele>170.0</ele><time>2026-04-12T10:25:49Z</time></trkpt><trkpt lat="43.43495344916912" lon="13.018313769908982"><ele>176.0</ele><time>2026-04-12T10:25:50Z</time></trkpt><trkpt lat="43.434819603428345" lon="13.018067254678996"><ele>176.0</ele><time>2026-04-12T10:25:51Z</time></trkpt><trkpt lat="43.434677413916745" lon="13.017812317496983"><ele>176.0</ele><time>2026-04-12T10:25:52Z</time></trkpt><trkpt lat="43.43453103627635" lon="13.017547725939293"><ele>176.0</ele><time>2026-04-12T10:25:53Z</time></trkpt><trkpt lat="43.434396126947476" lon="13.017283195637829"><ele>176.0</ele><time>2026-04-12T10:25:54Z</time></trkpt><trkpt lat="43.434266665697876" lon="13.017012308665317"><ele>176.0</ele><time>2026-04-12T10:25:55Z</time></trkpt><trkpt lat="43.43413500749409" lon="13.016738118897635"><ele>176.0</ele><time>2026-04-12T10:25:56Z</time></trkpt><trkpt lat="43.43400032134242" lon="13.01646105055554"><ele>173.0</ele><time>2026-04-12T10:25:57Z</time></trkpt><trkpt lat="43.433871024877455" lon="13.016187785698028"><ele>170.0</ele><time>2026-04-12T10:25:58Z</time></trkpt><trkpt lat="43.433739861619415" lon="13.015916213717675"><ele>177.0</ele><time>2026-04-12T10:25:59Z</time></trkpt><trkpt lat="43.43361323906753" lon="13.015654753133457"><ele>184.0</ele><time>2026-04-12T10:26:00Z</time></trkpt><trkpt lat="43.43348652979195" lon="13.015386010393666"><ele>184.0</ele><time>2026-04-12T10:26:01Z</time></trkpt><trkpt lat="43.43336370215362" lon="13.015123014163795"><ele>184.0</ele><time>2026-04-12T10:26:02Z</time></trkpt><trkpt lat="43.43323772781333" lon="13.014850699800224"><ele>193.5</ele><time>2026-04-12T10:26:03Z</time></trkpt><trkpt lat="43.43311206792002" lon="13.014579586431518"><ele>203.0</ele><time>2026-04-12T10:26:04Z</time></trkpt><trkpt lat="43.43298601577825" lon="13.014313012336538"><ele>191.0</ele><time>2026-04-12T10:26:05Z</time></trkpt><trkpt lat="43.43286099061885" lon="13.01404578152471"><ele>179.0</ele><time>2026-04-12T10:26:06Z</time></trkpt><trkpt lat="43.43273557893232" lon="13.01377954001762"><ele>179.0</ele><time>2026-04-12T10:26:07Z</time></trkpt><trkpt lat="43.43260430417497" lon="13.013504480450473"><ele>179.0</ele><time>2026-04-12T10:26:08Z</time></trkpt><trkpt lat="43.432475056114995" lon="13.013233573224639"><ele>183.0</ele><time>2026-04-12T10:26:09Z</time></trkpt><trkpt lat="43.43234447750453" lon="13.012959614396122"><ele>187.0</ele><time>2026-04-12T10:26:10Z</time></trkpt><trkpt lat="43.4322134865032" lon="13.012684160243431"><ele>181.0</ele><time>2026-04-12T10:26:11Z</time></trkpt><trkpt lat="43.432086861063816" lon="13.01241551476833"><ele>175.0</ele><time>2026-04-12T10:26:12Z</time></trkpt><trkpt lat="43.43196233646201" lon="13.01214062895214"><ele>175.0</ele><time>2026-04-12T10:26:13Z</time></trkpt><trkpt lat="43.43184448742102" lon="13.011860309452855"><ele>175.0</ele><time>2026-04-12T10:26:14Z</time></trkpt><trkpt lat="43.43173712568734" lon="13.0115668106311"><ele>178.5</ele><time>2026-04-12T10:26:15Z</time></trkpt><trkpt lat="43.4316381677792" lon="13.011271939800507"><ele>182.0</ele><time>2026-04-12T10:26:16Z</time></trkpt><trkpt lat="43.43155068723352" lon="13.010974190118397"><ele>189.5</ele><time>2026-04-12T10:26:17Z</time></trkpt><trkpt lat="43.43147699037776" lon="13.010677091759543"><ele>197.0</ele><time>2026-04-12T10:26:18Z</time></trkpt><trkpt lat="43.43141581127824" lon="13.010376449840978"><ele>197.0</ele><time>2026-04-12T10:26:19Z</time></trkpt><trkpt lat="43.43136739160783" lon="13.010066604052286"><ele>197.0</ele><time>2026-04-12T10:26:20Z</time></trkpt><trkpt lat="43.43133487470072" lon="13.009772346440744"><ele>197.0</ele><time>2026-04-12T10:26:21Z</time></trkpt><trkpt lat="43.4313091704707" lon="13.0094717221203"><ele>192.0</ele><time>2026-04-12T10:26:22Z</time></trkpt><trkpt lat="43.431281521030684" lon="13.009173275454797"><ele>187.0</ele><time>2026-04-12T10:26:23Z</time></trkpt><trkpt lat="43.43125394143241" lon="13.008873044596587"><ele>182.0</ele><time>2026-04-12T10:26:24Z</time></trkpt><trkpt lat="43.43123164167628" lon="13.008559957691704"><ele>188.0</ele><time>2026-04-12T10:26:25Z</time></trkpt><trkpt lat="43.431210465596344" lon="13.008248696569636"><ele>194.0</ele><time>2026-04-12T10:26:26Z</time></trkpt><trkpt lat="43.43119383952239" lon="13.007944171592793"><ele>200.0</ele><time>2026-04-12T10:26:27Z</time></trkpt><trkpt lat="43.43117538355617" lon="13.007632389542875"><ele>207.66666666666669</ele><time>2026-04-12T10:26:28.018Z</time></trkpt><trkpt lat="43.43115686996284" lon="13.0073246714769"><ele>215.33333333333331</ele><time>2026-04-12T10:26:29.019Z</time></trkpt><trkpt lat="43.431142832093855" lon="13.007019895366707"><ele>223.0</ele><time>2026-04-12T10:26:30.019Z</time></trkpt><trkpt lat="43.43112305271794" lon="13.006711214820827"><ele>331.0</ele><time>2026-04-12T10:26:31.018Z</time></trkpt><trkpt lat="43.430345531061974" lon="13.004161288483308"><ele>331.0</ele><time>2026-04-12T10:26:34.463Z</time></trkpt><trkpt lat="43.42991866597156" lon="13.003527012537008"><ele>261.0</ele><time>2026-04-12T10:26:35.463Z</time></trkpt><trkpt lat="43.42946438372283" lon="13.00292362760564"><ele>243.0</ele><time>2026-04-12T10:26:36.466Z</time></trkpt><trkpt lat="43.42900093720751" lon="13.002338038518642"><ele>208.0</ele><time>2026-04-12T10:26:37.466Z</time></trkpt><trkpt lat="43.42772780197509" lon="13.000422881020954"><ele>208.0</ele><time>2026-04-12T10:26:40.467Z</time></trkpt><trkpt lat="43.42732304101664" lon="12.99976439607864"><ele>281.0</ele><time>2026-04-12T10:26:41.463Z</time></trkpt><trkpt lat="43.42691619659722" lon="12.999100548282769"><ele>281.0</ele><time>2026-04-12T10:26:42.466Z</time></trkpt><trkpt lat="43.42651737653218" lon="12.99843490195148"><ele>339.0</ele><time>2026-04-12T10:26:43.463Z</time></trkpt><trkpt lat="43.426118411046666" lon="12.997762099821516"><ele>286.0</ele><time>2026-04-12T10:26:44.466Z</time></trkpt><trkpt lat="43.425721721075995" lon="12.997090402654258"><ele>286.0</ele><time>2026-04-12T10:26:45.466Z</time></trkpt><trkpt lat="43.42532958579609" lon="12.996413776096318"><ele>158.0</ele><time>2026-04-12T10:26:46.466Z</time></trkpt><trkpt lat="43.424939857473355" lon="12.995739316607102"><ele>182.0</ele><time>2026-04-12T10:26:47.462Z</time></trkpt><trkpt lat="43.42376360859987" lon="12.9937044675298"><ele>208.0</ele><time>2026-04-12T10:26:50.467Z</time></trkpt><trkpt lat="43.42337223561808" lon="12.99302718296679"><ele>183.0</ele><time>2026-04-12T10:26:51.466Z</time></trkpt><trkpt lat="43.42808591671607" lon="13.001063391578384"><ele>195.5</ele><time>2026-04-12T10:26:52Z</time></trkpt><trkpt lat="43.42776951483701" lon="13.000629788610775"><ele>208.0</ele><time>2026-04-12T10:26:54Z</time></trkpt><trkpt lat="43.42760818233074" lon="13.000369825763997"><ele>208.0</ele><time>2026-04-12T10:26:55Z</time></trkpt><trkpt lat="43.427465704664506" lon="13.000105120993945"><ele>208.0</ele><time>2026-04-12T10:26:55.999Z</time></trkpt><trkpt lat="43.42732411603582" lon="12.999841084782707"><ele>208.0</ele><time>2026-04-12T10:26:56.999Z</time></trkpt><trkpt lat="43.42717684761636" lon="12.999574443741162"><ele>208.0</ele><time>2026-04-12T10:26:58.022Z</time></trkpt><trkpt lat="43.42703135061845" lon="12.999312964186021"><ele>244.5</ele><time>2026-04-12T10:26:59.025Z</time></trkpt><trkpt lat="43.42688613421192" lon="12.999051054594872"><ele>281.0</ele><time>2026-04-12T10:27:00.018Z</time></trkpt><trkpt lat="43.426740608508005" lon="12.998788070597262"><ele>281.0</ele><time>2026-04-12T10:27:01.023Z</time></trkpt><trkpt lat="43.42545917376643" lon="12.996638039592659"><ele>163.0</ele><time>2026-04-12T10:27:04.464Z</time></trkpt><trkpt lat="43.424191391135956" lon="12.994523914542976"><ele>163.0</ele><time>2026-04-12T10:27:17Z</time></trkpt><trkpt lat="43.4240402505805" lon="12.994268056674576"><ele>163.0</ele><time>2026-04-12T10:27:18Z</time></trkpt><trkpt lat="43.42393233497783" lon="12.994085508198733"><ele>163.0</ele><time>2026-04-12T10:27:19Z</time></trkpt><trkpt lat="43.42378662613855" lon="12.993826088101923"><ele>172.5</ele><time>2026-04-12T10:27:20Z</time></trkpt><trkpt lat="43.42364170897289" lon="12.993578579415157"><ele>182.0</ele><time>2026-04-12T10:27:21Z</time></trkpt><trkpt lat="43.42348522879239" lon="12.993329981201896"><ele>195.0</ele><time>2026-04-12T10:27:22Z</time></trkpt><trkpt lat="43.423324854822276" lon="12.993088119220499"><ele>208.0</ele><time>2026-04-12T10:27:23Z</time></trkpt><trkpt lat="43.423160486331675" lon="12.99284203902676"><ele>208.0</ele><time>2026-04-12T10:27:24.015Z</time></trkpt><trkpt lat="43.42301879515367" lon="12.992572085230691"><ele>208.0</ele><time>2026-04-12T10:27:25.019Z</time></trkpt><trkpt lat="43.42286816275346" lon="12.99231893436533"><ele>211.0</ele><time>2026-04-12T10:27:26.016Z</time></trkpt><trkpt lat="43.42271638875517" lon="12.992063864951266"><ele>214.0</ele><time>2026-04-12T10:27:27.022Z</time></trkpt><trkpt lat="43.42148798840583" lon="12.989861887243428"><ele>180.0</ele><time>2026-04-12T10:27:30.464Z</time></trkpt><trkpt lat="43.42101192571541" lon="12.988976184290824"><ele>180.0</ele><time>2026-04-12T10:27:39Z</time></trkpt><trkpt lat="43.42087228035549" lon="12.988736810625177"><ele>180.0</ele><time>2026-04-12T10:27:40Z</time></trkpt><trkpt lat="43.42065964160749" lon="12.988443330669707"><ele>180.0</ele><time>2026-04-12T10:27:41Z</time></trkpt><trkpt lat="43.4205487802012" lon="12.988235533143733"><ele>180.0</ele><time>2026-04-12T10:27:42Z</time></trkpt><trkpt lat="43.42043303655931" lon="12.988021331385669"><ele>180.0</ele><time>2026-04-12T10:27:43Z</time></trkpt><trkpt lat="43.42031348109441" lon="12.987820680841091"><ele>180.0</ele><time>2026-04-12T10:27:44Z</time></trkpt><trkpt lat="43.4201914445419" lon="12.987622287776007"><ele>180.0</ele><time>2026-04-12T10:27:45Z</time></trkpt><trkpt lat="43.42007632288226" lon="12.987429784714902"><ele>180.0</ele><time>2026-04-12T10:27:46Z</time></trkpt><trkpt lat="43.419951673233115" lon="12.987217313579986"><ele>180.66666666666666</ele><time>2026-04-12T10:27:47Z</time></trkpt><trkpt lat="43.41982293678112" lon="12.987005841686072"><ele>181.33333333333331</ele><time>2026-04-12T10:27:48Z</time></trkpt><trkpt lat="43.41969329943596" lon="12.986798627924648"><ele>182.0</ele><time>2026-04-12T10:27:49Z</time></trkpt><trkpt lat="43.419560247972974" lon="12.986591860197494"><ele>182.0</ele><time>2026-04-12T10:27:50Z</time></trkpt><trkpt lat="43.41944146168833" lon="12.986362109252804"><ele>182.0</ele><time>2026-04-12T10:27:51Z</time></trkpt><trkpt lat="43.419300753685796" lon="12.986105580373742"><ele>182.0</ele><time>2026-04-12T10:27:52Z</time></trkpt><trkpt lat="43.419155694108724" lon="12.985864350989141"><ele>183.0</ele><time>2026-04-12T10:27:53Z</time></trkpt><trkpt lat="43.419006875908885" lon="12.98560531504179"><ele>184.0</ele><time>2026-04-12T10:27:54Z</time></trkpt><trkpt lat="43.41885137684473" lon="12.985344360551828"><ele>183.5</ele><time>2026-04-12T10:27:55Z</time></trkpt><trkpt lat="43.41869268886878" lon="12.985079601039047"><ele>183.0</ele><time>2026-04-12T10:27:56Z</time></trkpt><trkpt lat="43.41853730008021" lon="12.984816411653505"><ele>183.0</ele><time>2026-04-12T10:27:57Z</time></trkpt><trkpt lat="43.41839056448414" lon="12.984561340286412"><ele>183.0</ele><time>2026-04-12T10:27:58Z</time></trkpt><trkpt lat="43.41825203602391" lon="12.984305006155807"><ele>183.0</ele><time>2026-04-12T10:27:59Z</time></trkpt><trkpt lat="43.41811026722456" lon="12.984044601031925"><ele>183.0</ele><time>2026-04-12T10:28:00Z</time></trkpt><trkpt lat="43.417967832664445" lon="12.983789258351816"><ele>183.0</ele><time>2026-04-12T10:28:01Z</time></trkpt><trkpt lat="43.417816721020465" lon="12.983543807319663"><ele>183.0</ele><time>2026-04-12T10:28:02Z</time></trkpt><trkpt lat="43.41765676109157" lon="12.983311954048482"><ele>183.0</ele><time>2026-04-12T10:28:03Z</time></trkpt><trkpt lat="43.41749349136754" lon="12.983084408977755"><ele>183.0</ele><time>2026-04-12T10:28:04Z</time></trkpt><trkpt lat="43.41732762498533" lon="12.982867619498334"><ele>183.0</ele><time>2026-04-12T10:28:05Z</time></trkpt><trkpt lat="43.41715620383846" lon="12.98266296847237"><ele>183.0</ele><time>2026-04-12T10:28:06Z</time></trkpt><trkpt lat="43.416975462317495" lon="12.982463156259156"><ele>182.0</ele><time>2026-04-12T10:28:07Z</time></trkpt><trkpt lat="43.41678588722464" lon="12.982269552705677"><ele>181.0</ele><time>2026-04-12T10:28:08Z</time></trkpt><trkpt lat="43.41659872463833" lon="12.982082185240513"><ele>181.0</ele><time>2026-04-12T10:28:09Z</time></trkpt><trkpt lat="43.41640534251354" lon="12.981900282361881"><ele>181.0</ele><time>2026-04-12T10:28:10Z</time></trkpt><trkpt lat="43.41621122853746" lon="12.981724656148415"><ele>181.5</ele><time>2026-04-12T10:28:11Z</time></trkpt><trkpt lat="43.41601532351484" lon="12.981553008699748"><ele>182.0</ele><time>2026-04-12T10:28:12Z</time></trkpt><trkpt lat="43.41581968435717" lon="12.981389051224783"><ele>182.0</ele><time>2026-04-12T10:28:13Z</time></trkpt><trkpt lat="43.4156229333397" lon="12.981238038208138"><ele>182.0</ele><time>2026-04-12T10:28:14Z</time></trkpt><trkpt lat="43.41542084509889" lon="12.981091436074504"><ele>182.0</ele><time>2026-04-12T10:28:15Z</time></trkpt><trkpt lat="43.41521439926841" lon="12.980942222699273"><ele>182.0</ele><time>2026-04-12T10:28:16Z</time></trkpt><trkpt lat="43.41500451513938" lon="12.9807971589029"><ele>183.0</ele><time>2026-04-12T10:28:17Z</time></trkpt><trkpt lat="43.414795163298585" lon="12.980653158401275"><ele>184.0</ele><time>2026-04-12T10:28:18Z</time></trkpt><trkpt lat="43.41458643943108" lon="12.980510284629775"><ele>184.0</ele><time>2026-04-12T10:28:19Z</time></trkpt><trkpt lat="43.414372986188255" lon="12.980367443699084"><ele>184.0</ele><time>2026-04-12T10:28:20Z</time></trkpt><trkpt lat="43.41416297928808" lon="12.980228383329244"><ele>184.0</ele><time>2026-04-12T10:28:21Z</time></trkpt><trkpt lat="43.413951538432" lon="12.980089204194158"><ele>184.0</ele><time>2026-04-12T10:28:22Z</time></trkpt><trkpt lat="43.41374300387991" lon="12.979952347536342"><ele>184.0</ele><time>2026-04-12T10:28:23Z</time></trkpt><trkpt lat="43.413528445481894" lon="12.979827352680173"><ele>184.0</ele><time>2026-04-12T10:28:24Z</time></trkpt><trkpt lat="43.41332276713624" lon="12.97973365112289"><ele>184.0</ele><time>2026-04-12T10:28:25Z</time></trkpt><trkpt lat="43.4131083162026" lon="12.979669293754617"><ele>184.0</ele><time>2026-04-12T10:28:26Z</time></trkpt><trkpt lat="43.41288405495843" lon="12.97961955298202"><ele>184.0</ele><time>2026-04-12T10:28:27Z</time></trkpt><trkpt lat="43.41265476653882" lon="12.97959109831941"><ele>187.0</ele><time>2026-04-12T10:28:28Z</time></trkpt><trkpt lat="43.41241701832369" lon="12.979590715136759"><ele>190.0</ele><time>2026-04-12T10:28:29Z</time></trkpt><trkpt lat="43.41218433545466" lon="12.979618611366128"><ele>192.5</ele><time>2026-04-12T10:28:30Z</time></trkpt><trkpt lat="43.41195379551259" lon="12.979671967622457"><ele>195.0</ele><time>2026-04-12T10:28:31Z</time></trkpt><trkpt lat="43.411727049628425" lon="12.979750631048983"><ele>195.0</ele><time>2026-04-12T10:28:32Z</time></trkpt><trkpt lat="43.41149830377045" lon="12.979843751249375"><ele>195.0</ele><time>2026-04-12T10:28:33Z</time></trkpt><trkpt lat="43.411270868404934" lon="12.97992750766813"><ele>194.0</ele><time>2026-04-12T10:28:34Z</time></trkpt><trkpt lat="43.41103885957167" lon="12.980009705317586"><ele>193.0</ele><time>2026-04-12T10:28:35Z</time></trkpt><trkpt lat="43.410813354473966" lon="12.980088779212386"><ele>207.0</ele><time>2026-04-12T10:28:36Z</time></trkpt><trkpt lat="43.410589407950965" lon="12.980171049588192"><ele>221.0</ele><time>2026-04-12T10:28:37Z</time></trkpt><trkpt lat="43.4103614013157" lon="12.980262166143378"><ele>221.0</ele><time>2026-04-12T10:28:38Z</time></trkpt><trkpt lat="43.41011002646612" lon="12.980358296348488"><ele>221.0</ele><time>2026-04-12T10:28:39Z</time></trkpt><trkpt lat="43.409881912221444" lon="12.980444301836618"><ele>214.5</ele><time>2026-04-12T10:28:40Z</time></trkpt><trkpt lat="43.40963695295968" lon="12.980549211563822"><ele>208.0</ele><time>2026-04-12T10:28:41Z</time></trkpt><trkpt lat="43.409394363702155" lon="12.98065100799986"><ele>208.0</ele><time>2026-04-12T10:28:42Z</time></trkpt><trkpt lat="43.409146201309895" lon="12.98075507231075"><ele>208.0</ele><time>2026-04-12T10:28:43.026Z</time></trkpt><trkpt lat="43.408906140871636" lon="12.980854752830876"><ele>222.5</ele><time>2026-04-12T10:28:44.017Z</time></trkpt><trkpt lat="43.408661955916834" lon="12.980954477241179"><ele>237.0</ele><time>2026-04-12T10:28:45.02Z</time></trkpt><trkpt lat="43.40841888466439" lon="12.981054507705025"><ele>221.0</ele><time>2026-04-12T10:28:46.02Z</time></trkpt><trkpt lat="43.4072701726513" lon="12.981314035144617"><ele>215.5</ele><time>2026-04-12T10:28:51Z</time></trkpt><trkpt lat="43.407037273080384" lon="12.981398231298591"><ele>210.0</ele><time>2026-04-12T10:28:52Z</time></trkpt><trkpt lat="43.406852027407865" lon="12.98153387114675"><ele>210.0</ele><time>2026-04-12T10:28:53Z</time></trkpt><trkpt lat="43.40660018862301" lon="12.981578453492617"><ele>210.0</ele><time>2026-04-12T10:28:54Z</time></trkpt><trkpt lat="43.40637393954619" lon="12.981697150005376"><ele>224.0</ele><time>2026-04-12T10:28:55Z</time></trkpt><trkpt lat="43.40615488908607" lon="12.981769093288145"><ele>238.0</ele><time>2026-04-12T10:28:56Z</time></trkpt><trkpt lat="43.40592632589976" lon="12.9818652698001"><ele>238.0</ele><time>2026-04-12T10:28:57Z</time></trkpt><trkpt lat="43.405725280317135" lon="12.981932814209774"><ele>238.0</ele><time>2026-04-12T10:28:58Z</time></trkpt><trkpt lat="43.405514674237104" lon="12.982005142701661"><ele>238.0</ele><time>2026-04-12T10:28:59Z</time></trkpt><trkpt lat="43.405297237101266" lon="12.982074053527036"><ele>235.66666666666666</ele><time>2026-04-12T10:29:00Z</time></trkpt><trkpt lat="43.405077935434235" lon="12.982129837959528"><ele>233.33333333333331</ele><time>2026-04-12T10:29:01Z</time></trkpt><trkpt lat="43.40485420503091" lon="12.982175880822734"><ele>231.0</ele><time>2026-04-12T10:29:02Z</time></trkpt><trkpt lat="43.404638541730904" lon="12.982214977348601"><ele>227.66666666666669</ele><time>2026-04-12T10:29:03Z</time></trkpt><trkpt lat="43.404425695852076" lon="12.982244438255949"><ele>224.33333333333334</ele><time>2026-04-12T10:29:04Z</time></trkpt><trkpt lat="43.404208670468456" lon="12.982263174983746"><ele>221.0</ele><time>2026-04-12T10:29:05Z</time></trkpt><trkpt lat="43.403982070642606" lon="12.982275617096287"><ele>220.33333333333334</ele><time>2026-04-12T10:29:06Z</time></trkpt><trkpt lat="43.40376281192853" lon="12.982275837751859"><ele>219.66666666666669</ele><time>2026-04-12T10:29:07Z</time></trkpt><trkpt lat="43.40354618809024" lon="12.982264810731179"><ele>219.0</ele><time>2026-04-12T10:29:08Z</time></trkpt><trkpt lat="43.403324029219334" lon="12.982251353230954"><ele>219.0</ele><time>2026-04-12T10:29:09Z</time></trkpt><trkpt lat="43.403106338759166" lon="12.982233678123245"><ele>219.0</ele><time>2026-04-12T10:29:10Z</time></trkpt><trkpt lat="43.40288578428178" lon="12.982211166630185"><ele>219.0</ele><time>2026-04-12T10:29:11Z</time></trkpt><trkpt lat="43.40267988328771" lon="12.982190407320811"><ele>219.0</ele><time>2026-04-12T10:29:12Z</time></trkpt><trkpt lat="43.40247432118154" lon="12.982163925696334"><ele>219.0</ele><time>2026-04-12T10:29:13Z</time></trkpt><trkpt lat="43.40226134249657" lon="12.982143351821938"><ele>219.0</ele><time>2026-04-12T10:29:14Z</time></trkpt><trkpt lat="43.402032078113514" lon="12.98212054053065"><ele>219.0</ele><time>2026-04-12T10:29:15Z</time></trkpt><trkpt lat="43.40179707860242" lon="12.982095001474406"><ele>219.0</ele><time>2026-04-12T10:29:16Z</time></trkpt><trkpt lat="43.40156723997097" lon="12.982071221254333"><ele>219.0</ele><time>2026-04-12T10:29:17Z</time></trkpt><trkpt lat="43.40133822398304" lon="12.982047074690453"><ele>219.0</ele><time>2026-04-12T10:29:18Z</time></trkpt><trkpt lat="43.4011220398681" lon="12.982029641393778"><ele>219.0</ele><time>2026-04-12T10:29:19Z</time></trkpt><trkpt lat="43.40090851710364" lon="12.982009624838415"><ele>225.0</ele><time>2026-04-12T10:29:20.014Z</time></trkpt><trkpt lat="43.400696342741576" lon="12.98198938082435"><ele>231.0</ele><time>2026-04-12T10:29:21.018Z</time></trkpt><trkpt lat="43.400483606633834" lon="12.981968379670981"><ele>237.0</ele><time>2026-04-12T10:29:22.016Z</time></trkpt><trkpt lat="43.40026700504048" lon="12.981949672815547"><ele>240.5</ele><time>2026-04-12T10:29:23.019Z</time></trkpt><trkpt lat="43.40005657800829" lon="12.98192994751202"><ele>244.0</ele><time>2026-04-12T10:29:24.016Z</time></trkpt><trkpt lat="43.398587191517834" lon="12.981784595188667"><ele>246.5</ele><time>2026-04-12T10:29:30Z</time></trkpt><trkpt lat="43.39835532631042" lon="12.981765059598244"><ele>249.0</ele><time>2026-04-12T10:29:31Z</time></trkpt><trkpt lat="43.39812258477261" lon="12.981750325340615"><ele>246.0</ele><time>2026-04-12T10:29:32Z</time></trkpt><trkpt lat="43.39788628301794" lon="12.98173697150443"><ele>243.0</ele><time>2026-04-12T10:29:33Z</time></trkpt><trkpt lat="43.39765120472462" lon="12.981734023642696"><ele>243.0</ele><time>2026-04-12T10:29:34Z</time></trkpt><trkpt lat="43.397405666918665" lon="12.981738159445099"><ele>243.0</ele><time>2026-04-12T10:29:35Z</time></trkpt><trkpt lat="43.397146149693384" lon="12.98175249496648"><ele>240.5</ele><time>2026-04-12T10:29:36Z</time></trkpt><trkpt lat="43.3969061710409" lon="12.9817512058046"><ele>238.0</ele><time>2026-04-12T10:29:37Z</time></trkpt><trkpt lat="43.39666663355134" lon="12.981754556925347"><ele>238.0</ele><time>2026-04-12T10:29:38Z</time></trkpt><trkpt lat="43.39642947166476" lon="12.981772533576914"><ele>238.0</ele><time>2026-04-12T10:29:39Z</time></trkpt><trkpt lat="43.39619228170221" lon="12.981793201526001"><ele>239.0</ele><time>2026-04-12T10:29:40Z</time></trkpt><trkpt lat="43.39595418180136" lon="12.981817684739097"><ele>240.0</ele><time>2026-04-12T10:29:41Z</time></trkpt><trkpt lat="43.39571644411266" lon="12.981842521452693"><ele>247.5</ele><time>2026-04-12T10:29:42Z</time></trkpt><trkpt lat="43.395480943686735" lon="12.981870369670718"><ele>255.0</ele><time>2026-04-12T10:29:43Z</time></trkpt><trkpt lat="43.39524499471943" lon="12.98189754110129"><ele>255.0</ele><time>2026-04-12T10:29:44Z</time></trkpt><trkpt lat="43.3950096824081" lon="12.981926863828804"><ele>255.0</ele><time>2026-04-12T10:29:45Z</time></trkpt><trkpt lat="43.39477379449212" lon="12.981949598912424"><ele>260.0</ele><time>2026-04-12T10:29:46Z</time></trkpt><trkpt lat="43.39453785626416" lon="12.981969511499228"><ele>265.0</ele><time>2026-04-12T10:29:47Z</time></trkpt><trkpt lat="43.394298821824165" lon="12.981991364149188"><ele>265.0</ele><time>2026-04-12T10:29:48.019Z</time></trkpt><trkpt lat="43.39406195726828" lon="12.982011398198829"><ele>265.0</ele><time>2026-04-12T10:29:49.019Z</time></trkpt><trkpt lat="43.39382550074113" lon="12.982030133776451"><ele>270.0</ele><time>2026-04-12T10:29:50.02Z</time></trkpt><trkpt lat="43.39359102710962" lon="12.98205047955097"><ele>275.0</ele><time>2026-04-12T10:29:51.018Z</time></trkpt><trkpt lat="43.39156786480719" lon="12.982230703445946"><ele>279.0</ele><time>2026-04-12T10:29:54.468Z</time></trkpt><trkpt lat="43.39120890077746" lon="12.982266412426096"><ele>283.0</ele><time>2026-04-12T10:29:55.467Z</time></trkpt><trkpt lat="43.390850312535406" lon="12.982302386513911"><ele>276.0</ele><time>2026-04-12T10:29:56.466Z</time></trkpt><trkpt lat="43.390491576741255" lon="12.982338416746513"><ele>269.0</ele><time>2026-04-12T10:29:57.465Z</time></trkpt><trkpt lat="43.3901315479415" lon="12.982374576844304"><ele>269.0</ele><time>2026-04-12T10:29:58.468Z</time></trkpt><trkpt lat="43.389772478569284" lon="12.982410640580378"><ele>269.0</ele><time>2026-04-12T10:29:59.468Z</time></trkpt><trkpt lat="43.389413316909845" lon="12.982446713585475"><ele>264.5</ele><time>2026-04-12T10:30:00.468Z</time></trkpt><trkpt lat="43.38905477600986" lon="12.98248283568988"><ele>260.0</ele><time>2026-04-12T10:30:01.466Z</time></trkpt><trkpt lat="43.38869535444055" lon="12.98252050437633"><ele>266.5</ele><time>2026-04-12T10:30:02.468Z</time></trkpt><trkpt lat="43.38833638068499" lon="12.982558457548723"><ele>273.0</ele><time>2026-04-12T10:30:03.468Z</time></trkpt><trkpt lat="43.38797742160726" lon="12.982596409169277"><ele>273.0</ele><time>2026-04-12T10:30:04.468Z</time></trkpt><trkpt lat="43.38718382180053" lon="12.982803080243041"><ele>269.6666666666667</ele><time>2026-04-12T10:30:18Z</time></trkpt><trkpt lat="43.386954276878356" lon="12.982837984171123"><ele>266.33333333333337</ele><time>2026-04-12T10:30:19Z</time></trkpt><trkpt lat="43.386779094478825" lon="12.982823056324898"><ele>263.0</ele><time>2026-04-12T10:30:20Z</time></trkpt><trkpt lat="43.3866032375332" lon="12.98285492434558"><ele>263.0</ele><time>2026-04-12T10:30:21Z</time></trkpt><trkpt lat="43.386422875090716" lon="12.982894690492174"><ele>263.0</ele><time>2026-04-12T10:30:22Z</time></trkpt><trkpt lat="43.38626788818673" lon="12.982945438846679"><ele>263.0</ele><time>2026-04-12T10:30:23Z</time></trkpt><trkpt lat="43.38613452697558" lon="12.983023032930229"><ele>261.6666666666667</ele><time>2026-04-12T10:30:24Z</time></trkpt><trkpt lat="43.38598082376503" lon="12.983140223847297"><ele>260.3333333333333</ele><time>2026-04-12T10:30:25Z</time></trkpt><trkpt lat="43.38583192765428" lon="12.983264269760387"><ele>259.0</ele><time>2026-04-12T10:30:26Z</time></trkpt><trkpt lat="43.385665548751234" lon="12.983380827618419"><ele>265.0</ele><time>2026-04-12T10:30:27Z</time></trkpt><trkpt lat="43.38549096199463" lon="12.983448964343554"><ele>271.0</ele><time>2026-04-12T10:30:28Z</time></trkpt><trkpt lat="43.38529973460683" lon="12.983540375401368"><ele>277.0</ele><time>2026-04-12T10:30:29Z</time></trkpt><trkpt lat="43.3851028348467" lon="12.98361601116423"><ele>277.0</ele><time>2026-04-12T10:30:30Z</time></trkpt><trkpt lat="43.38490730273119" lon="12.983700747035735"><ele>277.0</ele><time>2026-04-12T10:30:31.026Z</time></trkpt><trkpt lat="43.38471664008497" lon="12.983785772089263"><ele>277.0</ele><time>2026-04-12T10:30:32.019Z</time></trkpt><trkpt lat="43.38452419166783" lon="12.983871435223646"><ele>269.0</ele><time>2026-04-12T10:30:33.019Z</time></trkpt><trkpt lat="43.38433607646441" lon="12.983955208912356"><ele>261.0</ele><time>2026-04-12T10:30:34.021Z</time></trkpt><trkpt lat="43.38414883895251" lon="12.984032847490697"><ele>253.0</ele><time>2026-04-12T10:30:35Z</time></trkpt><trkpt lat="43.38383723424536" lon="12.984173411230936"><ele>256.0</ele><time>2026-04-12T10:30:36Z</time></trkpt><trkpt lat="43.38360881143915" lon="12.984270756221088"><ele>259.0</ele><time>2026-04-12T10:30:37Z</time></trkpt><trkpt lat="43.38339198452033" lon="12.984366853192908"><ele>259.0</ele><time>2026-04-12T10:30:38Z</time></trkpt><trkpt lat="43.383160917138" lon="12.984463516127683"><ele>259.0</ele><time>2026-04-12T10:30:39Z</time></trkpt><trkpt lat="43.382944899294586" lon="12.984566037942143"><ele>258.5</ele><time>2026-04-12T10:30:40Z</time></trkpt><trkpt lat="43.38271805627252" lon="12.984664742477218"><ele>258.0</ele><time>2026-04-12T10:30:41Z</time></trkpt><trkpt lat="43.38250247409149" lon="12.984759820794618"><ele>258.0</ele><time>2026-04-12T10:30:42Z</time></trkpt><trkpt lat="43.38228698327826" lon="12.984858508803585"><ele>258.0</ele><time>2026-04-12T10:30:43Z</time></trkpt><trkpt lat="43.38206809723459" lon="12.984959539415275"><ele>269.5</ele><time>2026-04-12T10:30:44.018Z</time></trkpt><trkpt lat="43.381847765114536" lon="12.985036745167557"><ele>281.0</ele><time>2026-04-12T10:30:45.02Z</time></trkpt><trkpt lat="43.38163091809523" lon="12.985131582965485"><ele>281.0</ele><time>2026-04-12T10:30:46.019Z</time></trkpt><trkpt lat="43.38141529984608" lon="12.985225225975913"><ele>281.0</ele><time>2026-04-12T10:30:47.018Z</time></trkpt><trkpt lat="43.38120033008118" lon="12.985318787812757"><ele>290.0</ele><time>2026-04-12T10:30:48.019Z</time></trkpt><trkpt lat="43.380021523785835" lon="12.985859565904718"><ele>290.0</ele><time>2026-04-12T10:30:51.465Z</time></trkpt><trkpt lat="43.37967373359793" lon="12.985986134789886"><ele>290.0</ele><time>2026-04-12T10:30:52.463Z</time></trkpt><trkpt lat="43.379328858144454" lon="12.98613602158599"><ele>290.0</ele><time>2026-04-12T10:30:53.468Z</time></trkpt><trkpt lat="43.378992116796304" lon="12.98630716886275"><ele>290.0</ele><time>2026-04-12T10:30:54.464Z</time></trkpt><trkpt lat="43.37864288975908" lon="12.986436553264426"><ele>287.5</ele><time>2026-04-12T10:30:55.468Z</time></trkpt><trkpt lat="43.37829982777882" lon="12.986585890461564"><ele>285.0</ele><time>2026-04-12T10:30:56.468Z</time></trkpt><trkpt lat="43.3779627278426" lon="12.98675524272589"><ele>293.5</ele><time>2026-04-12T10:30:57.464Z</time></trkpt><trkpt lat="43.377618737513544" lon="12.986907334353035"><ele>302.0</ele><time>2026-04-12T10:30:58.468Z</time></trkpt><trkpt lat="43.37727214355805" lon="12.987036712858977"><ele>290.0</ele><time>2026-04-12T10:30:59.464Z</time></trkpt><trkpt lat="43.37692824201759" lon="12.987188065754884"><ele>278.0</ele><time>2026-04-12T10:31:00.468Z</time></trkpt><trkpt lat="43.37659028828746" lon="12.987359807033211"><ele>283.0</ele><time>2026-04-12T10:31:01.468Z</time></trkpt><trkpt lat="43.3762428721155" lon="12.987487763685527"><ele>288.0</ele><time>2026-04-12T10:31:02.466Z</time></trkpt><trkpt lat="43.37590534478562" lon="12.987659318503177"><ele>288.0</ele><time>2026-04-12T10:31:03.465Z</time></trkpt><trkpt lat="43.37555748580933" lon="12.987788649677125"><ele>288.0</ele><time>2026-04-12T10:31:04.465Z</time></trkpt><trkpt lat="43.37521942960671" lon="12.987962476827567"><ele>276.0</ele><time>2026-04-12T10:31:05.466Z</time></trkpt><trkpt lat="43.374875665853224" lon="12.988111652937905"><ele>264.0</ele><time>2026-04-12T10:31:06.468Z</time></trkpt><trkpt lat="43.374532753658876" lon="12.988260459514578"><ele>265.0</ele><time>2026-04-12T10:31:07.467Z</time></trkpt><trkpt lat="43.374185845846135" lon="12.988387891145898"><ele>266.0</ele><time>2026-04-12T10:31:08.463Z</time></trkpt><trkpt lat="43.37384213109528" lon="12.988538403472294"><ele>266.0</ele><time>2026-04-12T10:31:09.465Z</time></trkpt><trkpt lat="43.3737128" lon="12.988619"><ele>266.0</ele><time>2026-04-12T10:31:10.464Z</time></trkpt><trkpt lat="43.37138334758894" lon="12.989760562789616"><ele>252.0</ele><time>2026-04-12T10:31:31Z</time></trkpt><trkpt lat="43.371167601927404" lon="12.989898223610952"><ele>238.0</ele><time>2026-04-12T10:31:32Z</time></trkpt><trkpt lat="43.370942677858395" lon="12.990036880243721"><ele>238.0</ele><time>2026-04-12T10:31:33Z</time></trkpt><trkpt lat="43.37074483059665" lon="12.99020906042093"><ele>238.0</ele><time>2026-04-12T10:31:34Z</time></trkpt><trkpt lat="43.37053545068241" lon="12.990371501114346"><ele>228.5</ele><time>2026-04-12T10:31:35Z</time></trkpt><trkpt lat="43.37032608076095" lon="12.990538444627417"><ele>219.0</ele><time>2026-04-12T10:31:36Z</time></trkpt><trkpt lat="43.37012053238314" lon="12.990701048439954"><ele>228.0</ele><time>2026-04-12T10:31:37Z</time></trkpt><trkpt lat="43.36992940666356" lon="12.990898877854372"><ele>237.0</ele><time>2026-04-12T10:31:38Z</time></trkpt><trkpt lat="43.369740810599424" lon="12.991109089644478"><ele>230.0</ele><time>2026-04-12T10:31:39Z</time></trkpt><trkpt lat="43.36955260774827" lon="12.99131077344544"><ele>223.0</ele><time>2026-04-12T10:31:40Z</time></trkpt><trkpt lat="43.3693556519978" lon="12.991508058386916"><ele>232.5</ele><time>2026-04-12T10:31:41Z</time></trkpt><trkpt lat="43.369158910804174" lon="12.991691826344608"><ele>242.0</ele><time>2026-04-12T10:31:42Z</time></trkpt><trkpt lat="43.36895906183984" lon="12.991865439360579"><ele>234.5</ele><time>2026-04-12T10:31:43Z</time></trkpt><trkpt lat="43.36875230681517" lon="12.992032786151327"><ele>227.0</ele><time>2026-04-12T10:31:44Z</time></trkpt><trkpt lat="43.36853909825536" lon="12.992186420927174"><ele>227.0</ele><time>2026-04-12T10:31:45Z</time></trkpt><trkpt lat="43.36832201309896" lon="12.992327295953134"><ele>227.0</ele><time>2026-04-12T10:31:46Z</time></trkpt><trkpt lat="43.368103563371434" lon="12.992459513021723"><ele>234.0</ele><time>2026-04-12T10:31:47Z</time></trkpt><trkpt lat="43.367880667582355" lon="12.992585378237392"><ele>241.0</ele><time>2026-04-12T10:31:48Z</time></trkpt><trkpt lat="43.36765952355847" lon="12.992703031139092"><ele>241.0</ele><time>2026-04-12T10:31:49Z</time></trkpt><trkpt lat="43.367432768940354" lon="12.99281554338539"><ele>241.0</ele><time>2026-04-12T10:31:50Z</time></trkpt><trkpt lat="43.36721012690056" lon="12.992920784788657"><ele>232.5</ele><time>2026-04-12T10:31:51Z</time></trkpt><trkpt lat="43.36698109841062" lon="12.99302229440221"><ele>224.0</ele><time>2026-04-12T10:31:52Z</time></trkpt><trkpt lat="43.36675039548439" lon="12.993126353243012"><ele>224.0</ele><time>2026-04-12T10:31:53Z</time></trkpt><trkpt lat="43.36652973553666" lon="12.993227647936386"><ele>224.0</ele><time>2026-04-12T10:31:54Z</time></trkpt><trkpt lat="43.36629840953496" lon="12.993335385215202"><ele>233.5</ele><time>2026-04-12T10:31:55Z</time></trkpt><trkpt lat="43.366072485083585" lon="12.993441021799558"><ele>243.0</ele><time>2026-04-12T10:31:56Z</time></trkpt><trkpt lat="43.36584643426856" lon="12.993545318722314"><ele>243.0</ele><time>2026-04-12T10:31:57Z</time></trkpt><trkpt lat="43.36561940126271" lon="12.993650029106755"><ele>243.0</ele><time>2026-04-12T10:31:58Z</time></trkpt><trkpt lat="43.365396070956756" lon="12.99375163901178"><ele>235.5</ele><time>2026-04-12T10:31:59Z</time></trkpt><trkpt lat="43.365169737738476" lon="12.993856868005732"><ele>228.0</ele><time>2026-04-12T10:32:00Z</time></trkpt><trkpt lat="43.364941526624364" lon="12.99396536006056"><ele>228.0</ele><time>2026-04-12T10:32:01Z</time></trkpt><trkpt lat="43.36471919493654" lon="12.99407183295564"><ele>228.0</ele><time>2026-04-12T10:32:02Z</time></trkpt><trkpt lat="43.364487667193146" lon="12.994179920018"><ele>230.5</ele><time>2026-04-12T10:32:03Z</time></trkpt><trkpt lat="43.36426501135148" lon="12.99428048846319"><ele>233.0</ele><time>2026-04-12T10:32:04Z</time></trkpt><trkpt lat="43.364039162264795" lon="12.994380507883651"><ele>228.5</ele><time>2026-04-12T10:32:05Z</time></trkpt><trkpt lat="43.36381150605533" lon="12.994483965198414"><ele>224.0</ele><time>2026-04-12T10:32:06Z</time></trkpt><trkpt lat="43.36358192852805" lon="12.994590638312319"><ele>224.0</ele><time>2026-04-12T10:32:07Z</time></trkpt><trkpt lat="43.36335870076835" lon="12.994695425965645"><ele>224.0</ele><time>2026-04-12T10:32:08Z</time></trkpt><trkpt lat="43.363135598359825" lon="12.99480137880607"><ele>224.5</ele><time>2026-04-12T10:32:09Z</time></trkpt><trkpt lat="43.36290812618175" lon="12.994902469241834"><ele>225.0</ele><time>2026-04-12T10:32:10Z</time></trkpt><trkpt lat="43.36267855244172" lon="12.99500593109733"><ele>225.0</ele><time>2026-04-12T10:32:11Z</time></trkpt><trkpt lat="43.36245595749458" lon="12.995111044075932"><ele>225.0</ele><time>2026-04-12T10:32:12Z</time></trkpt><trkpt lat="43.36222846086048" lon="12.995215747024334"><ele>224.5</ele><time>2026-04-12T10:32:13Z</time></trkpt><trkpt lat="43.36199916773461" lon="12.995322982104861"><ele>224.0</ele><time>2026-04-12T10:32:14Z</time></trkpt><trkpt lat="43.36177120130526" lon="12.995426737856487"><ele>224.0</ele><time>2026-04-12T10:32:15Z</time></trkpt><trkpt lat="43.36154333214933" lon="12.995532073254532"><ele>224.0</ele><time>2026-04-12T10:32:16Z</time></trkpt><trkpt lat="43.36131648958049" lon="12.995632509005645"><ele>223.5</ele><time>2026-04-12T10:32:17Z</time></trkpt><trkpt lat="43.36108747508343" lon="12.995737929938425"><ele>223.0</ele><time>2026-04-12T10:32:18Z</time></trkpt><trkpt lat="43.360863702629636" lon="12.995837239034373"><ele>223.5</ele><time>2026-04-12T10:32:19Z</time></trkpt><trkpt lat="43.360639662673236" lon="12.99594026285347"><ele>224.0</ele><time>2026-04-12T10:32:20Z</time></trkpt><trkpt lat="43.360409977369756" lon="12.996050979552827"><ele>224.0</ele><time>2026-04-12T10:32:21Z</time></trkpt><trkpt lat="43.36018453254715" lon="12.996151512514832"><ele>224.0</ele><time>2026-04-12T10:32:22Z</time></trkpt><trkpt lat="43.35995590321191" lon="12.996256670199449"><ele>224.0</ele><time>2026-04-12T10:32:23Z</time></trkpt><trkpt lat="43.35973310611643" lon="12.99636246573834"><ele>224.0</ele><time>2026-04-12T10:32:24Z</time></trkpt><trkpt lat="43.35950237547525" lon="12.996469888345615"><ele>223.5</ele><time>2026-04-12T10:32:25Z</time></trkpt><trkpt lat="43.3592791722929" lon="12.996575402511434"><ele>223.0</ele><time>2026-04-12T10:32:26Z</time></trkpt><trkpt lat="43.35905618909409" lon="12.99669300843255"><ele>225.0</ele><time>2026-04-12T10:32:27Z</time></trkpt><trkpt lat="43.35883565796272" lon="12.996827127639305"><ele>227.0</ele><time>2026-04-12T10:32:28Z</time></trkpt><trkpt lat="43.35861827942841" lon="12.996962269092608"><ele>227.0</ele><time>2026-04-12T10:32:29Z</time></trkpt><trkpt lat="43.35840910413797" lon="12.997123997078264"><ele>227.0</ele><time>2026-04-12T10:32:30Z</time></trkpt><trkpt lat="43.35820595891872" lon="12.997291161450969"><ele>226.5</ele><time>2026-04-12T10:32:31Z</time></trkpt><trkpt lat="43.358005084811275" lon="12.997474342832868"><ele>226.0</ele><time>2026-04-12T10:32:32Z</time></trkpt><trkpt lat="43.35781144655274" lon="12.997666140814816"><ele>226.0</ele><time>2026-04-12T10:32:33Z</time></trkpt><trkpt lat="43.357624180532554" lon="12.997870407287888"><ele>226.0</ele><time>2026-04-12T10:32:34Z</time></trkpt><trkpt lat="43.357441039199664" lon="12.998080913999306"><ele>226.0</ele><time>2026-04-12T10:32:35Z</time></trkpt><trkpt lat="43.357259326033024" lon="12.998289916102234"><ele>226.0</ele><time>2026-04-12T10:32:36Z</time></trkpt><trkpt lat="43.35707723266624" lon="12.99849881394806"><ele>229.5</ele><time>2026-04-12T10:32:37Z</time></trkpt><trkpt lat="43.35689152441623" lon="12.998700167850046"><ele>233.0</ele><time>2026-04-12T10:32:38Z</time></trkpt><trkpt lat="43.35669868276979" lon="12.99889064590196"><ele>233.0</ele><time>2026-04-12T10:32:39Z</time></trkpt><trkpt lat="43.35650096140267" lon="12.999064669450838"><ele>233.0</ele><time>2026-04-12T10:32:40Z</time></trkpt><trkpt lat="43.356296688563845" lon="12.99922304928792"><ele>238.0</ele><time>2026-04-12T10:32:41Z</time></trkpt><trkpt lat="43.35608331636618" lon="12.999368619336481"><ele>243.0</ele><time>2026-04-12T10:32:42Z</time></trkpt><trkpt lat="43.355864073441325" lon="12.999488943876072"><ele>243.0</ele><time>2026-04-12T10:32:43Z</time></trkpt><trkpt lat="43.35563519568249" lon="12.999595250092723"><ele>243.0</ele><time>2026-04-12T10:32:44Z</time></trkpt><trkpt lat="43.35540785236094" lon="12.999656614644794"><ele>236.5</ele><time>2026-04-12T10:32:45Z</time></trkpt><trkpt lat="43.355166468726175" lon="12.999717090666174"><ele>230.0</ele><time>2026-04-12T10:32:46Z</time></trkpt><trkpt lat="43.35493483855315" lon="12.9997406050239"><ele>230.0</ele><time>2026-04-12T10:32:47Z</time></trkpt><trkpt lat="43.354713905726435" lon="12.999749513451384"><ele>230.0</ele><time>2026-04-12T10:32:48Z</time></trkpt><trkpt lat="43.354498610318046" lon="12.999744081360864"><ele>230.0</ele><time>2026-04-12T10:32:49Z</time></trkpt><trkpt lat="43.3542765118471" lon="12.999720902746448"><ele>229.33333333333334</ele><time>2026-04-12T10:32:50Z</time></trkpt><trkpt lat="43.35406559169866" lon="12.999679335366045"><ele>228.66666666666669</ele><time>2026-04-12T10:32:51Z</time></trkpt><trkpt lat="43.35385710082761" lon="12.999619247963857"><ele>228.0</ele><time>2026-04-12T10:32:52Z</time></trkpt><trkpt lat="43.35364974618742" lon="12.999536145300372"><ele>227.66666666666669</ele><time>2026-04-12T10:32:53Z</time></trkpt><trkpt lat="43.35343506763362" lon="12.999430758072238"><ele>227.33333333333334</ele><time>2026-04-12T10:32:54Z</time></trkpt><trkpt lat="43.353231273047605" lon="12.99931350749593"><ele>227.0</ele><time>2026-04-12T10:32:55Z</time></trkpt><trkpt lat="43.35303108957456" lon="12.999176601533742"><ele>227.0</ele><time>2026-04-12T10:32:56Z</time></trkpt><trkpt lat="43.3528305775356" lon="12.999021115457616"><ele>227.0</ele><time>2026-04-12T10:32:57Z</time></trkpt><trkpt lat="43.35264021401186" lon="12.9988529379703"><ele>227.0</ele><time>2026-04-12T10:32:58Z</time></trkpt><trkpt lat="43.352453204336015" lon="12.998663106453453"><ele>227.0</ele><time>2026-04-12T10:32:59Z</time></trkpt><trkpt lat="43.35227200378193" lon="12.998456325982017"><ele>229.5</ele><time>2026-04-12T10:33:00Z</time></trkpt><trkpt lat="43.352109829385135" lon="12.998233152449261"><ele>232.0</ele><time>2026-04-12T10:33:01Z</time></trkpt><trkpt lat="43.35195489818695" lon="12.997994592860548"><ele>232.0</ele><time>2026-04-12T10:33:02Z</time></trkpt><trkpt lat="43.35180684212882" lon="12.99773871082296"><ele>232.0</ele><time>2026-04-12T10:33:03Z</time></trkpt><trkpt lat="43.35166934298893" lon="12.997474388799137"><ele>231.5</ele><time>2026-04-12T10:33:04Z</time></trkpt><trkpt lat="43.35153671007371" lon="12.997205659690454"><ele>231.0</ele><time>2026-04-12T10:33:05Z</time></trkpt><trkpt lat="43.351404742165265" lon="12.996934507027671"><ele>229.0</ele><time>2026-04-12T10:33:06Z</time></trkpt><trkpt lat="43.35127442537592" lon="12.99666187415577"><ele>227.0</ele><time>2026-04-12T10:33:07Z</time></trkpt><trkpt lat="43.35114626080942" lon="12.9964004504058"><ele>227.0</ele><time>2026-04-12T10:33:08Z</time></trkpt><trkpt lat="43.35101533597896" lon="12.996133723433456"><ele>227.0</ele><time>2026-04-12T10:33:09Z</time></trkpt><trkpt lat="43.35088164073697" lon="12.995866299470697"><ele>228.5</ele><time>2026-04-12T10:33:10Z</time></trkpt><trkpt lat="43.35074826595023" lon="12.99560125288606"><ele>230.0</ele><time>2026-04-12T10:33:11Z</time></trkpt><trkpt lat="43.35061622099167" lon="12.995340002956153"><ele>229.5</ele><time>2026-04-12T10:33:12Z</time></trkpt><trkpt lat="43.35048152858135" lon="12.995068398512307"><ele>229.0</ele><time>2026-04-12T10:33:13Z</time></trkpt><trkpt lat="43.350345941019285" lon="12.994798078405326"><ele>231.0</ele><time>2026-04-12T10:33:14Z</time></trkpt><trkpt lat="43.350212285614504" lon="12.994529018664574"><ele>233.0</ele><time>2026-04-12T10:33:15Z</time></trkpt><trkpt lat="43.35008069716215" lon="12.99427230482381"><ele>249.0</ele><time>2026-04-12T10:33:16Z</time></trkpt><trkpt lat="43.3499495540085" lon="12.99401803523317"><ele>265.0</ele><time>2026-04-12T10:33:17Z</time></trkpt><trkpt lat="43.349815852123974" lon="12.993760013090816"><ele>272.5</ele><time>2026-04-12T10:33:18.019Z</time></trkpt><trkpt lat="43.349685527755504" lon="12.993506401340088"><ele>280.0</ele><time>2026-04-12T10:33:19.016Z</time></trkpt><trkpt lat="43.34955227048644" lon="12.993249484000943"><ele>280.0</ele><time>2026-04-12T10:33:20.018Z</time></trkpt><trkpt lat="43.34941969433157" lon="12.992993864225056"><ele>280.0</ele><time>2026-04-12T10:33:21.018Z</time></trkpt><trkpt lat="43.34928728740035" lon="12.992740836621776"><ele>299.0</ele><time>2026-04-12T10:33:22.019Z</time></trkpt><trkpt lat="43.3481803644296" lon="12.990419096625414"><ele>263.0</ele><time>2026-04-12T10:33:25.465Z</time></trkpt><trkpt lat="43.34782669620721" lon="12.989701961220891"><ele>266.0</ele><time>2026-04-12T10:33:26.467Z</time></trkpt><trkpt lat="43.34747957750413" lon="12.988983223413024"><ele>240.0</ele><time>2026-04-12T10:33:27.466Z</time></trkpt><trkpt lat="43.34715341534566" lon="12.98824186671053"><ele>240.0</ele><time>2026-04-12T10:33:28.468Z</time></trkpt><trkpt lat="43.34693518005623" lon="12.987652178865845"><ele>240.5</ele><time>2026-04-12T10:33:40.001Z</time></trkpt><trkpt lat="43.346833129582826" lon="12.987365678516882"><ele>241.0</ele><time>2026-04-12T10:33:41.001Z</time></trkpt><trkpt lat="43.34672603388274" lon="12.98701873854324"><ele>241.0</ele><time>2026-04-12T10:33:42.001Z</time></trkpt><trkpt lat="43.34664193105639" lon="12.986712872178051"><ele>241.0</ele><time>2026-04-12T10:33:43.001Z</time></trkpt><trkpt lat="43.3465612061356" lon="12.986407939186236"><ele>241.0</ele><time>2026-04-12T10:33:44.001Z</time></trkpt><trkpt lat="43.34647643747137" lon="12.986103435578991"><ele>241.0</ele><time>2026-04-12T10:33:45.001Z</time></trkpt><trkpt lat="43.3463964001844" lon="12.985794888253787"><ele>237.5</ele><time>2026-04-12T10:33:46Z</time></trkpt><trkpt lat="43.3463119968849" lon="12.985493218881464"><ele>234.0</ele><time>2026-04-12T10:33:47Z</time></trkpt><trkpt lat="43.34622863238797" lon="12.985184001767902"><ele>233.0</ele><time>2026-04-12T10:33:48Z</time></trkpt><trkpt lat="43.34614394577226" lon="12.984880660031072"><ele>232.0</ele><time>2026-04-12T10:33:49Z</time></trkpt><trkpt lat="43.3460606737934" lon="12.984576191185484"><ele>232.0</ele><time>2026-04-12T10:33:50Z</time></trkpt><trkpt lat="43.345976727305036" lon="12.984277861924362"><ele>232.0</ele><time>2026-04-12T10:33:51Z</time></trkpt><trkpt lat="43.34589536526013" lon="12.98397543803243"><ele>236.0</ele><time>2026-04-12T10:33:52Z</time></trkpt><trkpt lat="43.34581484631105" lon="12.983676152548915"><ele>240.0</ele><time>2026-04-12T10:33:53Z</time></trkpt><trkpt lat="43.345734867498024" lon="12.983377215457644"><ele>246.5</ele><time>2026-04-12T10:33:54Z</time></trkpt><trkpt lat="43.345654501111596" lon="12.983081175646863"><ele>253.0</ele><time>2026-04-12T10:33:55Z</time></trkpt><trkpt lat="43.34557458728482" lon="12.982779953502655"><ele>250.0</ele><time>2026-04-12T10:33:56Z</time></trkpt><trkpt lat="43.34549339883776" lon="12.982484149900055"><ele>247.0</ele><time>2026-04-12T10:33:57Z</time></trkpt><trkpt lat="43.34540971612175" lon="12.982185213789997"><ele>247.0</ele><time>2026-04-12T10:33:58Z</time></trkpt><trkpt lat="43.34533380940399" lon="12.981870382554247"><ele>247.0</ele><time>2026-04-12T10:33:59Z</time></trkpt><trkpt lat="43.345260752760026" lon="12.981552528595293"><ele>254.0</ele><time>2026-04-12T10:34:00Z</time></trkpt><trkpt lat="43.345185364024005" lon="12.981227991393606"><ele>261.0</ele><time>2026-04-12T10:34:01.019Z</time></trkpt><trkpt lat="43.34511094399431" lon="12.980910363825334"><ele>266.0</ele><time>2026-04-12T10:34:02.019Z</time></trkpt><trkpt lat="43.34503648198399" lon="12.980593042675858"><ele>271.0</ele><time>2026-04-12T10:34:03.024Z</time></trkpt><trkpt lat="43.344961331009856" lon="12.980274997565013"><ele>271.0</ele><time>2026-04-12T10:34:04.019Z</time></trkpt><trkpt lat="43.34486832559234" lon="12.979966427066602"><ele>271.0</ele><time>2026-04-12T10:34:05.018Z</time></trkpt><trkpt lat="43.34449906371845" lon="12.978721847769783"><ele>263.5</ele><time>2026-04-12T10:34:09Z</time></trkpt><trkpt lat="43.3444238082427" lon="12.97840316936562"><ele>256.0</ele><time>2026-04-12T10:34:10Z</time></trkpt><trkpt lat="43.34435939658176" lon="12.978098156651233"><ele>256.0</ele><time>2026-04-12T10:34:11Z</time></trkpt><trkpt lat="43.344298612917896" lon="12.977782948329162"><ele>256.0</ele><time>2026-04-12T10:34:12Z</time></trkpt><trkpt lat="43.34425855620452" lon="12.977467846120868"><ele>256.5</ele><time>2026-04-12T10:34:13Z</time></trkpt><trkpt lat="43.34421586271861" lon="12.977140154518358"><ele>257.0</ele><time>2026-04-12T10:34:14Z</time></trkpt><trkpt lat="43.34417637521756" lon="12.976856689660698"><ele>256.0</ele><time>2026-04-12T10:34:15Z</time></trkpt><trkpt lat="43.34414003064056" lon="12.976527666728995"><ele>255.0</ele><time>2026-04-12T10:34:16Z</time></trkpt><trkpt lat="43.34410889136344" lon="12.976202159224393"><ele>255.0</ele><time>2026-04-12T10:34:17Z</time></trkpt><trkpt lat="43.344084096198046" lon="12.975869739653174"><ele>255.0</ele><time>2026-04-12T10:34:18Z</time></trkpt><trkpt lat="43.34406358580061" lon="12.975539395024887"><ele>255.5</ele><time>2026-04-12T10:34:19Z</time></trkpt><trkpt lat="43.34405247016984" lon="12.975208076500216"><ele>256.0</ele><time>2026-04-12T10:34:20Z</time></trkpt><trkpt lat="43.34404646016998" lon="12.974877023233102"><ele>256.0</ele><time>2026-04-12T10:34:21Z</time></trkpt><trkpt lat="43.34404607922127" lon="12.974544942043932"><ele>256.0</ele><time>2026-04-12T10:34:22Z</time></trkpt><trkpt lat="43.34404913520001" lon="12.97421580567504"><ele>257.5</ele><time>2026-04-12T10:34:23Z</time></trkpt><trkpt lat="43.34406052354535" lon="12.973879438580171"><ele>259.0</ele><time>2026-04-12T10:34:24Z</time></trkpt><trkpt lat="43.34407931448071" lon="12.973549581292712"><ele>260.0</ele><time>2026-04-12T10:34:25Z</time></trkpt><trkpt lat="43.344103847721726" lon="12.973215567264855"><ele>261.0</ele><time>2026-04-12T10:34:26Z</time></trkpt><trkpt lat="43.34413214677832" lon="12.97287985166527"><ele>261.0</ele><time>2026-04-12T10:34:27Z</time></trkpt><trkpt lat="43.344165120514226" lon="12.972543827385921"><ele>261.0</ele><time>2026-04-12T10:34:28Z</time></trkpt><trkpt lat="43.34419942745549" lon="12.972214363857942"><ele>260.5</ele><time>2026-04-12T10:34:29Z</time></trkpt><trkpt lat="43.344229969539825" lon="12.971883084601698"><ele>260.0</ele><time>2026-04-12T10:34:30Z</time></trkpt><trkpt lat="43.344258110435426" lon="12.971551163114743"><ele>259.5</ele><time>2026-04-12T10:34:31Z</time></trkpt><trkpt lat="43.34428738064334" lon="12.971212777573278"><ele>259.0</ele><time>2026-04-12T10:34:32Z</time></trkpt><trkpt lat="43.34431840274851" lon="12.97087621048693"><ele>260.5</ele><time>2026-04-12T10:34:33Z</time></trkpt><trkpt lat="43.34434904268813" lon="12.970536818859731"><ele>262.0</ele><time>2026-04-12T10:34:34Z</time></trkpt><trkpt lat="43.34438120856295" lon="12.97020587507886"><ele>263.5</ele><time>2026-04-12T10:34:35Z</time></trkpt><trkpt lat="43.344414032411095" lon="12.969867242440454"><ele>265.0</ele><time>2026-04-12T10:34:36Z</time></trkpt><trkpt lat="43.3444452646348" lon="12.969528489812706"><ele>267.5</ele><time>2026-04-12T10:34:37Z</time></trkpt><trkpt lat="43.34447836404545" lon="12.969186402411133"><ele>270.0</ele><time>2026-04-12T10:34:38Z</time></trkpt><trkpt lat="43.344510970501645" lon="12.96884802362923"><ele>270.0</ele><time>2026-04-12T10:34:39Z</time></trkpt><trkpt lat="43.344540586670384" lon="12.968505019381785"><ele>270.0</ele><time>2026-04-12T10:34:40Z</time></trkpt><trkpt lat="43.344569448438634" lon="12.968161701866128"><ele>269.5</ele><time>2026-04-12T10:34:41Z</time></trkpt><trkpt lat="43.344601223529196" lon="12.967819813090971"><ele>269.0</ele><time>2026-04-12T10:34:42Z</time></trkpt><trkpt lat="43.344633249959315" lon="12.967466458718858"><ele>268.5</ele><time>2026-04-12T10:34:43Z</time></trkpt><trkpt lat="43.34466563889726" lon="12.967114394799726"><ele>268.0</ele><time>2026-04-12T10:34:44Z</time></trkpt><trkpt lat="43.34469754220766" lon="12.966764835379067"><ele>270.5</ele><time>2026-04-12T10:34:45Z</time></trkpt><trkpt lat="43.34472899880218" lon="12.966410930670895"><ele>273.0</ele><time>2026-04-12T10:34:46Z</time></trkpt><trkpt lat="43.34475867015218" lon="12.966064256155665"><ele>273.0</ele><time>2026-04-12T10:34:47Z</time></trkpt><trkpt lat="43.344789964430134" lon="12.965718577856148"><ele>273.0</ele><time>2026-04-12T10:34:48Z</time></trkpt><trkpt lat="43.34482147023701" lon="12.96536756522027"><ele>272.0</ele><time>2026-04-12T10:34:49Z</time></trkpt><trkpt lat="43.344853754943095" lon="12.965022023011148"><ele>271.0</ele><time>2026-04-12T10:34:50Z</time></trkpt><trkpt lat="43.34488826991639" lon="12.96467526901851"><ele>271.0</ele><time>2026-04-12T10:34:51Z</time></trkpt><trkpt lat="43.34492267605224" lon="12.964327484932921"><ele>271.0</ele><time>2026-04-12T10:34:52Z</time></trkpt><trkpt lat="43.344954115978176" lon="12.963985763462487"><ele>271.0</ele><time>2026-04-12T10:34:53Z</time></trkpt><trkpt lat="43.34498460701266" lon="12.963638497233998"><ele>271.0</ele><time>2026-04-12T10:34:54Z</time></trkpt><trkpt lat="43.34501085810166" lon="12.963290397572598"><ele>271.0</ele><time>2026-04-12T10:34:55Z</time></trkpt><trkpt lat="43.34503276644844" lon="12.962947209605675"><ele>271.0</ele><time>2026-04-12T10:34:56Z</time></trkpt><trkpt lat="43.345047794408046" lon="12.962600588259955"><ele>270.5</ele><time>2026-04-12T10:34:57Z</time></trkpt><trkpt lat="43.345054020502744" lon="12.962270705146171"><ele>270.0</ele><time>2026-04-12T10:34:58Z</time></trkpt><trkpt lat="43.3450520047391" lon="12.961934015131785"><ele>270.0</ele><time>2026-04-12T10:34:59Z</time></trkpt><trkpt lat="43.345044884865736" lon="12.961593435622925"><ele>270.0</ele><time>2026-04-12T10:35:00Z</time></trkpt><trkpt lat="43.3450303827434" lon="12.961254845210071"><ele>270.0</ele><time>2026-04-12T10:35:01Z</time></trkpt><trkpt lat="43.34501166971662" lon="12.96091850749385"><ele>270.0</ele><time>2026-04-12T10:35:02Z</time></trkpt><trkpt lat="43.34498485311971" lon="12.960583697815961"><ele>268.5</ele><time>2026-04-12T10:35:03Z</time></trkpt><trkpt lat="43.34495133208514" lon="12.960246689788702"><ele>267.0</ele><time>2026-04-12T10:35:04Z</time></trkpt><trkpt lat="43.34491043155829" lon="12.959906055875347"><ele>266.0</ele><time>2026-04-12T10:35:05Z</time></trkpt><trkpt lat="43.34486378122159" lon="12.959574427693058"><ele>265.0</ele><time>2026-04-12T10:35:06Z</time></trkpt><trkpt lat="43.34480642760054" lon="12.95923937949196"><ele>263.0</ele><time>2026-04-12T10:35:07Z</time></trkpt><trkpt lat="43.34474331761441" lon="12.958904053697951"><ele>261.0</ele><time>2026-04-12T10:35:08Z</time></trkpt><trkpt lat="43.344675344194854" lon="12.958579269548018"><ele>256.5</ele><time>2026-04-12T10:35:09Z</time></trkpt><trkpt lat="43.34459971078163" lon="12.95824934236065"><ele>252.0</ele><time>2026-04-12T10:35:10Z</time></trkpt><trkpt lat="43.3445196415944" lon="12.957919812998195"><ele>252.0</ele><time>2026-04-12T10:35:11Z</time></trkpt><trkpt lat="43.3444365991481" lon="12.957589540960251"><ele>252.0</ele><time>2026-04-12T10:35:12Z</time></trkpt><trkpt lat="43.344354994123904" lon="12.957260099032315"><ele>251.5</ele><time>2026-04-12T10:35:13Z</time></trkpt><trkpt lat="43.344275796600215" lon="12.95692731420292"><ele>251.0</ele><time>2026-04-12T10:35:14Z</time></trkpt><trkpt lat="43.34419863165254" lon="12.9565983001327"><ele>251.0</ele><time>2026-04-12T10:35:15Z</time></trkpt><trkpt lat="43.34411957228954" lon="12.956271132789338"><ele>251.0</ele><time>2026-04-12T10:35:16Z</time></trkpt><trkpt lat="43.344042557174696" lon="12.955950694186699"><ele>252.0</ele><time>2026-04-12T10:35:17Z</time></trkpt><trkpt lat="43.343966907054885" lon="12.95563541663422"><ele>253.0</ele><time>2026-04-12T10:35:18Z</time></trkpt><trkpt lat="43.343891929997305" lon="12.955322012720188"><ele>255.0</ele><time>2026-04-12T10:35:19Z</time></trkpt><trkpt lat="43.343816083369546" lon="12.95501200144869"><ele>257.0</ele><time>2026-04-12T10:35:20Z</time></trkpt><trkpt lat="43.343744665488906" lon="12.954721798708471"><ele>257.0</ele><time>2026-04-12T10:35:21Z</time></trkpt><trkpt lat="43.343675282389185" lon="12.954437456271327"><ele>257.0</ele><time>2026-04-12T10:35:22Z</time></trkpt><trkpt lat="43.343605608159315" lon="12.954157517641228"><ele>257.0</ele><time>2026-04-12T10:35:23Z</time></trkpt><trkpt lat="43.34354179961884" lon="12.953888869814053"><ele>259.0</ele><time>2026-04-12T10:35:24Z</time></trkpt><trkpt lat="43.34347980996881" lon="12.953632531684883"><ele>261.0</ele><time>2026-04-12T10:35:25Z</time></trkpt><trkpt lat="43.343420513758055" lon="12.953391156627973"><ele>263.0</ele><time>2026-04-12T10:35:26Z</time></trkpt><trkpt lat="43.343367118468535" lon="12.953154438194817"><ele>263.6666666666667</ele><time>2026-04-12T10:35:27Z</time></trkpt><trkpt lat="43.343319298154135" lon="12.95291088250972"><ele>264.3333333333333</ele><time>2026-04-12T10:35:28Z</time></trkpt><trkpt lat="43.34327148826501" lon="12.952668160580536"><ele>265.0</ele><time>2026-04-12T10:35:29Z</time></trkpt><trkpt lat="43.34321696729903" lon="12.952433242773543"><ele>265.66666666666663</ele><time>2026-04-12T10:35:30Z</time></trkpt><trkpt lat="43.3431596382651" lon="12.952210589985246"><ele>266.3333333333333</ele><time>2026-04-12T10:35:31Z</time></trkpt><trkpt lat="43.34311401100804" lon="12.952010908949129"><ele>267.0</ele><time>2026-04-12T10:35:32Z</time></trkpt><trkpt lat="43.34309197194238" lon="12.951819724519027"><ele>267.5</ele><time>2026-04-12T10:35:33Z</time></trkpt><trkpt lat="43.34307125080971" lon="12.951653183970166"><ele>268.0</ele><time>2026-04-12T10:35:34Z</time></trkpt><trkpt lat="43.343184763283055" lon="12.951451759950654"><ele>268.5</ele><time>2026-04-12T10:35:35Z</time></trkpt><trkpt lat="43.343269291929964" lon="12.951312143068188"><ele>269.0</ele><time>2026-04-12T10:35:36Z</time></trkpt><trkpt lat="43.34338935220748" lon="12.95120009026273"><ele>269.0</ele><time>2026-04-12T10:35:37Z</time></trkpt><trkpt lat="43.34349998433224" lon="12.951096107799184"><ele>269.0</ele><time>2026-04-12T10:35:38Z</time></trkpt><trkpt lat="43.34364308842138" lon="12.951094036233789"><ele>269.0</ele><time>2026-04-12T10:35:39Z</time></trkpt><trkpt lat="43.34376426504423" lon="12.951075037348739"><ele>269.0</ele><time>2026-04-12T10:35:40Z</time></trkpt><trkpt lat="43.34385954137647" lon="12.951074857107331"><ele>268.8</ele><time>2026-04-12T10:35:41Z</time></trkpt><trkpt lat="43.34393440111963" lon="12.951164610484467"><ele>268.59999999999997</ele><time>2026-04-12T10:35:42Z</time></trkpt><trkpt lat="43.343975553872085" lon="12.951266574476614"><ele>268.4</ele><time>2026-04-12T10:35:43Z</time></trkpt><trkpt lat="43.344010417845794" lon="12.951397060889747"><ele>268.2</ele><time>2026-04-12T10:35:44Z</time></trkpt><trkpt lat="43.34400772135095" lon="12.951553540140505"><ele>268.0</ele><time>2026-04-12T10:35:45Z</time></trkpt><trkpt lat="43.344004604334735" lon="12.951734422523849"><ele>266.66666666666663</ele><time>2026-04-12T10:35:46Z</time></trkpt><trkpt lat="43.34398553588248" lon="12.9519351496457"><ele>265.3333333333333</ele><time>2026-04-12T10:35:47Z</time></trkpt><trkpt lat="43.34398741419963" lon="12.952154286715093"><ele>264.0</ele><time>2026-04-12T10:35:48Z</time></trkpt><trkpt lat="43.34398889991607" lon="12.952374266959719"><ele>264.3333333333333</ele><time>2026-04-12T10:35:49Z</time></trkpt><trkpt lat="43.34398772894038" lon="12.952614000967786"><ele>264.66666666666663</ele><time>2026-04-12T10:35:50Z</time></trkpt><trkpt lat="43.34398160109542" lon="12.952867420449351"><ele>265.0</ele><time>2026-04-12T10:35:51Z</time></trkpt><trkpt lat="43.343972947703826" lon="12.95312122755314"><ele>264.66666666666663</ele><time>2026-04-12T10:35:52Z</time></trkpt><trkpt lat="43.34396702673964" lon="12.953373354742103"><ele>264.3333333333333</ele><time>2026-04-12T10:35:53Z</time></trkpt><trkpt lat="43.34396491715155" lon="12.953613742454284"><ele>264.0</ele><time>2026-04-12T10:35:54Z</time></trkpt><trkpt lat="43.34396709591047" lon="12.953842105670471"><ele>264.0</ele><time>2026-04-12T10:35:55Z</time></trkpt><trkpt lat="43.34399092134702" lon="12.954052175155176"><ele>264.0</ele><time>2026-04-12T10:35:56Z</time></trkpt><trkpt lat="43.34404274357491" lon="12.954247166847127"><ele>264.0</ele><time>2026-04-12T10:35:57Z</time></trkpt><trkpt lat="43.34406773282168" lon="12.95442391216059"><ele>264.0</ele><time>2026-04-12T10:35:58Z</time></trkpt><trkpt lat="43.344244234253985" lon="12.954498474687194"><ele>262.0</ele><time>2026-04-12T10:35:59Z</time></trkpt><trkpt lat="43.34436317305693" lon="12.954594904633492"><ele>260.0</ele><time>2026-04-12T10:36:00Z</time></trkpt><trkpt lat="43.34449500692797" lon="12.954671595078569"><ele>258.0</ele><time>2026-04-12T10:36:01Z</time></trkpt><trkpt lat="43.344641017736" lon="12.95468494586227"><ele>256.0</ele><time>2026-04-12T10:36:02Z</time></trkpt><trkpt lat="43.34478094275952" lon="12.95466547537271"><ele>255.8</ele><time>2026-04-12T10:36:03Z</time></trkpt><trkpt lat="43.344897183314956" lon="12.954581607686748"><ele>255.60000000000002</ele><time>2026-04-12T10:36:04Z</time></trkpt><trkpt lat="43.34500206140994" lon="12.954517896818608"><ele>255.4</ele><time>2026-04-12T10:36:05Z</time></trkpt><trkpt lat="43.34510437807274" lon="12.954536934720176"><ele>255.2</ele><time>2026-04-12T10:36:06Z</time></trkpt><trkpt lat="43.34518016361376" lon="12.954578328301347"><ele>255.0</ele><time>2026-04-12T10:36:07Z</time></trkpt><trkpt lat="43.345241718916185" lon="12.954657311019298"><ele>255.0</ele><time>2026-04-12T10:36:08Z</time></trkpt><trkpt lat="43.34527210715254" lon="12.9547976373948"><ele>255.0</ele><time>2026-04-12T10:36:09Z</time></trkpt><trkpt lat="43.345309710886845" lon="12.954938085368903"><ele>255.0</ele><time>2026-04-12T10:36:10Z</time></trkpt><trkpt lat="43.34530801268015" lon="12.955100897779205"><ele>255.0</ele><time>2026-04-12T10:36:11Z</time></trkpt><trkpt lat="43.345274813063604" lon="12.955251722016905"><ele>255.0</ele><time>2026-04-12T10:36:12Z</time></trkpt><trkpt lat="43.345210864386246" lon="12.95539325716894"><ele>254.8</ele><time>2026-04-12T10:36:13Z</time></trkpt><trkpt lat="43.34513268903452" lon="12.955516646011192"><ele>254.6</ele><time>2026-04-12T10:36:14Z</time></trkpt><trkpt lat="43.3450563399956" lon="12.95560468453207"><ele>254.39999999999998</ele><time>2026-04-12T10:36:15Z</time></trkpt><trkpt lat="43.34497822722541" lon="12.955649537710345"><ele>254.2</ele><time>2026-04-12T10:36:16Z</time></trkpt><trkpt lat="43.344896077121675" lon="12.95565238554449"><ele>254.0</ele><time>2026-04-12T10:36:17Z</time></trkpt><trkpt lat="43.34481308932445" lon="12.955626797438395"><ele>254.0</ele><time>2026-04-12T10:36:18Z</time></trkpt><trkpt lat="43.344725126754184" lon="12.955571672151875"><ele>253.99999999999997</ele><time>2026-04-12T10:36:19Z</time></trkpt><trkpt lat="43.34462157346432" lon="12.955521672945114"><ele>253.99999999999997</ele><time>2026-04-12T10:36:20Z</time></trkpt><trkpt lat="43.34450790997291" lon="12.95547331885017"><ele>254.0</ele><time>2026-04-12T10:36:21Z</time></trkpt><trkpt lat="43.34441641853104" lon="12.95541711140352"><ele>254.0</ele><time>2026-04-12T10:36:22Z</time></trkpt><trkpt lat="43.34435387766259" lon="12.955331488075435"><ele>253.75</ele><time>2026-04-12T10:36:23Z</time></trkpt><trkpt lat="43.34430581681493" lon="12.955204238956346"><ele>253.5</ele><time>2026-04-12T10:36:24Z</time></trkpt><trkpt lat="43.344232990049655" lon="12.955065350464823"><ele>253.25</ele><time>2026-04-12T10:36:25Z</time></trkpt><trkpt lat="43.34411222908879" lon="12.9549668504799"><ele>253.0</ele><time>2026-04-12T10:36:26Z</time></trkpt><trkpt lat="43.343969251729156" lon="12.954918343876901"><ele>253.33333333333331</ele><time>2026-04-12T10:36:27Z</time></trkpt><trkpt lat="43.34381842496609" lon="12.954929356501127"><ele>253.66666666666669</ele><time>2026-04-12T10:36:28Z</time></trkpt><trkpt lat="43.34366275582158" lon="12.954979324439046"><ele>254.0</ele><time>2026-04-12T10:36:29Z</time></trkpt><trkpt lat="43.343506055772366" lon="12.95505884773157"><ele>254.0</ele><time>2026-04-12T10:36:30Z</time></trkpt><trkpt lat="43.343341027756146" lon="12.955067407607531"><ele>254.0</ele><time>2026-04-12T10:36:31Z</time></trkpt><trkpt lat="43.34316502305357" lon="12.955094317881732"><ele>254.0</ele><time>2026-04-12T10:36:32Z</time></trkpt><trkpt lat="43.34298947545418" lon="12.955084553018114"><ele>254.66666666666669</ele><time>2026-04-12T10:36:33Z</time></trkpt><trkpt lat="43.34281026268278" lon="12.9550867624513"><ele>255.33333333333331</ele><time>2026-04-12T10:36:34Z</time></trkpt><trkpt lat="43.34264554193478" lon="12.955096711758268"><ele>256.0</ele><time>2026-04-12T10:36:35Z</time></trkpt><trkpt lat="43.34249235392324" lon="12.955100658123552"><ele>256.0</ele><time>2026-04-12T10:36:36Z</time></trkpt><trkpt lat="43.34236204850272" lon="12.955113931969855"><ele>256.0</ele><time>2026-04-12T10:36:37Z</time></trkpt><trkpt lat="43.342215622436875" lon="12.955169115268035"><ele>256.0</ele><time>2026-04-12T10:36:38Z</time></trkpt><trkpt lat="43.34207304921785" lon="12.955260695555385"><ele>256.0</ele><time>2026-04-12T10:36:39Z</time></trkpt><trkpt lat="43.341913307425216" lon="12.955361364206915"><ele>257.66666666666663</ele><time>2026-04-12T10:36:40Z</time></trkpt><trkpt lat="43.34174268022829" lon="12.955472632483616"><ele>259.3333333333333</ele><time>2026-04-12T10:36:41Z</time></trkpt><trkpt lat="43.34157575150521" lon="12.955622050216945"><ele>261.0</ele><time>2026-04-12T10:36:42Z</time></trkpt><trkpt lat="43.34141386031746" lon="12.955788900600853"><ele>260.0</ele><time>2026-04-12T10:36:43Z</time></trkpt><trkpt lat="43.34126715167218" lon="12.955939984395567"><ele>259.0</ele><time>2026-04-12T10:36:44Z</time></trkpt><trkpt lat="43.34113226130209" lon="12.956062238590414"><ele>258.0</ele><time>2026-04-12T10:36:45Z</time></trkpt><trkpt lat="43.34100065464592" lon="12.956157585753669"><ele>258.0</ele><time>2026-04-12T10:36:46Z</time></trkpt><trkpt lat="43.34088045413352" lon="12.956229316733477"><ele>258.0</ele><time>2026-04-12T10:36:47Z</time></trkpt><trkpt lat="43.34077445362278" lon="12.95627724243007"><ele>258.0</ele><time>2026-04-12T10:36:48Z</time></trkpt><trkpt lat="43.3406881776759" lon="12.956286217464568"><ele>258.0</ele><time>2026-04-12T10:36:49Z</time></trkpt><trkpt lat="43.340610014812604" lon="12.956260592750022"><ele>258.0</ele><time>2026-04-12T10:36:50Z</time></trkpt><trkpt lat="43.340527451711" lon="12.956205503669684"><ele>259.0</ele><time>2026-04-12T10:36:51Z</time></trkpt><trkpt lat="43.34042250118833" lon="12.95615218779344"><ele>260.0</ele><time>2026-04-12T10:36:52Z</time></trkpt><trkpt lat="43.340327209663684" lon="12.95615693685651"><ele>261.0</ele><time>2026-04-12T10:36:53Z</time></trkpt><trkpt lat="43.34025722031279" lon="12.95622991907918"><ele>262.0</ele><time>2026-04-12T10:36:54Z</time></trkpt><trkpt lat="43.34022489501783" lon="12.956344618662147"><ele>263.0</ele><time>2026-04-12T10:36:55Z</time></trkpt><trkpt lat="43.34021804854655" lon="12.956477163477514"><ele>263.0</ele><time>2026-04-12T10:36:56Z</time></trkpt><trkpt lat="43.34010347636894" lon="12.956531198449268"><ele>263.0</ele><time>2026-04-12T10:36:57Z</time></trkpt><trkpt lat="43.34005591342742" lon="12.956638280762895"><ele>263.0</ele><time>2026-04-12T10:36:58Z</time></trkpt><trkpt lat="43.34009863517165" lon="12.956868970738334"><ele>263.0</ele><time>2026-04-12T10:36:59Z</time></trkpt><trkpt lat="43.3400005271485" lon="12.957020809954043"><ele>262.0</ele><time>2026-04-12T10:37:00Z</time></trkpt><trkpt lat="43.33989620441386" lon="12.957199465260198"><ele>261.0</ele><time>2026-04-12T10:37:01Z</time></trkpt><trkpt lat="43.33979197907234" lon="12.957375577563024"><ele>260.0</ele><time>2026-04-12T10:37:02Z</time></trkpt><trkpt lat="43.33968381909072" lon="12.957566196090117"><ele>264.6666666666667</ele><time>2026-04-12T10:37:03Z</time></trkpt><trkpt lat="43.33957074281857" lon="12.957757280004943"><ele>269.3333333333333</ele><time>2026-04-12T10:37:04Z</time></trkpt><trkpt lat="43.33944628085951" lon="12.957948031860932"><ele>274.0</ele><time>2026-04-12T10:37:05Z</time></trkpt><trkpt lat="43.33931744174821" lon="12.958133852938985"><ele>274.0</ele><time>2026-04-12T10:37:06Z</time></trkpt><trkpt lat="43.339204771338224" lon="12.958319320320197"><ele>274.0</ele><time>2026-04-12T10:37:07Z</time></trkpt><trkpt lat="43.33910336007958" lon="12.958530256742486"><ele>274.0</ele><time>2026-04-12T10:37:08Z</time></trkpt><trkpt lat="43.33901466944124" lon="12.958769655565742"><ele>276.0</ele><time>2026-04-12T10:37:09Z</time></trkpt><trkpt lat="43.33893446702924" lon="12.95900838900215"><ele>278.0</ele><time>2026-04-12T10:37:10Z</time></trkpt><trkpt lat="43.33885783314121" lon="12.959231574871042"><ele>280.0</ele><time>2026-04-12T10:37:11Z</time></trkpt><trkpt lat="43.33877123315371" lon="12.959450504587315"><ele>280.0</ele><time>2026-04-12T10:37:12Z</time></trkpt><trkpt lat="43.33869116377594" lon="12.95966540271819"><ele>280.0</ele><time>2026-04-12T10:37:13Z</time></trkpt><trkpt lat="43.33862288696176" lon="12.959869512912276"><ele>280.0</ele><time>2026-04-12T10:37:14Z</time></trkpt><trkpt lat="43.33855011551029" lon="12.96005796004862"><ele>276.3333333333333</ele><time>2026-04-12T10:37:15Z</time></trkpt><trkpt lat="43.33847331490755" lon="12.960231818782061"><ele>272.6666666666667</ele><time>2026-04-12T10:37:16Z</time></trkpt><trkpt lat="43.338403830877525" lon="12.960419798922425"><ele>269.0</ele><time>2026-04-12T10:37:17Z</time></trkpt><trkpt lat="43.33834638122909" lon="12.960636335038505"><ele>269.0</ele><time>2026-04-12T10:37:18Z</time></trkpt><trkpt lat="43.33831332442199" lon="12.960844655317088"><ele>269.0</ele><time>2026-04-12T10:37:19Z</time></trkpt><trkpt lat="43.33826363432611" lon="12.961051359695226"><ele>269.0</ele><time>2026-04-12T10:37:20Z</time></trkpt><trkpt lat="43.33820310159606" lon="12.96123440071954"><ele>269.6666666666667</ele><time>2026-04-12T10:37:21Z</time></trkpt><trkpt lat="43.33812796139024" lon="12.96142235242721"><ele>270.3333333333333</ele><time>2026-04-12T10:37:22Z</time></trkpt><trkpt lat="43.33803172907171" lon="12.961616582363316"><ele>271.0</ele><time>2026-04-12T10:37:23Z</time></trkpt><trkpt lat="43.33792863864631" lon="12.961812282295757"><ele>268.66666666666663</ele><time>2026-04-12T10:37:24Z</time></trkpt><trkpt lat="43.33781945410005" lon="12.961992718401365"><ele>266.3333333333333</ele><time>2026-04-12T10:37:25Z</time></trkpt><trkpt lat="43.33770665362773" lon="12.962168752152866"><ele>264.0</ele><time>2026-04-12T10:37:26Z</time></trkpt><trkpt lat="43.33757535228395" lon="12.962337859042385"><ele>264.0</ele><time>2026-04-12T10:37:27Z</time></trkpt><trkpt lat="43.33743633564532" lon="12.962483799813578"><ele>264.0</ele><time>2026-04-12T10:37:28Z</time></trkpt><trkpt lat="43.33729103883378" lon="12.96263178486105"><ele>264.0</ele><time>2026-04-12T10:37:29Z</time></trkpt><trkpt lat="43.33715906527193" lon="12.962770882873821"><ele>263.5</ele><time>2026-04-12T10:37:30Z</time></trkpt><trkpt lat="43.33702922271036" lon="12.962907157692511"><ele>263.0</ele><time>2026-04-12T10:37:31Z</time></trkpt><trkpt lat="43.33691589974646" lon="12.963030329497327"><ele>262.5</ele><time>2026-04-12T10:37:32Z</time></trkpt><trkpt lat="43.33680936733839" lon="12.963144557315777"><ele>262.0</ele><time>2026-04-12T10:37:33Z</time></trkpt><trkpt lat="43.33671240421311" lon="12.963244894270069"><ele>262.0</ele><time>2026-04-12T10:37:34Z</time></trkpt><trkpt lat="43.33661694916574" lon="12.963323650391464"><ele>262.0</ele><time>2026-04-12T10:37:35Z</time></trkpt><trkpt lat="43.3365099564923" lon="12.963379881853474"><ele>262.0</ele><time>2026-04-12T10:37:36Z</time></trkpt><trkpt lat="43.33639267273903" lon="12.963414210915328"><ele>262.0</ele><time>2026-04-12T10:37:37Z</time></trkpt><trkpt lat="43.336258529338345" lon="12.963419030035071"><ele>263.0</ele><time>2026-04-12T10:37:38Z</time></trkpt><trkpt lat="43.33610667616873" lon="12.963398684368066"><ele>264.0</ele><time>2026-04-12T10:37:39Z</time></trkpt><trkpt lat="43.33595098225334" lon="12.963361386374823"><ele>265.0</ele><time>2026-04-12T10:37:40Z</time></trkpt><trkpt lat="43.33577490088491" lon="12.96331539665551"><ele>264.66666666666663</ele><time>2026-04-12T10:37:41Z</time></trkpt><trkpt lat="43.33560856566859" lon="12.963257084449914"><ele>264.3333333333333</ele><time>2026-04-12T10:37:42Z</time></trkpt><trkpt lat="43.33543978997843" lon="12.963209388817784"><ele>264.0</ele><time>2026-04-12T10:37:43Z</time></trkpt><trkpt lat="43.33528727634501" lon="12.963166397622151"><ele>264.0</ele><time>2026-04-12T10:37:44Z</time></trkpt><trkpt lat="43.335135579340594" lon="12.963141635991896"><ele>264.0</ele><time>2026-04-12T10:37:45Z</time></trkpt><trkpt lat="43.334972258744635" lon="12.96314152142642"><ele>264.0</ele><time>2026-04-12T10:37:46Z</time></trkpt><trkpt lat="43.33481142068291" lon="12.963141050108698"><ele>263.5</ele><time>2026-04-12T10:37:47Z</time></trkpt><trkpt lat="43.33465950660159" lon="12.963136022186914"><ele>263.0</ele><time>2026-04-12T10:37:48Z</time></trkpt><trkpt lat="43.33450929621444" lon="12.96312578229559"><ele>262.5</ele><time>2026-04-12T10:37:49Z</time></trkpt><trkpt lat="43.33437145032462" lon="12.963117433343614"><ele>262.0</ele><time>2026-04-12T10:37:50Z</time></trkpt><trkpt lat="43.33423319636893" lon="12.963102516659633"><ele>262.0</ele><time>2026-04-12T10:37:51Z</time></trkpt><trkpt lat="43.334106495716206" lon="12.963077280921985"><ele>262.0</ele><time>2026-04-12T10:37:52Z</time></trkpt><trkpt lat="43.33398605572975" lon="12.963027031591345"><ele>262.0</ele><time>2026-04-12T10:37:53Z</time></trkpt><trkpt lat="43.33387154101072" lon="12.962941223872882"><ele>262.0</ele><time>2026-04-12T10:37:54Z</time></trkpt><trkpt lat="43.33375733012462" lon="12.962837491707976"><ele>262.0</ele><time>2026-04-12T10:37:55Z</time></trkpt><trkpt lat="43.33365167483536" lon="12.962733928038432"><ele>262.0</ele><time>2026-04-12T10:37:56Z</time></trkpt><trkpt lat="43.33355884644932" lon="12.962617715142267"><ele>262.0</ele><time>2026-04-12T10:37:57Z</time></trkpt><trkpt lat="43.33348650613198" lon="12.962483253057997"><ele>262.0</ele><time>2026-04-12T10:37:58Z</time></trkpt><trkpt lat="43.33342389718575" lon="12.962334952650686"><ele>262.0</ele><time>2026-04-12T10:37:59Z</time></trkpt><trkpt lat="43.333375458624005" lon="12.962174519443879"><ele>262.0</ele><time>2026-04-12T10:38:00Z</time></trkpt><trkpt lat="43.333341827448116" lon="12.962008588523307"><ele>262.0</ele><time>2026-04-12T10:38:01Z</time></trkpt><trkpt lat="43.33330873343554" lon="12.961861117741089"><ele>262.0</ele><time>2026-04-12T10:38:02Z</time></trkpt><trkpt lat="43.333257760466225" lon="12.961731679343641"><ele>262.0</ele><time>2026-04-12T10:38:03Z</time></trkpt><trkpt lat="43.33319825119583" lon="12.961608614776472"><ele>262.0</ele><time>2026-04-12T10:38:04Z</time></trkpt><trkpt lat="43.33313829044044" lon="12.961486499336287"><ele>262.0</ele><time>2026-04-12T10:38:05Z</time></trkpt><trkpt lat="43.33308112677261" lon="12.961356142983357"><ele>262.0</ele><time>2026-04-12T10:38:06Z</time></trkpt><trkpt lat="43.33301727709471" lon="12.961219934942115"><ele>262.0</ele><time>2026-04-12T10:38:07Z</time></trkpt><trkpt lat="43.332937240317214" lon="12.961084075943303"><ele>262.0</ele><time>2026-04-12T10:38:08Z</time></trkpt><trkpt lat="43.33283615796535" lon="12.960959327116543"><ele>262.0</ele><time>2026-04-12T10:38:09Z</time></trkpt><trkpt lat="43.33271563282983" lon="12.960857942371408"><ele>262.0</ele><time>2026-04-12T10:38:10Z</time></trkpt><trkpt lat="43.332584782342856" lon="12.960768277486363"><ele>262.0</ele><time>2026-04-12T10:38:11Z</time></trkpt><trkpt lat="43.33245108124639" lon="12.96067579863139"><ele>262.75</ele><time>2026-04-12T10:38:12Z</time></trkpt><trkpt lat="43.332346626602224" lon="12.9605547849979"><ele>263.5</ele><time>2026-04-12T10:38:13Z</time></trkpt><trkpt lat="43.332240561398926" lon="12.960441373060185"><ele>264.25</ele><time>2026-04-12T10:38:14Z</time></trkpt><trkpt lat="43.33213450386952" lon="12.960314926213316"><ele>265.0</ele><time>2026-04-12T10:38:15Z</time></trkpt><trkpt lat="43.33202705422302" lon="12.960186357185819"><ele>265.0</ele><time>2026-04-12T10:38:16Z</time></trkpt><trkpt lat="43.331925081116395" lon="12.960064340914748"><ele>265.0</ele><time>2026-04-12T10:38:17Z</time></trkpt><trkpt lat="43.3318180956245" lon="12.959964847906901"><ele>265.0</ele><time>2026-04-12T10:38:18Z</time></trkpt><trkpt lat="43.331723101900444" lon="12.959857575812775"><ele>265.0</ele><time>2026-04-12T10:38:19Z</time></trkpt><trkpt lat="43.33162640567485" lon="12.95976074703402"><ele>264.75</ele><time>2026-04-12T10:38:20Z</time></trkpt><trkpt lat="43.33152924868757" lon="12.959673640960103"><ele>264.5</ele><time>2026-04-12T10:38:21Z</time></trkpt><trkpt lat="43.331418949111374" lon="12.959611051263998"><ele>264.25</ele><time>2026-04-12T10:38:22Z</time></trkpt><trkpt lat="43.331315500149955" lon="12.959542636144173"><ele>264.0</ele><time>2026-04-12T10:38:23Z</time></trkpt><trkpt lat="43.331225079220374" lon="12.959464847324462"><ele>264.0</ele><time>2026-04-12T10:38:24Z</time></trkpt><trkpt lat="43.33114196954222" lon="12.959379457363736"><ele>264.0</ele><time>2026-04-12T10:38:25Z</time></trkpt><trkpt lat="43.331069758517934" lon="12.959292875607977"><ele>264.0</ele><time>2026-04-12T10:38:26Z</time></trkpt><trkpt lat="43.33101269928414" lon="12.95918871455974"><ele>264.0</ele><time>2026-04-12T10:38:27Z</time></trkpt><trkpt lat="43.330945292039836" lon="12.959132249102032"><ele>264.0</ele><time>2026-04-12T10:38:28Z</time></trkpt><trkpt lat="43.33089758558255" lon="12.959048476659946"><ele>265.1666666666667</ele><time>2026-04-12T10:38:30Z</time></trkpt><trkpt lat="43.3309699182989" lon="12.95895003913101"><ele>266.3333333333333</ele><time>2026-04-12T10:38:34Z</time></trkpt><trkpt lat="43.33102060786894" lon="12.958886026281617"><ele>267.5</ele><time>2026-04-12T10:38:36Z</time></trkpt><trkpt lat="43.330972691546506" lon="12.958945712478187"><ele>268.66666666666663</ele><time>2026-04-12T10:39:14Z</time></trkpt><trkpt lat="43.33092414112403" lon="12.959029396364741"><ele>269.8333333333333</ele><time>2026-04-12T10:39:16Z</time></trkpt><trkpt lat="43.33079019220902" lon="12.959008961757977"><ele>271.0</ele><time>2026-04-12T10:39:19Z</time></trkpt><trkpt lat="43.330686303380695" lon="12.959068493332111"><ele>271.0</ele><time>2026-04-12T10:39:20Z</time></trkpt><trkpt lat="43.330594839100065" lon="12.959073476484429"><ele>271.0</ele><time>2026-04-12T10:39:21Z</time></trkpt><trkpt lat="43.33049789431209" lon="12.959100969271361"><ele>271.0</ele><time>2026-04-12T10:39:22Z</time></trkpt><trkpt lat="43.330402051658695" lon="12.959136707361584"><ele>271.0</ele><time>2026-04-12T10:39:23Z</time></trkpt><trkpt lat="43.330295394817426" lon="12.959168166431342"><ele>271.0</ele><time>2026-04-12T10:39:24Z</time></trkpt><trkpt lat="43.33018152870666" lon="12.959198075336598"><ele>271.2</ele><time>2026-04-12T10:39:25Z</time></trkpt><trkpt lat="43.330076294524495" lon="12.959210496241509"><ele>271.40000000000003</ele><time>2026-04-12T10:39:26Z</time></trkpt><trkpt lat="43.329977720906946" lon="12.959201019866324"><ele>271.6</ele><time>2026-04-12T10:39:27Z</time></trkpt><trkpt lat="43.329874746666555" lon="12.959141479218264"><ele>271.8</ele><time>2026-04-12T10:39:28Z</time></trkpt><trkpt lat="43.32975256460985" lon="12.959080228151251"><ele>272.0</ele><time>2026-04-12T10:39:29Z</time></trkpt><trkpt lat="43.32962328120696" lon="12.95900550842822"><ele>270.75</ele><time>2026-04-12T10:39:30Z</time></trkpt><trkpt lat="43.32950158312145" lon="12.958928429729673"><ele>269.5</ele><time>2026-04-12T10:39:31Z</time></trkpt><trkpt lat="43.329375515847765" lon="12.958841198684183"><ele>268.25</ele><time>2026-04-12T10:39:32Z</time></trkpt><trkpt lat="43.32924447374796" lon="12.958743434428655"><ele>267.0</ele><time>2026-04-12T10:39:33Z</time></trkpt><trkpt lat="43.329097802203115" lon="12.95863077501362"><ele>267.0</ele><time>2026-04-12T10:39:34Z</time></trkpt><trkpt lat="43.3289491192619" lon="12.958517382392765"><ele>267.0</ele><time>2026-04-12T10:39:35Z</time></trkpt><trkpt lat="43.328790357313515" lon="12.958431226769552"><ele>267.0</ele><time>2026-04-12T10:39:36Z</time></trkpt><trkpt lat="43.328641099025674" lon="12.958333872330112"><ele>269.6666666666667</ele><time>2026-04-12T10:39:37Z</time></trkpt><trkpt lat="43.3284840086718" lon="12.958242876373877"><ele>272.33333333333337</ele><time>2026-04-12T10:39:38Z</time></trkpt><trkpt lat="43.32831179304278" lon="12.958162188692087"><ele>275.0</ele><time>2026-04-12T10:39:39Z</time></trkpt><trkpt lat="43.32813956145038" lon="12.958077308010884"><ele>274.6666666666667</ele><time>2026-04-12T10:39:40Z</time></trkpt><trkpt lat="43.32797146114653" lon="12.958048063930736"><ele>274.3333333333333</ele><time>2026-04-12T10:39:41Z</time></trkpt><trkpt lat="43.32781605356013" lon="12.958067133059231"><ele>274.0</ele><time>2026-04-12T10:39:42Z</time></trkpt><trkpt lat="43.327676634682035" lon="12.958070013976142"><ele>274.0</ele><time>2026-04-12T10:39:43Z</time></trkpt><trkpt lat="43.32755977439135" lon="12.958066146348706"><ele>274.0</ele><time>2026-04-12T10:39:44Z</time></trkpt><trkpt lat="43.3274474405836" lon="12.958069896176436"><ele>274.0</ele><time>2026-04-12T10:39:45Z</time></trkpt><trkpt lat="43.32732992191102" lon="12.958062517739396"><ele>274.0</ele><time>2026-04-12T10:39:46Z</time></trkpt><trkpt lat="43.327200549529564" lon="12.958040478912512"><ele>273.75</ele><time>2026-04-12T10:39:47Z</time></trkpt><trkpt lat="43.327064977259965" lon="12.95800898893176"><ele>273.5</ele><time>2026-04-12T10:39:48Z</time></trkpt><trkpt lat="43.326924310728785" lon="12.957938510575623"><ele>273.25</ele><time>2026-04-12T10:39:49Z</time></trkpt><trkpt lat="43.32676617954802" lon="12.957901869513872"><ele>273.0</ele><time>2026-04-12T10:39:50Z</time></trkpt><trkpt lat="43.326615679638905" lon="12.957848458045559"><ele>273.0</ele><time>2026-04-12T10:39:51Z</time></trkpt><trkpt lat="43.3264818467563" lon="12.95778640519832"><ele>273.0</ele><time>2026-04-12T10:39:52Z</time></trkpt><trkpt lat="43.32634770681044" lon="12.95774218271683"><ele>273.0</ele><time>2026-04-12T10:39:53Z</time></trkpt><trkpt lat="43.32622496094916" lon="12.957696570266478"><ele>273.0</ele><time>2026-04-12T10:39:54Z</time></trkpt><trkpt lat="43.32608165436508" lon="12.957640323322774"><ele>273.25</ele><time>2026-04-12T10:39:55Z</time></trkpt><trkpt lat="43.325943357503895" lon="12.957593602417166"><ele>273.5</ele><time>2026-04-12T10:39:56Z</time></trkpt><trkpt lat="43.32579976630967" lon="12.957545143408138"><ele>273.75</ele><time>2026-04-12T10:39:57Z</time></trkpt><trkpt lat="43.32567492570114" lon="12.95749908254283"><ele>274.0</ele><time>2026-04-12T10:39:58Z</time></trkpt><trkpt lat="43.32555497254458" lon="12.957454739950736"><ele>275.0</ele><time>2026-04-12T10:39:59Z</time></trkpt><trkpt lat="43.32543780096343" lon="12.957411266062234"><ele>276.0</ele><time>2026-04-12T10:40:00Z</time></trkpt><trkpt lat="43.32533072007842" lon="12.957370709100267"><ele>277.0</ele><time>2026-04-12T10:40:01Z</time></trkpt><trkpt lat="43.325233607783574" lon="12.957321749476206"><ele>278.0</ele><time>2026-04-12T10:40:02Z</time></trkpt><trkpt lat="43.325142603506" lon="12.957282677088116"><ele>279.0</ele><time>2026-04-12T10:40:03Z</time></trkpt><trkpt lat="43.32505119710632" lon="12.957257185980408"><ele>279.0</ele><time>2026-04-12T10:40:04Z</time></trkpt><trkpt lat="43.32495614374901" lon="12.95721665432745"><ele>279.0</ele><time>2026-04-12T10:40:05Z</time></trkpt><trkpt lat="43.32486767098246" lon="12.957175202831053"><ele>279.0</ele><time>2026-04-12T10:40:06Z</time></trkpt><trkpt lat="43.32479156411375" lon="12.957137232142808"><ele>279.0</ele><time>2026-04-12T10:40:07Z</time></trkpt><trkpt lat="43.324707093611025" lon="12.95709225649524"><ele>279.0</ele><time>2026-04-12T10:40:09Z</time></trkpt><trkpt lat="43.324594440951834" lon="12.957037824363335"><ele>279.5</ele><time>2026-04-12T10:40:11Z</time></trkpt><trkpt lat="43.324524142852184" lon="12.957002499878016"><ele>280.0</ele><time>2026-04-12T10:40:12Z</time></trkpt><trkpt lat="43.324452031029324" lon="12.956965795413604"><ele>280.5</ele><time>2026-04-12T10:40:13Z</time></trkpt><trkpt lat="43.3243594790657" lon="12.956933612711184"><ele>281.0</ele><time>2026-04-12T10:40:14Z</time></trkpt><trkpt lat="43.32426482715999" lon="12.956889311308698"><ele>281.5</ele><time>2026-04-12T10:40:15Z</time></trkpt><trkpt lat="43.32417195755977" lon="12.956845958132613"><ele>282.0</ele><time>2026-04-12T10:40:16Z</time></trkpt><trkpt lat="43.32407818174442" lon="12.956805701865957"><ele>282.0</ele><time>2026-04-12T10:40:17Z</time></trkpt><trkpt lat="43.32399988358832" lon="12.956760322975637"><ele>282.0</ele><time>2026-04-12T10:40:18Z</time></trkpt><trkpt lat="43.323931046369054" lon="12.95673011191542"><ele>282.0</ele><time>2026-04-12T10:40:19Z</time></trkpt><trkpt lat="43.3238471716011" lon="12.956695361791851"><ele>282.0</ele><time>2026-04-12T10:40:21Z</time></trkpt><trkpt lat="43.323754860834725" lon="12.95665697516897"><ele>282.0</ele><time>2026-04-12T10:40:26Z</time></trkpt><trkpt lat="43.32364360459345" lon="12.956603608439686"><ele>283.0</ele><time>2026-04-12T10:40:28Z</time></trkpt><trkpt lat="43.323517517743944" lon="12.95657204459538"><ele>284.0</ele><time>2026-04-12T10:40:30Z</time></trkpt><trkpt lat="43.32339154442236" lon="12.956557076298015"><ele>285.0</ele><time>2026-04-12T10:40:32Z</time></trkpt><trkpt lat="43.3233172332848" lon="12.956568205760409"><ele>286.0</ele><time>2026-04-12T10:40:33Z</time></trkpt><trkpt lat="43.32322704329361" lon="12.95659592218493"><ele>287.0</ele><time>2026-04-12T10:40:34Z</time></trkpt><trkpt lat="43.32313251148406" lon="12.956634656954439"><ele>287.25</ele><time>2026-04-12T10:40:35Z</time></trkpt><trkpt lat="43.3230283590259" lon="12.95667173108163"><ele>287.5</ele><time>2026-04-12T10:40:36Z</time></trkpt><trkpt lat="43.32291529659014" lon="12.956705211469261"><ele>287.75</ele><time>2026-04-12T10:40:37Z</time></trkpt><trkpt lat="43.32278901242735" lon="12.95674736228295"><ele>288.0</ele><time>2026-04-12T10:40:38Z</time></trkpt><trkpt lat="43.32266941612696" lon="12.956788094505711"><ele>288.25</ele><time>2026-04-12T10:40:39Z</time></trkpt><trkpt lat="43.32254386482757" lon="12.956830577636449"><ele>288.5</ele><time>2026-04-12T10:40:40Z</time></trkpt><trkpt lat="43.322416201746805" lon="12.956878326477437"><ele>288.75</ele><time>2026-04-12T10:40:41Z</time></trkpt><trkpt lat="43.322287546885924" lon="12.956924024035231"><ele>289.0</ele><time>2026-04-12T10:40:42Z</time></trkpt><trkpt lat="43.32215580755308" lon="12.956963451269312"><ele>289.0</ele><time>2026-04-12T10:40:43Z</time></trkpt><trkpt lat="43.32203415354753" lon="12.957005634848711"><ele>289.0</ele><time>2026-04-12T10:40:44Z</time></trkpt><trkpt lat="43.32192681915747" lon="12.957040865006846"><ele>289.0</ele><time>2026-04-12T10:40:45Z</time></trkpt><trkpt lat="43.321823319209116" lon="12.957077151022707"><ele>289.0</ele><time>2026-04-12T10:40:46Z</time></trkpt><trkpt lat="43.321706557711046" lon="12.957113188541243"><ele>289.0</ele><time>2026-04-12T10:40:47Z</time></trkpt><trkpt lat="43.3215826131659" lon="12.957153580097213"><ele>289.0</ele><time>2026-04-12T10:40:48Z</time></trkpt><trkpt lat="43.32145542632495" lon="12.957192042994954"><ele>289.0</ele><time>2026-04-12T10:40:49Z</time></trkpt><trkpt lat="43.32131774765453" lon="12.95720826197516"><ele>289.0</ele><time>2026-04-12T10:40:50Z</time></trkpt><trkpt lat="43.32117512855226" lon="12.957190496050572"><ele>290.3333333333333</ele><time>2026-04-12T10:40:51Z</time></trkpt><trkpt lat="43.321028660621515" lon="12.957139654178466"><ele>291.6666666666667</ele><time>2026-04-12T10:40:52Z</time></trkpt><trkpt lat="43.320895930133574" lon="12.957039795960432"><ele>293.0</ele><time>2026-04-12T10:40:53Z</time></trkpt><trkpt lat="43.32075352212354" lon="12.956947233060014"><ele>293.0</ele><time>2026-04-12T10:40:54Z</time></trkpt><trkpt lat="43.32060731889001" lon="12.956867062410199"><ele>293.0</ele><time>2026-04-12T10:40:55Z</time></trkpt><trkpt lat="43.32046209027135" lon="12.95676576810855"><ele>293.0</ele><time>2026-04-12T10:40:56Z</time></trkpt><trkpt lat="43.32030829471718" lon="12.956665253710195"><ele>293.33333333333337</ele><time>2026-04-12T10:40:57Z</time></trkpt><trkpt lat="43.320164120518164" lon="12.956573104864349"><ele>293.6666666666667</ele><time>2026-04-12T10:40:58Z</time></trkpt><trkpt lat="43.320023138380115" lon="12.956483883176153"><ele>294.0</ele><time>2026-04-12T10:40:59Z</time></trkpt><trkpt lat="43.31987213220518" lon="12.956387573214611"><ele>294.3333333333333</ele><time>2026-04-12T10:41:00Z</time></trkpt><trkpt lat="43.31973218091289" lon="12.956300015727166"><ele>294.66666666666663</ele><time>2026-04-12T10:41:01Z</time></trkpt><trkpt lat="43.31959469272202" lon="12.956212605199498"><ele>295.0</ele><time>2026-04-12T10:41:02Z</time></trkpt><trkpt lat="43.319452788415546" lon="12.956121975240528"><ele>295.0</ele><time>2026-04-12T10:41:03Z</time></trkpt><trkpt lat="43.31930572220193" lon="12.956019702640653"><ele>295.0</ele><time>2026-04-12T10:41:04Z</time></trkpt><trkpt lat="43.31914817342574" lon="12.955922937723308"><ele>295.0</ele><time>2026-04-12T10:41:05Z</time></trkpt><trkpt lat="43.31900218554027" lon="12.955826246969666"><ele>296.0</ele><time>2026-04-12T10:41:06Z</time></trkpt><trkpt lat="43.31886403962095" lon="12.955734214421339"><ele>297.0</ele><time>2026-04-12T10:41:07Z</time></trkpt><trkpt lat="43.31872456397221" lon="12.95564423235156"><ele>298.0</ele><time>2026-04-12T10:41:08Z</time></trkpt><trkpt lat="43.318574652594165" lon="12.955544809806288"><ele>298.0</ele><time>2026-04-12T10:41:09Z</time></trkpt><trkpt lat="43.3184295061073" lon="12.955443101175627"><ele>298.0</ele><time>2026-04-12T10:41:10Z</time></trkpt><trkpt lat="43.318288855017045" lon="12.95531090076765"><ele>298.0</ele><time>2026-04-12T10:41:11Z</time></trkpt><trkpt lat="43.318152858828135" lon="12.955170523362428"><ele>298.66666666666663</ele><time>2026-04-12T10:41:12Z</time></trkpt><trkpt lat="43.31801406913123" lon="12.955013722206996"><ele>299.3333333333333</ele><time>2026-04-12T10:41:13Z</time></trkpt><trkpt lat="43.317873717908995" lon="12.954852995564263"><ele>300.0</ele><time>2026-04-12T10:41:14Z</time></trkpt><trkpt lat="43.31773587294174" lon="12.954697377188333"><ele>300.0</ele><time>2026-04-12T10:41:15Z</time></trkpt><trkpt lat="43.31758452482524" lon="12.954554054761106"><ele>300.0</ele><time>2026-04-12T10:41:16Z</time></trkpt><trkpt lat="43.317441252149145" lon="12.954384181518087"><ele>300.0</ele><time>2026-04-12T10:41:17Z</time></trkpt><trkpt lat="43.317303895719014" lon="12.954222942686567"><ele>301.3333333333333</ele><time>2026-04-12T10:41:18Z</time></trkpt><trkpt lat="43.317167288227736" lon="12.954069950815052"><ele>302.66666666666663</ele><time>2026-04-12T10:41:19Z</time></trkpt><trkpt lat="43.317045351099615" lon="12.953934687777197"><ele>304.0</ele><time>2026-04-12T10:41:20Z</time></trkpt><trkpt lat="43.31692245220858" lon="12.953796656577246"><ele>304.0</ele><time>2026-04-12T10:41:21Z</time></trkpt><trkpt lat="43.31680082592512" lon="12.953656579407026"><ele>304.0</ele><time>2026-04-12T10:41:22Z</time></trkpt><trkpt lat="43.316677753159176" lon="12.95351500195903"><ele>304.0</ele><time>2026-04-12T10:41:23Z</time></trkpt><trkpt lat="43.31655445916431" lon="12.95337449701831"><ele>304.0</ele><time>2026-04-12T10:41:24Z</time></trkpt><trkpt lat="43.31642684471057" lon="12.953234138386321"><ele>304.0</ele><time>2026-04-12T10:41:25Z</time></trkpt><trkpt lat="43.316310030038366" lon="12.953102697814264"><ele>304.0</ele><time>2026-04-12T10:41:26Z</time></trkpt><trkpt lat="43.31619358246497" lon="12.952966725776168"><ele>304.0</ele><time>2026-04-12T10:41:27Z</time></trkpt><trkpt lat="43.31608602285317" lon="12.95282859461326"><ele>304.0</ele><time>2026-04-12T10:41:28Z</time></trkpt><trkpt lat="43.3159956896222" lon="12.952685125975652"><ele>304.0</ele><time>2026-04-12T10:41:29Z</time></trkpt><trkpt lat="43.31594389933548" lon="12.952499117584253"><ele>304.0</ele><time>2026-04-12T10:41:30Z</time></trkpt><trkpt lat="43.31588288752399" lon="12.952314017829767"><ele>304.75</ele><time>2026-04-12T10:41:31Z</time></trkpt><trkpt lat="43.31586114048662" lon="12.952118908768801"><ele>305.5</ele><time>2026-04-12T10:41:32Z</time></trkpt><trkpt lat="43.31585703889164" lon="12.951902136373432"><ele>306.25</ele><time>2026-04-12T10:41:33Z</time></trkpt><trkpt lat="43.315844219299954" lon="12.951720690382432"><ele>307.0</ele><time>2026-04-12T10:41:34Z</time></trkpt><trkpt lat="43.31583198669403" lon="12.951560078746933"><ele>307.0</ele><time>2026-04-12T10:41:35Z</time></trkpt><trkpt lat="43.315810158078186" lon="12.951417875678358"><ele>307.0</ele><time>2026-04-12T10:41:36Z</time></trkpt><trkpt lat="43.315771215460046" lon="12.951281801261946"><ele>307.0</ele><time>2026-04-12T10:41:37Z</time></trkpt><trkpt lat="43.315709705298616" lon="12.951170233802003"><ele>307.0</ele><time>2026-04-12T10:41:38Z</time></trkpt><trkpt lat="43.315620651215625" lon="12.951069337640092"><ele>307.0</ele><time>2026-04-12T10:41:39Z</time></trkpt><trkpt lat="43.315513746109744" lon="12.950970995523683"><ele>307.5</ele><time>2026-04-12T10:41:40Z</time></trkpt><trkpt lat="43.3154184745606" lon="12.950837762498397"><ele>308.0</ele><time>2026-04-12T10:41:41Z</time></trkpt><trkpt lat="43.31533077637986" lon="12.950689268232205"><ele>308.5</ele><time>2026-04-12T10:41:42Z</time></trkpt><trkpt lat="43.31527518847331" lon="12.950510603035013"><ele>309.0</ele><time>2026-04-12T10:41:43Z</time></trkpt><trkpt lat="43.315228775615125" lon="12.950313714833536"><ele>309.0</ele><time>2026-04-12T10:41:44Z</time></trkpt><trkpt lat="43.315179396687" lon="12.950112919039578"><ele>309.0</ele><time>2026-04-12T10:41:45Z</time></trkpt><trkpt lat="43.31514080006938" lon="12.94991272739377"><ele>309.0</ele><time>2026-04-12T10:41:46Z</time></trkpt><trkpt lat="43.31509063248331" lon="12.949714516984821"><ele>310.0</ele><time>2026-04-12T10:41:47Z</time></trkpt><trkpt lat="43.31502140097018" lon="12.94951945974881"><ele>311.0</ele><time>2026-04-12T10:41:48Z</time></trkpt><trkpt lat="43.314938962116074" lon="12.949350821777871"><ele>312.0</ele><time>2026-04-12T10:41:49Z</time></trkpt><trkpt lat="43.31484210164805" lon="12.949201280007989"><ele>312.3333333333333</ele><time>2026-04-12T10:41:50Z</time></trkpt><trkpt lat="43.31473525426201" lon="12.949061335739446"><ele>312.66666666666663</ele><time>2026-04-12T10:41:51Z</time></trkpt><trkpt lat="43.31463736147481" lon="12.948901424244417"><ele>313.0</ele><time>2026-04-12T10:41:52Z</time></trkpt><trkpt lat="43.31453004390811" lon="12.948753057885861"><ele>313.0</ele><time>2026-04-12T10:41:53Z</time></trkpt><trkpt lat="43.31443255835559" lon="12.948616668232754"><ele>313.0</ele><time>2026-04-12T10:41:54Z</time></trkpt><trkpt lat="43.31432985941757" lon="12.94849915114456"><ele>313.0</ele><time>2026-04-12T10:41:55Z</time></trkpt><trkpt lat="43.31423864510383" lon="12.948365547060328"><ele>313.0</ele><time>2026-04-12T10:41:56Z</time></trkpt><trkpt lat="43.31414495463376" lon="12.9482350975947"><ele>313.25</ele><time>2026-04-12T10:41:57Z</time></trkpt><trkpt lat="43.314048800282094" lon="12.948100838166596"><ele>313.5</ele><time>2026-04-12T10:41:58Z</time></trkpt><trkpt lat="43.313949701470165" lon="12.947960203130386"><ele>313.75</ele><time>2026-04-12T10:41:59Z</time></trkpt><trkpt lat="43.31386409651651" lon="12.947802459042073"><ele>314.0</ele><time>2026-04-12T10:42:00Z</time></trkpt><trkpt lat="43.313766610276545" lon="12.947663054456356"><ele>315.0</ele><time>2026-04-12T10:42:01Z</time></trkpt><trkpt lat="43.31367412557288" lon="12.947530802077736"><ele>316.0</ele><time>2026-04-12T10:42:02Z</time></trkpt><trkpt lat="43.3135901519786" lon="12.947410720296462"><ele>317.0</ele><time>2026-04-12T10:42:03Z</time></trkpt><trkpt lat="43.31350801067079" lon="12.947302253576476"><ele>318.0</ele><time>2026-04-12T10:42:04Z</time></trkpt><trkpt lat="43.313435763110704" lon="12.947196362755184"><ele>318.0</ele><time>2026-04-12T10:42:05Z</time></trkpt><trkpt lat="43.313371366502345" lon="12.947093585716043"><ele>318.0</ele><time>2026-04-12T10:42:06Z</time></trkpt><trkpt lat="43.31332112802379" lon="12.947002686650277"><ele>318.0</ele><time>2026-04-12T10:42:07Z</time></trkpt><trkpt lat="43.31327112844466" lon="12.946926021980428"><ele>318.0</ele><time>2026-04-12T10:42:09Z</time></trkpt><trkpt lat="43.31332796182249" lon="12.946743389562087"><ele>318.0</ele><time>2026-04-12T10:42:11Z</time></trkpt><trkpt lat="43.31338025085951" lon="12.946630182035802"><ele>318.0</ele><time>2026-04-12T10:42:12Z</time></trkpt><trkpt lat="43.313442483468855" lon="12.946501046104927"><ele>318.0</ele><time>2026-04-12T10:42:13Z</time></trkpt><trkpt lat="43.31350682239588" lon="12.94634997333989"><ele>318.0</ele><time>2026-04-12T10:42:14Z</time></trkpt><trkpt lat="43.31356689675878" lon="12.946195789382406"><ele>318.0</ele><time>2026-04-12T10:42:15Z</time></trkpt><trkpt lat="43.31363437743917" lon="12.946025402242919"><ele>320.6666666666667</ele><time>2026-04-12T10:42:16Z</time></trkpt><trkpt lat="43.313711592790206" lon="12.94584813911859"><ele>323.33333333333337</ele><time>2026-04-12T10:42:17Z</time></trkpt><trkpt lat="43.31375877376965" lon="12.945635554395386"><ele>326.0</ele><time>2026-04-12T10:42:18Z</time></trkpt><trkpt lat="43.313761892372746" lon="12.945415408335172"><ele>326.0</ele><time>2026-04-12T10:42:19Z</time></trkpt><trkpt lat="43.313739519618764" lon="12.945164173273772"><ele>326.0</ele><time>2026-04-12T10:42:20Z</time></trkpt><trkpt lat="43.31372243272676" lon="12.944914040928857"><ele>326.0</ele><time>2026-04-12T10:42:21Z</time></trkpt><trkpt lat="43.313711221769864" lon="12.944651458477669"><ele>327.6666666666667</ele><time>2026-04-12T10:42:22Z</time></trkpt><trkpt lat="43.31370335747806" lon="12.944399721919096"><ele>329.3333333333333</ele><time>2026-04-12T10:42:23Z</time></trkpt><trkpt lat="43.313693805191356" lon="12.944130219102673"><ele>331.0</ele><time>2026-04-12T10:42:24Z</time></trkpt><trkpt lat="43.31368562807239" lon="12.943894543451135"><ele>331.0</ele><time>2026-04-12T10:42:25Z</time></trkpt><trkpt lat="43.313678355892065" lon="12.94367102340148"><ele>331.0</ele><time>2026-04-12T10:42:26Z</time></trkpt><trkpt lat="43.313669257046385" lon="12.943461599486513"><ele>331.0</ele><time>2026-04-12T10:42:27Z</time></trkpt><trkpt lat="43.31368415871112" lon="12.943276236137716"><ele>331.0</ele><time>2026-04-12T10:42:28Z</time></trkpt><trkpt lat="43.313698281184756" lon="12.94312048007305"><ele>331.0</ele><time>2026-04-12T10:42:29Z</time></trkpt><trkpt lat="43.31374858311512" lon="12.94297255206601"><ele>331.0</ele><time>2026-04-12T10:42:30Z</time></trkpt><trkpt lat="43.31384298225775" lon="12.94286175465425"><ele>331.0</ele><time>2026-04-12T10:42:31Z</time></trkpt><trkpt lat="43.3139419370711" lon="12.942702583100917"><ele>329.3333333333333</ele><time>2026-04-12T10:42:32Z</time></trkpt><trkpt lat="43.31402082559008" lon="12.942511155254097"><ele>327.6666666666667</ele><time>2026-04-12T10:42:33Z</time></trkpt><trkpt lat="43.31407890805597" lon="12.94229528283802"><ele>326.0</ele><time>2026-04-12T10:42:34Z</time></trkpt><trkpt lat="43.31408477024524" lon="12.942071283818407"><ele>326.0</ele><time>2026-04-12T10:42:35Z</time></trkpt><trkpt lat="43.314048321712946" lon="12.941844681363209"><ele>326.0</ele><time>2026-04-12T10:42:36Z</time></trkpt><trkpt lat="43.31398455933966" lon="12.941596351994676"><ele>326.0</ele><time>2026-04-12T10:42:37Z</time></trkpt><trkpt lat="43.31394714044392" lon="12.941329564879839"><ele>325.6666666666667</ele><time>2026-04-12T10:42:38Z</time></trkpt><trkpt lat="43.31389497316053" lon="12.941059939067094"><ele>325.3333333333333</ele><time>2026-04-12T10:42:39Z</time></trkpt><trkpt lat="43.31382969085231" lon="12.940804511646853"><ele>325.0</ele><time>2026-04-12T10:42:40Z</time></trkpt><trkpt lat="43.313778603576935" lon="12.940534056658404"><ele>325.0</ele><time>2026-04-12T10:42:41Z</time></trkpt><trkpt lat="43.31372783620598" lon="12.940260721664322"><ele>325.0</ele><time>2026-04-12T10:42:42Z</time></trkpt><trkpt lat="43.31367642719591" lon="12.939999546037015"><ele>325.0</ele><time>2026-04-12T10:42:43Z</time></trkpt><trkpt lat="43.31362682842837" lon="12.939743667575334"><ele>325.66666666666663</ele><time>2026-04-12T10:42:44Z</time></trkpt><trkpt lat="43.31357913795197" lon="12.939486731932726"><ele>326.3333333333333</ele><time>2026-04-12T10:42:45Z</time></trkpt><trkpt lat="43.313536145590234" lon="12.939236660909476"><ele>327.0</ele><time>2026-04-12T10:42:46Z</time></trkpt><trkpt lat="43.31348944722964" lon="12.93898529901938"><ele>328.3333333333333</ele><time>2026-04-12T10:42:47Z</time></trkpt><trkpt lat="43.31344150156722" lon="12.93874035221624"><ele>329.66666666666663</ele><time>2026-04-12T10:42:48Z</time></trkpt><trkpt lat="43.31339534983111" lon="12.938485585506198"><ele>331.0</ele><time>2026-04-12T10:42:49Z</time></trkpt><trkpt lat="43.313351904513446" lon="12.938251484368363"><ele>332.3333333333333</ele><time>2026-04-12T10:42:50Z</time></trkpt><trkpt lat="43.313306687139104" lon="12.938017548106878"><ele>333.6666666666667</ele><time>2026-04-12T10:42:51Z</time></trkpt><trkpt lat="43.31326121044747" lon="12.937776156954065"><ele>335.0</ele><time>2026-04-12T10:42:52Z</time></trkpt><trkpt lat="43.31321766982923" lon="12.937535363172566"><ele>336.0</ele><time>2026-04-12T10:42:53Z</time></trkpt><trkpt lat="43.313173108776766" lon="12.937287179174259"><ele>337.0</ele><time>2026-04-12T10:42:54Z</time></trkpt><trkpt lat="43.31312688124831" lon="12.937034237586877"><ele>338.0</ele><time>2026-04-12T10:42:55Z</time></trkpt><trkpt lat="43.31307580366196" lon="12.936775193347689"><ele>337.33333333333337</ele><time>2026-04-12T10:42:56Z</time></trkpt><trkpt lat="43.31302391665996" lon="12.936512310887998"><ele>336.6666666666667</ele><time>2026-04-12T10:42:57Z</time></trkpt><trkpt lat="43.31297528519689" lon="12.936251172983994"><ele>336.0</ele><time>2026-04-12T10:42:58Z</time></trkpt><trkpt lat="43.31292829862141" lon="12.935993652741447"><ele>337.6666666666667</ele><time>2026-04-12T10:42:59Z</time></trkpt><trkpt lat="43.3128827567217" lon="12.93575373805522"><ele>339.33333333333337</ele><time>2026-04-12T10:43:00Z</time></trkpt><trkpt lat="43.312828180677094" lon="12.935519591876332"><ele>341.0</ele><time>2026-04-12T10:43:01Z</time></trkpt><trkpt lat="43.31273698320051" lon="12.935299110152242"><ele>341.0</ele><time>2026-04-12T10:43:02Z</time></trkpt><trkpt lat="43.31261203950853" lon="12.93510049393613"><ele>341.0</ele><time>2026-04-12T10:43:03Z</time></trkpt><trkpt lat="43.312478752276924" lon="12.934900222290885"><ele>341.0</ele><time>2026-04-12T10:43:04Z</time></trkpt><trkpt lat="43.31236601941564" lon="12.934661030751425"><ele>342.33333333333337</ele><time>2026-04-12T10:43:05Z</time></trkpt><trkpt lat="43.31226244084983" lon="12.93442279861669"><ele>343.6666666666667</ele><time>2026-04-12T10:43:06Z</time></trkpt><trkpt lat="43.31215061086873" lon="12.934176794668435"><ele>345.0</ele><time>2026-04-12T10:43:07Z</time></trkpt><trkpt lat="43.31205240032622" lon="12.933913863776578"><ele>345.0</ele><time>2026-04-12T10:43:08Z</time></trkpt><trkpt lat="43.311958698251495" lon="12.933655073790716"><ele>345.0</ele><time>2026-04-12T10:43:09Z</time></trkpt><trkpt lat="43.31185447330601" lon="12.933392126123758"><ele>345.0</ele><time>2026-04-12T10:43:10Z</time></trkpt><trkpt lat="43.311747065782185" lon="12.933120348244996"><ele>345.6666666666667</ele><time>2026-04-12T10:43:11Z</time></trkpt><trkpt lat="43.311641210301296" lon="12.93285631839886"><ele>346.33333333333337</ele><time>2026-04-12T10:43:12Z</time></trkpt><trkpt lat="43.311531894656504" lon="12.93259211225171"><ele>347.0</ele><time>2026-04-12T10:43:13Z</time></trkpt><trkpt lat="43.31141530993299" lon="12.932333156551218"><ele>348.0</ele><time>2026-04-12T10:43:14Z</time></trkpt><trkpt lat="43.311284544558916" lon="12.93208083188714"><ele>349.0</ele><time>2026-04-12T10:43:15Z</time></trkpt><trkpt lat="43.31114533306652" lon="12.93183735241485"><ele>349.5</ele><time>2026-04-12T10:43:16Z</time></trkpt><trkpt lat="43.31100012587159" lon="12.931600060331988"><ele>350.0</ele><time>2026-04-12T10:43:17Z</time></trkpt><trkpt lat="43.310861937121246" lon="12.931353914201651"><ele>350.0</ele><time>2026-04-12T10:43:18Z</time></trkpt><trkpt lat="43.31074724563202" lon="12.931093169060697"><ele>350.0</ele><time>2026-04-12T10:43:19Z</time></trkpt><trkpt lat="43.310637040722405" lon="12.930835636829281"><ele>350.0</ele><time>2026-04-12T10:43:20Z</time></trkpt><trkpt lat="43.31051647457389" lon="12.930589254756518"><ele>350.0</ele><time>2026-04-12T10:43:21Z</time></trkpt><trkpt lat="43.31039290666511" lon="12.930337244718327"><ele>350.0</ele><time>2026-04-12T10:43:22Z</time></trkpt><trkpt lat="43.310248813487135" lon="12.930114663106224"><ele>350.0</ele><time>2026-04-12T10:43:23Z</time></trkpt><trkpt lat="43.3100917549676" lon="12.929894317695956"><ele>350.33333333333337</ele><time>2026-04-12T10:43:24Z</time></trkpt><trkpt lat="43.30993531903622" lon="12.92968853056947"><ele>350.6666666666667</ele><time>2026-04-12T10:43:25Z</time></trkpt><trkpt lat="43.30979640371611" lon="12.929458516886951"><ele>351.0</ele><time>2026-04-12T10:43:26Z</time></trkpt><trkpt lat="43.3096551165491" lon="12.929255049134628"><ele>352.3333333333333</ele><time>2026-04-12T10:43:27Z</time></trkpt><trkpt lat="43.30951394558248" lon="12.929083330025849"><ele>353.66666666666663</ele><time>2026-04-12T10:43:28Z</time></trkpt><trkpt lat="43.30939273004948" lon="12.928877629309184"><ele>355.0</ele><time>2026-04-12T10:43:29Z</time></trkpt><trkpt lat="43.309306332667404" lon="12.928640289851522"><ele>355.3333333333333</ele><time>2026-04-12T10:43:30Z</time></trkpt><trkpt lat="43.30921631279037" lon="12.928387829977016"><ele>355.6666666666667</ele><time>2026-04-12T10:43:31Z</time></trkpt><trkpt lat="43.30914222857893" lon="12.928127944296417"><ele>356.0</ele><time>2026-04-12T10:43:32Z</time></trkpt><trkpt lat="43.30908838171642" lon="12.92784580346449"><ele>356.0</ele><time>2026-04-12T10:43:33Z</time></trkpt><trkpt lat="43.309057943233775" lon="12.92758557163827"><ele>356.0</ele><time>2026-04-12T10:43:34Z</time></trkpt><trkpt lat="43.3090436767326" lon="12.927340234433021"><ele>356.0</ele><time>2026-04-12T10:43:35Z</time></trkpt><trkpt lat="43.30904822538957" lon="12.927129194852727"><ele>356.5</ele><time>2026-04-12T10:43:36Z</time></trkpt><trkpt lat="43.3090383807563" lon="12.926921251577122"><ele>357.0</ele><time>2026-04-12T10:43:37Z</time></trkpt><trkpt lat="43.309047715430516" lon="12.926752543173187"><ele>357.5</ele><time>2026-04-12T10:43:38Z</time></trkpt><trkpt lat="43.30910148560618" lon="12.926615064164341"><ele>358.0</ele><time>2026-04-12T10:43:39Z</time></trkpt><trkpt lat="43.30916775954178" lon="12.926478741473625"><ele>358.66666666666663</ele><time>2026-04-12T10:43:40Z</time></trkpt><trkpt lat="43.30924964269544" lon="12.926328903620018"><ele>359.3333333333333</ele><time>2026-04-12T10:43:41Z</time></trkpt><trkpt lat="43.30939364156203" lon="12.926252740826724"><ele>360.0</ele><time>2026-04-12T10:43:42Z</time></trkpt><trkpt lat="43.30955102916877" lon="12.926212845096593"><ele>360.0</ele><time>2026-04-12T10:43:43Z</time></trkpt><trkpt lat="43.309710383055126" lon="12.926209291884533"><ele>360.0</ele><time>2026-04-12T10:43:44Z</time></trkpt><trkpt lat="43.30988540760064" lon="12.926186109689953"><ele>360.0</ele><time>2026-04-12T10:43:45Z</time></trkpt><trkpt lat="43.310064864668696" lon="12.926198039617244"><ele>362.0</ele><time>2026-04-12T10:43:46Z</time></trkpt><trkpt lat="43.31025675090755" lon="12.926185043394224"><ele>364.0</ele><time>2026-04-12T10:43:47Z</time></trkpt><trkpt lat="43.31045383018086" lon="12.926146863008048"><ele>366.0</ele><time>2026-04-12T10:43:48Z</time></trkpt><trkpt lat="43.31061557615654" lon="12.926095147092484"><ele>368.8</ele><time>2026-04-12T10:43:49Z</time></trkpt><trkpt lat="43.310747138588034" lon="12.926037071941899"><ele>371.6</ele><time>2026-04-12T10:43:50Z</time></trkpt><trkpt lat="43.31084605375851" lon="12.925975682546193"><ele>374.4</ele><time>2026-04-12T10:43:51Z</time></trkpt><trkpt lat="43.31090973773698" lon="12.925898189661872"><ele>377.2</ele><time>2026-04-12T10:43:52Z</time></trkpt><trkpt lat="43.31092355929026" lon="12.925797811925406"><ele>380.0</ele><time>2026-04-12T10:43:53Z</time></trkpt><trkpt lat="43.31090785294035" lon="12.925676287171733"><ele>380.0</ele><time>2026-04-12T10:43:54Z</time></trkpt><trkpt lat="43.310857146655295" lon="12.925534681155964"><ele>380.0</ele><time>2026-04-12T10:43:55Z</time></trkpt><trkpt lat="43.31078294900928" lon="12.925362064628752"><ele>380.0</ele><time>2026-04-12T10:43:56Z</time></trkpt><trkpt lat="43.31069639956621" lon="12.925190411052192"><ele>380.0</ele><time>2026-04-12T10:43:57Z</time></trkpt><trkpt lat="43.31060132652509" lon="12.92505952852196"><ele>379.6666666666667</ele><time>2026-04-12T10:43:58Z</time></trkpt><trkpt lat="43.31051852190659" lon="12.924961868947035"><ele>379.33333333333337</ele><time>2026-04-12T10:43:59Z</time></trkpt><trkpt lat="43.31046593005591" lon="12.92486451917458"><ele>379.0</ele><time>2026-04-12T10:44:00Z</time></trkpt><trkpt lat="43.31045159587745" lon="12.924776263530799"><ele>378.6666666666667</ele><time>2026-04-12T10:44:01Z</time></trkpt><trkpt lat="43.31048624666815" lon="12.924678288367193"><ele>378.3333333333333</ele><time>2026-04-12T10:44:02Z</time></trkpt><trkpt lat="43.31055044672345" lon="12.92463275279845"><ele>378.0</ele><time>2026-04-12T10:44:03Z</time></trkpt><trkpt lat="43.310643840269165" lon="12.924627504357002"><ele>379.5</ele><time>2026-04-12T10:44:04Z</time></trkpt><trkpt lat="43.31074592938697" lon="12.924711961470614"><ele>381.0</ele><time>2026-04-12T10:44:05Z</time></trkpt><trkpt lat="43.31087252497034" lon="12.924740114266356"><ele>382.5</ele><time>2026-04-12T10:44:06Z</time></trkpt><trkpt lat="43.31099729102648" lon="12.924799147287692"><ele>384.0</ele><time>2026-04-12T10:44:07Z</time></trkpt><trkpt lat="43.31113561306192" lon="12.924848932722275"><ele>384.0</ele><time>2026-04-12T10:44:08Z</time></trkpt><trkpt lat="43.31126416360756" lon="12.924918824615307"><ele>384.0</ele><time>2026-04-12T10:44:09Z</time></trkpt><trkpt lat="43.31135232121342" lon="12.925024643283992"><ele>384.0</ele><time>2026-04-12T10:44:10Z</time></trkpt><trkpt lat="43.311388606582476" lon="12.925197636020085"><ele>384.0</ele><time>2026-04-12T10:44:11Z</time></trkpt><trkpt lat="43.31145839202133" lon="12.925361441471509"><ele>386.75</ele><time>2026-04-12T10:44:12Z</time></trkpt><trkpt lat="43.3115174686812" lon="12.925549008974967"><ele>389.5</ele><time>2026-04-12T10:44:13Z</time></trkpt><trkpt lat="43.31158348593924" lon="12.925715460024888"><ele>392.25</ele><time>2026-04-12T10:44:14Z</time></trkpt><trkpt lat="43.311664296938545" lon="12.925828812755075"><ele>395.0</ele><time>2026-04-12T10:44:15Z</time></trkpt><trkpt lat="43.31175649094486" lon="12.925905942956344"><ele>395.0</ele><time>2026-04-12T10:44:16Z</time></trkpt><trkpt lat="43.31190176054181" lon="12.925901974701068"><ele>395.0</ele><time>2026-04-12T10:44:17Z</time></trkpt><trkpt lat="43.312056404361364" lon="12.925880079141155"><ele>395.0</ele><time>2026-04-12T10:44:18Z</time></trkpt><trkpt lat="43.312219670202666" lon="12.92585144666562"><ele>397.3333333333333</ele><time>2026-04-12T10:44:19Z</time></trkpt><trkpt lat="43.3123853904912" lon="12.925836281854387"><ele>399.66666666666663</ele><time>2026-04-12T10:44:20Z</time></trkpt><trkpt lat="43.31255385068189" lon="12.92582960800463"><ele>402.0</ele><time>2026-04-12T10:44:21Z</time></trkpt><trkpt lat="43.31270961968914" lon="12.925857307488082"><ele>402.0</ele><time>2026-04-12T10:44:22Z</time></trkpt><trkpt lat="43.3128397163506" lon="12.925900397104401"><ele>402.0</ele><time>2026-04-12T10:44:23Z</time></trkpt><trkpt lat="43.312968938093825" lon="12.925965512979614"><ele>402.0</ele><time>2026-04-12T10:44:24Z</time></trkpt><trkpt lat="43.313103007911245" lon="12.92601287699797"><ele>402.0</ele><time>2026-04-12T10:44:25Z</time></trkpt><trkpt lat="43.31321915181654" lon="12.926071742864735"><ele>402.0</ele><time>2026-04-12T10:44:26Z</time></trkpt><trkpt lat="43.3133319080041" lon="12.926089225473488"><ele>402.0</ele><time>2026-04-12T10:44:27Z</time></trkpt><trkpt lat="43.31344799897951" lon="12.926059393029385"><ele>402.0</ele><time>2026-04-12T10:44:28Z</time></trkpt><trkpt lat="43.31355768783468" lon="12.925976018846308"><ele>402.0</ele><time>2026-04-12T10:44:29Z</time></trkpt><trkpt lat="43.31365422033326" lon="12.925855061479249"><ele>402.25</ele><time>2026-04-12T10:44:30Z</time></trkpt><trkpt lat="43.31373800700741" lon="12.92572659148014"><ele>402.5</ele><time>2026-04-12T10:44:31Z</time></trkpt><trkpt lat="43.31383953271776" lon="12.925642421137205"><ele>402.75</ele><time>2026-04-12T10:44:32Z</time></trkpt><trkpt lat="43.31394118865445" lon="12.925564609146805"><ele>403.0</ele><time>2026-04-12T10:44:33Z</time></trkpt><trkpt lat="43.31406157151285" lon="12.925532986060173"><ele>403.0</ele><time>2026-04-12T10:44:34Z</time></trkpt><trkpt lat="43.31419780813203" lon="12.92552750260586"><ele>403.0</ele><time>2026-04-12T10:44:35Z</time></trkpt><trkpt lat="43.31433666180918" lon="12.925524209156231"><ele>403.0</ele><time>2026-04-12T10:44:36Z</time></trkpt><trkpt lat="43.31447438095366" lon="12.92551187820682"><ele>403.0</ele><time>2026-04-12T10:44:37Z</time></trkpt><trkpt lat="43.31460982705529" lon="12.925502023110282"><ele>403.75</ele><time>2026-04-12T10:44:38Z</time></trkpt><trkpt lat="43.314750728386315" lon="12.92548865831823"><ele>404.5</ele><time>2026-04-12T10:44:39Z</time></trkpt><trkpt lat="43.31489096730932" lon="12.925475060996268"><ele>405.25</ele><time>2026-04-12T10:44:40Z</time></trkpt><trkpt lat="43.31502933626434" lon="12.92545617296355"><ele>406.0</ele><time>2026-04-12T10:44:41Z</time></trkpt><trkpt lat="43.31516042927153" lon="12.925426551768378"><ele>406.0</ele><time>2026-04-12T10:44:42Z</time></trkpt><trkpt lat="43.315301776612" lon="12.925382657245583"><ele>406.0</ele><time>2026-04-12T10:44:43Z</time></trkpt><trkpt lat="43.315438954050116" lon="12.925345338088743"><ele>406.0</ele><time>2026-04-12T10:44:44Z</time></trkpt><trkpt lat="43.315571608776466" lon="12.9253130897595"><ele>406.0</ele><time>2026-04-12T10:44:45Z</time></trkpt><trkpt lat="43.31569352747192" lon="12.925261247184224"><ele>406.75</ele><time>2026-04-12T10:44:46Z</time></trkpt><trkpt lat="43.315806348416416" lon="12.925179997332004"><ele>407.5</ele><time>2026-04-12T10:44:47Z</time></trkpt><trkpt lat="43.31589076281876" lon="12.925075244279776"><ele>408.25</ele><time>2026-04-12T10:44:48Z</time></trkpt><trkpt lat="43.31596755351417" lon="12.9249525720028"><ele>409.0</ele><time>2026-04-12T10:44:49Z</time></trkpt><trkpt lat="43.31604859450233" lon="12.92484683717934"><ele>410.5</ele><time>2026-04-12T10:44:50Z</time></trkpt><trkpt lat="43.316104036508214" lon="12.924709185969308"><ele>412.0</ele><time>2026-04-12T10:44:51Z</time></trkpt><trkpt lat="43.31616892481985" lon="12.924573622643521"><ele>413.5</ele><time>2026-04-12T10:44:52Z</time></trkpt><trkpt lat="43.31622927856942" lon="12.924416452817248"><ele>415.0</ele><time>2026-04-12T10:44:53Z</time></trkpt><trkpt lat="43.31629552754517" lon="12.924263331805633"><ele>416.0</ele><time>2026-04-12T10:44:54Z</time></trkpt><trkpt lat="43.31634196835511" lon="12.924089947078008"><ele>417.0</ele><time>2026-04-12T10:44:55Z</time></trkpt><trkpt lat="43.316395584961256" lon="12.92392639529392"><ele>418.0</ele><time>2026-04-12T10:44:56Z</time></trkpt><trkpt lat="43.3164511060582" lon="12.92375540049643"><ele>419.0</ele><time>2026-04-12T10:44:57Z</time></trkpt><trkpt lat="43.31651101386042" lon="12.92358225196856"><ele>417.25</ele><time>2026-04-12T10:44:58Z</time></trkpt><trkpt lat="43.31656868187156" lon="12.923397032967204"><ele>415.5</ele><time>2026-04-12T10:44:59Z</time></trkpt><trkpt lat="43.31663703072401" lon="12.923222057025724"><ele>413.75</ele><time>2026-04-12T10:45:00Z</time></trkpt><trkpt lat="43.316696077925414" lon="12.923038930487513"><ele>412.0</ele><time>2026-04-12T10:45:01Z</time></trkpt><trkpt lat="43.31677669199192" lon="12.922851009436034"><ele>412.0</ele><time>2026-04-12T10:45:02Z</time></trkpt><trkpt lat="43.31688207410939" lon="12.92267269259116"><ele>412.0</ele><time>2026-04-12T10:45:03Z</time></trkpt><trkpt lat="43.31700943867633" lon="12.922517965477454"><ele>412.0</ele><time>2026-04-12T10:45:04Z</time></trkpt><trkpt lat="43.31715499900231" lon="12.922375959272518"><ele>407.6666666666667</ele><time>2026-04-12T10:45:05Z</time></trkpt><trkpt lat="43.317293056638555" lon="12.922249919664143"><ele>403.33333333333337</ele><time>2026-04-12T10:45:06Z</time></trkpt><trkpt lat="43.317411618185886" lon="12.922126249699977"><ele>399.0</ele><time>2026-04-12T10:45:07Z</time></trkpt><trkpt lat="43.31754005261633" lon="12.9220080690646"><ele>399.0</ele><time>2026-04-12T10:45:08Z</time></trkpt><trkpt lat="43.317656831072746" lon="12.921854934220333"><ele>399.0</ele><time>2026-04-12T10:45:09Z</time></trkpt><trkpt lat="43.31777578092093" lon="12.921706005736837"><ele>399.0</ele><time>2026-04-12T10:45:10Z</time></trkpt><trkpt lat="43.31790907756433" lon="12.921554606097981"><ele>397.0</ele><time>2026-04-12T10:45:11Z</time></trkpt><trkpt lat="43.3180561074063" lon="12.921435957782696"><ele>395.0</ele><time>2026-04-12T10:45:12Z</time></trkpt><trkpt lat="43.31819656773968" lon="12.921332423626856"><ele>393.0</ele><time>2026-04-12T10:45:13Z</time></trkpt><trkpt lat="43.318325469012144" lon="12.921243393038713"><ele>393.0</ele><time>2026-04-12T10:45:14Z</time></trkpt><trkpt lat="43.318434196384715" lon="12.921147923895134"><ele>393.0</ele><time>2026-04-12T10:45:15Z</time></trkpt><trkpt lat="43.31854362058495" lon="12.92111397459819"><ele>393.0</ele><time>2026-04-12T10:45:16Z</time></trkpt><trkpt lat="43.31864674500254" lon="12.921148482131581"><ele>393.0</ele><time>2026-04-12T10:45:17Z</time></trkpt><trkpt lat="43.31875623080317" lon="12.921197103582154"><ele>393.0</ele><time>2026-04-12T10:45:18Z</time></trkpt><trkpt lat="43.318891002854926" lon="12.92123278749544"><ele>393.0</ele><time>2026-04-12T10:45:19Z</time></trkpt><trkpt lat="43.319032877798335" lon="12.921297666647895"><ele>393.0</ele><time>2026-04-12T10:45:20Z</time></trkpt><trkpt lat="43.319180345906005" lon="12.9213522599457"><ele>393.0</ele><time>2026-04-12T10:45:21Z</time></trkpt><trkpt lat="43.31931982067443" lon="12.921385144729477"><ele>391.5</ele><time>2026-04-12T10:45:22Z</time></trkpt><trkpt lat="43.319459908175894" lon="12.921378231069687"><ele>390.0</ele><time>2026-04-12T10:45:23Z</time></trkpt><trkpt lat="43.31960345793272" lon="12.921348162897393"><ele>388.5</ele><time>2026-04-12T10:45:24Z</time></trkpt><trkpt lat="43.31973631802244" lon="12.921322780217023"><ele>387.0</ele><time>2026-04-12T10:45:25Z</time></trkpt><trkpt lat="43.31986502952892" lon="12.921283819148107"><ele>386.25</ele><time>2026-04-12T10:45:26Z</time></trkpt><trkpt lat="43.319992733278035" lon="12.9212208890796"><ele>385.5</ele><time>2026-04-12T10:45:27Z</time></trkpt><trkpt lat="43.32011243547877" lon="12.92116009616047"><ele>384.75</ele><time>2026-04-12T10:45:28Z</time></trkpt><trkpt lat="43.320235441682726" lon="12.921096026106094"><ele>384.0</ele><time>2026-04-12T10:45:29Z</time></trkpt><trkpt lat="43.32035834865128" lon="12.921028492166384"><ele>384.0</ele><time>2026-04-12T10:45:30Z</time></trkpt><trkpt lat="43.32047830825471" lon="12.920957699557325"><ele>384.0</ele><time>2026-04-12T10:45:31Z</time></trkpt><trkpt lat="43.320605109394045" lon="12.920895031210442"><ele>384.0</ele><time>2026-04-12T10:45:32Z</time></trkpt><trkpt lat="43.32073892081371" lon="12.920819381150444"><ele>384.0</ele><time>2026-04-12T10:45:33Z</time></trkpt><trkpt lat="43.32086024465864" lon="12.92075445864684"><ele>383.75</ele><time>2026-04-12T10:45:34Z</time></trkpt><trkpt lat="43.32098106444599" lon="12.920686573416756"><ele>383.5</ele><time>2026-04-12T10:45:35Z</time></trkpt><trkpt lat="43.32109802890496" lon="12.920626762703474"><ele>383.25</ele><time>2026-04-12T10:45:36Z</time></trkpt><trkpt lat="43.321204243802576" lon="12.920571375433575"><ele>383.0</ele><time>2026-04-12T10:45:37Z</time></trkpt><trkpt lat="43.32128350314236" lon="12.920523134993614"><ele>383.0</ele><time>2026-04-12T10:45:38Z</time></trkpt><trkpt lat="43.321340386717125" lon="12.920468406956063"><ele>383.0</ele><time>2026-04-12T10:45:39Z</time></trkpt><trkpt lat="43.32137931785107" lon="12.920386991844442"><ele>383.0</ele><time>2026-04-12T10:45:40Z</time></trkpt><trkpt lat="43.32139656843256" lon="12.920295537764776"><ele>383.0</ele><time>2026-04-12T10:45:41Z</time></trkpt><trkpt lat="43.32136383940147" lon="12.92020507251507"><ele>383.0</ele><time>2026-04-12T10:45:42Z</time></trkpt><trkpt lat="43.32128178410511" lon="12.92012194713829"><ele>383.0</ele><time>2026-04-12T10:45:43Z</time></trkpt><trkpt lat="43.32117677558959" lon="12.920051560217015"><ele>381.75</ele><time>2026-04-12T10:45:44Z</time></trkpt><trkpt lat="43.32103941459006" lon="12.919985976594072"><ele>380.5</ele><time>2026-04-12T10:45:45Z</time></trkpt><trkpt lat="43.32090655871845" lon="12.919902571126345"><ele>379.25</ele><time>2026-04-12T10:45:46Z</time></trkpt><trkpt lat="43.32079618377873" lon="12.919809621703068"><ele>378.0</ele><time>2026-04-12T10:45:47Z</time></trkpt><trkpt lat="43.32070573970532" lon="12.919684158361415"><ele>378.0</ele><time>2026-04-12T10:45:48Z</time></trkpt><trkpt lat="43.320647992404545" lon="12.919509536869505"><ele>378.0</ele><time>2026-04-12T10:45:49Z</time></trkpt><trkpt lat="43.3206194299523" lon="12.919294241313246"><ele>378.0</ele><time>2026-04-12T10:45:50Z</time></trkpt><trkpt lat="43.32059010084752" lon="12.919077680241214"><ele>379.3333333333333</ele><time>2026-04-12T10:45:51Z</time></trkpt><trkpt lat="43.320558050284134" lon="12.918837624973762"><ele>380.66666666666663</ele><time>2026-04-12T10:45:52Z</time></trkpt><trkpt lat="43.32052453839127" lon="12.918583973649358"><ele>382.0</ele><time>2026-04-12T10:45:53Z</time></trkpt><trkpt lat="43.320496427064036" lon="12.918335252788154"><ele>382.0</ele><time>2026-04-12T10:45:54Z</time></trkpt><trkpt lat="43.32046824464366" lon="12.918106694135295"><ele>382.0</ele><time>2026-04-12T10:45:55Z</time></trkpt><trkpt lat="43.32044226252374" lon="12.91789150721046"><ele>382.0</ele><time>2026-04-12T10:45:56Z</time></trkpt><trkpt lat="43.32041749596737" lon="12.917686299609949"><ele>381.0</ele><time>2026-04-12T10:45:57Z</time></trkpt><trkpt lat="43.320391487883946" lon="12.917494971171253"><ele>380.0</ele><time>2026-04-12T10:45:58Z</time></trkpt><trkpt lat="43.32036645066028" lon="12.917319117924805"><ele>379.0</ele><time>2026-04-12T10:45:59Z</time></trkpt><trkpt lat="43.32034857772573" lon="12.9171494984858"><ele>378.0</ele><time>2026-04-12T10:46:00Z</time></trkpt><trkpt lat="43.320352548866424" lon="12.9169939603687"><ele>378.0</ele><time>2026-04-12T10:46:01Z</time></trkpt><trkpt lat="43.32039511048105" lon="12.916841306199489"><ele>378.0</ele><time>2026-04-12T10:46:02Z</time></trkpt><trkpt lat="43.32048144073823" lon="12.91669261386871"><ele>378.0</ele><time>2026-04-12T10:46:03Z</time></trkpt><trkpt lat="43.32059630794148" lon="12.916565307499061"><ele>378.0</ele><time>2026-04-12T10:46:04Z</time></trkpt><trkpt lat="43.32071443033572" lon="12.91644716312787"><ele>375.6666666666667</ele><time>2026-04-12T10:46:05Z</time></trkpt><trkpt lat="43.320857139279916" lon="12.916323336152537"><ele>373.33333333333337</ele><time>2026-04-12T10:46:06Z</time></trkpt><trkpt lat="43.32100904214949" lon="12.916185811759856"><ele>371.0</ele><time>2026-04-12T10:46:07Z</time></trkpt><trkpt lat="43.321169958577826" lon="12.91604473975364"><ele>371.0</ele><time>2026-04-12T10:46:08Z</time></trkpt><trkpt lat="43.32132494475362" lon="12.915907917978592"><ele>371.0</ele><time>2026-04-12T10:46:09Z</time></trkpt><trkpt lat="43.32148751236211" lon="12.915758579226987"><ele>371.0</ele><time>2026-04-12T10:46:10Z</time></trkpt><trkpt lat="43.32165369823763" lon="12.915605028613053"><ele>371.33333333333337</ele><time>2026-04-12T10:46:11.001Z</time></trkpt><trkpt lat="43.32181913579358" lon="12.915459137906238"><ele>371.6666666666667</ele><time>2026-04-12T10:46:12.001Z</time></trkpt><trkpt lat="43.32196701979431" lon="12.915325769108446"><ele>372.0</ele><time>2026-04-12T10:46:13.001Z</time></trkpt><trkpt lat="43.322106112867395" lon="12.9152083193919"><ele>371.0</ele><time>2026-04-12T10:46:14.001Z</time></trkpt><trkpt lat="43.322249621865275" lon="12.915129720832175"><ele>370.0</ele><time>2026-04-12T10:46:15.001Z</time></trkpt><trkpt lat="43.3224092025804" lon="12.915078760365411"><ele>369.0</ele><time>2026-04-12T10:46:16.001Z</time></trkpt><trkpt lat="43.32256249388012" lon="12.915061153506361"><ele>369.0</ele><time>2026-04-12T10:46:17.001Z</time></trkpt><trkpt lat="43.32270021224162" lon="12.915084280370884"><ele>369.0</ele><time>2026-04-12T10:46:18.001Z</time></trkpt><trkpt lat="43.32281721535803" lon="12.915214373760568"><ele>369.0</ele><time>2026-04-12T10:46:19.001Z</time></trkpt><trkpt lat="43.32296071439016" lon="12.91531656463777"><ele>369.5</ele><time>2026-04-12T10:46:20.001Z</time></trkpt><trkpt lat="43.32309436192603" lon="12.915420313652271"><ele>370.0</ele><time>2026-04-12T10:46:21.001Z</time></trkpt><trkpt lat="43.32323764652193" lon="12.915449053243474"><ele>370.5</ele><time>2026-04-12T10:46:22Z</time></trkpt><trkpt lat="43.32338462272841" lon="12.915405522564098"><ele>371.0</ele><time>2026-04-12T10:46:23Z</time></trkpt><trkpt lat="43.32353672428494" lon="12.915308320749352"><ele>371.0</ele><time>2026-04-12T10:46:24Z</time></trkpt><trkpt lat="43.32367395844325" lon="12.915208022482343"><ele>371.0</ele><time>2026-04-12T10:46:25Z</time></trkpt><trkpt lat="43.3238123400105" lon="12.915192003876765"><ele>371.0</ele><time>2026-04-12T10:46:26Z</time></trkpt><trkpt lat="43.32393847418888" lon="12.91522469856586"><ele>371.0</ele><time>2026-04-12T10:46:27Z</time></trkpt><trkpt lat="43.32405060758197" lon="12.915317903438927"><ele>372.0</ele><time>2026-04-12T10:46:28Z</time></trkpt><trkpt lat="43.32420041262556" lon="12.915410937786083"><ele>373.0</ele><time>2026-04-12T10:46:29Z</time></trkpt><trkpt lat="43.32435267873259" lon="12.91555275612606"><ele>374.0</ele><time>2026-04-12T10:46:30Z</time></trkpt><trkpt lat="43.32452311584595" lon="12.91567941566664"><ele>374.0</ele><time>2026-04-12T10:46:31Z</time></trkpt><trkpt lat="43.324674912945625" lon="12.915798201154997"><ele>374.0</ele><time>2026-04-12T10:46:32Z</time></trkpt><trkpt lat="43.32483106923289" lon="12.91591880647063"><ele>374.0</ele><time>2026-04-12T10:46:33Z</time></trkpt><trkpt lat="43.32501099615013" lon="12.91602871543016"><ele>373.33333333333337</ele><time>2026-04-12T10:46:34Z</time></trkpt><trkpt lat="43.325204456187464" lon="12.91610733591488"><ele>372.6666666666667</ele><time>2026-04-12T10:46:35Z</time></trkpt><trkpt lat="43.32541208358858" lon="12.916141773624087"><ele>372.0</ele><time>2026-04-12T10:46:36Z</time></trkpt><trkpt lat="43.32562669402722" lon="12.916142942915158"><ele>372.0</ele><time>2026-04-12T10:46:37Z</time></trkpt><trkpt lat="43.32582953591079" lon="12.916110260809086"><ele>372.0</ele><time>2026-04-12T10:46:38Z</time></trkpt><trkpt lat="43.32602942456654" lon="12.916088495143674"><ele>372.0</ele><time>2026-04-12T10:46:39Z</time></trkpt><trkpt lat="43.32620231412242" lon="12.916086663859629"><ele>372.0</ele><time>2026-04-12T10:46:40Z</time></trkpt><trkpt lat="43.32636755282276" lon="12.916115541088343"><ele>372.0</ele><time>2026-04-12T10:46:41Z</time></trkpt><trkpt lat="43.32651802218697" lon="12.916227790537837"><ele>372.0</ele><time>2026-04-12T10:46:42Z</time></trkpt><trkpt lat="43.32669185995674" lon="12.916335811744958"><ele>374.6666666666667</ele><time>2026-04-12T10:46:43Z</time></trkpt><trkpt lat="43.32684562385931" lon="12.916443602533443"><ele>377.33333333333337</ele><time>2026-04-12T10:46:44Z</time></trkpt><trkpt lat="43.327027012602834" lon="12.916486259622916"><ele>380.0</ele><time>2026-04-12T10:46:45Z</time></trkpt><trkpt lat="43.327220051078335" lon="12.91649662215865"><ele>381.6666666666667</ele><time>2026-04-12T10:46:46Z</time></trkpt><trkpt lat="43.3274220044002" lon="12.916459726649506"><ele>383.33333333333337</ele><time>2026-04-12T10:46:47Z</time></trkpt><trkpt lat="43.327613957473936" lon="12.916439875142252"><ele>385.0</ele><time>2026-04-12T10:46:48Z</time></trkpt><trkpt lat="43.32778491669352" lon="12.916439675381918"><ele>385.0</ele><time>2026-04-12T10:46:49Z</time></trkpt><trkpt lat="43.32795040477731" lon="12.916463848115926"><ele>385.0</ele><time>2026-04-12T10:46:50Z</time></trkpt><trkpt lat="43.32811537767392" lon="12.91653357097629"><ele>385.0</ele><time>2026-04-12T10:46:51Z</time></trkpt><trkpt lat="43.32826780384757" lon="12.916632339217943"><ele>384.6666666666667</ele><time>2026-04-12T10:46:52Z</time></trkpt><trkpt lat="43.328411420802155" lon="12.916762423880611"><ele>384.33333333333337</ele><time>2026-04-12T10:46:53Z</time></trkpt><trkpt lat="43.32854793358278" lon="12.916902804089634"><ele>384.0</ele><time>2026-04-12T10:46:54Z</time></trkpt><trkpt lat="43.32868854025022" lon="12.917023674456786"><ele>384.0</ele><time>2026-04-12T10:46:55Z</time></trkpt><trkpt lat="43.32882481315225" lon="12.917123571226892"><ele>384.0</ele><time>2026-04-12T10:46:56Z</time></trkpt><trkpt lat="43.328953825761324" lon="12.91722081000381"><ele>384.0</ele><time>2026-04-12T10:46:57Z</time></trkpt><trkpt lat="43.32907103783922" lon="12.917310236334469"><ele>384.0</ele><time>2026-04-12T10:46:58Z</time></trkpt><trkpt lat="43.32918316606062" lon="12.917375573921696"><ele>386.5</ele><time>2026-04-12T10:46:59Z</time></trkpt><trkpt lat="43.3292973345326" lon="12.917371605576662"><ele>389.0</ele><time>2026-04-12T10:47:00Z</time></trkpt><trkpt lat="43.329404899735586" lon="12.917332880777852"><ele>391.5</ele><time>2026-04-12T10:47:01Z</time></trkpt><trkpt lat="43.32950139481557" lon="12.917261419718534"><ele>394.0</ele><time>2026-04-12T10:47:02Z</time></trkpt><trkpt lat="43.32959723269597" lon="12.91715250499809"><ele>394.0</ele><time>2026-04-12T10:47:03Z</time></trkpt><trkpt lat="43.32967892338751" lon="12.917008000873146"><ele>394.0</ele><time>2026-04-12T10:47:04Z</time></trkpt><trkpt lat="43.329742631767026" lon="12.916836702022056"><ele>394.0</ele><time>2026-04-12T10:47:05Z</time></trkpt><trkpt lat="43.329797579276246" lon="12.916674076431596"><ele>394.0</ele><time>2026-04-12T10:47:06Z</time></trkpt><trkpt lat="43.3298493580346" lon="12.916533737968916"><ele>393.6</ele><time>2026-04-12T10:47:07Z</time></trkpt><trkpt lat="43.329900704019956" lon="12.91641330167867"><ele>393.2</ele><time>2026-04-12T10:47:08Z</time></trkpt><trkpt lat="43.3299618294303" lon="12.916322557044731"><ele>392.8</ele><time>2026-04-12T10:47:09Z</time></trkpt><trkpt lat="43.33004060644306" lon="12.9162730191163"><ele>392.40000000000003</ele><time>2026-04-12T10:47:10Z</time></trkpt><trkpt lat="43.33013485718515" lon="12.916265427821667"><ele>392.0</ele><time>2026-04-12T10:47:11Z</time></trkpt><trkpt lat="43.330236823474" lon="12.91631890246327"><ele>392.0</ele><time>2026-04-12T10:47:12Z</time></trkpt><trkpt lat="43.330332380160115" lon="12.916318190924665"><ele>392.0</ele><time>2026-04-12T10:47:13Z</time></trkpt><trkpt lat="43.33042052173557" lon="12.916343320557862"><ele>392.0</ele><time>2026-04-12T10:47:14Z</time></trkpt><trkpt lat="43.33050911516054" lon="12.916362879320037"><ele>392.0</ele><time>2026-04-12T10:47:15Z</time></trkpt><trkpt lat="43.3305984167646" lon="12.916376290589954"><ele>392.0</ele><time>2026-04-12T10:47:16Z</time></trkpt><trkpt lat="43.330697908094706" lon="12.916394782907354"><ele>391.20000000000005</ele><time>2026-04-12T10:47:17Z</time></trkpt><trkpt lat="43.330803136111754" lon="12.91641918015618"><ele>390.4</ele><time>2026-04-12T10:47:18Z</time></trkpt><trkpt lat="43.330908748336306" lon="12.916438498999325"><ele>389.6</ele><time>2026-04-12T10:47:19Z</time></trkpt><trkpt lat="43.331017361012485" lon="12.916453417340943"><ele>388.79999999999995</ele><time>2026-04-12T10:47:20Z</time></trkpt><trkpt lat="43.331134949810604" lon="12.916475741375177"><ele>388.0</ele><time>2026-04-12T10:47:21Z</time></trkpt><trkpt lat="43.33125132276825" lon="12.916501824977203"><ele>388.0</ele><time>2026-04-12T10:47:22Z</time></trkpt><trkpt lat="43.331365945957174" lon="12.91653765887546"><ele>388.0</ele><time>2026-04-12T10:47:23Z</time></trkpt><trkpt lat="43.33147469255445" lon="12.9165518086993"><ele>388.0</ele><time>2026-04-12T10:47:24Z</time></trkpt><trkpt lat="43.33157305284723" lon="12.916569633673609"><ele>388.0</ele><time>2026-04-12T10:47:25Z</time></trkpt><trkpt lat="43.33166700141535" lon="12.916582530211812"><ele>388.0</ele><time>2026-04-12T10:47:26Z</time></trkpt><trkpt lat="43.33174966574431" lon="12.916568480794652"><ele>388.0</ele><time>2026-04-12T10:47:27Z</time></trkpt><trkpt lat="43.3318135638842" lon="12.916509627432703"><ele>388.0</ele><time>2026-04-12T10:47:28Z</time></trkpt><trkpt lat="43.33183772659502" lon="12.916411745139028"><ele>388.0</ele><time>2026-04-12T10:47:29Z</time></trkpt><trkpt lat="43.33182948113589" lon="12.916291705730007"><ele>388.0</ele><time>2026-04-12T10:47:30Z</time></trkpt><trkpt lat="43.33177226612698" lon="12.916170366769869"><ele>388.0</ele><time>2026-04-12T10:47:31Z</time></trkpt><trkpt lat="43.33168997492211" lon="12.916064733774514"><ele>388.0</ele><time>2026-04-12T10:47:32Z</time></trkpt><trkpt lat="43.33158973843727" lon="12.91595109385039"><ele>388.0</ele><time>2026-04-12T10:47:33Z</time></trkpt><trkpt lat="43.33148797612209" lon="12.915819233459706"><ele>388.0</ele><time>2026-04-12T10:47:34Z</time></trkpt><trkpt lat="43.331390726435615" lon="12.915676749170263"><ele>388.0</ele><time>2026-04-12T10:47:35Z</time></trkpt><trkpt lat="43.33128985244803" lon="12.915534450427081"><ele>386.75</ele><time>2026-04-12T10:47:36Z</time></trkpt><trkpt lat="43.33119356732442" lon="12.915402141460234"><ele>385.5</ele><time>2026-04-12T10:47:37Z</time></trkpt><trkpt lat="43.33109940114724" lon="12.91527550926405"><ele>384.25</ele><time>2026-04-12T10:47:38Z</time></trkpt><trkpt lat="43.33100283580872" lon="12.91513841475105"><ele>383.0</ele><time>2026-04-12T10:47:39Z</time></trkpt><trkpt lat="43.33091003287733" lon="12.915008445537081"><ele>381.79999999999995</ele><time>2026-04-12T10:47:40Z</time></trkpt><trkpt lat="43.330821454837576" lon="12.914889805475541"><ele>380.6</ele><time>2026-04-12T10:47:41Z</time></trkpt><trkpt lat="43.33077531568127" lon="12.914761430381471"><ele>379.4</ele><time>2026-04-12T10:47:42Z</time></trkpt><trkpt lat="43.33072980354467" lon="12.914653478348711"><ele>378.20000000000005</ele><time>2026-04-12T10:47:43Z</time></trkpt><trkpt lat="43.33073074030374" lon="12.914536662564636"><ele>377.0</ele><time>2026-04-12T10:47:44Z</time></trkpt><trkpt lat="43.33075735742158" lon="12.914418209215205"><ele>377.0</ele><time>2026-04-12T10:47:45Z</time></trkpt><trkpt lat="43.33080239476357" lon="12.914305378229278"><ele>377.0</ele><time>2026-04-12T10:47:46Z</time></trkpt><trkpt lat="43.330852054424966" lon="12.914204277756765"><ele>377.0</ele><time>2026-04-12T10:47:47Z</time></trkpt><trkpt lat="43.330898465113606" lon="12.914093318762538"><ele>377.0</ele><time>2026-04-12T10:47:48Z</time></trkpt><trkpt lat="43.330938121813176" lon="12.913992105707875"><ele>377.0</ele><time>2026-04-12T10:47:49Z</time></trkpt><trkpt lat="43.33097207995466" lon="12.913909492269712"><ele>377.0</ele><time>2026-04-12T10:47:50Z</time></trkpt><trkpt lat="43.33104206223367" lon="12.91379732319346"><ele>376.0</ele><time>2026-04-12T10:47:52Z</time></trkpt><trkpt lat="43.33115641195525" lon="12.913867218216046"><ele>375.0</ele><time>2026-04-12T10:47:54Z</time></trkpt><trkpt lat="43.33125148055448" lon="12.913918706866403"><ele>374.0</ele><time>2026-04-12T10:47:55Z</time></trkpt><trkpt lat="43.33137174894329" lon="12.913977856484621"><ele>373.0</ele><time>2026-04-12T10:47:56Z</time></trkpt><trkpt lat="43.331484518646974" lon="12.914042049332004"><ele>370.75</ele><time>2026-04-12T10:47:57Z</time></trkpt><trkpt lat="43.33159281900519" lon="12.914086545476218"><ele>368.5</ele><time>2026-04-12T10:47:58Z</time></trkpt><trkpt lat="43.33170630247547" lon="12.914110763663736"><ele>366.25</ele><time>2026-04-12T10:47:59Z</time></trkpt><trkpt lat="43.33182725687027" lon="12.914103192769229"><ele>364.0</ele><time>2026-04-12T10:48:00Z</time></trkpt><trkpt lat="43.33194636380561" lon="12.914078788327332"><ele>364.0</ele><time>2026-04-12T10:48:01Z</time></trkpt><trkpt lat="43.332064428826016" lon="12.914053603805257"><ele>364.0</ele><time>2026-04-12T10:48:02Z</time></trkpt><trkpt lat="43.332180526364844" lon="12.9140301286693"><ele>364.0</ele><time>2026-04-12T10:48:03.001Z</time></trkpt><trkpt lat="43.33230144859319" lon="12.914010330908962"><ele>364.0</ele><time>2026-04-12T10:48:04.001Z</time></trkpt><trkpt lat="43.33242163028154" lon="12.91398773640472"><ele>361.2</ele><time>2026-04-12T10:48:05.001Z</time></trkpt><trkpt lat="43.33254492593321" lon="12.913987940223384"><ele>358.4</ele><time>2026-04-12T10:48:06.001Z</time></trkpt><trkpt lat="43.33266428814629" lon="12.913962714612463"><ele>355.6</ele><time>2026-04-12T10:48:07.001Z</time></trkpt><trkpt lat="43.332766440813295" lon="12.913909990057729"><ele>352.8</ele><time>2026-04-12T10:48:08.001Z</time></trkpt><trkpt lat="43.33285821478899" lon="12.913877463807772"><ele>350.0</ele><time>2026-04-12T10:48:09.001Z</time></trkpt><trkpt lat="43.33293700893952" lon="12.913804074557893"><ele>350.0</ele><time>2026-04-12T10:48:10.001Z</time></trkpt><trkpt lat="43.33298392279692" lon="12.913697431633873"><ele>350.0</ele><time>2026-04-12T10:48:11.001Z</time></trkpt><trkpt lat="43.333006395479764" lon="12.91357668653101"><ele>350.0</ele><time>2026-04-12T10:48:12.001Z</time></trkpt><trkpt lat="43.33299662198696" lon="12.91343557349019"><ele>350.0</ele><time>2026-04-12T10:48:13.001Z</time></trkpt><trkpt lat="43.33297408939284" lon="12.913273990910163"><ele>350.0</ele><time>2026-04-12T10:48:14.001Z</time></trkpt><trkpt lat="43.332975779748224" lon="12.913091602658211"><ele>350.5</ele><time>2026-04-12T10:48:15.001Z</time></trkpt><trkpt lat="43.3329546506986" lon="12.912910789398701"><ele>351.0</ele><time>2026-04-12T10:48:16.001Z</time></trkpt><trkpt lat="43.33295444663558" lon="12.912717055148812"><ele>351.5</ele><time>2026-04-12T10:48:17.001Z</time></trkpt><trkpt lat="43.33295426919383" lon="12.912510815413983"><ele>352.0</ele><time>2026-04-12T10:48:18.001Z</time></trkpt><trkpt lat="43.332963977460736" lon="12.912313917652435"><ele>352.25</ele><time>2026-04-12T10:48:19.001Z</time></trkpt><trkpt lat="43.332987664786785" lon="12.912139096566436"><ele>352.5</ele><time>2026-04-12T10:48:20.001Z</time></trkpt><trkpt lat="43.3330182951092" lon="12.91198013473387"><ele>352.75</ele><time>2026-04-12T10:48:21.001Z</time></trkpt><trkpt lat="43.33304936519673" lon="12.911823730210749"><ele>353.0</ele><time>2026-04-12T10:48:22.001Z</time></trkpt><trkpt lat="43.33307527246258" lon="12.911690260107955"><ele>353.59999999999997</ele><time>2026-04-12T10:48:23.001Z</time></trkpt><trkpt lat="43.33310100198864" lon="12.911580146609094"><ele>354.2</ele><time>2026-04-12T10:48:24.001Z</time></trkpt><trkpt lat="43.333141737077575" lon="12.911447235003187"><ele>354.8</ele><time>2026-04-12T10:48:26.001Z</time></trkpt><trkpt lat="43.333063409702675" lon="12.91139615576215"><ele>355.4</ele><time>2026-04-12T10:48:29Z</time></trkpt><trkpt lat="43.33299804947613" lon="12.911516008123224"><ele>356.0</ele><time>2026-04-12T10:48:31Z</time></trkpt><trkpt lat="43.3329869092155" lon="12.911625174397136"><ele>356.0</ele><time>2026-04-12T10:48:32Z</time></trkpt><trkpt lat="43.33297459928766" lon="12.911739725251026"><ele>356.0</ele><time>2026-04-12T10:48:33Z</time></trkpt><trkpt lat="43.33292361019778" lon="12.911875309024014"><ele>353.0</ele><time>2026-04-12T10:48:35Z</time></trkpt><trkpt lat="43.33285722664555" lon="12.911902052857561"><ele>353.0</ele><time>2026-04-12T10:48:37Z</time></trkpt></trkseg></trk></gpx>